<?xml version='1.0' encoding='UTF-8'?><gpx version="1.1" creator="JPX - https://github.com/jenetics/jpx" xmlns="http://www.topografix.com/GPX/1/1"><trk><trkseg><trkpt lat="43.8674852" lon="7.9502773"><ele>35.0</ele><time>2026-04-26T07:47:10.333Z</time></trkpt><trkpt lat="43.8674154" lon="7.9502166"><ele>35.0</ele><time>2026-04-26T07:47:15.332Z</time></trkpt><trkpt lat="43.8673413" lon="7.9502382"><ele>35.0</ele><time>2026-04-26T07:47:17.333Z</time></trkpt><trkpt lat="43.8672657" lon="7.9502548"><ele>35.0</ele><time>2026-04-26T07:47:19.333Z</time></trkpt><trkpt lat="43.8672034" lon="7.9502916"><ele>35.0</ele><time>2026-04-26T07:47:21.332Z</time></trkpt><trkpt lat="43.8671366" lon="7.9503158"><ele>35.0</ele><time>2026-04-26T07:47:24.332Z</time></trkpt><trkpt lat="43.8671347" lon="7.9501879"><ele>35.0</ele><time>2026-04-26T07:47:27.333Z</time></trkpt><trkpt lat="43.8671862" lon="7.9501038"><ele>35.0</ele><time>2026-04-26T07:47:29.332Z</time></trkpt><trkpt lat="43.8672571" lon="7.9500407"><ele>35.0</ele><time>2026-04-26T07:47:31.332Z</time></trkpt><trkpt lat="43.8673361" lon="7.9499812"><ele>35.0</ele><time>2026-04-26T07:47:33.332Z</time></trkpt><trkpt lat="43.8674072" lon="7.9499229"><ele>35.0</ele><time>2026-04-26T07:47:35.332Z</time></trkpt><trkpt lat="43.867473" lon="7.9498755"><ele>35.0</ele><time>2026-04-26T07:47:37.333Z</time></trkpt><trkpt lat="43.8675071" lon="7.9498006"><ele>37.33333333333333</ele><time>2026-04-26T07:47:40.332Z</time></trkpt><trkpt lat="43.8674403" lon="7.9497979"><ele>39.666666666666664</ele><time>2026-04-26T07:47:43.332Z</time></trkpt><trkpt lat="43.8673693" lon="7.9498404"><ele>42.0</ele><time>2026-04-26T07:47:45.333Z</time></trkpt><trkpt lat="43.8672819" lon="7.9498843"><ele>44.33333333333333</ele><time>2026-04-26T07:47:47.332Z</time></trkpt><trkpt lat="43.8671968" lon="7.9499309"><ele>46.666666666666664</ele><time>2026-04-26T07:47:49.333Z</time></trkpt><trkpt lat="43.8671178" lon="7.9499774"><ele>49.0</ele><time>2026-04-26T07:47:51.333Z</time></trkpt><trkpt lat="43.8670478" lon="7.950037"><ele>46.2</ele><time>2026-04-26T07:47:53.333Z</time></trkpt><trkpt lat="43.8669783" lon="7.9501207"><ele>43.400000000000006</ele><time>2026-04-26T07:47:55.333Z</time></trkpt><trkpt lat="43.8669198" lon="7.9502395"><ele>40.6</ele><time>2026-04-26T07:47:57.333Z</time></trkpt><trkpt lat="43.8668588" lon="7.9503928"><ele>37.8</ele><time>2026-04-26T07:47:59.333Z</time></trkpt><trkpt lat="43.8668333" lon="7.9504746"><ele>35.0</ele><time>2026-04-26T07:48:00.334Z</time></trkpt><trkpt lat="43.8668026" lon="7.950562"><ele>35.5</ele><time>2026-04-26T07:48:01.333Z</time></trkpt><trkpt lat="43.8667744" lon="7.9506475"><ele>36.0</ele><time>2026-04-26T07:48:02.333Z</time></trkpt><trkpt lat="43.8667426" lon="7.9507388"><ele>36.5</ele><time>2026-04-26T07:48:03.332Z</time></trkpt><trkpt lat="43.8667049" lon="7.9508299"><ele>37.0</ele><time>2026-04-26T07:48:04.332Z</time></trkpt><trkpt lat="43.8666668" lon="7.9509232"><ele>37.5</ele><time>2026-04-26T07:48:05.333Z</time></trkpt><trkpt lat="43.8666309" lon="7.9510176"><ele>38.0</ele><time>2026-04-26T07:48:06.333Z</time></trkpt><trkpt lat="43.8665805" lon="7.9511209"><ele>38.0</ele><time>2026-04-26T07:48:07.333Z</time></trkpt><trkpt lat="43.8665207" lon="7.9512082"><ele>38.0</ele><time>2026-04-26T07:48:08.333Z</time></trkpt><trkpt lat="43.8664509" lon="7.951281"><ele>38.0</ele><time>2026-04-26T07:48:09.333Z</time></trkpt><trkpt lat="43.8663773" lon="7.951341"><ele>38.0</ele><time>2026-04-26T07:48:10.333Z</time></trkpt><trkpt lat="43.8663087" lon="7.9513844"><ele>38.0</ele><time>2026-04-26T07:48:11.333Z</time></trkpt><trkpt lat="43.8662428" lon="7.9514278"><ele>38.0</ele><time>2026-04-26T07:48:12.333Z</time></trkpt><trkpt lat="43.8661728" lon="7.9514752"><ele>38.0</ele><time>2026-04-26T07:48:13.333Z</time></trkpt><trkpt lat="43.866088" lon="7.9515369"><ele>38.0</ele><time>2026-04-26T07:48:14.333Z</time></trkpt><trkpt lat="43.8660047" lon="7.9515974"><ele>38.0</ele><time>2026-04-26T07:48:15.332Z</time></trkpt><trkpt lat="43.8659156" lon="7.951653"><ele>38.0</ele><time>2026-04-26T07:48:16.334Z</time></trkpt><trkpt lat="43.8658178" lon="7.9517028"><ele>38.0</ele><time>2026-04-26T07:48:17.332Z</time></trkpt><trkpt lat="43.86572" lon="7.9517438"><ele>36.8</ele><time>2026-04-26T07:48:18.333Z</time></trkpt><trkpt lat="43.8656224" lon="7.951789"><ele>35.599999999999994</ele><time>2026-04-26T07:48:19.333Z</time></trkpt><trkpt lat="43.8655304" lon="7.9518258"><ele>34.400000000000006</ele><time>2026-04-26T07:48:20.333Z</time></trkpt><trkpt lat="43.8654394" lon="7.9518625"><ele>33.2</ele><time>2026-04-26T07:48:21.332Z</time></trkpt><trkpt lat="43.8653434" lon="7.9518963"><ele>32.0</ele><time>2026-04-26T07:48:22.333Z</time></trkpt><trkpt lat="43.8652439" lon="7.9519317"><ele>32.0</ele><time>2026-04-26T07:48:23.332Z</time></trkpt><trkpt lat="43.8651426" lon="7.9519526"><ele>32.0</ele><time>2026-04-26T07:48:24.334Z</time></trkpt><trkpt lat="43.8650352" lon="7.951928"><ele>32.0</ele><time>2026-04-26T07:48:25.333Z</time></trkpt><trkpt lat="43.864923" lon="7.9519092"><ele>32.0</ele><time>2026-04-26T07:48:26.333Z</time></trkpt><trkpt lat="43.8648067" lon="7.9518913"><ele>32.0</ele><time>2026-04-26T07:48:27.332Z</time></trkpt><trkpt lat="43.8646848" lon="7.9519022"><ele>32.5</ele><time>2026-04-26T07:48:28.333Z</time></trkpt><trkpt lat="43.8645615" lon="7.9519237"><ele>33.0</ele><time>2026-04-26T07:48:29.334Z</time></trkpt><trkpt lat="43.8644349" lon="7.9519603"><ele>33.5</ele><time>2026-04-26T07:48:30.334Z</time></trkpt><trkpt lat="43.8643128" lon="7.9519905"><ele>34.0</ele><time>2026-04-26T07:48:31.332Z</time></trkpt><trkpt lat="43.8641948" lon="7.9520173"><ele>34.2</ele><time>2026-04-26T07:48:32.333Z</time></trkpt><trkpt lat="43.8640828" lon="7.9520605"><ele>34.4</ele><time>2026-04-26T07:48:33.333Z</time></trkpt><trkpt lat="43.8639779" lon="7.9521196"><ele>34.6</ele><time>2026-04-26T07:48:34.332Z</time></trkpt><trkpt lat="43.8638768" lon="7.9521857"><ele>34.8</ele><time>2026-04-26T07:48:35.334Z</time></trkpt><trkpt lat="43.8637818" lon="7.9522533"><ele>35.0</ele><time>2026-04-26T07:48:36.332Z</time></trkpt><trkpt lat="43.8636844" lon="7.9523014"><ele>35.0</ele><time>2026-04-26T07:48:37.333Z</time></trkpt><trkpt lat="43.8635735" lon="7.9523215"><ele>35.0</ele><time>2026-04-26T07:48:38.333Z</time></trkpt><trkpt lat="43.863441" lon="7.9523017"><ele>35.0</ele><time>2026-04-26T07:48:39.334Z</time></trkpt><trkpt lat="43.8633244" lon="7.9522772"><ele>35.0</ele><time>2026-04-26T07:48:40.333Z</time></trkpt><trkpt lat="43.8632055" lon="7.9522752"><ele>35.75</ele><time>2026-04-26T07:48:41.332Z</time></trkpt><trkpt lat="43.8630917" lon="7.9522817"><ele>36.5</ele><time>2026-04-26T07:48:42.333Z</time></trkpt><trkpt lat="43.8629812" lon="7.9523186"><ele>37.25</ele><time>2026-04-26T07:48:43.332Z</time></trkpt><trkpt lat="43.8628776" lon="7.9523809"><ele>38.0</ele><time>2026-04-26T07:48:44.333Z</time></trkpt><trkpt lat="43.8627822" lon="7.9524577"><ele>36.75</ele><time>2026-04-26T07:48:45.333Z</time></trkpt><trkpt lat="43.8626906" lon="7.9525416"><ele>35.5</ele><time>2026-04-26T07:48:46.332Z</time></trkpt><trkpt lat="43.8626037" lon="7.9526664"><ele>34.25</ele><time>2026-04-26T07:48:47.333Z</time></trkpt><trkpt lat="43.8625346" lon="7.9527889"><ele>33.0</ele><time>2026-04-26T07:48:48.333Z</time></trkpt><trkpt lat="43.8624802" lon="7.9529303"><ele>33.0</ele><time>2026-04-26T07:48:49.333Z</time></trkpt><trkpt lat="43.8624419" lon="7.9530798"><ele>33.0</ele><time>2026-04-26T07:48:50.332Z</time></trkpt><trkpt lat="43.8623947" lon="7.9532274"><ele>33.0</ele><time>2026-04-26T07:48:51.332Z</time></trkpt><trkpt lat="43.8623341" lon="7.9533714"><ele>33.0</ele><time>2026-04-26T07:48:52.333Z</time></trkpt><trkpt lat="43.8622553" lon="7.9534984"><ele>31.75</ele><time>2026-04-26T07:48:53.333Z</time></trkpt><trkpt lat="43.8621657" lon="7.9536235"><ele>30.5</ele><time>2026-04-26T07:48:54.333Z</time></trkpt><trkpt lat="43.8620759" lon="7.953741"><ele>29.25</ele><time>2026-04-26T07:48:55.333Z</time></trkpt><trkpt lat="43.8619905" lon="7.9538598"><ele>28.0</ele><time>2026-04-26T07:48:56.334Z</time></trkpt><trkpt lat="43.8619158" lon="7.9539884"><ele>28.0</ele><time>2026-04-26T07:48:57.332Z</time></trkpt><trkpt lat="43.8618582" lon="7.9541234"><ele>28.0</ele><time>2026-04-26T07:48:58.332Z</time></trkpt><trkpt lat="43.8618101" lon="7.9542698"><ele>28.0</ele><time>2026-04-26T07:48:59.333Z</time></trkpt><trkpt lat="43.8617776" lon="7.9544189"><ele>28.0</ele><time>2026-04-26T07:49:00.332Z</time></trkpt><trkpt lat="43.8617541" lon="7.9545762"><ele>28.599999999999998</ele><time>2026-04-26T07:49:01.333Z</time></trkpt><trkpt lat="43.8617341" lon="7.9547284"><ele>29.199999999999996</ele><time>2026-04-26T07:49:02.332Z</time></trkpt><trkpt lat="43.8617034" lon="7.9548814"><ele>29.8</ele><time>2026-04-26T07:49:03.333Z</time></trkpt><trkpt lat="43.8616572" lon="7.9550195"><ele>30.4</ele><time>2026-04-26T07:49:04.332Z</time></trkpt><trkpt lat="43.8615983" lon="7.9551488"><ele>31.0</ele><time>2026-04-26T07:49:05.333Z</time></trkpt><trkpt lat="43.8615155" lon="7.9552597"><ele>29.0</ele><time>2026-04-26T07:49:06.333Z</time></trkpt><trkpt lat="43.8614231" lon="7.9553653"><ele>27.0</ele><time>2026-04-26T07:49:07.333Z</time></trkpt><trkpt lat="43.8613262" lon="7.9554675"><ele>25.0</ele><time>2026-04-26T07:49:08.333Z</time></trkpt><trkpt lat="43.8612341" lon="7.9555578"><ele>23.0</ele><time>2026-04-26T07:49:09.332Z</time></trkpt><trkpt lat="43.8611498" lon="7.9556466"><ele>23.0</ele><time>2026-04-26T07:49:10.334Z</time></trkpt><trkpt lat="43.8610676" lon="7.9557285"><ele>23.0</ele><time>2026-04-26T07:49:11.332Z</time></trkpt><trkpt lat="43.8609984" lon="7.9558026"><ele>23.0</ele><time>2026-04-26T07:49:12.334Z</time></trkpt><trkpt lat="43.8609558" lon="7.9558996"><ele>23.0</ele><time>2026-04-26T07:49:13.333Z</time></trkpt><trkpt lat="43.8609338" lon="7.9560182"><ele>23.0</ele><time>2026-04-26T07:49:14.334Z</time></trkpt><trkpt lat="43.8609257" lon="7.9561462"><ele>23.0</ele><time>2026-04-26T07:49:15.333Z</time></trkpt><trkpt lat="43.8609527" lon="7.9562909"><ele>23.0</ele><time>2026-04-26T07:49:16.333Z</time></trkpt><trkpt lat="43.8609793" lon="7.9564315"><ele>23.0</ele><time>2026-04-26T07:49:17.333Z</time></trkpt><trkpt lat="43.8610191" lon="7.9565799"><ele>23.0</ele><time>2026-04-26T07:49:18.333Z</time></trkpt><trkpt lat="43.861056" lon="7.9567295"><ele>23.0</ele><time>2026-04-26T07:49:19.333Z</time></trkpt><trkpt lat="43.8610943" lon="7.9568841"><ele>25.0</ele><time>2026-04-26T07:49:20.333Z</time></trkpt><trkpt lat="43.8611345" lon="7.957041"><ele>27.0</ele><time>2026-04-26T07:49:21.333Z</time></trkpt><trkpt lat="43.8611683" lon="7.9571964"><ele>29.0</ele><time>2026-04-26T07:49:22.333Z</time></trkpt><trkpt lat="43.8611859" lon="7.9573507"><ele>31.0</ele><time>2026-04-26T07:49:23.332Z</time></trkpt><trkpt lat="43.8611789" lon="7.9575034"><ele>32.75</ele><time>2026-04-26T07:49:24.334Z</time></trkpt><trkpt lat="43.8611491" lon="7.9576466"><ele>34.5</ele><time>2026-04-26T07:49:25.333Z</time></trkpt><trkpt lat="43.8611007" lon="7.9577855"><ele>36.25</ele><time>2026-04-26T07:49:26.334Z</time></trkpt><trkpt lat="43.8610342" lon="7.957927"><ele>38.0</ele><time>2026-04-26T07:49:27.332Z</time></trkpt><trkpt lat="43.8609634" lon="7.9580693"><ele>36.75</ele><time>2026-04-26T07:49:28.332Z</time></trkpt><trkpt lat="43.8608864" lon="7.9582172"><ele>35.5</ele><time>2026-04-26T07:49:29.333Z</time></trkpt><trkpt lat="43.8608091" lon="7.9583675"><ele>34.25</ele><time>2026-04-26T07:49:30.332Z</time></trkpt><trkpt lat="43.8607302" lon="7.9585089"><ele>33.0</ele><time>2026-04-26T07:49:31.333Z</time></trkpt><trkpt lat="43.8606464" lon="7.9586286"><ele>33.0</ele><time>2026-04-26T07:49:32.334Z</time></trkpt><trkpt lat="43.8605683" lon="7.9587351"><ele>33.0</ele><time>2026-04-26T07:49:33.334Z</time></trkpt><trkpt lat="43.8604745" lon="7.9588181"><ele>33.0</ele><time>2026-04-26T07:49:34.333Z</time></trkpt><trkpt lat="43.8603621" lon="7.9588208"><ele>33.0</ele><time>2026-04-26T07:49:35.333Z</time></trkpt><trkpt lat="43.8602556" lon="7.9588304"><ele>33.0</ele><time>2026-04-26T07:49:36.332Z</time></trkpt><trkpt lat="43.8601502" lon="7.9588568"><ele>31.75</ele><time>2026-04-26T07:49:37.333Z</time></trkpt><trkpt lat="43.8600489" lon="7.9589195"><ele>30.5</ele><time>2026-04-26T07:49:38.333Z</time></trkpt><trkpt lat="43.85995" lon="7.9590134"><ele>29.25</ele><time>2026-04-26T07:49:39.333Z</time></trkpt><trkpt lat="43.8598639" lon="7.9591173"><ele>28.0</ele><time>2026-04-26T07:49:40.333Z</time></trkpt><trkpt lat="43.859779" lon="7.9592033"><ele>28.0</ele><time>2026-04-26T07:49:41.333Z</time></trkpt><trkpt lat="43.8596946" lon="7.9592444"><ele>27.999999999999996</ele><time>2026-04-26T07:49:42.334Z</time></trkpt><trkpt lat="43.8595991" lon="7.9592577"><ele>27.999999999999996</ele><time>2026-04-26T07:49:43.332Z</time></trkpt><trkpt lat="43.8595051" lon="7.959264"><ele>28.0</ele><time>2026-04-26T07:49:44.333Z</time></trkpt><trkpt lat="43.8594146" lon="7.9592688"><ele>28.0</ele><time>2026-04-26T07:49:45.333Z</time></trkpt><trkpt lat="43.8593249" lon="7.9592965"><ele>25.4</ele><time>2026-04-26T07:49:46.333Z</time></trkpt><trkpt lat="43.8592346" lon="7.9593461"><ele>22.799999999999997</ele><time>2026-04-26T07:49:47.334Z</time></trkpt><trkpt lat="43.8591453" lon="7.959418"><ele>20.2</ele><time>2026-04-26T07:49:48.333Z</time></trkpt><trkpt lat="43.8590562" lon="7.9595037"><ele>17.6</ele><time>2026-04-26T07:49:49.334Z</time></trkpt><trkpt lat="43.85896" lon="7.959597"><ele>15.0</ele><time>2026-04-26T07:49:50.334Z</time></trkpt><trkpt lat="43.858862" lon="7.9596933"><ele>15.0</ele><time>2026-04-26T07:49:51.334Z</time></trkpt><trkpt lat="43.8587613" lon="7.9597912"><ele>15.0</ele><time>2026-04-26T07:49:52.333Z</time></trkpt><trkpt lat="43.8586586" lon="7.959881"><ele>15.0</ele><time>2026-04-26T07:49:53.334Z</time></trkpt><trkpt lat="43.8585549" lon="7.959962"><ele>15.0</ele><time>2026-04-26T07:49:54.333Z</time></trkpt><trkpt lat="43.8584351" lon="7.9600412"><ele>14.75</ele><time>2026-04-26T07:49:55.332Z</time></trkpt><trkpt lat="43.8583096" lon="7.9601019"><ele>14.5</ele><time>2026-04-26T07:49:56.333Z</time></trkpt><trkpt lat="43.8581879" lon="7.9601537"><ele>14.25</ele><time>2026-04-26T07:49:57.332Z</time></trkpt><trkpt lat="43.8580757" lon="7.9601947"><ele>14.0</ele><time>2026-04-26T07:49:58.332Z</time></trkpt><trkpt lat="43.8579682" lon="7.9602256"><ele>14.0</ele><time>2026-04-26T07:49:59.333Z</time></trkpt><trkpt lat="43.857864" lon="7.9602439"><ele>13.999999999999998</ele><time>2026-04-26T07:50:00.333Z</time></trkpt><trkpt lat="43.8577652" lon="7.9602382"><ele>13.999999999999998</ele><time>2026-04-26T07:50:01.332Z</time></trkpt><trkpt lat="43.8576707" lon="7.960238"><ele>14.0</ele><time>2026-04-26T07:50:02.334Z</time></trkpt><trkpt lat="43.8575704" lon="7.9602399"><ele>14.0</ele><time>2026-04-26T07:50:03.333Z</time></trkpt><trkpt lat="43.8574663" lon="7.9602408"><ele>13.2</ele><time>2026-04-26T07:50:04.333Z</time></trkpt><trkpt lat="43.8573602" lon="7.960241"><ele>12.399999999999999</ele><time>2026-04-26T07:50:05.333Z</time></trkpt><trkpt lat="43.8572649" lon="7.9602415"><ele>11.6</ele><time>2026-04-26T07:50:06.333Z</time></trkpt><trkpt lat="43.8571794" lon="7.9602448"><ele>10.8</ele><time>2026-04-26T07:50:07.333Z</time></trkpt><trkpt lat="43.8570941" lon="7.960254"><ele>10.0</ele><time>2026-04-26T07:50:08.333Z</time></trkpt><trkpt lat="43.8570126" lon="7.9602829"><ele>10.0</ele><time>2026-04-26T07:50:09.332Z</time></trkpt><trkpt lat="43.856931" lon="7.9603221"><ele>10.0</ele><time>2026-04-26T07:50:10.333Z</time></trkpt><trkpt lat="43.856848" lon="7.9603669"><ele>10.0</ele><time>2026-04-26T07:50:11.333Z</time></trkpt><trkpt lat="43.856762" lon="7.9604149"><ele>10.0</ele><time>2026-04-26T07:50:12.333Z</time></trkpt><trkpt lat="43.8566801" lon="7.9604594"><ele>10.0</ele><time>2026-04-26T07:50:13.333Z</time></trkpt><trkpt lat="43.8566005" lon="7.9605072"><ele>10.0</ele><time>2026-04-26T07:50:14.333Z</time></trkpt><trkpt lat="43.8565307" lon="7.9605609"><ele>10.0</ele><time>2026-04-26T07:50:15.333Z</time></trkpt><trkpt lat="43.8564564" lon="7.960613"><ele>10.0</ele><time>2026-04-26T07:50:16.332Z</time></trkpt><trkpt lat="43.8563823" lon="7.9606696"><ele>10.0</ele><time>2026-04-26T07:50:17.332Z</time></trkpt><trkpt lat="43.8563116" lon="7.9607337"><ele>10.0</ele><time>2026-04-26T07:50:18.333Z</time></trkpt><trkpt lat="43.8562429" lon="7.9608023"><ele>10.0</ele><time>2026-04-26T07:50:19.332Z</time></trkpt><trkpt lat="43.85618" lon="7.9608653"><ele>10.0</ele><time>2026-04-26T07:50:20.333Z</time></trkpt><trkpt lat="43.8561218" lon="7.9609175"><ele>10.0</ele><time>2026-04-26T07:50:21.334Z</time></trkpt><trkpt lat="43.856068" lon="7.9609748"><ele>10.0</ele><time>2026-04-26T07:50:22.333Z</time></trkpt><trkpt lat="43.8559875" lon="7.9610796"><ele>10.0</ele><time>2026-04-26T07:50:24.333Z</time></trkpt><trkpt lat="43.8559174" lon="7.9611644"><ele>10.0</ele><time>2026-04-26T07:50:26.332Z</time></trkpt><trkpt lat="43.85586" lon="7.9612508"><ele>10.0</ele><time>2026-04-26T07:50:28.334Z</time></trkpt><trkpt lat="43.8558075" lon="7.9613304"><ele>10.0</ele><time>2026-04-26T07:50:30.333Z</time></trkpt><trkpt lat="43.8557591" lon="7.9614003"><ele>9.714285714285714</ele><time>2026-04-26T07:50:32.332Z</time></trkpt><trkpt lat="43.8557007" lon="7.9614551"><ele>9.428571428571429</ele><time>2026-04-26T07:50:34.334Z</time></trkpt><trkpt lat="43.855623" lon="7.961458"><ele>9.142857142857142</ele><time>2026-04-26T07:50:36.333Z</time></trkpt><trkpt lat="43.855557" lon="7.9613926"><ele>8.857142857142858</ele><time>2026-04-26T07:50:38.333Z</time></trkpt><trkpt lat="43.8555214" lon="7.961306"><ele>8.571428571428571</ele><time>2026-04-26T07:50:40.332Z</time></trkpt><trkpt lat="43.8554769" lon="7.9612254"><ele>8.285714285714285</ele><time>2026-04-26T07:50:42.333Z</time></trkpt><trkpt lat="43.8554263" lon="7.9611628"><ele>8.0</ele><time>2026-04-26T07:50:54.332Z</time></trkpt><trkpt lat="43.8553509" lon="7.9610825"><ele>8.0</ele><time>2026-04-26T07:51:07.333Z</time></trkpt><trkpt lat="43.8552669" lon="7.9609697"><ele>8.0</ele><time>2026-04-26T07:51:09.333Z</time></trkpt><trkpt lat="43.8552143" lon="7.960892"><ele>8.0</ele><time>2026-04-26T07:51:10.334Z</time></trkpt><trkpt lat="43.8551432" lon="7.9608138"><ele>8.0</ele><time>2026-04-26T07:51:11.334Z</time></trkpt><trkpt lat="43.8550537" lon="7.9607103"><ele>8.0</ele><time>2026-04-26T07:51:12.333Z</time></trkpt><trkpt lat="43.8549591" lon="7.9606242"><ele>8.4</ele><time>2026-04-26T07:51:13.332Z</time></trkpt><trkpt lat="43.8548499" lon="7.9605491"><ele>8.8</ele><time>2026-04-26T07:51:14.333Z</time></trkpt><trkpt lat="43.8547338" lon="7.9604905"><ele>9.2</ele><time>2026-04-26T07:51:15.332Z</time></trkpt><trkpt lat="43.854636" lon="7.9604443"><ele>9.6</ele><time>2026-04-26T07:51:16.333Z</time></trkpt><trkpt lat="43.8545429" lon="7.9604014"><ele>10.0</ele><time>2026-04-26T07:51:17.334Z</time></trkpt><trkpt lat="43.8544532" lon="7.9603638"><ele>10.0</ele><time>2026-04-26T07:51:18.332Z</time></trkpt><trkpt lat="43.8543802" lon="7.9603363"><ele>10.0</ele><time>2026-04-26T07:51:19.333Z</time></trkpt><trkpt lat="43.8543176" lon="7.960323"><ele>10.0</ele><time>2026-04-26T07:51:20.333Z</time></trkpt><trkpt lat="43.8542071" lon="7.9603346"><ele>10.0</ele><time>2026-04-26T07:51:22.333Z</time></trkpt><trkpt lat="43.8541513" lon="7.9604045"><ele>10.0</ele><time>2026-04-26T07:51:24.332Z</time></trkpt><trkpt lat="43.8541006" lon="7.9604869"><ele>10.0</ele><time>2026-04-26T07:51:27.333Z</time></trkpt><trkpt lat="43.8540263" lon="7.9606481"><ele>10.2</ele><time>2026-04-26T07:51:29.334Z</time></trkpt><trkpt lat="43.853985" lon="7.9607632"><ele>10.4</ele><time>2026-04-26T07:51:30.332Z</time></trkpt><trkpt lat="43.853943" lon="7.960885"><ele>10.600000000000001</ele><time>2026-04-26T07:51:31.332Z</time></trkpt><trkpt lat="43.8538773" lon="7.96101"><ele>10.8</ele><time>2026-04-26T07:51:32.333Z</time></trkpt><trkpt lat="43.8538129" lon="7.9611262"><ele>11.0</ele><time>2026-04-26T07:51:33.333Z</time></trkpt><trkpt lat="43.8537453" lon="7.9612479"><ele>11.0</ele><time>2026-04-26T07:51:34.333Z</time></trkpt><trkpt lat="43.8536838" lon="7.9613679"><ele>11.0</ele><time>2026-04-26T07:51:35.334Z</time></trkpt><trkpt lat="43.8536225" lon="7.9614897"><ele>11.0</ele><time>2026-04-26T07:51:36.333Z</time></trkpt><trkpt lat="43.8535638" lon="7.961598"><ele>11.0</ele><time>2026-04-26T07:51:37.334Z</time></trkpt><trkpt lat="43.8535062" lon="7.9616926"><ele>11.0</ele><time>2026-04-26T07:51:38.334Z</time></trkpt><trkpt lat="43.8534474" lon="7.9617808"><ele>11.5</ele><time>2026-04-26T07:51:39.333Z</time></trkpt><trkpt lat="43.85339" lon="7.9618576"><ele>12.0</ele><time>2026-04-26T07:51:40.334Z</time></trkpt><trkpt lat="43.8533336" lon="7.961923"><ele>12.5</ele><time>2026-04-26T07:51:41.333Z</time></trkpt><trkpt lat="43.8532759" lon="7.9619948"><ele>13.0</ele><time>2026-04-26T07:51:42.334Z</time></trkpt><trkpt lat="43.8532176" lon="7.9620735"><ele>13.500000000000002</ele><time>2026-04-26T07:51:43.332Z</time></trkpt><trkpt lat="43.8531572" lon="7.9621527"><ele>14.0</ele><time>2026-04-26T07:51:44.333Z</time></trkpt><trkpt lat="43.8531057" lon="7.9622265"><ele>14.000000000000002</ele><time>2026-04-26T07:51:45.334Z</time></trkpt><trkpt lat="43.8530612" lon="7.9623012"><ele>14.0</ele><time>2026-04-26T07:51:46.333Z</time></trkpt><trkpt lat="43.8530592" lon="7.9624489"><ele>14.0</ele><time>2026-04-26T07:51:48.333Z</time></trkpt><trkpt lat="43.8530747" lon="7.962566"><ele>14.0</ele><time>2026-04-26T07:51:50.332Z</time></trkpt><trkpt lat="43.8530922" lon="7.9626617"><ele>14.000000000000002</ele><time>2026-04-26T07:51:54.332Z</time></trkpt><trkpt lat="43.8530975" lon="7.9627562"><ele>14.0</ele><time>2026-04-26T07:51:58.333Z</time></trkpt><trkpt lat="43.8531096" lon="7.9628656"><ele>13.2</ele><time>2026-04-26T07:52:02.334Z</time></trkpt><trkpt lat="43.8530651" lon="7.9629413"><ele>12.399999999999999</ele><time>2026-04-26T07:52:05.334Z</time></trkpt><trkpt lat="43.8529303" lon="7.9629112"><ele>11.6</ele><time>2026-04-26T07:52:07.334Z</time></trkpt><trkpt lat="43.8528353" lon="7.9628822"><ele>10.8</ele><time>2026-04-26T07:52:09.333Z</time></trkpt><trkpt lat="43.8527137" lon="7.9628526"><ele>10.0</ele><time>2026-04-26T07:52:11.332Z</time></trkpt><trkpt lat="43.8526378" lon="7.9628335"><ele>10.0</ele><time>2026-04-26T07:52:12.333Z</time></trkpt><trkpt lat="43.8525661" lon="7.9628124"><ele>10.0</ele><time>2026-04-26T07:52:13.334Z</time></trkpt><trkpt lat="43.8524897" lon="7.9628"><ele>10.0</ele><time>2026-04-26T07:52:14.333Z</time></trkpt><trkpt lat="43.8524045" lon="7.9627599"><ele>10.0</ele><time>2026-04-26T07:52:15.334Z</time></trkpt><trkpt lat="43.8523219" lon="7.962687"><ele>10.0</ele><time>2026-04-26T07:52:16.333Z</time></trkpt><trkpt lat="43.8522417" lon="7.9625782"><ele>11.75</ele><time>2026-04-26T07:52:17.333Z</time></trkpt><trkpt lat="43.8521727" lon="7.9624606"><ele>13.5</ele><time>2026-04-26T07:52:18.333Z</time></trkpt><trkpt lat="43.8521023" lon="7.9623308"><ele>15.25</ele><time>2026-04-26T07:52:19.334Z</time></trkpt><trkpt lat="43.8520241" lon="7.9621963"><ele>17.0</ele><time>2026-04-26T07:52:20.332Z</time></trkpt><trkpt lat="43.8519476" lon="7.9620625"><ele>17.0</ele><time>2026-04-26T07:52:21.332Z</time></trkpt><trkpt lat="43.8518629" lon="7.9619257"><ele>17.0</ele><time>2026-04-26T07:52:22.334Z</time></trkpt><trkpt lat="43.8517785" lon="7.9617816"><ele>17.0</ele><time>2026-04-26T07:52:23.333Z</time></trkpt><trkpt lat="43.8516902" lon="7.9616389"><ele>17.0</ele><time>2026-04-26T07:52:24.333Z</time></trkpt><trkpt lat="43.8516002" lon="7.9614887"><ele>17.25</ele><time>2026-04-26T07:52:25.333Z</time></trkpt><trkpt lat="43.851512" lon="7.9613394"><ele>17.5</ele><time>2026-04-26T07:52:26.332Z</time></trkpt><trkpt lat="43.851426" lon="7.9611845"><ele>17.75</ele><time>2026-04-26T07:52:27.333Z</time></trkpt><trkpt lat="43.8513443" lon="7.9610268"><ele>18.0</ele><time>2026-04-26T07:52:28.332Z</time></trkpt><trkpt lat="43.851264" lon="7.9608633"><ele>20.75</ele><time>2026-04-26T07:52:29.332Z</time></trkpt><trkpt lat="43.8511897" lon="7.9606984"><ele>23.5</ele><time>2026-04-26T07:52:30.333Z</time></trkpt><trkpt lat="43.8511155" lon="7.9605332"><ele>26.25</ele><time>2026-04-26T07:52:31.333Z</time></trkpt><trkpt lat="43.8510444" lon="7.9603662"><ele>29.0</ele><time>2026-04-26T07:52:32.333Z</time></trkpt><trkpt lat="43.8509798" lon="7.9601951"><ele>25.25</ele><time>2026-04-26T07:52:33.333Z</time></trkpt><trkpt lat="43.8509173" lon="7.9600211"><ele>21.5</ele><time>2026-04-26T07:52:34.334Z</time></trkpt><trkpt lat="43.8508611" lon="7.9598434"><ele>17.75</ele><time>2026-04-26T07:52:35.334Z</time></trkpt><trkpt lat="43.8508079" lon="7.9596592"><ele>14.0</ele><time>2026-04-26T07:52:36.334Z</time></trkpt><trkpt lat="43.8507627" lon="7.9594736"><ele>14.0</ele><time>2026-04-26T07:52:37.333Z</time></trkpt><trkpt lat="43.8507207" lon="7.9592839"><ele>14.0</ele><time>2026-04-26T07:52:38.334Z</time></trkpt><trkpt lat="43.8506797" lon="7.9590988"><ele>14.0</ele><time>2026-04-26T07:52:39.334Z</time></trkpt><trkpt lat="43.8506516" lon="7.9589111"><ele>14.0</ele><time>2026-04-26T07:52:40.334Z</time></trkpt><trkpt lat="43.8506268" lon="7.9587187"><ele>15.75</ele><time>2026-04-26T07:52:41.333Z</time></trkpt><trkpt lat="43.8506081" lon="7.9585247"><ele>17.5</ele><time>2026-04-26T07:52:42.333Z</time></trkpt><trkpt lat="43.8505906" lon="7.9583263"><ele>19.25</ele><time>2026-04-26T07:52:43.332Z</time></trkpt><trkpt lat="43.850574" lon="7.9581281"><ele>21.0</ele><time>2026-04-26T07:52:44.334Z</time></trkpt><trkpt lat="43.8505618" lon="7.9579232"><ele>23.0</ele><time>2026-04-26T07:52:45.333Z</time></trkpt><trkpt lat="43.8505491" lon="7.9577205"><ele>25.0</ele><time>2026-04-26T07:52:46.332Z</time></trkpt><trkpt lat="43.8505372" lon="7.9575214"><ele>27.0</ele><time>2026-04-26T07:52:47.334Z</time></trkpt><trkpt lat="43.8505234" lon="7.9573197"><ele>29.0</ele><time>2026-04-26T07:52:48.333Z</time></trkpt><trkpt lat="43.8505105" lon="7.9571143"><ele>31.0</ele><time>2026-04-26T07:52:49.333Z</time></trkpt><trkpt lat="43.8504943" lon="7.9569109"><ele>33.0</ele><time>2026-04-26T07:52:50.333Z</time></trkpt><trkpt lat="43.8504762" lon="7.9567112"><ele>35.0</ele><time>2026-04-26T07:52:51.333Z</time></trkpt><trkpt lat="43.8504444" lon="7.9565186"><ele>37.0</ele><time>2026-04-26T07:52:52.332Z</time></trkpt><trkpt lat="43.8504155" lon="7.9563313"><ele>38.5</ele><time>2026-04-26T07:52:53.333Z</time></trkpt><trkpt lat="43.8503731" lon="7.9561425"><ele>40.0</ele><time>2026-04-26T07:52:54.333Z</time></trkpt><trkpt lat="43.8503274" lon="7.9559646"><ele>41.5</ele><time>2026-04-26T07:52:55.333Z</time></trkpt><trkpt lat="43.8502592" lon="7.9557943"><ele>43.0</ele><time>2026-04-26T07:52:56.333Z</time></trkpt><trkpt lat="43.8501847" lon="7.9556291"><ele>39.0</ele><time>2026-04-26T07:52:57.333Z</time></trkpt><trkpt lat="43.8501102" lon="7.9554665"><ele>35.0</ele><time>2026-04-26T07:52:58.333Z</time></trkpt><trkpt lat="43.8500338" lon="7.9552977"><ele>31.0</ele><time>2026-04-26T07:52:59.333Z</time></trkpt><trkpt lat="43.8499576" lon="7.9551355"><ele>27.0</ele><time>2026-04-26T07:53:00.333Z</time></trkpt><trkpt lat="43.8498791" lon="7.9549706"><ele>27.0</ele><time>2026-04-26T07:53:01.333Z</time></trkpt><trkpt lat="43.8497997" lon="7.9548032"><ele>27.0</ele><time>2026-04-26T07:53:02.333Z</time></trkpt><trkpt lat="43.8497156" lon="7.9546395"><ele>27.0</ele><time>2026-04-26T07:53:03.334Z</time></trkpt><trkpt lat="43.8496226" lon="7.9544796"><ele>27.0</ele><time>2026-04-26T07:53:04.332Z</time></trkpt><trkpt lat="43.8495268" lon="7.9543267"><ele>30.666666666666664</ele><time>2026-04-26T07:53:05.333Z</time></trkpt><trkpt lat="43.8494284" lon="7.9541706"><ele>34.33333333333333</ele><time>2026-04-26T07:53:06.333Z</time></trkpt><trkpt lat="43.8493285" lon="7.9540088"><ele>38.0</ele><time>2026-04-26T07:53:07.332Z</time></trkpt><trkpt lat="43.8492307" lon="7.9538486"><ele>34.5</ele><time>2026-04-26T07:53:08.334Z</time></trkpt><trkpt lat="43.8491336" lon="7.9536926"><ele>31.0</ele><time>2026-04-26T07:53:09.334Z</time></trkpt><trkpt lat="43.8490468" lon="7.9535325"><ele>27.5</ele><time>2026-04-26T07:53:10.334Z</time></trkpt><trkpt lat="43.8489912" lon="7.953345"><ele>24.0</ele><time>2026-04-26T07:53:11.333Z</time></trkpt><trkpt lat="43.8489453" lon="7.9531597"><ele>24.0</ele><time>2026-04-26T07:53:12.332Z</time></trkpt><trkpt lat="43.8489172" lon="7.9529714"><ele>24.0</ele><time>2026-04-26T07:53:13.332Z</time></trkpt><trkpt lat="43.8489013" lon="7.9527899"><ele>24.0</ele><time>2026-04-26T07:53:14.333Z</time></trkpt><trkpt lat="43.8489063" lon="7.9525996"><ele>24.0</ele><time>2026-04-26T07:53:15.334Z</time></trkpt><trkpt lat="43.8489246" lon="7.9524144"><ele>25.0</ele><time>2026-04-26T07:53:16.333Z</time></trkpt><trkpt lat="43.8489394" lon="7.9522432"><ele>26.0</ele><time>2026-04-26T07:53:17.333Z</time></trkpt><trkpt lat="43.8489394" lon="7.9520807"><ele>27.0</ele><time>2026-04-26T07:53:18.333Z</time></trkpt><trkpt lat="43.8489309" lon="7.9519246"><ele>28.0</ele><time>2026-04-26T07:53:19.334Z</time></trkpt><trkpt lat="43.8489003" lon="7.9517725"><ele>29.0</ele><time>2026-04-26T07:53:20.333Z</time></trkpt><trkpt lat="43.8488659" lon="7.95162"><ele>30.0</ele><time>2026-04-26T07:53:21.333Z</time></trkpt><trkpt lat="43.8488311" lon="7.9514661"><ele>31.0</ele><time>2026-04-26T07:53:22.333Z</time></trkpt><trkpt lat="43.8487954" lon="7.9513149"><ele>32.0</ele><time>2026-04-26T07:53:23.333Z</time></trkpt><trkpt lat="43.8487609" lon="7.9511674"><ele>32.0</ele><time>2026-04-26T07:53:24.333Z</time></trkpt><trkpt lat="43.8487217" lon="7.9510226"><ele>32.0</ele><time>2026-04-26T07:53:25.334Z</time></trkpt><trkpt lat="43.8486751" lon="7.9508852"><ele>32.0</ele><time>2026-04-26T07:53:26.334Z</time></trkpt><trkpt lat="43.8486139" lon="7.9507664"><ele>32.0</ele><time>2026-04-26T07:53:27.333Z</time></trkpt><trkpt lat="43.8485437" lon="7.9506529"><ele>32.0</ele><time>2026-04-26T07:53:28.334Z</time></trkpt><trkpt lat="43.8484682" lon="7.9505431"><ele>29.25</ele><time>2026-04-26T07:53:29.334Z</time></trkpt><trkpt lat="43.8483842" lon="7.9504322"><ele>26.5</ele><time>2026-04-26T07:53:30.333Z</time></trkpt><trkpt lat="43.8482975" lon="7.9503195"><ele>23.75</ele><time>2026-04-26T07:53:31.333Z</time></trkpt><trkpt lat="43.8482099" lon="7.9501994"><ele>21.0</ele><time>2026-04-26T07:53:32.333Z</time></trkpt><trkpt lat="43.848124" lon="7.9500694"><ele>22.25</ele><time>2026-04-26T07:53:33.333Z</time></trkpt><trkpt lat="43.8480396" lon="7.9499306"><ele>23.5</ele><time>2026-04-26T07:53:34.333Z</time></trkpt><trkpt lat="43.8479585" lon="7.9497858"><ele>24.75</ele><time>2026-04-26T07:53:35.333Z</time></trkpt><trkpt lat="43.8478906" lon="7.9496148"><ele>26.0</ele><time>2026-04-26T07:53:36.334Z</time></trkpt><trkpt lat="43.8478408" lon="7.9494328"><ele>26.0</ele><time>2026-04-26T07:53:37.333Z</time></trkpt><trkpt lat="43.8478084" lon="7.9492461"><ele>26.0</ele><time>2026-04-26T07:53:38.333Z</time></trkpt><trkpt lat="43.8477938" lon="7.9490562"><ele>26.0</ele><time>2026-04-26T07:53:39.334Z</time></trkpt><trkpt lat="43.8477912" lon="7.9488727"><ele>26.0</ele><time>2026-04-26T07:53:40.334Z</time></trkpt><trkpt lat="43.8477783" lon="7.948696"><ele>24.5</ele><time>2026-04-26T07:53:41.332Z</time></trkpt><trkpt lat="43.8477377" lon="7.9485193"><ele>23.0</ele><time>2026-04-26T07:53:42.333Z</time></trkpt><trkpt lat="43.8476692" lon="7.9483523"><ele>21.5</ele><time>2026-04-26T07:53:43.334Z</time></trkpt><trkpt lat="43.8475932" lon="7.9481847"><ele>20.0</ele><time>2026-04-26T07:53:44.333Z</time></trkpt><trkpt lat="43.8475233" lon="7.9480116"><ele>20.0</ele><time>2026-04-26T07:53:45.333Z</time></trkpt><trkpt lat="43.8474605" lon="7.9478367"><ele>20.0</ele><time>2026-04-26T07:53:46.333Z</time></trkpt><trkpt lat="43.8474026" lon="7.947657"><ele>20.0</ele><time>2026-04-26T07:53:47.333Z</time></trkpt><trkpt lat="43.847349" lon="7.9474806"><ele>20.0</ele><time>2026-04-26T07:53:48.333Z</time></trkpt><trkpt lat="43.8472973" lon="7.9473007"><ele>21.5</ele><time>2026-04-26T07:53:49.334Z</time></trkpt><trkpt lat="43.8472405" lon="7.9471215"><ele>23.0</ele><time>2026-04-26T07:53:50.334Z</time></trkpt><trkpt lat="43.8471839" lon="7.9469341"><ele>24.5</ele><time>2026-04-26T07:53:51.334Z</time></trkpt><trkpt lat="43.8471251" lon="7.9467517"><ele>26.0</ele><time>2026-04-26T07:53:52.334Z</time></trkpt><trkpt lat="43.8470674" lon="7.9465741"><ele>27.25</ele><time>2026-04-26T07:53:53.334Z</time></trkpt><trkpt lat="43.8470116" lon="7.9463926"><ele>28.5</ele><time>2026-04-26T07:53:54.333Z</time></trkpt><trkpt lat="43.8469722" lon="7.946201"><ele>29.75</ele><time>2026-04-26T07:53:55.333Z</time></trkpt><trkpt lat="43.8469492" lon="7.9460058"><ele>31.0</ele><time>2026-04-26T07:53:56.333Z</time></trkpt><trkpt lat="43.8469406" lon="7.945807"><ele>33.0</ele><time>2026-04-26T07:53:57.333Z</time></trkpt><trkpt lat="43.8469397" lon="7.9456014"><ele>35.0</ele><time>2026-04-26T07:53:58.333Z</time></trkpt><trkpt lat="43.8469427" lon="7.9453918"><ele>37.0</ele><time>2026-04-26T07:53:59.334Z</time></trkpt><trkpt lat="43.8469492" lon="7.9451809"><ele>38.25</ele><time>2026-04-26T07:54:00.333Z</time></trkpt><trkpt lat="43.8469567" lon="7.9449759"><ele>39.5</ele><time>2026-04-26T07:54:01.333Z</time></trkpt><trkpt lat="43.8469614" lon="7.9447773"><ele>40.75</ele><time>2026-04-26T07:54:02.334Z</time></trkpt><trkpt lat="43.8469632" lon="7.9445753"><ele>42.0</ele><time>2026-04-26T07:54:03.334Z</time></trkpt><trkpt lat="43.8469627" lon="7.9443752"><ele>43.0</ele><time>2026-04-26T07:54:04.333Z</time></trkpt><trkpt lat="43.846959" lon="7.9441744"><ele>44.0</ele><time>2026-04-26T07:54:05.333Z</time></trkpt><trkpt lat="43.8469508" lon="7.9439624"><ele>45.0</ele><time>2026-04-26T07:54:06.333Z</time></trkpt><trkpt lat="43.8469378" lon="7.9437527"><ele>45.0</ele><time>2026-04-26T07:54:07.334Z</time></trkpt><trkpt lat="43.8469215" lon="7.9435384"><ele>45.0</ele><time>2026-04-26T07:54:08.333Z</time></trkpt><trkpt lat="43.8469019" lon="7.9433261"><ele>45.0</ele><time>2026-04-26T07:54:09.333Z</time></trkpt><trkpt lat="43.8468751" lon="7.9431125"><ele>46.33333333333333</ele><time>2026-04-26T07:54:10.334Z</time></trkpt><trkpt lat="43.846843" lon="7.9428966"><ele>47.666666666666664</ele><time>2026-04-26T07:54:11.334Z</time></trkpt><trkpt lat="43.8468033" lon="7.9426911"><ele>49.0</ele><time>2026-04-26T07:54:12.333Z</time></trkpt><trkpt lat="43.8467633" lon="7.9424855"><ele>40.33333333333333</ele><time>2026-04-26T07:54:13.333Z</time></trkpt><trkpt lat="43.8467226" lon="7.9422799"><ele>31.666666666666664</ele><time>2026-04-26T07:54:14.334Z</time></trkpt><trkpt lat="43.8466747" lon="7.9420822"><ele>23.0</ele><time>2026-04-26T07:54:15.334Z</time></trkpt><trkpt lat="43.8466185" lon="7.9418948"><ele>25.25</ele><time>2026-04-26T07:54:16.333Z</time></trkpt><trkpt lat="43.8465528" lon="7.941712"><ele>27.5</ele><time>2026-04-26T07:54:17.334Z</time></trkpt><trkpt lat="43.8464838" lon="7.9415344"><ele>29.75</ele><time>2026-04-26T07:54:18.333Z</time></trkpt><trkpt lat="43.8464143" lon="7.9413549"><ele>32.0</ele><time>2026-04-26T07:54:19.333Z</time></trkpt><trkpt lat="43.8463362" lon="7.9411942"><ele>32.0</ele><time>2026-04-26T07:54:20.333Z</time></trkpt><trkpt lat="43.8462553" lon="7.9410387"><ele>32.0</ele><time>2026-04-26T07:54:21.334Z</time></trkpt><trkpt lat="43.8461716" lon="7.9408795"><ele>32.0</ele><time>2026-04-26T07:54:22.334Z</time></trkpt><trkpt lat="43.8460915" lon="7.9407203"><ele>32.0</ele><time>2026-04-26T07:54:23.333Z</time></trkpt><trkpt lat="43.8460171" lon="7.9405558"><ele>29.5</ele><time>2026-04-26T07:54:24.333Z</time></trkpt><trkpt lat="43.8459495" lon="7.9403818"><ele>27.0</ele><time>2026-04-26T07:54:25.333Z</time></trkpt><trkpt lat="43.8458979" lon="7.9401966"><ele>24.5</ele><time>2026-04-26T07:54:26.334Z</time></trkpt><trkpt lat="43.8458578" lon="7.9400118"><ele>22.0</ele><time>2026-04-26T07:54:27.333Z</time></trkpt><trkpt lat="43.8458251" lon="7.9398188"><ele>22.0</ele><time>2026-04-26T07:54:28.333Z</time></trkpt><trkpt lat="43.8457978" lon="7.9396218"><ele>22.0</ele><time>2026-04-26T07:54:29.334Z</time></trkpt><trkpt lat="43.84578" lon="7.9394186"><ele>22.0</ele><time>2026-04-26T07:54:30.334Z</time></trkpt><trkpt lat="43.8457758" lon="7.9392168"><ele>22.0</ele><time>2026-04-26T07:54:31.334Z</time></trkpt><trkpt lat="43.8457889" lon="7.9390157"><ele>22.5</ele><time>2026-04-26T07:54:32.334Z</time></trkpt><trkpt lat="43.8458169" lon="7.9388156"><ele>23.0</ele><time>2026-04-26T07:54:33.334Z</time></trkpt><trkpt lat="43.8458485" lon="7.9386172"><ele>23.5</ele><time>2026-04-26T07:54:34.333Z</time></trkpt><trkpt lat="43.8458738" lon="7.9384162"><ele>24.0</ele><time>2026-04-26T07:54:35.334Z</time></trkpt><trkpt lat="43.8458792" lon="7.9382085"><ele>22.666666666666668</ele><time>2026-04-26T07:54:36.333Z</time></trkpt><trkpt lat="43.8458722" lon="7.9379976"><ele>21.333333333333336</ele><time>2026-04-26T07:54:37.333Z</time></trkpt><trkpt lat="43.8458514" lon="7.9377891"><ele>20.0</ele><time>2026-04-26T07:54:38.334Z</time></trkpt><trkpt lat="43.8458233" lon="7.9375846"><ele>20.0</ele><time>2026-04-26T07:54:39.334Z</time></trkpt><trkpt lat="43.8457902" lon="7.9373767"><ele>20.0</ele><time>2026-04-26T07:54:40.334Z</time></trkpt><trkpt lat="43.8457525" lon="7.9371735"><ele>20.0</ele><time>2026-04-26T07:54:41.333Z</time></trkpt><trkpt lat="43.8457088" lon="7.9369721"><ele>20.0</ele><time>2026-04-26T07:54:42.332Z</time></trkpt><trkpt lat="43.8456616" lon="7.9367712"><ele>20.0</ele><time>2026-04-26T07:54:43.334Z</time></trkpt><trkpt lat="43.8456124" lon="7.9365747"><ele>20.0</ele><time>2026-04-26T07:54:44.334Z</time></trkpt><trkpt lat="43.8455676" lon="7.9363747"><ele>22.0</ele><time>2026-04-26T07:54:45.333Z</time></trkpt><trkpt lat="43.8455246" lon="7.9361803"><ele>24.0</ele><time>2026-04-26T07:54:46.334Z</time></trkpt><trkpt lat="43.8454903" lon="7.9359752"><ele>26.0</ele><time>2026-04-26T07:54:47.333Z</time></trkpt><trkpt lat="43.845463" lon="7.9357687"><ele>29.666666666666664</ele><time>2026-04-26T07:54:48.333Z</time></trkpt><trkpt lat="43.8454395" lon="7.9355581"><ele>33.333333333333336</ele><time>2026-04-26T07:54:49.334Z</time></trkpt><trkpt lat="43.8454163" lon="7.9353516"><ele>37.0</ele><time>2026-04-26T07:54:50.334Z</time></trkpt><trkpt lat="43.845391" lon="7.9351421"><ele>38.66666666666667</ele><time>2026-04-26T07:54:51.334Z</time></trkpt><trkpt lat="43.8453716" lon="7.9349265"><ele>40.333333333333336</ele><time>2026-04-26T07:54:52.334Z</time></trkpt><trkpt lat="43.8453504" lon="7.9347056"><ele>42.0</ele><time>2026-04-26T07:54:53.333Z</time></trkpt><trkpt lat="43.8453374" lon="7.9344802"><ele>42.0</ele><time>2026-04-26T07:54:54.334Z</time></trkpt><trkpt lat="43.8453231" lon="7.9342652"><ele>42.0</ele><time>2026-04-26T07:54:55.333Z</time></trkpt><trkpt lat="43.8453087" lon="7.9340582"><ele>42.0</ele><time>2026-04-26T07:54:56.333Z</time></trkpt><trkpt lat="43.8452975" lon="7.9338563"><ele>43.0</ele><time>2026-04-26T07:54:57.333Z</time></trkpt><trkpt lat="43.8452803" lon="7.9336508"><ele>44.0</ele><time>2026-04-26T07:54:58.333Z</time></trkpt><trkpt lat="43.8452598" lon="7.9334437"><ele>45.0</ele><time>2026-04-26T07:54:59.333Z</time></trkpt><trkpt lat="43.845236" lon="7.9332343"><ele>47.66666666666667</ele><time>2026-04-26T07:55:00.333Z</time></trkpt><trkpt lat="43.845207" lon="7.9330246"><ele>50.333333333333336</ele><time>2026-04-26T07:55:01.334Z</time></trkpt><trkpt lat="43.8451722" lon="7.9328179"><ele>53.0</ele><time>2026-04-26T07:55:02.333Z</time></trkpt><trkpt lat="43.8451447" lon="7.9326052"><ele>41.333333333333336</ele><time>2026-04-26T07:55:03.333Z</time></trkpt><trkpt lat="43.8451207" lon="7.9323912"><ele>29.666666666666668</ele><time>2026-04-26T07:55:04.334Z</time></trkpt><trkpt lat="43.8450963" lon="7.9321765"><ele>18.0</ele><time>2026-04-26T07:55:05.334Z</time></trkpt><trkpt lat="43.8450686" lon="7.9319632"><ele>18.0</ele><time>2026-04-26T07:55:06.334Z</time></trkpt><trkpt lat="43.8450415" lon="7.93175"><ele>18.0</ele><time>2026-04-26T07:55:07.334Z</time></trkpt><trkpt lat="43.8450154" lon="7.9315362"><ele>18.0</ele><time>2026-04-26T07:55:08.333Z</time></trkpt><trkpt lat="43.8449857" lon="7.9313242"><ele>18.333333333333332</ele><time>2026-04-26T07:55:09.333Z</time></trkpt><trkpt lat="43.8449617" lon="7.9311097"><ele>18.666666666666664</ele><time>2026-04-26T07:55:10.334Z</time></trkpt><trkpt lat="43.8449422" lon="7.9308968"><ele>19.0</ele><time>2026-04-26T07:55:11.333Z</time></trkpt><trkpt lat="43.8449236" lon="7.9306849"><ele>19.0</ele><time>2026-04-26T07:55:12.334Z</time></trkpt><trkpt lat="43.8449081" lon="7.9304689"><ele>19.0</ele><time>2026-04-26T07:55:13.333Z</time></trkpt><trkpt lat="43.844907" lon="7.9302498"><ele>19.0</ele><time>2026-04-26T07:55:14.333Z</time></trkpt><trkpt lat="43.8449225" lon="7.9300246"><ele>20.0</ele><time>2026-04-26T07:55:15.334Z</time></trkpt><trkpt lat="43.8449433" lon="7.9298065"><ele>21.0</ele><time>2026-04-26T07:55:16.333Z</time></trkpt><trkpt lat="43.8449681" lon="7.9295848"><ele>22.0</ele><time>2026-04-26T07:55:17.334Z</time></trkpt><trkpt lat="43.8449853" lon="7.9293591"><ele>21.333333333333332</ele><time>2026-04-26T07:55:18.333Z</time></trkpt><trkpt lat="43.8449999" lon="7.9291332"><ele>20.666666666666668</ele><time>2026-04-26T07:55:19.334Z</time></trkpt><trkpt lat="43.8450074" lon="7.928906"><ele>20.0</ele><time>2026-04-26T07:55:20.334Z</time></trkpt><trkpt lat="43.8450143" lon="7.9286847"><ele>20.0</ele><time>2026-04-26T07:55:21.334Z</time></trkpt><trkpt lat="43.8450181" lon="7.9284613"><ele>20.0</ele><time>2026-04-26T07:55:22.334Z</time></trkpt><trkpt lat="43.8450127" lon="7.9282379"><ele>20.0</ele><time>2026-04-26T07:55:23.333Z</time></trkpt><trkpt lat="43.845001" lon="7.9280159"><ele>20.666666666666668</ele><time>2026-04-26T07:55:24.334Z</time></trkpt><trkpt lat="43.8449823" lon="7.9277866"><ele>21.333333333333332</ele><time>2026-04-26T07:55:25.333Z</time></trkpt><trkpt lat="43.8449621" lon="7.9275562"><ele>22.0</ele><time>2026-04-26T07:55:26.334Z</time></trkpt><trkpt lat="43.8449366" lon="7.9273262"><ele>22.333333333333332</ele><time>2026-04-26T07:55:27.334Z</time></trkpt><trkpt lat="43.8449115" lon="7.9270959"><ele>22.666666666666668</ele><time>2026-04-26T07:55:28.333Z</time></trkpt><trkpt lat="43.8448845" lon="7.9268677"><ele>23.0</ele><time>2026-04-26T07:55:29.333Z</time></trkpt><trkpt lat="43.8448584" lon="7.9266412"><ele>23.0</ele><time>2026-04-26T07:55:30.334Z</time></trkpt><trkpt lat="43.8448331" lon="7.9264084"><ele>23.0</ele><time>2026-04-26T07:55:31.333Z</time></trkpt><trkpt lat="43.8448072" lon="7.926177"><ele>23.0</ele><time>2026-04-26T07:55:32.333Z</time></trkpt><trkpt lat="43.8447814" lon="7.9259513"><ele>22.333333333333336</ele><time>2026-04-26T07:55:33.333Z</time></trkpt><trkpt lat="43.8447657" lon="7.9257212"><ele>21.666666666666668</ele><time>2026-04-26T07:55:34.333Z</time></trkpt><trkpt lat="43.8447598" lon="7.925484"><ele>21.0</ele><time>2026-04-26T07:55:35.334Z</time></trkpt><trkpt lat="43.8447639" lon="7.9252466"><ele>20.0</ele><time>2026-04-26T07:55:36.333Z</time></trkpt><trkpt lat="43.8447714" lon="7.9250125"><ele>19.0</ele><time>2026-04-26T07:55:37.335Z</time></trkpt><trkpt lat="43.8447793" lon="7.9247825"><ele>18.0</ele><time>2026-04-26T07:55:38.333Z</time></trkpt><trkpt lat="43.844785" lon="7.9245555"><ele>18.0</ele><time>2026-04-26T07:55:39.334Z</time></trkpt><trkpt lat="43.8447952" lon="7.9243303"><ele>18.0</ele><time>2026-04-26T07:55:40.333Z</time></trkpt><trkpt lat="43.8448029" lon="7.9240955"><ele>18.0</ele><time>2026-04-26T07:55:41.334Z</time></trkpt><trkpt lat="43.8448133" lon="7.9238571"><ele>18.0</ele><time>2026-04-26T07:55:42.334Z</time></trkpt><trkpt lat="43.8448214" lon="7.9236173"><ele>18.0</ele><time>2026-04-26T07:55:43.334Z</time></trkpt><trkpt lat="43.8448303" lon="7.9233761"><ele>18.0</ele><time>2026-04-26T07:55:44.333Z</time></trkpt><trkpt lat="43.8448326" lon="7.9231364"><ele>18.0</ele><time>2026-04-26T07:55:45.334Z</time></trkpt><trkpt lat="43.8448292" lon="7.9228946"><ele>18.0</ele><time>2026-04-26T07:55:46.334Z</time></trkpt><trkpt lat="43.8448188" lon="7.9226554"><ele>18.0</ele><time>2026-04-26T07:55:47.333Z</time></trkpt><trkpt lat="43.8448044" lon="7.9224179"><ele>18.0</ele><time>2026-04-26T07:55:48.333Z</time></trkpt><trkpt lat="43.8447837" lon="7.9221821"><ele>18.0</ele><time>2026-04-26T07:55:49.334Z</time></trkpt><trkpt lat="43.8447632" lon="7.92195"><ele>18.0</ele><time>2026-04-26T07:55:50.334Z</time></trkpt><trkpt lat="43.8447426" lon="7.9217126"><ele>18.0</ele><time>2026-04-26T07:55:51.333Z</time></trkpt><trkpt lat="43.8447173" lon="7.9214633"><ele>18.0</ele><time>2026-04-26T07:55:52.334Z</time></trkpt><trkpt lat="43.8446862" lon="7.9212188"><ele>18.0</ele><time>2026-04-26T07:55:53.333Z</time></trkpt><trkpt lat="43.8446436" lon="7.9209711"><ele>19.333333333333332</ele><time>2026-04-26T07:55:54.333Z</time></trkpt><trkpt lat="43.8445965" lon="7.9207305"><ele>20.666666666666664</ele><time>2026-04-26T07:55:55.334Z</time></trkpt><trkpt lat="43.8445441" lon="7.9204973"><ele>22.0</ele><time>2026-04-26T07:55:56.333Z</time></trkpt><trkpt lat="43.8444837" lon="7.9202697"><ele>24.666666666666664</ele><time>2026-04-26T07:55:57.334Z</time></trkpt><trkpt lat="43.8444115" lon="7.9200405"><ele>27.333333333333332</ele><time>2026-04-26T07:55:58.333Z</time></trkpt><trkpt lat="43.8443375" lon="7.9198236"><ele>30.0</ele><time>2026-04-26T07:55:59.333Z</time></trkpt><trkpt lat="43.8442627" lon="7.9196055"><ele>22.666666666666668</ele><time>2026-04-26T07:56:00.333Z</time></trkpt><trkpt lat="43.8441899" lon="7.9193967"><ele>15.333333333333332</ele><time>2026-04-26T07:56:01.334Z</time></trkpt><trkpt lat="43.8441191" lon="7.9191927"><ele>8.0</ele><time>2026-04-26T07:56:02.333Z</time></trkpt><trkpt lat="43.8440485" lon="7.9189844"><ele>8.0</ele><time>2026-04-26T07:56:03.333Z</time></trkpt><trkpt lat="43.843992" lon="7.9187695"><ele>8.0</ele><time>2026-04-26T07:56:04.334Z</time></trkpt><trkpt lat="43.8439387" lon="7.9185482"><ele>8.0</ele><time>2026-04-26T07:56:05.333Z</time></trkpt><trkpt lat="43.8438887" lon="7.9183269"><ele>10.666666666666666</ele><time>2026-04-26T07:56:06.334Z</time></trkpt><trkpt lat="43.8438418" lon="7.9181093"><ele>13.333333333333332</ele><time>2026-04-26T07:56:07.333Z</time></trkpt><trkpt lat="43.8438026" lon="7.9178972"><ele>16.0</ele><time>2026-04-26T07:56:08.334Z</time></trkpt><trkpt lat="43.8437594" lon="7.9176832"><ele>18.0</ele><time>2026-04-26T07:56:09.333Z</time></trkpt><trkpt lat="43.8437231" lon="7.9174761"><ele>20.0</ele><time>2026-04-26T07:56:10.334Z</time></trkpt><trkpt lat="43.8436845" lon="7.9172703"><ele>22.0</ele><time>2026-04-26T07:56:11.334Z</time></trkpt><trkpt lat="43.8436418" lon="7.9170617"><ele>22.0</ele><time>2026-04-26T07:56:12.333Z</time></trkpt><trkpt lat="43.8435952" lon="7.9168566"><ele>22.0</ele><time>2026-04-26T07:56:13.334Z</time></trkpt><trkpt lat="43.8435406" lon="7.9166538"><ele>22.0</ele><time>2026-04-26T07:56:14.334Z</time></trkpt><trkpt lat="43.8434705" lon="7.9164625"><ele>20.75</ele><time>2026-04-26T07:56:15.334Z</time></trkpt><trkpt lat="43.8433928" lon="7.9162807"><ele>19.5</ele><time>2026-04-26T07:56:16.334Z</time></trkpt><trkpt lat="43.8433083" lon="7.9161083"><ele>18.25</ele><time>2026-04-26T07:56:17.333Z</time></trkpt><trkpt lat="43.8432194" lon="7.9159467"><ele>17.0</ele><time>2026-04-26T07:56:18.334Z</time></trkpt><trkpt lat="43.8431237" lon="7.9157842"><ele>17.0</ele><time>2026-04-26T07:56:19.333Z</time></trkpt><trkpt lat="43.8430006" lon="7.9156378"><ele>17.0</ele><time>2026-04-26T07:56:20.333Z</time></trkpt><trkpt lat="43.8428809" lon="7.91549"><ele>17.0</ele><time>2026-04-26T07:56:21.335Z</time></trkpt><trkpt lat="43.842756" lon="7.9153487"><ele>17.0</ele><time>2026-04-26T07:56:22.335Z</time></trkpt><trkpt lat="43.8426378" lon="7.9152078"><ele>17.0</ele><time>2026-04-26T07:56:23.334Z</time></trkpt><trkpt lat="43.8425245" lon="7.9150623"><ele>17.0</ele><time>2026-04-26T07:56:24.333Z</time></trkpt><trkpt lat="43.8424057" lon="7.9149222"><ele>16.666666666666668</ele><time>2026-04-26T07:56:25.334Z</time></trkpt><trkpt lat="43.8422884" lon="7.9147842"><ele>16.333333333333332</ele><time>2026-04-26T07:56:26.333Z</time></trkpt><trkpt lat="43.8421697" lon="7.9146431"><ele>16.0</ele><time>2026-04-26T07:56:27.334Z</time></trkpt><trkpt lat="43.8420464" lon="7.9145045"><ele>16.0</ele><time>2026-04-26T07:56:28.334Z</time></trkpt><trkpt lat="43.8419245" lon="7.9143646"><ele>16.0</ele><time>2026-04-26T07:56:29.334Z</time></trkpt><trkpt lat="43.841803" lon="7.914228"><ele>16.0</ele><time>2026-04-26T07:56:30.334Z</time></trkpt><trkpt lat="43.8416749" lon="7.9140799"><ele>14.333333333333332</ele><time>2026-04-26T07:56:31.334Z</time></trkpt><trkpt lat="43.8415524" lon="7.9139393"><ele>12.666666666666666</ele><time>2026-04-26T07:56:32.333Z</time></trkpt><trkpt lat="43.8414304" lon="7.9137898"><ele>11.0</ele><time>2026-04-26T07:56:33.334Z</time></trkpt><trkpt lat="43.8413167" lon="7.9136316"><ele>11.0</ele><time>2026-04-26T07:56:34.333Z</time></trkpt><trkpt lat="43.8412054" lon="7.9134514"><ele>11.0</ele><time>2026-04-26T07:56:35.333Z</time></trkpt><trkpt lat="43.8411046" lon="7.9132586"><ele>11.0</ele><time>2026-04-26T07:56:36.334Z</time></trkpt><trkpt lat="43.8410168" lon="7.9130605"><ele>10.666666666666666</ele><time>2026-04-26T07:56:37.334Z</time></trkpt><trkpt lat="43.8409346" lon="7.9128548"><ele>10.333333333333334</ele><time>2026-04-26T07:56:38.333Z</time></trkpt><trkpt lat="43.8408607" lon="7.9126481"><ele>10.0</ele><time>2026-04-26T07:56:39.333Z</time></trkpt><trkpt lat="43.8407926" lon="7.9124437"><ele>12.666666666666668</ele><time>2026-04-26T07:56:40.333Z</time></trkpt><trkpt lat="43.8407198" lon="7.9122432"><ele>15.333333333333334</ele><time>2026-04-26T07:56:41.334Z</time></trkpt><trkpt lat="43.8406443" lon="7.9120411"><ele>18.0</ele><time>2026-04-26T07:56:42.334Z</time></trkpt><trkpt lat="43.8405631" lon="7.9118438"><ele>21.666666666666664</ele><time>2026-04-26T07:56:43.334Z</time></trkpt><trkpt lat="43.8404789" lon="7.9116485"><ele>25.333333333333332</ele><time>2026-04-26T07:56:44.333Z</time></trkpt><trkpt lat="43.8403952" lon="7.9114544"><ele>29.0</ele><time>2026-04-26T07:56:45.333Z</time></trkpt><trkpt lat="43.8403084" lon="7.9112629"><ele>29.0</ele><time>2026-04-26T07:56:46.333Z</time></trkpt><trkpt lat="43.8402174" lon="7.9110726"><ele>29.0</ele><time>2026-04-26T07:56:47.333Z</time></trkpt><trkpt lat="43.8401268" lon="7.9108811"><ele>29.0</ele><time>2026-04-26T07:56:48.333Z</time></trkpt><trkpt lat="43.8400356" lon="7.9106893"><ele>24.666666666666664</ele><time>2026-04-26T07:56:49.334Z</time></trkpt><trkpt lat="43.8399427" lon="7.9104995"><ele>20.333333333333332</ele><time>2026-04-26T07:56:50.335Z</time></trkpt><trkpt lat="43.8398488" lon="7.9103133"><ele>16.0</ele><time>2026-04-26T07:56:51.333Z</time></trkpt><trkpt lat="43.8397571" lon="7.9101305"><ele>20.666666666666664</ele><time>2026-04-26T07:56:52.335Z</time></trkpt><trkpt lat="43.8396686" lon="7.9099432"><ele>25.333333333333332</ele><time>2026-04-26T07:56:53.333Z</time></trkpt><trkpt lat="43.8395841" lon="7.9097572"><ele>30.0</ele><time>2026-04-26T07:56:54.334Z</time></trkpt><trkpt lat="43.8395022" lon="7.9095693"><ele>30.0</ele><time>2026-04-26T07:56:55.333Z</time></trkpt><trkpt lat="43.8394172" lon="7.9093902"><ele>30.0</ele><time>2026-04-26T07:56:56.334Z</time></trkpt><trkpt lat="43.8393281" lon="7.9092123"><ele>30.0</ele><time>2026-04-26T07:56:57.334Z</time></trkpt><trkpt lat="43.8392379" lon="7.9090404"><ele>24.666666666666668</ele><time>2026-04-26T07:56:58.333Z</time></trkpt><trkpt lat="43.8391413" lon="7.90887"><ele>19.333333333333336</ele><time>2026-04-26T07:56:59.335Z</time></trkpt><trkpt lat="43.8390387" lon="7.9087018"><ele>14.0</ele><time>2026-04-26T07:57:00.335Z</time></trkpt><trkpt lat="43.8389313" lon="7.9085378"><ele>19.333333333333336</ele><time>2026-04-26T07:57:01.334Z</time></trkpt><trkpt lat="43.8388194" lon="7.9083705"><ele>24.666666666666668</ele><time>2026-04-26T07:57:02.333Z</time></trkpt><trkpt lat="43.8387116" lon="7.9082057"><ele>30.0</ele><time>2026-04-26T07:57:03.333Z</time></trkpt><trkpt lat="43.838605" lon="7.9080426"><ele>30.0</ele><time>2026-04-26T07:57:04.334Z</time></trkpt><trkpt lat="43.8385002" lon="7.9078777"><ele>30.0</ele><time>2026-04-26T07:57:05.335Z</time></trkpt><trkpt lat="43.8383952" lon="7.9077104"><ele>30.0</ele><time>2026-04-26T07:57:06.333Z</time></trkpt><trkpt lat="43.8382927" lon="7.9075372"><ele>27.0</ele><time>2026-04-26T07:57:07.334Z</time></trkpt><trkpt lat="43.8381942" lon="7.9073584"><ele>24.0</ele><time>2026-04-26T07:57:08.333Z</time></trkpt><trkpt lat="43.8381058" lon="7.9071643"><ele>21.0</ele><time>2026-04-26T07:57:09.333Z</time></trkpt><trkpt lat="43.838016" lon="7.906968"><ele>21.0</ele><time>2026-04-26T07:57:10.335Z</time></trkpt><trkpt lat="43.8379273" lon="7.9067569"><ele>21.0</ele><time>2026-04-26T07:57:11.334Z</time></trkpt><trkpt lat="43.8378434" lon="7.9065325"><ele>21.0</ele><time>2026-04-26T07:57:12.334Z</time></trkpt><trkpt lat="43.8377668" lon="7.9062947"><ele>19.0</ele><time>2026-04-26T07:57:13.334Z</time></trkpt><trkpt lat="43.8376984" lon="7.9060516"><ele>17.0</ele><time>2026-04-26T07:57:14.333Z</time></trkpt><trkpt lat="43.83763" lon="7.9058125"><ele>15.0</ele><time>2026-04-26T07:57:15.334Z</time></trkpt><trkpt lat="43.8375676" lon="7.9055708"><ele>15.0</ele><time>2026-04-26T07:57:16.335Z</time></trkpt><trkpt lat="43.8375025" lon="7.9053352"><ele>15.0</ele><time>2026-04-26T07:57:17.334Z</time></trkpt><trkpt lat="43.837444" lon="7.9051"><ele>15.0</ele><time>2026-04-26T07:57:18.334Z</time></trkpt><trkpt lat="43.8373837" lon="7.9048746"><ele>17.0</ele><time>2026-04-26T07:57:19.334Z</time></trkpt><trkpt lat="43.8373254" lon="7.9046542"><ele>19.0</ele><time>2026-04-26T07:57:20.334Z</time></trkpt><trkpt lat="43.8372762" lon="7.9044249"><ele>21.0</ele><time>2026-04-26T07:57:21.333Z</time></trkpt><trkpt lat="43.837233" lon="7.9041828"><ele>23.0</ele><time>2026-04-26T07:57:22.333Z</time></trkpt><trkpt lat="43.8371988" lon="7.9039374"><ele>25.0</ele><time>2026-04-26T07:57:23.333Z</time></trkpt><trkpt lat="43.8371783" lon="7.9036957"><ele>27.0</ele><time>2026-04-26T07:57:24.333Z</time></trkpt><trkpt lat="43.8371631" lon="7.903455"><ele>26.666666666666664</ele><time>2026-04-26T07:57:25.333Z</time></trkpt><trkpt lat="43.8371567" lon="7.9032116"><ele>26.333333333333332</ele><time>2026-04-26T07:57:26.333Z</time></trkpt><trkpt lat="43.8371531" lon="7.9029731"><ele>26.0</ele><time>2026-04-26T07:57:27.334Z</time></trkpt><trkpt lat="43.8371508" lon="7.9027364"><ele>25.0</ele><time>2026-04-26T07:57:28.333Z</time></trkpt><trkpt lat="43.8371524" lon="7.9025072"><ele>24.0</ele><time>2026-04-26T07:57:29.334Z</time></trkpt><trkpt lat="43.8371646" lon="7.9022779"><ele>23.0</ele><time>2026-04-26T07:57:30.335Z</time></trkpt><trkpt lat="43.8371919" lon="7.9020524"><ele>23.0</ele><time>2026-04-26T07:57:31.334Z</time></trkpt><trkpt lat="43.8372341" lon="7.9018311"><ele>23.0</ele><time>2026-04-26T07:57:32.333Z</time></trkpt><trkpt lat="43.8372921" lon="7.9016154"><ele>23.0</ele><time>2026-04-26T07:57:33.334Z</time></trkpt><trkpt lat="43.8373586" lon="7.9014133"><ele>22.0</ele><time>2026-04-26T07:57:34.334Z</time></trkpt><trkpt lat="43.8374363" lon="7.901222"><ele>21.0</ele><time>2026-04-26T07:57:35.334Z</time></trkpt><trkpt lat="43.83752" lon="7.9010363"><ele>20.0</ele><time>2026-04-26T07:57:36.334Z</time></trkpt><trkpt lat="43.8376017" lon="7.9008596"><ele>22.75</ele><time>2026-04-26T07:57:37.334Z</time></trkpt><trkpt lat="43.83768" lon="7.9006964"><ele>25.5</ele><time>2026-04-26T07:57:38.334Z</time></trkpt><trkpt lat="43.8377583" lon="7.9005388"><ele>28.25</ele><time>2026-04-26T07:57:39.334Z</time></trkpt><trkpt lat="43.8378302" lon="7.9003819"><ele>31.0</ele><time>2026-04-26T07:57:40.334Z</time></trkpt><trkpt lat="43.8378996" lon="7.9002256"><ele>28.25</ele><time>2026-04-26T07:57:41.335Z</time></trkpt><trkpt lat="43.8379604" lon="7.9000749"><ele>25.5</ele><time>2026-04-26T07:57:42.334Z</time></trkpt><trkpt lat="43.8380142" lon="7.899932"><ele>22.75</ele><time>2026-04-26T07:57:43.333Z</time></trkpt><trkpt lat="43.8380619" lon="7.8997916"><ele>20.0</ele><time>2026-04-26T07:57:44.334Z</time></trkpt><trkpt lat="43.8381077" lon="7.8996523"><ele>20.0</ele><time>2026-04-26T07:57:45.334Z</time></trkpt><trkpt lat="43.8381472" lon="7.8995199"><ele>20.0</ele><time>2026-04-26T07:57:46.334Z</time></trkpt><trkpt lat="43.8381902" lon="7.8993871"><ele>20.0</ele><time>2026-04-26T07:57:47.333Z</time></trkpt><trkpt lat="43.8382314" lon="7.8992555"><ele>20.0</ele><time>2026-04-26T07:57:48.334Z</time></trkpt><trkpt lat="43.8382792" lon="7.8991179"><ele>20.0</ele><time>2026-04-26T07:57:49.333Z</time></trkpt><trkpt lat="43.8383256" lon="7.8989772"><ele>21.0</ele><time>2026-04-26T07:57:50.333Z</time></trkpt><trkpt lat="43.8383705" lon="7.8988344"><ele>22.0</ele><time>2026-04-26T07:57:51.334Z</time></trkpt><trkpt lat="43.8384158" lon="7.8986914"><ele>23.0</ele><time>2026-04-26T07:57:52.333Z</time></trkpt><trkpt lat="43.8384611" lon="7.8985472"><ele>24.0</ele><time>2026-04-26T07:57:53.334Z</time></trkpt><trkpt lat="43.8384983" lon="7.8984065"><ele>25.0</ele><time>2026-04-26T07:57:54.333Z</time></trkpt><trkpt lat="43.838535" lon="7.898277"><ele>25.000000000000004</ele><time>2026-04-26T07:57:55.333Z</time></trkpt><trkpt lat="43.8385638" lon="7.898154"><ele>25.0</ele><time>2026-04-26T07:57:56.334Z</time></trkpt><trkpt lat="43.8385878" lon="7.8980361"><ele>25.0</ele><time>2026-04-26T07:57:57.334Z</time></trkpt><trkpt lat="43.8386057" lon="7.8979227"><ele>25.0</ele><time>2026-04-26T07:57:58.333Z</time></trkpt><trkpt lat="43.8386205" lon="7.8978064"><ele>25.000000000000004</ele><time>2026-04-26T07:57:59.334Z</time></trkpt><trkpt lat="43.8386345" lon="7.8976908"><ele>25.0</ele><time>2026-04-26T07:58:00.334Z</time></trkpt><trkpt lat="43.8386449" lon="7.8975741"><ele>25.333333333333336</ele><time>2026-04-26T07:58:01.338Z</time></trkpt><trkpt lat="43.8386497" lon="7.8974553"><ele>25.666666666666668</ele><time>2026-04-26T07:58:02.338Z</time></trkpt><trkpt lat="43.8386502" lon="7.8973396"><ele>26.0</ele><time>2026-04-26T07:58:03.334Z</time></trkpt><trkpt lat="43.8386464" lon="7.8972288"><ele>26.333333333333336</ele><time>2026-04-26T07:58:04.333Z</time></trkpt><trkpt lat="43.8386402" lon="7.8971233"><ele>26.666666666666668</ele><time>2026-04-26T07:58:05.335Z</time></trkpt><trkpt lat="43.8386292" lon="7.8970132"><ele>27.0</ele><time>2026-04-26T07:58:06.333Z</time></trkpt><trkpt lat="43.838614" lon="7.8969001"><ele>27.0</ele><time>2026-04-26T07:58:07.333Z</time></trkpt><trkpt lat="43.8386007" lon="7.8967931"><ele>27.0</ele><time>2026-04-26T07:58:08.333Z</time></trkpt><trkpt lat="43.8385879" lon="7.8966899"><ele>27.0</ele><time>2026-04-26T07:58:09.334Z</time></trkpt><trkpt lat="43.8385769" lon="7.8965929"><ele>27.0</ele><time>2026-04-26T07:58:10.335Z</time></trkpt><trkpt lat="43.8385614" lon="7.8964962"><ele>27.0</ele><time>2026-04-26T07:58:11.334Z</time></trkpt><trkpt lat="43.838548" lon="7.8963979"><ele>27.0</ele><time>2026-04-26T07:58:12.334Z</time></trkpt><trkpt lat="43.838534" lon="7.8962944"><ele>27.0</ele><time>2026-04-26T07:58:13.335Z</time></trkpt><trkpt lat="43.8385192" lon="7.896182"><ele>28.8</ele><time>2026-04-26T07:58:14.334Z</time></trkpt><trkpt lat="43.8385036" lon="7.8960618"><ele>30.6</ele><time>2026-04-26T07:58:15.334Z</time></trkpt><trkpt lat="43.8384864" lon="7.8959274"><ele>32.400000000000006</ele><time>2026-04-26T07:58:16.334Z</time></trkpt><trkpt lat="43.8384731" lon="7.8957906"><ele>34.2</ele><time>2026-04-26T07:58:17.334Z</time></trkpt><trkpt lat="43.8384616" lon="7.8956565"><ele>36.0</ele><time>2026-04-26T07:58:18.334Z</time></trkpt><trkpt lat="43.8384518" lon="7.8955271"><ele>35.833333333333336</ele><time>2026-04-26T07:58:19.333Z</time></trkpt><trkpt lat="43.8384505" lon="7.8954051"><ele>35.666666666666664</ele><time>2026-04-26T07:58:20.334Z</time></trkpt><trkpt lat="43.8384537" lon="7.8952859"><ele>35.5</ele><time>2026-04-26T07:58:21.334Z</time></trkpt><trkpt lat="43.8384651" lon="7.8951639"><ele>35.33333333333333</ele><time>2026-04-26T07:58:22.334Z</time></trkpt><trkpt lat="43.8384795" lon="7.8950369"><ele>35.166666666666664</ele><time>2026-04-26T07:58:23.334Z</time></trkpt><trkpt lat="43.8384933" lon="7.8949161"><ele>35.0</ele><time>2026-04-26T07:58:24.334Z</time></trkpt><trkpt lat="43.8385066" lon="7.8947909"><ele>35.0</ele><time>2026-04-26T07:58:25.335Z</time></trkpt><trkpt lat="43.8385242" lon="7.8946593"><ele>35.0</ele><time>2026-04-26T07:58:26.335Z</time></trkpt><trkpt lat="43.8385396" lon="7.894528"><ele>35.0</ele><time>2026-04-26T07:58:27.335Z</time></trkpt><trkpt lat="43.8385571" lon="7.8943931"><ele>35.0</ele><time>2026-04-26T07:58:28.335Z</time></trkpt><trkpt lat="43.8385789" lon="7.894254"><ele>35.0</ele><time>2026-04-26T07:58:29.334Z</time></trkpt><trkpt lat="43.8385996" lon="7.8941135"><ele>33.8</ele><time>2026-04-26T07:58:30.334Z</time></trkpt><trkpt lat="43.8386208" lon="7.8939644"><ele>32.6</ele><time>2026-04-26T07:58:31.333Z</time></trkpt><trkpt lat="43.8386394" lon="7.8938121"><ele>31.4</ele><time>2026-04-26T07:58:32.335Z</time></trkpt><trkpt lat="43.8386557" lon="7.8936636"><ele>30.2</ele><time>2026-04-26T07:58:33.333Z</time></trkpt><trkpt lat="43.8386693" lon="7.8935258"><ele>29.0</ele><time>2026-04-26T07:58:34.334Z</time></trkpt><trkpt lat="43.8386866" lon="7.8933888"><ele>28.799999999999997</ele><time>2026-04-26T07:58:35.334Z</time></trkpt><trkpt lat="43.8387025" lon="7.8932521"><ele>28.599999999999998</ele><time>2026-04-26T07:58:36.334Z</time></trkpt><trkpt lat="43.8387196" lon="7.8931236"><ele>28.4</ele><time>2026-04-26T07:58:37.333Z</time></trkpt><trkpt lat="43.8387347" lon="7.8930003"><ele>28.2</ele><time>2026-04-26T07:58:38.334Z</time></trkpt><trkpt lat="43.8387523" lon="7.8928755"><ele>28.0</ele><time>2026-04-26T07:58:39.333Z</time></trkpt><trkpt lat="43.8387671" lon="7.8927454"><ele>28.0</ele><time>2026-04-26T07:58:40.335Z</time></trkpt><trkpt lat="43.8387863" lon="7.892616"><ele>27.999999999999996</ele><time>2026-04-26T07:58:41.335Z</time></trkpt><trkpt lat="43.83881" lon="7.892485"><ele>27.999999999999996</ele><time>2026-04-26T07:58:42.334Z</time></trkpt><trkpt lat="43.8388567" lon="7.8923493"><ele>28.0</ele><time>2026-04-26T07:58:43.333Z</time></trkpt><trkpt lat="43.8389031" lon="7.8922249"><ele>28.0</ele><time>2026-04-26T07:58:44.334Z</time></trkpt><trkpt lat="43.8389535" lon="7.8921061"><ele>27.833333333333336</ele><time>2026-04-26T07:58:45.335Z</time></trkpt><trkpt lat="43.8390057" lon="7.8919959"><ele>27.666666666666668</ele><time>2026-04-26T07:58:46.335Z</time></trkpt><trkpt lat="43.839061" lon="7.8919068"><ele>27.5</ele><time>2026-04-26T07:58:47.333Z</time></trkpt><trkpt lat="43.8391239" lon="7.8918247"><ele>27.333333333333336</ele><time>2026-04-26T07:58:48.335Z</time></trkpt><trkpt lat="43.8391941" lon="7.8917448"><ele>27.166666666666668</ele><time>2026-04-26T07:58:49.335Z</time></trkpt><trkpt lat="43.8392636" lon="7.8916683"><ele>27.0</ele><time>2026-04-26T07:58:50.334Z</time></trkpt><trkpt lat="43.8393294" lon="7.8915946"><ele>27.0</ele><time>2026-04-26T07:58:51.333Z</time></trkpt><trkpt lat="43.8393914" lon="7.8915208"><ele>27.0</ele><time>2026-04-26T07:58:52.335Z</time></trkpt><trkpt lat="43.8394533" lon="7.8914541"><ele>27.0</ele><time>2026-04-26T07:58:53.333Z</time></trkpt><trkpt lat="43.8394998" lon="7.8913768"><ele>27.0</ele><time>2026-04-26T07:58:54.335Z</time></trkpt><trkpt lat="43.8395418" lon="7.8912955"><ele>27.0</ele><time>2026-04-26T07:58:55.335Z</time></trkpt><trkpt lat="43.8395807" lon="7.8912162"><ele>27.0</ele><time>2026-04-26T07:58:56.334Z</time></trkpt><trkpt lat="43.839614" lon="7.8911327"><ele>27.0</ele><time>2026-04-26T07:58:57.334Z</time></trkpt><trkpt lat="43.8396443" lon="7.8910493"><ele>27.0</ele><time>2026-04-26T07:58:58.334Z</time></trkpt><trkpt lat="43.8396729" lon="7.8909622"><ele>27.0</ele><time>2026-04-26T07:58:59.335Z</time></trkpt><trkpt lat="43.839702" lon="7.8908688"><ele>27.0</ele><time>2026-04-26T07:59:00.335Z</time></trkpt><trkpt lat="43.839723" lon="7.8907584"><ele>27.0</ele><time>2026-04-26T07:59:01.334Z</time></trkpt><trkpt lat="43.8397376" lon="7.8906402"><ele>27.0</ele><time>2026-04-26T07:59:02.334Z</time></trkpt><trkpt lat="43.839744" lon="7.8905221"><ele>27.0</ele><time>2026-04-26T07:59:03.335Z</time></trkpt><trkpt lat="43.8397507" lon="7.8904172"><ele>26.666666666666668</ele><time>2026-04-26T07:59:04.335Z</time></trkpt><trkpt lat="43.8397548" lon="7.8903193"><ele>26.333333333333336</ele><time>2026-04-26T07:59:05.335Z</time></trkpt><trkpt lat="43.8397571" lon="7.8902223"><ele>26.0</ele><time>2026-04-26T07:59:06.335Z</time></trkpt><trkpt lat="43.83976" lon="7.8901199"><ele>25.666666666666668</ele><time>2026-04-26T07:59:07.334Z</time></trkpt><trkpt lat="43.8397632" lon="7.8900159"><ele>25.333333333333336</ele><time>2026-04-26T07:59:08.333Z</time></trkpt><trkpt lat="43.8397683" lon="7.8899044"><ele>25.0</ele><time>2026-04-26T07:59:09.335Z</time></trkpt><trkpt lat="43.8397733" lon="7.8897855"><ele>25.000000000000004</ele><time>2026-04-26T07:59:10.336Z</time></trkpt><trkpt lat="43.8397777" lon="7.8896612"><ele>25.0</ele><time>2026-04-26T07:59:11.335Z</time></trkpt><trkpt lat="43.8397815" lon="7.8895452"><ele>25.0</ele><time>2026-04-26T07:59:12.334Z</time></trkpt><trkpt lat="43.8397872" lon="7.8894238"><ele>25.0</ele><time>2026-04-26T07:59:13.334Z</time></trkpt><trkpt lat="43.8397906" lon="7.8893014"><ele>25.000000000000004</ele><time>2026-04-26T07:59:14.335Z</time></trkpt><trkpt lat="43.8397939" lon="7.8891855"><ele>25.0</ele><time>2026-04-26T07:59:15.333Z</time></trkpt><trkpt lat="43.8397954" lon="7.8890686"><ele>24.666666666666668</ele><time>2026-04-26T07:59:16.335Z</time></trkpt><trkpt lat="43.8397993" lon="7.8889489"><ele>24.333333333333336</ele><time>2026-04-26T07:59:17.334Z</time></trkpt><trkpt lat="43.8398074" lon="7.8888246"><ele>24.0</ele><time>2026-04-26T07:59:18.335Z</time></trkpt><trkpt lat="43.8398106" lon="7.8887038"><ele>23.666666666666668</ele><time>2026-04-26T07:59:19.333Z</time></trkpt><trkpt lat="43.8398155" lon="7.8885843"><ele>23.333333333333336</ele><time>2026-04-26T07:59:20.333Z</time></trkpt><trkpt lat="43.839826" lon="7.8884511"><ele>23.0</ele><time>2026-04-26T07:59:21.334Z</time></trkpt><trkpt lat="43.8398302" lon="7.8883162"><ele>23.0</ele><time>2026-04-26T07:59:22.335Z</time></trkpt><trkpt lat="43.8398348" lon="7.8881777"><ele>23.0</ele><time>2026-04-26T07:59:23.334Z</time></trkpt><trkpt lat="43.8398385" lon="7.8880402"><ele>23.0</ele><time>2026-04-26T07:59:24.334Z</time></trkpt><trkpt lat="43.839842" lon="7.8879012"><ele>23.0</ele><time>2026-04-26T07:59:25.335Z</time></trkpt><trkpt lat="43.8398463" lon="7.8877654"><ele>23.0</ele><time>2026-04-26T07:59:26.335Z</time></trkpt><trkpt lat="43.839851" lon="7.8876273"><ele>22.599999999999998</ele><time>2026-04-26T07:59:27.334Z</time></trkpt><trkpt lat="43.8398557" lon="7.8874894"><ele>22.2</ele><time>2026-04-26T07:59:28.335Z</time></trkpt><trkpt lat="43.8398585" lon="7.8873454"><ele>21.8</ele><time>2026-04-26T07:59:29.335Z</time></trkpt><trkpt lat="43.8398675" lon="7.8872059"><ele>21.4</ele><time>2026-04-26T07:59:30.335Z</time></trkpt><trkpt lat="43.8398782" lon="7.8870678"><ele>21.0</ele><time>2026-04-26T07:59:31.335Z</time></trkpt><trkpt lat="43.8398949" lon="7.8869336"><ele>21.0</ele><time>2026-04-26T07:59:32.335Z</time></trkpt><trkpt lat="43.8399207" lon="7.8868063"><ele>21.0</ele><time>2026-04-26T07:59:33.335Z</time></trkpt><trkpt lat="43.8399523" lon="7.8866832"><ele>21.0</ele><time>2026-04-26T07:59:34.334Z</time></trkpt><trkpt lat="43.839988" lon="7.8865667"><ele>21.0</ele><time>2026-04-26T07:59:35.334Z</time></trkpt><trkpt lat="43.8400307" lon="7.8864506"><ele>21.0</ele><time>2026-04-26T07:59:36.335Z</time></trkpt><trkpt lat="43.8400793" lon="7.886332"><ele>21.200000000000003</ele><time>2026-04-26T07:59:37.334Z</time></trkpt><trkpt lat="43.8401274" lon="7.8862128"><ele>21.400000000000002</ele><time>2026-04-26T07:59:38.335Z</time></trkpt><trkpt lat="43.8401664" lon="7.8860917"><ele>21.6</ele><time>2026-04-26T07:59:39.334Z</time></trkpt><trkpt lat="43.8402041" lon="7.8859742"><ele>21.8</ele><time>2026-04-26T07:59:40.336Z</time></trkpt><trkpt lat="43.8402326" lon="7.8858636"><ele>22.0</ele><time>2026-04-26T07:59:41.334Z</time></trkpt><trkpt lat="43.8402551" lon="7.8857498"><ele>22.0</ele><time>2026-04-26T07:59:42.334Z</time></trkpt><trkpt lat="43.8402666" lon="7.885639"><ele>22.0</ele><time>2026-04-26T07:59:43.335Z</time></trkpt><trkpt lat="43.8402823" lon="7.8855307"><ele>22.0</ele><time>2026-04-26T07:59:44.333Z</time></trkpt><trkpt lat="43.8402885" lon="7.8854135"><ele>22.0</ele><time>2026-04-26T07:59:45.334Z</time></trkpt><trkpt lat="43.840286" lon="7.8852948"><ele>22.0</ele><time>2026-04-26T07:59:46.334Z</time></trkpt><trkpt lat="43.8402788" lon="7.8851827"><ele>22.0</ele><time>2026-04-26T07:59:47.335Z</time></trkpt><trkpt lat="43.840268" lon="7.8850737"><ele>21.200000000000003</ele><time>2026-04-26T07:59:48.335Z</time></trkpt><trkpt lat="43.8402571" lon="7.8849672"><ele>20.400000000000002</ele><time>2026-04-26T07:59:49.335Z</time></trkpt><trkpt lat="43.8402423" lon="7.8848735"><ele>19.6</ele><time>2026-04-26T07:59:50.334Z</time></trkpt><trkpt lat="43.8402208" lon="7.8847191"><ele>18.8</ele><time>2026-04-26T07:59:52.335Z</time></trkpt><trkpt lat="43.8401992" lon="7.8845685"><ele>18.0</ele><time>2026-04-26T07:59:54.333Z</time></trkpt><trkpt lat="43.8401728" lon="7.8843962"><ele>18.0</ele><time>2026-04-26T07:59:56.335Z</time></trkpt><trkpt lat="43.8401613" lon="7.8842982"><ele>18.0</ele><time>2026-04-26T07:59:57.335Z</time></trkpt><trkpt lat="43.8401462" lon="7.8841991"><ele>18.0</ele><time>2026-04-26T07:59:58.333Z</time></trkpt><trkpt lat="43.8401312" lon="7.8840933"><ele>18.0</ele><time>2026-04-26T07:59:59.334Z</time></trkpt><trkpt lat="43.8401152" lon="7.8839826"><ele>18.0</ele><time>2026-04-26T08:00:00.335Z</time></trkpt><trkpt lat="43.8400961" lon="7.8838688"><ele>18.0</ele><time>2026-04-26T08:00:01.335Z</time></trkpt><trkpt lat="43.840081" lon="7.883757"><ele>18.0</ele><time>2026-04-26T08:00:02.334Z</time></trkpt><trkpt lat="43.8400657" lon="7.8836491"><ele>18.0</ele><time>2026-04-26T08:00:03.335Z</time></trkpt><trkpt lat="43.840049" lon="7.8835424"><ele>18.0</ele><time>2026-04-26T08:00:04.335Z</time></trkpt><trkpt lat="43.8400329" lon="7.883437"><ele>18.0</ele><time>2026-04-26T08:00:05.336Z</time></trkpt><trkpt lat="43.8400149" lon="7.8833328"><ele>18.0</ele><time>2026-04-26T08:00:06.333Z</time></trkpt><trkpt lat="43.8399993" lon="7.8832272"><ele>18.0</ele><time>2026-04-26T08:00:07.335Z</time></trkpt><trkpt lat="43.8399812" lon="7.8831108"><ele>18.0</ele><time>2026-04-26T08:00:08.335Z</time></trkpt><trkpt lat="43.8399585" lon="7.8829806"><ele>18.0</ele><time>2026-04-26T08:00:09.336Z</time></trkpt><trkpt lat="43.8399391" lon="7.8828421"><ele>18.0</ele><time>2026-04-26T08:00:10.336Z</time></trkpt><trkpt lat="43.8399247" lon="7.8827096"><ele>18.0</ele><time>2026-04-26T08:00:11.334Z</time></trkpt><trkpt lat="43.8399056" lon="7.8825841"><ele>18.0</ele><time>2026-04-26T08:00:12.333Z</time></trkpt><trkpt lat="43.839889" lon="7.8824623"><ele>18.0</ele><time>2026-04-26T08:00:13.334Z</time></trkpt><trkpt lat="43.8398698" lon="7.8823399"><ele>18.0</ele><time>2026-04-26T08:00:14.333Z</time></trkpt><trkpt lat="43.8398459" lon="7.8822164"><ele>18.0</ele><time>2026-04-26T08:00:15.334Z</time></trkpt><trkpt lat="43.8398277" lon="7.882088"><ele>18.0</ele><time>2026-04-26T08:00:16.334Z</time></trkpt><trkpt lat="43.839806" lon="7.8819701"><ele>18.0</ele><time>2026-04-26T08:00:17.333Z</time></trkpt><trkpt lat="43.8397896" lon="7.8818461"><ele>18.333333333333332</ele><time>2026-04-26T08:00:18.335Z</time></trkpt><trkpt lat="43.8397729" lon="7.8817286"><ele>18.666666666666668</ele><time>2026-04-26T08:00:19.334Z</time></trkpt><trkpt lat="43.8397544" lon="7.8816101"><ele>19.0</ele><time>2026-04-26T08:00:20.333Z</time></trkpt><trkpt lat="43.8397366" lon="7.8814888"><ele>19.333333333333336</ele><time>2026-04-26T08:00:21.333Z</time></trkpt><trkpt lat="43.839719" lon="7.8813819"><ele>19.666666666666668</ele><time>2026-04-26T08:00:22.335Z</time></trkpt><trkpt lat="43.8397018" lon="7.8812708"><ele>20.0</ele><time>2026-04-26T08:00:23.335Z</time></trkpt><trkpt lat="43.8396858" lon="7.8811609"><ele>20.0</ele><time>2026-04-26T08:00:24.334Z</time></trkpt><trkpt lat="43.8396683" lon="7.8810515"><ele>20.0</ele><time>2026-04-26T08:00:25.333Z</time></trkpt><trkpt lat="43.8396521" lon="7.8809458"><ele>20.0</ele><time>2026-04-26T08:00:26.336Z</time></trkpt><trkpt lat="43.8396323" lon="7.880847"><ele>20.0</ele><time>2026-04-26T08:00:27.334Z</time></trkpt><trkpt lat="43.8396146" lon="7.88074"><ele>20.0</ele><time>2026-04-26T08:00:28.335Z</time></trkpt><trkpt lat="43.8395996" lon="7.8806343"><ele>20.0</ele><time>2026-04-26T08:00:29.334Z</time></trkpt><trkpt lat="43.8395834" lon="7.8805237"><ele>20.0</ele><time>2026-04-26T08:00:30.334Z</time></trkpt><trkpt lat="43.8395673" lon="7.8804143"><ele>20.0</ele><time>2026-04-26T08:00:31.334Z</time></trkpt><trkpt lat="43.8395484" lon="7.8803055"><ele>20.0</ele><time>2026-04-26T08:00:32.335Z</time></trkpt><trkpt lat="43.8395326" lon="7.8801972"><ele>20.0</ele><time>2026-04-26T08:00:33.335Z</time></trkpt><trkpt lat="43.8395222" lon="7.8800785"><ele>20.0</ele><time>2026-04-26T08:00:34.334Z</time></trkpt><trkpt lat="43.8395037" lon="7.8799612"><ele>20.0</ele><time>2026-04-26T08:00:35.334Z</time></trkpt><trkpt lat="43.8394859" lon="7.8798371"><ele>19.833333333333336</ele><time>2026-04-26T08:00:36.334Z</time></trkpt><trkpt lat="43.8394661" lon="7.8797256"><ele>19.666666666666668</ele><time>2026-04-26T08:00:37.335Z</time></trkpt><trkpt lat="43.8394513" lon="7.8796053"><ele>19.5</ele><time>2026-04-26T08:00:38.334Z</time></trkpt><trkpt lat="43.8394367" lon="7.8794788"><ele>19.333333333333332</ele><time>2026-04-26T08:00:39.335Z</time></trkpt><trkpt lat="43.8394143" lon="7.8793624"><ele>19.166666666666664</ele><time>2026-04-26T08:00:40.334Z</time></trkpt><trkpt lat="43.8393916" lon="7.8792453"><ele>19.0</ele><time>2026-04-26T08:00:41.335Z</time></trkpt><trkpt lat="43.8393752" lon="7.8791111"><ele>19.0</ele><time>2026-04-26T08:00:42.334Z</time></trkpt><trkpt lat="43.8393541" lon="7.878978"><ele>19.0</ele><time>2026-04-26T08:00:43.335Z</time></trkpt><trkpt lat="43.839333" lon="7.8788506"><ele>19.0</ele><time>2026-04-26T08:00:44.334Z</time></trkpt><trkpt lat="43.8393041" lon="7.8787287"><ele>19.0</ele><time>2026-04-26T08:00:45.334Z</time></trkpt><trkpt lat="43.8392701" lon="7.8786115"><ele>19.0</ele><time>2026-04-26T08:00:46.334Z</time></trkpt><trkpt lat="43.8392324" lon="7.8784857"><ele>17.4</ele><time>2026-04-26T08:00:47.335Z</time></trkpt><trkpt lat="43.8391822" lon="7.8783699"><ele>15.799999999999999</ele><time>2026-04-26T08:00:48.335Z</time></trkpt><trkpt lat="43.8391335" lon="7.8782582"><ele>14.2</ele><time>2026-04-26T08:00:49.334Z</time></trkpt><trkpt lat="43.839076" lon="7.8781487"><ele>12.600000000000001</ele><time>2026-04-26T08:00:50.334Z</time></trkpt><trkpt lat="43.8390256" lon="7.8780353"><ele>11.0</ele><time>2026-04-26T08:00:51.335Z</time></trkpt><trkpt lat="43.8389582" lon="7.8779208"><ele>11.0</ele><time>2026-04-26T08:00:52.334Z</time></trkpt><trkpt lat="43.8388909" lon="7.8778147"><ele>11.0</ele><time>2026-04-26T08:00:53.334Z</time></trkpt><trkpt lat="43.8388192" lon="7.8777139"><ele>11.0</ele><time>2026-04-26T08:00:54.335Z</time></trkpt><trkpt lat="43.8387484" lon="7.8776175"><ele>11.0</ele><time>2026-04-26T08:00:55.335Z</time></trkpt><trkpt lat="43.8386715" lon="7.8775231"><ele>11.0</ele><time>2026-04-26T08:00:56.335Z</time></trkpt><trkpt lat="43.8385868" lon="7.8774259"><ele>11.600000000000001</ele><time>2026-04-26T08:00:57.334Z</time></trkpt><trkpt lat="43.8385016" lon="7.8773341"><ele>12.2</ele><time>2026-04-26T08:00:58.334Z</time></trkpt><trkpt lat="43.8384075" lon="7.8772396"><ele>12.799999999999999</ele><time>2026-04-26T08:00:59.335Z</time></trkpt><trkpt lat="43.8383144" lon="7.877149"><ele>13.399999999999999</ele><time>2026-04-26T08:01:00.334Z</time></trkpt><trkpt lat="43.8382274" lon="7.877064"><ele>14.0</ele><time>2026-04-26T08:01:01.335Z</time></trkpt><trkpt lat="43.8381411" lon="7.8769805"><ele>14.0</ele><time>2026-04-26T08:01:02.336Z</time></trkpt><trkpt lat="43.8380613" lon="7.8768921"><ele>13.999999999999998</ele><time>2026-04-26T08:01:03.333Z</time></trkpt><trkpt lat="43.8379751" lon="7.8767993"><ele>13.999999999999998</ele><time>2026-04-26T08:01:04.335Z</time></trkpt><trkpt lat="43.8378868" lon="7.8766947"><ele>14.0</ele><time>2026-04-26T08:01:05.335Z</time></trkpt><trkpt lat="43.8377961" lon="7.8765821"><ele>14.0</ele><time>2026-04-26T08:01:06.333Z</time></trkpt><trkpt lat="43.837715" lon="7.876469"><ele>14.2</ele><time>2026-04-26T08:01:07.333Z</time></trkpt><trkpt lat="43.8376394" lon="7.8763574"><ele>14.399999999999999</ele><time>2026-04-26T08:01:08.334Z</time></trkpt><trkpt lat="43.837566" lon="7.8762474"><ele>14.6</ele><time>2026-04-26T08:01:09.334Z</time></trkpt><trkpt lat="43.8374896" lon="7.8761372"><ele>14.8</ele><time>2026-04-26T08:01:10.335Z</time></trkpt><trkpt lat="43.8374167" lon="7.8760171"><ele>15.0</ele><time>2026-04-26T08:01:11.335Z</time></trkpt><trkpt lat="43.8373444" lon="7.8758911"><ele>15.0</ele><time>2026-04-26T08:01:12.334Z</time></trkpt><trkpt lat="43.8372801" lon="7.8757627"><ele>15.0</ele><time>2026-04-26T08:01:13.335Z</time></trkpt><trkpt lat="43.8372189" lon="7.8756347"><ele>15.0</ele><time>2026-04-26T08:01:14.335Z</time></trkpt><trkpt lat="43.8371623" lon="7.8755078"><ele>15.0</ele><time>2026-04-26T08:01:15.334Z</time></trkpt><trkpt lat="43.837111" lon="7.875381"><ele>15.0</ele><time>2026-04-26T08:01:16.334Z</time></trkpt><trkpt lat="43.8370627" lon="7.8752547"><ele>15.0</ele><time>2026-04-26T08:01:17.334Z</time></trkpt><trkpt lat="43.8370205" lon="7.8751352"><ele>15.0</ele><time>2026-04-26T08:01:18.334Z</time></trkpt><trkpt lat="43.8369837" lon="7.8750216"><ele>15.0</ele><time>2026-04-26T08:01:19.334Z</time></trkpt><trkpt lat="43.8369498" lon="7.8749091"><ele>15.0</ele><time>2026-04-26T08:01:20.333Z</time></trkpt><trkpt lat="43.83692" lon="7.8748029"><ele>15.0</ele><time>2026-04-26T08:01:21.335Z</time></trkpt><trkpt lat="43.8368922" lon="7.8746947"><ele>15.0</ele><time>2026-04-26T08:01:22.336Z</time></trkpt><trkpt lat="43.8368636" lon="7.8745901"><ele>14.571428571428571</ele><time>2026-04-26T08:01:23.336Z</time></trkpt><trkpt lat="43.836838" lon="7.8744889"><ele>14.142857142857142</ele><time>2026-04-26T08:01:24.335Z</time></trkpt><trkpt lat="43.8368175" lon="7.8743885"><ele>13.714285714285714</ele><time>2026-04-26T08:01:25.336Z</time></trkpt><trkpt lat="43.8367943" lon="7.8742946"><ele>13.285714285714285</ele><time>2026-04-26T08:01:26.334Z</time></trkpt><trkpt lat="43.8367735" lon="7.8742039"><ele>12.857142857142858</ele><time>2026-04-26T08:01:27.334Z</time></trkpt><trkpt lat="43.8367521" lon="7.8741079"><ele>12.428571428571427</ele><time>2026-04-26T08:01:28.335Z</time></trkpt><trkpt lat="43.8367292" lon="7.8740018"><ele>12.0</ele><time>2026-04-26T08:01:29.334Z</time></trkpt><trkpt lat="43.8367068" lon="7.8739067"><ele>11.833333333333334</ele><time>2026-04-26T08:01:30.335Z</time></trkpt><trkpt lat="43.8366814" lon="7.8738032"><ele>11.666666666666666</ele><time>2026-04-26T08:01:31.335Z</time></trkpt><trkpt lat="43.8366623" lon="7.8736972"><ele>11.5</ele><time>2026-04-26T08:01:32.335Z</time></trkpt><trkpt lat="43.8366362" lon="7.8735857"><ele>11.333333333333332</ele><time>2026-04-26T08:01:33.333Z</time></trkpt><trkpt lat="43.8366141" lon="7.8734808"><ele>11.166666666666666</ele><time>2026-04-26T08:01:34.333Z</time></trkpt><trkpt lat="43.836592" lon="7.8733691"><ele>11.0</ele><time>2026-04-26T08:01:35.334Z</time></trkpt><trkpt lat="43.8365685" lon="7.873248"><ele>10.8</ele><time>2026-04-26T08:01:36.335Z</time></trkpt><trkpt lat="43.8365387" lon="7.8731206"><ele>10.600000000000001</ele><time>2026-04-26T08:01:37.334Z</time></trkpt><trkpt lat="43.8365057" lon="7.8729939"><ele>10.4</ele><time>2026-04-26T08:01:38.335Z</time></trkpt><trkpt lat="43.8364722" lon="7.8728658"><ele>10.2</ele><time>2026-04-26T08:01:39.336Z</time></trkpt><trkpt lat="43.8364387" lon="7.8727336"><ele>10.0</ele><time>2026-04-26T08:01:40.335Z</time></trkpt><trkpt lat="43.8364047" lon="7.8725958"><ele>11.0</ele><time>2026-04-26T08:01:41.333Z</time></trkpt><trkpt lat="43.8363694" lon="7.8724533"><ele>12.0</ele><time>2026-04-26T08:01:42.335Z</time></trkpt><trkpt lat="43.8363391" lon="7.8723165"><ele>13.0</ele><time>2026-04-26T08:01:43.335Z</time></trkpt><trkpt lat="43.8363102" lon="7.8721752"><ele>14.0</ele><time>2026-04-26T08:01:44.336Z</time></trkpt><trkpt lat="43.8362782" lon="7.8720274"><ele>15.0</ele><time>2026-04-26T08:01:45.334Z</time></trkpt><trkpt lat="43.8362464" lon="7.8718765"><ele>16.25</ele><time>2026-04-26T08:01:46.334Z</time></trkpt><trkpt lat="43.8362136" lon="7.8717219"><ele>17.5</ele><time>2026-04-26T08:01:47.335Z</time></trkpt><trkpt lat="43.8361806" lon="7.8715695"><ele>18.75</ele><time>2026-04-26T08:01:48.335Z</time></trkpt><trkpt lat="43.8361467" lon="7.8714202"><ele>20.0</ele><time>2026-04-26T08:01:49.335Z</time></trkpt><trkpt lat="43.8361122" lon="7.8712715"><ele>20.0</ele><time>2026-04-26T08:01:50.335Z</time></trkpt><trkpt lat="43.8360793" lon="7.8711279"><ele>20.0</ele><time>2026-04-26T08:01:51.335Z</time></trkpt><trkpt lat="43.8360514" lon="7.8709876"><ele>20.0</ele><time>2026-04-26T08:01:52.335Z</time></trkpt><trkpt lat="43.8360237" lon="7.8708537"><ele>20.0</ele><time>2026-04-26T08:01:53.334Z</time></trkpt><trkpt lat="43.8359938" lon="7.8707232"><ele>20.0</ele><time>2026-04-26T08:01:54.334Z</time></trkpt><trkpt lat="43.835963" lon="7.8705945"><ele>17.6</ele><time>2026-04-26T08:01:55.335Z</time></trkpt><trkpt lat="43.8359348" lon="7.8704596"><ele>15.2</ele><time>2026-04-26T08:01:56.334Z</time></trkpt><trkpt lat="43.8359081" lon="7.8703161"><ele>12.8</ele><time>2026-04-26T08:01:57.334Z</time></trkpt><trkpt lat="43.8358773" lon="7.8701701"><ele>10.4</ele><time>2026-04-26T08:01:58.335Z</time></trkpt><trkpt lat="43.8358476" lon="7.8700277"><ele>8.0</ele><time>2026-04-26T08:01:59.335Z</time></trkpt><trkpt lat="43.8358158" lon="7.8698844"><ele>8.0</ele><time>2026-04-26T08:02:00.334Z</time></trkpt><trkpt lat="43.8357879" lon="7.8697345"><ele>8.0</ele><time>2026-04-26T08:02:01.335Z</time></trkpt><trkpt lat="43.8357562" lon="7.8695857"><ele>8.0</ele><time>2026-04-26T08:02:02.335Z</time></trkpt><trkpt lat="43.8357215" lon="7.8694364"><ele>8.0</ele><time>2026-04-26T08:02:03.335Z</time></trkpt><trkpt lat="43.835689" lon="7.869282"><ele>8.5</ele><time>2026-04-26T08:02:04.334Z</time></trkpt><trkpt lat="43.8356561" lon="7.8691355"><ele>9.0</ele><time>2026-04-26T08:02:05.334Z</time></trkpt><trkpt lat="43.835625" lon="7.8689841"><ele>9.5</ele><time>2026-04-26T08:02:06.334Z</time></trkpt><trkpt lat="43.8355908" lon="7.8688299"><ele>10.0</ele><time>2026-04-26T08:02:07.335Z</time></trkpt><trkpt lat="43.8355532" lon="7.8686771"><ele>10.0</ele><time>2026-04-26T08:02:08.334Z</time></trkpt><trkpt lat="43.8355167" lon="7.8685256"><ele>10.0</ele><time>2026-04-26T08:02:09.335Z</time></trkpt><trkpt lat="43.8354797" lon="7.868371"><ele>10.0</ele><time>2026-04-26T08:02:10.335Z</time></trkpt><trkpt lat="43.8354482" lon="7.8682158"><ele>10.0</ele><time>2026-04-26T08:02:11.334Z</time></trkpt><trkpt lat="43.8354162" lon="7.8680659"><ele>10.2</ele><time>2026-04-26T08:02:12.334Z</time></trkpt><trkpt lat="43.8353835" lon="7.8679183"><ele>10.4</ele><time>2026-04-26T08:02:13.334Z</time></trkpt><trkpt lat="43.8353618" lon="7.8677776"><ele>10.600000000000001</ele><time>2026-04-26T08:02:14.334Z</time></trkpt><trkpt lat="43.8353453" lon="7.8676396"><ele>10.8</ele><time>2026-04-26T08:02:15.334Z</time></trkpt><trkpt lat="43.8353434" lon="7.8675048"><ele>11.0</ele><time>2026-04-26T08:02:16.334Z</time></trkpt><trkpt lat="43.8353581" lon="7.8673734"><ele>11.0</ele><time>2026-04-26T08:02:17.333Z</time></trkpt><trkpt lat="43.8353864" lon="7.867238"><ele>11.0</ele><time>2026-04-26T08:02:18.335Z</time></trkpt><trkpt lat="43.8354322" lon="7.8671056"><ele>11.0</ele><time>2026-04-26T08:02:19.335Z</time></trkpt><trkpt lat="43.8355031" lon="7.8669946"><ele>11.0</ele><time>2026-04-26T08:02:20.334Z</time></trkpt><trkpt lat="43.8355867" lon="7.8668965"><ele>11.0</ele><time>2026-04-26T08:02:21.335Z</time></trkpt><trkpt lat="43.8356791" lon="7.8668066"><ele>10.0</ele><time>2026-04-26T08:02:22.335Z</time></trkpt><trkpt lat="43.8357764" lon="7.8667253"><ele>9.0</ele><time>2026-04-26T08:02:23.335Z</time></trkpt><trkpt lat="43.8358783" lon="7.8666432"><ele>8.0</ele><time>2026-04-26T08:02:24.334Z</time></trkpt><trkpt lat="43.8359863" lon="7.8665535"><ele>7.0</ele><time>2026-04-26T08:02:25.334Z</time></trkpt><trkpt lat="43.8361018" lon="7.8664685"><ele>10.0</ele><time>2026-04-26T08:02:26.335Z</time></trkpt><trkpt lat="43.8362055" lon="7.8663699"><ele>13.0</ele><time>2026-04-26T08:02:27.335Z</time></trkpt><trkpt lat="43.8363009" lon="7.8662596"><ele>16.0</ele><time>2026-04-26T08:02:28.335Z</time></trkpt><trkpt lat="43.8363897" lon="7.8661332"><ele>19.0</ele><time>2026-04-26T08:02:29.335Z</time></trkpt><trkpt lat="43.8364693" lon="7.8659959"><ele>16.5</ele><time>2026-04-26T08:02:30.334Z</time></trkpt><trkpt lat="43.8365358" lon="7.8658538"><ele>14.0</ele><time>2026-04-26T08:02:31.335Z</time></trkpt><trkpt lat="43.8365995" lon="7.8657072"><ele>11.5</ele><time>2026-04-26T08:02:32.335Z</time></trkpt><trkpt lat="43.836647" lon="7.8655545"><ele>9.0</ele><time>2026-04-26T08:02:33.334Z</time></trkpt><trkpt lat="43.8366819" lon="7.8653998"><ele>9.0</ele><time>2026-04-26T08:02:34.334Z</time></trkpt><trkpt lat="43.8367088" lon="7.8652402"><ele>9.0</ele><time>2026-04-26T08:02:35.335Z</time></trkpt><trkpt lat="43.8367202" lon="7.8650831"><ele>9.0</ele><time>2026-04-26T08:02:36.334Z</time></trkpt><trkpt lat="43.8367165" lon="7.8649279"><ele>9.0</ele><time>2026-04-26T08:02:37.334Z</time></trkpt><trkpt lat="43.8367057" lon="7.8647756"><ele>8.2</ele><time>2026-04-26T08:02:38.335Z</time></trkpt><trkpt lat="43.8366922" lon="7.864629"><ele>7.4</ele><time>2026-04-26T08:02:39.336Z</time></trkpt><trkpt lat="43.8366738" lon="7.8644869"><ele>6.6</ele><time>2026-04-26T08:02:40.334Z</time></trkpt><trkpt lat="43.8366476" lon="7.8643497"><ele>5.8</ele><time>2026-04-26T08:02:41.335Z</time></trkpt><trkpt lat="43.8366283" lon="7.8642119"><ele>5.0</ele><time>2026-04-26T08:02:42.334Z</time></trkpt><trkpt lat="43.8366065" lon="7.8640784"><ele>5.0</ele><time>2026-04-26T08:02:43.335Z</time></trkpt><trkpt lat="43.8365864" lon="7.863944"><ele>5.0</ele><time>2026-04-26T08:02:44.336Z</time></trkpt><trkpt lat="43.8365648" lon="7.8638122"><ele>5.0</ele><time>2026-04-26T08:02:45.335Z</time></trkpt><trkpt lat="43.8365438" lon="7.8636852"><ele>5.0</ele><time>2026-04-26T08:02:46.335Z</time></trkpt><trkpt lat="43.8365234" lon="7.8635661"><ele>5.0</ele><time>2026-04-26T08:02:47.335Z</time></trkpt><trkpt lat="43.8365031" lon="7.8634417"><ele>5.0</ele><time>2026-04-26T08:02:48.334Z</time></trkpt><trkpt lat="43.8364794" lon="7.8633121"><ele>5.0</ele><time>2026-04-26T08:02:49.334Z</time></trkpt><trkpt lat="43.8364591" lon="7.8631775"><ele>5.0</ele><time>2026-04-26T08:02:50.336Z</time></trkpt><trkpt lat="43.8364355" lon="7.8630423"><ele>5.0</ele><time>2026-04-26T08:02:51.336Z</time></trkpt><trkpt lat="43.8364146" lon="7.8629046"><ele>5.0</ele><time>2026-04-26T08:02:52.336Z</time></trkpt><trkpt lat="43.8363949" lon="7.862765"><ele>5.0</ele><time>2026-04-26T08:02:53.335Z</time></trkpt><trkpt lat="43.8363716" lon="7.8626305"><ele>5.0</ele><time>2026-04-26T08:02:54.334Z</time></trkpt><trkpt lat="43.8363521" lon="7.8624962"><ele>5.0</ele><time>2026-04-26T08:02:55.335Z</time></trkpt><trkpt lat="43.836332" lon="7.8623629"><ele>5.0</ele><time>2026-04-26T08:02:56.335Z</time></trkpt><trkpt lat="43.8363092" lon="7.8622366"><ele>5.0</ele><time>2026-04-26T08:02:57.335Z</time></trkpt><trkpt lat="43.8362864" lon="7.8621154"><ele>5.2</ele><time>2026-04-26T08:02:58.335Z</time></trkpt><trkpt lat="43.8362638" lon="7.8619905"><ele>5.4</ele><time>2026-04-26T08:02:59.334Z</time></trkpt><trkpt lat="43.8362456" lon="7.8618647"><ele>5.6</ele><time>2026-04-26T08:03:00.335Z</time></trkpt><trkpt lat="43.8362252" lon="7.8617419"><ele>5.8</ele><time>2026-04-26T08:03:01.335Z</time></trkpt><trkpt lat="43.8362064" lon="7.8616196"><ele>6.0</ele><time>2026-04-26T08:03:02.335Z</time></trkpt><trkpt lat="43.836184" lon="7.861492"><ele>6.0</ele><time>2026-04-26T08:03:03.335Z</time></trkpt><trkpt lat="43.8361531" lon="7.8613616"><ele>6.0</ele><time>2026-04-26T08:03:04.335Z</time></trkpt><trkpt lat="43.8361224" lon="7.8612181"><ele>6.0</ele><time>2026-04-26T08:03:05.336Z</time></trkpt><trkpt lat="43.8360987" lon="7.8610713"><ele>6.0</ele><time>2026-04-26T08:03:06.334Z</time></trkpt><trkpt lat="43.8360764" lon="7.8609291"><ele>6.0</ele><time>2026-04-26T08:03:07.334Z</time></trkpt><trkpt lat="43.8360567" lon="7.8607939"><ele>6.0</ele><time>2026-04-26T08:03:08.334Z</time></trkpt><trkpt lat="43.8360365" lon="7.8606546"><ele>6.0</ele><time>2026-04-26T08:03:09.335Z</time></trkpt><trkpt lat="43.8360259" lon="7.8605071"><ele>6.0</ele><time>2026-04-26T08:03:10.335Z</time></trkpt><trkpt lat="43.8360335" lon="7.8603587"><ele>6.0</ele><time>2026-04-26T08:03:11.335Z</time></trkpt><trkpt lat="43.8360574" lon="7.8602123"><ele>6.0</ele><time>2026-04-26T08:03:12.335Z</time></trkpt><trkpt lat="43.836097" lon="7.8600681"><ele>6.0</ele><time>2026-04-26T08:03:13.335Z</time></trkpt><trkpt lat="43.8361554" lon="7.8599374"><ele>6.0</ele><time>2026-04-26T08:03:14.334Z</time></trkpt><trkpt lat="43.8362309" lon="7.8598235"><ele>6.0</ele><time>2026-04-26T08:03:15.335Z</time></trkpt><trkpt lat="43.8363165" lon="7.8597235"><ele>6.0</ele><time>2026-04-26T08:03:16.335Z</time></trkpt><trkpt lat="43.8364203" lon="7.8596574"><ele>6.0</ele><time>2026-04-26T08:03:17.335Z</time></trkpt><trkpt lat="43.8365284" lon="7.8596121"><ele>6.0</ele><time>2026-04-26T08:03:18.334Z</time></trkpt><trkpt lat="43.8366454" lon="7.8595785"><ele>6.0</ele><time>2026-04-26T08:03:19.334Z</time></trkpt><trkpt lat="43.8367646" lon="7.8595462"><ele>6.0</ele><time>2026-04-26T08:03:20.335Z</time></trkpt><trkpt lat="43.8368863" lon="7.8595095"><ele>6.0</ele><time>2026-04-26T08:03:21.334Z</time></trkpt><trkpt lat="43.8370066" lon="7.8594706"><ele>5.75</ele><time>2026-04-26T08:03:22.335Z</time></trkpt><trkpt lat="43.8371253" lon="7.8594322"><ele>5.5</ele><time>2026-04-26T08:03:23.335Z</time></trkpt><trkpt lat="43.8372426" lon="7.8593882"><ele>5.25</ele><time>2026-04-26T08:03:24.334Z</time></trkpt><trkpt lat="43.8373585" lon="7.8593413"><ele>5.0</ele><time>2026-04-26T08:03:25.335Z</time></trkpt><trkpt lat="43.8374809" lon="7.8592882"><ele>4.75</ele><time>2026-04-26T08:03:26.334Z</time></trkpt><trkpt lat="43.8376031" lon="7.8592324"><ele>4.5</ele><time>2026-04-26T08:03:27.334Z</time></trkpt><trkpt lat="43.8377236" lon="7.8591726"><ele>4.25</ele><time>2026-04-26T08:03:28.334Z</time></trkpt><trkpt lat="43.8378493" lon="7.8590978"><ele>4.0</ele><time>2026-04-26T08:03:29.335Z</time></trkpt><trkpt lat="43.8379717" lon="7.8590314"><ele>4.0</ele><time>2026-04-26T08:03:30.335Z</time></trkpt><trkpt lat="43.8380851" lon="7.8589668"><ele>4.0</ele><time>2026-04-26T08:03:31.334Z</time></trkpt><trkpt lat="43.838192" lon="7.8589103"><ele>4.0</ele><time>2026-04-26T08:03:32.335Z</time></trkpt><trkpt lat="43.8382974" lon="7.858864"><ele>4.0</ele><time>2026-04-26T08:03:33.335Z</time></trkpt><trkpt lat="43.838404" lon="7.8588342"><ele>5.25</ele><time>2026-04-26T08:03:34.335Z</time></trkpt><trkpt lat="43.8385181" lon="7.8588044"><ele>6.5</ele><time>2026-04-26T08:03:35.336Z</time></trkpt><trkpt lat="43.8386387" lon="7.85878"><ele>7.75</ele><time>2026-04-26T08:03:36.334Z</time></trkpt><trkpt lat="43.838767" lon="7.8587629"><ele>9.0</ele><time>2026-04-26T08:03:37.335Z</time></trkpt><trkpt lat="43.8388913" lon="7.8587565"><ele>9.0</ele><time>2026-04-26T08:03:38.335Z</time></trkpt><trkpt lat="43.8390244" lon="7.8587626"><ele>9.0</ele><time>2026-04-26T08:03:39.335Z</time></trkpt><trkpt lat="43.839156" lon="7.8587766"><ele>9.0</ele><time>2026-04-26T08:03:40.335Z</time></trkpt><trkpt lat="43.839288" lon="7.858789"><ele>9.0</ele><time>2026-04-26T08:03:41.334Z</time></trkpt><trkpt lat="43.8394174" lon="7.8588028"><ele>9.0</ele><time>2026-04-26T08:03:42.334Z</time></trkpt><trkpt lat="43.8395393" lon="7.8588134"><ele>9.0</ele><time>2026-04-26T08:03:43.335Z</time></trkpt><trkpt lat="43.8396579" lon="7.8588279"><ele>9.0</ele><time>2026-04-26T08:03:44.335Z</time></trkpt><trkpt lat="43.8397609" lon="7.8588382"><ele>9.0</ele><time>2026-04-26T08:03:45.336Z</time></trkpt><trkpt lat="43.8398586" lon="7.8588485"><ele>9.0</ele><time>2026-04-26T08:03:46.335Z</time></trkpt><trkpt lat="43.8399492" lon="7.8588538"><ele>9.000000000000002</ele><time>2026-04-26T08:03:47.334Z</time></trkpt><trkpt lat="43.8400274" lon="7.8588249"><ele>9.0</ele><time>2026-04-26T08:03:48.335Z</time></trkpt><trkpt lat="43.8400872" lon="7.8587713"><ele>9.0</ele><time>2026-04-26T08:03:49.335Z</time></trkpt><trkpt lat="43.8401266" lon="7.8586965"><ele>9.0</ele><time>2026-04-26T08:03:50.335Z</time></trkpt><trkpt lat="43.8401461" lon="7.8586072"><ele>9.0</ele><time>2026-04-26T08:03:51.335Z</time></trkpt><trkpt lat="43.8401579" lon="7.8585011"><ele>9.000000000000002</ele><time>2026-04-26T08:03:52.335Z</time></trkpt><trkpt lat="43.8401661" lon="7.8583831"><ele>9.0</ele><time>2026-04-26T08:03:53.335Z</time></trkpt><trkpt lat="43.8401724" lon="7.8582627"><ele>8.714285714285715</ele><time>2026-04-26T08:03:54.336Z</time></trkpt><trkpt lat="43.8401781" lon="7.8581466"><ele>8.428571428571429</ele><time>2026-04-26T08:03:55.336Z</time></trkpt><trkpt lat="43.8401826" lon="7.8580409"><ele>8.142857142857142</ele><time>2026-04-26T08:03:56.335Z</time></trkpt><trkpt lat="43.8401874" lon="7.8579407"><ele>7.857142857142858</ele><time>2026-04-26T08:03:57.334Z</time></trkpt><trkpt lat="43.8401928" lon="7.8578497"><ele>7.571428571428571</ele><time>2026-04-26T08:03:58.334Z</time></trkpt><trkpt lat="43.840214" lon="7.8577639"><ele>7.285714285714286</ele><time>2026-04-26T08:03:59.336Z</time></trkpt><trkpt lat="43.8402545" lon="7.8576881"><ele>7.0</ele><time>2026-04-26T08:04:00.336Z</time></trkpt><trkpt lat="43.8403145" lon="7.8576454"><ele>7.0</ele><time>2026-04-26T08:04:01.334Z</time></trkpt><trkpt lat="43.8403823" lon="7.8576228"><ele>6.999999999999999</ele><time>2026-04-26T08:04:02.334Z</time></trkpt><trkpt lat="43.8404694" lon="7.8576179"><ele>6.999999999999999</ele><time>2026-04-26T08:04:03.335Z</time></trkpt><trkpt lat="43.840583" lon="7.8576303"><ele>7.0</ele><time>2026-04-26T08:04:04.334Z</time></trkpt><trkpt lat="43.8407007" lon="7.8576509"><ele>7.0</ele><time>2026-04-26T08:04:05.334Z</time></trkpt><trkpt lat="43.8408229" lon="7.8576742"><ele>7.0</ele><time>2026-04-26T08:04:06.335Z</time></trkpt><trkpt lat="43.8409418" lon="7.8577042"><ele>7.0</ele><time>2026-04-26T08:04:07.335Z</time></trkpt><trkpt lat="43.8410557" lon="7.8577334"><ele>7.0</ele><time>2026-04-26T08:04:08.335Z</time></trkpt><trkpt lat="43.841167" lon="7.8577674"><ele>7.0</ele><time>2026-04-26T08:04:09.334Z</time></trkpt><trkpt lat="43.8412755" lon="7.8577894"><ele>6.75</ele><time>2026-04-26T08:04:10.334Z</time></trkpt><trkpt lat="43.8413917" lon="7.8578235"><ele>6.5</ele><time>2026-04-26T08:04:11.335Z</time></trkpt><trkpt lat="43.8415049" lon="7.8578498"><ele>6.25</ele><time>2026-04-26T08:04:12.336Z</time></trkpt><trkpt lat="43.8416251" lon="7.8578845"><ele>6.0</ele><time>2026-04-26T08:04:13.335Z</time></trkpt><trkpt lat="43.8417425" lon="7.8579262"><ele>6.75</ele><time>2026-04-26T08:04:14.335Z</time></trkpt><trkpt lat="43.8418578" lon="7.8579678"><ele>7.5</ele><time>2026-04-26T08:04:15.334Z</time></trkpt><trkpt lat="43.8419754" lon="7.8580164"><ele>8.25</ele><time>2026-04-26T08:04:16.335Z</time></trkpt><trkpt lat="43.8420889" lon="7.8580668"><ele>9.0</ele><time>2026-04-26T08:04:17.335Z</time></trkpt><trkpt lat="43.8421994" lon="7.8581207"><ele>9.0</ele><time>2026-04-26T08:04:18.334Z</time></trkpt><trkpt lat="43.8423083" lon="7.8581689"><ele>9.0</ele><time>2026-04-26T08:04:19.336Z</time></trkpt><trkpt lat="43.8424199" lon="7.8582215"><ele>9.0</ele><time>2026-04-26T08:04:20.335Z</time></trkpt><trkpt lat="43.8425351" lon="7.8582745"><ele>9.0</ele><time>2026-04-26T08:04:21.335Z</time></trkpt><trkpt lat="43.8426469" lon="7.8583412"><ele>9.0</ele><time>2026-04-26T08:04:22.334Z</time></trkpt><trkpt lat="43.8427625" lon="7.8584054"><ele>9.0</ele><time>2026-04-26T08:04:23.334Z</time></trkpt><trkpt lat="43.8428784" lon="7.8584756"><ele>9.0</ele><time>2026-04-26T08:04:24.334Z</time></trkpt><trkpt lat="43.8429924" lon="7.8585499"><ele>9.0</ele><time>2026-04-26T08:04:25.335Z</time></trkpt><trkpt lat="43.8431102" lon="7.8586219"><ele>9.0</ele><time>2026-04-26T08:04:26.334Z</time></trkpt><trkpt lat="43.8432385" lon="7.8586903"><ele>9.0</ele><time>2026-04-26T08:04:27.335Z</time></trkpt><trkpt lat="43.8433812" lon="7.858768"><ele>9.0</ele><time>2026-04-26T08:04:28.335Z</time></trkpt><trkpt lat="43.8435365" lon="7.8588578"><ele>9.666666666666666</ele><time>2026-04-26T08:04:29.336Z</time></trkpt><trkpt lat="43.8436812" lon="7.8589375"><ele>10.333333333333332</ele><time>2026-04-26T08:04:30.335Z</time></trkpt><trkpt lat="43.843831" lon="7.8590111"><ele>11.0</ele><time>2026-04-26T08:04:31.336Z</time></trkpt><trkpt lat="43.8439907" lon="7.8590819"><ele>11.0</ele><time>2026-04-26T08:04:32.334Z</time></trkpt><trkpt lat="43.8441471" lon="7.8591392"><ele>11.0</ele><time>2026-04-26T08:04:33.336Z</time></trkpt><trkpt lat="43.8443058" lon="7.8591855"><ele>11.0</ele><time>2026-04-26T08:04:34.336Z</time></trkpt><trkpt lat="43.844469" lon="7.8592198"><ele>12.333333333333332</ele><time>2026-04-26T08:04:35.335Z</time></trkpt><trkpt lat="43.8446341" lon="7.8592468"><ele>13.666666666666666</ele><time>2026-04-26T08:04:36.334Z</time></trkpt><trkpt lat="43.8447995" lon="7.8592604"><ele>15.0</ele><time>2026-04-26T08:04:37.334Z</time></trkpt><trkpt lat="43.8449673" lon="7.859271"><ele>15.0</ele><time>2026-04-26T08:04:38.335Z</time></trkpt><trkpt lat="43.8451321" lon="7.8592678"><ele>15.0</ele><time>2026-04-26T08:04:39.335Z</time></trkpt><trkpt lat="43.8453063" lon="7.8592603"><ele>15.0</ele><time>2026-04-26T08:04:40.334Z</time></trkpt><trkpt lat="43.8454934" lon="7.8592229"><ele>15.0</ele><time>2026-04-26T08:04:41.336Z</time></trkpt><trkpt lat="43.8456778" lon="7.8592018"><ele>15.0</ele><time>2026-04-26T08:04:42.336Z</time></trkpt><trkpt lat="43.8458552" lon="7.8591691"><ele>15.0</ele><time>2026-04-26T08:04:43.335Z</time></trkpt><trkpt lat="43.846035" lon="7.859142"><ele>14.333333333333332</ele><time>2026-04-26T08:04:44.335Z</time></trkpt><trkpt lat="43.8462142" lon="7.8591152"><ele>13.666666666666666</ele><time>2026-04-26T08:04:45.334Z</time></trkpt><trkpt lat="43.8463942" lon="7.8590846"><ele>13.0</ele><time>2026-04-26T08:04:46.335Z</time></trkpt><trkpt lat="43.8465693" lon="7.8590595"><ele>13.0</ele><time>2026-04-26T08:04:47.334Z</time></trkpt><trkpt lat="43.8467375" lon="7.8590212"><ele>13.0</ele><time>2026-04-26T08:04:48.334Z</time></trkpt><trkpt lat="43.8469038" lon="7.8589895"><ele>13.0</ele><time>2026-04-26T08:04:49.334Z</time></trkpt><trkpt lat="43.8470728" lon="7.8589529"><ele>13.333333333333332</ele><time>2026-04-26T08:04:50.335Z</time></trkpt><trkpt lat="43.8472416" lon="7.8589227"><ele>13.666666666666668</ele><time>2026-04-26T08:04:51.334Z</time></trkpt><trkpt lat="43.8474079" lon="7.8588945"><ele>14.0</ele><time>2026-04-26T08:04:52.335Z</time></trkpt><trkpt lat="43.8475748" lon="7.8588656"><ele>13.333333333333334</ele><time>2026-04-26T08:04:53.334Z</time></trkpt><trkpt lat="43.8477429" lon="7.858835"><ele>12.666666666666668</ele><time>2026-04-26T08:04:54.334Z</time></trkpt><trkpt lat="43.8479101" lon="7.8587996"><ele>12.0</ele><time>2026-04-26T08:04:55.336Z</time></trkpt><trkpt lat="43.8480771" lon="7.8587665"><ele>12.0</ele><time>2026-04-26T08:04:56.334Z</time></trkpt><trkpt lat="43.8482466" lon="7.8587408"><ele>12.0</ele><time>2026-04-26T08:04:57.335Z</time></trkpt><trkpt lat="43.8484131" lon="7.8587107"><ele>12.0</ele><time>2026-04-26T08:04:58.334Z</time></trkpt><trkpt lat="43.8485768" lon="7.8586825"><ele>12.333333333333332</ele><time>2026-04-26T08:04:59.335Z</time></trkpt><trkpt lat="43.8487396" lon="7.8586522"><ele>12.666666666666666</ele><time>2026-04-26T08:05:00.335Z</time></trkpt><trkpt lat="43.848903" lon="7.8586237"><ele>13.0</ele><time>2026-04-26T08:05:01.335Z</time></trkpt><trkpt lat="43.8490655" lon="7.8585886"><ele>13.0</ele><time>2026-04-26T08:05:02.336Z</time></trkpt><trkpt lat="43.849228" lon="7.8585566"><ele>13.0</ele><time>2026-04-26T08:05:03.335Z</time></trkpt><trkpt lat="43.8493854" lon="7.8585257"><ele>13.0</ele><time>2026-04-26T08:05:04.335Z</time></trkpt><trkpt lat="43.8495484" lon="7.8584896"><ele>13.666666666666666</ele><time>2026-04-26T08:05:05.334Z</time></trkpt><trkpt lat="43.8497101" lon="7.8584505"><ele>14.333333333333332</ele><time>2026-04-26T08:05:06.335Z</time></trkpt><trkpt lat="43.8498731" lon="7.8584176"><ele>15.0</ele><time>2026-04-26T08:05:07.334Z</time></trkpt><trkpt lat="43.8500351" lon="7.858389"><ele>15.0</ele><time>2026-04-26T08:05:08.334Z</time></trkpt><trkpt lat="43.8501941" lon="7.8583574"><ele>15.0</ele><time>2026-04-26T08:05:09.336Z</time></trkpt><trkpt lat="43.8503554" lon="7.8583243"><ele>15.0</ele><time>2026-04-26T08:05:10.334Z</time></trkpt><trkpt lat="43.8505151" lon="7.8582853"><ele>15.0</ele><time>2026-04-26T08:05:11.334Z</time></trkpt><trkpt lat="43.8506743" lon="7.8582443"><ele>15.0</ele><time>2026-04-26T08:05:12.336Z</time></trkpt><trkpt lat="43.8508318" lon="7.8582132"><ele>15.0</ele><time>2026-04-26T08:05:13.335Z</time></trkpt><trkpt lat="43.850987" lon="7.8581802"><ele>15.333333333333332</ele><time>2026-04-26T08:05:14.335Z</time></trkpt><trkpt lat="43.8511422" lon="7.8581507"><ele>15.666666666666666</ele><time>2026-04-26T08:05:15.335Z</time></trkpt><trkpt lat="43.8512937" lon="7.8581239"><ele>16.0</ele><time>2026-04-26T08:05:16.336Z</time></trkpt><trkpt lat="43.8514551" lon="7.8580934"><ele>16.0</ele><time>2026-04-26T08:05:17.335Z</time></trkpt><trkpt lat="43.8516139" lon="7.8580695"><ele>16.0</ele><time>2026-04-26T08:05:18.335Z</time></trkpt><trkpt lat="43.8517701" lon="7.858044"><ele>16.0</ele><time>2026-04-26T08:05:19.335Z</time></trkpt><trkpt lat="43.8519224" lon="7.8580173"><ele>16.0</ele><time>2026-04-26T08:05:20.334Z</time></trkpt><trkpt lat="43.8520763" lon="7.8579895"><ele>16.0</ele><time>2026-04-26T08:05:21.335Z</time></trkpt><trkpt lat="43.8522274" lon="7.857966"><ele>16.0</ele><time>2026-04-26T08:05:22.335Z</time></trkpt><trkpt lat="43.8523719" lon="7.8579412"><ele>16.0</ele><time>2026-04-26T08:05:23.336Z</time></trkpt><trkpt lat="43.8525217" lon="7.8579172"><ele>16.0</ele><time>2026-04-26T08:05:24.334Z</time></trkpt><trkpt lat="43.8526697" lon="7.8578956"><ele>16.0</ele><time>2026-04-26T08:05:25.335Z</time></trkpt><trkpt lat="43.8528157" lon="7.8578729"><ele>16.0</ele><time>2026-04-26T08:05:26.334Z</time></trkpt><trkpt lat="43.8529627" lon="7.8578485"><ele>16.333333333333332</ele><time>2026-04-26T08:05:27.335Z</time></trkpt><trkpt lat="43.8531127" lon="7.8578216"><ele>16.666666666666668</ele><time>2026-04-26T08:05:28.336Z</time></trkpt><trkpt lat="43.8532668" lon="7.857794"><ele>17.0</ele><time>2026-04-26T08:05:29.335Z</time></trkpt><trkpt lat="43.8534161" lon="7.8577706"><ele>17.5</ele><time>2026-04-26T08:05:30.335Z</time></trkpt><trkpt lat="43.8535603" lon="7.8577463"><ele>18.0</ele><time>2026-04-26T08:05:31.336Z</time></trkpt><trkpt lat="43.8537051" lon="7.857715"><ele>18.5</ele><time>2026-04-26T08:05:32.334Z</time></trkpt><trkpt lat="43.8538535" lon="7.8576782"><ele>19.0</ele><time>2026-04-26T08:05:33.334Z</time></trkpt><trkpt lat="43.8539988" lon="7.8576406"><ele>18.75</ele><time>2026-04-26T08:05:34.336Z</time></trkpt><trkpt lat="43.8541421" lon="7.8575949"><ele>18.5</ele><time>2026-04-26T08:05:35.334Z</time></trkpt><trkpt lat="43.854285" lon="7.8575432"><ele>18.25</ele><time>2026-04-26T08:05:36.334Z</time></trkpt><trkpt lat="43.8544288" lon="7.857488"><ele>18.0</ele><time>2026-04-26T08:05:37.335Z</time></trkpt><trkpt lat="43.8545755" lon="7.8574305"><ele>19.0</ele><time>2026-04-26T08:05:38.335Z</time></trkpt><trkpt lat="43.8547213" lon="7.8573691"><ele>20.0</ele><time>2026-04-26T08:05:39.334Z</time></trkpt><trkpt lat="43.8548629" lon="7.8573009"><ele>21.0</ele><time>2026-04-26T08:05:40.335Z</time></trkpt><trkpt lat="43.8550054" lon="7.8572255"><ele>22.0</ele><time>2026-04-26T08:05:41.335Z</time></trkpt><trkpt lat="43.8551448" lon="7.8571463"><ele>23.0</ele><time>2026-04-26T08:05:42.335Z</time></trkpt><trkpt lat="43.8552833" lon="7.8570626"><ele>24.0</ele><time>2026-04-26T08:05:43.336Z</time></trkpt><trkpt lat="43.8554225" lon="7.8569765"><ele>24.0</ele><time>2026-04-26T08:05:44.334Z</time></trkpt><trkpt lat="43.8555627" lon="7.8568877"><ele>24.0</ele><time>2026-04-26T08:05:45.335Z</time></trkpt><trkpt lat="43.8557011" lon="7.8567989"><ele>24.0</ele><time>2026-04-26T08:05:46.335Z</time></trkpt><trkpt lat="43.8558363" lon="7.8567156"><ele>23.333333333333332</ele><time>2026-04-26T08:05:47.336Z</time></trkpt><trkpt lat="43.8559742" lon="7.8566288"><ele>22.666666666666664</ele><time>2026-04-26T08:05:48.335Z</time></trkpt><trkpt lat="43.8561121" lon="7.8565425"><ele>22.0</ele><time>2026-04-26T08:05:49.334Z</time></trkpt><trkpt lat="43.8562498" lon="7.8564547"><ele>22.0</ele><time>2026-04-26T08:05:50.336Z</time></trkpt><trkpt lat="43.8563831" lon="7.8563684"><ele>22.0</ele><time>2026-04-26T08:05:51.335Z</time></trkpt><trkpt lat="43.8565226" lon="7.8562803"><ele>22.0</ele><time>2026-04-26T08:05:52.337Z</time></trkpt><trkpt lat="43.8566612" lon="7.8561867"><ele>22.0</ele><time>2026-04-26T08:05:53.335Z</time></trkpt><trkpt lat="43.8567991" lon="7.8561005"><ele>22.0</ele><time>2026-04-26T08:05:54.335Z</time></trkpt><trkpt lat="43.8569358" lon="7.8560099"><ele>22.0</ele><time>2026-04-26T08:05:55.336Z</time></trkpt><trkpt lat="43.8570732" lon="7.85592"><ele>22.333333333333332</ele><time>2026-04-26T08:05:56.334Z</time></trkpt><trkpt lat="43.8572105" lon="7.8558357"><ele>22.666666666666668</ele><time>2026-04-26T08:05:57.334Z</time></trkpt><trkpt lat="43.8573523" lon="7.8557502"><ele>23.0</ele><time>2026-04-26T08:05:58.335Z</time></trkpt><trkpt lat="43.8574907" lon="7.8556787"><ele>23.25</ele><time>2026-04-26T08:05:59.336Z</time></trkpt><trkpt lat="43.8576282" lon="7.8556125"><ele>23.5</ele><time>2026-04-26T08:06:00.335Z</time></trkpt><trkpt lat="43.8577644" lon="7.8555595"><ele>23.75</ele><time>2026-04-26T08:06:01.334Z</time></trkpt><trkpt lat="43.8579037" lon="7.8555001"><ele>24.0</ele><time>2026-04-26T08:06:02.335Z</time></trkpt><trkpt lat="43.8580361" lon="7.8554531"><ele>24.0</ele><time>2026-04-26T08:06:03.336Z</time></trkpt><trkpt lat="43.8581665" lon="7.8554014"><ele>24.0</ele><time>2026-04-26T08:06:04.335Z</time></trkpt><trkpt lat="43.8582982" lon="7.8553492"><ele>24.0</ele><time>2026-04-26T08:06:05.335Z</time></trkpt><trkpt lat="43.8584369" lon="7.8552931"><ele>24.0</ele><time>2026-04-26T08:06:06.335Z</time></trkpt><trkpt lat="43.8585727" lon="7.8552417"><ele>24.0</ele><time>2026-04-26T08:06:07.334Z</time></trkpt><trkpt lat="43.8587073" lon="7.8551947"><ele>24.0</ele><time>2026-04-26T08:06:08.335Z</time></trkpt><trkpt lat="43.8588369" lon="7.8551461"><ele>24.0</ele><time>2026-04-26T08:06:09.335Z</time></trkpt><trkpt lat="43.8589612" lon="7.8550973"><ele>24.0</ele><time>2026-04-26T08:06:10.336Z</time></trkpt><trkpt lat="43.859083" lon="7.8550515"><ele>24.2</ele><time>2026-04-26T08:06:11.335Z</time></trkpt><trkpt lat="43.8591982" lon="7.855007"><ele>24.4</ele><time>2026-04-26T08:06:12.335Z</time></trkpt><trkpt lat="43.8593071" lon="7.8549685"><ele>24.6</ele><time>2026-04-26T08:06:13.334Z</time></trkpt><trkpt lat="43.8594133" lon="7.8549256"><ele>24.8</ele><time>2026-04-26T08:06:14.335Z</time></trkpt><trkpt lat="43.8595136" lon="7.8548883"><ele>25.0</ele><time>2026-04-26T08:06:15.335Z</time></trkpt><trkpt lat="43.8596144" lon="7.8548374"><ele>25.0</ele><time>2026-04-26T08:06:16.335Z</time></trkpt><trkpt lat="43.8597071" lon="7.8547717"><ele>25.0</ele><time>2026-04-26T08:06:17.337Z</time></trkpt><trkpt lat="43.8597923" lon="7.8546975"><ele>25.0</ele><time>2026-04-26T08:06:18.335Z</time></trkpt><trkpt lat="43.8598686" lon="7.8546203"><ele>25.0</ele><time>2026-04-26T08:06:19.336Z</time></trkpt><trkpt lat="43.8599451" lon="7.8545469"><ele>25.0</ele><time>2026-04-26T08:06:20.334Z</time></trkpt><trkpt lat="43.860033" lon="7.8544929"><ele>25.500000000000004</ele><time>2026-04-26T08:06:21.334Z</time></trkpt><trkpt lat="43.860133" lon="7.8544647"><ele>26.0</ele><time>2026-04-26T08:06:22.335Z</time></trkpt><trkpt lat="43.8602247" lon="7.8544485"><ele>26.5</ele><time>2026-04-26T08:06:23.334Z</time></trkpt><trkpt lat="43.8603049" lon="7.8544322"><ele>27.0</ele><time>2026-04-26T08:06:24.334Z</time></trkpt><trkpt lat="43.8603855" lon="7.8544151"><ele>27.500000000000004</ele><time>2026-04-26T08:06:25.335Z</time></trkpt><trkpt lat="43.8604633" lon="7.8543999"><ele>28.0</ele><time>2026-04-26T08:06:26.336Z</time></trkpt><trkpt lat="43.860542" lon="7.8543847"><ele>28.0</ele><time>2026-04-26T08:06:27.335Z</time></trkpt><trkpt lat="43.8606191" lon="7.8543684"><ele>27.999999999999996</ele><time>2026-04-26T08:06:28.335Z</time></trkpt><trkpt lat="43.8607528" lon="7.8543206"><ele>27.999999999999996</ele><time>2026-04-26T08:06:30.336Z</time></trkpt><trkpt lat="43.8608296" lon="7.8542929"><ele>28.0</ele><time>2026-04-26T08:06:31.334Z</time></trkpt><trkpt lat="43.8609116" lon="7.854279"><ele>28.0</ele><time>2026-04-26T08:06:32.334Z</time></trkpt><trkpt lat="43.8609906" lon="7.8542702"><ele>28.833333333333336</ele><time>2026-04-26T08:06:33.336Z</time></trkpt><trkpt lat="43.861075" lon="7.8542496"><ele>29.666666666666668</ele><time>2026-04-26T08:06:34.335Z</time></trkpt><trkpt lat="43.8611556" lon="7.8542296"><ele>30.5</ele><time>2026-04-26T08:06:35.336Z</time></trkpt><trkpt lat="43.8612494" lon="7.8542017"><ele>31.333333333333336</ele><time>2026-04-26T08:06:36.335Z</time></trkpt><trkpt lat="43.8613356" lon="7.8541772"><ele>32.166666666666664</ele><time>2026-04-26T08:06:37.335Z</time></trkpt><trkpt lat="43.8614188" lon="7.8541593"><ele>33.0</ele><time>2026-04-26T08:06:38.335Z</time></trkpt><trkpt lat="43.8614961" lon="7.85414"><ele>33.0</ele><time>2026-04-26T08:06:39.335Z</time></trkpt><trkpt lat="43.8615753" lon="7.8541201"><ele>33.0</ele><time>2026-04-26T08:06:40.336Z</time></trkpt><trkpt lat="43.8616521" lon="7.8541055"><ele>33.0</ele><time>2026-04-26T08:06:41.336Z</time></trkpt><trkpt lat="43.8617231" lon="7.8540854"><ele>33.0</ele><time>2026-04-26T08:06:42.336Z</time></trkpt><trkpt lat="43.8618014" lon="7.8540611"><ele>33.0</ele><time>2026-04-26T08:06:43.335Z</time></trkpt><trkpt lat="43.8618767" lon="7.8540506"><ele>33.0</ele><time>2026-04-26T08:06:44.334Z</time></trkpt><trkpt lat="43.8619543" lon="7.8540245"><ele>32.833333333333336</ele><time>2026-04-26T08:06:45.336Z</time></trkpt><trkpt lat="43.8620382" lon="7.8540068"><ele>32.666666666666664</ele><time>2026-04-26T08:06:46.335Z</time></trkpt><trkpt lat="43.8621246" lon="7.853979"><ele>32.5</ele><time>2026-04-26T08:06:47.336Z</time></trkpt><trkpt lat="43.8622072" lon="7.8539601"><ele>32.33333333333333</ele><time>2026-04-26T08:06:48.336Z</time></trkpt><trkpt lat="43.8622871" lon="7.8539422"><ele>32.166666666666664</ele><time>2026-04-26T08:06:49.334Z</time></trkpt><trkpt lat="43.8623702" lon="7.8539145"><ele>32.0</ele><time>2026-04-26T08:06:50.335Z</time></trkpt><trkpt lat="43.862453" lon="7.8538964"><ele>31.999999999999996</ele><time>2026-04-26T08:06:51.335Z</time></trkpt><trkpt lat="43.8625351" lon="7.8538688"><ele>32.0</ele><time>2026-04-26T08:06:52.334Z</time></trkpt><trkpt lat="43.8626203" lon="7.853848"><ele>32.0</ele><time>2026-04-26T08:06:53.336Z</time></trkpt><trkpt lat="43.8627092" lon="7.8538261"><ele>32.0</ele><time>2026-04-26T08:06:54.336Z</time></trkpt><trkpt lat="43.8627952" lon="7.8538042"><ele>31.999999999999996</ele><time>2026-04-26T08:06:55.334Z</time></trkpt><trkpt lat="43.8628796" lon="7.8537836"><ele>32.0</ele><time>2026-04-26T08:06:56.335Z</time></trkpt><trkpt lat="43.8629699" lon="7.8537662"><ele>31.400000000000002</ele><time>2026-04-26T08:06:57.336Z</time></trkpt><trkpt lat="43.8630674" lon="7.8537418"><ele>30.800000000000004</ele><time>2026-04-26T08:06:58.336Z</time></trkpt><trkpt lat="43.8631568" lon="7.8537195"><ele>30.2</ele><time>2026-04-26T08:06:59.337Z</time></trkpt><trkpt lat="43.8632449" lon="7.8536973"><ele>29.6</ele><time>2026-04-26T08:07:00.335Z</time></trkpt><trkpt lat="43.8633315" lon="7.8536748"><ele>29.0</ele><time>2026-04-26T08:07:01.336Z</time></trkpt><trkpt lat="43.8634189" lon="7.8536495"><ele>29.0</ele><time>2026-04-26T08:07:02.336Z</time></trkpt><trkpt lat="43.8635153" lon="7.8536331"><ele>29.0</ele><time>2026-04-26T08:07:03.335Z</time></trkpt><trkpt lat="43.8636037" lon="7.8536359"><ele>29.0</ele><time>2026-04-26T08:07:04.335Z</time></trkpt><trkpt lat="43.8636943" lon="7.8536431"><ele>29.0</ele><time>2026-04-26T08:07:05.335Z</time></trkpt><trkpt lat="43.8637827" lon="7.8536496"><ele>29.0</ele><time>2026-04-26T08:07:06.336Z</time></trkpt><trkpt lat="43.8638744" lon="7.8536654"><ele>29.0</ele><time>2026-04-26T08:07:07.335Z</time></trkpt><trkpt lat="43.8639683" lon="7.853677"><ele>29.0</ele><time>2026-04-26T08:07:08.334Z</time></trkpt><trkpt lat="43.8640638" lon="7.8537034"><ele>29.0</ele><time>2026-04-26T08:07:09.334Z</time></trkpt><trkpt lat="43.8641616" lon="7.853736"><ele>29.0</ele><time>2026-04-26T08:07:10.335Z</time></trkpt><trkpt lat="43.8642663" lon="7.8537616"><ele>29.0</ele><time>2026-04-26T08:07:11.335Z</time></trkpt><trkpt lat="43.8643748" lon="7.853773"><ele>29.25</ele><time>2026-04-26T08:07:12.336Z</time></trkpt><trkpt lat="43.8644881" lon="7.8537844"><ele>29.5</ele><time>2026-04-26T08:07:13.335Z</time></trkpt><trkpt lat="43.8646089" lon="7.8537772"><ele>29.75</ele><time>2026-04-26T08:07:14.336Z</time></trkpt><trkpt lat="43.8647306" lon="7.8537612"><ele>30.0</ele><time>2026-04-26T08:07:15.335Z</time></trkpt><trkpt lat="43.864853" lon="7.8537338"><ele>30.0</ele><time>2026-04-26T08:07:16.333Z</time></trkpt><trkpt lat="43.8649773" lon="7.8537064"><ele>30.0</ele><time>2026-04-26T08:07:17.336Z</time></trkpt><trkpt lat="43.865098" lon="7.8536832"><ele>30.0</ele><time>2026-04-26T08:07:18.335Z</time></trkpt><trkpt lat="43.8652127" lon="7.8536665"><ele>30.0</ele><time>2026-04-26T08:07:19.334Z</time></trkpt><trkpt lat="43.8653262" lon="7.8536812"><ele>30.6</ele><time>2026-04-26T08:07:20.335Z</time></trkpt><trkpt lat="43.8654372" lon="7.8537153"><ele>31.2</ele><time>2026-04-26T08:07:21.334Z</time></trkpt><trkpt lat="43.8655442" lon="7.853752"><ele>31.799999999999997</ele><time>2026-04-26T08:07:22.335Z</time></trkpt><trkpt lat="43.8656517" lon="7.8537922"><ele>32.4</ele><time>2026-04-26T08:07:23.336Z</time></trkpt><trkpt lat="43.865758" lon="7.8538323"><ele>33.0</ele><time>2026-04-26T08:07:24.336Z</time></trkpt><trkpt lat="43.8658623" lon="7.8538799"><ele>34.0</ele><time>2026-04-26T08:07:25.335Z</time></trkpt><trkpt lat="43.8659666" lon="7.853925"><ele>35.0</ele><time>2026-04-26T08:07:26.334Z</time></trkpt><trkpt lat="43.8660723" lon="7.8539788"><ele>36.0</ele><time>2026-04-26T08:07:27.334Z</time></trkpt><trkpt lat="43.8661814" lon="7.8540359"><ele>37.0</ele><time>2026-04-26T08:07:28.335Z</time></trkpt><trkpt lat="43.866291" lon="7.8541051"><ele>37.0</ele><time>2026-04-26T08:07:29.336Z</time></trkpt><trkpt lat="43.8663988" lon="7.8541756"><ele>37.0</ele><time>2026-04-26T08:07:30.336Z</time></trkpt><trkpt lat="43.8665083" lon="7.8542503"><ele>37.0</ele><time>2026-04-26T08:07:31.335Z</time></trkpt><trkpt lat="43.8666201" lon="7.8543248"><ele>37.0</ele><time>2026-04-26T08:07:32.336Z</time></trkpt><trkpt lat="43.8667288" lon="7.8544037"><ele>37.0</ele><time>2026-04-26T08:07:33.334Z</time></trkpt><trkpt lat="43.866845" lon="7.8544816"><ele>37.0</ele><time>2026-04-26T08:07:34.336Z</time></trkpt><trkpt lat="43.8669587" lon="7.8545532"><ele>37.0</ele><time>2026-04-26T08:07:35.335Z</time></trkpt><trkpt lat="43.867071" lon="7.8546134"><ele>37.0</ele><time>2026-04-26T08:07:36.336Z</time></trkpt><trkpt lat="43.8671792" lon="7.8546662"><ele>37.0</ele><time>2026-04-26T08:07:37.336Z</time></trkpt><trkpt lat="43.8672853" lon="7.8547056"><ele>37.0</ele><time>2026-04-26T08:07:38.336Z</time></trkpt><trkpt lat="43.8673907" lon="7.8547379"><ele>37.0</ele><time>2026-04-26T08:07:39.335Z</time></trkpt><trkpt lat="43.8674946" lon="7.8547729"><ele>37.0</ele><time>2026-04-26T08:07:40.335Z</time></trkpt><trkpt lat="43.8675985" lon="7.8547963"><ele>37.0</ele><time>2026-04-26T08:07:41.334Z</time></trkpt><trkpt lat="43.8677083" lon="7.8548131"><ele>38.5</ele><time>2026-04-26T08:07:42.335Z</time></trkpt><trkpt lat="43.8678231" lon="7.8548171"><ele>40.0</ele><time>2026-04-26T08:07:43.335Z</time></trkpt><trkpt lat="43.8679354" lon="7.854816"><ele>41.5</ele><time>2026-04-26T08:07:44.334Z</time></trkpt><trkpt lat="43.8680671" lon="7.8548093"><ele>43.0</ele><time>2026-04-26T08:07:45.336Z</time></trkpt><trkpt lat="43.8682047" lon="7.854808"><ele>43.0</ele><time>2026-04-26T08:07:46.335Z</time></trkpt><trkpt lat="43.868339" lon="7.8548111"><ele>43.0</ele><time>2026-04-26T08:07:47.335Z</time></trkpt><trkpt lat="43.8684664" lon="7.8548492"><ele>43.0</ele><time>2026-04-26T08:07:48.336Z</time></trkpt><trkpt lat="43.8686001" lon="7.8548888"><ele>43.0</ele><time>2026-04-26T08:07:49.336Z</time></trkpt><trkpt lat="43.868738" lon="7.8549426"><ele>41.75</ele><time>2026-04-26T08:07:50.336Z</time></trkpt><trkpt lat="43.8688702" lon="7.8550035"><ele>40.5</ele><time>2026-04-26T08:07:51.337Z</time></trkpt><trkpt lat="43.8689978" lon="7.8550678"><ele>39.25</ele><time>2026-04-26T08:07:52.336Z</time></trkpt><trkpt lat="43.8691282" lon="7.8551315"><ele>38.0</ele><time>2026-04-26T08:07:53.336Z</time></trkpt><trkpt lat="43.8692513" lon="7.8551988"><ele>40.0</ele><time>2026-04-26T08:07:54.335Z</time></trkpt><trkpt lat="43.8693748" lon="7.8552658"><ele>42.0</ele><time>2026-04-26T08:07:55.335Z</time></trkpt><trkpt lat="43.8695" lon="7.855341"><ele>44.0</ele><time>2026-04-26T08:07:56.335Z</time></trkpt><trkpt lat="43.8696376" lon="7.8554004"><ele>46.0</ele><time>2026-04-26T08:07:57.335Z</time></trkpt><trkpt lat="43.8697889" lon="7.8554529"><ele>46.0</ele><time>2026-04-26T08:07:58.335Z</time></trkpt><trkpt lat="43.8699404" lon="7.855503"><ele>46.0</ele><time>2026-04-26T08:07:59.334Z</time></trkpt><trkpt lat="43.8700917" lon="7.8555515"><ele>46.0</ele><time>2026-04-26T08:08:00.335Z</time></trkpt><trkpt lat="43.8702437" lon="7.8555991"><ele>46.0</ele><time>2026-04-26T08:08:01.334Z</time></trkpt><trkpt lat="43.8703873" lon="7.8556468"><ele>46.0</ele><time>2026-04-26T08:08:02.336Z</time></trkpt><trkpt lat="43.8705296" lon="7.8556942"><ele>46.0</ele><time>2026-04-26T08:08:03.334Z</time></trkpt><trkpt lat="43.8706701" lon="7.8557425"><ele>46.0</ele><time>2026-04-26T08:08:04.335Z</time></trkpt><trkpt lat="43.8708081" lon="7.8557729"><ele>46.0</ele><time>2026-04-26T08:08:05.335Z</time></trkpt><trkpt lat="43.8709513" lon="7.8557794"><ele>46.0</ele><time>2026-04-26T08:08:06.336Z</time></trkpt><trkpt lat="43.8711077" lon="7.8557526"><ele>46.0</ele><time>2026-04-26T08:08:07.334Z</time></trkpt><trkpt lat="43.871264" lon="7.8557098"><ele>46.0</ele><time>2026-04-26T08:08:08.335Z</time></trkpt><trkpt lat="43.871419" lon="7.855656"><ele>46.0</ele><time>2026-04-26T08:08:09.335Z</time></trkpt><trkpt lat="43.8715767" lon="7.8556032"><ele>46.0</ele><time>2026-04-26T08:08:10.335Z</time></trkpt><trkpt lat="43.8717394" lon="7.8555646"><ele>46.0</ele><time>2026-04-26T08:08:11.336Z</time></trkpt><trkpt lat="43.8719012" lon="7.8555327"><ele>46.0</ele><time>2026-04-26T08:08:12.335Z</time></trkpt><trkpt lat="43.8720653" lon="7.8555429"><ele>46.0</ele><time>2026-04-26T08:08:13.335Z</time></trkpt><trkpt lat="43.8722286" lon="7.8555435"><ele>46.0</ele><time>2026-04-26T08:08:14.336Z</time></trkpt><trkpt lat="43.8723901" lon="7.8555156"><ele>46.0</ele><time>2026-04-26T08:08:15.335Z</time></trkpt><trkpt lat="43.8725531" lon="7.8554763"><ele>46.0</ele><time>2026-04-26T08:08:16.335Z</time></trkpt><trkpt lat="43.8727004" lon="7.8553966"><ele>45.5</ele><time>2026-04-26T08:08:17.335Z</time></trkpt><trkpt lat="43.872849" lon="7.8553371"><ele>45.0</ele><time>2026-04-26T08:08:18.334Z</time></trkpt><trkpt lat="43.8729905" lon="7.8553116"><ele>44.5</ele><time>2026-04-26T08:08:19.334Z</time></trkpt><trkpt lat="43.8731258" lon="7.8552898"><ele>44.0</ele><time>2026-04-26T08:08:20.334Z</time></trkpt><trkpt lat="43.8732588" lon="7.8552613"><ele>44.0</ele><time>2026-04-26T08:08:21.335Z</time></trkpt><trkpt lat="43.8733879" lon="7.85522"><ele>44.0</ele><time>2026-04-26T08:08:22.334Z</time></trkpt><trkpt lat="43.8735049" lon="7.8551511"><ele>44.0</ele><time>2026-04-26T08:08:23.336Z</time></trkpt><trkpt lat="43.8736135" lon="7.8550666"><ele>44.0</ele><time>2026-04-26T08:08:24.335Z</time></trkpt><trkpt lat="43.873723" lon="7.8549819"><ele>44.5</ele><time>2026-04-26T08:08:25.335Z</time></trkpt><trkpt lat="43.8738328" lon="7.85489"><ele>45.0</ele><time>2026-04-26T08:08:26.337Z</time></trkpt><trkpt lat="43.8739444" lon="7.8547985"><ele>45.5</ele><time>2026-04-26T08:08:27.336Z</time></trkpt><trkpt lat="43.8740534" lon="7.8547065"><ele>46.0</ele><time>2026-04-26T08:08:28.335Z</time></trkpt><trkpt lat="43.8741633" lon="7.8546193"><ele>46.0</ele><time>2026-04-26T08:08:29.336Z</time></trkpt><trkpt lat="43.8742589" lon="7.8545364"><ele>46.0</ele><time>2026-04-26T08:08:30.335Z</time></trkpt><trkpt lat="43.8743627" lon="7.8544531"><ele>46.0</ele><time>2026-04-26T08:08:31.337Z</time></trkpt><trkpt lat="43.8744747" lon="7.8543804"><ele>46.0</ele><time>2026-04-26T08:08:32.334Z</time></trkpt><trkpt lat="43.8745864" lon="7.854321"><ele>48.75</ele><time>2026-04-26T08:08:33.335Z</time></trkpt><trkpt lat="43.8747026" lon="7.8542678"><ele>51.5</ele><time>2026-04-26T08:08:34.335Z</time></trkpt><trkpt lat="43.874825" lon="7.8542121"><ele>54.25</ele><time>2026-04-26T08:08:35.336Z</time></trkpt><trkpt lat="43.8749436" lon="7.8541614"><ele>57.0</ele><time>2026-04-26T08:08:36.337Z</time></trkpt><trkpt lat="43.8750629" lon="7.8541027"><ele>55.75</ele><time>2026-04-26T08:08:37.336Z</time></trkpt><trkpt lat="43.8751818" lon="7.8540283"><ele>54.5</ele><time>2026-04-26T08:08:38.335Z</time></trkpt><trkpt lat="43.875296" lon="7.8539188"><ele>53.25</ele><time>2026-04-26T08:08:39.334Z</time></trkpt><trkpt lat="43.8753968" lon="7.8537782"><ele>52.0</ele><time>2026-04-26T08:08:40.335Z</time></trkpt><trkpt lat="43.8754975" lon="7.8536328"><ele>52.0</ele><time>2026-04-26T08:08:41.336Z</time></trkpt><trkpt lat="43.875591" lon="7.8534896"><ele>52.0</ele><time>2026-04-26T08:08:42.336Z</time></trkpt><trkpt lat="43.8756798" lon="7.8533551"><ele>52.0</ele><time>2026-04-26T08:08:43.335Z</time></trkpt><trkpt lat="43.8757573" lon="7.8532253"><ele>52.0</ele><time>2026-04-26T08:08:44.336Z</time></trkpt><trkpt lat="43.8758416" lon="7.8530895"><ele>52.25</ele><time>2026-04-26T08:08:45.336Z</time></trkpt><trkpt lat="43.8759212" lon="7.8529504"><ele>52.5</ele><time>2026-04-26T08:08:46.335Z</time></trkpt><trkpt lat="43.8759921" lon="7.8528219"><ele>52.75</ele><time>2026-04-26T08:08:47.335Z</time></trkpt><trkpt lat="43.8760607" lon="7.8526998"><ele>53.0</ele><time>2026-04-26T08:08:48.336Z</time></trkpt><trkpt lat="43.8761283" lon="7.852571"><ele>53.0</ele><time>2026-04-26T08:08:49.336Z</time></trkpt><trkpt lat="43.876192" lon="7.8524335"><ele>53.0</ele><time>2026-04-26T08:08:50.335Z</time></trkpt><trkpt lat="43.876258" lon="7.8522912"><ele>53.0</ele><time>2026-04-26T08:08:51.336Z</time></trkpt><trkpt lat="43.8763313" lon="7.8521374"><ele>53.0</ele><time>2026-04-26T08:08:52.336Z</time></trkpt><trkpt lat="43.8764171" lon="7.851973"><ele>53.0</ele><time>2026-04-26T08:08:53.336Z</time></trkpt><trkpt lat="43.8765041" lon="7.8518048"><ele>53.0</ele><time>2026-04-26T08:08:54.335Z</time></trkpt><trkpt lat="43.8765945" lon="7.8516321"><ele>53.0</ele><time>2026-04-26T08:08:55.334Z</time></trkpt><trkpt lat="43.8766861" lon="7.8514404"><ele>53.333333333333336</ele><time>2026-04-26T08:08:56.335Z</time></trkpt><trkpt lat="43.8767806" lon="7.8512179"><ele>53.66666666666667</ele><time>2026-04-26T08:08:57.336Z</time></trkpt><trkpt lat="43.8768709" lon="7.8509854"><ele>54.0</ele><time>2026-04-26T08:08:58.336Z</time></trkpt><trkpt lat="43.8769553" lon="7.8507628"><ele>54.0</ele><time>2026-04-26T08:08:59.336Z</time></trkpt><trkpt lat="43.8770414" lon="7.8505402"><ele>54.0</ele><time>2026-04-26T08:09:00.335Z</time></trkpt><trkpt lat="43.8771301" lon="7.8503221"><ele>54.0</ele><time>2026-04-26T08:09:01.336Z</time></trkpt><trkpt lat="43.8772225" lon="7.8501099"><ele>54.33333333333333</ele><time>2026-04-26T08:09:02.336Z</time></trkpt><trkpt lat="43.8773335" lon="7.8499013"><ele>54.666666666666664</ele><time>2026-04-26T08:09:03.335Z</time></trkpt><trkpt lat="43.8774523" lon="7.8496935"><ele>55.0</ele><time>2026-04-26T08:09:04.337Z</time></trkpt><trkpt lat="43.877568" lon="7.849489"><ele>56.0</ele><time>2026-04-26T08:09:05.335Z</time></trkpt><trkpt lat="43.877681" lon="7.8492896"><ele>57.0</ele><time>2026-04-26T08:09:06.335Z</time></trkpt><trkpt lat="43.8777956" lon="7.8490993"><ele>58.0</ele><time>2026-04-26T08:09:07.336Z</time></trkpt><trkpt lat="43.8779125" lon="7.8489127"><ele>58.0</ele><time>2026-04-26T08:09:08.336Z</time></trkpt><trkpt lat="43.878051" lon="7.8487415"><ele>58.0</ele><time>2026-04-26T08:09:09.335Z</time></trkpt><trkpt lat="43.8781954" lon="7.8485768"><ele>58.0</ele><time>2026-04-26T08:09:10.336Z</time></trkpt><trkpt lat="43.8783302" lon="7.8484207"><ele>59.0</ele><time>2026-04-26T08:09:11.335Z</time></trkpt><trkpt lat="43.8784648" lon="7.848267"><ele>60.0</ele><time>2026-04-26T08:09:12.335Z</time></trkpt><trkpt lat="43.8785905" lon="7.8481115"><ele>61.0</ele><time>2026-04-26T08:09:13.335Z</time></trkpt><trkpt lat="43.8787088" lon="7.847956"><ele>61.0</ele><time>2026-04-26T08:09:14.335Z</time></trkpt><trkpt lat="43.8788206" lon="7.8478057"><ele>61.0</ele><time>2026-04-26T08:09:15.335Z</time></trkpt><trkpt lat="43.8789324" lon="7.8476671"><ele>61.0</ele><time>2026-04-26T08:09:16.335Z</time></trkpt><trkpt lat="43.8790692" lon="7.8475487"><ele>61.666666666666664</ele><time>2026-04-26T08:09:17.335Z</time></trkpt><trkpt lat="43.8792226" lon="7.8474465"><ele>62.33333333333333</ele><time>2026-04-26T08:09:18.336Z</time></trkpt><trkpt lat="43.8793769" lon="7.8473466"><ele>63.0</ele><time>2026-04-26T08:09:19.336Z</time></trkpt><trkpt lat="43.8795335" lon="7.8472534"><ele>63.0</ele><time>2026-04-26T08:09:20.336Z</time></trkpt><trkpt lat="43.8796881" lon="7.8471647"><ele>63.0</ele><time>2026-04-26T08:09:21.337Z</time></trkpt><trkpt lat="43.8798467" lon="7.8470891"><ele>63.0</ele><time>2026-04-26T08:09:22.336Z</time></trkpt><trkpt lat="43.8800106" lon="7.8470346"><ele>64.33333333333333</ele><time>2026-04-26T08:09:23.337Z</time></trkpt><trkpt lat="43.8801751" lon="7.8469951"><ele>65.66666666666666</ele><time>2026-04-26T08:09:24.336Z</time></trkpt><trkpt lat="43.8803454" lon="7.8469633"><ele>67.0</ele><time>2026-04-26T08:09:25.336Z</time></trkpt><trkpt lat="43.8805169" lon="7.8469496"><ele>67.0</ele><time>2026-04-26T08:09:26.336Z</time></trkpt><trkpt lat="43.8806922" lon="7.8469658"><ele>67.0</ele><time>2026-04-26T08:09:27.335Z</time></trkpt><trkpt lat="43.8808627" lon="7.8470058"><ele>67.0</ele><time>2026-04-26T08:09:28.335Z</time></trkpt><trkpt lat="43.8810367" lon="7.8470603"><ele>66.0</ele><time>2026-04-26T08:09:29.337Z</time></trkpt><trkpt lat="43.8812024" lon="7.8471105"><ele>65.0</ele><time>2026-04-26T08:09:30.335Z</time></trkpt><trkpt lat="43.8813718" lon="7.8471536"><ele>64.0</ele><time>2026-04-26T08:09:31.336Z</time></trkpt><trkpt lat="43.8815402" lon="7.8471769"><ele>64.0</ele><time>2026-04-26T08:09:32.335Z</time></trkpt><trkpt lat="43.8816973" lon="7.8471876"><ele>64.0</ele><time>2026-04-26T08:09:33.335Z</time></trkpt><trkpt lat="43.8818397" lon="7.8471949"><ele>64.0</ele><time>2026-04-26T08:09:34.336Z</time></trkpt><trkpt lat="43.8819725" lon="7.8471863"><ele>64.0</ele><time>2026-04-26T08:09:35.335Z</time></trkpt><trkpt lat="43.8820888" lon="7.8471473"><ele>64.8</ele><time>2026-04-26T08:09:36.336Z</time></trkpt><trkpt lat="43.8821878" lon="7.84707"><ele>65.60000000000001</ele><time>2026-04-26T08:09:37.335Z</time></trkpt><trkpt lat="43.88226" lon="7.8469599"><ele>66.4</ele><time>2026-04-26T08:09:38.336Z</time></trkpt><trkpt lat="43.8823265" lon="7.8468434"><ele>67.2</ele><time>2026-04-26T08:09:39.336Z</time></trkpt><trkpt lat="43.8824021" lon="7.8467565"><ele>68.0</ele><time>2026-04-26T08:09:40.336Z</time></trkpt><trkpt lat="43.8824834" lon="7.8466924"><ele>68.0</ele><time>2026-04-26T08:09:41.336Z</time></trkpt><trkpt lat="43.882586" lon="7.8467043"><ele>68.0</ele><time>2026-04-26T08:09:42.334Z</time></trkpt><trkpt lat="43.8826919" lon="7.8467256"><ele>68.0</ele><time>2026-04-26T08:09:43.336Z</time></trkpt><trkpt lat="43.8827904" lon="7.8467211"><ele>68.0</ele><time>2026-04-26T08:09:44.336Z</time></trkpt><trkpt lat="43.8828771" lon="7.8466793"><ele>68.0</ele><time>2026-04-26T08:09:45.335Z</time></trkpt><trkpt lat="43.8829409" lon="7.8465995"><ele>71.4</ele><time>2026-04-26T08:09:46.336Z</time></trkpt><trkpt lat="43.8829864" lon="7.8464817"><ele>74.8</ele><time>2026-04-26T08:09:47.336Z</time></trkpt><trkpt lat="43.8830169" lon="7.8463425"><ele>78.2</ele><time>2026-04-26T08:09:48.335Z</time></trkpt><trkpt lat="43.8830369" lon="7.8461829"><ele>81.6</ele><time>2026-04-26T08:09:49.336Z</time></trkpt><trkpt lat="43.8830661" lon="7.8460211"><ele>85.0</ele><time>2026-04-26T08:09:50.335Z</time></trkpt><trkpt lat="43.8831021" lon="7.8458564"><ele>85.0</ele><time>2026-04-26T08:09:51.336Z</time></trkpt><trkpt lat="43.883145" lon="7.8456936"><ele>85.0</ele><time>2026-04-26T08:09:52.335Z</time></trkpt><trkpt lat="43.8831924" lon="7.8455289"><ele>85.0</ele><time>2026-04-26T08:09:53.337Z</time></trkpt><trkpt lat="43.8832396" lon="7.8453636"><ele>85.0</ele><time>2026-04-26T08:09:54.335Z</time></trkpt><trkpt lat="43.8832879" lon="7.8451985"><ele>83.5</ele><time>2026-04-26T08:09:55.337Z</time></trkpt><trkpt lat="43.8833329" lon="7.8450359"><ele>82.0</ele><time>2026-04-26T08:09:56.335Z</time></trkpt><trkpt lat="43.8833819" lon="7.8448727"><ele>80.5</ele><time>2026-04-26T08:09:57.335Z</time></trkpt><trkpt lat="43.8834266" lon="7.844714"><ele>79.0</ele><time>2026-04-26T08:09:58.335Z</time></trkpt><trkpt lat="43.8834735" lon="7.8445589"><ele>84.75</ele><time>2026-04-26T08:09:59.336Z</time></trkpt><trkpt lat="43.8835378" lon="7.8444117"><ele>90.5</ele><time>2026-04-26T08:10:00.336Z</time></trkpt><trkpt lat="43.883617" lon="7.8442613"><ele>96.25</ele><time>2026-04-26T08:10:01.335Z</time></trkpt><trkpt lat="43.8837044" lon="7.8441104"><ele>102.0</ele><time>2026-04-26T08:10:02.335Z</time></trkpt><trkpt lat="43.8837912" lon="7.8439602"><ele>102.0</ele><time>2026-04-26T08:10:03.336Z</time></trkpt><trkpt lat="43.8838756" lon="7.8438082"><ele>102.0</ele><time>2026-04-26T08:10:04.336Z</time></trkpt><trkpt lat="43.8839573" lon="7.8436527"><ele>102.0</ele><time>2026-04-26T08:10:05.335Z</time></trkpt><trkpt lat="43.8840474" lon="7.8435103"><ele>102.0</ele><time>2026-04-26T08:10:06.336Z</time></trkpt><trkpt lat="43.8841359" lon="7.8433773"><ele>98.0</ele><time>2026-04-26T08:10:07.335Z</time></trkpt><trkpt lat="43.8842207" lon="7.8432568"><ele>94.0</ele><time>2026-04-26T08:10:08.335Z</time></trkpt><trkpt lat="43.8843124" lon="7.8431548"><ele>90.0</ele><time>2026-04-26T08:10:09.335Z</time></trkpt><trkpt lat="43.8844182" lon="7.8430861"><ele>86.0</ele><time>2026-04-26T08:10:10.336Z</time></trkpt><trkpt lat="43.8845254" lon="7.8430618"><ele>86.0</ele><time>2026-04-26T08:10:11.335Z</time></trkpt><trkpt lat="43.8846283" lon="7.8430812"><ele>86.0</ele><time>2026-04-26T08:10:12.336Z</time></trkpt><trkpt lat="43.8847273" lon="7.8431431"><ele>86.0</ele><time>2026-04-26T08:10:13.336Z</time></trkpt><trkpt lat="43.8848086" lon="7.8432433"><ele>86.0</ele><time>2026-04-26T08:10:14.336Z</time></trkpt><trkpt lat="43.8848725" lon="7.8433719"><ele>86.0</ele><time>2026-04-26T08:10:15.335Z</time></trkpt><trkpt lat="43.884925" lon="7.8435087"><ele>87.0</ele><time>2026-04-26T08:10:16.335Z</time></trkpt><trkpt lat="43.8849706" lon="7.8436457"><ele>88.0</ele><time>2026-04-26T08:10:17.335Z</time></trkpt><trkpt lat="43.8850243" lon="7.8437468"><ele>89.0</ele><time>2026-04-26T08:10:18.335Z</time></trkpt><trkpt lat="43.8850905" lon="7.8438262"><ele>90.0</ele><time>2026-04-26T08:10:19.336Z</time></trkpt><trkpt lat="43.8851666" lon="7.8438669"><ele>91.0</ele><time>2026-04-26T08:10:20.337Z</time></trkpt><trkpt lat="43.8852442" lon="7.8438672"><ele>92.0</ele><time>2026-04-26T08:10:21.337Z</time></trkpt><trkpt lat="43.8853273" lon="7.8438413"><ele>94.33333333333334</ele><time>2026-04-26T08:10:22.336Z</time></trkpt><trkpt lat="43.885412" lon="7.843824"><ele>96.66666666666667</ele><time>2026-04-26T08:10:23.336Z</time></trkpt><trkpt lat="43.8854858" lon="7.843852"><ele>99.0</ele><time>2026-04-26T08:10:24.336Z</time></trkpt><trkpt lat="43.885541" lon="7.843923"><ele>101.33333333333334</ele><time>2026-04-26T08:10:25.335Z</time></trkpt><trkpt lat="43.8855786" lon="7.8440283"><ele>103.66666666666667</ele><time>2026-04-26T08:10:26.336Z</time></trkpt><trkpt lat="43.8856049" lon="7.8441542"><ele>106.0</ele><time>2026-04-26T08:10:27.335Z</time></trkpt><trkpt lat="43.8856279" lon="7.8442877"><ele>103.8</ele><time>2026-04-26T08:10:28.336Z</time></trkpt><trkpt lat="43.8856594" lon="7.8444216"><ele>101.6</ele><time>2026-04-26T08:10:29.336Z</time></trkpt><trkpt lat="43.8856997" lon="7.8445514"><ele>99.4</ele><time>2026-04-26T08:10:30.335Z</time></trkpt><trkpt lat="43.8857519" lon="7.84467"><ele>97.2</ele><time>2026-04-26T08:10:31.335Z</time></trkpt><trkpt lat="43.8858136" lon="7.8447872"><ele>95.0</ele><time>2026-04-26T08:10:32.335Z</time></trkpt><trkpt lat="43.8858865" lon="7.8448987"><ele>94.2</ele><time>2026-04-26T08:10:33.336Z</time></trkpt><trkpt lat="43.8859669" lon="7.8450063"><ele>93.4</ele><time>2026-04-26T08:10:34.337Z</time></trkpt><trkpt lat="43.8860466" lon="7.8451144"><ele>92.6</ele><time>2026-04-26T08:10:35.335Z</time></trkpt><trkpt lat="43.8861323" lon="7.8452198"><ele>91.8</ele><time>2026-04-26T08:10:36.336Z</time></trkpt><trkpt lat="43.8862226" lon="7.845309"><ele>91.0</ele><time>2026-04-26T08:10:37.336Z</time></trkpt><trkpt lat="43.8863213" lon="7.8453826"><ele>91.0</ele><time>2026-04-26T08:10:38.336Z</time></trkpt><trkpt lat="43.8864278" lon="7.8454387"><ele>91.0</ele><time>2026-04-26T08:10:39.336Z</time></trkpt><trkpt lat="43.8865421" lon="7.8454795"><ele>91.0</ele><time>2026-04-26T08:10:40.336Z</time></trkpt><trkpt lat="43.8866547" lon="7.8455097"><ele>91.0</ele><time>2026-04-26T08:10:41.337Z</time></trkpt><trkpt lat="43.8867664" lon="7.8455274"><ele>91.0</ele><time>2026-04-26T08:10:42.336Z</time></trkpt><trkpt lat="43.8868842" lon="7.8455315"><ele>91.0</ele><time>2026-04-26T08:10:43.336Z</time></trkpt><trkpt lat="43.8870062" lon="7.8455237"><ele>91.0</ele><time>2026-04-26T08:10:44.336Z</time></trkpt><trkpt lat="43.8871303" lon="7.8454988"><ele>91.0</ele><time>2026-04-26T08:10:45.336Z</time></trkpt><trkpt lat="43.8872488" lon="7.8454538"><ele>91.0</ele><time>2026-04-26T08:10:46.335Z</time></trkpt><trkpt lat="43.8873596" lon="7.8453957"><ele>91.0</ele><time>2026-04-26T08:10:47.336Z</time></trkpt><trkpt lat="43.8874635" lon="7.8453243"><ele>91.0</ele><time>2026-04-26T08:10:48.335Z</time></trkpt><trkpt lat="43.8875577" lon="7.8452468"><ele>91.0</ele><time>2026-04-26T08:10:49.336Z</time></trkpt><trkpt lat="43.8876466" lon="7.8451579"><ele>91.19999999999999</ele><time>2026-04-26T08:10:50.336Z</time></trkpt><trkpt lat="43.8877267" lon="7.8450648"><ele>91.39999999999999</ele><time>2026-04-26T08:10:51.337Z</time></trkpt><trkpt lat="43.887806" lon="7.8449647"><ele>91.6</ele><time>2026-04-26T08:10:52.335Z</time></trkpt><trkpt lat="43.8878861" lon="7.8448563"><ele>91.8</ele><time>2026-04-26T08:10:53.336Z</time></trkpt><trkpt lat="43.8879692" lon="7.8447458"><ele>92.0</ele><time>2026-04-26T08:10:54.336Z</time></trkpt><trkpt lat="43.8880585" lon="7.8446241"><ele>92.0</ele><time>2026-04-26T08:10:55.336Z</time></trkpt><trkpt lat="43.888156" lon="7.8444907"><ele>92.0</ele><time>2026-04-26T08:10:56.336Z</time></trkpt><trkpt lat="43.8882619" lon="7.8443521"><ele>92.0</ele><time>2026-04-26T08:10:57.335Z</time></trkpt><trkpt lat="43.8883637" lon="7.8442089"><ele>92.0</ele><time>2026-04-26T08:10:58.336Z</time></trkpt><trkpt lat="43.8884682" lon="7.844067"><ele>91.5</ele><time>2026-04-26T08:10:59.337Z</time></trkpt><trkpt lat="43.8885683" lon="7.84393"><ele>91.0</ele><time>2026-04-26T08:11:00.336Z</time></trkpt><trkpt lat="43.8886605" lon="7.8437928"><ele>90.5</ele><time>2026-04-26T08:11:01.335Z</time></trkpt><trkpt lat="43.888753" lon="7.8436567"><ele>90.0</ele><time>2026-04-26T08:11:02.335Z</time></trkpt><trkpt lat="43.8888408" lon="7.8435242"><ele>94.25</ele><time>2026-04-26T08:11:03.336Z</time></trkpt><trkpt lat="43.8889258" lon="7.8434005"><ele>98.5</ele><time>2026-04-26T08:11:04.337Z</time></trkpt><trkpt lat="43.8890024" lon="7.8432808"><ele>102.75</ele><time>2026-04-26T08:11:05.336Z</time></trkpt><trkpt lat="43.8890794" lon="7.8431534"><ele>107.0</ele><time>2026-04-26T08:11:06.335Z</time></trkpt><trkpt lat="43.8891301" lon="7.8430037"><ele>107.0</ele><time>2026-04-26T08:11:07.336Z</time></trkpt><trkpt lat="43.889176" lon="7.8428718"><ele>106.99999999999999</ele><time>2026-04-26T08:11:08.335Z</time></trkpt><trkpt lat="43.8892367" lon="7.8427643"><ele>106.99999999999999</ele><time>2026-04-26T08:11:09.336Z</time></trkpt><trkpt lat="43.8893028" lon="7.8426694"><ele>107.0</ele><time>2026-04-26T08:11:10.335Z</time></trkpt><trkpt lat="43.8894076" lon="7.8426751"><ele>107.0</ele><time>2026-04-26T08:11:11.335Z</time></trkpt><trkpt lat="43.8895214" lon="7.8426848"><ele>104.0</ele><time>2026-04-26T08:11:12.335Z</time></trkpt><trkpt lat="43.8896505" lon="7.8426893"><ele>101.0</ele><time>2026-04-26T08:11:13.336Z</time></trkpt><trkpt lat="43.8897902" lon="7.8426624"><ele>98.0</ele><time>2026-04-26T08:11:14.335Z</time></trkpt><trkpt lat="43.8899282" lon="7.8426357"><ele>95.0</ele><time>2026-04-26T08:11:15.335Z</time></trkpt><trkpt lat="43.8900642" lon="7.842608"><ele>105.5</ele><time>2026-04-26T08:11:16.336Z</time></trkpt><trkpt lat="43.8901958" lon="7.8425866"><ele>116.0</ele><time>2026-04-26T08:11:17.335Z</time></trkpt><trkpt lat="43.8903163" lon="7.8425555"><ele>126.5</ele><time>2026-04-26T08:11:18.337Z</time></trkpt><trkpt lat="43.8904301" lon="7.8425388"><ele>137.0</ele><time>2026-04-26T08:11:19.336Z</time></trkpt><trkpt lat="43.890539" lon="7.8425389"><ele>137.0</ele><time>2026-04-26T08:11:20.336Z</time></trkpt><trkpt lat="43.8906487" lon="7.8425584"><ele>137.0</ele><time>2026-04-26T08:11:21.335Z</time></trkpt><trkpt lat="43.8907569" lon="7.8426014"><ele>137.0</ele><time>2026-04-26T08:11:22.335Z</time></trkpt><trkpt lat="43.8908694" lon="7.8426538"><ele>137.0</ele><time>2026-04-26T08:11:23.335Z</time></trkpt><trkpt lat="43.8909837" lon="7.8427036"><ele>135.25</ele><time>2026-04-26T08:11:24.335Z</time></trkpt><trkpt lat="43.8910965" lon="7.8427557"><ele>133.5</ele><time>2026-04-26T08:11:25.338Z</time></trkpt><trkpt lat="43.8912073" lon="7.8428141"><ele>131.75</ele><time>2026-04-26T08:11:26.336Z</time></trkpt><trkpt lat="43.8913175" lon="7.8428758"><ele>130.0</ele><time>2026-04-26T08:11:27.335Z</time></trkpt><trkpt lat="43.8914287" lon="7.8429527"><ele>130.0</ele><time>2026-04-26T08:11:28.337Z</time></trkpt><trkpt lat="43.8915357" lon="7.843059"><ele>130.0</ele><time>2026-04-26T08:11:29.335Z</time></trkpt><trkpt lat="43.8916344" lon="7.8431859"><ele>130.0</ele><time>2026-04-26T08:11:30.335Z</time></trkpt><trkpt lat="43.8917205" lon="7.843324"><ele>130.0</ele><time>2026-04-26T08:11:31.336Z</time></trkpt><trkpt lat="43.8917972" lon="7.8434703"><ele>130.25</ele><time>2026-04-26T08:11:32.335Z</time></trkpt><trkpt lat="43.8918618" lon="7.8436326"><ele>130.5</ele><time>2026-04-26T08:11:33.337Z</time></trkpt><trkpt lat="43.8919123" lon="7.8438023"><ele>130.75</ele><time>2026-04-26T08:11:34.336Z</time></trkpt><trkpt lat="43.8919476" lon="7.8439685"><ele>131.0</ele><time>2026-04-26T08:11:35.337Z</time></trkpt><trkpt lat="43.8919744" lon="7.8441336"><ele>131.0</ele><time>2026-04-26T08:11:36.336Z</time></trkpt><trkpt lat="43.8919959" lon="7.844286"><ele>131.0</ele><time>2026-04-26T08:11:37.336Z</time></trkpt><trkpt lat="43.8920309" lon="7.8444267"><ele>131.0</ele><time>2026-04-26T08:11:38.336Z</time></trkpt><trkpt lat="43.8920876" lon="7.8445329"><ele>131.0</ele><time>2026-04-26T08:11:39.337Z</time></trkpt><trkpt lat="43.8921634" lon="7.8445945"><ele>131.0</ele><time>2026-04-26T08:11:40.335Z</time></trkpt><trkpt lat="43.8922482" lon="7.8446075"><ele>131.0</ele><time>2026-04-26T08:11:41.336Z</time></trkpt><trkpt lat="43.8923357" lon="7.8445877"><ele>131.0</ele><time>2026-04-26T08:11:42.335Z</time></trkpt><trkpt lat="43.8924162" lon="7.844524"><ele>131.0</ele><time>2026-04-26T08:11:43.336Z</time></trkpt><trkpt lat="43.8924569" lon="7.8443743"><ele>131.0</ele><time>2026-04-26T08:11:44.335Z</time></trkpt><trkpt lat="43.8925021" lon="7.8442055"><ele>131.0</ele><time>2026-04-26T08:11:45.336Z</time></trkpt><trkpt lat="43.8925444" lon="7.8440233"><ele>131.0</ele><time>2026-04-26T08:11:46.337Z</time></trkpt><trkpt lat="43.8925871" lon="7.8438526"><ele>131.0</ele><time>2026-04-26T08:11:47.335Z</time></trkpt><trkpt lat="43.8926464" lon="7.843704"><ele>131.0</ele><time>2026-04-26T08:11:48.335Z</time></trkpt><trkpt lat="43.8927224" lon="7.8435742"><ele>131.0</ele><time>2026-04-26T08:11:49.336Z</time></trkpt><trkpt lat="43.8928166" lon="7.8434656"><ele>131.5</ele><time>2026-04-26T08:11:50.337Z</time></trkpt><trkpt lat="43.8929224" lon="7.8433681"><ele>132.0</ele><time>2026-04-26T08:11:51.336Z</time></trkpt><trkpt lat="43.893034" lon="7.8432753"><ele>132.5</ele><time>2026-04-26T08:11:52.335Z</time></trkpt><trkpt lat="43.8931383" lon="7.8431798"><ele>133.0</ele><time>2026-04-26T08:11:53.335Z</time></trkpt><trkpt lat="43.8932488" lon="7.8431016"><ele>133.0</ele><time>2026-04-26T08:11:54.336Z</time></trkpt><trkpt lat="43.8933718" lon="7.8430618"><ele>133.0</ele><time>2026-04-26T08:11:55.335Z</time></trkpt><trkpt lat="43.8934954" lon="7.8430601"><ele>133.0</ele><time>2026-04-26T08:11:56.336Z</time></trkpt><trkpt lat="43.8936123" lon="7.843075"><ele>133.0</ele><time>2026-04-26T08:11:57.336Z</time></trkpt><trkpt lat="43.893715" lon="7.8431176"><ele>131.8</ele><time>2026-04-26T08:11:58.335Z</time></trkpt><trkpt lat="43.8937996" lon="7.8431903"><ele>130.60000000000002</ele><time>2026-04-26T08:11:59.337Z</time></trkpt><trkpt lat="43.8938666" lon="7.8432889"><ele>129.39999999999998</ele><time>2026-04-26T08:12:00.337Z</time></trkpt><trkpt lat="43.8939358" lon="7.8434068"><ele>128.2</ele><time>2026-04-26T08:12:01.335Z</time></trkpt><trkpt lat="43.894013" lon="7.8435279"><ele>127.0</ele><time>2026-04-26T08:12:02.336Z</time></trkpt><trkpt lat="43.8940964" lon="7.8436494"><ele>127.0</ele><time>2026-04-26T08:12:03.335Z</time></trkpt><trkpt lat="43.8941877" lon="7.8437697"><ele>127.0</ele><time>2026-04-26T08:12:04.337Z</time></trkpt><trkpt lat="43.8942945" lon="7.8438864"><ele>127.0</ele><time>2026-04-26T08:12:05.336Z</time></trkpt><trkpt lat="43.8944091" lon="7.8439977"><ele>127.0</ele><time>2026-04-26T08:12:06.335Z</time></trkpt><trkpt lat="43.8945291" lon="7.8440921"><ele>126.25</ele><time>2026-04-26T08:12:07.336Z</time></trkpt><trkpt lat="43.8946535" lon="7.8441678"><ele>125.5</ele><time>2026-04-26T08:12:08.336Z</time></trkpt><trkpt lat="43.8947762" lon="7.8442309"><ele>124.75</ele><time>2026-04-26T08:12:09.336Z</time></trkpt><trkpt lat="43.8948953" lon="7.8442781"><ele>124.0</ele><time>2026-04-26T08:12:10.335Z</time></trkpt><trkpt lat="43.8950117" lon="7.8443058"><ele>125.25</ele><time>2026-04-26T08:12:11.335Z</time></trkpt><trkpt lat="43.8951294" lon="7.8442975"><ele>126.5</ele><time>2026-04-26T08:12:12.336Z</time></trkpt><trkpt lat="43.8952516" lon="7.8442564"><ele>127.75</ele><time>2026-04-26T08:12:13.336Z</time></trkpt><trkpt lat="43.8953731" lon="7.8441873"><ele>129.0</ele><time>2026-04-26T08:12:14.337Z</time></trkpt><trkpt lat="43.8954931" lon="7.8440938"><ele>129.0</ele><time>2026-04-26T08:12:15.336Z</time></trkpt><trkpt lat="43.8956065" lon="7.8439782"><ele>129.0</ele><time>2026-04-26T08:12:16.335Z</time></trkpt><trkpt lat="43.8957141" lon="7.8438461"><ele>129.0</ele><time>2026-04-26T08:12:17.336Z</time></trkpt><trkpt lat="43.8958196" lon="7.843706"><ele>129.0</ele><time>2026-04-26T08:12:18.336Z</time></trkpt><trkpt lat="43.8959239" lon="7.8435633"><ele>129.0</ele><time>2026-04-26T08:12:19.335Z</time></trkpt><trkpt lat="43.896023" lon="7.8434267"><ele>129.0</ele><time>2026-04-26T08:12:20.336Z</time></trkpt><trkpt lat="43.8961133" lon="7.8432915"><ele>129.0</ele><time>2026-04-26T08:12:21.336Z</time></trkpt><trkpt lat="43.896189" lon="7.8431515"><ele>129.0</ele><time>2026-04-26T08:12:22.335Z</time></trkpt><trkpt lat="43.8962492" lon="7.8429953"><ele>129.0</ele><time>2026-04-26T08:12:23.337Z</time></trkpt><trkpt lat="43.8962954" lon="7.842841"><ele>129.0</ele><time>2026-04-26T08:12:24.337Z</time></trkpt><trkpt lat="43.8963459" lon="7.8426893"><ele>129.0</ele><time>2026-04-26T08:12:25.336Z</time></trkpt><trkpt lat="43.8964195" lon="7.8425557"><ele>129.0</ele><time>2026-04-26T08:12:26.336Z</time></trkpt><trkpt lat="43.896496" lon="7.8424408"><ele>130.75</ele><time>2026-04-26T08:12:27.336Z</time></trkpt><trkpt lat="43.8966308" lon="7.8423807"><ele>132.5</ele><time>2026-04-26T08:12:28.336Z</time></trkpt><trkpt lat="43.8967618" lon="7.8423246"><ele>134.25</ele><time>2026-04-26T08:12:29.335Z</time></trkpt><trkpt lat="43.8969028" lon="7.8422836"><ele>136.0</ele><time>2026-04-26T08:12:30.336Z</time></trkpt><trkpt lat="43.8970494" lon="7.8422561"><ele>136.0</ele><time>2026-04-26T08:12:31.335Z</time></trkpt><trkpt lat="43.8971958" lon="7.8422327"><ele>136.0</ele><time>2026-04-26T08:12:32.335Z</time></trkpt><trkpt lat="43.8973438" lon="7.8422147"><ele>136.0</ele><time>2026-04-26T08:12:33.335Z</time></trkpt><trkpt lat="43.8974903" lon="7.8422"><ele>136.0</ele><time>2026-04-26T08:12:34.336Z</time></trkpt><trkpt lat="43.8976321" lon="7.84219"><ele>136.5</ele><time>2026-04-26T08:12:35.336Z</time></trkpt><trkpt lat="43.8977674" lon="7.8421959"><ele>137.0</ele><time>2026-04-26T08:12:36.336Z</time></trkpt><trkpt lat="43.8979004" lon="7.8422244"><ele>137.5</ele><time>2026-04-26T08:12:37.336Z</time></trkpt><trkpt lat="43.8980321" lon="7.8422637"><ele>138.0</ele><time>2026-04-26T08:12:38.336Z</time></trkpt><trkpt lat="43.8981572" lon="7.8423139"><ele>138.0</ele><time>2026-04-26T08:12:39.336Z</time></trkpt><trkpt lat="43.8982771" lon="7.8423634"><ele>138.0</ele><time>2026-04-26T08:12:40.337Z</time></trkpt><trkpt lat="43.8983824" lon="7.8423962"><ele>138.0</ele><time>2026-04-26T08:12:41.336Z</time></trkpt><trkpt lat="43.8984899" lon="7.8424059"><ele>138.0</ele><time>2026-04-26T08:12:42.336Z</time></trkpt><trkpt lat="43.8986041" lon="7.8423551"><ele>137.75</ele><time>2026-04-26T08:12:43.336Z</time></trkpt><trkpt lat="43.8987277" lon="7.8422607"><ele>137.5</ele><time>2026-04-26T08:12:44.335Z</time></trkpt><trkpt lat="43.8988417" lon="7.8421517"><ele>137.25</ele><time>2026-04-26T08:12:45.335Z</time></trkpt><trkpt lat="43.89895" lon="7.8420458"><ele>137.0</ele><time>2026-04-26T08:12:46.336Z</time></trkpt><trkpt lat="43.899055" lon="7.8419441"><ele>137.0</ele><time>2026-04-26T08:12:47.336Z</time></trkpt><trkpt lat="43.8991549" lon="7.8418502"><ele>137.0</ele><time>2026-04-26T08:12:48.336Z</time></trkpt><trkpt lat="43.8992484" lon="7.8417583"><ele>137.0</ele><time>2026-04-26T08:12:49.336Z</time></trkpt><trkpt lat="43.899331" lon="7.8416796"><ele>137.0</ele><time>2026-04-26T08:12:50.335Z</time></trkpt><trkpt lat="43.8994163" lon="7.8416385"><ele>137.0</ele><time>2026-04-26T08:12:51.336Z</time></trkpt><trkpt lat="43.8995083" lon="7.8416519"><ele>137.79999999999998</ele><time>2026-04-26T08:12:52.336Z</time></trkpt><trkpt lat="43.8996051" lon="7.8417048"><ele>138.6</ele><time>2026-04-26T08:12:53.337Z</time></trkpt><trkpt lat="43.8997057" lon="7.8417694"><ele>139.39999999999998</ele><time>2026-04-26T08:12:54.335Z</time></trkpt><trkpt lat="43.8998048" lon="7.8418378"><ele>140.2</ele><time>2026-04-26T08:12:55.337Z</time></trkpt><trkpt lat="43.899901" lon="7.8419131"><ele>141.0</ele><time>2026-04-26T08:12:56.337Z</time></trkpt><trkpt lat="43.8999769" lon="7.8419858"><ele>141.0</ele><time>2026-04-26T08:12:57.336Z</time></trkpt><trkpt lat="43.900033" lon="7.8420658"><ele>141.0</ele><time>2026-04-26T08:12:58.337Z</time></trkpt><trkpt lat="43.9000726" lon="7.8421514"><ele>141.0</ele><time>2026-04-26T08:12:59.335Z</time></trkpt><trkpt lat="43.9001098" lon="7.842287"><ele>141.0</ele><time>2026-04-26T08:13:01.337Z</time></trkpt><trkpt lat="43.9001276" lon="7.8423895"><ele>141.0</ele><time>2026-04-26T08:13:03.336Z</time></trkpt><trkpt lat="43.9001507" lon="7.8424979"><ele>141.0</ele><time>2026-04-26T08:13:06.337Z</time></trkpt><trkpt lat="43.9001661" lon="7.8425868"><ele>140.6</ele><time>2026-04-26T08:13:10.335Z</time></trkpt><trkpt lat="43.9001769" lon="7.8426752"><ele>140.2</ele><time>2026-04-26T08:13:13.336Z</time></trkpt><trkpt lat="43.9001953" lon="7.8427743"><ele>139.8</ele><time>2026-04-26T08:13:15.336Z</time></trkpt><trkpt lat="43.9002492" lon="7.8428891"><ele>139.4</ele><time>2026-04-26T08:13:17.337Z</time></trkpt><trkpt lat="43.9003161" lon="7.8429763"><ele>139.0</ele><time>2026-04-26T08:13:19.337Z</time></trkpt><trkpt lat="43.9004254" lon="7.8430518"><ele>139.0</ele><time>2026-04-26T08:13:21.335Z</time></trkpt><trkpt lat="43.9004913" lon="7.8430637"><ele>139.0</ele><time>2026-04-26T08:13:22.336Z</time></trkpt><trkpt lat="43.9005594" lon="7.8430643"><ele>139.0</ele><time>2026-04-26T08:13:23.336Z</time></trkpt><trkpt lat="43.9006317" lon="7.8430632"><ele>139.0</ele><time>2026-04-26T08:13:24.336Z</time></trkpt><trkpt lat="43.9007082" lon="7.8430593"><ele>139.0</ele><time>2026-04-26T08:13:25.337Z</time></trkpt><trkpt lat="43.9007958" lon="7.8430541"><ele>139.0</ele><time>2026-04-26T08:13:26.335Z</time></trkpt><trkpt lat="43.9008857" lon="7.84305"><ele>138.8</ele><time>2026-04-26T08:13:27.336Z</time></trkpt><trkpt lat="43.9009815" lon="7.8430472"><ele>138.60000000000002</ele><time>2026-04-26T08:13:28.336Z</time></trkpt><trkpt lat="43.9010825" lon="7.8430281"><ele>138.4</ele><time>2026-04-26T08:13:29.337Z</time></trkpt><trkpt lat="43.9011803" lon="7.8429738"><ele>138.20000000000002</ele><time>2026-04-26T08:13:30.336Z</time></trkpt><trkpt lat="43.9012755" lon="7.8428966"><ele>138.0</ele><time>2026-04-26T08:13:31.336Z</time></trkpt><trkpt lat="43.9013653" lon="7.8428077"><ele>138.0</ele><time>2026-04-26T08:13:32.335Z</time></trkpt><trkpt lat="43.9014504" lon="7.8427083"><ele>138.0</ele><time>2026-04-26T08:13:33.336Z</time></trkpt><trkpt lat="43.901533" lon="7.8425997"><ele>138.0</ele><time>2026-04-26T08:13:34.336Z</time></trkpt><trkpt lat="43.9016094" lon="7.8424891"><ele>138.0</ele><time>2026-04-26T08:13:35.335Z</time></trkpt><trkpt lat="43.9016805" lon="7.8423792"><ele>138.0</ele><time>2026-04-26T08:13:36.336Z</time></trkpt><trkpt lat="43.901749" lon="7.8422687"><ele>138.0</ele><time>2026-04-26T08:13:37.336Z</time></trkpt><trkpt lat="43.9018207" lon="7.842158"><ele>138.0</ele><time>2026-04-26T08:13:38.336Z</time></trkpt><trkpt lat="43.9018923" lon="7.8420445"><ele>138.0</ele><time>2026-04-26T08:13:39.337Z</time></trkpt><trkpt lat="43.9019647" lon="7.8419347"><ele>138.0</ele><time>2026-04-26T08:13:40.336Z</time></trkpt><trkpt lat="43.9020414" lon="7.8418202"><ele>138.0</ele><time>2026-04-26T08:13:41.337Z</time></trkpt><trkpt lat="43.9021204" lon="7.8417052"><ele>138.0</ele><time>2026-04-26T08:13:42.336Z</time></trkpt><trkpt lat="43.9021984" lon="7.8415911"><ele>138.0</ele><time>2026-04-26T08:13:43.336Z</time></trkpt><trkpt lat="43.9022787" lon="7.841464"><ele>138.0</ele><time>2026-04-26T08:13:44.336Z</time></trkpt><trkpt lat="43.9023562" lon="7.8413323"><ele>138.0</ele><time>2026-04-26T08:13:45.336Z</time></trkpt><trkpt lat="43.9024292" lon="7.8411886"><ele>138.0</ele><time>2026-04-26T08:13:46.336Z</time></trkpt><trkpt lat="43.9024996" lon="7.8410381"><ele>138.0</ele><time>2026-04-26T08:13:47.335Z</time></trkpt><trkpt lat="43.9025708" lon="7.8408831"><ele>138.0</ele><time>2026-04-26T08:13:48.337Z</time></trkpt><trkpt lat="43.9026391" lon="7.8407291"><ele>138.0</ele><time>2026-04-26T08:13:49.336Z</time></trkpt><trkpt lat="43.9027115" lon="7.8405872"><ele>139.0</ele><time>2026-04-26T08:13:50.336Z</time></trkpt><trkpt lat="43.9027893" lon="7.8404499"><ele>140.0</ele><time>2026-04-26T08:13:51.336Z</time></trkpt><trkpt lat="43.9028657" lon="7.8403195"><ele>141.0</ele><time>2026-04-26T08:13:52.336Z</time></trkpt><trkpt lat="43.9029428" lon="7.8401948"><ele>142.0</ele><time>2026-04-26T08:13:53.335Z</time></trkpt><trkpt lat="43.903025" lon="7.8400738"><ele>142.75</ele><time>2026-04-26T08:13:54.336Z</time></trkpt><trkpt lat="43.9031179" lon="7.8399604"><ele>143.5</ele><time>2026-04-26T08:13:55.336Z</time></trkpt><trkpt lat="43.9032505" lon="7.8398815"><ele>144.25</ele><time>2026-04-26T08:13:56.335Z</time></trkpt><trkpt lat="43.9033786" lon="7.8397898"><ele>145.0</ele><time>2026-04-26T08:13:57.337Z</time></trkpt><trkpt lat="43.9035034" lon="7.8396963"><ele>145.5</ele><time>2026-04-26T08:13:58.335Z</time></trkpt><trkpt lat="43.9036318" lon="7.8396068"><ele>146.0</ele><time>2026-04-26T08:13:59.336Z</time></trkpt><trkpt lat="43.9037562" lon="7.8395169"><ele>146.5</ele><time>2026-04-26T08:14:00.337Z</time></trkpt><trkpt lat="43.9038897" lon="7.8394489"><ele>147.0</ele><time>2026-04-26T08:14:01.335Z</time></trkpt><trkpt lat="43.9040212" lon="7.8394091"><ele>147.0</ele><time>2026-04-26T08:14:02.336Z</time></trkpt><trkpt lat="43.9041556" lon="7.8393781"><ele>147.0</ele><time>2026-04-26T08:14:03.335Z</time></trkpt><trkpt lat="43.9042863" lon="7.8393592"><ele>147.0</ele><time>2026-04-26T08:14:04.335Z</time></trkpt><trkpt lat="43.9044179" lon="7.83934"><ele>147.0</ele><time>2026-04-26T08:14:05.336Z</time></trkpt><trkpt lat="43.9045472" lon="7.8393307"><ele>147.0</ele><time>2026-04-26T08:14:06.337Z</time></trkpt><trkpt lat="43.9046781" lon="7.8393364"><ele>147.0</ele><time>2026-04-26T08:14:07.337Z</time></trkpt><trkpt lat="43.9048101" lon="7.8393735"><ele>147.0</ele><time>2026-04-26T08:14:08.336Z</time></trkpt><trkpt lat="43.9049419" lon="7.839434"><ele>147.0</ele><time>2026-04-26T08:14:09.335Z</time></trkpt><trkpt lat="43.9050686" lon="7.8395258"><ele>153.0</ele><time>2026-04-26T08:14:10.337Z</time></trkpt><trkpt lat="43.9051873" lon="7.8396414"><ele>159.0</ele><time>2026-04-26T08:14:11.336Z</time></trkpt><trkpt lat="43.9052925" lon="7.8397775"><ele>165.0</ele><time>2026-04-26T08:14:12.335Z</time></trkpt><trkpt lat="43.9053927" lon="7.8399172"><ele>171.0</ele><time>2026-04-26T08:14:13.337Z</time></trkpt><trkpt lat="43.9054718" lon="7.840076"><ele>167.25</ele><time>2026-04-26T08:14:14.336Z</time></trkpt><trkpt lat="43.9055424" lon="7.8402418"><ele>163.5</ele><time>2026-04-26T08:14:15.336Z</time></trkpt><trkpt lat="43.9055989" lon="7.8404105"><ele>159.75</ele><time>2026-04-26T08:14:16.337Z</time></trkpt><trkpt lat="43.9056323" lon="7.8405875"><ele>156.0</ele><time>2026-04-26T08:14:17.337Z</time></trkpt><trkpt lat="43.9056398" lon="7.8407699"><ele>156.0</ele><time>2026-04-26T08:14:18.336Z</time></trkpt><trkpt lat="43.9056309" lon="7.8409522"><ele>156.0</ele><time>2026-04-26T08:14:19.335Z</time></trkpt><trkpt lat="43.905614" lon="7.841125"><ele>156.0</ele><time>2026-04-26T08:14:20.335Z</time></trkpt><trkpt lat="43.9055989" lon="7.8412814"><ele>156.0</ele><time>2026-04-26T08:14:21.336Z</time></trkpt><trkpt lat="43.9055806" lon="7.841445"><ele>156.0</ele><time>2026-04-26T08:14:22.336Z</time></trkpt><trkpt lat="43.9055603" lon="7.8416151"><ele>156.0</ele><time>2026-04-26T08:14:23.336Z</time></trkpt><trkpt lat="43.905536" lon="7.8417845"><ele>156.0</ele><time>2026-04-26T08:14:24.336Z</time></trkpt><trkpt lat="43.905508" lon="7.8419587"><ele>156.0</ele><time>2026-04-26T08:14:25.335Z</time></trkpt><trkpt lat="43.9054776" lon="7.8421343"><ele>156.0</ele><time>2026-04-26T08:14:26.337Z</time></trkpt><trkpt lat="43.9054523" lon="7.8423138"><ele>156.0</ele><time>2026-04-26T08:14:27.335Z</time></trkpt><trkpt lat="43.9054287" lon="7.8424904"><ele>156.0</ele><time>2026-04-26T08:14:28.337Z</time></trkpt><trkpt lat="43.9054032" lon="7.8426705"><ele>156.0</ele><time>2026-04-26T08:14:29.336Z</time></trkpt><trkpt lat="43.905384" lon="7.8428526"><ele>156.75</ele><time>2026-04-26T08:14:30.336Z</time></trkpt><trkpt lat="43.9053728" lon="7.8430247"><ele>157.5</ele><time>2026-04-26T08:14:31.335Z</time></trkpt><trkpt lat="43.9053602" lon="7.8431928"><ele>158.25</ele><time>2026-04-26T08:14:32.336Z</time></trkpt><trkpt lat="43.9053474" lon="7.8433588"><ele>159.0</ele><time>2026-04-26T08:14:33.337Z</time></trkpt><trkpt lat="43.9053391" lon="7.8435323"><ele>159.0</ele><time>2026-04-26T08:14:34.335Z</time></trkpt><trkpt lat="43.9053302" lon="7.8437016"><ele>159.0</ele><time>2026-04-26T08:14:35.337Z</time></trkpt><trkpt lat="43.9053208" lon="7.8438721"><ele>159.0</ele><time>2026-04-26T08:14:36.336Z</time></trkpt><trkpt lat="43.9053104" lon="7.8440373"><ele>159.0</ele><time>2026-04-26T08:14:37.336Z</time></trkpt><trkpt lat="43.9053011" lon="7.8441978"><ele>158.0</ele><time>2026-04-26T08:14:38.337Z</time></trkpt><trkpt lat="43.9053022" lon="7.8443556"><ele>157.0</ele><time>2026-04-26T08:14:39.336Z</time></trkpt><trkpt lat="43.905321" lon="7.8445059"><ele>156.0</ele><time>2026-04-26T08:14:40.336Z</time></trkpt><trkpt lat="43.9053556" lon="7.8446531"><ele>155.0</ele><time>2026-04-26T08:14:41.336Z</time></trkpt><trkpt lat="43.9054104" lon="7.8447933"><ele>155.0</ele><time>2026-04-26T08:14:42.335Z</time></trkpt><trkpt lat="43.9054769" lon="7.8449241"><ele>155.0</ele><time>2026-04-26T08:14:43.337Z</time></trkpt><trkpt lat="43.9055539" lon="7.8450477"><ele>155.0</ele><time>2026-04-26T08:14:44.336Z</time></trkpt><trkpt lat="43.9056339" lon="7.8451626"><ele>155.0</ele><time>2026-04-26T08:14:45.336Z</time></trkpt><trkpt lat="43.9057157" lon="7.8452589"><ele>156.6</ele><time>2026-04-26T08:14:46.336Z</time></trkpt><trkpt lat="43.905804" lon="7.8453423"><ele>158.2</ele><time>2026-04-26T08:14:47.336Z</time></trkpt><trkpt lat="43.9059047" lon="7.8454044"><ele>159.8</ele><time>2026-04-26T08:14:48.336Z</time></trkpt><trkpt lat="43.9060184" lon="7.8454391"><ele>161.4</ele><time>2026-04-26T08:14:49.336Z</time></trkpt><trkpt lat="43.9061336" lon="7.8454577"><ele>163.0</ele><time>2026-04-26T08:14:50.337Z</time></trkpt><trkpt lat="43.9062573" lon="7.8454575"><ele>165.25</ele><time>2026-04-26T08:14:51.335Z</time></trkpt><trkpt lat="43.9063822" lon="7.8454465"><ele>167.5</ele><time>2026-04-26T08:14:52.336Z</time></trkpt><trkpt lat="43.9065089" lon="7.8454023"><ele>169.75</ele><time>2026-04-26T08:14:53.336Z</time></trkpt><trkpt lat="43.9066366" lon="7.8453348"><ele>172.0</ele><time>2026-04-26T08:14:54.337Z</time></trkpt><trkpt lat="43.9067496" lon="7.8452547"><ele>170.0</ele><time>2026-04-26T08:14:55.336Z</time></trkpt><trkpt lat="43.9068482" lon="7.845151"><ele>168.0</ele><time>2026-04-26T08:14:56.336Z</time></trkpt><trkpt lat="43.9069397" lon="7.8450261"><ele>166.0</ele><time>2026-04-26T08:14:57.337Z</time></trkpt><trkpt lat="43.9070247" lon="7.8448919"><ele>164.0</ele><time>2026-04-26T08:14:58.335Z</time></trkpt><trkpt lat="43.9070934" lon="7.8447237"><ele>164.0</ele><time>2026-04-26T08:14:59.335Z</time></trkpt><trkpt lat="43.9071683" lon="7.8445575"><ele>164.0</ele><time>2026-04-26T08:15:00.337Z</time></trkpt><trkpt lat="43.9072417" lon="7.8443936"><ele>164.0</ele><time>2026-04-26T08:15:01.336Z</time></trkpt><trkpt lat="43.9073182" lon="7.8442271"><ele>164.0</ele><time>2026-04-26T08:15:02.335Z</time></trkpt><trkpt lat="43.9074044" lon="7.8440741"><ele>164.0</ele><time>2026-04-26T08:15:03.335Z</time></trkpt><trkpt lat="43.9075029" lon="7.8439308"><ele>164.0</ele><time>2026-04-26T08:15:04.336Z</time></trkpt><trkpt lat="43.9075935" lon="7.843802"><ele>164.0</ele><time>2026-04-26T08:15:05.337Z</time></trkpt><trkpt lat="43.9076771" lon="7.8436819"><ele>164.0</ele><time>2026-04-26T08:15:06.335Z</time></trkpt><trkpt lat="43.9077554" lon="7.8435746"><ele>164.2</ele><time>2026-04-26T08:15:07.335Z</time></trkpt><trkpt lat="43.9078317" lon="7.8434827"><ele>164.39999999999998</ele><time>2026-04-26T08:15:08.336Z</time></trkpt><trkpt lat="43.9079119" lon="7.8434043"><ele>164.6</ele><time>2026-04-26T08:15:09.336Z</time></trkpt><trkpt lat="43.9080016" lon="7.8433584"><ele>164.8</ele><time>2026-04-26T08:15:10.336Z</time></trkpt><trkpt lat="43.9081035" lon="7.843339"><ele>165.0</ele><time>2026-04-26T08:15:11.337Z</time></trkpt><trkpt lat="43.9082144" lon="7.8433397"><ele>168.75</ele><time>2026-04-26T08:15:12.337Z</time></trkpt><trkpt lat="43.9083334" lon="7.8433513"><ele>172.5</ele><time>2026-04-26T08:15:13.336Z</time></trkpt><trkpt lat="43.9084513" lon="7.8433777"><ele>176.25</ele><time>2026-04-26T08:15:14.336Z</time></trkpt><trkpt lat="43.908559" lon="7.8434138"><ele>180.0</ele><time>2026-04-26T08:15:15.336Z</time></trkpt><trkpt lat="43.9086652" lon="7.8434594"><ele>177.0</ele><time>2026-04-26T08:15:16.337Z</time></trkpt><trkpt lat="43.9087649" lon="7.8435122"><ele>174.0</ele><time>2026-04-26T08:15:17.336Z</time></trkpt><trkpt lat="43.9088594" lon="7.8435883"><ele>171.0</ele><time>2026-04-26T08:15:18.336Z</time></trkpt><trkpt lat="43.9089473" lon="7.8436903"><ele>168.0</ele><time>2026-04-26T08:15:19.337Z</time></trkpt><trkpt lat="43.9090329" lon="7.8438071"><ele>168.0</ele><time>2026-04-26T08:15:20.336Z</time></trkpt><trkpt lat="43.9091194" lon="7.8439234"><ele>168.0</ele><time>2026-04-26T08:15:21.336Z</time></trkpt><trkpt lat="43.9091992" lon="7.8440444"><ele>168.0</ele><time>2026-04-26T08:15:22.337Z</time></trkpt><trkpt lat="43.9092671" lon="7.8441721"><ele>168.0</ele><time>2026-04-26T08:15:23.337Z</time></trkpt><trkpt lat="43.909338" lon="7.8442988"><ele>168.25</ele><time>2026-04-26T08:15:24.336Z</time></trkpt><trkpt lat="43.909417" lon="7.8444238"><ele>168.5</ele><time>2026-04-26T08:15:25.335Z</time></trkpt><trkpt lat="43.9095086" lon="7.844536"><ele>168.75</ele><time>2026-04-26T08:15:26.337Z</time></trkpt><trkpt lat="43.9096136" lon="7.844631"><ele>169.0</ele><time>2026-04-26T08:15:27.336Z</time></trkpt><trkpt lat="43.9097301" lon="7.8447138"><ele>169.0</ele><time>2026-04-26T08:15:28.337Z</time></trkpt><trkpt lat="43.9098644" lon="7.8447593"><ele>169.0</ele><time>2026-04-26T08:15:29.338Z</time></trkpt><trkpt lat="43.9100012" lon="7.8447867"><ele>169.0</ele><time>2026-04-26T08:15:30.336Z</time></trkpt><trkpt lat="43.9101391" lon="7.8448028"><ele>169.0</ele><time>2026-04-26T08:15:31.336Z</time></trkpt><trkpt lat="43.9102739" lon="7.8447762"><ele>169.25</ele><time>2026-04-26T08:15:32.335Z</time></trkpt><trkpt lat="43.9104202" lon="7.8447279"><ele>169.5</ele><time>2026-04-26T08:15:33.336Z</time></trkpt><trkpt lat="43.9105552" lon="7.8447149"><ele>169.75</ele><time>2026-04-26T08:15:34.337Z</time></trkpt><trkpt lat="43.9106781" lon="7.8447007"><ele>170.0</ele><time>2026-04-26T08:15:35.336Z</time></trkpt><trkpt lat="43.9107913" lon="7.8446798"><ele>170.0</ele><time>2026-04-26T08:15:36.337Z</time></trkpt><trkpt lat="43.910901" lon="7.8446637"><ele>170.0</ele><time>2026-04-26T08:15:37.34Z</time></trkpt><trkpt lat="43.9110022" lon="7.8446471"><ele>170.0</ele><time>2026-04-26T08:15:38.336Z</time></trkpt><trkpt lat="43.9111018" lon="7.8446303"><ele>170.0</ele><time>2026-04-26T08:15:39.337Z</time></trkpt><trkpt lat="43.9111979" lon="7.8446119"><ele>170.0</ele><time>2026-04-26T08:15:40.336Z</time></trkpt><trkpt lat="43.9112944" lon="7.8445773"><ele>170.2</ele><time>2026-04-26T08:15:41.336Z</time></trkpt><trkpt lat="43.9113963" lon="7.844537"><ele>170.4</ele><time>2026-04-26T08:15:42.337Z</time></trkpt><trkpt lat="43.9114942" lon="7.8444871"><ele>170.60000000000002</ele><time>2026-04-26T08:15:43.336Z</time></trkpt><trkpt lat="43.9115893" lon="7.844435"><ele>170.8</ele><time>2026-04-26T08:15:44.336Z</time></trkpt><trkpt lat="43.9116928" lon="7.8443892"><ele>171.0</ele><time>2026-04-26T08:15:45.336Z</time></trkpt><trkpt lat="43.9118079" lon="7.8443537"><ele>171.4</ele><time>2026-04-26T08:15:46.337Z</time></trkpt><trkpt lat="43.9119235" lon="7.8443138"><ele>171.8</ele><time>2026-04-26T08:15:47.337Z</time></trkpt><trkpt lat="43.9120288" lon="7.8442822"><ele>172.20000000000002</ele><time>2026-04-26T08:15:48.336Z</time></trkpt><trkpt lat="43.912124" lon="7.844259"><ele>172.60000000000002</ele><time>2026-04-26T08:15:49.336Z</time></trkpt><trkpt lat="43.9122163" lon="7.8442369"><ele>173.0</ele><time>2026-04-26T08:15:50.336Z</time></trkpt><trkpt lat="43.9123181" lon="7.8442298"><ele>173.0</ele><time>2026-04-26T08:15:51.337Z</time></trkpt><trkpt lat="43.9124268" lon="7.8442388"><ele>173.0</ele><time>2026-04-26T08:15:52.336Z</time></trkpt><trkpt lat="43.9125369" lon="7.8442523"><ele>173.0</ele><time>2026-04-26T08:15:53.336Z</time></trkpt><trkpt lat="43.91265" lon="7.8442746"><ele>173.0</ele><time>2026-04-26T08:15:54.336Z</time></trkpt><trkpt lat="43.9127585" lon="7.8443364"><ele>173.0</ele><time>2026-04-26T08:15:55.337Z</time></trkpt><trkpt lat="43.9128544" lon="7.8444021"><ele>173.0</ele><time>2026-04-26T08:15:56.335Z</time></trkpt><trkpt lat="43.9129563" lon="7.8444418"><ele>173.0</ele><time>2026-04-26T08:15:57.343Z</time></trkpt><trkpt lat="43.9130574" lon="7.8444715"><ele>173.0</ele><time>2026-04-26T08:15:58.337Z</time></trkpt><trkpt lat="43.9131454" lon="7.8444932"><ele>173.0</ele><time>2026-04-26T08:15:59.336Z</time></trkpt><trkpt lat="43.9132239" lon="7.8445212"><ele>173.0</ele><time>2026-04-26T08:16:00.335Z</time></trkpt><trkpt lat="43.9132957" lon="7.8445482"><ele>173.0</ele><time>2026-04-26T08:16:01.336Z</time></trkpt><trkpt lat="43.9133645" lon="7.8445814"><ele>173.0</ele><time>2026-04-26T08:16:02.336Z</time></trkpt><trkpt lat="43.9134259" lon="7.8446072"><ele>173.0</ele><time>2026-04-26T08:16:03.337Z</time></trkpt><trkpt lat="43.9134893" lon="7.8446464"><ele>173.0</ele><time>2026-04-26T08:16:04.337Z</time></trkpt><trkpt lat="43.9135625" lon="7.8446832"><ele>173.0</ele><time>2026-04-26T08:16:05.337Z</time></trkpt><trkpt lat="43.9136378" lon="7.844715"><ele>173.0</ele><time>2026-04-26T08:16:06.335Z</time></trkpt><trkpt lat="43.913712" lon="7.8447444"><ele>177.60000000000002</ele><time>2026-04-26T08:16:07.336Z</time></trkpt><trkpt lat="43.9137809" lon="7.84477"><ele>182.20000000000002</ele><time>2026-04-26T08:16:08.336Z</time></trkpt><trkpt lat="43.9138469" lon="7.8447899"><ele>186.8</ele><time>2026-04-26T08:16:09.337Z</time></trkpt><trkpt lat="43.9139624" lon="7.8448298"><ele>191.4</ele><time>2026-04-26T08:16:11.335Z</time></trkpt><trkpt lat="43.9140703" lon="7.8449041"><ele>196.0</ele><time>2026-04-26T08:16:13.337Z</time></trkpt><trkpt lat="43.914165" lon="7.8450061"><ele>195.99999999999997</ele><time>2026-04-26T08:16:15.337Z</time></trkpt><trkpt lat="43.9142084" lon="7.845074"><ele>196.0</ele><time>2026-04-26T08:16:16.336Z</time></trkpt><trkpt lat="43.9142469" lon="7.8451478"><ele>196.0</ele><time>2026-04-26T08:16:17.336Z</time></trkpt><trkpt lat="43.9142817" lon="7.845227"><ele>196.0</ele><time>2026-04-26T08:16:18.337Z</time></trkpt><trkpt lat="43.9143081" lon="7.8453131"><ele>195.99999999999997</ele><time>2026-04-26T08:16:19.337Z</time></trkpt><trkpt lat="43.9143439" lon="7.845478"><ele>196.0</ele><time>2026-04-26T08:16:21.336Z</time></trkpt><trkpt lat="43.9143528" lon="7.8456199"><ele>196.60000000000002</ele><time>2026-04-26T08:16:23.337Z</time></trkpt><trkpt lat="43.9143632" lon="7.8457253"><ele>197.2</ele><time>2026-04-26T08:16:25.336Z</time></trkpt><trkpt lat="43.9143703" lon="7.8458623"><ele>197.8</ele><time>2026-04-26T08:16:28.336Z</time></trkpt><trkpt lat="43.9143734" lon="7.8460189"><ele>198.39999999999998</ele><time>2026-04-26T08:16:30.336Z</time></trkpt><trkpt lat="43.914372" lon="7.8461828"><ele>199.0</ele><time>2026-04-26T08:16:32.337Z</time></trkpt><trkpt lat="43.9143771" lon="7.8462768"><ele>197.7142857142857</ele><time>2026-04-26T08:16:33.337Z</time></trkpt><trkpt lat="43.9143886" lon="7.8463661"><ele>196.42857142857142</ele><time>2026-04-26T08:16:34.336Z</time></trkpt><trkpt lat="43.9143911" lon="7.8464554"><ele>195.14285714285714</ele><time>2026-04-26T08:16:35.337Z</time></trkpt><trkpt lat="43.9143819" lon="7.8465447"><ele>193.85714285714283</ele><time>2026-04-26T08:16:36.336Z</time></trkpt><trkpt lat="43.9143706" lon="7.8466315"><ele>192.57142857142858</ele><time>2026-04-26T08:16:37.337Z</time></trkpt><trkpt lat="43.9143534" lon="7.846736"><ele>191.28571428571428</ele><time>2026-04-26T08:16:38.337Z</time></trkpt><trkpt lat="43.9143339" lon="7.8468427"><ele>190.0</ele><time>2026-04-26T08:16:39.335Z</time></trkpt><trkpt lat="43.9143185" lon="7.8469555"><ele>189.16666666666669</ele><time>2026-04-26T08:16:40.337Z</time></trkpt><trkpt lat="43.9143452" lon="7.8470692"><ele>188.33333333333334</ele><time>2026-04-26T08:16:41.336Z</time></trkpt><trkpt lat="43.9143694" lon="7.8471716"><ele>187.5</ele><time>2026-04-26T08:16:42.336Z</time></trkpt><trkpt lat="43.9144015" lon="7.8472624"><ele>186.66666666666666</ele><time>2026-04-26T08:16:43.336Z</time></trkpt><trkpt lat="43.9144722" lon="7.847411"><ele>185.83333333333331</ele><time>2026-04-26T08:16:45.337Z</time></trkpt><trkpt lat="43.9145122" lon="7.8474821"><ele>185.0</ele><time>2026-04-26T08:16:46.337Z</time></trkpt><trkpt lat="43.9145874" lon="7.8476116"><ele>184.85714285714283</ele><time>2026-04-26T08:16:48.337Z</time></trkpt><trkpt lat="43.9146399" lon="7.8476787"><ele>184.71428571428572</ele><time>2026-04-26T08:16:49.337Z</time></trkpt><trkpt lat="43.9146954" lon="7.8477382"><ele>184.57142857142856</ele><time>2026-04-26T08:16:50.337Z</time></trkpt><trkpt lat="43.9147591" lon="7.8477766"><ele>184.42857142857142</ele><time>2026-04-26T08:16:51.336Z</time></trkpt><trkpt lat="43.9148239" lon="7.847813"><ele>184.28571428571428</ele><time>2026-04-26T08:16:52.337Z</time></trkpt><trkpt lat="43.9148941" lon="7.8478439"><ele>184.14285714285714</ele><time>2026-04-26T08:16:53.336Z</time></trkpt><trkpt lat="43.9149594" lon="7.8478741"><ele>184.0</ele><time>2026-04-26T08:16:54.336Z</time></trkpt><trkpt lat="43.9150868" lon="7.8479223"><ele>183.5</ele><time>2026-04-26T08:16:56.337Z</time></trkpt><trkpt lat="43.9152032" lon="7.84795"><ele>183.0</ele><time>2026-04-26T08:16:58.337Z</time></trkpt><trkpt lat="43.9153165" lon="7.8479439"><ele>182.5</ele><time>2026-04-26T08:17:00.337Z</time></trkpt><trkpt lat="43.9154317" lon="7.8479187"><ele>182.0</ele><time>2026-04-26T08:17:02.337Z</time></trkpt><trkpt lat="43.9155317" lon="7.8478783"><ele>182.0</ele><time>2026-04-26T08:17:04.337Z</time></trkpt><trkpt lat="43.9156285" lon="7.8478411"><ele>182.0</ele><time>2026-04-26T08:17:06.337Z</time></trkpt><trkpt lat="43.9157266" lon="7.8478008"><ele>182.0</ele><time>2026-04-26T08:17:08.336Z</time></trkpt><trkpt lat="43.9157924" lon="7.8477769"><ele>182.0</ele><time>2026-04-26T08:17:10.337Z</time></trkpt><trkpt lat="43.9158623" lon="7.8477597"><ele>182.0</ele><time>2026-04-26T08:17:12.337Z</time></trkpt><trkpt lat="43.9159467" lon="7.8477395"><ele>182.0</ele><time>2026-04-26T08:17:14.338Z</time></trkpt><trkpt lat="43.9160763" lon="7.8477374"><ele>182.39999999999998</ele><time>2026-04-26T08:17:16.337Z</time></trkpt><trkpt lat="43.9161439" lon="7.847737"><ele>182.79999999999998</ele><time>2026-04-26T08:17:17.336Z</time></trkpt><trkpt lat="43.9162542" lon="7.8477183"><ele>183.2</ele><time>2026-04-26T08:17:19.337Z</time></trkpt><trkpt lat="43.9163697" lon="7.8477116"><ele>183.6</ele><time>2026-04-26T08:17:21.336Z</time></trkpt><trkpt lat="43.9164523" lon="7.8477015"><ele>184.0</ele><time>2026-04-26T08:17:23.337Z</time></trkpt><trkpt lat="43.9165608" lon="7.8476814"><ele>184.0</ele><time>2026-04-26T08:17:25.336Z</time></trkpt><trkpt lat="43.9166493" lon="7.8476392"><ele>184.0</ele><time>2026-04-26T08:17:27.337Z</time></trkpt><trkpt lat="43.916681" lon="7.847526"><ele>184.0</ele><time>2026-04-26T08:17:29.337Z</time></trkpt><trkpt lat="43.9166849" lon="7.8473789"><ele>184.0</ele><time>2026-04-26T08:17:31.337Z</time></trkpt><trkpt lat="43.9166823" lon="7.8472526"><ele>184.0</ele><time>2026-04-26T08:17:33.336Z</time></trkpt><trkpt lat="43.9166809" lon="7.8471174"><ele>184.39999999999998</ele><time>2026-04-26T08:17:35.336Z</time></trkpt><trkpt lat="43.9167106" lon="7.8469983"><ele>184.8</ele><time>2026-04-26T08:17:37.337Z</time></trkpt><trkpt lat="43.9167963" lon="7.8468919"><ele>185.2</ele><time>2026-04-26T08:17:39.337Z</time></trkpt><trkpt lat="43.9168863" lon="7.8468166"><ele>185.60000000000002</ele><time>2026-04-26T08:17:41.336Z</time></trkpt><trkpt lat="43.9169954" lon="7.8467419"><ele>186.0</ele><time>2026-04-26T08:17:43.336Z</time></trkpt><trkpt lat="43.91705" lon="7.8466983"><ele>186.0</ele><time>2026-04-26T08:17:44.336Z</time></trkpt><trkpt lat="43.9171053" lon="7.8466545"><ele>186.0</ele><time>2026-04-26T08:17:45.337Z</time></trkpt><trkpt lat="43.9172234" lon="7.8465908"><ele>186.0</ele><time>2026-04-26T08:17:47.337Z</time></trkpt><trkpt lat="43.9172932" lon="7.8465688"><ele>186.0</ele><time>2026-04-26T08:17:49.337Z</time></trkpt><trkpt lat="43.9173725" lon="7.8465017"><ele>186.0</ele><time>2026-04-26T08:18:45.337Z</time></trkpt><trkpt lat="43.9174807" lon="7.8464465"><ele>190.4</ele><time>2026-04-26T08:18:47.336Z</time></trkpt><trkpt lat="43.9175831" lon="7.8463656"><ele>194.8</ele><time>2026-04-26T08:18:49.336Z</time></trkpt><trkpt lat="43.917655" lon="7.8463556"><ele>199.20000000000002</ele><time>2026-04-26T08:18:50.336Z</time></trkpt><trkpt lat="43.9177341" lon="7.846268"><ele>203.60000000000002</ele><time>2026-04-26T08:18:52.338Z</time></trkpt><trkpt lat="43.9178036" lon="7.8461322"><ele>208.0</ele><time>2026-04-26T08:18:54.337Z</time></trkpt><trkpt lat="43.9178643" lon="7.8459984"><ele>205.4</ele><time>2026-04-26T08:18:56.338Z</time></trkpt><trkpt lat="43.9179156" lon="7.8459024"><ele>202.8</ele><time>2026-04-26T08:18:58.337Z</time></trkpt><trkpt lat="43.9179627" lon="7.8458207"><ele>200.2</ele><time>2026-04-26T08:19:00.337Z</time></trkpt><trkpt lat="43.9180666" lon="7.845697"><ele>197.6</ele><time>2026-04-26T08:19:02.336Z</time></trkpt><trkpt lat="43.9181397" lon="7.8456547"><ele>195.0</ele><time>2026-04-26T08:19:03.337Z</time></trkpt><trkpt lat="43.9182218" lon="7.8456206"><ele>195.0</ele><time>2026-04-26T08:19:04.337Z</time></trkpt><trkpt lat="43.9183079" lon="7.8456016"><ele>195.0</ele><time>2026-04-26T08:19:05.337Z</time></trkpt><trkpt lat="43.9183896" lon="7.8456328"><ele>195.0</ele><time>2026-04-26T08:19:06.337Z</time></trkpt><trkpt lat="43.9184591" lon="7.8457268"><ele>195.0</ele><time>2026-04-26T08:19:07.336Z</time></trkpt><trkpt lat="43.9185393" lon="7.8458167"><ele>195.0</ele><time>2026-04-26T08:19:08.336Z</time></trkpt><trkpt lat="43.9186115" lon="7.8458998"><ele>194.6</ele><time>2026-04-26T08:19:09.338Z</time></trkpt><trkpt lat="43.9186976" lon="7.8459564"><ele>194.2</ele><time>2026-04-26T08:19:10.336Z</time></trkpt><trkpt lat="43.9187926" lon="7.8460064"><ele>193.8</ele><time>2026-04-26T08:19:11.336Z</time></trkpt><trkpt lat="43.9188885" lon="7.8460214"><ele>193.4</ele><time>2026-04-26T08:19:12.337Z</time></trkpt><trkpt lat="43.9189773" lon="7.8460116"><ele>193.0</ele><time>2026-04-26T08:19:13.337Z</time></trkpt><trkpt lat="43.9190649" lon="7.8459666"><ele>193.0</ele><time>2026-04-26T08:19:14.337Z</time></trkpt><trkpt lat="43.919151" lon="7.8459021"><ele>193.0</ele><time>2026-04-26T08:19:15.336Z</time></trkpt><trkpt lat="43.9192374" lon="7.8458235"><ele>193.0</ele><time>2026-04-26T08:19:16.336Z</time></trkpt><trkpt lat="43.9193206" lon="7.8457526"><ele>193.0</ele><time>2026-04-26T08:19:17.336Z</time></trkpt><trkpt lat="43.9194071" lon="7.8456833"><ele>193.0</ele><time>2026-04-26T08:19:18.337Z</time></trkpt><trkpt lat="43.9194824" lon="7.8456014"><ele>193.2</ele><time>2026-04-26T08:19:19.336Z</time></trkpt><trkpt lat="43.919563" lon="7.8455026"><ele>193.4</ele><time>2026-04-26T08:19:20.337Z</time></trkpt><trkpt lat="43.9196393" lon="7.8454048"><ele>193.6</ele><time>2026-04-26T08:19:21.337Z</time></trkpt><trkpt lat="43.9197088" lon="7.8453069"><ele>193.79999999999998</ele><time>2026-04-26T08:19:22.337Z</time></trkpt><trkpt lat="43.9197799" lon="7.8452035"><ele>194.0</ele><time>2026-04-26T08:19:23.337Z</time></trkpt><trkpt lat="43.9198413" lon="7.8451096"><ele>194.0</ele><time>2026-04-26T08:19:24.338Z</time></trkpt><trkpt lat="43.9198949" lon="7.8450082"><ele>194.0</ele><time>2026-04-26T08:19:25.337Z</time></trkpt><trkpt lat="43.9199412" lon="7.8449045"><ele>194.0</ele><time>2026-04-26T08:19:26.337Z</time></trkpt><trkpt lat="43.9199815" lon="7.84479"><ele>194.0</ele><time>2026-04-26T08:19:27.337Z</time></trkpt><trkpt lat="43.9200174" lon="7.8446727"><ele>194.0</ele><time>2026-04-26T08:19:28.337Z</time></trkpt><trkpt lat="43.9200549" lon="7.8445514"><ele>195.0</ele><time>2026-04-26T08:19:29.338Z</time></trkpt><trkpt lat="43.9200942" lon="7.8444242"><ele>196.0</ele><time>2026-04-26T08:19:30.337Z</time></trkpt><trkpt lat="43.9201299" lon="7.8442907"><ele>197.0</ele><time>2026-04-26T08:19:31.338Z</time></trkpt><trkpt lat="43.9201622" lon="7.8441466"><ele>198.0</ele><time>2026-04-26T08:19:32.336Z</time></trkpt><trkpt lat="43.9201868" lon="7.8440027"><ele>199.0</ele><time>2026-04-26T08:19:33.337Z</time></trkpt><trkpt lat="43.9202105" lon="7.8438622"><ele>199.0</ele><time>2026-04-26T08:19:34.336Z</time></trkpt><trkpt lat="43.9202278" lon="7.8437101"><ele>199.0</ele><time>2026-04-26T08:19:35.337Z</time></trkpt><trkpt lat="43.9202464" lon="7.8435702"><ele>199.0</ele><time>2026-04-26T08:19:36.336Z</time></trkpt><trkpt lat="43.9202869" lon="7.8434514"><ele>199.0</ele><time>2026-04-26T08:19:37.336Z</time></trkpt><trkpt lat="43.920336" lon="7.8433531"><ele>199.0</ele><time>2026-04-26T08:19:38.337Z</time></trkpt><trkpt lat="43.9203892" lon="7.8432589"><ele>198.5</ele><time>2026-04-26T08:19:39.337Z</time></trkpt><trkpt lat="43.9204464" lon="7.8431375"><ele>198.0</ele><time>2026-04-26T08:19:40.337Z</time></trkpt><trkpt lat="43.9205097" lon="7.8430257"><ele>197.5</ele><time>2026-04-26T08:19:41.337Z</time></trkpt><trkpt lat="43.9206018" lon="7.8429153"><ele>197.0</ele><time>2026-04-26T08:19:42.336Z</time></trkpt><trkpt lat="43.9207059" lon="7.8428086"><ele>197.0</ele><time>2026-04-26T08:19:43.337Z</time></trkpt><trkpt lat="43.9208169" lon="7.8427124"><ele>197.0</ele><time>2026-04-26T08:19:44.336Z</time></trkpt><trkpt lat="43.9209432" lon="7.8426146"><ele>197.0</ele><time>2026-04-26T08:19:45.337Z</time></trkpt><trkpt lat="43.9210722" lon="7.8425277"><ele>197.0</ele><time>2026-04-26T08:19:46.336Z</time></trkpt><trkpt lat="43.9212097" lon="7.8424418"><ele>198.0</ele><time>2026-04-26T08:19:47.336Z</time></trkpt><trkpt lat="43.9213262" lon="7.8423617"><ele>199.0</ele><time>2026-04-26T08:19:48.338Z</time></trkpt><trkpt lat="43.9214492" lon="7.8422844"><ele>200.0</ele><time>2026-04-26T08:19:49.337Z</time></trkpt><trkpt lat="43.9215698" lon="7.8422333"><ele>201.0</ele><time>2026-04-26T08:19:50.337Z</time></trkpt><trkpt lat="43.9216879" lon="7.8422231"><ele>202.75</ele><time>2026-04-26T08:19:51.338Z</time></trkpt><trkpt lat="43.9217949" lon="7.8422225"><ele>204.5</ele><time>2026-04-26T08:19:52.336Z</time></trkpt><trkpt lat="43.9219163" lon="7.8422273"><ele>206.25</ele><time>2026-04-26T08:19:53.338Z</time></trkpt><trkpt lat="43.92204" lon="7.8422429"><ele>208.0</ele><time>2026-04-26T08:19:54.336Z</time></trkpt><trkpt lat="43.9221696" lon="7.8422744"><ele>208.0</ele><time>2026-04-26T08:19:55.337Z</time></trkpt><trkpt lat="43.9223063" lon="7.842314"><ele>208.0</ele><time>2026-04-26T08:19:56.337Z</time></trkpt><trkpt lat="43.9224507" lon="7.8423623"><ele>208.0</ele><time>2026-04-26T08:19:57.336Z</time></trkpt><trkpt lat="43.9225942" lon="7.8424084"><ele>208.0</ele><time>2026-04-26T08:19:58.336Z</time></trkpt><trkpt lat="43.9227442" lon="7.8424707"><ele>207.75</ele><time>2026-04-26T08:19:59.337Z</time></trkpt><trkpt lat="43.9228899" lon="7.8425515"><ele>207.5</ele><time>2026-04-26T08:20:00.336Z</time></trkpt><trkpt lat="43.9230194" lon="7.8426438"><ele>207.25</ele><time>2026-04-26T08:20:01.337Z</time></trkpt><trkpt lat="43.9231265" lon="7.8427538"><ele>207.0</ele><time>2026-04-26T08:20:02.337Z</time></trkpt><trkpt lat="43.9232141" lon="7.8428932"><ele>207.0</ele><time>2026-04-26T08:20:03.338Z</time></trkpt><trkpt lat="43.9232743" lon="7.8430257"><ele>207.0</ele><time>2026-04-26T08:20:04.337Z</time></trkpt><trkpt lat="43.9233362" lon="7.8431308"><ele>207.0</ele><time>2026-04-26T08:20:05.337Z</time></trkpt><trkpt lat="43.9234047" lon="7.8432079"><ele>207.0</ele><time>2026-04-26T08:20:06.336Z</time></trkpt><trkpt lat="43.9234878" lon="7.8432489"><ele>207.0</ele><time>2026-04-26T08:20:07.337Z</time></trkpt><trkpt lat="43.9235808" lon="7.8432794"><ele>205.5</ele><time>2026-04-26T08:20:08.336Z</time></trkpt><trkpt lat="43.9237051" lon="7.8432887"><ele>204.0</ele><time>2026-04-26T08:20:09.337Z</time></trkpt><trkpt lat="43.923817" lon="7.8433086"><ele>202.5</ele><time>2026-04-26T08:20:10.336Z</time></trkpt><trkpt lat="43.9239456" lon="7.8433191"><ele>201.0</ele><time>2026-04-26T08:20:11.336Z</time></trkpt><trkpt lat="43.9240818" lon="7.8433299"><ele>201.0</ele><time>2026-04-26T08:20:12.336Z</time></trkpt><trkpt lat="43.9242196" lon="7.8433416"><ele>201.0</ele><time>2026-04-26T08:20:13.337Z</time></trkpt><trkpt lat="43.9243596" lon="7.84335"><ele>201.0</ele><time>2026-04-26T08:20:14.336Z</time></trkpt><trkpt lat="43.9245024" lon="7.8433608"><ele>201.0</ele><time>2026-04-26T08:20:15.337Z</time></trkpt><trkpt lat="43.9246471" lon="7.8433726"><ele>203.0</ele><time>2026-04-26T08:20:16.337Z</time></trkpt><trkpt lat="43.9247885" lon="7.8433977"><ele>205.0</ele><time>2026-04-26T08:20:17.337Z</time></trkpt><trkpt lat="43.9249248" lon="7.8434162"><ele>207.0</ele><time>2026-04-26T08:20:18.336Z</time></trkpt><trkpt lat="43.9250645" lon="7.8434273"><ele>209.0</ele><time>2026-04-26T08:20:19.337Z</time></trkpt><trkpt lat="43.9252097" lon="7.8434176"><ele>212.25</ele><time>2026-04-26T08:20:20.337Z</time></trkpt><trkpt lat="43.9253606" lon="7.8434152"><ele>215.5</ele><time>2026-04-26T08:20:21.337Z</time></trkpt><trkpt lat="43.9255042" lon="7.8433974"><ele>218.75</ele><time>2026-04-26T08:20:22.336Z</time></trkpt><trkpt lat="43.9256498" lon="7.8433277"><ele>222.0</ele><time>2026-04-26T08:20:23.337Z</time></trkpt><trkpt lat="43.9257929" lon="7.8432702"><ele>230.66666666666669</ele><time>2026-04-26T08:20:24.336Z</time></trkpt><trkpt lat="43.9259423" lon="7.8432032"><ele>239.33333333333334</ele><time>2026-04-26T08:20:25.337Z</time></trkpt><trkpt lat="43.9260867" lon="7.8431289"><ele>248.0</ele><time>2026-04-26T08:20:26.338Z</time></trkpt><trkpt lat="43.9262337" lon="7.8430376"><ele>248.0</ele><time>2026-04-26T08:20:27.336Z</time></trkpt><trkpt lat="43.9263761" lon="7.8429225"><ele>248.0</ele><time>2026-04-26T08:20:28.337Z</time></trkpt><trkpt lat="43.9265185" lon="7.8428179"><ele>248.0</ele><time>2026-04-26T08:20:29.337Z</time></trkpt><trkpt lat="43.926654" lon="7.8427228"><ele>246.0</ele><time>2026-04-26T08:20:30.338Z</time></trkpt><trkpt lat="43.9268027" lon="7.8426424"><ele>244.0</ele><time>2026-04-26T08:20:31.337Z</time></trkpt><trkpt lat="43.9269447" lon="7.8425363"><ele>242.0</ele><time>2026-04-26T08:20:32.336Z</time></trkpt><trkpt lat="43.9270799" lon="7.8424094"><ele>242.0</ele><time>2026-04-26T08:20:33.338Z</time></trkpt><trkpt lat="43.927207" lon="7.8422797"><ele>242.0</ele><time>2026-04-26T08:20:34.338Z</time></trkpt><trkpt lat="43.9273379" lon="7.8421417"><ele>242.0</ele><time>2026-04-26T08:20:35.337Z</time></trkpt><trkpt lat="43.9274689" lon="7.8420024"><ele>238.66666666666669</ele><time>2026-04-26T08:20:36.338Z</time></trkpt><trkpt lat="43.9275992" lon="7.8418662"><ele>235.33333333333331</ele><time>2026-04-26T08:20:37.336Z</time></trkpt><trkpt lat="43.9277309" lon="7.8417328"><ele>232.0</ele><time>2026-04-26T08:20:38.338Z</time></trkpt><trkpt lat="43.9278571" lon="7.8415951"><ele>232.0</ele><time>2026-04-26T08:20:39.338Z</time></trkpt><trkpt lat="43.9279723" lon="7.8414555"><ele>232.0</ele><time>2026-04-26T08:20:40.336Z</time></trkpt><trkpt lat="43.9280912" lon="7.8413162"><ele>232.0</ele><time>2026-04-26T08:20:41.337Z</time></trkpt><trkpt lat="43.928192" lon="7.8411858"><ele>232.0</ele><time>2026-04-26T08:20:42.337Z</time></trkpt><trkpt lat="43.928291" lon="7.8410617"><ele>228.75</ele><time>2026-04-26T08:20:43.336Z</time></trkpt><trkpt lat="43.9284054" lon="7.8409427"><ele>225.5</ele><time>2026-04-26T08:20:44.339Z</time></trkpt><trkpt lat="43.9285255" lon="7.8408737"><ele>222.25</ele><time>2026-04-26T08:20:45.337Z</time></trkpt><trkpt lat="43.9286494" lon="7.8408385"><ele>219.0</ele><time>2026-04-26T08:20:46.336Z</time></trkpt><trkpt lat="43.9287747" lon="7.8408413"><ele>219.0</ele><time>2026-04-26T08:20:47.338Z</time></trkpt><trkpt lat="43.9289025" lon="7.8409058"><ele>219.0</ele><time>2026-04-26T08:20:48.337Z</time></trkpt><trkpt lat="43.9290193" lon="7.8410127"><ele>219.0</ele><time>2026-04-26T08:20:49.338Z</time></trkpt><trkpt lat="43.9291241" lon="7.8411617"><ele>219.0</ele><time>2026-04-26T08:20:50.338Z</time></trkpt><trkpt lat="43.9292075" lon="7.841323"><ele>220.33333333333331</ele><time>2026-04-26T08:20:51.337Z</time></trkpt><trkpt lat="43.9292752" lon="7.8414992"><ele>221.66666666666666</ele><time>2026-04-26T08:20:52.337Z</time></trkpt><trkpt lat="43.9293319" lon="7.841697"><ele>223.0</ele><time>2026-04-26T08:20:53.338Z</time></trkpt><trkpt lat="43.9293702" lon="7.8419122"><ele>223.0</ele><time>2026-04-26T08:20:54.337Z</time></trkpt><trkpt lat="43.9294066" lon="7.842125"><ele>223.0</ele><time>2026-04-26T08:20:55.337Z</time></trkpt><trkpt lat="43.929438" lon="7.8423338"><ele>223.0</ele><time>2026-04-26T08:20:56.336Z</time></trkpt><trkpt lat="43.9294723" lon="7.8425276"><ele>223.5</ele><time>2026-04-26T08:20:57.337Z</time></trkpt><trkpt lat="43.9294816" lon="7.8427096"><ele>224.0</ele><time>2026-04-26T08:20:58.338Z</time></trkpt><trkpt lat="43.929496" lon="7.8428814"><ele>224.5</ele><time>2026-04-26T08:20:59.338Z</time></trkpt><trkpt lat="43.9295203" lon="7.8430436"><ele>225.0</ele><time>2026-04-26T08:21:00.338Z</time></trkpt><trkpt lat="43.9295656" lon="7.8431931"><ele>225.0</ele><time>2026-04-26T08:21:01.337Z</time></trkpt><trkpt lat="43.9296385" lon="7.8433182"><ele>225.0</ele><time>2026-04-26T08:21:02.338Z</time></trkpt><trkpt lat="43.9297289" lon="7.8434164"><ele>225.0</ele><time>2026-04-26T08:21:03.336Z</time></trkpt><trkpt lat="43.9298264" lon="7.8434952"><ele>225.0</ele><time>2026-04-26T08:21:04.337Z</time></trkpt><trkpt lat="43.9299469" lon="7.8435075"><ele>226.75</ele><time>2026-04-26T08:21:05.338Z</time></trkpt><trkpt lat="43.9300698" lon="7.8435052"><ele>228.5</ele><time>2026-04-26T08:21:06.337Z</time></trkpt><trkpt lat="43.930191" lon="7.8434746"><ele>230.25</ele><time>2026-04-26T08:21:07.337Z</time></trkpt><trkpt lat="43.9303078" lon="7.8434231"><ele>232.0</ele><time>2026-04-26T08:21:08.336Z</time></trkpt><trkpt lat="43.9304189" lon="7.8433505"><ele>232.0</ele><time>2026-04-26T08:21:09.337Z</time></trkpt><trkpt lat="43.9305234" lon="7.8432682"><ele>232.0</ele><time>2026-04-26T08:21:10.337Z</time></trkpt><trkpt lat="43.93063" lon="7.8431909"><ele>232.0</ele><time>2026-04-26T08:21:11.337Z</time></trkpt><trkpt lat="43.9307354" lon="7.8431048"><ele>232.0</ele><time>2026-04-26T08:21:12.336Z</time></trkpt><trkpt lat="43.9308302" lon="7.8430077"><ele>236.0</ele><time>2026-04-26T08:21:13.337Z</time></trkpt><trkpt lat="43.9309202" lon="7.8428946"><ele>240.0</ele><time>2026-04-26T08:21:14.336Z</time></trkpt><trkpt lat="43.9310026" lon="7.8427641"><ele>244.0</ele><time>2026-04-26T08:21:15.338Z</time></trkpt><trkpt lat="43.9310854" lon="7.8426152"><ele>248.0</ele><time>2026-04-26T08:21:16.337Z</time></trkpt><trkpt lat="43.9311566" lon="7.8424632"><ele>248.0</ele><time>2026-04-26T08:21:17.337Z</time></trkpt><trkpt lat="43.9312308" lon="7.8423123"><ele>248.0</ele><time>2026-04-26T08:21:18.338Z</time></trkpt><trkpt lat="43.9313023" lon="7.8421692"><ele>248.0</ele><time>2026-04-26T08:21:19.337Z</time></trkpt><trkpt lat="43.9313673" lon="7.8420158"><ele>248.0</ele><time>2026-04-26T08:21:20.337Z</time></trkpt><trkpt lat="43.9314409" lon="7.8418614"><ele>247.5</ele><time>2026-04-26T08:21:21.337Z</time></trkpt><trkpt lat="43.9315051" lon="7.8417094"><ele>247.0</ele><time>2026-04-26T08:21:22.337Z</time></trkpt><trkpt lat="43.9315699" lon="7.8415587"><ele>246.5</ele><time>2026-04-26T08:21:23.337Z</time></trkpt><trkpt lat="43.9316351" lon="7.8414097"><ele>246.0</ele><time>2026-04-26T08:21:24.337Z</time></trkpt><trkpt lat="43.9317136" lon="7.8412724"><ele>253.5</ele><time>2026-04-26T08:21:25.338Z</time></trkpt><trkpt lat="43.931807" lon="7.8411607"><ele>261.0</ele><time>2026-04-26T08:21:26.337Z</time></trkpt><trkpt lat="43.9319064" lon="7.8410669"><ele>268.5</ele><time>2026-04-26T08:21:27.337Z</time></trkpt><trkpt lat="43.9320289" lon="7.8410287"><ele>276.0</ele><time>2026-04-26T08:21:28.337Z</time></trkpt><trkpt lat="43.9321619" lon="7.8410026"><ele>276.0</ele><time>2026-04-26T08:21:29.336Z</time></trkpt><trkpt lat="43.9323059" lon="7.8409908"><ele>276.0</ele><time>2026-04-26T08:21:30.337Z</time></trkpt><trkpt lat="43.9324496" lon="7.8409729"><ele>276.0</ele><time>2026-04-26T08:21:31.337Z</time></trkpt><trkpt lat="43.9325916" lon="7.8409525"><ele>276.0</ele><time>2026-04-26T08:21:32.338Z</time></trkpt><trkpt lat="43.9327344" lon="7.8409283"><ele>272.75</ele><time>2026-04-26T08:21:33.336Z</time></trkpt><trkpt lat="43.9328656" lon="7.8409034"><ele>269.5</ele><time>2026-04-26T08:21:34.337Z</time></trkpt><trkpt lat="43.9329899" lon="7.8408762"><ele>266.25</ele><time>2026-04-26T08:21:35.337Z</time></trkpt><trkpt lat="43.9331089" lon="7.840843"><ele>263.0</ele><time>2026-04-26T08:21:36.338Z</time></trkpt><trkpt lat="43.9332196" lon="7.8407733"><ele>263.0</ele><time>2026-04-26T08:21:37.337Z</time></trkpt><trkpt lat="43.9333272" lon="7.8406862"><ele>263.0</ele><time>2026-04-26T08:21:38.338Z</time></trkpt><trkpt lat="43.9334385" lon="7.8406042"><ele>263.0</ele><time>2026-04-26T08:21:39.338Z</time></trkpt><trkpt lat="43.9335461" lon="7.8405192"><ele>263.0</ele><time>2026-04-26T08:21:40.338Z</time></trkpt><trkpt lat="43.933649" lon="7.8404302"><ele>267.5</ele><time>2026-04-26T08:21:41.338Z</time></trkpt><trkpt lat="43.9337539" lon="7.8403364"><ele>272.0</ele><time>2026-04-26T08:21:42.337Z</time></trkpt><trkpt lat="43.9338593" lon="7.8402669"><ele>276.5</ele><time>2026-04-26T08:21:43.338Z</time></trkpt><trkpt lat="43.9339656" lon="7.8402193"><ele>281.0</ele><time>2026-04-26T08:21:44.338Z</time></trkpt><trkpt lat="43.9340822" lon="7.8402503"><ele>281.0</ele><time>2026-04-26T08:21:45.337Z</time></trkpt><trkpt lat="43.9341899" lon="7.8402832"><ele>281.0</ele><time>2026-04-26T08:21:46.337Z</time></trkpt><trkpt lat="43.9342896" lon="7.8403576"><ele>281.0</ele><time>2026-04-26T08:21:47.337Z</time></trkpt><trkpt lat="43.9343914" lon="7.8404068"><ele>281.0</ele><time>2026-04-26T08:21:48.337Z</time></trkpt><trkpt lat="43.9344918" lon="7.8404268"><ele>281.0</ele><time>2026-04-26T08:21:49.337Z</time></trkpt><trkpt lat="43.934594" lon="7.8404527"><ele>282.0</ele><time>2026-04-26T08:21:50.337Z</time></trkpt><trkpt lat="43.9346998" lon="7.8404806"><ele>283.0</ele><time>2026-04-26T08:21:51.338Z</time></trkpt><trkpt lat="43.934798" lon="7.8405109"><ele>284.0</ele><time>2026-04-26T08:21:52.338Z</time></trkpt><trkpt lat="43.9349034" lon="7.8405473"><ele>285.0</ele><time>2026-04-26T08:21:53.338Z</time></trkpt><trkpt lat="43.935007" lon="7.8405891"><ele>286.0</ele><time>2026-04-26T08:21:54.337Z</time></trkpt><trkpt lat="43.9351086" lon="7.8406221"><ele>289.5</ele><time>2026-04-26T08:21:55.336Z</time></trkpt><trkpt lat="43.9352164" lon="7.8406333"><ele>293.0</ele><time>2026-04-26T08:21:56.338Z</time></trkpt><trkpt lat="43.9353301" lon="7.8406047"><ele>296.5</ele><time>2026-04-26T08:21:57.338Z</time></trkpt><trkpt lat="43.9354426" lon="7.8405652"><ele>300.0</ele><time>2026-04-26T08:21:58.337Z</time></trkpt><trkpt lat="43.9355531" lon="7.8405114"><ele>300.0</ele><time>2026-04-26T08:21:59.337Z</time></trkpt><trkpt lat="43.9356654" lon="7.8404482"><ele>300.0</ele><time>2026-04-26T08:22:00.337Z</time></trkpt><trkpt lat="43.9357828" lon="7.8403932"><ele>300.0</ele><time>2026-04-26T08:22:01.338Z</time></trkpt><trkpt lat="43.9358934" lon="7.840339"><ele>300.0</ele><time>2026-04-26T08:22:02.337Z</time></trkpt><trkpt lat="43.9359991" lon="7.8402694"><ele>301.0</ele><time>2026-04-26T08:22:03.337Z</time></trkpt><trkpt lat="43.9360995" lon="7.8401758"><ele>302.0</ele><time>2026-04-26T08:22:04.336Z</time></trkpt><trkpt lat="43.936192" lon="7.8400658"><ele>303.0</ele><time>2026-04-26T08:22:05.336Z</time></trkpt><trkpt lat="43.9362839" lon="7.839926"><ele>304.0</ele><time>2026-04-26T08:22:06.338Z</time></trkpt><trkpt lat="43.9363709" lon="7.8398103"><ele>304.0</ele><time>2026-04-26T08:22:07.338Z</time></trkpt><trkpt lat="43.9364309" lon="7.8396701"><ele>304.0</ele><time>2026-04-26T08:22:08.337Z</time></trkpt><trkpt lat="43.9364625" lon="7.8395275"><ele>304.0</ele><time>2026-04-26T08:22:09.337Z</time></trkpt><trkpt lat="43.9364845" lon="7.8393693"><ele>304.0</ele><time>2026-04-26T08:22:10.339Z</time></trkpt><trkpt lat="43.9365018" lon="7.8392094"><ele>302.0</ele><time>2026-04-26T08:22:11.339Z</time></trkpt><trkpt lat="43.9365191" lon="7.8390485"><ele>300.0</ele><time>2026-04-26T08:22:12.336Z</time></trkpt><trkpt lat="43.9365317" lon="7.8388749"><ele>298.0</ele><time>2026-04-26T08:22:13.337Z</time></trkpt><trkpt lat="43.936551" lon="7.8387061"><ele>296.0</ele><time>2026-04-26T08:22:14.338Z</time></trkpt><trkpt lat="43.936572" lon="7.8385381"><ele>295.0</ele><time>2026-04-26T08:22:15.337Z</time></trkpt><trkpt lat="43.9365913" lon="7.8383725"><ele>294.0</ele><time>2026-04-26T08:22:16.338Z</time></trkpt><trkpt lat="43.9366124" lon="7.8382033"><ele>293.0</ele><time>2026-04-26T08:22:17.337Z</time></trkpt><trkpt lat="43.9366458" lon="7.8380368"><ele>292.0</ele><time>2026-04-26T08:22:18.337Z</time></trkpt><trkpt lat="43.9366583" lon="7.8378706"><ele>292.0</ele><time>2026-04-26T08:22:19.337Z</time></trkpt><trkpt lat="43.9366571" lon="7.8377053"><ele>292.0</ele><time>2026-04-26T08:22:20.337Z</time></trkpt><trkpt lat="43.9366587" lon="7.8375265"><ele>292.0</ele><time>2026-04-26T08:22:21.338Z</time></trkpt><trkpt lat="43.9366539" lon="7.8373727"><ele>292.0</ele><time>2026-04-26T08:22:22.337Z</time></trkpt><trkpt lat="43.9366634" lon="7.8372108"><ele>290.6</ele><time>2026-04-26T08:22:23.337Z</time></trkpt><trkpt lat="43.9366844" lon="7.8370611"><ele>289.2</ele><time>2026-04-26T08:22:24.337Z</time></trkpt><trkpt lat="43.9367592" lon="7.8369511"><ele>287.8</ele><time>2026-04-26T08:22:25.338Z</time></trkpt><trkpt lat="43.9368523" lon="7.8368685"><ele>286.4</ele><time>2026-04-26T08:22:26.338Z</time></trkpt><trkpt lat="43.9369462" lon="7.836795"><ele>285.0</ele><time>2026-04-26T08:22:27.337Z</time></trkpt><trkpt lat="43.9370404" lon="7.8367266"><ele>289.2</ele><time>2026-04-26T08:22:28.337Z</time></trkpt><trkpt lat="43.9371364" lon="7.8366552"><ele>293.4</ele><time>2026-04-26T08:22:29.338Z</time></trkpt><trkpt lat="43.9372249" lon="7.8365868"><ele>297.6</ele><time>2026-04-26T08:22:30.337Z</time></trkpt><trkpt lat="43.9373134" lon="7.8365275"><ele>301.8</ele><time>2026-04-26T08:22:31.338Z</time></trkpt><trkpt lat="43.9374106" lon="7.8364664"><ele>306.0</ele><time>2026-04-26T08:22:32.338Z</time></trkpt><trkpt lat="43.9375039" lon="7.836403"><ele>311.20000000000005</ele><time>2026-04-26T08:22:33.338Z</time></trkpt><trkpt lat="43.9375992" lon="7.8363329"><ele>316.40000000000003</ele><time>2026-04-26T08:22:34.337Z</time></trkpt><trkpt lat="43.9376957" lon="7.8362631"><ele>321.6</ele><time>2026-04-26T08:22:35.338Z</time></trkpt><trkpt lat="43.9378034" lon="7.8362031"><ele>326.8</ele><time>2026-04-26T08:22:36.338Z</time></trkpt><trkpt lat="43.9379077" lon="7.836148"><ele>332.0</ele><time>2026-04-26T08:22:37.337Z</time></trkpt><trkpt lat="43.9380119" lon="7.8360944"><ele>332.0</ele><time>2026-04-26T08:22:38.338Z</time></trkpt><trkpt lat="43.9381228" lon="7.8360169"><ele>332.0</ele><time>2026-04-26T08:22:39.338Z</time></trkpt><trkpt lat="43.9382251" lon="7.8359386"><ele>332.0</ele><time>2026-04-26T08:22:40.339Z</time></trkpt><trkpt lat="43.9383192" lon="7.8358367"><ele>332.0</ele><time>2026-04-26T08:22:41.338Z</time></trkpt><trkpt lat="43.9384073" lon="7.8357407"><ele>335.75</ele><time>2026-04-26T08:22:42.337Z</time></trkpt><trkpt lat="43.9385016" lon="7.8356473"><ele>339.5</ele><time>2026-04-26T08:22:43.337Z</time></trkpt><trkpt lat="43.9386027" lon="7.8355541"><ele>343.25</ele><time>2026-04-26T08:22:44.337Z</time></trkpt><trkpt lat="43.9386892" lon="7.8354499"><ele>347.0</ele><time>2026-04-26T08:22:45.338Z</time></trkpt><trkpt lat="43.9387684" lon="7.8353471"><ele>347.0</ele><time>2026-04-26T08:22:46.337Z</time></trkpt><trkpt lat="43.9388308" lon="7.835237"><ele>347.0</ele><time>2026-04-26T08:22:47.337Z</time></trkpt><trkpt lat="43.9388609" lon="7.8350922"><ele>347.0</ele><time>2026-04-26T08:22:48.339Z</time></trkpt><trkpt lat="43.9388993" lon="7.834944"><ele>347.0</ele><time>2026-04-26T08:22:49.337Z</time></trkpt><trkpt lat="43.9389347" lon="7.8347963"><ele>347.0</ele><time>2026-04-26T08:22:50.337Z</time></trkpt><trkpt lat="43.9389904" lon="7.8346438"><ele>344.25</ele><time>2026-04-26T08:22:51.337Z</time></trkpt><trkpt lat="43.9390519" lon="7.8345003"><ele>341.5</ele><time>2026-04-26T08:22:52.337Z</time></trkpt><trkpt lat="43.9391216" lon="7.834358"><ele>338.75</ele><time>2026-04-26T08:22:53.337Z</time></trkpt><trkpt lat="43.9391881" lon="7.8342195"><ele>336.0</ele><time>2026-04-26T08:22:54.337Z</time></trkpt><trkpt lat="43.9392554" lon="7.8340812"><ele>336.0</ele><time>2026-04-26T08:22:55.336Z</time></trkpt><trkpt lat="43.9393176" lon="7.8339394"><ele>336.0</ele><time>2026-04-26T08:22:56.337Z</time></trkpt><trkpt lat="43.9393748" lon="7.8338036"><ele>336.0</ele><time>2026-04-26T08:22:57.337Z</time></trkpt><trkpt lat="43.9394285" lon="7.833661"><ele>336.0</ele><time>2026-04-26T08:22:58.337Z</time></trkpt><trkpt lat="43.9394834" lon="7.8335349"><ele>331.6</ele><time>2026-04-26T08:22:59.338Z</time></trkpt><trkpt lat="43.9395221" lon="7.8333933"><ele>327.20000000000005</ele><time>2026-04-26T08:23:00.336Z</time></trkpt><trkpt lat="43.9395603" lon="7.833263"><ele>322.79999999999995</ele><time>2026-04-26T08:23:01.337Z</time></trkpt><trkpt lat="43.9395926" lon="7.8331288"><ele>318.4</ele><time>2026-04-26T08:23:02.337Z</time></trkpt><trkpt lat="43.9396637" lon="7.8330452"><ele>314.0</ele><time>2026-04-26T08:23:03.338Z</time></trkpt><trkpt lat="43.93972" lon="7.8329485"><ele>314.0</ele><time>2026-04-26T08:23:04.338Z</time></trkpt><trkpt lat="43.9398006" lon="7.8329367"><ele>314.0</ele><time>2026-04-26T08:23:05.338Z</time></trkpt><trkpt lat="43.9398682" lon="7.832938"><ele>314.0</ele><time>2026-04-26T08:23:06.337Z</time></trkpt><trkpt lat="43.9399261" lon="7.8329967"><ele>314.0</ele><time>2026-04-26T08:23:07.338Z</time></trkpt><trkpt lat="43.9399751" lon="7.8330783"><ele>314.0</ele><time>2026-04-26T08:23:08.338Z</time></trkpt><trkpt lat="43.9399978" lon="7.8331822"><ele>314.0</ele><time>2026-04-26T08:23:09.336Z</time></trkpt><trkpt lat="43.9400187" lon="7.8332964"><ele>314.0</ele><time>2026-04-26T08:23:10.337Z</time></trkpt><trkpt lat="43.9400351" lon="7.8334238"><ele>314.0</ele><time>2026-04-26T08:23:11.337Z</time></trkpt><trkpt lat="43.9400486" lon="7.8335548"><ele>314.0</ele><time>2026-04-26T08:23:12.337Z</time></trkpt><trkpt lat="43.9400765" lon="7.8336876"><ele>314.0</ele><time>2026-04-26T08:23:13.338Z</time></trkpt><trkpt lat="43.9400994" lon="7.8338417"><ele>314.0</ele><time>2026-04-26T08:23:14.339Z</time></trkpt><trkpt lat="43.9401219" lon="7.8339944"><ele>309.75</ele><time>2026-04-26T08:23:15.337Z</time></trkpt><trkpt lat="43.9401508" lon="7.8341455"><ele>305.5</ele><time>2026-04-26T08:23:16.338Z</time></trkpt><trkpt lat="43.9401933" lon="7.8342947"><ele>301.25</ele><time>2026-04-26T08:23:17.337Z</time></trkpt><trkpt lat="43.9402551" lon="7.8344257"><ele>297.0</ele><time>2026-04-26T08:23:18.338Z</time></trkpt><trkpt lat="43.9403243" lon="7.8345515"><ele>305.75</ele><time>2026-04-26T08:23:19.337Z</time></trkpt><trkpt lat="43.9403961" lon="7.8346793"><ele>314.5</ele><time>2026-04-26T08:23:20.338Z</time></trkpt><trkpt lat="43.9404616" lon="7.8348103"><ele>323.25</ele><time>2026-04-26T08:23:21.337Z</time></trkpt><trkpt lat="43.9405231" lon="7.8349466"><ele>332.0</ele><time>2026-04-26T08:23:22.337Z</time></trkpt><trkpt lat="43.9405889" lon="7.8350838"><ele>339.75</ele><time>2026-04-26T08:23:23.337Z</time></trkpt><trkpt lat="43.9406576" lon="7.8352217"><ele>347.5</ele><time>2026-04-26T08:23:24.337Z</time></trkpt><trkpt lat="43.94076" lon="7.8353189"><ele>355.25</ele><time>2026-04-26T08:23:25.338Z</time></trkpt><trkpt lat="43.9408619" lon="7.8354147"><ele>363.0</ele><time>2026-04-26T08:23:26.339Z</time></trkpt><trkpt lat="43.9409724" lon="7.8354944"><ele>363.0</ele><time>2026-04-26T08:23:27.338Z</time></trkpt><trkpt lat="43.9410866" lon="7.8355634"><ele>363.0</ele><time>2026-04-26T08:23:28.338Z</time></trkpt><trkpt lat="43.9412072" lon="7.8356075"><ele>363.0</ele><time>2026-04-26T08:23:29.338Z</time></trkpt><trkpt lat="43.941331" lon="7.8356172"><ele>363.0</ele><time>2026-04-26T08:23:30.338Z</time></trkpt><trkpt lat="43.9414549" lon="7.8356274"><ele>363.0</ele><time>2026-04-26T08:23:31.337Z</time></trkpt><trkpt lat="43.9415859" lon="7.8356283"><ele>363.0</ele><time>2026-04-26T08:23:32.338Z</time></trkpt><trkpt lat="43.9417159" lon="7.8356188"><ele>363.0</ele><time>2026-04-26T08:23:33.338Z</time></trkpt><trkpt lat="43.9418444" lon="7.8356158"><ele>363.0</ele><time>2026-04-26T08:23:34.338Z</time></trkpt><trkpt lat="43.9419791" lon="7.8356061"><ele>365.5</ele><time>2026-04-26T08:23:35.337Z</time></trkpt><trkpt lat="43.9421043" lon="7.8356005"><ele>368.0</ele><time>2026-04-26T08:23:36.336Z</time></trkpt><trkpt lat="43.9422324" lon="7.8356127"><ele>370.5</ele><time>2026-04-26T08:23:37.338Z</time></trkpt><trkpt lat="43.9423588" lon="7.8356227"><ele>373.0</ele><time>2026-04-26T08:23:38.338Z</time></trkpt><trkpt lat="43.9424808" lon="7.8356398"><ele>377.79999999999995</ele><time>2026-04-26T08:23:39.338Z</time></trkpt><trkpt lat="43.9425962" lon="7.8356622"><ele>382.6</ele><time>2026-04-26T08:23:40.338Z</time></trkpt><trkpt lat="43.942695" lon="7.8356831"><ele>387.4</ele><time>2026-04-26T08:23:41.337Z</time></trkpt><trkpt lat="43.9427942" lon="7.8357005"><ele>392.20000000000005</ele><time>2026-04-26T08:23:42.337Z</time></trkpt><trkpt lat="43.9428841" lon="7.8356928"><ele>397.0</ele><time>2026-04-26T08:23:43.338Z</time></trkpt><trkpt lat="43.9429636" lon="7.8356344"><ele>397.00000000000006</ele><time>2026-04-26T08:23:44.338Z</time></trkpt><trkpt lat="43.9430257" lon="7.8355376"><ele>397.0</ele><time>2026-04-26T08:23:45.337Z</time></trkpt><trkpt lat="43.9430631" lon="7.8354314"><ele>397.0</ele><time>2026-04-26T08:23:46.337Z</time></trkpt><trkpt lat="43.943079" lon="7.8353217"><ele>397.0</ele><time>2026-04-26T08:23:47.336Z</time></trkpt><trkpt lat="43.9431014" lon="7.8352069"><ele>397.00000000000006</ele><time>2026-04-26T08:23:48.337Z</time></trkpt><trkpt lat="43.9431442" lon="7.8351025"><ele>397.0</ele><time>2026-04-26T08:23:49.337Z</time></trkpt><trkpt lat="43.9432088" lon="7.8350163"><ele>387.20000000000005</ele><time>2026-04-26T08:23:50.337Z</time></trkpt><trkpt lat="43.9432928" lon="7.8349597"><ele>377.4</ele><time>2026-04-26T08:23:51.339Z</time></trkpt><trkpt lat="43.9433831" lon="7.8349492"><ele>367.6</ele><time>2026-04-26T08:23:52.338Z</time></trkpt><trkpt lat="43.9434705" lon="7.8349296"><ele>357.79999999999995</ele><time>2026-04-26T08:23:53.338Z</time></trkpt><trkpt lat="43.9435573" lon="7.8349095"><ele>348.0</ele><time>2026-04-26T08:23:54.338Z</time></trkpt><trkpt lat="43.9436494" lon="7.8348858"><ele>348.0</ele><time>2026-04-26T08:23:55.338Z</time></trkpt><trkpt lat="43.9437426" lon="7.8348876"><ele>348.0</ele><time>2026-04-26T08:23:56.338Z</time></trkpt><trkpt lat="43.9438262" lon="7.8348922"><ele>348.0</ele><time>2026-04-26T08:23:57.337Z</time></trkpt><trkpt lat="43.9438887" lon="7.8349621"><ele>348.0</ele><time>2026-04-26T08:23:58.338Z</time></trkpt><trkpt lat="43.94394" lon="7.8350418"><ele>348.0</ele><time>2026-04-26T08:23:59.337Z</time></trkpt><trkpt lat="43.9439741" lon="7.8351404"><ele>348.0</ele><time>2026-04-26T08:24:00.338Z</time></trkpt><trkpt lat="43.9440249" lon="7.8352387"><ele>345.2</ele><time>2026-04-26T08:24:01.337Z</time></trkpt><trkpt lat="43.9440945" lon="7.83532"><ele>342.4</ele><time>2026-04-26T08:24:02.337Z</time></trkpt><trkpt lat="43.9441736" lon="7.8353917"><ele>339.59999999999997</ele><time>2026-04-26T08:24:03.338Z</time></trkpt><trkpt lat="43.9442547" lon="7.8354575"><ele>336.79999999999995</ele><time>2026-04-26T08:24:04.337Z</time></trkpt><trkpt lat="43.9443424" lon="7.8355285"><ele>334.0</ele><time>2026-04-26T08:24:05.337Z</time></trkpt><trkpt lat="43.9444284" lon="7.8355954"><ele>334.0</ele><time>2026-04-26T08:24:06.337Z</time></trkpt><trkpt lat="43.9445124" lon="7.8356743"><ele>334.0</ele><time>2026-04-26T08:24:07.337Z</time></trkpt><trkpt lat="43.9445828" lon="7.8357709"><ele>334.0</ele><time>2026-04-26T08:24:08.339Z</time></trkpt><trkpt lat="43.9446201" lon="7.8358822"><ele>334.0</ele><time>2026-04-26T08:24:09.337Z</time></trkpt><trkpt lat="43.9446497" lon="7.8360011"><ele>334.0</ele><time>2026-04-26T08:24:10.338Z</time></trkpt><trkpt lat="43.9446831" lon="7.8361229"><ele>342.0</ele><time>2026-04-26T08:24:11.337Z</time></trkpt><trkpt lat="43.9447251" lon="7.8362446"><ele>350.0</ele><time>2026-04-26T08:24:12.338Z</time></trkpt><trkpt lat="43.9447765" lon="7.8363674"><ele>358.0</ele><time>2026-04-26T08:24:13.338Z</time></trkpt><trkpt lat="43.9448335" lon="7.8364852"><ele>366.0</ele><time>2026-04-26T08:24:14.337Z</time></trkpt><trkpt lat="43.9449035" lon="7.8365879"><ele>374.0</ele><time>2026-04-26T08:24:15.337Z</time></trkpt><trkpt lat="43.9449953" lon="7.8366639"><ele>377.4</ele><time>2026-04-26T08:24:16.337Z</time></trkpt><trkpt lat="43.9450864" lon="7.8367166"><ele>380.79999999999995</ele><time>2026-04-26T08:24:17.338Z</time></trkpt><trkpt lat="43.9451892" lon="7.836756"><ele>384.20000000000005</ele><time>2026-04-26T08:24:18.337Z</time></trkpt><trkpt lat="43.9452841" lon="7.8367877"><ele>387.6</ele><time>2026-04-26T08:24:19.337Z</time></trkpt><trkpt lat="43.945374" lon="7.836828"><ele>391.0</ele><time>2026-04-26T08:24:20.337Z</time></trkpt><trkpt lat="43.9454607" lon="7.8368881"><ele>391.0</ele><time>2026-04-26T08:24:21.338Z</time></trkpt><trkpt lat="43.945543" lon="7.8369897"><ele>391.0</ele><time>2026-04-26T08:24:22.338Z</time></trkpt><trkpt lat="43.9456123" lon="7.8370929"><ele>391.0</ele><time>2026-04-26T08:24:23.337Z</time></trkpt><trkpt lat="43.9456791" lon="7.8372107"><ele>391.0</ele><time>2026-04-26T08:24:24.337Z</time></trkpt><trkpt lat="43.9457495" lon="7.837321"><ele>391.0</ele><time>2026-04-26T08:24:25.338Z</time></trkpt><trkpt lat="43.9458166" lon="7.8374276"><ele>394.00000000000006</ele><time>2026-04-26T08:24:26.338Z</time></trkpt><trkpt lat="43.9458824" lon="7.8375175"><ele>397.0</ele><time>2026-04-26T08:24:27.337Z</time></trkpt><trkpt lat="43.9459493" lon="7.837595"><ele>400.0</ele><time>2026-04-26T08:24:28.338Z</time></trkpt><trkpt lat="43.9460366" lon="7.837609"><ele>403.0</ele><time>2026-04-26T08:24:29.337Z</time></trkpt><trkpt lat="43.9461161" lon="7.8375947"><ele>406.00000000000006</ele><time>2026-04-26T08:24:30.338Z</time></trkpt><trkpt lat="43.9461812" lon="7.8375446"><ele>409.0</ele><time>2026-04-26T08:24:31.338Z</time></trkpt><trkpt lat="43.9462419" lon="7.8374582"><ele>409.0</ele><time>2026-04-26T08:24:32.338Z</time></trkpt><trkpt lat="43.9462781" lon="7.8373508"><ele>409.0</ele><time>2026-04-26T08:24:33.337Z</time></trkpt><trkpt lat="43.9463045" lon="7.8372239"><ele>409.0</ele><time>2026-04-26T08:24:34.338Z</time></trkpt><trkpt lat="43.9463297" lon="7.8370851"><ele>409.0</ele><time>2026-04-26T08:24:35.337Z</time></trkpt><trkpt lat="43.9463713" lon="7.8369417"><ele>409.0</ele><time>2026-04-26T08:24:36.337Z</time></trkpt><trkpt lat="43.9464617" lon="7.8368406"><ele>408.79999999999995</ele><time>2026-04-26T08:24:37.337Z</time></trkpt><trkpt lat="43.9465486" lon="7.8367572"><ele>408.59999999999997</ele><time>2026-04-26T08:24:38.338Z</time></trkpt><trkpt lat="43.9466521" lon="7.8367"><ele>408.4</ele><time>2026-04-26T08:24:39.338Z</time></trkpt><trkpt lat="43.9467547" lon="7.8366549"><ele>408.2</ele><time>2026-04-26T08:24:40.338Z</time></trkpt><trkpt lat="43.9468552" lon="7.8365936"><ele>408.0</ele><time>2026-04-26T08:24:41.337Z</time></trkpt><trkpt lat="43.946942" lon="7.8365149"><ele>408.0</ele><time>2026-04-26T08:24:42.337Z</time></trkpt><trkpt lat="43.9470292" lon="7.836453"><ele>408.0</ele><time>2026-04-26T08:24:43.336Z</time></trkpt><trkpt lat="43.9471175" lon="7.8363904"><ele>408.0</ele><time>2026-04-26T08:24:44.338Z</time></trkpt><trkpt lat="43.9472186" lon="7.8363716"><ele>408.0</ele><time>2026-04-26T08:24:45.338Z</time></trkpt><trkpt lat="43.947319" lon="7.8363454"><ele>408.0</ele><time>2026-04-26T08:24:46.339Z</time></trkpt><trkpt lat="43.9474181" lon="7.8362971"><ele>408.0</ele><time>2026-04-26T08:24:47.338Z</time></trkpt><trkpt lat="43.9475069" lon="7.8362349"><ele>408.0</ele><time>2026-04-26T08:24:48.338Z</time></trkpt><trkpt lat="43.9475549" lon="7.8361088"><ele>408.0</ele><time>2026-04-26T08:24:49.338Z</time></trkpt><trkpt lat="43.9476118" lon="7.8359802"><ele>408.0</ele><time>2026-04-26T08:24:50.338Z</time></trkpt><trkpt lat="43.947668" lon="7.835853"><ele>408.0</ele><time>2026-04-26T08:24:51.338Z</time></trkpt><trkpt lat="43.9477318" lon="7.8357287"><ele>407.79999999999995</ele><time>2026-04-26T08:24:52.337Z</time></trkpt><trkpt lat="43.9477985" lon="7.8356132"><ele>407.6</ele><time>2026-04-26T08:24:53.338Z</time></trkpt><trkpt lat="43.9478824" lon="7.8355161"><ele>407.4</ele><time>2026-04-26T08:24:54.337Z</time></trkpt><trkpt lat="43.947981" lon="7.835449"><ele>407.20000000000005</ele><time>2026-04-26T08:24:55.338Z</time></trkpt><trkpt lat="43.9480769" lon="7.8353941"><ele>407.0</ele><time>2026-04-26T08:24:56.337Z</time></trkpt><trkpt lat="43.9481563" lon="7.8353315"><ele>407.0</ele><time>2026-04-26T08:24:57.337Z</time></trkpt><trkpt lat="43.9482261" lon="7.8352516"><ele>407.0</ele><time>2026-04-26T08:24:58.338Z</time></trkpt><trkpt lat="43.9482801" lon="7.8351479"><ele>407.0</ele><time>2026-04-26T08:24:59.337Z</time></trkpt><trkpt lat="43.948314" lon="7.8350432"><ele>407.0</ele><time>2026-04-26T08:25:00.338Z</time></trkpt><trkpt lat="43.9483466" lon="7.834913"><ele>407.0</ele><time>2026-04-26T08:25:01.337Z</time></trkpt><trkpt lat="43.9483268" lon="7.8347675"><ele>401.20000000000005</ele><time>2026-04-26T08:25:02.337Z</time></trkpt><trkpt lat="43.9483188" lon="7.8346259"><ele>395.4</ele><time>2026-04-26T08:25:03.338Z</time></trkpt><trkpt lat="43.9483048" lon="7.8344879"><ele>389.6</ele><time>2026-04-26T08:25:04.338Z</time></trkpt><trkpt lat="43.9482958" lon="7.8343599"><ele>383.79999999999995</ele><time>2026-04-26T08:25:05.338Z</time></trkpt><trkpt lat="43.948305" lon="7.8342394"><ele>378.0</ele><time>2026-04-26T08:25:06.337Z</time></trkpt><trkpt lat="43.9483452" lon="7.8341167"><ele>379.1666666666667</ele><time>2026-04-26T08:25:07.338Z</time></trkpt><trkpt lat="43.9484223" lon="7.8340286"><ele>380.33333333333337</ele><time>2026-04-26T08:25:08.338Z</time></trkpt><trkpt lat="43.9485101" lon="7.8339842"><ele>381.5</ele><time>2026-04-26T08:25:09.338Z</time></trkpt><trkpt lat="43.9485914" lon="7.8339801"><ele>382.6666666666667</ele><time>2026-04-26T08:25:10.337Z</time></trkpt><trkpt lat="43.9486748" lon="7.8340013"><ele>383.83333333333337</ele><time>2026-04-26T08:25:11.338Z</time></trkpt><trkpt lat="43.9487543" lon="7.8340382"><ele>385.0</ele><time>2026-04-26T08:25:12.337Z</time></trkpt><trkpt lat="43.9488384" lon="7.8340746"><ele>385.00000000000006</ele><time>2026-04-26T08:25:13.337Z</time></trkpt><trkpt lat="43.9489244" lon="7.8340748"><ele>385.0</ele><time>2026-04-26T08:25:14.337Z</time></trkpt><trkpt lat="43.9489981" lon="7.8340402"><ele>385.0</ele><time>2026-04-26T08:25:15.338Z</time></trkpt><trkpt lat="43.9490686" lon="7.8339939"><ele>385.0</ele><time>2026-04-26T08:25:16.338Z</time></trkpt><trkpt lat="43.9491165" lon="7.8338951"><ele>385.00000000000006</ele><time>2026-04-26T08:25:17.337Z</time></trkpt><trkpt lat="43.9491557" lon="7.8337827"><ele>385.0</ele><time>2026-04-26T08:25:18.337Z</time></trkpt><trkpt lat="43.9491941" lon="7.8336681"><ele>385.6</ele><time>2026-04-26T08:25:19.338Z</time></trkpt><trkpt lat="43.9492452" lon="7.8335656"><ele>386.2</ele><time>2026-04-26T08:25:20.337Z</time></trkpt><trkpt lat="43.9493157" lon="7.8334897"><ele>386.79999999999995</ele><time>2026-04-26T08:25:21.337Z</time></trkpt><trkpt lat="43.9493968" lon="7.8334357"><ele>387.4</ele><time>2026-04-26T08:25:22.338Z</time></trkpt><trkpt lat="43.9494868" lon="7.8334956"><ele>388.0</ele><time>2026-04-26T08:25:23.337Z</time></trkpt><trkpt lat="43.9495707" lon="7.8335311"><ele>388.00000000000006</ele><time>2026-04-26T08:25:24.338Z</time></trkpt><trkpt lat="43.9496278" lon="7.8336227"><ele>388.0</ele><time>2026-04-26T08:25:25.338Z</time></trkpt><trkpt lat="43.9496403" lon="7.8337494"><ele>388.0</ele><time>2026-04-26T08:25:26.337Z</time></trkpt><trkpt lat="43.9496566" lon="7.8338656"><ele>388.0</ele><time>2026-04-26T08:25:27.338Z</time></trkpt><trkpt lat="43.9496884" lon="7.8339693"><ele>388.00000000000006</ele><time>2026-04-26T08:25:28.338Z</time></trkpt><trkpt lat="43.9497427" lon="7.8340501"><ele>388.0</ele><time>2026-04-26T08:25:29.337Z</time></trkpt><trkpt lat="43.9498008" lon="7.8341242"><ele>388.00000000000006</ele><time>2026-04-26T08:25:30.338Z</time></trkpt><trkpt lat="43.9498703" lon="7.8341598"><ele>388.0</ele><time>2026-04-26T08:25:31.338Z</time></trkpt><trkpt lat="43.9499643" lon="7.8341448"><ele>388.0</ele><time>2026-04-26T08:25:32.337Z</time></trkpt><trkpt lat="43.9500407" lon="7.8341192"><ele>388.0</ele><time>2026-04-26T08:25:33.338Z</time></trkpt><trkpt lat="43.9501134" lon="7.834074"><ele>388.00000000000006</ele><time>2026-04-26T08:25:34.339Z</time></trkpt><trkpt lat="43.9501915" lon="7.834009"><ele>388.0</ele><time>2026-04-26T08:25:35.339Z</time></trkpt><trkpt lat="43.950272" lon="7.8339454"><ele>388.79999999999995</ele><time>2026-04-26T08:25:36.338Z</time></trkpt><trkpt lat="43.9503668" lon="7.8339065"><ele>389.6</ele><time>2026-04-26T08:25:37.338Z</time></trkpt><trkpt lat="43.9504582" lon="7.8339021"><ele>390.4</ele><time>2026-04-26T08:25:38.338Z</time></trkpt><trkpt lat="43.9505592" lon="7.8339082"><ele>391.20000000000005</ele><time>2026-04-26T08:25:39.337Z</time></trkpt><trkpt lat="43.9506556" lon="7.8339624"><ele>392.0</ele><time>2026-04-26T08:25:40.337Z</time></trkpt><trkpt lat="43.950754" lon="7.8340319"><ele>392.0</ele><time>2026-04-26T08:25:41.337Z</time></trkpt><trkpt lat="43.9508189" lon="7.8341233"><ele>392.0</ele><time>2026-04-26T08:25:42.337Z</time></trkpt><trkpt lat="43.9509005" lon="7.8342018"><ele>392.0</ele><time>2026-04-26T08:25:43.338Z</time></trkpt><trkpt lat="43.9509723" lon="7.8342897"><ele>392.0</ele><time>2026-04-26T08:25:44.337Z</time></trkpt><trkpt lat="43.9510627" lon="7.8343268"><ele>392.0</ele><time>2026-04-26T08:25:45.337Z</time></trkpt><trkpt lat="43.9511595" lon="7.8343182"><ele>394.99999999999994</ele><time>2026-04-26T08:25:46.339Z</time></trkpt><trkpt lat="43.9512426" lon="7.8342886"><ele>398.0</ele><time>2026-04-26T08:25:47.338Z</time></trkpt><trkpt lat="43.9513132" lon="7.8342161"><ele>401.0</ele><time>2026-04-26T08:25:48.338Z</time></trkpt><trkpt lat="43.9513635" lon="7.8341195"><ele>404.0</ele><time>2026-04-26T08:25:49.338Z</time></trkpt><trkpt lat="43.9513931" lon="7.8340085"><ele>406.99999999999994</ele><time>2026-04-26T08:25:50.338Z</time></trkpt><trkpt lat="43.9513926" lon="7.8338813"><ele>410.0</ele><time>2026-04-26T08:25:51.338Z</time></trkpt><trkpt lat="43.9513888" lon="7.8337472"><ele>410.0</ele><time>2026-04-26T08:25:52.338Z</time></trkpt><trkpt lat="43.9513521" lon="7.8336049"><ele>410.0</ele><time>2026-04-26T08:25:53.338Z</time></trkpt><trkpt lat="43.9513188" lon="7.8334546"><ele>410.0</ele><time>2026-04-26T08:25:54.337Z</time></trkpt><trkpt lat="43.951277" lon="7.8333015"><ele>410.0</ele><time>2026-04-26T08:25:55.339Z</time></trkpt><trkpt lat="43.9512299" lon="7.833155"><ele>410.8</ele><time>2026-04-26T08:25:56.338Z</time></trkpt><trkpt lat="43.951203" lon="7.8330037"><ele>411.6</ele><time>2026-04-26T08:25:57.339Z</time></trkpt><trkpt lat="43.9511904" lon="7.832858"><ele>412.4</ele><time>2026-04-26T08:25:58.337Z</time></trkpt><trkpt lat="43.9512051" lon="7.8327241"><ele>413.2</ele><time>2026-04-26T08:25:59.338Z</time></trkpt><trkpt lat="43.9512437" lon="7.8326118"><ele>414.0</ele><time>2026-04-26T08:26:00.338Z</time></trkpt><trkpt lat="43.9512998" lon="7.8325116"><ele>411.79999999999995</ele><time>2026-04-26T08:26:01.339Z</time></trkpt><trkpt lat="43.9513892" lon="7.8324269"><ele>409.59999999999997</ele><time>2026-04-26T08:26:02.339Z</time></trkpt><trkpt lat="43.9514914" lon="7.8323698"><ele>407.4</ele><time>2026-04-26T08:26:03.337Z</time></trkpt><trkpt lat="43.9516004" lon="7.8323292"><ele>405.2</ele><time>2026-04-26T08:26:04.338Z</time></trkpt><trkpt lat="43.9517139" lon="7.8323023"><ele>403.0</ele><time>2026-04-26T08:26:05.337Z</time></trkpt><trkpt lat="43.9518221" lon="7.8322814"><ele>409.75</ele><time>2026-04-26T08:26:06.338Z</time></trkpt><trkpt lat="43.9519299" lon="7.8322556"><ele>416.5</ele><time>2026-04-26T08:26:07.338Z</time></trkpt><trkpt lat="43.9520165" lon="7.8321585"><ele>423.25</ele><time>2026-04-26T08:26:08.337Z</time></trkpt><trkpt lat="43.9521031" lon="7.8320607"><ele>430.0</ele><time>2026-04-26T08:26:09.338Z</time></trkpt><trkpt lat="43.952186" lon="7.8319313"><ele>424.5</ele><time>2026-04-26T08:26:10.338Z</time></trkpt><trkpt lat="43.9522554" lon="7.8318015"><ele>419.0</ele><time>2026-04-26T08:26:11.338Z</time></trkpt><trkpt lat="43.9523189" lon="7.8316671"><ele>413.5</ele><time>2026-04-26T08:26:12.337Z</time></trkpt><trkpt lat="43.9523833" lon="7.8315344"><ele>408.0</ele><time>2026-04-26T08:26:13.338Z</time></trkpt><trkpt lat="43.9524509" lon="7.8314024"><ele>408.0</ele><time>2026-04-26T08:26:14.337Z</time></trkpt><trkpt lat="43.9525186" lon="7.831277"><ele>408.0</ele><time>2026-04-26T08:26:15.337Z</time></trkpt><trkpt lat="43.952583" lon="7.8311385"><ele>408.0</ele><time>2026-04-26T08:26:16.338Z</time></trkpt><trkpt lat="43.9526336" lon="7.8309889"><ele>408.0</ele><time>2026-04-26T08:26:17.337Z</time></trkpt><trkpt lat="43.9526757" lon="7.8308323"><ele>410.5</ele><time>2026-04-26T08:26:18.338Z</time></trkpt><trkpt lat="43.9527104" lon="7.8306773"><ele>413.0</ele><time>2026-04-26T08:26:19.338Z</time></trkpt><trkpt lat="43.9527319" lon="7.8305198"><ele>415.5</ele><time>2026-04-26T08:26:20.338Z</time></trkpt><trkpt lat="43.9527458" lon="7.8303591"><ele>418.0</ele><time>2026-04-26T08:26:21.337Z</time></trkpt><trkpt lat="43.9527574" lon="7.83022"><ele>410.4</ele><time>2026-04-26T08:26:22.338Z</time></trkpt><trkpt lat="43.952772" lon="7.8300745"><ele>402.79999999999995</ele><time>2026-04-26T08:26:23.338Z</time></trkpt><trkpt lat="43.9528364" lon="7.8299859"><ele>395.2</ele><time>2026-04-26T08:26:24.338Z</time></trkpt><trkpt lat="43.9528901" lon="7.8299045"><ele>387.6</ele><time>2026-04-26T08:26:25.339Z</time></trkpt><trkpt lat="43.9529834" lon="7.8299003"><ele>380.0</ele><time>2026-04-26T08:26:26.338Z</time></trkpt><trkpt lat="43.9530747" lon="7.8298975"><ele>380.0</ele><time>2026-04-26T08:26:27.339Z</time></trkpt><trkpt lat="43.9531827" lon="7.829916"><ele>380.0</ele><time>2026-04-26T08:26:28.338Z</time></trkpt><trkpt lat="43.9532791" lon="7.8299326"><ele>380.0</ele><time>2026-04-26T08:26:29.338Z</time></trkpt><trkpt lat="43.9533715" lon="7.8299894"><ele>380.0</ele><time>2026-04-26T08:26:30.337Z</time></trkpt><trkpt lat="43.9534417" lon="7.830079"><ele>380.0</ele><time>2026-04-26T08:26:31.338Z</time></trkpt><trkpt lat="43.9535205" lon="7.8301504"><ele>382.8</ele><time>2026-04-26T08:26:32.337Z</time></trkpt><trkpt lat="43.9536012" lon="7.8301894"><ele>385.6</ele><time>2026-04-26T08:26:33.338Z</time></trkpt><trkpt lat="43.9536856" lon="7.8301996"><ele>388.4</ele><time>2026-04-26T08:26:34.337Z</time></trkpt><trkpt lat="43.9537674" lon="7.8301821"><ele>391.2</ele><time>2026-04-26T08:26:35.337Z</time></trkpt><trkpt lat="43.9538526" lon="7.8301196"><ele>394.0</ele><time>2026-04-26T08:26:36.337Z</time></trkpt><trkpt lat="43.9539544" lon="7.8300519"><ele>394.0</ele><time>2026-04-26T08:26:37.338Z</time></trkpt><trkpt lat="43.9540533" lon="7.8299949"><ele>394.0</ele><time>2026-04-26T08:26:38.338Z</time></trkpt><trkpt lat="43.9541628" lon="7.8299829"><ele>394.0</ele><time>2026-04-26T08:26:39.337Z</time></trkpt><trkpt lat="43.9542593" lon="7.8299477"><ele>394.0</ele><time>2026-04-26T08:26:40.338Z</time></trkpt><trkpt lat="43.9543487" lon="7.829893"><ele>394.0</ele><time>2026-04-26T08:26:41.338Z</time></trkpt><trkpt lat="43.9544284" lon="7.829788"><ele>397.0</ele><time>2026-04-26T08:26:42.339Z</time></trkpt><trkpt lat="43.9545076" lon="7.8296683"><ele>400.0</ele><time>2026-04-26T08:26:43.337Z</time></trkpt><trkpt lat="43.9545902" lon="7.8295569"><ele>403.0</ele><time>2026-04-26T08:26:44.337Z</time></trkpt><trkpt lat="43.9546851" lon="7.8294676"><ele>406.0</ele><time>2026-04-26T08:26:45.338Z</time></trkpt><trkpt lat="43.954794" lon="7.8294146"><ele>406.0</ele><time>2026-04-26T08:26:46.338Z</time></trkpt><trkpt lat="43.9549002" lon="7.8293647"><ele>406.0</ele><time>2026-04-26T08:26:47.338Z</time></trkpt><trkpt lat="43.9549906" lon="7.8292804"><ele>406.0</ele><time>2026-04-26T08:26:48.338Z</time></trkpt><trkpt lat="43.9550682" lon="7.829182"><ele>406.0</ele><time>2026-04-26T08:26:49.337Z</time></trkpt><trkpt lat="43.955148" lon="7.8290664"><ele>406.0</ele><time>2026-04-26T08:26:50.338Z</time></trkpt><trkpt lat="43.9552468" lon="7.8289403"><ele>406.0</ele><time>2026-04-26T08:26:51.339Z</time></trkpt><trkpt lat="43.9553316" lon="7.8288095"><ele>406.0</ele><time>2026-04-26T08:26:52.337Z</time></trkpt><trkpt lat="43.9554234" lon="7.8286745"><ele>406.0</ele><time>2026-04-26T08:26:53.338Z</time></trkpt><trkpt lat="43.9555113" lon="7.8285418"><ele>406.0</ele><time>2026-04-26T08:26:54.337Z</time></trkpt><trkpt lat="43.9555992" lon="7.8284148"><ele>408.0</ele><time>2026-04-26T08:26:55.338Z</time></trkpt><trkpt lat="43.9557029" lon="7.8283117"><ele>410.0</ele><time>2026-04-26T08:26:56.339Z</time></trkpt><trkpt lat="43.9558105" lon="7.8282364"><ele>412.0</ele><time>2026-04-26T08:26:57.338Z</time></trkpt><trkpt lat="43.9559346" lon="7.8281879"><ele>414.0</ele><time>2026-04-26T08:26:58.337Z</time></trkpt><trkpt lat="43.9560599" lon="7.8281364"><ele>414.0</ele><time>2026-04-26T08:26:59.338Z</time></trkpt><trkpt lat="43.9561827" lon="7.8280549"><ele>414.0</ele><time>2026-04-26T08:27:00.337Z</time></trkpt><trkpt lat="43.9562974" lon="7.8279568"><ele>414.0</ele><time>2026-04-26T08:27:01.339Z</time></trkpt><trkpt lat="43.9564086" lon="7.8278499"><ele>414.0</ele><time>2026-04-26T08:27:02.338Z</time></trkpt><trkpt lat="43.9565114" lon="7.8277181"><ele>418.25</ele><time>2026-04-26T08:27:03.339Z</time></trkpt><trkpt lat="43.9566058" lon="7.8275808"><ele>422.5</ele><time>2026-04-26T08:27:04.338Z</time></trkpt><trkpt lat="43.9566905" lon="7.8274416"><ele>426.75</ele><time>2026-04-26T08:27:05.338Z</time></trkpt><trkpt lat="43.956787" lon="7.8273026"><ele>431.0</ele><time>2026-04-26T08:27:06.338Z</time></trkpt><trkpt lat="43.9568924" lon="7.8271974"><ele>431.0</ele><time>2026-04-26T08:27:07.337Z</time></trkpt><trkpt lat="43.9570038" lon="7.8270835"><ele>431.0</ele><time>2026-04-26T08:27:08.338Z</time></trkpt><trkpt lat="43.9571069" lon="7.8269491"><ele>431.0</ele><time>2026-04-26T08:27:09.338Z</time></trkpt><trkpt lat="43.957205" lon="7.8267776"><ele>431.0</ele><time>2026-04-26T08:27:10.338Z</time></trkpt><trkpt lat="43.9572947" lon="7.8265957"><ele>432.3333333333333</ele><time>2026-04-26T08:27:11.337Z</time></trkpt><trkpt lat="43.9573881" lon="7.826408"><ele>433.66666666666663</ele><time>2026-04-26T08:27:12.337Z</time></trkpt><trkpt lat="43.957476" lon="7.8262283"><ele>435.0</ele><time>2026-04-26T08:27:13.338Z</time></trkpt><trkpt lat="43.9575561" lon="7.826057"><ele>425.0</ele><time>2026-04-26T08:27:14.337Z</time></trkpt><trkpt lat="43.9576341" lon="7.8258866"><ele>415.0</ele><time>2026-04-26T08:27:15.338Z</time></trkpt><trkpt lat="43.9577064" lon="7.8257292"><ele>405.0</ele><time>2026-04-26T08:27:16.338Z</time></trkpt><trkpt lat="43.9577715" lon="7.8255781"><ele>395.0</ele><time>2026-04-26T08:27:17.338Z</time></trkpt><trkpt lat="43.9578415" lon="7.825443"><ele>395.0</ele><time>2026-04-26T08:27:18.338Z</time></trkpt><trkpt lat="43.9579203" lon="7.8253334"><ele>395.0</ele><time>2026-04-26T08:27:19.338Z</time></trkpt><trkpt lat="43.9580078" lon="7.8252475"><ele>395.0</ele><time>2026-04-26T08:27:20.337Z</time></trkpt><trkpt lat="43.958109" lon="7.8252175"><ele>395.0</ele><time>2026-04-26T08:27:21.337Z</time></trkpt><trkpt lat="43.958217" lon="7.8251997"><ele>395.0</ele><time>2026-04-26T08:27:22.338Z</time></trkpt><trkpt lat="43.9583283" lon="7.825168"><ele>389.5</ele><time>2026-04-26T08:27:23.338Z</time></trkpt><trkpt lat="43.9584425" lon="7.8251207"><ele>384.0</ele><time>2026-04-26T08:27:24.339Z</time></trkpt><trkpt lat="43.9585195" lon="7.8249939"><ele>378.5</ele><time>2026-04-26T08:27:25.338Z</time></trkpt><trkpt lat="43.9585977" lon="7.824861"><ele>373.0</ele><time>2026-04-26T08:27:26.337Z</time></trkpt><trkpt lat="43.9586838" lon="7.8247257"><ele>373.0</ele><time>2026-04-26T08:27:27.337Z</time></trkpt><trkpt lat="43.9587629" lon="7.8245986"><ele>373.0</ele><time>2026-04-26T08:27:28.337Z</time></trkpt><trkpt lat="43.958835" lon="7.8244573"><ele>373.0</ele><time>2026-04-26T08:27:29.338Z</time></trkpt><trkpt lat="43.9589092" lon="7.8243309"><ele>373.0</ele><time>2026-04-26T08:27:30.338Z</time></trkpt><trkpt lat="43.9589725" lon="7.8242095"><ele>372.79999999999995</ele><time>2026-04-26T08:27:31.337Z</time></trkpt><trkpt lat="43.9590111" lon="7.8240737"><ele>372.6</ele><time>2026-04-26T08:27:32.338Z</time></trkpt><trkpt lat="43.9590399" lon="7.8239379"><ele>372.4</ele><time>2026-04-26T08:27:33.339Z</time></trkpt><trkpt lat="43.9590471" lon="7.8238012"><ele>372.20000000000005</ele><time>2026-04-26T08:27:34.338Z</time></trkpt><trkpt lat="43.9590536" lon="7.8236703"><ele>372.0</ele><time>2026-04-26T08:27:35.338Z</time></trkpt><trkpt lat="43.959103" lon="7.8235424"><ele>371.0</ele><time>2026-04-26T08:27:36.338Z</time></trkpt><trkpt lat="43.9591523" lon="7.8234067"><ele>370.0</ele><time>2026-04-26T08:27:37.338Z</time></trkpt><trkpt lat="43.9592227" lon="7.823274"><ele>369.0</ele><time>2026-04-26T08:27:38.337Z</time></trkpt><trkpt lat="43.9592964" lon="7.823123"><ele>368.0</ele><time>2026-04-26T08:27:39.338Z</time></trkpt><trkpt lat="43.9593714" lon="7.8229714"><ele>372.25</ele><time>2026-04-26T08:27:40.337Z</time></trkpt><trkpt lat="43.9594553" lon="7.8228234"><ele>376.5</ele><time>2026-04-26T08:27:41.337Z</time></trkpt><trkpt lat="43.9595361" lon="7.8226798"><ele>380.75</ele><time>2026-04-26T08:27:42.338Z</time></trkpt><trkpt lat="43.9596174" lon="7.822555"><ele>385.0</ele><time>2026-04-26T08:27:43.339Z</time></trkpt><trkpt lat="43.9596971" lon="7.8224128"><ele>385.0</ele><time>2026-04-26T08:27:44.338Z</time></trkpt><trkpt lat="43.9597699" lon="7.8222882"><ele>385.0</ele><time>2026-04-26T08:27:45.338Z</time></trkpt><trkpt lat="43.959861" lon="7.8222132"><ele>385.0</ele><time>2026-04-26T08:27:46.337Z</time></trkpt><trkpt lat="43.9599649" lon="7.8221532"><ele>385.0</ele><time>2026-04-26T08:27:47.338Z</time></trkpt><trkpt lat="43.9600843" lon="7.8221238"><ele>387.0</ele><time>2026-04-26T08:27:48.339Z</time></trkpt><trkpt lat="43.9602103" lon="7.8221152"><ele>389.0</ele><time>2026-04-26T08:27:49.338Z</time></trkpt><trkpt lat="43.9603358" lon="7.8221095"><ele>391.0</ele><time>2026-04-26T08:27:50.338Z</time></trkpt><trkpt lat="43.9604477" lon="7.8221095"><ele>393.0</ele><time>2026-04-26T08:27:51.337Z</time></trkpt><trkpt lat="43.9605635" lon="7.8221018"><ele>393.0</ele><time>2026-04-26T08:27:52.339Z</time></trkpt><trkpt lat="43.9606739" lon="7.82209"><ele>393.0</ele><time>2026-04-26T08:27:53.338Z</time></trkpt><trkpt lat="43.9607862" lon="7.8221017"><ele>393.0</ele><time>2026-04-26T08:27:54.34Z</time></trkpt><trkpt lat="43.9608906" lon="7.8221412"><ele>393.0</ele><time>2026-04-26T08:27:55.338Z</time></trkpt><trkpt lat="43.9609956" lon="7.8222008"><ele>393.0</ele><time>2026-04-26T08:27:56.338Z</time></trkpt><trkpt lat="43.9610978" lon="7.8222867"><ele>393.25</ele><time>2026-04-26T08:27:57.337Z</time></trkpt><trkpt lat="43.9612137" lon="7.8223524"><ele>393.5</ele><time>2026-04-26T08:27:58.337Z</time></trkpt><trkpt lat="43.961333" lon="7.8223988"><ele>393.75</ele><time>2026-04-26T08:27:59.338Z</time></trkpt><trkpt lat="43.9614617" lon="7.8224122"><ele>394.0</ele><time>2026-04-26T08:28:00.338Z</time></trkpt><trkpt lat="43.9615892" lon="7.8223987"><ele>397.0</ele><time>2026-04-26T08:28:01.338Z</time></trkpt><trkpt lat="43.9617162" lon="7.8223763"><ele>400.0</ele><time>2026-04-26T08:28:02.338Z</time></trkpt><trkpt lat="43.9618512" lon="7.8223308"><ele>403.0</ele><time>2026-04-26T08:28:03.337Z</time></trkpt><trkpt lat="43.9619893" lon="7.8222634"><ele>406.0</ele><time>2026-04-26T08:28:04.337Z</time></trkpt><trkpt lat="43.9621231" lon="7.8221946"><ele>406.0</ele><time>2026-04-26T08:28:05.339Z</time></trkpt><trkpt lat="43.9622561" lon="7.8221159"><ele>406.0</ele><time>2026-04-26T08:28:06.337Z</time></trkpt><trkpt lat="43.9623832" lon="7.8220399"><ele>406.0</ele><time>2026-04-26T08:28:07.337Z</time></trkpt><trkpt lat="43.9624991" lon="7.82194"><ele>406.0</ele><time>2026-04-26T08:28:08.338Z</time></trkpt><trkpt lat="43.9626102" lon="7.8218108"><ele>403.0</ele><time>2026-04-26T08:28:09.338Z</time></trkpt><trkpt lat="43.9627099" lon="7.8216681"><ele>400.0</ele><time>2026-04-26T08:28:10.338Z</time></trkpt><trkpt lat="43.9628011" lon="7.8215168"><ele>397.0</ele><time>2026-04-26T08:28:11.338Z</time></trkpt><trkpt lat="43.9628865" lon="7.8213732"><ele>394.0</ele><time>2026-04-26T08:28:12.337Z</time></trkpt><trkpt lat="43.9629663" lon="7.8212348"><ele>394.0</ele><time>2026-04-26T08:28:13.338Z</time></trkpt><trkpt lat="43.9630446" lon="7.8210818"><ele>394.0</ele><time>2026-04-26T08:28:14.338Z</time></trkpt><trkpt lat="43.9630982" lon="7.8209021"><ele>394.0</ele><time>2026-04-26T08:28:15.338Z</time></trkpt><trkpt lat="43.9631466" lon="7.8207218"><ele>394.0</ele><time>2026-04-26T08:28:16.337Z</time></trkpt><trkpt lat="43.9631898" lon="7.8205278"><ele>389.0</ele><time>2026-04-26T08:28:17.339Z</time></trkpt><trkpt lat="43.9632299" lon="7.8203358"><ele>384.0</ele><time>2026-04-26T08:28:18.338Z</time></trkpt><trkpt lat="43.9632684" lon="7.8201438"><ele>379.0</ele><time>2026-04-26T08:28:19.338Z</time></trkpt><trkpt lat="43.9633056" lon="7.8199562"><ele>374.0</ele><time>2026-04-26T08:28:20.338Z</time></trkpt><trkpt lat="43.9633435" lon="7.819776"><ele>376.75</ele><time>2026-04-26T08:28:21.339Z</time></trkpt><trkpt lat="43.9633856" lon="7.8195926"><ele>379.5</ele><time>2026-04-26T08:28:22.337Z</time></trkpt><trkpt lat="43.9634399" lon="7.8194228"><ele>382.25</ele><time>2026-04-26T08:28:23.338Z</time></trkpt><trkpt lat="43.9634834" lon="7.8192484"><ele>385.0</ele><time>2026-04-26T08:28:24.338Z</time></trkpt><trkpt lat="43.9635252" lon="7.8190782"><ele>385.0</ele><time>2026-04-26T08:28:25.337Z</time></trkpt><trkpt lat="43.9635667" lon="7.8189138"><ele>385.0</ele><time>2026-04-26T08:28:26.338Z</time></trkpt><trkpt lat="43.9636158" lon="7.8187639"><ele>385.0</ele><time>2026-04-26T08:28:27.338Z</time></trkpt><trkpt lat="43.963674" lon="7.8186234"><ele>385.0</ele><time>2026-04-26T08:28:28.337Z</time></trkpt><trkpt lat="43.9637524" lon="7.8185153"><ele>382.25</ele><time>2026-04-26T08:28:29.338Z</time></trkpt><trkpt lat="43.9638494" lon="7.8184481"><ele>379.5</ele><time>2026-04-26T08:28:30.337Z</time></trkpt><trkpt lat="43.9639793" lon="7.8184052"><ele>376.75</ele><time>2026-04-26T08:28:31.338Z</time></trkpt><trkpt lat="43.9641006" lon="7.8183403"><ele>374.0</ele><time>2026-04-26T08:28:32.337Z</time></trkpt><trkpt lat="43.9642223" lon="7.8182444"><ele>374.0</ele><time>2026-04-26T08:28:33.338Z</time></trkpt><trkpt lat="43.9643311" lon="7.818138"><ele>374.0</ele><time>2026-04-26T08:28:34.337Z</time></trkpt><trkpt lat="43.9644504" lon="7.8180474"><ele>374.0</ele><time>2026-04-26T08:28:35.338Z</time></trkpt><trkpt lat="43.9645788" lon="7.8179918"><ele>374.0</ele><time>2026-04-26T08:28:36.338Z</time></trkpt><trkpt lat="43.964709" lon="7.8179741"><ele>374.0</ele><time>2026-04-26T08:28:37.338Z</time></trkpt><trkpt lat="43.9648483" lon="7.8179872"><ele>374.0</ele><time>2026-04-26T08:28:38.338Z</time></trkpt><trkpt lat="43.9649723" lon="7.8180294"><ele>374.0</ele><time>2026-04-26T08:28:39.337Z</time></trkpt><trkpt lat="43.9651036" lon="7.8180555"><ele>374.0</ele><time>2026-04-26T08:28:40.337Z</time></trkpt><trkpt lat="43.9652378" lon="7.8180752"><ele>376.0</ele><time>2026-04-26T08:28:41.338Z</time></trkpt><trkpt lat="43.9653669" lon="7.8180649"><ele>378.0</ele><time>2026-04-26T08:28:42.338Z</time></trkpt><trkpt lat="43.9654905" lon="7.8180344"><ele>380.0</ele><time>2026-04-26T08:28:43.338Z</time></trkpt><trkpt lat="43.9656086" lon="7.8179769"><ele>382.0</ele><time>2026-04-26T08:28:44.338Z</time></trkpt><trkpt lat="43.9657211" lon="7.8178948"><ele>382.0</ele><time>2026-04-26T08:28:45.338Z</time></trkpt><trkpt lat="43.9658325" lon="7.8178048"><ele>382.0</ele><time>2026-04-26T08:28:46.339Z</time></trkpt><trkpt lat="43.9659555" lon="7.8177202"><ele>382.0</ele><time>2026-04-26T08:28:47.338Z</time></trkpt><trkpt lat="43.9660805" lon="7.8176444"><ele>382.0</ele><time>2026-04-26T08:28:48.337Z</time></trkpt><trkpt lat="43.9662254" lon="7.8176014"><ele>382.25</ele><time>2026-04-26T08:28:49.338Z</time></trkpt><trkpt lat="43.9663736" lon="7.8175928"><ele>382.5</ele><time>2026-04-26T08:28:50.339Z</time></trkpt><trkpt lat="43.9664977" lon="7.8175293"><ele>382.75</ele><time>2026-04-26T08:28:51.339Z</time></trkpt><trkpt lat="43.9666091" lon="7.8174626"><ele>383.0</ele><time>2026-04-26T08:28:52.339Z</time></trkpt><trkpt lat="43.9667193" lon="7.8173746"><ele>383.0</ele><time>2026-04-26T08:28:53.337Z</time></trkpt><trkpt lat="43.9668335" lon="7.8172931"><ele>383.0</ele><time>2026-04-26T08:28:54.339Z</time></trkpt><trkpt lat="43.9669252" lon="7.817199"><ele>383.0</ele><time>2026-04-26T08:28:55.339Z</time></trkpt><trkpt lat="43.9670061" lon="7.8170986"><ele>383.0</ele><time>2026-04-26T08:28:56.338Z</time></trkpt><trkpt lat="43.9670951" lon="7.8169895"><ele>383.0</ele><time>2026-04-26T08:28:57.339Z</time></trkpt><trkpt lat="43.9671757" lon="7.8168913"><ele>383.0</ele><time>2026-04-26T08:28:58.338Z</time></trkpt><trkpt lat="43.9672625" lon="7.8168014"><ele>383.0</ele><time>2026-04-26T08:28:59.339Z</time></trkpt><trkpt lat="43.9673317" lon="7.8167103"><ele>383.0</ele><time>2026-04-26T08:29:00.338Z</time></trkpt><trkpt lat="43.9673953" lon="7.8166296"><ele>383.0</ele><time>2026-04-26T08:29:01.337Z</time></trkpt><trkpt lat="43.9674492" lon="7.8165658"><ele>381.6666666666667</ele><time>2026-04-26T08:29:02.337Z</time></trkpt><trkpt lat="43.967502" lon="7.8165025"><ele>380.33333333333337</ele><time>2026-04-26T08:29:03.338Z</time></trkpt><trkpt lat="43.9675982" lon="7.8163925"><ele>379.0</ele><time>2026-04-26T08:29:05.338Z</time></trkpt><trkpt lat="43.9676519" lon="7.8163316"><ele>377.6666666666667</ele><time>2026-04-26T08:29:06.337Z</time></trkpt><trkpt lat="43.9677225" lon="7.8162778"><ele>376.3333333333333</ele><time>2026-04-26T08:29:07.339Z</time></trkpt><trkpt lat="43.9678054" lon="7.816231"><ele>375.0</ele><time>2026-04-26T08:29:08.339Z</time></trkpt><trkpt lat="43.9678868" lon="7.816193"><ele>375.0</ele><time>2026-04-26T08:29:09.339Z</time></trkpt><trkpt lat="43.9679798" lon="7.8161666"><ele>375.0</ele><time>2026-04-26T08:29:10.339Z</time></trkpt><trkpt lat="43.968072" lon="7.8161646"><ele>375.0</ele><time>2026-04-26T08:29:11.338Z</time></trkpt><trkpt lat="43.9681757" lon="7.8161702"><ele>375.0</ele><time>2026-04-26T08:29:12.339Z</time></trkpt><trkpt lat="43.9682652" lon="7.8161675"><ele>375.0</ele><time>2026-04-26T08:29:13.338Z</time></trkpt><trkpt lat="43.9683536" lon="7.8161637"><ele>377.5</ele><time>2026-04-26T08:29:14.337Z</time></trkpt><trkpt lat="43.9684418" lon="7.8161626"><ele>380.0</ele><time>2026-04-26T08:29:15.338Z</time></trkpt><trkpt lat="43.9685277" lon="7.816171"><ele>382.5</ele><time>2026-04-26T08:29:16.339Z</time></trkpt><trkpt lat="43.9686115" lon="7.8161837"><ele>385.0</ele><time>2026-04-26T08:29:17.339Z</time></trkpt><trkpt lat="43.9686984" lon="7.8161974"><ele>387.5</ele><time>2026-04-26T08:29:18.339Z</time></trkpt><trkpt lat="43.9687903" lon="7.8162241"><ele>390.0</ele><time>2026-04-26T08:29:19.338Z</time></trkpt><trkpt lat="43.9688833" lon="7.8162513"><ele>390.0</ele><time>2026-04-26T08:29:20.338Z</time></trkpt><trkpt lat="43.9689665" lon="7.8162758"><ele>390.0</ele><time>2026-04-26T08:29:21.338Z</time></trkpt><trkpt lat="43.9690503" lon="7.8163078"><ele>390.0</ele><time>2026-04-26T08:29:22.338Z</time></trkpt><trkpt lat="43.9691321" lon="7.8163363"><ele>390.0</ele><time>2026-04-26T08:29:23.339Z</time></trkpt><trkpt lat="43.9692068" lon="7.8163737"><ele>390.0</ele><time>2026-04-26T08:29:24.338Z</time></trkpt><trkpt lat="43.9692878" lon="7.8164054"><ele>390.0</ele><time>2026-04-26T08:29:25.339Z</time></trkpt><trkpt lat="43.9693779" lon="7.8164372"><ele>388.8</ele><time>2026-04-26T08:29:26.339Z</time></trkpt><trkpt lat="43.9694735" lon="7.8164676"><ele>387.6</ele><time>2026-04-26T08:29:27.338Z</time></trkpt><trkpt lat="43.9695751" lon="7.8164769"><ele>386.4</ele><time>2026-04-26T08:29:28.338Z</time></trkpt><trkpt lat="43.9696728" lon="7.8164845"><ele>385.2</ele><time>2026-04-26T08:29:29.337Z</time></trkpt><trkpt lat="43.969772" lon="7.8164873"><ele>384.0</ele><time>2026-04-26T08:29:30.337Z</time></trkpt><trkpt lat="43.9698784" lon="7.8164709"><ele>384.0</ele><time>2026-04-26T08:29:31.338Z</time></trkpt><trkpt lat="43.9699913" lon="7.8164554"><ele>384.0</ele><time>2026-04-26T08:29:32.338Z</time></trkpt><trkpt lat="43.970105" lon="7.8164222"><ele>384.0</ele><time>2026-04-26T08:29:33.338Z</time></trkpt><trkpt lat="43.9702176" lon="7.81639"><ele>384.0</ele><time>2026-04-26T08:29:34.337Z</time></trkpt><trkpt lat="43.9703309" lon="7.8163418"><ele>385.6666666666667</ele><time>2026-04-26T08:29:35.338Z</time></trkpt><trkpt lat="43.9704309" lon="7.816294"><ele>387.33333333333337</ele><time>2026-04-26T08:29:36.337Z</time></trkpt><trkpt lat="43.9705259" lon="7.8162529"><ele>389.0</ele><time>2026-04-26T08:29:37.339Z</time></trkpt><trkpt lat="43.9706044" lon="7.8162176"><ele>390.6666666666667</ele><time>2026-04-26T08:29:38.337Z</time></trkpt><trkpt lat="43.9706783" lon="7.8161764"><ele>392.33333333333337</ele><time>2026-04-26T08:29:39.337Z</time></trkpt><trkpt lat="43.9707489" lon="7.8161434"><ele>394.0</ele><time>2026-04-26T08:29:40.337Z</time></trkpt><trkpt lat="43.9708256" lon="7.8161063"><ele>395.1666666666667</ele><time>2026-04-26T08:29:41.338Z</time></trkpt><trkpt lat="43.9709145" lon="7.8160606"><ele>396.33333333333337</ele><time>2026-04-26T08:29:42.338Z</time></trkpt><trkpt lat="43.9710045" lon="7.8160312"><ele>397.5</ele><time>2026-04-26T08:29:43.337Z</time></trkpt><trkpt lat="43.9710875" lon="7.8159814"><ele>398.66666666666663</ele><time>2026-04-26T08:29:44.338Z</time></trkpt><trkpt lat="43.9711558" lon="7.8159515"><ele>399.8333333333333</ele><time>2026-04-26T08:29:45.339Z</time></trkpt><trkpt lat="43.9712148" lon="7.8159181"><ele>401.0</ele><time>2026-04-26T08:29:46.339Z</time></trkpt><trkpt lat="43.971325" lon="7.8158122"><ele>398.16666666666663</ele><time>2026-04-26T08:29:48.338Z</time></trkpt><trkpt lat="43.9713859" lon="7.8157313"><ele>395.3333333333333</ele><time>2026-04-26T08:29:49.339Z</time></trkpt><trkpt lat="43.9714249" lon="7.815634"><ele>392.5</ele><time>2026-04-26T08:29:50.338Z</time></trkpt><trkpt lat="43.971449" lon="7.8155197"><ele>389.66666666666663</ele><time>2026-04-26T08:29:51.338Z</time></trkpt><trkpt lat="43.9714632" lon="7.8153865"><ele>386.8333333333333</ele><time>2026-04-26T08:29:52.338Z</time></trkpt><trkpt lat="43.9714804" lon="7.8152508"><ele>384.0</ele><time>2026-04-26T08:29:53.339Z</time></trkpt><trkpt lat="43.9715253" lon="7.8150951"><ele>382.5</ele><time>2026-04-26T08:29:54.344Z</time></trkpt><trkpt lat="43.971577" lon="7.8149301"><ele>381.0</ele><time>2026-04-26T08:29:55.344Z</time></trkpt><trkpt lat="43.9716418" lon="7.814769"><ele>379.5</ele><time>2026-04-26T08:29:56.338Z</time></trkpt><trkpt lat="43.9717162" lon="7.8145886"><ele>378.0</ele><time>2026-04-26T08:29:57.338Z</time></trkpt><trkpt lat="43.9717954" lon="7.8143982"><ele>388.0</ele><time>2026-04-26T08:29:58.338Z</time></trkpt><trkpt lat="43.9718879" lon="7.8142185"><ele>398.0</ele><time>2026-04-26T08:29:59.339Z</time></trkpt><trkpt lat="43.9720068" lon="7.8140266"><ele>408.0</ele><time>2026-04-26T08:30:00.338Z</time></trkpt><trkpt lat="43.9721297" lon="7.8138318"><ele>408.0</ele><time>2026-04-26T08:30:01.339Z</time></trkpt><trkpt lat="43.972265" lon="7.8136358"><ele>408.0</ele><time>2026-04-26T08:30:02.339Z</time></trkpt><trkpt lat="43.9724082" lon="7.8134466"><ele>408.0</ele><time>2026-04-26T08:30:03.339Z</time></trkpt><trkpt lat="43.9725295" lon="7.813264"><ele>416.33333333333337</ele><time>2026-04-26T08:30:04.338Z</time></trkpt><trkpt lat="43.9726492" lon="7.8130922"><ele>424.6666666666667</ele><time>2026-04-26T08:30:05.339Z</time></trkpt><trkpt lat="43.9727607" lon="7.8129255"><ele>433.0</ele><time>2026-04-26T08:30:06.339Z</time></trkpt><trkpt lat="43.9728737" lon="7.8127661"><ele>421.0</ele><time>2026-04-26T08:30:07.339Z</time></trkpt><trkpt lat="43.973003" lon="7.8126204"><ele>409.0</ele><time>2026-04-26T08:30:08.339Z</time></trkpt><trkpt lat="43.9731362" lon="7.8124726"><ele>397.0</ele><time>2026-04-26T08:30:09.339Z</time></trkpt><trkpt lat="43.9732703" lon="7.8123303"><ele>396.33333333333337</ele><time>2026-04-26T08:30:10.339Z</time></trkpt><trkpt lat="43.9734123" lon="7.8121642"><ele>395.66666666666663</ele><time>2026-04-26T08:30:11.338Z</time></trkpt><trkpt lat="43.9735417" lon="7.8119939"><ele>395.0</ele><time>2026-04-26T08:30:12.339Z</time></trkpt><trkpt lat="43.9736577" lon="7.8118177"><ele>395.0</ele><time>2026-04-26T08:30:13.34Z</time></trkpt><trkpt lat="43.9737601" lon="7.8116445"><ele>395.0</ele><time>2026-04-26T08:30:14.339Z</time></trkpt><trkpt lat="43.9738423" lon="7.8114688"><ele>395.0</ele><time>2026-04-26T08:30:15.339Z</time></trkpt><trkpt lat="43.9739093" lon="7.8112787"><ele>395.0</ele><time>2026-04-26T08:30:16.338Z</time></trkpt><trkpt lat="43.9739772" lon="7.811075"><ele>395.0</ele><time>2026-04-26T08:30:17.337Z</time></trkpt><trkpt lat="43.9740413" lon="7.8108674"><ele>395.0</ele><time>2026-04-26T08:30:18.339Z</time></trkpt><trkpt lat="43.9741168" lon="7.8106555"><ele>400.3333333333333</ele><time>2026-04-26T08:30:19.338Z</time></trkpt><trkpt lat="43.974197" lon="7.8104517"><ele>405.66666666666663</ele><time>2026-04-26T08:30:20.339Z</time></trkpt><trkpt lat="43.9742698" lon="7.8102435"><ele>411.0</ele><time>2026-04-26T08:30:21.338Z</time></trkpt><trkpt lat="43.974341" lon="7.8100274"><ele>411.0</ele><time>2026-04-26T08:30:22.337Z</time></trkpt><trkpt lat="43.9744119" lon="7.8098117"><ele>411.0</ele><time>2026-04-26T08:30:23.339Z</time></trkpt><trkpt lat="43.9744939" lon="7.8095743"><ele>411.0</ele><time>2026-04-26T08:30:24.339Z</time></trkpt><trkpt lat="43.97458" lon="7.8093134"><ele>407.66666666666663</ele><time>2026-04-26T08:30:25.338Z</time></trkpt><trkpt lat="43.9746446" lon="7.8090551"><ele>404.3333333333333</ele><time>2026-04-26T08:30:26.338Z</time></trkpt><trkpt lat="43.9747032" lon="7.8088092"><ele>401.0</ele><time>2026-04-26T08:30:27.337Z</time></trkpt><trkpt lat="43.9747701" lon="7.8085778"><ele>399.0</ele><time>2026-04-26T08:30:28.337Z</time></trkpt><trkpt lat="43.9748383" lon="7.808362"><ele>397.0</ele><time>2026-04-26T08:30:29.338Z</time></trkpt><trkpt lat="43.9749016" lon="7.8081506"><ele>395.0</ele><time>2026-04-26T08:30:30.339Z</time></trkpt><trkpt lat="43.9749348" lon="7.8079428"><ele>395.0</ele><time>2026-04-26T08:30:31.338Z</time></trkpt><trkpt lat="43.9749481" lon="7.8077047"><ele>395.0</ele><time>2026-04-26T08:30:32.339Z</time></trkpt><trkpt lat="43.974957" lon="7.8074406"><ele>395.0</ele><time>2026-04-26T08:30:33.336Z</time></trkpt><trkpt lat="43.9749577" lon="7.8071589"><ele>392.3333333333333</ele><time>2026-04-26T08:30:34.338Z</time></trkpt><trkpt lat="43.9749527" lon="7.8068892"><ele>389.66666666666663</ele><time>2026-04-26T08:30:35.338Z</time></trkpt><trkpt lat="43.974943" lon="7.8066386"><ele>387.0</ele><time>2026-04-26T08:30:36.338Z</time></trkpt><trkpt lat="43.9749198" lon="7.8064067"><ele>387.0</ele><time>2026-04-26T08:30:37.337Z</time></trkpt><trkpt lat="43.9749058" lon="7.8061774"><ele>387.0</ele><time>2026-04-26T08:30:38.338Z</time></trkpt><trkpt lat="43.97486" lon="7.8059495"><ele>387.0</ele><time>2026-04-26T08:30:39.338Z</time></trkpt><trkpt lat="43.9748197" lon="7.8057236"><ele>387.33333333333337</ele><time>2026-04-26T08:30:40.339Z</time></trkpt><trkpt lat="43.9747712" lon="7.8054965"><ele>387.6666666666667</ele><time>2026-04-26T08:30:41.338Z</time></trkpt><trkpt lat="43.974726" lon="7.8052692"><ele>388.0</ele><time>2026-04-26T08:30:42.338Z</time></trkpt><trkpt lat="43.9746879" lon="7.805021"><ele>391.6666666666667</ele><time>2026-04-26T08:30:43.339Z</time></trkpt><trkpt lat="43.9746746" lon="7.8047518"><ele>395.33333333333337</ele><time>2026-04-26T08:30:44.337Z</time></trkpt><trkpt lat="43.9746571" lon="7.8044915"><ele>399.0</ele><time>2026-04-26T08:30:45.338Z</time></trkpt><trkpt lat="43.974662" lon="7.8042467"><ele>400.66666666666663</ele><time>2026-04-26T08:30:46.339Z</time></trkpt><trkpt lat="43.9746719" lon="7.8040045"><ele>402.3333333333333</ele><time>2026-04-26T08:30:47.339Z</time></trkpt><trkpt lat="43.9747406" lon="7.8038123"><ele>404.0</ele><time>2026-04-26T08:30:48.339Z</time></trkpt><trkpt lat="43.9748086" lon="7.8036255"><ele>401.66666666666663</ele><time>2026-04-26T08:30:49.338Z</time></trkpt><trkpt lat="43.974893" lon="7.8034436"><ele>399.33333333333337</ele><time>2026-04-26T08:30:50.338Z</time></trkpt><trkpt lat="43.9750039" lon="7.8032695"><ele>397.0</ele><time>2026-04-26T08:30:51.337Z</time></trkpt><trkpt lat="43.9751332" lon="7.8030987"><ele>397.33333333333337</ele><time>2026-04-26T08:30:52.338Z</time></trkpt><trkpt lat="43.9752752" lon="7.8029353"><ele>397.66666666666663</ele><time>2026-04-26T08:30:53.338Z</time></trkpt><trkpt lat="43.9754234" lon="7.8027715"><ele>398.0</ele><time>2026-04-26T08:30:54.338Z</time></trkpt><trkpt lat="43.975579" lon="7.8026201"><ele>398.0</ele><time>2026-04-26T08:30:55.338Z</time></trkpt><trkpt lat="43.9757336" lon="7.8024899"><ele>398.0</ele><time>2026-04-26T08:30:56.339Z</time></trkpt><trkpt lat="43.9758952" lon="7.8023862"><ele>398.0</ele><time>2026-04-26T08:30:57.339Z</time></trkpt><trkpt lat="43.976067" lon="7.8023146"><ele>407.3333333333333</ele><time>2026-04-26T08:30:58.338Z</time></trkpt><trkpt lat="43.9762569" lon="7.802266"><ele>416.66666666666663</ele><time>2026-04-26T08:30:59.339Z</time></trkpt><trkpt lat="43.9764256" lon="7.8022305"><ele>426.0</ele><time>2026-04-26T08:31:00.339Z</time></trkpt><trkpt lat="43.9765869" lon="7.8021827"><ele>435.33333333333337</ele><time>2026-04-26T08:31:01.338Z</time></trkpt><trkpt lat="43.9767446" lon="7.8020944"><ele>444.6666666666667</ele><time>2026-04-26T08:31:02.339Z</time></trkpt><trkpt lat="43.9769093" lon="7.8019782"><ele>454.0</ele><time>2026-04-26T08:31:03.338Z</time></trkpt><trkpt lat="43.9770731" lon="7.8018333"><ele>453.33333333333337</ele><time>2026-04-26T08:31:04.339Z</time></trkpt><trkpt lat="43.977229" lon="7.8016853"><ele>452.66666666666663</ele><time>2026-04-26T08:31:05.339Z</time></trkpt><trkpt lat="43.9773781" lon="7.8015483"><ele>452.0</ele><time>2026-04-26T08:31:06.338Z</time></trkpt><trkpt lat="43.9775252" lon="7.801424"><ele>452.0</ele><time>2026-04-26T08:31:07.337Z</time></trkpt><trkpt lat="43.9776607" lon="7.8012913"><ele>452.0</ele><time>2026-04-26T08:31:08.339Z</time></trkpt><trkpt lat="43.9777797" lon="7.8011367"><ele>452.0</ele><time>2026-04-26T08:31:09.339Z</time></trkpt><trkpt lat="43.9779029" lon="7.8009667"><ele>440.66666666666663</ele><time>2026-04-26T08:31:10.338Z</time></trkpt><trkpt lat="43.9780403" lon="7.8007782"><ele>429.33333333333337</ele><time>2026-04-26T08:31:11.339Z</time></trkpt><trkpt lat="43.97819" lon="7.8005759"><ele>418.0</ele><time>2026-04-26T08:31:12.337Z</time></trkpt><trkpt lat="43.9783308" lon="7.800388"><ele>422.0</ele><time>2026-04-26T08:31:13.339Z</time></trkpt><trkpt lat="43.9784609" lon="7.8002021"><ele>426.0</ele><time>2026-04-26T08:31:14.338Z</time></trkpt><trkpt lat="43.9785865" lon="7.8000077"><ele>430.0</ele><time>2026-04-26T08:31:15.339Z</time></trkpt><trkpt lat="43.9787042" lon="7.7997946"><ele>430.0</ele><time>2026-04-26T08:31:16.338Z</time></trkpt><trkpt lat="43.9788237" lon="7.7995537"><ele>430.0</ele><time>2026-04-26T08:31:17.338Z</time></trkpt><trkpt lat="43.9789349" lon="7.7993198"><ele>430.0</ele><time>2026-04-26T08:31:18.338Z</time></trkpt><trkpt lat="43.9790358" lon="7.7991081"><ele>425.33333333333337</ele><time>2026-04-26T08:31:19.339Z</time></trkpt><trkpt lat="43.9791235" lon="7.7988917"><ele>420.66666666666663</ele><time>2026-04-26T08:31:20.339Z</time></trkpt><trkpt lat="43.9792026" lon="7.7986639"><ele>416.0</ele><time>2026-04-26T08:31:21.339Z</time></trkpt><trkpt lat="43.979269" lon="7.7984167"><ele>430.66666666666663</ele><time>2026-04-26T08:31:22.339Z</time></trkpt><trkpt lat="43.9793337" lon="7.7981612"><ele>445.33333333333337</ele><time>2026-04-26T08:31:23.338Z</time></trkpt><trkpt lat="43.9793974" lon="7.797912"><ele>460.0</ele><time>2026-04-26T08:31:24.34Z</time></trkpt><trkpt lat="43.9794517" lon="7.7976793"><ele>452.33333333333337</ele><time>2026-04-26T08:31:25.338Z</time></trkpt><trkpt lat="43.9794829" lon="7.7974199"><ele>444.66666666666663</ele><time>2026-04-26T08:31:26.339Z</time></trkpt><trkpt lat="43.9795115" lon="7.7971814"><ele>437.0</ele><time>2026-04-26T08:31:27.338Z</time></trkpt><trkpt lat="43.9795359" lon="7.7969552"><ele>434.5</ele><time>2026-04-26T08:31:28.34Z</time></trkpt><trkpt lat="43.979563" lon="7.796739"><ele>432.0</ele><time>2026-04-26T08:31:29.338Z</time></trkpt><trkpt lat="43.9795915" lon="7.7965614"><ele>429.5</ele><time>2026-04-26T08:31:30.339Z</time></trkpt><trkpt lat="43.9796204" lon="7.7963848"><ele>427.0</ele><time>2026-04-26T08:31:31.338Z</time></trkpt><trkpt lat="43.9796534" lon="7.7962258"><ele>427.0</ele><time>2026-04-26T08:31:32.338Z</time></trkpt><trkpt lat="43.9796886" lon="7.7960642"><ele>427.0</ele><time>2026-04-26T08:31:33.338Z</time></trkpt><trkpt lat="43.9797329" lon="7.7959147"><ele>427.0</ele><time>2026-04-26T08:31:34.339Z</time></trkpt><trkpt lat="43.9797702" lon="7.7957801"><ele>427.0</ele><time>2026-04-26T08:31:35.339Z</time></trkpt><trkpt lat="43.9798352" lon="7.7956405"><ele>426.25</ele><time>2026-04-26T08:31:36.339Z</time></trkpt><trkpt lat="43.9798926" lon="7.7955105"><ele>425.5</ele><time>2026-04-26T08:31:37.339Z</time></trkpt><trkpt lat="43.9799643" lon="7.7953979"><ele>424.75</ele><time>2026-04-26T08:31:38.338Z</time></trkpt><trkpt lat="43.9800411" lon="7.7952842"><ele>424.0</ele><time>2026-04-26T08:31:39.338Z</time></trkpt><trkpt lat="43.9801332" lon="7.7951696"><ele>423.25</ele><time>2026-04-26T08:31:40.338Z</time></trkpt><trkpt lat="43.9802214" lon="7.7950554"><ele>422.5</ele><time>2026-04-26T08:31:41.338Z</time></trkpt><trkpt lat="43.980298" lon="7.7949288"><ele>421.75</ele><time>2026-04-26T08:31:42.339Z</time></trkpt><trkpt lat="43.9803908" lon="7.7948001"><ele>421.0</ele><time>2026-04-26T08:31:43.339Z</time></trkpt><trkpt lat="43.9804727" lon="7.7946804"><ele>421.0</ele><time>2026-04-26T08:31:44.339Z</time></trkpt><trkpt lat="43.9805615" lon="7.7945617"><ele>421.0</ele><time>2026-04-26T08:31:45.338Z</time></trkpt><trkpt lat="43.980645" lon="7.7944452"><ele>421.0</ele><time>2026-04-26T08:31:46.338Z</time></trkpt><trkpt lat="43.9807308" lon="7.7943432"><ele>421.0</ele><time>2026-04-26T08:31:47.338Z</time></trkpt><trkpt lat="43.9808213" lon="7.7942585"><ele>422.5</ele><time>2026-04-26T08:31:48.338Z</time></trkpt><trkpt lat="43.9809167" lon="7.7941896"><ele>424.0</ele><time>2026-04-26T08:31:49.339Z</time></trkpt><trkpt lat="43.9810426" lon="7.794132"><ele>425.5</ele><time>2026-04-26T08:31:50.338Z</time></trkpt><trkpt lat="43.981172" lon="7.7940843"><ele>427.0</ele><time>2026-04-26T08:31:51.339Z</time></trkpt><trkpt lat="43.9813096" lon="7.7940406"><ele>427.0</ele><time>2026-04-26T08:31:52.339Z</time></trkpt><trkpt lat="43.9814513" lon="7.7940254"><ele>427.0</ele><time>2026-04-26T08:31:53.339Z</time></trkpt><trkpt lat="43.9815949" lon="7.7940387"><ele>427.0</ele><time>2026-04-26T08:31:54.339Z</time></trkpt><trkpt lat="43.9817327" lon="7.7940559"><ele>427.0</ele><time>2026-04-26T08:31:55.339Z</time></trkpt><trkpt lat="43.9818642" lon="7.7940745"><ele>428.0</ele><time>2026-04-26T08:31:56.338Z</time></trkpt><trkpt lat="43.9819971" lon="7.7940744"><ele>429.0</ele><time>2026-04-26T08:31:57.339Z</time></trkpt><trkpt lat="43.9821329" lon="7.794076"><ele>430.0</ele><time>2026-04-26T08:31:58.338Z</time></trkpt><trkpt lat="43.9822702" lon="7.7940678"><ele>431.0</ele><time>2026-04-26T08:31:59.339Z</time></trkpt><trkpt lat="43.9824115" lon="7.7939939"><ele>440.0</ele><time>2026-04-26T08:32:00.339Z</time></trkpt><trkpt lat="43.9825655" lon="7.7939175"><ele>449.0</ele><time>2026-04-26T08:32:01.338Z</time></trkpt><trkpt lat="43.9827241" lon="7.7938471"><ele>458.0</ele><time>2026-04-26T08:32:02.338Z</time></trkpt><trkpt lat="43.9828823" lon="7.7937537"><ele>458.0</ele><time>2026-04-26T08:32:03.339Z</time></trkpt><trkpt lat="43.9830392" lon="7.7936549"><ele>458.0</ele><time>2026-04-26T08:32:04.338Z</time></trkpt><trkpt lat="43.9831991" lon="7.7935615"><ele>458.0</ele><time>2026-04-26T08:32:05.338Z</time></trkpt><trkpt lat="43.9833483" lon="7.7934264"><ele>463.3333333333333</ele><time>2026-04-26T08:32:06.338Z</time></trkpt><trkpt lat="43.9834981" lon="7.7932831"><ele>468.66666666666663</ele><time>2026-04-26T08:32:07.338Z</time></trkpt><trkpt lat="43.9836056" lon="7.7931009"><ele>474.0</ele><time>2026-04-26T08:32:08.338Z</time></trkpt><trkpt lat="43.9837025" lon="7.7929351"><ele>474.0</ele><time>2026-04-26T08:32:09.338Z</time></trkpt><trkpt lat="43.9837722" lon="7.7927588"><ele>474.0</ele><time>2026-04-26T08:32:10.339Z</time></trkpt><trkpt lat="43.9838037" lon="7.792558"><ele>474.0</ele><time>2026-04-26T08:32:11.339Z</time></trkpt><trkpt lat="43.9838286" lon="7.7923372"><ele>466.33333333333337</ele><time>2026-04-26T08:32:12.338Z</time></trkpt><trkpt lat="43.9838445" lon="7.7921001"><ele>458.6666666666667</ele><time>2026-04-26T08:32:13.339Z</time></trkpt><trkpt lat="43.9838406" lon="7.7918436"><ele>451.0</ele><time>2026-04-26T08:32:14.338Z</time></trkpt><trkpt lat="43.9837864" lon="7.791579"><ele>451.0</ele><time>2026-04-26T08:32:15.339Z</time></trkpt><trkpt lat="43.9837293" lon="7.7913098"><ele>451.0</ele><time>2026-04-26T08:32:16.339Z</time></trkpt><trkpt lat="43.983664" lon="7.7910459"><ele>451.0</ele><time>2026-04-26T08:32:17.339Z</time></trkpt><trkpt lat="43.9835812" lon="7.7908229"><ele>453.6666666666667</ele><time>2026-04-26T08:32:18.338Z</time></trkpt><trkpt lat="43.9835347" lon="7.7906041"><ele>456.33333333333337</ele><time>2026-04-26T08:32:19.339Z</time></trkpt><trkpt lat="43.9834679" lon="7.7904046"><ele>459.0</ele><time>2026-04-26T08:32:20.339Z</time></trkpt><trkpt lat="43.9833892" lon="7.7902565"><ele>452.5</ele><time>2026-04-26T08:32:21.338Z</time></trkpt><trkpt lat="43.9833373" lon="7.7900731"><ele>446.0</ele><time>2026-04-26T08:32:22.338Z</time></trkpt><trkpt lat="43.9833073" lon="7.7898876"><ele>439.5</ele><time>2026-04-26T08:32:23.338Z</time></trkpt><trkpt lat="43.9832903" lon="7.7896815"><ele>433.0</ele><time>2026-04-26T08:32:24.339Z</time></trkpt><trkpt lat="43.983295" lon="7.7894769"><ele>433.0</ele><time>2026-04-26T08:32:25.338Z</time></trkpt><trkpt lat="43.9833333" lon="7.7892734"><ele>433.0</ele><time>2026-04-26T08:32:26.338Z</time></trkpt><trkpt lat="43.9833843" lon="7.7891154"><ele>433.0</ele><time>2026-04-26T08:32:27.339Z</time></trkpt><trkpt lat="43.9834565" lon="7.7889978"><ele>433.0</ele><time>2026-04-26T08:32:28.339Z</time></trkpt><trkpt lat="43.9835581" lon="7.7888985"><ele>435.5</ele><time>2026-04-26T08:32:29.34Z</time></trkpt><trkpt lat="43.9836706" lon="7.7887996"><ele>438.0</ele><time>2026-04-26T08:32:30.339Z</time></trkpt><trkpt lat="43.9837862" lon="7.7886883"><ele>440.5</ele><time>2026-04-26T08:32:31.339Z</time></trkpt><trkpt lat="43.9838999" lon="7.7885621"><ele>443.0</ele><time>2026-04-26T08:32:32.341Z</time></trkpt><trkpt lat="43.9840081" lon="7.7884262"><ele>443.0</ele><time>2026-04-26T08:32:33.338Z</time></trkpt><trkpt lat="43.9841189" lon="7.7882781"><ele>443.0</ele><time>2026-04-26T08:32:34.339Z</time></trkpt><trkpt lat="43.9842262" lon="7.7881348"><ele>443.0</ele><time>2026-04-26T08:32:35.339Z</time></trkpt><trkpt lat="43.9843425" lon="7.7879995"><ele>446.5</ele><time>2026-04-26T08:32:36.339Z</time></trkpt><trkpt lat="43.9844563" lon="7.787868"><ele>450.0</ele><time>2026-04-26T08:32:37.339Z</time></trkpt><trkpt lat="43.9845593" lon="7.7877442"><ele>453.5</ele><time>2026-04-26T08:32:38.338Z</time></trkpt><trkpt lat="43.9846478" lon="7.787627"><ele>457.0</ele><time>2026-04-26T08:32:39.338Z</time></trkpt><trkpt lat="43.984726" lon="7.7875013"><ele>457.0</ele><time>2026-04-26T08:32:40.339Z</time></trkpt><trkpt lat="43.9847821" lon="7.7873556"><ele>457.0</ele><time>2026-04-26T08:32:41.339Z</time></trkpt><trkpt lat="43.9848164" lon="7.7872001"><ele>457.0</ele><time>2026-04-26T08:32:42.339Z</time></trkpt><trkpt lat="43.9848332" lon="7.78704"><ele>457.0</ele><time>2026-04-26T08:32:43.34Z</time></trkpt><trkpt lat="43.9848494" lon="7.786866"><ele>455.25</ele><time>2026-04-26T08:32:44.338Z</time></trkpt><trkpt lat="43.9848702" lon="7.7866766"><ele>453.5</ele><time>2026-04-26T08:32:45.339Z</time></trkpt><trkpt lat="43.9848902" lon="7.7864942"><ele>451.75</ele><time>2026-04-26T08:32:46.34Z</time></trkpt><trkpt lat="43.984912" lon="7.7863023"><ele>450.0</ele><time>2026-04-26T08:32:47.339Z</time></trkpt><trkpt lat="43.9849344" lon="7.7860961"><ele>447.33333333333337</ele><time>2026-04-26T08:32:48.338Z</time></trkpt><trkpt lat="43.9849428" lon="7.785888"><ele>444.6666666666667</ele><time>2026-04-26T08:32:49.338Z</time></trkpt><trkpt lat="43.9849295" lon="7.7856729"><ele>442.0</ele><time>2026-04-26T08:32:50.339Z</time></trkpt><trkpt lat="43.9849186" lon="7.7854415"><ele>442.0</ele><time>2026-04-26T08:32:51.338Z</time></trkpt><trkpt lat="43.9848994" lon="7.7852124"><ele>442.0</ele><time>2026-04-26T08:32:52.338Z</time></trkpt><trkpt lat="43.9848692" lon="7.78498"><ele>442.0</ele><time>2026-04-26T08:32:53.339Z</time></trkpt><trkpt lat="43.9848409" lon="7.7847515"><ele>447.6666666666667</ele><time>2026-04-26T08:32:54.338Z</time></trkpt><trkpt lat="43.9848164" lon="7.7845151"><ele>453.33333333333337</ele><time>2026-04-26T08:32:55.338Z</time></trkpt><trkpt lat="43.9847806" lon="7.7842939"><ele>459.0</ele><time>2026-04-26T08:32:56.338Z</time></trkpt><trkpt lat="43.9847465" lon="7.7840693"><ele>461.5</ele><time>2026-04-26T08:32:57.339Z</time></trkpt><trkpt lat="43.9847095" lon="7.7838575"><ele>464.0</ele><time>2026-04-26T08:32:58.339Z</time></trkpt><trkpt lat="43.984662" lon="7.7836692"><ele>466.5</ele><time>2026-04-26T08:32:59.34Z</time></trkpt><trkpt lat="43.9846338" lon="7.7834757"><ele>469.0</ele><time>2026-04-26T08:33:00.339Z</time></trkpt><trkpt lat="43.9846193" lon="7.7832794"><ele>470.5</ele><time>2026-04-26T08:33:01.339Z</time></trkpt><trkpt lat="43.9846374" lon="7.7830862"><ele>472.0</ele><time>2026-04-26T08:33:02.338Z</time></trkpt><trkpt lat="43.984679" lon="7.7828873"><ele>473.5</ele><time>2026-04-26T08:33:03.339Z</time></trkpt><trkpt lat="43.9847477" lon="7.7826988"><ele>475.0</ele><time>2026-04-26T08:33:04.339Z</time></trkpt><trkpt lat="43.9848338" lon="7.7825159"><ele>469.6666666666667</ele><time>2026-04-26T08:33:05.339Z</time></trkpt><trkpt lat="43.9849242" lon="7.7823428"><ele>464.33333333333337</ele><time>2026-04-26T08:33:06.338Z</time></trkpt><trkpt lat="43.9850207" lon="7.7821826"><ele>459.0</ele><time>2026-04-26T08:33:07.339Z</time></trkpt><trkpt lat="43.9851288" lon="7.7820458"><ele>465.0</ele><time>2026-04-26T08:33:08.339Z</time></trkpt><trkpt lat="43.9852412" lon="7.7819053"><ele>471.0</ele><time>2026-04-26T08:33:09.338Z</time></trkpt><trkpt lat="43.9853559" lon="7.7817712"><ele>477.0</ele><time>2026-04-26T08:33:10.338Z</time></trkpt><trkpt lat="43.9854684" lon="7.7816478"><ele>483.0</ele><time>2026-04-26T08:33:11.339Z</time></trkpt><trkpt lat="43.985573" lon="7.7815256"><ele>483.0</ele><time>2026-04-26T08:33:12.339Z</time></trkpt><trkpt lat="43.9856555" lon="7.7813964"><ele>483.0</ele><time>2026-04-26T08:33:13.339Z</time></trkpt><trkpt lat="43.9857176" lon="7.78126"><ele>483.0</ele><time>2026-04-26T08:33:14.339Z</time></trkpt><trkpt lat="43.9857598" lon="7.7811142"><ele>483.0</ele><time>2026-04-26T08:33:15.338Z</time></trkpt><trkpt lat="43.9857769" lon="7.7809379"><ele>475.66666666666663</ele><time>2026-04-26T08:33:16.339Z</time></trkpt><trkpt lat="43.9857805" lon="7.7807313"><ele>468.3333333333333</ele><time>2026-04-26T08:33:17.338Z</time></trkpt><trkpt lat="43.9857874" lon="7.7805135"><ele>461.0</ele><time>2026-04-26T08:33:18.338Z</time></trkpt><trkpt lat="43.9857923" lon="7.7802924"><ele>459.66666666666663</ele><time>2026-04-26T08:33:19.339Z</time></trkpt><trkpt lat="43.9858055" lon="7.7800765"><ele>458.33333333333337</ele><time>2026-04-26T08:33:20.338Z</time></trkpt><trkpt lat="43.9858144" lon="7.7798641"><ele>457.0</ele><time>2026-04-26T08:33:21.339Z</time></trkpt><trkpt lat="43.9858204" lon="7.7796599"><ele>457.0</ele><time>2026-04-26T08:33:22.338Z</time></trkpt><trkpt lat="43.9858299" lon="7.7794687"><ele>457.0</ele><time>2026-04-26T08:33:23.34Z</time></trkpt><trkpt lat="43.985851" lon="7.7792763"><ele>457.0</ele><time>2026-04-26T08:33:24.338Z</time></trkpt><trkpt lat="43.9859044" lon="7.7790918"><ele>457.0</ele><time>2026-04-26T08:33:25.339Z</time></trkpt><trkpt lat="43.9859706" lon="7.7789135"><ele>461.0</ele><time>2026-04-26T08:33:26.34Z</time></trkpt><trkpt lat="43.9860406" lon="7.7787396"><ele>465.0</ele><time>2026-04-26T08:33:27.338Z</time></trkpt><trkpt lat="43.9861185" lon="7.7785711"><ele>469.0</ele><time>2026-04-26T08:33:28.339Z</time></trkpt><trkpt lat="43.9861992" lon="7.7784081"><ele>473.0</ele><time>2026-04-26T08:33:29.338Z</time></trkpt><trkpt lat="43.9862848" lon="7.7782469"><ele>473.0</ele><time>2026-04-26T08:33:30.338Z</time></trkpt><trkpt lat="43.9863965" lon="7.7781193"><ele>473.0</ele><time>2026-04-26T08:33:31.338Z</time></trkpt><trkpt lat="43.9865067" lon="7.7779969"><ele>473.0</ele><time>2026-04-26T08:33:32.338Z</time></trkpt><trkpt lat="43.9866362" lon="7.777891"><ele>473.0</ele><time>2026-04-26T08:33:33.338Z</time></trkpt><trkpt lat="43.9867467" lon="7.7777848"><ele>473.5</ele><time>2026-04-26T08:33:34.339Z</time></trkpt><trkpt lat="43.9868588" lon="7.7776841"><ele>474.0</ele><time>2026-04-26T08:33:35.338Z</time></trkpt><trkpt lat="43.9869595" lon="7.777589"><ele>474.5</ele><time>2026-04-26T08:33:36.34Z</time></trkpt><trkpt lat="43.9870629" lon="7.7774936"><ele>475.0</ele><time>2026-04-26T08:33:37.34Z</time></trkpt><trkpt lat="43.9871598" lon="7.7773979"><ele>475.0</ele><time>2026-04-26T08:33:38.338Z</time></trkpt><trkpt lat="43.9872554" lon="7.7773149"><ele>475.0</ele><time>2026-04-26T08:33:39.339Z</time></trkpt><trkpt lat="43.9873457" lon="7.7772359"><ele>475.0</ele><time>2026-04-26T08:33:40.339Z</time></trkpt><trkpt lat="43.9874312" lon="7.7771709"><ele>475.0</ele><time>2026-04-26T08:33:41.338Z</time></trkpt><trkpt lat="43.9875118" lon="7.7771116"><ele>475.0</ele><time>2026-04-26T08:33:42.34Z</time></trkpt><trkpt lat="43.9875902" lon="7.7770562"><ele>472.8</ele><time>2026-04-26T08:33:43.339Z</time></trkpt><trkpt lat="43.9876645" lon="7.7770011"><ele>470.6</ele><time>2026-04-26T08:33:44.338Z</time></trkpt><trkpt lat="43.9877434" lon="7.7769392"><ele>468.4</ele><time>2026-04-26T08:33:45.339Z</time></trkpt><trkpt lat="43.9878303" lon="7.7768744"><ele>466.2</ele><time>2026-04-26T08:33:46.338Z</time></trkpt><trkpt lat="43.9879202" lon="7.7768023"><ele>464.0</ele><time>2026-04-26T08:33:47.338Z</time></trkpt><trkpt lat="43.9880243" lon="7.7767339"><ele>464.0</ele><time>2026-04-26T08:33:48.339Z</time></trkpt><trkpt lat="43.9881439" lon="7.7766973"><ele>464.0</ele><time>2026-04-26T08:33:49.34Z</time></trkpt><trkpt lat="43.9882629" lon="7.7766623"><ele>464.0</ele><time>2026-04-26T08:33:50.339Z</time></trkpt><trkpt lat="43.9883928" lon="7.7766131"><ele>464.0</ele><time>2026-04-26T08:33:51.34Z</time></trkpt><trkpt lat="43.9885305" lon="7.7765526"><ele>473.25</ele><time>2026-04-26T08:33:52.339Z</time></trkpt><trkpt lat="43.9886637" lon="7.7764804"><ele>482.5</ele><time>2026-04-26T08:33:53.339Z</time></trkpt><trkpt lat="43.9887743" lon="7.7763734"><ele>491.75</ele><time>2026-04-26T08:33:54.339Z</time></trkpt><trkpt lat="43.9888814" lon="7.7762651"><ele>501.0</ele><time>2026-04-26T08:33:55.338Z</time></trkpt><trkpt lat="43.9889747" lon="7.7761516"><ele>501.0</ele><time>2026-04-26T08:33:56.339Z</time></trkpt><trkpt lat="43.9890596" lon="7.77602"><ele>501.0</ele><time>2026-04-26T08:33:57.339Z</time></trkpt><trkpt lat="43.9891424" lon="7.7758931"><ele>501.0</ele><time>2026-04-26T08:33:58.339Z</time></trkpt><trkpt lat="43.9892185" lon="7.7757818"><ele>501.0</ele><time>2026-04-26T08:33:59.339Z</time></trkpt><trkpt lat="43.9892933" lon="7.7756706"><ele>500.8</ele><time>2026-04-26T08:34:00.34Z</time></trkpt><trkpt lat="43.9893528" lon="7.7755563"><ele>500.6</ele><time>2026-04-26T08:34:01.339Z</time></trkpt><trkpt lat="43.989413" lon="7.775446"><ele>500.4</ele><time>2026-04-26T08:34:02.34Z</time></trkpt><trkpt lat="43.9894754" lon="7.7753443"><ele>500.2</ele><time>2026-04-26T08:34:03.339Z</time></trkpt><trkpt lat="43.9895019" lon="7.7752176"><ele>500.0</ele><time>2026-04-26T08:34:04.339Z</time></trkpt><trkpt lat="43.9895132" lon="7.7750907"><ele>495.8333333333333</ele><time>2026-04-26T08:34:05.339Z</time></trkpt><trkpt lat="43.9895276" lon="7.7749724"><ele>491.66666666666663</ele><time>2026-04-26T08:34:06.339Z</time></trkpt><trkpt lat="43.9895322" lon="7.7748545"><ele>487.5</ele><time>2026-04-26T08:34:07.339Z</time></trkpt><trkpt lat="43.9895435" lon="7.7747543"><ele>483.33333333333337</ele><time>2026-04-26T08:34:08.338Z</time></trkpt><trkpt lat="43.9896195" lon="7.774656"><ele>479.1666666666667</ele><time>2026-04-26T08:34:10.338Z</time></trkpt><trkpt lat="43.9897033" lon="7.7746334"><ele>475.0</ele><time>2026-04-26T08:34:12.34Z</time></trkpt><trkpt lat="43.9897757" lon="7.7746986"><ele>475.0</ele><time>2026-04-26T08:34:13.339Z</time></trkpt><trkpt lat="43.9898825" lon="7.7747231"><ele>475.0</ele><time>2026-04-26T08:34:15.339Z</time></trkpt><trkpt lat="43.9899448" lon="7.7747017"><ele>475.0</ele><time>2026-04-26T08:34:16.338Z</time></trkpt><trkpt lat="43.9900316" lon="7.7746566"><ele>475.0</ele><time>2026-04-26T08:34:18.338Z</time></trkpt><trkpt lat="43.9901077" lon="7.7745602"><ele>475.0</ele><time>2026-04-26T08:34:20.339Z</time></trkpt><trkpt lat="43.9902168" lon="7.7745027"><ele>476.6</ele><time>2026-04-26T08:34:22.338Z</time></trkpt><trkpt lat="43.9903085" lon="7.7746192"><ele>478.2</ele><time>2026-04-26T08:34:24.339Z</time></trkpt><trkpt lat="43.9903447" lon="7.7747138"><ele>479.79999999999995</ele><time>2026-04-26T08:34:25.34Z</time></trkpt><trkpt lat="43.9903955" lon="7.774813"><ele>481.4</ele><time>2026-04-26T08:34:26.339Z</time></trkpt><trkpt lat="43.990431" lon="7.7749143"><ele>483.0</ele><time>2026-04-26T08:34:27.338Z</time></trkpt><trkpt lat="43.9904685" lon="7.7750347"><ele>483.0</ele><time>2026-04-26T08:34:28.339Z</time></trkpt><trkpt lat="43.990513" lon="7.7751603"><ele>482.99999999999994</ele><time>2026-04-26T08:34:29.338Z</time></trkpt><trkpt lat="43.9905618" lon="7.7752785"><ele>482.99999999999994</ele><time>2026-04-26T08:34:30.338Z</time></trkpt><trkpt lat="43.9906006" lon="7.7753905"><ele>483.0</ele><time>2026-04-26T08:34:31.339Z</time></trkpt><trkpt lat="43.9906549" lon="7.7754985"><ele>483.0</ele><time>2026-04-26T08:34:32.337Z</time></trkpt><trkpt lat="43.9907028" lon="7.7756134"><ele>483.4</ele><time>2026-04-26T08:34:33.338Z</time></trkpt><trkpt lat="43.9907447" lon="7.7757017"><ele>483.79999999999995</ele><time>2026-04-26T08:34:34.34Z</time></trkpt><trkpt lat="43.9908065" lon="7.7757783"><ele>484.2</ele><time>2026-04-26T08:34:35.339Z</time></trkpt><trkpt lat="43.9908885" lon="7.7758174"><ele>484.6</ele><time>2026-04-26T08:34:36.338Z</time></trkpt><trkpt lat="43.9909957" lon="7.7758323"><ele>485.0</ele><time>2026-04-26T08:34:37.34Z</time></trkpt><trkpt lat="43.9911247" lon="7.7758458"><ele>483.8</ele><time>2026-04-26T08:34:38.34Z</time></trkpt><trkpt lat="43.9912466" lon="7.7758569"><ele>482.6</ele><time>2026-04-26T08:34:39.338Z</time></trkpt><trkpt lat="43.9913634" lon="7.7758622"><ele>481.4</ele><time>2026-04-26T08:34:40.339Z</time></trkpt><trkpt lat="43.9914543" lon="7.7758603"><ele>480.2</ele><time>2026-04-26T08:34:41.339Z</time></trkpt><trkpt lat="43.9915528" lon="7.7758396"><ele>479.0</ele><time>2026-04-26T08:34:42.339Z</time></trkpt><trkpt lat="43.991643" lon="7.7758091"><ele>478.6</ele><time>2026-04-26T08:34:43.339Z</time></trkpt><trkpt lat="43.9917398" lon="7.7757735"><ele>478.2</ele><time>2026-04-26T08:34:44.339Z</time></trkpt><trkpt lat="43.991825" lon="7.7757287"><ele>477.80000000000007</ele><time>2026-04-26T08:34:45.338Z</time></trkpt><trkpt lat="43.9919063" lon="7.7756563"><ele>477.40000000000003</ele><time>2026-04-26T08:34:46.338Z</time></trkpt><trkpt lat="43.9919846" lon="7.7755604"><ele>477.0</ele><time>2026-04-26T08:34:47.339Z</time></trkpt><trkpt lat="43.9920564" lon="7.7754165"><ele>477.0</ele><time>2026-04-26T08:34:48.338Z</time></trkpt><trkpt lat="43.9921352" lon="7.7752621"><ele>477.0</ele><time>2026-04-26T08:34:49.34Z</time></trkpt><trkpt lat="43.9922136" lon="7.7751163"><ele>477.0</ele><time>2026-04-26T08:34:50.34Z</time></trkpt><trkpt lat="43.9922952" lon="7.7749789"><ele>477.0</ele><time>2026-04-26T08:34:51.339Z</time></trkpt><trkpt lat="43.9923571" lon="7.7748505"><ele>479.5</ele><time>2026-04-26T08:34:52.34Z</time></trkpt><trkpt lat="43.9924027" lon="7.774721"><ele>482.0</ele><time>2026-04-26T08:34:53.338Z</time></trkpt><trkpt lat="43.992432" lon="7.7746086"><ele>484.5</ele><time>2026-04-26T08:34:54.339Z</time></trkpt><trkpt lat="43.9924753" lon="7.7745324"><ele>487.0</ele><time>2026-04-26T08:34:55.34Z</time></trkpt><trkpt lat="43.9925208" lon="7.7744693"><ele>489.5</ele><time>2026-04-26T08:34:56.339Z</time></trkpt><trkpt lat="43.9925943" lon="7.7744886"><ele>492.0</ele><time>2026-04-26T08:34:57.339Z</time></trkpt><trkpt lat="43.9926706" lon="7.7745189"><ele>495.0</ele><time>2026-04-26T08:34:58.338Z</time></trkpt><trkpt lat="43.9927412" lon="7.7745545"><ele>498.00000000000006</ele><time>2026-04-26T08:34:59.339Z</time></trkpt><trkpt lat="43.9928256" lon="7.7745821"><ele>501.00000000000006</ele><time>2026-04-26T08:35:00.339Z</time></trkpt><trkpt lat="43.9929166" lon="7.7745842"><ele>504.0</ele><time>2026-04-26T08:35:01.338Z</time></trkpt><trkpt lat="43.9930154" lon="7.7745413"><ele>507.0</ele><time>2026-04-26T08:35:02.338Z</time></trkpt><trkpt lat="43.9931185" lon="7.7744764"><ele>507.0</ele><time>2026-04-26T08:35:03.339Z</time></trkpt><trkpt lat="43.9932395" lon="7.7743926"><ele>507.0</ele><time>2026-04-26T08:35:04.339Z</time></trkpt><trkpt lat="43.9933763" lon="7.7743139"><ele>507.0</ele><time>2026-04-26T08:35:05.339Z</time></trkpt><trkpt lat="43.9935071" lon="7.7742266"><ele>507.0</ele><time>2026-04-26T08:35:06.339Z</time></trkpt><trkpt lat="43.9936381" lon="7.7741038"><ele>515.6666666666666</ele><time>2026-04-26T08:35:07.341Z</time></trkpt><trkpt lat="43.9937567" lon="7.7739606"><ele>524.3333333333333</ele><time>2026-04-26T08:35:08.34Z</time></trkpt><trkpt lat="43.9938567" lon="7.7738025"><ele>533.0</ele><time>2026-04-26T08:35:09.338Z</time></trkpt><trkpt lat="43.9939447" lon="7.7736296"><ele>539.3333333333333</ele><time>2026-04-26T08:35:10.339Z</time></trkpt><trkpt lat="43.9940227" lon="7.7734364"><ele>545.6666666666666</ele><time>2026-04-26T08:35:11.339Z</time></trkpt><trkpt lat="43.9941311" lon="7.7732559"><ele>552.0</ele><time>2026-04-26T08:35:12.339Z</time></trkpt><trkpt lat="43.9942278" lon="7.7730956"><ele>552.0</ele><time>2026-04-26T08:35:13.339Z</time></trkpt><trkpt lat="43.994318" lon="7.7729533"><ele>552.0</ele><time>2026-04-26T08:35:14.339Z</time></trkpt><trkpt lat="43.9944164" lon="7.772827"><ele>552.0</ele><time>2026-04-26T08:35:15.34Z</time></trkpt><trkpt lat="43.9945254" lon="7.7727458"><ele>552.0</ele><time>2026-04-26T08:35:16.34Z</time></trkpt><trkpt lat="43.9946593" lon="7.7726878"><ele>545.6666666666666</ele><time>2026-04-26T08:35:17.339Z</time></trkpt><trkpt lat="43.9948154" lon="7.7726389"><ele>539.3333333333333</ele><time>2026-04-26T08:35:18.339Z</time></trkpt><trkpt lat="43.9949917" lon="7.7725905"><ele>533.0</ele><time>2026-04-26T08:35:19.339Z</time></trkpt><trkpt lat="43.9951596" lon="7.7725399"><ele>533.0</ele><time>2026-04-26T08:35:20.34Z</time></trkpt><trkpt lat="43.9953152" lon="7.772487"><ele>533.0</ele><time>2026-04-26T08:35:21.338Z</time></trkpt><trkpt lat="43.9954577" lon="7.7724382"><ele>533.0</ele><time>2026-04-26T08:35:22.338Z</time></trkpt><trkpt lat="43.9955854" lon="7.7723863"><ele>533.0</ele><time>2026-04-26T08:35:23.338Z</time></trkpt><trkpt lat="43.9956948" lon="7.7723207"><ele>533.0</ele><time>2026-04-26T08:35:24.338Z</time></trkpt><trkpt lat="43.995788" lon="7.7722032"><ele>533.0</ele><time>2026-04-26T08:35:25.339Z</time></trkpt><trkpt lat="43.9958814" lon="7.7720816"><ele>533.0</ele><time>2026-04-26T08:35:26.339Z</time></trkpt><trkpt lat="43.9959798" lon="7.7719524"><ele>533.0</ele><time>2026-04-26T08:35:27.34Z</time></trkpt><trkpt lat="43.9961103" lon="7.7718387"><ele>535.5</ele><time>2026-04-26T08:35:28.338Z</time></trkpt><trkpt lat="43.9962273" lon="7.7717176"><ele>538.0</ele><time>2026-04-26T08:35:29.34Z</time></trkpt><trkpt lat="43.9963318" lon="7.7716049"><ele>540.5</ele><time>2026-04-26T08:35:30.339Z</time></trkpt><trkpt lat="43.9964277" lon="7.7714835"><ele>543.0</ele><time>2026-04-26T08:35:31.339Z</time></trkpt><trkpt lat="43.9965151" lon="7.771349"><ele>543.0</ele><time>2026-04-26T08:35:32.338Z</time></trkpt><trkpt lat="43.9965776" lon="7.7712259"><ele>543.0</ele><time>2026-04-26T08:35:33.339Z</time></trkpt><trkpt lat="43.9966454" lon="7.7711158"><ele>543.0</ele><time>2026-04-26T08:35:34.339Z</time></trkpt><trkpt lat="43.9967376" lon="7.771037"><ele>543.0</ele><time>2026-04-26T08:35:35.339Z</time></trkpt><trkpt lat="43.9968399" lon="7.7709482"><ele>543.0</ele><time>2026-04-26T08:35:36.339Z</time></trkpt><trkpt lat="43.9969319" lon="7.7708343"><ele>544.75</ele><time>2026-04-26T08:35:37.34Z</time></trkpt><trkpt lat="43.9970271" lon="7.7707251"><ele>546.5</ele><time>2026-04-26T08:35:38.339Z</time></trkpt><trkpt lat="43.9971289" lon="7.7706445"><ele>548.25</ele><time>2026-04-26T08:35:39.338Z</time></trkpt><trkpt lat="43.9972413" lon="7.7705875"><ele>550.0</ele><time>2026-04-26T08:35:40.339Z</time></trkpt><trkpt lat="43.9973648" lon="7.770566"><ele>550.0</ele><time>2026-04-26T08:35:41.338Z</time></trkpt><trkpt lat="43.9974961" lon="7.7705323"><ele>550.0</ele><time>2026-04-26T08:35:42.339Z</time></trkpt><trkpt lat="43.9976256" lon="7.7704784"><ele>550.0</ele><time>2026-04-26T08:35:43.34Z</time></trkpt><trkpt lat="43.9977465" lon="7.7704017"><ele>550.0</ele><time>2026-04-26T08:35:44.338Z</time></trkpt><trkpt lat="43.9978765" lon="7.7703243"><ele>549.25</ele><time>2026-04-26T08:35:45.339Z</time></trkpt><trkpt lat="43.9980011" lon="7.7702623"><ele>548.5</ele><time>2026-04-26T08:35:46.338Z</time></trkpt><trkpt lat="43.9981312" lon="7.7702147"><ele>547.75</ele><time>2026-04-26T08:35:47.339Z</time></trkpt><trkpt lat="43.9982593" lon="7.7701801"><ele>547.0</ele><time>2026-04-26T08:35:48.34Z</time></trkpt><trkpt lat="43.9983958" lon="7.7701638"><ele>547.0</ele><time>2026-04-26T08:35:49.339Z</time></trkpt><trkpt lat="43.9985474" lon="7.7701652"><ele>547.0</ele><time>2026-04-26T08:35:50.34Z</time></trkpt><trkpt lat="43.9987001" lon="7.770156"><ele>547.0</ele><time>2026-04-26T08:35:51.339Z</time></trkpt><trkpt lat="43.9988563" lon="7.7701473"><ele>547.0</ele><time>2026-04-26T08:35:52.34Z</time></trkpt><trkpt lat="43.9990207" lon="7.7701382"><ele>547.0</ele><time>2026-04-26T08:35:53.339Z</time></trkpt><trkpt lat="43.9991857" lon="7.7701284"><ele>547.0</ele><time>2026-04-26T08:35:54.338Z</time></trkpt><trkpt lat="43.9993455" lon="7.7701269"><ele>547.25</ele><time>2026-04-26T08:35:55.339Z</time></trkpt><trkpt lat="43.9994987" lon="7.7701232"><ele>547.5</ele><time>2026-04-26T08:35:56.338Z</time></trkpt><trkpt lat="43.9996401" lon="7.7701389"><ele>547.75</ele><time>2026-04-26T08:35:57.339Z</time></trkpt><trkpt lat="43.9997806" lon="7.7701597"><ele>548.0</ele><time>2026-04-26T08:35:58.338Z</time></trkpt><trkpt lat="43.9999083" lon="7.7701833"><ele>548.0</ele><time>2026-04-26T08:35:59.339Z</time></trkpt><trkpt lat="44.0000306" lon="7.770204"><ele>548.0</ele><time>2026-04-26T08:36:00.34Z</time></trkpt><trkpt lat="44.0001367" lon="7.7701941"><ele>548.0</ele><time>2026-04-26T08:36:01.339Z</time></trkpt><trkpt lat="44.0002384" lon="7.7701645"><ele>548.0</ele><time>2026-04-26T08:36:02.338Z</time></trkpt><trkpt lat="44.0003342" lon="7.7700913"><ele>548.0</ele><time>2026-04-26T08:36:03.339Z</time></trkpt><trkpt lat="44.0004293" lon="7.7700236"><ele>548.0</ele><time>2026-04-26T08:36:04.34Z</time></trkpt><trkpt lat="44.0005208" lon="7.7699573"><ele>548.0</ele><time>2026-04-26T08:36:05.338Z</time></trkpt><trkpt lat="44.0006102" lon="7.7698923"><ele>548.0</ele><time>2026-04-26T08:36:06.34Z</time></trkpt><trkpt lat="44.0006933" lon="7.7698356"><ele>548.0</ele><time>2026-04-26T08:36:07.339Z</time></trkpt><trkpt lat="44.0007617" lon="7.7697912"><ele>548.0</ele><time>2026-04-26T08:36:08.34Z</time></trkpt><trkpt lat="44.0008319" lon="7.7697715"><ele>548.0</ele><time>2026-04-26T08:36:09.339Z</time></trkpt><trkpt lat="44.0009506" lon="7.7697781"><ele>552.25</ele><time>2026-04-26T08:36:11.339Z</time></trkpt><trkpt lat="44.0010682" lon="7.7697805"><ele>556.5</ele><time>2026-04-26T08:36:13.339Z</time></trkpt><trkpt lat="44.0011723" lon="7.7697197"><ele>560.75</ele><time>2026-04-26T08:36:15.339Z</time></trkpt><trkpt lat="44.0012422" lon="7.7696243"><ele>565.0</ele><time>2026-04-26T08:36:17.339Z</time></trkpt><trkpt lat="44.0013191" lon="7.7694777"><ele>565.0</ele><time>2026-04-26T08:36:19.34Z</time></trkpt><trkpt lat="44.0013734" lon="7.7693655"><ele>565.0</ele><time>2026-04-26T08:36:20.339Z</time></trkpt><trkpt lat="44.0014307" lon="7.7692461"><ele>565.0</ele><time>2026-04-26T08:36:21.339Z</time></trkpt><trkpt lat="44.0014826" lon="7.7691274"><ele>565.0</ele><time>2026-04-26T08:36:22.339Z</time></trkpt><trkpt lat="44.0015233" lon="7.7689984"><ele>565.0</ele><time>2026-04-26T08:36:23.339Z</time></trkpt><trkpt lat="44.0015682" lon="7.7688747"><ele>564.6</ele><time>2026-04-26T08:36:24.34Z</time></trkpt><trkpt lat="44.0016304" lon="7.768782"><ele>564.2</ele><time>2026-04-26T08:36:25.34Z</time></trkpt><trkpt lat="44.0017135" lon="7.7687092"><ele>563.8</ele><time>2026-04-26T08:36:26.339Z</time></trkpt><trkpt lat="44.0018137" lon="7.7686565"><ele>563.4</ele><time>2026-04-26T08:36:27.344Z</time></trkpt><trkpt lat="44.0019233" lon="7.7686109"><ele>563.0</ele><time>2026-04-26T08:36:28.339Z</time></trkpt><trkpt lat="44.0020411" lon="7.7685669"><ele>563.0</ele><time>2026-04-26T08:36:29.338Z</time></trkpt><trkpt lat="44.0021661" lon="7.7685203"><ele>563.0</ele><time>2026-04-26T08:36:30.34Z</time></trkpt><trkpt lat="44.0022915" lon="7.7684721"><ele>563.0</ele><time>2026-04-26T08:36:31.339Z</time></trkpt><trkpt lat="44.0024251" lon="7.7684238"><ele>563.0</ele><time>2026-04-26T08:36:32.341Z</time></trkpt><trkpt lat="44.0025612" lon="7.7683688"><ele>563.0</ele><time>2026-04-26T08:36:33.34Z</time></trkpt><trkpt lat="44.0027095" lon="7.7683268"><ele>563.0</ele><time>2026-04-26T08:36:34.338Z</time></trkpt><trkpt lat="44.0028495" lon="7.7682734"><ele>563.0</ele><time>2026-04-26T08:36:35.34Z</time></trkpt><trkpt lat="44.0029833" lon="7.7682282"><ele>563.0</ele><time>2026-04-26T08:36:36.338Z</time></trkpt><trkpt lat="44.0031192" lon="7.7681687"><ele>563.0</ele><time>2026-04-26T08:36:37.339Z</time></trkpt><trkpt lat="44.0032514" lon="7.7681069"><ele>563.0</ele><time>2026-04-26T08:36:38.339Z</time></trkpt><trkpt lat="44.0033891" lon="7.7680178"><ele>563.0</ele><time>2026-04-26T08:36:39.34Z</time></trkpt><trkpt lat="44.0035142" lon="7.7679162"><ele>563.0</ele><time>2026-04-26T08:36:40.339Z</time></trkpt><trkpt lat="44.0036381" lon="7.7678298"><ele>562.6666666666666</ele><time>2026-04-26T08:36:41.339Z</time></trkpt><trkpt lat="44.0037782" lon="7.7677694"><ele>562.3333333333334</ele><time>2026-04-26T08:36:42.34Z</time></trkpt><trkpt lat="44.0039278" lon="7.7677121"><ele>562.0</ele><time>2026-04-26T08:36:43.338Z</time></trkpt><trkpt lat="44.0040772" lon="7.7676498"><ele>566.0</ele><time>2026-04-26T08:36:44.34Z</time></trkpt><trkpt lat="44.0042264" lon="7.7675724"><ele>570.0</ele><time>2026-04-26T08:36:45.339Z</time></trkpt><trkpt lat="44.004361" lon="7.7674987"><ele>574.0</ele><time>2026-04-26T08:36:46.34Z</time></trkpt><trkpt lat="44.0044845" lon="7.767418"><ele>578.0</ele><time>2026-04-26T08:36:47.34Z</time></trkpt><trkpt lat="44.0046039" lon="7.7673475"><ele>578.0</ele><time>2026-04-26T08:36:48.34Z</time></trkpt><trkpt lat="44.0046901" lon="7.7672841"><ele>578.0</ele><time>2026-04-26T08:36:49.339Z</time></trkpt><trkpt lat="44.0047586" lon="7.7671969"><ele>578.0</ele><time>2026-04-26T08:36:50.34Z</time></trkpt><trkpt lat="44.0047906" lon="7.7671061"><ele>578.0</ele><time>2026-04-26T08:36:51.339Z</time></trkpt><trkpt lat="44.0047923" lon="7.7669773"><ele>578.0</ele><time>2026-04-26T08:36:52.339Z</time></trkpt><trkpt lat="44.0047741" lon="7.7668246"><ele>578.1999999999999</ele><time>2026-04-26T08:36:53.339Z</time></trkpt><trkpt lat="44.0047352" lon="7.7666654"><ele>578.4</ele><time>2026-04-26T08:36:54.339Z</time></trkpt><trkpt lat="44.0046837" lon="7.7665409"><ele>578.5999999999999</ele><time>2026-04-26T08:36:55.338Z</time></trkpt><trkpt lat="44.0046193" lon="7.7664581"><ele>578.8</ele><time>2026-04-26T08:36:56.339Z</time></trkpt><trkpt lat="44.0045424" lon="7.766401"><ele>579.0</ele><time>2026-04-26T08:36:57.339Z</time></trkpt><trkpt lat="44.0044473" lon="7.7664336"><ele>579.0</ele><time>2026-04-26T08:36:58.339Z</time></trkpt><trkpt lat="44.0043521" lon="7.7664715"><ele>579.0</ele><time>2026-04-26T08:36:59.339Z</time></trkpt><trkpt lat="44.0042387" lon="7.766592"><ele>579.0</ele><time>2026-04-26T08:37:00.34Z</time></trkpt><trkpt lat="44.0041314" lon="7.7666773"><ele>579.0</ele><time>2026-04-26T08:37:01.339Z</time></trkpt><trkpt lat="44.0040231" lon="7.7667104"><ele>579.25</ele><time>2026-04-26T08:37:02.34Z</time></trkpt><trkpt lat="44.0039008" lon="7.7667148"><ele>579.5</ele><time>2026-04-26T08:37:03.339Z</time></trkpt><trkpt lat="44.0037801" lon="7.7666989"><ele>579.75</ele><time>2026-04-26T08:37:04.339Z</time></trkpt><trkpt lat="44.0036696" lon="7.7666336"><ele>580.0</ele><time>2026-04-26T08:37:05.34Z</time></trkpt><trkpt lat="44.0035617" lon="7.7665504"><ele>580.0</ele><time>2026-04-26T08:37:06.338Z</time></trkpt><trkpt lat="44.0034464" lon="7.7664739"><ele>580.0</ele><time>2026-04-26T08:37:07.34Z</time></trkpt><trkpt lat="44.0033218" lon="7.7664363"><ele>580.0</ele><time>2026-04-26T08:37:08.342Z</time></trkpt><trkpt lat="44.0031923" lon="7.7663895"><ele>580.0</ele><time>2026-04-26T08:37:09.339Z</time></trkpt><trkpt lat="44.0030443" lon="7.7663682"><ele>583.0</ele><time>2026-04-26T08:37:10.339Z</time></trkpt><trkpt lat="44.0029157" lon="7.76636"><ele>586.0</ele><time>2026-04-26T08:37:11.341Z</time></trkpt><trkpt lat="44.0027981" lon="7.7663568"><ele>589.0</ele><time>2026-04-26T08:37:12.338Z</time></trkpt><trkpt lat="44.0026803" lon="7.766399"><ele>592.0</ele><time>2026-04-26T08:37:13.339Z</time></trkpt><trkpt lat="44.0025402" lon="7.7664924"><ele>602.0</ele><time>2026-04-26T08:37:14.339Z</time></trkpt><trkpt lat="44.0023899" lon="7.7665571"><ele>612.0</ele><time>2026-04-26T08:37:15.338Z</time></trkpt><trkpt lat="44.0022293" lon="7.7666075"><ele>622.0</ele><time>2026-04-26T08:37:16.345Z</time></trkpt><trkpt lat="44.0020709" lon="7.7666875"><ele>622.0</ele><time>2026-04-26T08:37:17.339Z</time></trkpt><trkpt lat="44.0019082" lon="7.7668018"><ele>622.0</ele><time>2026-04-26T08:37:18.34Z</time></trkpt><trkpt lat="44.0017448" lon="7.7669231"><ele>622.0</ele><time>2026-04-26T08:37:19.339Z</time></trkpt><trkpt lat="44.0015665" lon="7.7669953"><ele>612.6666666666667</ele><time>2026-04-26T08:37:20.339Z</time></trkpt><trkpt lat="44.001396" lon="7.7670656"><ele>603.3333333333334</ele><time>2026-04-26T08:37:21.339Z</time></trkpt><trkpt lat="44.0012175" lon="7.7671207"><ele>594.0</ele><time>2026-04-26T08:37:22.34Z</time></trkpt><trkpt lat="44.0010439" lon="7.7671622"><ele>594.0</ele><time>2026-04-26T08:37:23.339Z</time></trkpt><trkpt lat="44.0008715" lon="7.7671984"><ele>594.0</ele><time>2026-04-26T08:37:24.34Z</time></trkpt><trkpt lat="44.0007054" lon="7.7672367"><ele>594.0</ele><time>2026-04-26T08:37:25.34Z</time></trkpt><trkpt lat="44.0005461" lon="7.7672625"><ele>599.6666666666666</ele><time>2026-04-26T08:37:26.339Z</time></trkpt><trkpt lat="44.0003941" lon="7.7673281"><ele>605.3333333333333</ele><time>2026-04-26T08:37:27.339Z</time></trkpt><trkpt lat="44.0002545" lon="7.7673927"><ele>611.0</ele><time>2026-04-26T08:37:28.339Z</time></trkpt><trkpt lat="44.000102" lon="7.767465"><ele>611.0</ele><time>2026-04-26T08:37:29.339Z</time></trkpt><trkpt lat="43.9999496" lon="7.7675231"><ele>611.0</ele><time>2026-04-26T08:37:30.339Z</time></trkpt><trkpt lat="43.9997961" lon="7.7675606"><ele>611.0</ele><time>2026-04-26T08:37:31.339Z</time></trkpt><trkpt lat="43.9996489" lon="7.7675957"><ele>611.0</ele><time>2026-04-26T08:37:32.34Z</time></trkpt><trkpt lat="43.9995213" lon="7.7675952"><ele>611.0</ele><time>2026-04-26T08:37:33.34Z</time></trkpt><trkpt lat="43.999423" lon="7.7675486"><ele>611.0</ele><time>2026-04-26T08:37:34.339Z</time></trkpt><trkpt lat="43.9993737" lon="7.7674915"><ele>611.0</ele><time>2026-04-26T08:37:35.338Z</time></trkpt><trkpt lat="43.9993668" lon="7.7673814"><ele>611.0</ele><time>2026-04-26T08:37:37.34Z</time></trkpt><trkpt lat="43.9994408" lon="7.7673397"><ele>611.0</ele><time>2026-04-26T08:37:39.339Z</time></trkpt><trkpt lat="43.9995223" lon="7.7674057"><ele>611.0</ele><time>2026-04-26T08:37:41.339Z</time></trkpt><trkpt lat="43.9996017" lon="7.7674704"><ele>611.0</ele><time>2026-04-26T08:37:43.339Z</time></trkpt><trkpt lat="43.9996977" lon="7.7675205"><ele>611.0</ele><time>2026-04-26T08:37:45.338Z</time></trkpt><trkpt lat="43.9997689" lon="7.7675045"><ele>611.0</ele><time>2026-04-26T08:37:46.34Z</time></trkpt><trkpt lat="43.9998448" lon="7.7674682"><ele>611.0</ele><time>2026-04-26T08:37:47.339Z</time></trkpt><trkpt lat="43.9999326" lon="7.7673971"><ele>611.0</ele><time>2026-04-26T08:37:48.34Z</time></trkpt><trkpt lat="44.0000309" lon="7.7673215"><ele>611.0</ele><time>2026-04-26T08:37:49.339Z</time></trkpt><trkpt lat="44.0001273" lon="7.7672597"><ele>611.0</ele><time>2026-04-26T08:37:50.339Z</time></trkpt><trkpt lat="44.0002362" lon="7.7671883"><ele>611.0</ele><time>2026-04-26T08:37:51.34Z</time></trkpt><trkpt lat="44.0003671" lon="7.7670768"><ele>611.0</ele><time>2026-04-26T08:37:52.339Z</time></trkpt><trkpt lat="44.0004908" lon="7.7669903"><ele>611.0</ele><time>2026-04-26T08:37:53.339Z</time></trkpt><trkpt lat="44.0006477" lon="7.766954"><ele>611.0</ele><time>2026-04-26T08:37:54.338Z</time></trkpt><trkpt lat="44.0008057" lon="7.7669149"><ele>606.75</ele><time>2026-04-26T08:37:55.339Z</time></trkpt><trkpt lat="44.0009632" lon="7.7668972"><ele>602.5</ele><time>2026-04-26T08:37:56.34Z</time></trkpt><trkpt lat="44.0010879" lon="7.7668671"><ele>598.25</ele><time>2026-04-26T08:37:57.339Z</time></trkpt><trkpt lat="44.0011863" lon="7.7668101"><ele>594.0</ele><time>2026-04-26T08:37:58.339Z</time></trkpt><trkpt lat="44.0012645" lon="7.7667358"><ele>602.8</ele><time>2026-04-26T08:37:59.34Z</time></trkpt><trkpt lat="44.0012883" lon="7.7665884"><ele>611.5999999999999</ele><time>2026-04-26T08:38:01.339Z</time></trkpt><trkpt lat="44.0012018" lon="7.7665408"><ele>620.4</ele><time>2026-04-26T08:38:03.34Z</time></trkpt><trkpt lat="44.0011152" lon="7.7666117"><ele>629.1999999999999</ele><time>2026-04-26T08:38:05.339Z</time></trkpt><trkpt lat="44.0010224" lon="7.7667299"><ele>638.0</ele><time>2026-04-26T08:38:07.339Z</time></trkpt><trkpt lat="44.0009553" lon="7.7667703"><ele>638.0</ele><time>2026-04-26T08:38:08.34Z</time></trkpt><trkpt lat="44.0008755" lon="7.7667906"><ele>638.0</ele><time>2026-04-26T08:38:09.34Z</time></trkpt><trkpt lat="44.0007761" lon="7.7667905"><ele>638.0</ele><time>2026-04-26T08:38:10.34Z</time></trkpt><trkpt lat="44.0006616" lon="7.7667892"><ele>638.0</ele><time>2026-04-26T08:38:11.34Z</time></trkpt><trkpt lat="44.0005357" lon="7.7667907"><ele>638.0</ele><time>2026-04-26T08:38:12.339Z</time></trkpt><trkpt lat="44.0003999" lon="7.7668064"><ele>640.5</ele><time>2026-04-26T08:38:13.339Z</time></trkpt><trkpt lat="44.0002547" lon="7.7668588"><ele>643.0</ele><time>2026-04-26T08:38:14.34Z</time></trkpt><trkpt lat="44.0001115" lon="7.7669251"><ele>645.5</ele><time>2026-04-26T08:38:15.34Z</time></trkpt><trkpt lat="43.999975" lon="7.7669797"><ele>648.0</ele><time>2026-04-26T08:38:16.34Z</time></trkpt><trkpt lat="43.9998384" lon="7.7669589"><ele>648.0</ele><time>2026-04-26T08:38:17.339Z</time></trkpt><trkpt lat="43.9997001" lon="7.7669258"><ele>648.0</ele><time>2026-04-26T08:38:18.34Z</time></trkpt><trkpt lat="43.9995379" lon="7.766889"><ele>648.0</ele><time>2026-04-26T08:38:19.339Z</time></trkpt><trkpt lat="43.9993739" lon="7.7668529"><ele>648.0</ele><time>2026-04-26T08:38:20.341Z</time></trkpt><trkpt lat="43.9992194" lon="7.7667907"><ele>648.0</ele><time>2026-04-26T08:38:21.34Z</time></trkpt><trkpt lat="43.9990707" lon="7.7666923"><ele>648.0</ele><time>2026-04-26T08:38:22.34Z</time></trkpt><trkpt lat="43.9989374" lon="7.7665894"><ele>647.0</ele><time>2026-04-26T08:38:23.34Z</time></trkpt><trkpt lat="43.9988198" lon="7.7664836"><ele>646.0</ele><time>2026-04-26T08:38:24.341Z</time></trkpt><trkpt lat="43.9987143" lon="7.7663805"><ele>645.0</ele><time>2026-04-26T08:38:25.339Z</time></trkpt><trkpt lat="43.9986271" lon="7.7662987"><ele>644.0</ele><time>2026-04-26T08:38:26.339Z</time></trkpt><trkpt lat="43.9985415" lon="7.7662453"><ele>644.0</ele><time>2026-04-26T08:38:27.341Z</time></trkpt><trkpt lat="43.9984682" lon="7.7662482"><ele>644.0</ele><time>2026-04-26T08:38:28.341Z</time></trkpt><trkpt lat="43.9984054" lon="7.7662982"><ele>644.0</ele><time>2026-04-26T08:38:29.34Z</time></trkpt><trkpt lat="43.9983469" lon="7.7663921"><ele>644.0</ele><time>2026-04-26T08:38:30.34Z</time></trkpt><trkpt lat="43.998289" lon="7.7665098"><ele>644.0</ele><time>2026-04-26T08:38:31.34Z</time></trkpt><trkpt lat="43.9982018" lon="7.7666651"><ele>645.5</ele><time>2026-04-26T08:38:32.34Z</time></trkpt><trkpt lat="43.9980848" lon="7.7668068"><ele>647.0</ele><time>2026-04-26T08:38:33.339Z</time></trkpt><trkpt lat="43.9979759" lon="7.7669328"><ele>648.5</ele><time>2026-04-26T08:38:34.339Z</time></trkpt><trkpt lat="43.9978726" lon="7.7670318"><ele>650.0</ele><time>2026-04-26T08:38:35.339Z</time></trkpt><trkpt lat="43.9977663" lon="7.7671244"><ele>649.4</ele><time>2026-04-26T08:38:36.339Z</time></trkpt><trkpt lat="43.9976724" lon="7.7671773"><ele>648.8</ele><time>2026-04-26T08:38:37.339Z</time></trkpt><trkpt lat="43.997598" lon="7.7672504"><ele>648.2</ele><time>2026-04-26T08:38:38.339Z</time></trkpt><trkpt lat="43.9975001" lon="7.7673178"><ele>647.6</ele><time>2026-04-26T08:38:39.339Z</time></trkpt><trkpt lat="43.9973903" lon="7.7673368"><ele>647.0</ele><time>2026-04-26T08:38:40.34Z</time></trkpt><trkpt lat="43.9972605" lon="7.7673331"><ele>647.0</ele><time>2026-04-26T08:38:41.339Z</time></trkpt><trkpt lat="43.9971225" lon="7.7673317"><ele>647.0</ele><time>2026-04-26T08:38:42.34Z</time></trkpt><trkpt lat="43.9969868" lon="7.7673579"><ele>647.0</ele><time>2026-04-26T08:38:43.34Z</time></trkpt><trkpt lat="43.9968613" lon="7.7673905"><ele>647.0</ele><time>2026-04-26T08:38:44.34Z</time></trkpt><trkpt lat="43.996723" lon="7.7675104"><ele>645.3333333333333</ele><time>2026-04-26T08:38:45.34Z</time></trkpt><trkpt lat="43.9965699" lon="7.7675916"><ele>643.6666666666666</ele><time>2026-04-26T08:38:46.34Z</time></trkpt><trkpt lat="43.9964124" lon="7.7676796"><ele>642.0</ele><time>2026-04-26T08:38:47.34Z</time></trkpt><trkpt lat="43.9962501" lon="7.7678088"><ele>642.0</ele><time>2026-04-26T08:38:48.339Z</time></trkpt><trkpt lat="43.9961169" lon="7.7679385"><ele>642.0</ele><time>2026-04-26T08:38:49.34Z</time></trkpt><trkpt lat="43.9959912" lon="7.7680549"><ele>642.0</ele><time>2026-04-26T08:38:50.341Z</time></trkpt><trkpt lat="43.9958631" lon="7.7681535"><ele>651.0</ele><time>2026-04-26T08:38:51.34Z</time></trkpt><trkpt lat="43.9957091" lon="7.768228"><ele>660.0</ele><time>2026-04-26T08:38:52.339Z</time></trkpt><trkpt lat="43.9955591" lon="7.7682886"><ele>669.0</ele><time>2026-04-26T08:38:53.339Z</time></trkpt><trkpt lat="43.9954165" lon="7.7683165"><ele>669.0</ele><time>2026-04-26T08:38:54.339Z</time></trkpt><trkpt lat="43.9952837" lon="7.768323"><ele>669.0</ele><time>2026-04-26T08:38:55.339Z</time></trkpt><trkpt lat="43.9951627" lon="7.7682968"><ele>669.0</ele><time>2026-04-26T08:38:56.339Z</time></trkpt><trkpt lat="43.9950358" lon="7.7682248"><ele>669.0</ele><time>2026-04-26T08:38:57.34Z</time></trkpt><trkpt lat="43.994904" lon="7.7681315"><ele>669.75</ele><time>2026-04-26T08:38:58.34Z</time></trkpt><trkpt lat="43.9947664" lon="7.7680602"><ele>670.5</ele><time>2026-04-26T08:38:59.339Z</time></trkpt><trkpt lat="43.9946363" lon="7.7680004"><ele>671.25</ele><time>2026-04-26T08:39:00.339Z</time></trkpt><trkpt lat="43.9945026" lon="7.7679748"><ele>672.0</ele><time>2026-04-26T08:39:01.339Z</time></trkpt><trkpt lat="43.994383" lon="7.7679111"><ele>672.0</ele><time>2026-04-26T08:39:02.341Z</time></trkpt><trkpt lat="43.9942757" lon="7.7678227"><ele>672.0</ele><time>2026-04-26T08:39:03.34Z</time></trkpt><trkpt lat="43.9941849" lon="7.767731"><ele>672.0</ele><time>2026-04-26T08:39:04.339Z</time></trkpt><trkpt lat="43.9940954" lon="7.7676641"><ele>672.0</ele><time>2026-04-26T08:39:05.34Z</time></trkpt><trkpt lat="43.9940101" lon="7.7676245"><ele>672.0</ele><time>2026-04-26T08:39:06.34Z</time></trkpt><trkpt lat="43.993921" lon="7.7676299"><ele>670.4000000000001</ele><time>2026-04-26T08:39:07.34Z</time></trkpt><trkpt lat="43.993835" lon="7.7676584"><ele>668.8000000000001</ele><time>2026-04-26T08:39:08.339Z</time></trkpt><trkpt lat="43.9937395" lon="7.7676941"><ele>667.2</ele><time>2026-04-26T08:39:09.34Z</time></trkpt><trkpt lat="43.9936339" lon="7.7677326"><ele>665.6</ele><time>2026-04-26T08:39:10.339Z</time></trkpt><trkpt lat="43.993513" lon="7.7677896"><ele>664.0</ele><time>2026-04-26T08:39:11.339Z</time></trkpt><trkpt lat="43.9934185" lon="7.7678552"><ele>672.25</ele><time>2026-04-26T08:39:12.34Z</time></trkpt><trkpt lat="43.9933351" lon="7.767942"><ele>680.5</ele><time>2026-04-26T08:39:13.339Z</time></trkpt><trkpt lat="43.9932604" lon="7.7680715"><ele>688.75</ele><time>2026-04-26T08:39:14.34Z</time></trkpt><trkpt lat="43.9932096" lon="7.7682158"><ele>697.0</ele><time>2026-04-26T08:39:15.339Z</time></trkpt><trkpt lat="43.9931368" lon="7.7683533"><ele>697.0</ele><time>2026-04-26T08:39:16.34Z</time></trkpt><trkpt lat="43.9930636" lon="7.7684969"><ele>697.0</ele><time>2026-04-26T08:39:17.341Z</time></trkpt><trkpt lat="43.9929922" lon="7.7686376"><ele>697.0</ele><time>2026-04-26T08:39:18.34Z</time></trkpt><trkpt lat="43.9929225" lon="7.7687765"><ele>697.0</ele><time>2026-04-26T08:39:19.339Z</time></trkpt><trkpt lat="43.9928617" lon="7.7689145"><ele>692.0</ele><time>2026-04-26T08:39:20.34Z</time></trkpt><trkpt lat="43.992811" lon="7.7690364"><ele>687.0</ele><time>2026-04-26T08:39:21.341Z</time></trkpt><trkpt lat="43.9927673" lon="7.7691542"><ele>682.0</ele><time>2026-04-26T08:39:22.339Z</time></trkpt><trkpt lat="43.9927221" lon="7.7692603"><ele>677.0</ele><time>2026-04-26T08:39:23.339Z</time></trkpt><trkpt lat="43.9926823" lon="7.7693469"><ele>672.0</ele><time>2026-04-26T08:39:24.34Z</time></trkpt><trkpt lat="43.9926504" lon="7.7694246"><ele>667.0</ele><time>2026-04-26T08:39:25.339Z</time></trkpt><trkpt lat="43.992589" lon="7.7695453"><ele>662.6</ele><time>2026-04-26T08:39:27.339Z</time></trkpt><trkpt lat="43.9925219" lon="7.7696457"><ele>658.2</ele><time>2026-04-26T08:39:29.34Z</time></trkpt><trkpt lat="43.9924685" lon="7.769697"><ele>653.8</ele><time>2026-04-26T08:39:30.339Z</time></trkpt><trkpt lat="43.9924224" lon="7.7697617"><ele>649.4</ele><time>2026-04-26T08:39:31.341Z</time></trkpt><trkpt lat="43.9923122" lon="7.7698445"><ele>645.0</ele><time>2026-04-26T08:39:33.34Z</time></trkpt><trkpt lat="43.992186" lon="7.7697358"><ele>653.8</ele><time>2026-04-26T08:39:35.339Z</time></trkpt><trkpt lat="43.9921109" lon="7.7696359"><ele>662.6</ele><time>2026-04-26T08:39:36.339Z</time></trkpt><trkpt lat="43.9920457" lon="7.769525"><ele>671.4000000000001</ele><time>2026-04-26T08:39:37.339Z</time></trkpt><trkpt lat="43.9919774" lon="7.7694168"><ele>680.2</ele><time>2026-04-26T08:39:38.339Z</time></trkpt><trkpt lat="43.9919044" lon="7.7693163"><ele>689.0</ele><time>2026-04-26T08:39:39.34Z</time></trkpt><trkpt lat="43.9918154" lon="7.7692388"><ele>694.0</ele><time>2026-04-26T08:39:40.339Z</time></trkpt><trkpt lat="43.9917145" lon="7.7691839"><ele>699.0</ele><time>2026-04-26T08:39:41.34Z</time></trkpt><trkpt lat="43.9916248" lon="7.7691402"><ele>704.0</ele><time>2026-04-26T08:39:42.34Z</time></trkpt><trkpt lat="43.9915372" lon="7.769084"><ele>709.0</ele><time>2026-04-26T08:39:43.34Z</time></trkpt><trkpt lat="43.9914503" lon="7.7690188"><ele>714.0</ele><time>2026-04-26T08:39:44.34Z</time></trkpt><trkpt lat="43.991366" lon="7.7689499"><ele>714.0</ele><time>2026-04-26T08:39:45.339Z</time></trkpt><trkpt lat="43.9912776" lon="7.7688941"><ele>714.0</ele><time>2026-04-26T08:39:46.34Z</time></trkpt><trkpt lat="43.991186" lon="7.7688572"><ele>714.0</ele><time>2026-04-26T08:39:47.34Z</time></trkpt><trkpt lat="43.9910944" lon="7.7688459"><ele>714.0</ele><time>2026-04-26T08:39:48.34Z</time></trkpt><trkpt lat="43.9910061" lon="7.7688434"><ele>714.0</ele><time>2026-04-26T08:39:49.341Z</time></trkpt><trkpt lat="43.9909104" lon="7.7688376"><ele>712.1666666666666</ele><time>2026-04-26T08:39:50.34Z</time></trkpt><trkpt lat="43.9908141" lon="7.7688404"><ele>710.3333333333334</ele><time>2026-04-26T08:39:51.339Z</time></trkpt><trkpt lat="43.9907242" lon="7.7688456"><ele>708.5</ele><time>2026-04-26T08:39:52.34Z</time></trkpt><trkpt lat="43.990638" lon="7.7688494"><ele>706.6666666666667</ele><time>2026-04-26T08:39:53.341Z</time></trkpt><trkpt lat="43.9905528" lon="7.7688539"><ele>704.8333333333334</ele><time>2026-04-26T08:39:54.34Z</time></trkpt><trkpt lat="43.9904791" lon="7.7688362"><ele>703.0</ele><time>2026-04-26T08:39:55.339Z</time></trkpt><trkpt lat="43.9904083" lon="7.768796"><ele>703.0</ele><time>2026-04-26T08:39:56.341Z</time></trkpt><trkpt lat="43.9903527" lon="7.768742"><ele>703.0</ele><time>2026-04-26T08:39:57.34Z</time></trkpt><trkpt lat="43.9903328" lon="7.768658"><ele>703.0</ele><time>2026-04-26T08:39:58.34Z</time></trkpt><trkpt lat="43.9903526" lon="7.7685"><ele>703.0</ele><time>2026-04-26T08:40:00.34Z</time></trkpt><trkpt lat="43.9903976" lon="7.768397"><ele>703.0</ele><time>2026-04-26T08:40:01.34Z</time></trkpt><trkpt lat="43.9904337" lon="7.7682974"><ele>703.0</ele><time>2026-04-26T08:40:02.34Z</time></trkpt><trkpt lat="43.9904791" lon="7.768197"><ele>709.0</ele><time>2026-04-26T08:40:03.34Z</time></trkpt><trkpt lat="43.9905322" lon="7.7680848"><ele>715.0</ele><time>2026-04-26T08:40:04.341Z</time></trkpt><trkpt lat="43.9905861" lon="7.7679775"><ele>721.0</ele><time>2026-04-26T08:40:05.34Z</time></trkpt><trkpt lat="43.9906356" lon="7.7678686"><ele>727.0</ele><time>2026-04-26T08:40:06.339Z</time></trkpt><trkpt lat="43.9906957" lon="7.7677715"><ele>733.0</ele><time>2026-04-26T08:40:07.34Z</time></trkpt><trkpt lat="43.9907689" lon="7.7676857"><ele>733.0</ele><time>2026-04-26T08:40:08.339Z</time></trkpt><trkpt lat="43.9908402" lon="7.7675955"><ele>733.0</ele><time>2026-04-26T08:40:09.34Z</time></trkpt><trkpt lat="43.9909126" lon="7.7674986"><ele>733.0</ele><time>2026-04-26T08:40:10.34Z</time></trkpt><trkpt lat="43.9909887" lon="7.7673986"><ele>733.0</ele><time>2026-04-26T08:40:11.34Z</time></trkpt><trkpt lat="43.991058" lon="7.767291"><ele>733.0</ele><time>2026-04-26T08:40:12.339Z</time></trkpt><trkpt lat="43.9911251" lon="7.7671773"><ele>737.5999999999999</ele><time>2026-04-26T08:40:13.34Z</time></trkpt><trkpt lat="43.9911817" lon="7.7670508"><ele>742.1999999999999</ele><time>2026-04-26T08:40:14.34Z</time></trkpt><trkpt lat="43.991232" lon="7.7669249"><ele>746.8</ele><time>2026-04-26T08:40:15.339Z</time></trkpt><trkpt lat="43.9912797" lon="7.7668048"><ele>751.4</ele><time>2026-04-26T08:40:16.341Z</time></trkpt><trkpt lat="43.9913198" lon="7.7666729"><ele>756.0</ele><time>2026-04-26T08:40:17.34Z</time></trkpt><trkpt lat="43.9913608" lon="7.7665491"><ele>756.0</ele><time>2026-04-26T08:40:18.34Z</time></trkpt><trkpt lat="43.9914014" lon="7.7664307"><ele>756.0</ele><time>2026-04-26T08:40:19.34Z</time></trkpt><trkpt lat="43.9914485" lon="7.7663151"><ele>756.0</ele><time>2026-04-26T08:40:20.339Z</time></trkpt><trkpt lat="43.991492" lon="7.766203"><ele>756.0</ele><time>2026-04-26T08:40:21.341Z</time></trkpt><trkpt lat="43.991537" lon="7.7660846"><ele>756.0</ele><time>2026-04-26T08:40:22.34Z</time></trkpt><trkpt lat="43.9915816" lon="7.7659637"><ele>753.0</ele><time>2026-04-26T08:40:23.341Z</time></trkpt><trkpt lat="43.9916321" lon="7.7658542"><ele>750.0</ele><time>2026-04-26T08:40:24.34Z</time></trkpt><trkpt lat="43.9916922" lon="7.7657644"><ele>747.0</ele><time>2026-04-26T08:40:25.341Z</time></trkpt><trkpt lat="43.9917469" lon="7.7656944"><ele>744.0</ele><time>2026-04-26T08:40:26.34Z</time></trkpt><trkpt lat="43.9918013" lon="7.7656177"><ele>741.0</ele><time>2026-04-26T08:40:27.339Z</time></trkpt><trkpt lat="43.9918594" lon="7.7655583"><ele>738.0</ele><time>2026-04-26T08:40:28.34Z</time></trkpt><trkpt lat="43.9919293" lon="7.765513"><ele>744.3333333333334</ele><time>2026-04-26T08:40:29.34Z</time></trkpt><trkpt lat="43.9919984" lon="7.7654689"><ele>750.6666666666667</ele><time>2026-04-26T08:40:30.34Z</time></trkpt><trkpt lat="43.9920777" lon="7.7654086"><ele>757.0</ele><time>2026-04-26T08:40:31.341Z</time></trkpt><trkpt lat="43.9921585" lon="7.7653596"><ele>763.3333333333334</ele><time>2026-04-26T08:40:32.341Z</time></trkpt><trkpt lat="43.9922409" lon="7.7653172"><ele>769.6666666666667</ele><time>2026-04-26T08:40:33.34Z</time></trkpt><trkpt lat="43.9923337" lon="7.7652683"><ele>776.0</ele><time>2026-04-26T08:40:34.34Z</time></trkpt><trkpt lat="43.9924205" lon="7.7652061"><ele>780.4</ele><time>2026-04-26T08:40:35.34Z</time></trkpt><trkpt lat="43.9925016" lon="7.7651279"><ele>784.8</ele><time>2026-04-26T08:40:36.339Z</time></trkpt><trkpt lat="43.992587" lon="7.7650445"><ele>789.1999999999999</ele><time>2026-04-26T08:40:37.34Z</time></trkpt><trkpt lat="43.9926712" lon="7.7649725"><ele>793.5999999999999</ele><time>2026-04-26T08:40:38.34Z</time></trkpt><trkpt lat="43.9927498" lon="7.7648951"><ele>798.0</ele><time>2026-04-26T08:40:39.34Z</time></trkpt><trkpt lat="43.9928299" lon="7.7648103"><ele>798.0</ele><time>2026-04-26T08:40:40.34Z</time></trkpt><trkpt lat="43.9928869" lon="7.7646795"><ele>798.0</ele><time>2026-04-26T08:40:41.34Z</time></trkpt><trkpt lat="43.9929392" lon="7.764563"><ele>798.0</ele><time>2026-04-26T08:40:42.34Z</time></trkpt><trkpt lat="43.9930036" lon="7.7644421"><ele>798.0</ele><time>2026-04-26T08:40:43.339Z</time></trkpt><trkpt lat="43.9930747" lon="7.7643121"><ele>798.0</ele><time>2026-04-26T08:40:44.34Z</time></trkpt><trkpt lat="43.9931417" lon="7.7641587"><ele>790.0</ele><time>2026-04-26T08:40:45.339Z</time></trkpt><trkpt lat="43.9931863" lon="7.7639733"><ele>782.0</ele><time>2026-04-26T08:40:46.339Z</time></trkpt><trkpt lat="43.9932094" lon="7.7637485"><ele>774.0</ele><time>2026-04-26T08:40:47.339Z</time></trkpt><trkpt lat="43.9932232" lon="7.7635451"><ele>771.75</ele><time>2026-04-26T08:40:48.339Z</time></trkpt><trkpt lat="43.9932393" lon="7.763346"><ele>769.5</ele><time>2026-04-26T08:40:49.34Z</time></trkpt><trkpt lat="43.9932722" lon="7.7631442"><ele>767.25</ele><time>2026-04-26T08:40:50.339Z</time></trkpt><trkpt lat="43.9932974" lon="7.7629422"><ele>765.0</ele><time>2026-04-26T08:40:51.34Z</time></trkpt><trkpt lat="43.9933068" lon="7.7627465"><ele>766.25</ele><time>2026-04-26T08:40:52.339Z</time></trkpt><trkpt lat="43.9932895" lon="7.7625437"><ele>767.5</ele><time>2026-04-26T08:40:53.339Z</time></trkpt><trkpt lat="43.993275" lon="7.7623484"><ele>768.75</ele><time>2026-04-26T08:40:54.339Z</time></trkpt><trkpt lat="43.9932572" lon="7.7621564"><ele>770.0</ele><time>2026-04-26T08:40:55.339Z</time></trkpt><trkpt lat="43.9932356" lon="7.7619762"><ele>770.75</ele><time>2026-04-26T08:40:56.341Z</time></trkpt><trkpt lat="43.9932418" lon="7.7617958"><ele>771.5</ele><time>2026-04-26T08:40:57.341Z</time></trkpt><trkpt lat="43.9932445" lon="7.7616211"><ele>772.25</ele><time>2026-04-26T08:40:58.34Z</time></trkpt><trkpt lat="43.9932607" lon="7.76147"><ele>773.0</ele><time>2026-04-26T08:40:59.339Z</time></trkpt><trkpt lat="43.9932751" lon="7.7613136"><ele>773.0</ele><time>2026-04-26T08:41:00.339Z</time></trkpt><trkpt lat="43.9932971" lon="7.7611602"><ele>773.0</ele><time>2026-04-26T08:41:01.34Z</time></trkpt><trkpt lat="43.9933066" lon="7.7610253"><ele>773.0</ele><time>2026-04-26T08:41:02.34Z</time></trkpt><trkpt lat="43.9933143" lon="7.7609006"><ele>773.0</ele><time>2026-04-26T08:41:03.342Z</time></trkpt><trkpt lat="43.9933223" lon="7.7607944"><ele>773.0</ele><time>2026-04-26T08:41:04.339Z</time></trkpt><trkpt lat="43.993332" lon="7.760694"><ele>776.5000000000001</ele><time>2026-04-26T08:41:05.339Z</time></trkpt><trkpt lat="43.9934094" lon="7.760609"><ele>780.0</ele><time>2026-04-26T08:41:07.34Z</time></trkpt><trkpt lat="43.9934892" lon="7.7606523"><ele>783.5</ele><time>2026-04-26T08:41:09.34Z</time></trkpt><trkpt lat="43.9935245" lon="7.7607387"><ele>787.0</ele><time>2026-04-26T08:41:10.34Z</time></trkpt><trkpt lat="43.9935545" lon="7.7608199"><ele>790.5000000000001</ele><time>2026-04-26T08:41:11.341Z</time></trkpt><trkpt lat="43.9935791" lon="7.7609109"><ele>794.0</ele><time>2026-04-26T08:41:12.341Z</time></trkpt><trkpt lat="43.9936182" lon="7.7610102"><ele>793.3333333333334</ele><time>2026-04-26T08:41:13.341Z</time></trkpt><trkpt lat="43.9936507" lon="7.7611163"><ele>792.6666666666667</ele><time>2026-04-26T08:41:14.339Z</time></trkpt><trkpt lat="43.9936831" lon="7.761225"><ele>792.0</ele><time>2026-04-26T08:41:15.34Z</time></trkpt><trkpt lat="43.9937256" lon="7.761333"><ele>791.3333333333333</ele><time>2026-04-26T08:41:16.339Z</time></trkpt><trkpt lat="43.9937643" lon="7.7614372"><ele>790.6666666666666</ele><time>2026-04-26T08:41:17.34Z</time></trkpt><trkpt lat="43.9938036" lon="7.761552"><ele>790.0</ele><time>2026-04-26T08:41:18.339Z</time></trkpt><trkpt lat="43.9938463" lon="7.7616711"><ele>789.9999999999999</ele><time>2026-04-26T08:41:19.339Z</time></trkpt><trkpt lat="43.9938862" lon="7.7617693"><ele>790.0</ele><time>2026-04-26T08:41:20.34Z</time></trkpt><trkpt lat="43.9939121" lon="7.7618517"><ele>790.0</ele><time>2026-04-26T08:41:21.339Z</time></trkpt><trkpt lat="43.993941" lon="7.7620095"><ele>790.0</ele><time>2026-04-26T08:41:23.339Z</time></trkpt><trkpt lat="43.9939747" lon="7.7621069"><ele>789.9999999999999</ele><time>2026-04-26T08:41:25.34Z</time></trkpt><trkpt lat="43.9939825" lon="7.7622027"><ele>790.0</ele><time>2026-04-26T08:44:14.34Z</time></trkpt><trkpt lat="43.9939952" lon="7.7622939"><ele>789.5714285714286</ele><time>2026-04-26T08:44:23.34Z</time></trkpt><trkpt lat="43.9940179" lon="7.7623788"><ele>789.1428571428572</ele><time>2026-04-26T08:44:32.34Z</time></trkpt><trkpt lat="43.9940446" lon="7.762459"><ele>788.7142857142858</ele><time>2026-04-26T08:44:39.34Z</time></trkpt><trkpt lat="43.9940809" lon="7.7625486"><ele>788.2857142857142</ele><time>2026-04-26T08:44:46.341Z</time></trkpt><trkpt lat="43.9941256" lon="7.7626318"><ele>787.8571428571429</ele><time>2026-04-26T08:44:55.341Z</time></trkpt><trkpt lat="43.9941013" lon="7.7625458"><ele>787.4285714285714</ele><time>2026-04-26T08:45:32.341Z</time></trkpt><trkpt lat="43.9940549" lon="7.7626068"><ele>787.0</ele><time>2026-04-26T08:45:41.341Z</time></trkpt><trkpt lat="43.9941295" lon="7.7626393"><ele>787.0</ele><time>2026-04-26T08:47:09.341Z</time></trkpt><trkpt lat="43.9940957" lon="7.7625629"><ele>787.0</ele><time>2026-04-26T08:55:42.342Z</time></trkpt><trkpt lat="43.9940735" lon="7.7624756"><ele>787.0</ele><time>2026-04-26T08:55:48.342Z</time></trkpt><trkpt lat="43.9940422" lon="7.7623837"><ele>787.0</ele><time>2026-04-26T08:55:56.341Z</time></trkpt><trkpt lat="43.9940106" lon="7.7622995"><ele>787.0</ele><time>2026-04-26T08:56:02.341Z</time></trkpt><trkpt lat="43.9939874" lon="7.7622036"><ele>787.0</ele><time>2026-04-26T08:56:09.341Z</time></trkpt><trkpt lat="43.9940317" lon="7.7622985"><ele>787.0</ele><time>2026-04-26T08:58:27.342Z</time></trkpt><trkpt lat="43.9940945" lon="7.7623933"><ele>786.9999999999999</ele><time>2026-04-26T08:58:30.342Z</time></trkpt><trkpt lat="43.9941663" lon="7.7624048"><ele>787.0</ele><time>2026-04-26T08:58:32.341Z</time></trkpt><trkpt lat="43.994207" lon="7.7623263"><ele>787.0</ele><time>2026-04-26T08:58:34.342Z</time></trkpt><trkpt lat="43.9942207" lon="7.7621649"><ele>787.0</ele><time>2026-04-26T08:58:36.342Z</time></trkpt><trkpt lat="43.9942181" lon="7.7620636"><ele>786.9999999999999</ele><time>2026-04-26T08:58:37.342Z</time></trkpt><trkpt lat="43.9942199" lon="7.7619526"><ele>787.0</ele><time>2026-04-26T08:58:38.341Z</time></trkpt><trkpt lat="43.9942174" lon="7.7618322"><ele>787.6</ele><time>2026-04-26T08:58:39.341Z</time></trkpt><trkpt lat="43.9941929" lon="7.7617096"><ele>788.2</ele><time>2026-04-26T08:58:40.341Z</time></trkpt><trkpt lat="43.9941635" lon="7.7615896"><ele>788.8</ele><time>2026-04-26T08:58:41.342Z</time></trkpt><trkpt lat="43.9941376" lon="7.7614748"><ele>789.4</ele><time>2026-04-26T08:58:42.341Z</time></trkpt><trkpt lat="43.9941105" lon="7.7613435"><ele>790.0</ele><time>2026-04-26T08:58:43.342Z</time></trkpt><trkpt lat="43.9940807" lon="7.7612178"><ele>790.0</ele><time>2026-04-26T08:58:44.341Z</time></trkpt><trkpt lat="43.9940602" lon="7.7610867"><ele>790.0</ele><time>2026-04-26T08:58:45.341Z</time></trkpt><trkpt lat="43.9940321" lon="7.7609604"><ele>790.0</ele><time>2026-04-26T08:58:46.342Z</time></trkpt><trkpt lat="43.9940028" lon="7.7608389"><ele>790.0</ele><time>2026-04-26T08:58:47.341Z</time></trkpt><trkpt lat="43.9939749" lon="7.7607231"><ele>790.0</ele><time>2026-04-26T08:58:48.342Z</time></trkpt><trkpt lat="43.9939428" lon="7.7606028"><ele>790.4999999999999</ele><time>2026-04-26T08:58:49.342Z</time></trkpt><trkpt lat="43.9939122" lon="7.7604897"><ele>791.0</ele><time>2026-04-26T08:58:50.341Z</time></trkpt><trkpt lat="43.993902" lon="7.7603783"><ele>791.5</ele><time>2026-04-26T08:58:51.342Z</time></trkpt><trkpt lat="43.9939143" lon="7.7602683"><ele>792.0</ele><time>2026-04-26T08:58:52.341Z</time></trkpt><trkpt lat="43.9939393" lon="7.760163"><ele>792.4999999999999</ele><time>2026-04-26T08:58:53.342Z</time></trkpt><trkpt lat="43.993968" lon="7.7600592"><ele>793.0</ele><time>2026-04-26T08:58:54.342Z</time></trkpt><trkpt lat="43.9940051" lon="7.7599589"><ele>792.9999999999999</ele><time>2026-04-26T08:58:55.341Z</time></trkpt><trkpt lat="43.9940449" lon="7.7598612"><ele>793.0</ele><time>2026-04-26T08:58:56.341Z</time></trkpt><trkpt lat="43.9940973" lon="7.7597714"><ele>793.0</ele><time>2026-04-26T08:58:57.341Z</time></trkpt><trkpt lat="43.994148" lon="7.7596891"><ele>793.0</ele><time>2026-04-26T08:58:58.341Z</time></trkpt><trkpt lat="43.9941915" lon="7.7595921"><ele>792.9999999999999</ele><time>2026-04-26T08:58:59.342Z</time></trkpt><trkpt lat="43.9942377" lon="7.7595068"><ele>793.0</ele><time>2026-04-26T08:59:00.342Z</time></trkpt><trkpt lat="43.9943037" lon="7.759452"><ele>797.2</ele><time>2026-04-26T08:59:01.342Z</time></trkpt><trkpt lat="43.994411" lon="7.7594769"><ele>801.4</ele><time>2026-04-26T08:59:03.341Z</time></trkpt><trkpt lat="43.9944466" lon="7.7596042"><ele>805.6</ele><time>2026-04-26T08:59:05.342Z</time></trkpt><trkpt lat="43.9944656" lon="7.7597469"><ele>809.8000000000001</ele><time>2026-04-26T08:59:07.342Z</time></trkpt><trkpt lat="43.994541" lon="7.7597874"><ele>814.0</ele><time>2026-04-26T08:59:09.342Z</time></trkpt><trkpt lat="43.9946245" lon="7.7597237"><ele>813.9999999999999</ele><time>2026-04-26T08:59:11.341Z</time></trkpt><trkpt lat="43.9946392" lon="7.7595772"><ele>814.0</ele><time>2026-04-26T08:59:13.343Z</time></trkpt><trkpt lat="43.9946047" lon="7.7594864"><ele>814.0</ele><time>2026-04-26T08:59:14.342Z</time></trkpt><trkpt lat="43.994581" lon="7.7593893"><ele>814.0</ele><time>2026-04-26T08:59:15.342Z</time></trkpt><trkpt lat="43.994557" lon="7.7592809"><ele>813.9999999999999</ele><time>2026-04-26T08:59:16.342Z</time></trkpt><trkpt lat="43.9945388" lon="7.7591635"><ele>814.0</ele><time>2026-04-26T08:59:17.342Z</time></trkpt><trkpt lat="43.9945385" lon="7.759037"><ele>814.3333333333333</ele><time>2026-04-26T08:59:18.342Z</time></trkpt><trkpt lat="43.9945443" lon="7.7589285"><ele>814.6666666666666</ele><time>2026-04-26T08:59:19.341Z</time></trkpt><trkpt lat="43.9945452" lon="7.7588373"><ele>815.0</ele><time>2026-04-26T08:59:20.341Z</time></trkpt><trkpt lat="43.994598" lon="7.7587408"><ele>815.3333333333333</ele><time>2026-04-26T08:59:22.341Z</time></trkpt><trkpt lat="43.9946804" lon="7.7587555"><ele>815.6666666666666</ele><time>2026-04-26T08:59:24.341Z</time></trkpt><trkpt lat="43.9947067" lon="7.7588667"><ele>816.0</ele><time>2026-04-26T08:59:26.341Z</time></trkpt><trkpt lat="43.9946972" lon="7.7590483"><ele>816.0</ele><time>2026-04-26T08:59:28.343Z</time></trkpt><trkpt lat="43.9947022" lon="7.7591388"><ele>816.0</ele><time>2026-04-26T08:59:29.344Z</time></trkpt><trkpt lat="43.9947372" lon="7.7592202"><ele>816.0</ele><time>2026-04-26T08:59:30.343Z</time></trkpt><trkpt lat="43.9947821" lon="7.7592991"><ele>816.0</ele><time>2026-04-26T08:59:31.343Z</time></trkpt><trkpt lat="43.9948488" lon="7.7593589"><ele>816.0</ele><time>2026-04-26T08:59:32.342Z</time></trkpt><trkpt lat="43.9949167" lon="7.7594111"><ele>816.0</ele><time>2026-04-26T08:59:33.343Z</time></trkpt><trkpt lat="43.9949942" lon="7.7594824"><ele>821.4</ele><time>2026-04-26T08:59:34.341Z</time></trkpt><trkpt lat="43.9950733" lon="7.7595799"><ele>826.8</ele><time>2026-04-26T08:59:35.342Z</time></trkpt><trkpt lat="43.9951276" lon="7.7596946"><ele>832.1999999999999</ele><time>2026-04-26T08:59:36.342Z</time></trkpt><trkpt lat="43.9951704" lon="7.7598258"><ele>837.5999999999999</ele><time>2026-04-26T08:59:37.342Z</time></trkpt><trkpt lat="43.9951984" lon="7.7599799"><ele>843.0</ele><time>2026-04-26T08:59:38.341Z</time></trkpt><trkpt lat="43.9952213" lon="7.7601224"><ele>843.2</ele><time>2026-04-26T08:59:39.341Z</time></trkpt><trkpt lat="43.9952469" lon="7.7602646"><ele>843.4</ele><time>2026-04-26T08:59:40.341Z</time></trkpt><trkpt lat="43.9952699" lon="7.7603997"><ele>843.6</ele><time>2026-04-26T08:59:41.343Z</time></trkpt><trkpt lat="43.9952827" lon="7.7605395"><ele>843.8000000000001</ele><time>2026-04-26T08:59:42.343Z</time></trkpt><trkpt lat="43.9952902" lon="7.7606813"><ele>844.0</ele><time>2026-04-26T08:59:43.342Z</time></trkpt><trkpt lat="43.9953027" lon="7.760834"><ele>844.0</ele><time>2026-04-26T08:59:44.342Z</time></trkpt><trkpt lat="43.9953039" lon="7.7609916"><ele>844.0</ele><time>2026-04-26T08:59:45.342Z</time></trkpt><trkpt lat="43.9953044" lon="7.7611445"><ele>844.0</ele><time>2026-04-26T08:59:46.342Z</time></trkpt><trkpt lat="43.9953126" lon="7.761296"><ele>844.0</ele><time>2026-04-26T08:59:47.341Z</time></trkpt><trkpt lat="43.9953178" lon="7.7614437"><ele>844.0</ele><time>2026-04-26T08:59:48.341Z</time></trkpt><trkpt lat="43.9953191" lon="7.761594"><ele>844.3333333333333</ele><time>2026-04-26T08:59:49.343Z</time></trkpt><trkpt lat="43.9953195" lon="7.7617291"><ele>844.6666666666666</ele><time>2026-04-26T08:59:50.342Z</time></trkpt><trkpt lat="43.9953209" lon="7.7618561"><ele>845.0</ele><time>2026-04-26T08:59:51.341Z</time></trkpt><trkpt lat="43.9953142" lon="7.7619726"><ele>845.3333333333333</ele><time>2026-04-26T08:59:52.343Z</time></trkpt><trkpt lat="43.9953081" lon="7.762069"><ele>845.6666666666666</ele><time>2026-04-26T08:59:53.343Z</time></trkpt><trkpt lat="43.9953438" lon="7.7622039"><ele>846.0</ele><time>2026-04-26T08:59:55.343Z</time></trkpt><trkpt lat="43.9954082" lon="7.762206"><ele>846.0</ele><time>2026-04-26T08:59:57.341Z</time></trkpt><trkpt lat="43.9954491" lon="7.7621362"><ele>846.0</ele><time>2026-04-26T08:59:59.341Z</time></trkpt><trkpt lat="43.9954821" lon="7.7620064"><ele>846.0</ele><time>2026-04-26T09:00:01.342Z</time></trkpt><trkpt lat="43.9955179" lon="7.7618665"><ele>846.0</ele><time>2026-04-26T09:00:03.343Z</time></trkpt><trkpt lat="43.9955429" lon="7.7617128"><ele>846.0</ele><time>2026-04-26T09:00:05.343Z</time></trkpt><trkpt lat="43.9955552" lon="7.7615472"><ele>846.0</ele><time>2026-04-26T09:00:07.341Z</time></trkpt><trkpt lat="43.9955662" lon="7.7613637"><ele>846.0</ele><time>2026-04-26T09:00:09.342Z</time></trkpt><trkpt lat="43.9955744" lon="7.7612678"><ele>846.0</ele><time>2026-04-26T09:00:10.341Z</time></trkpt><trkpt lat="43.9955843" lon="7.7611649"><ele>846.0</ele><time>2026-04-26T09:00:11.343Z</time></trkpt><trkpt lat="43.9955943" lon="7.7610655"><ele>846.0</ele><time>2026-04-26T09:00:12.342Z</time></trkpt><trkpt lat="43.9956095" lon="7.7609581"><ele>846.0</ele><time>2026-04-26T09:00:13.341Z</time></trkpt><trkpt lat="43.9956214" lon="7.7608463"><ele>845.5999999999999</ele><time>2026-04-26T09:00:14.342Z</time></trkpt><trkpt lat="43.9956532" lon="7.7607193"><ele>845.2</ele><time>2026-04-26T09:00:15.341Z</time></trkpt><trkpt lat="43.9956742" lon="7.760588"><ele>844.8</ele><time>2026-04-26T09:00:16.341Z</time></trkpt><trkpt lat="43.9956884" lon="7.7604505"><ele>844.4000000000001</ele><time>2026-04-26T09:00:17.342Z</time></trkpt><trkpt lat="43.9956851" lon="7.7603184"><ele>844.0</ele><time>2026-04-26T09:00:18.342Z</time></trkpt><trkpt lat="43.9956797" lon="7.760176"><ele>843.8000000000001</ele><time>2026-04-26T09:00:19.341Z</time></trkpt><trkpt lat="43.995672" lon="7.7600419"><ele>843.6</ele><time>2026-04-26T09:00:20.342Z</time></trkpt><trkpt lat="43.995659" lon="7.7599114"><ele>843.4</ele><time>2026-04-26T09:00:21.343Z</time></trkpt><trkpt lat="43.9956585" lon="7.7597807"><ele>843.2</ele><time>2026-04-26T09:00:22.342Z</time></trkpt><trkpt lat="43.995664" lon="7.7596482"><ele>843.0</ele><time>2026-04-26T09:00:23.343Z</time></trkpt><trkpt lat="43.9956722" lon="7.7595217"><ele>843.0</ele><time>2026-04-26T09:00:24.342Z</time></trkpt><trkpt lat="43.9957013" lon="7.7593982"><ele>843.0</ele><time>2026-04-26T09:00:25.342Z</time></trkpt><trkpt lat="43.9957371" lon="7.7592751"><ele>843.0</ele><time>2026-04-26T09:00:26.342Z</time></trkpt><trkpt lat="43.9957733" lon="7.7591497"><ele>843.0</ele><time>2026-04-26T09:00:27.341Z</time></trkpt><trkpt lat="43.9958121" lon="7.7590201"><ele>843.0</ele><time>2026-04-26T09:00:28.341Z</time></trkpt><trkpt lat="43.9958423" lon="7.7588952"><ele>850.8</ele><time>2026-04-26T09:00:29.341Z</time></trkpt><trkpt lat="43.9958562" lon="7.7587623"><ele>858.5999999999999</ele><time>2026-04-26T09:00:30.342Z</time></trkpt><trkpt lat="43.9958639" lon="7.7586213"><ele>866.4000000000001</ele><time>2026-04-26T09:00:31.341Z</time></trkpt><trkpt lat="43.9958669" lon="7.7584669"><ele>874.2</ele><time>2026-04-26T09:00:32.343Z</time></trkpt><trkpt lat="43.9958605" lon="7.7583123"><ele>882.0</ele><time>2026-04-26T09:00:33.342Z</time></trkpt><trkpt lat="43.9958571" lon="7.7581604"><ele>882.0</ele><time>2026-04-26T09:00:34.343Z</time></trkpt><trkpt lat="43.9958549" lon="7.7580051"><ele>882.0</ele><time>2026-04-26T09:00:35.342Z</time></trkpt><trkpt lat="43.9958542" lon="7.7578475"><ele>882.0</ele><time>2026-04-26T09:00:36.342Z</time></trkpt><trkpt lat="43.9958485" lon="7.7576852"><ele>882.0</ele><time>2026-04-26T09:00:37.342Z</time></trkpt><trkpt lat="43.9958454" lon="7.7575284"><ele>875.0</ele><time>2026-04-26T09:00:38.341Z</time></trkpt><trkpt lat="43.9958346" lon="7.7573747"><ele>868.0</ele><time>2026-04-26T09:00:39.341Z</time></trkpt><trkpt lat="43.9958148" lon="7.7572207"><ele>861.0</ele><time>2026-04-26T09:00:40.343Z</time></trkpt><trkpt lat="43.9957869" lon="7.7570654"><ele>854.0</ele><time>2026-04-26T09:00:41.342Z</time></trkpt><trkpt lat="43.9957611" lon="7.7569046"><ele>857.0</ele><time>2026-04-26T09:00:42.342Z</time></trkpt><trkpt lat="43.9957323" lon="7.7567388"><ele>860.0</ele><time>2026-04-26T09:00:43.341Z</time></trkpt><trkpt lat="43.9957014" lon="7.7565681"><ele>863.0</ele><time>2026-04-26T09:00:44.342Z</time></trkpt><trkpt lat="43.995668" lon="7.7564002"><ele>866.0</ele><time>2026-04-26T09:00:45.343Z</time></trkpt><trkpt lat="43.9956442" lon="7.7562278"><ele>866.0</ele><time>2026-04-26T09:00:46.342Z</time></trkpt><trkpt lat="43.995624" lon="7.7560618"><ele>866.0</ele><time>2026-04-26T09:00:47.343Z</time></trkpt><trkpt lat="43.9955991" lon="7.7558908"><ele>866.0</ele><time>2026-04-26T09:00:48.342Z</time></trkpt><trkpt lat="43.9955739" lon="7.7557188"><ele>866.0</ele><time>2026-04-26T09:00:49.342Z</time></trkpt><trkpt lat="43.9955536" lon="7.7555536"><ele>868.4</ele><time>2026-04-26T09:00:50.341Z</time></trkpt><trkpt lat="43.9955356" lon="7.7553925"><ele>870.8</ele><time>2026-04-26T09:00:51.342Z</time></trkpt><trkpt lat="43.9955189" lon="7.7552451"><ele>873.1999999999999</ele><time>2026-04-26T09:00:52.341Z</time></trkpt><trkpt lat="43.9955178" lon="7.7551151"><ele>875.5999999999999</ele><time>2026-04-26T09:00:53.344Z</time></trkpt><trkpt lat="43.9955355" lon="7.7549868"><ele>878.0</ele><time>2026-04-26T09:00:54.342Z</time></trkpt><trkpt lat="43.9955686" lon="7.7548588"><ele>879.0</ele><time>2026-04-26T09:00:55.343Z</time></trkpt><trkpt lat="43.9956107" lon="7.7547355"><ele>880.0</ele><time>2026-04-26T09:00:56.342Z</time></trkpt><trkpt lat="43.9956539" lon="7.7546034"><ele>881.0</ele><time>2026-04-26T09:00:57.341Z</time></trkpt><trkpt lat="43.9956848" lon="7.7544717"><ele>882.0</ele><time>2026-04-26T09:00:58.342Z</time></trkpt><trkpt lat="43.9957079" lon="7.7543317"><ele>883.0</ele><time>2026-04-26T09:00:59.343Z</time></trkpt><trkpt lat="43.9957151" lon="7.7541889"><ele>883.0</ele><time>2026-04-26T09:01:00.341Z</time></trkpt><trkpt lat="43.9957222" lon="7.75404"><ele>883.0</ele><time>2026-04-26T09:01:01.341Z</time></trkpt><trkpt lat="43.9957292" lon="7.7538837"><ele>883.0</ele><time>2026-04-26T09:01:02.342Z</time></trkpt><trkpt lat="43.9957324" lon="7.7537231"><ele>883.0</ele><time>2026-04-26T09:01:03.341Z</time></trkpt><trkpt lat="43.9957327" lon="7.753565"><ele>883.0</ele><time>2026-04-26T09:01:04.342Z</time></trkpt><trkpt lat="43.995727" lon="7.7534097"><ele>883.2</ele><time>2026-04-26T09:01:05.342Z</time></trkpt><trkpt lat="43.9957274" lon="7.7532562"><ele>883.4</ele><time>2026-04-26T09:01:06.342Z</time></trkpt><trkpt lat="43.9957306" lon="7.7531103"><ele>883.6000000000001</ele><time>2026-04-26T09:01:07.343Z</time></trkpt><trkpt lat="43.9957479" lon="7.7529752"><ele>883.8000000000001</ele><time>2026-04-26T09:01:08.341Z</time></trkpt><trkpt lat="43.9957727" lon="7.7528406"><ele>884.0</ele><time>2026-04-26T09:01:09.344Z</time></trkpt><trkpt lat="43.9958068" lon="7.7527155"><ele>888.0</ele><time>2026-04-26T09:01:10.342Z</time></trkpt><trkpt lat="43.9958522" lon="7.7526048"><ele>892.0000000000001</ele><time>2026-04-26T09:01:11.342Z</time></trkpt><trkpt lat="43.9959026" lon="7.7524973"><ele>896.0000000000001</ele><time>2026-04-26T09:01:12.343Z</time></trkpt><trkpt lat="43.9959517" lon="7.752398"><ele>900.0</ele><time>2026-04-26T09:01:13.342Z</time></trkpt><trkpt lat="43.9960001" lon="7.7523087"><ele>904.0</ele><time>2026-04-26T09:01:14.341Z</time></trkpt><trkpt lat="43.996096" lon="7.7522371"><ele>903.9999999999999</ele><time>2026-04-26T09:01:16.342Z</time></trkpt><trkpt lat="43.9961853" lon="7.7522951"><ele>904.0</ele><time>2026-04-26T09:01:18.341Z</time></trkpt><trkpt lat="43.9962161" lon="7.7523804"><ele>904.0</ele><time>2026-04-26T09:01:19.343Z</time></trkpt><trkpt lat="43.9962329" lon="7.7524809"><ele>904.0</ele><time>2026-04-26T09:01:20.342Z</time></trkpt><trkpt lat="43.9962567" lon="7.7525775"><ele>903.9999999999999</ele><time>2026-04-26T09:01:21.343Z</time></trkpt><trkpt lat="43.9962689" lon="7.752676"><ele>904.0</ele><time>2026-04-26T09:01:22.342Z</time></trkpt><trkpt lat="43.9962818" lon="7.7527806"><ele>903.9999999999999</ele><time>2026-04-26T09:01:23.341Z</time></trkpt><trkpt lat="43.9963002" lon="7.7528876"><ele>904.0</ele><time>2026-04-26T09:01:24.342Z</time></trkpt><trkpt lat="43.9963155" lon="7.7530068"><ele>904.0</ele><time>2026-04-26T09:01:25.344Z</time></trkpt><trkpt lat="43.996334" lon="7.7531217"><ele>904.0</ele><time>2026-04-26T09:01:26.342Z</time></trkpt><trkpt lat="43.9963544" lon="7.7532453"><ele>903.9999999999999</ele><time>2026-04-26T09:01:27.341Z</time></trkpt><trkpt lat="43.9963766" lon="7.7533785"><ele>904.0</ele><time>2026-04-26T09:01:28.342Z</time></trkpt><trkpt lat="43.9964045" lon="7.7535098"><ele>904.8000000000001</ele><time>2026-04-26T09:01:29.343Z</time></trkpt><trkpt lat="43.9964333" lon="7.7536476"><ele>905.6000000000001</ele><time>2026-04-26T09:01:30.341Z</time></trkpt><trkpt lat="43.9964555" lon="7.7537996"><ele>906.4</ele><time>2026-04-26T09:01:31.341Z</time></trkpt><trkpt lat="43.9964631" lon="7.753958"><ele>907.2</ele><time>2026-04-26T09:01:32.342Z</time></trkpt><trkpt lat="43.9964708" lon="7.7541131"><ele>908.0</ele><time>2026-04-26T09:01:33.342Z</time></trkpt><trkpt lat="43.9964722" lon="7.7542542"><ele>909.5000000000001</ele><time>2026-04-26T09:01:34.341Z</time></trkpt><trkpt lat="43.9964659" lon="7.7543771"><ele>911.0</ele><time>2026-04-26T09:01:35.341Z</time></trkpt><trkpt lat="43.996459" lon="7.7544881"><ele>912.5</ele><time>2026-04-26T09:01:36.343Z</time></trkpt><trkpt lat="43.9964481" lon="7.7546007"><ele>914.0</ele><time>2026-04-26T09:01:37.341Z</time></trkpt><trkpt lat="43.996448" lon="7.7547164"><ele>915.5000000000001</ele><time>2026-04-26T09:01:38.341Z</time></trkpt><trkpt lat="43.9964514" lon="7.754846"><ele>917.0</ele><time>2026-04-26T09:01:39.341Z</time></trkpt><trkpt lat="43.9964604" lon="7.7549848"><ele>917.0</ele><time>2026-04-26T09:01:40.343Z</time></trkpt><trkpt lat="43.9964775" lon="7.7551325"><ele>917.0</ele><time>2026-04-26T09:01:41.342Z</time></trkpt><trkpt lat="43.9965019" lon="7.7552691"><ele>917.0</ele><time>2026-04-26T09:01:42.343Z</time></trkpt><trkpt lat="43.9965333" lon="7.7554105"><ele>917.0</ele><time>2026-04-26T09:01:43.342Z</time></trkpt><trkpt lat="43.9965829" lon="7.755572"><ele>917.0</ele><time>2026-04-26T09:01:44.341Z</time></trkpt><trkpt lat="43.9966453" lon="7.7557417"><ele>919.0</ele><time>2026-04-26T09:01:45.342Z</time></trkpt><trkpt lat="43.9967105" lon="7.7559044"><ele>921.0</ele><time>2026-04-26T09:01:46.341Z</time></trkpt><trkpt lat="43.9967673" lon="7.7560468"><ele>923.0</ele><time>2026-04-26T09:01:47.343Z</time></trkpt><trkpt lat="43.9968249" lon="7.7561641"><ele>925.0</ele><time>2026-04-26T09:01:48.342Z</time></trkpt><trkpt lat="43.9968846" lon="7.7562558"><ele>927.0</ele><time>2026-04-26T09:01:49.342Z</time></trkpt><trkpt lat="43.9969643" lon="7.7563125"><ele>927.0</ele><time>2026-04-26T09:01:50.342Z</time></trkpt><trkpt lat="43.9970493" lon="7.7563471"><ele>927.0</ele><time>2026-04-26T09:01:51.343Z</time></trkpt><trkpt lat="43.9971375" lon="7.756381"><ele>927.0</ele><time>2026-04-26T09:01:52.342Z</time></trkpt><trkpt lat="43.997227" lon="7.7564309"><ele>927.0</ele><time>2026-04-26T09:01:53.341Z</time></trkpt><trkpt lat="43.9973039" lon="7.7565007"><ele>927.0</ele><time>2026-04-26T09:01:54.343Z</time></trkpt><trkpt lat="43.9973661" lon="7.7565912"><ele>927.0</ele><time>2026-04-26T09:01:55.342Z</time></trkpt><trkpt lat="43.9974099" lon="7.7567095"><ele>927.0</ele><time>2026-04-26T09:01:56.342Z</time></trkpt><trkpt lat="43.9974434" lon="7.756841"><ele>927.0</ele><time>2026-04-26T09:01:57.341Z</time></trkpt><trkpt lat="43.9974715" lon="7.7569842"><ele>927.0</ele><time>2026-04-26T09:01:58.341Z</time></trkpt><trkpt lat="43.9975021" lon="7.7571318"><ele>927.0</ele><time>2026-04-26T09:01:59.342Z</time></trkpt><trkpt lat="43.9975339" lon="7.7572788"><ele>938.75</ele><time>2026-04-26T09:02:00.343Z</time></trkpt><trkpt lat="43.9975583" lon="7.7574331"><ele>950.5</ele><time>2026-04-26T09:02:01.343Z</time></trkpt><trkpt lat="43.9975742" lon="7.7575934"><ele>962.25</ele><time>2026-04-26T09:02:02.342Z</time></trkpt><trkpt lat="43.997575" lon="7.7577691"><ele>974.0</ele><time>2026-04-26T09:02:03.343Z</time></trkpt><trkpt lat="43.9975734" lon="7.7579522"><ele>976.75</ele><time>2026-04-26T09:02:04.342Z</time></trkpt><trkpt lat="43.9975719" lon="7.758129"><ele>979.5</ele><time>2026-04-26T09:02:05.342Z</time></trkpt><trkpt lat="43.9975715" lon="7.7583108"><ele>982.25</ele><time>2026-04-26T09:02:06.342Z</time></trkpt><trkpt lat="43.9975781" lon="7.7584988"><ele>985.0</ele><time>2026-04-26T09:02:07.344Z</time></trkpt><trkpt lat="43.9975821" lon="7.7586859"><ele>985.5</ele><time>2026-04-26T09:02:08.343Z</time></trkpt><trkpt lat="43.9975838" lon="7.7588671"><ele>986.0</ele><time>2026-04-26T09:02:09.341Z</time></trkpt><trkpt lat="43.997581" lon="7.7590504"><ele>986.5</ele><time>2026-04-26T09:02:10.341Z</time></trkpt><trkpt lat="43.997576" lon="7.7592295"><ele>987.0</ele><time>2026-04-26T09:02:11.341Z</time></trkpt><trkpt lat="43.9975719" lon="7.7594128"><ele>983.75</ele><time>2026-04-26T09:02:12.343Z</time></trkpt><trkpt lat="43.9975682" lon="7.7595951"><ele>980.5</ele><time>2026-04-26T09:02:13.342Z</time></trkpt><trkpt lat="43.9975666" lon="7.7597761"><ele>977.25</ele><time>2026-04-26T09:02:14.341Z</time></trkpt><trkpt lat="43.9975614" lon="7.7599562"><ele>974.0</ele><time>2026-04-26T09:02:15.342Z</time></trkpt><trkpt lat="43.9975547" lon="7.7601404"><ele>965.75</ele><time>2026-04-26T09:02:16.341Z</time></trkpt><trkpt lat="43.9975465" lon="7.7603252"><ele>957.5</ele><time>2026-04-26T09:02:17.342Z</time></trkpt><trkpt lat="43.9975404" lon="7.7604991"><ele>949.25</ele><time>2026-04-26T09:02:18.341Z</time></trkpt><trkpt lat="43.997542" lon="7.7606614"><ele>941.0</ele><time>2026-04-26T09:02:19.343Z</time></trkpt><trkpt lat="43.9975463" lon="7.7608131"><ele>941.0</ele><time>2026-04-26T09:02:20.342Z</time></trkpt><trkpt lat="43.9975571" lon="7.7609414"><ele>940.9999999999999</ele><time>2026-04-26T09:02:21.341Z</time></trkpt><trkpt lat="43.9975792" lon="7.7610391"><ele>940.9999999999999</ele><time>2026-04-26T09:02:22.342Z</time></trkpt><trkpt lat="43.9976525" lon="7.7611177"><ele>941.0</ele><time>2026-04-26T09:02:24.343Z</time></trkpt><trkpt lat="43.9977561" lon="7.7610706"><ele>941.0</ele><time>2026-04-26T09:02:26.343Z</time></trkpt><trkpt lat="43.9978372" lon="7.7610208"><ele>941.0000000000001</ele><time>2026-04-26T09:02:27.343Z</time></trkpt><trkpt lat="43.9979099" lon="7.7609894"><ele>941.0</ele><time>2026-04-26T09:02:28.341Z</time></trkpt><trkpt lat="43.9979861" lon="7.7609393"><ele>941.0</ele><time>2026-04-26T09:02:29.341Z</time></trkpt><trkpt lat="43.9980524" lon="7.7608882"><ele>941.0</ele><time>2026-04-26T09:02:30.343Z</time></trkpt><trkpt lat="43.998125" lon="7.7608212"><ele>941.0000000000001</ele><time>2026-04-26T09:02:31.344Z</time></trkpt><trkpt lat="43.9982005" lon="7.7607495"><ele>941.0</ele><time>2026-04-26T09:02:32.343Z</time></trkpt><trkpt lat="43.9982758" lon="7.7606903"><ele>938.1666666666667</ele><time>2026-04-26T09:02:33.341Z</time></trkpt><trkpt lat="43.9983681" lon="7.7606849"><ele>935.3333333333334</ele><time>2026-04-26T09:02:34.343Z</time></trkpt><trkpt lat="43.9984521" lon="7.7606639"><ele>932.5</ele><time>2026-04-26T09:02:35.342Z</time></trkpt><trkpt lat="43.998539" lon="7.7606462"><ele>929.6666666666667</ele><time>2026-04-26T09:02:36.343Z</time></trkpt><trkpt lat="43.9986169" lon="7.7606106"><ele>926.8333333333334</ele><time>2026-04-26T09:02:37.342Z</time></trkpt><trkpt lat="43.9986951" lon="7.7605562"><ele>924.0</ele><time>2026-04-26T09:02:38.343Z</time></trkpt><trkpt lat="43.9987766" lon="7.7604829"><ele>924.0</ele><time>2026-04-26T09:02:39.342Z</time></trkpt><trkpt lat="43.9988556" lon="7.7604226"><ele>924.0000000000001</ele><time>2026-04-26T09:02:40.344Z</time></trkpt><trkpt lat="43.9989389" lon="7.7603391"><ele>924.0000000000001</ele><time>2026-04-26T09:02:41.342Z</time></trkpt><trkpt lat="43.999022" lon="7.760274"><ele>924.0</ele><time>2026-04-26T09:02:42.343Z</time></trkpt><trkpt lat="43.999108" lon="7.7602086"><ele>924.0</ele><time>2026-04-26T09:02:43.341Z</time></trkpt><trkpt lat="43.9992021" lon="7.7601582"><ele>929.3333333333334</ele><time>2026-04-26T09:02:44.342Z</time></trkpt><trkpt lat="43.9992886" lon="7.760122"><ele>934.6666666666667</ele><time>2026-04-26T09:02:45.341Z</time></trkpt><trkpt lat="43.9993715" lon="7.7600627"><ele>940.0</ele><time>2026-04-26T09:02:46.341Z</time></trkpt><trkpt lat="43.999453" lon="7.760023"><ele>945.3333333333334</ele><time>2026-04-26T09:02:47.342Z</time></trkpt><trkpt lat="43.9995264" lon="7.7599948"><ele>950.6666666666667</ele><time>2026-04-26T09:02:48.342Z</time></trkpt><trkpt lat="43.9995924" lon="7.7599726"><ele>956.0</ele><time>2026-04-26T09:02:49.343Z</time></trkpt><trkpt lat="43.9996553" lon="7.7599404"><ele>956.0000000000001</ele><time>2026-04-26T09:02:50.344Z</time></trkpt><trkpt lat="43.9997346" lon="7.7599259"><ele>956.0</ele><time>2026-04-26T09:02:51.343Z</time></trkpt><trkpt lat="43.9998067" lon="7.7599057"><ele>956.0</ele><time>2026-04-26T09:02:52.343Z</time></trkpt><trkpt lat="43.9998804" lon="7.7598629"><ele>956.0</ele><time>2026-04-26T09:02:53.342Z</time></trkpt><trkpt lat="43.9999513" lon="7.759798"><ele>956.0000000000001</ele><time>2026-04-26T09:02:54.342Z</time></trkpt><trkpt lat="44.0000211" lon="7.7597331"><ele>956.0</ele><time>2026-04-26T09:02:55.342Z</time></trkpt><trkpt lat="44.0000906" lon="7.7596586"><ele>956.0</ele><time>2026-04-26T09:02:56.342Z</time></trkpt><trkpt lat="44.0001564" lon="7.7595963"><ele>955.9999999999999</ele><time>2026-04-26T09:02:57.341Z</time></trkpt><trkpt lat="44.0002365" lon="7.7595309"><ele>955.9999999999999</ele><time>2026-04-26T09:02:58.342Z</time></trkpt><trkpt lat="44.0003195" lon="7.7594497"><ele>956.0</ele><time>2026-04-26T09:02:59.341Z</time></trkpt><trkpt lat="44.0004025" lon="7.7593796"><ele>956.0</ele><time>2026-04-26T09:03:00.341Z</time></trkpt><trkpt lat="44.0004916" lon="7.759296"><ele>959.1999999999999</ele><time>2026-04-26T09:03:01.341Z</time></trkpt><trkpt lat="44.0005821" lon="7.7592154"><ele>962.3999999999999</ele><time>2026-04-26T09:03:02.344Z</time></trkpt><trkpt lat="44.0006687" lon="7.7591408"><ele>965.6</ele><time>2026-04-26T09:03:03.342Z</time></trkpt><trkpt lat="44.0007492" lon="7.7590792"><ele>968.8</ele><time>2026-04-26T09:03:04.343Z</time></trkpt><trkpt lat="44.000829" lon="7.7589972"><ele>972.0</ele><time>2026-04-26T09:03:05.342Z</time></trkpt><trkpt lat="44.0008944" lon="7.7589001"><ele>972.0</ele><time>2026-04-26T09:03:06.343Z</time></trkpt><trkpt lat="44.0009533" lon="7.7587924"><ele>972.0</ele><time>2026-04-26T09:03:07.343Z</time></trkpt><trkpt lat="44.0010199" lon="7.7586835"><ele>972.0</ele><time>2026-04-26T09:03:08.342Z</time></trkpt><trkpt lat="44.0010831" lon="7.7585707"><ele>972.0</ele><time>2026-04-26T09:03:09.342Z</time></trkpt><trkpt lat="44.0011453" lon="7.7584715"><ele>972.0</ele><time>2026-04-26T09:03:10.343Z</time></trkpt><trkpt lat="44.0012102" lon="7.7583667"><ele>981.4000000000001</ele><time>2026-04-26T09:03:11.343Z</time></trkpt><trkpt lat="44.0012756" lon="7.7582702"><ele>990.8000000000001</ele><time>2026-04-26T09:03:12.343Z</time></trkpt><trkpt lat="44.0013438" lon="7.7581657"><ele>1000.2</ele><time>2026-04-26T09:03:13.342Z</time></trkpt><trkpt lat="44.0014078" lon="7.7580639"><ele>1009.6</ele><time>2026-04-26T09:03:14.342Z</time></trkpt><trkpt lat="44.0014658" lon="7.7579615"><ele>1019.0</ele><time>2026-04-26T09:03:15.343Z</time></trkpt><trkpt lat="44.0015259" lon="7.7578615"><ele>1019.0</ele><time>2026-04-26T09:03:16.341Z</time></trkpt><trkpt lat="44.0015832" lon="7.7577613"><ele>1019.0000000000001</ele><time>2026-04-26T09:03:17.342Z</time></trkpt><trkpt lat="44.0016424" lon="7.757657"><ele>1019.0000000000001</ele><time>2026-04-26T09:03:18.343Z</time></trkpt><trkpt lat="44.0017132" lon="7.7575573"><ele>1019.0</ele><time>2026-04-26T09:03:19.341Z</time></trkpt><trkpt lat="44.0017792" lon="7.7574666"><ele>1019.0</ele><time>2026-04-26T09:03:20.341Z</time></trkpt><trkpt lat="44.0018376" lon="7.7573773"><ele>1017.0</ele><time>2026-04-26T09:03:21.343Z</time></trkpt><trkpt lat="44.0019061" lon="7.757286"><ele>1015.0000000000001</ele><time>2026-04-26T09:03:22.343Z</time></trkpt><trkpt lat="44.0019945" lon="7.7572187"><ele>1013.0000000000001</ele><time>2026-04-26T09:03:23.343Z</time></trkpt><trkpt lat="44.0020764" lon="7.7571485"><ele>1011.0</ele><time>2026-04-26T09:03:24.342Z</time></trkpt><trkpt lat="44.0021606" lon="7.7570848"><ele>1009.0</ele><time>2026-04-26T09:03:25.342Z</time></trkpt><trkpt lat="44.0022415" lon="7.7570122"><ele>1009.0</ele><time>2026-04-26T09:03:26.341Z</time></trkpt><trkpt lat="44.0023188" lon="7.7569238"><ele>1009.0000000000001</ele><time>2026-04-26T09:03:27.343Z</time></trkpt><trkpt lat="44.0023991" lon="7.7568352"><ele>1009.0000000000001</ele><time>2026-04-26T09:03:28.342Z</time></trkpt><trkpt lat="44.0024912" lon="7.7567435"><ele>1009.0</ele><time>2026-04-26T09:03:29.342Z</time></trkpt><trkpt lat="44.0025783" lon="7.7566357"><ele>1009.0</ele><time>2026-04-26T09:03:30.342Z</time></trkpt><trkpt lat="44.0026601" lon="7.7565426"><ele>1012.0</ele><time>2026-04-26T09:03:31.344Z</time></trkpt><trkpt lat="44.0027421" lon="7.7564531"><ele>1015.0000000000001</ele><time>2026-04-26T09:03:32.342Z</time></trkpt><trkpt lat="44.0028143" lon="7.7563979"><ele>1018.0000000000001</ele><time>2026-04-26T09:03:33.343Z</time></trkpt><trkpt lat="44.0028758" lon="7.7563265"><ele>1021.0</ele><time>2026-04-26T09:03:34.342Z</time></trkpt><trkpt lat="44.0029442" lon="7.7562421"><ele>1024.0</ele><time>2026-04-26T09:03:35.341Z</time></trkpt><trkpt lat="44.002982" lon="7.7561182"><ele>1033.0</ele><time>2026-04-26T09:03:36.341Z</time></trkpt><trkpt lat="44.0030289" lon="7.7560101"><ele>1042.0</ele><time>2026-04-26T09:03:37.343Z</time></trkpt><trkpt lat="44.0030759" lon="7.7559018"><ele>1051.0</ele><time>2026-04-26T09:03:38.342Z</time></trkpt><trkpt lat="44.0031241" lon="7.7557958"><ele>1060.0</ele><time>2026-04-26T09:03:39.344Z</time></trkpt><trkpt lat="44.0031852" lon="7.7556993"><ele>1069.0</ele><time>2026-04-26T09:03:40.343Z</time></trkpt><trkpt lat="44.0032622" lon="7.7556389"><ele>1067.1666666666665</ele><time>2026-04-26T09:03:41.344Z</time></trkpt><trkpt lat="44.0033311" lon="7.75558"><ele>1065.3333333333333</ele><time>2026-04-26T09:03:42.343Z</time></trkpt><trkpt lat="44.0034059" lon="7.7555161"><ele>1063.5</ele><time>2026-04-26T09:03:43.342Z</time></trkpt><trkpt lat="44.0034561" lon="7.7554127"><ele>1061.6666666666667</ele><time>2026-04-26T09:03:44.342Z</time></trkpt><trkpt lat="44.0035035" lon="7.7553085"><ele>1059.8333333333335</ele><time>2026-04-26T09:03:45.342Z</time></trkpt><trkpt lat="44.0035447" lon="7.7552024"><ele>1058.0</ele><time>2026-04-26T09:03:46.342Z</time></trkpt><trkpt lat="44.0035892" lon="7.7550936"><ele>1058.0</ele><time>2026-04-26T09:03:47.342Z</time></trkpt><trkpt lat="44.003625" lon="7.7549915"><ele>1058.0</ele><time>2026-04-26T09:03:48.344Z</time></trkpt><trkpt lat="44.0036773" lon="7.7549182"><ele>1058.0</ele><time>2026-04-26T09:03:49.342Z</time></trkpt><trkpt lat="44.0037362" lon="7.7548494"><ele>1058.0</ele><time>2026-04-26T09:03:50.341Z</time></trkpt><trkpt lat="44.0038297" lon="7.7548296"><ele>1058.0</ele><time>2026-04-26T09:03:51.342Z</time></trkpt><trkpt lat="44.0039148" lon="7.7547956"><ele>1058.0</ele><time>2026-04-26T09:03:52.342Z</time></trkpt><trkpt lat="44.0039887" lon="7.7547595"><ele>1058.0</ele><time>2026-04-26T09:03:53.343Z</time></trkpt><trkpt lat="44.0040952" lon="7.754711"><ele>1058.0</ele><time>2026-04-26T09:03:54.342Z</time></trkpt><trkpt lat="44.0041963" lon="7.7546688"><ele>1058.0</ele><time>2026-04-26T09:03:55.342Z</time></trkpt><trkpt lat="44.0042877" lon="7.754603"><ele>1058.0</ele><time>2026-04-26T09:03:56.342Z</time></trkpt><trkpt lat="44.0043845" lon="7.7545402"><ele>1058.0</ele><time>2026-04-26T09:03:57.342Z</time></trkpt><trkpt lat="44.0044754" lon="7.7544815"><ele>1057.0</ele><time>2026-04-26T09:03:58.342Z</time></trkpt><trkpt lat="44.004564" lon="7.7544271"><ele>1056.0</ele><time>2026-04-26T09:03:59.343Z</time></trkpt><trkpt lat="44.0046566" lon="7.754375"><ele>1055.0</ele><time>2026-04-26T09:04:00.344Z</time></trkpt><trkpt lat="44.0047538" lon="7.7543242"><ele>1054.0</ele><time>2026-04-26T09:04:01.342Z</time></trkpt><trkpt lat="44.0048382" lon="7.7542923"><ele>1053.0</ele><time>2026-04-26T09:04:02.342Z</time></trkpt><trkpt lat="44.0049251" lon="7.7542831"><ele>1051.5</ele><time>2026-04-26T09:04:03.343Z</time></trkpt><trkpt lat="44.0050077" lon="7.7542897"><ele>1050.0</ele><time>2026-04-26T09:04:04.343Z</time></trkpt><trkpt lat="44.0050873" lon="7.7543128"><ele>1048.5</ele><time>2026-04-26T09:04:05.342Z</time></trkpt><trkpt lat="44.005163" lon="7.7543904"><ele>1047.0</ele><time>2026-04-26T09:04:06.343Z</time></trkpt><trkpt lat="44.0052418" lon="7.7544341"><ele>1045.5</ele><time>2026-04-26T09:04:07.343Z</time></trkpt><trkpt lat="44.0053178" lon="7.754444"><ele>1044.0</ele><time>2026-04-26T09:04:08.342Z</time></trkpt><trkpt lat="44.0053968" lon="7.7544238"><ele>1044.0</ele><time>2026-04-26T09:04:09.342Z</time></trkpt><trkpt lat="44.0054773" lon="7.7543928"><ele>1044.0</ele><time>2026-04-26T09:04:10.343Z</time></trkpt><trkpt lat="44.0055557" lon="7.7543363"><ele>1044.0</ele><time>2026-04-26T09:04:11.342Z</time></trkpt><trkpt lat="44.0056387" lon="7.7542699"><ele>1044.0</ele><time>2026-04-26T09:04:12.343Z</time></trkpt><trkpt lat="44.0057193" lon="7.7541907"><ele>1044.0</ele><time>2026-04-26T09:04:13.342Z</time></trkpt><trkpt lat="44.0058023" lon="7.7541101"><ele>1043.4</ele><time>2026-04-26T09:04:14.343Z</time></trkpt><trkpt lat="44.0058901" lon="7.7540262"><ele>1042.8000000000002</ele><time>2026-04-26T09:04:15.341Z</time></trkpt><trkpt lat="44.0059798" lon="7.7539506"><ele>1042.1999999999998</ele><time>2026-04-26T09:04:16.342Z</time></trkpt><trkpt lat="44.0060734" lon="7.753874"><ele>1041.6</ele><time>2026-04-26T09:04:17.343Z</time></trkpt><trkpt lat="44.0061645" lon="7.7537974"><ele>1041.0</ele><time>2026-04-26T09:04:18.342Z</time></trkpt><trkpt lat="44.0062554" lon="7.7537226"><ele>1041.0</ele><time>2026-04-26T09:04:19.342Z</time></trkpt><trkpt lat="44.0063426" lon="7.753646"><ele>1041.0</ele><time>2026-04-26T09:04:20.342Z</time></trkpt><trkpt lat="44.0064187" lon="7.7535711"><ele>1041.0</ele><time>2026-04-26T09:04:21.342Z</time></trkpt><trkpt lat="44.0064894" lon="7.7534932"><ele>1041.0</ele><time>2026-04-26T09:04:22.342Z</time></trkpt><trkpt lat="44.0065553" lon="7.7534013"><ele>1041.0</ele><time>2026-04-26T09:04:23.343Z</time></trkpt><trkpt lat="44.0066209" lon="7.7532956"><ele>1043.0</ele><time>2026-04-26T09:04:24.343Z</time></trkpt><trkpt lat="44.0066819" lon="7.7531758"><ele>1045.0</ele><time>2026-04-26T09:04:25.342Z</time></trkpt><trkpt lat="44.0067442" lon="7.7530491"><ele>1047.0</ele><time>2026-04-26T09:04:26.344Z</time></trkpt><trkpt lat="44.0068028" lon="7.7529262"><ele>1049.0</ele><time>2026-04-26T09:04:27.343Z</time></trkpt><trkpt lat="44.0068648" lon="7.7528082"><ele>1051.0</ele><time>2026-04-26T09:04:28.342Z</time></trkpt><trkpt lat="44.0069241" lon="7.7526908"><ele>1054.6</ele><time>2026-04-26T09:04:29.341Z</time></trkpt><trkpt lat="44.0069855" lon="7.7525788"><ele>1058.1999999999998</ele><time>2026-04-26T09:04:30.341Z</time></trkpt><trkpt lat="44.0070541" lon="7.7524949"><ele>1061.8000000000002</ele><time>2026-04-26T09:04:31.342Z</time></trkpt><trkpt lat="44.0071227" lon="7.7524083"><ele>1065.4</ele><time>2026-04-26T09:04:32.343Z</time></trkpt><trkpt lat="44.007181" lon="7.7523202"><ele>1069.0</ele><time>2026-04-26T09:04:33.343Z</time></trkpt><trkpt lat="44.007246" lon="7.7522303"><ele>1069.0</ele><time>2026-04-26T09:04:34.342Z</time></trkpt><trkpt lat="44.0073021" lon="7.7521381"><ele>1069.0</ele><time>2026-04-26T09:04:35.343Z</time></trkpt><trkpt lat="44.007358" lon="7.7520416"><ele>1069.0</ele><time>2026-04-26T09:04:36.343Z</time></trkpt><trkpt lat="44.0074089" lon="7.7519459"><ele>1069.0</ele><time>2026-04-26T09:04:37.343Z</time></trkpt><trkpt lat="44.0074682" lon="7.7518573"><ele>1069.0</ele><time>2026-04-26T09:04:38.342Z</time></trkpt><trkpt lat="44.0075372" lon="7.7517691"><ele>1069.0</ele><time>2026-04-26T09:04:39.343Z</time></trkpt><trkpt lat="44.0076055" lon="7.7517032"><ele>1069.1666666666665</ele><time>2026-04-26T09:04:40.342Z</time></trkpt><trkpt lat="44.0076588" lon="7.7516405"><ele>1069.3333333333333</ele><time>2026-04-26T09:04:41.342Z</time></trkpt><trkpt lat="44.0077053" lon="7.7515272"><ele>1069.5</ele><time>2026-04-26T09:04:43.343Z</time></trkpt><trkpt lat="44.0076711" lon="7.7514317"><ele>1069.6666666666667</ele><time>2026-04-26T09:04:45.342Z</time></trkpt><trkpt lat="44.0075795" lon="7.7514533"><ele>1069.8333333333335</ele><time>2026-04-26T09:04:47.343Z</time></trkpt><trkpt lat="44.0074871" lon="7.7515341"><ele>1070.0</ele><time>2026-04-26T09:04:49.342Z</time></trkpt><trkpt lat="44.0073757" lon="7.7515994"><ele>1069.8333333333335</ele><time>2026-04-26T09:04:51.343Z</time></trkpt><trkpt lat="44.0073064" lon="7.7516258"><ele>1069.6666666666667</ele><time>2026-04-26T09:04:52.342Z</time></trkpt><trkpt lat="44.0072297" lon="7.7516572"><ele>1069.5</ele><time>2026-04-26T09:04:53.342Z</time></trkpt><trkpt lat="44.0071533" lon="7.7516869"><ele>1069.3333333333333</ele><time>2026-04-26T09:04:54.343Z</time></trkpt><trkpt lat="44.0070668" lon="7.7517296"><ele>1069.1666666666665</ele><time>2026-04-26T09:04:55.343Z</time></trkpt><trkpt lat="44.0069736" lon="7.7518082"><ele>1069.0</ele><time>2026-04-26T09:04:56.343Z</time></trkpt><trkpt lat="44.0068776" lon="7.7519136"><ele>1069.0</ele><time>2026-04-26T09:04:57.342Z</time></trkpt><trkpt lat="44.0067869" lon="7.7520234"><ele>1069.0</ele><time>2026-04-26T09:04:58.342Z</time></trkpt><trkpt lat="44.0066947" lon="7.7521221"><ele>1069.0</ele><time>2026-04-26T09:04:59.342Z</time></trkpt><trkpt lat="44.0066028" lon="7.752204"><ele>1069.0</ele><time>2026-04-26T09:05:00.342Z</time></trkpt><trkpt lat="44.0065131" lon="7.7522786"><ele>1074.2</ele><time>2026-04-26T09:05:01.341Z</time></trkpt><trkpt lat="44.0064217" lon="7.752354"><ele>1079.4</ele><time>2026-04-26T09:05:02.343Z</time></trkpt><trkpt lat="44.0063253" lon="7.7524195"><ele>1084.6</ele><time>2026-04-26T09:05:03.343Z</time></trkpt><trkpt lat="44.006226" lon="7.7524781"><ele>1089.8</ele><time>2026-04-26T09:05:04.342Z</time></trkpt><trkpt lat="44.0061275" lon="7.7525392"><ele>1095.0</ele><time>2026-04-26T09:05:05.343Z</time></trkpt><trkpt lat="44.0060222" lon="7.7525943"><ele>1095.0</ele><time>2026-04-26T09:05:06.342Z</time></trkpt><trkpt lat="44.0059271" lon="7.7526646"><ele>1095.0</ele><time>2026-04-26T09:05:07.343Z</time></trkpt><trkpt lat="44.0058303" lon="7.7527385"><ele>1095.0</ele><time>2026-04-26T09:05:08.343Z</time></trkpt><trkpt lat="44.0057355" lon="7.7527991"><ele>1095.0</ele><time>2026-04-26T09:05:09.342Z</time></trkpt><trkpt lat="44.0056681" lon="7.7528927"><ele>1095.0</ele><time>2026-04-26T09:05:10.342Z</time></trkpt><trkpt lat="44.0055888" lon="7.7529712"><ele>1091.8</ele><time>2026-04-26T09:05:11.342Z</time></trkpt><trkpt lat="44.0055002" lon="7.7530287"><ele>1088.6</ele><time>2026-04-26T09:05:12.343Z</time></trkpt><trkpt lat="44.0054133" lon="7.7530893"><ele>1085.4</ele><time>2026-04-26T09:05:13.343Z</time></trkpt><trkpt lat="44.0053225" lon="7.7531349"><ele>1082.2</ele><time>2026-04-26T09:05:14.344Z</time></trkpt><trkpt lat="44.0052287" lon="7.7531795"><ele>1079.0</ele><time>2026-04-26T09:05:15.342Z</time></trkpt><trkpt lat="44.0051453" lon="7.7532246"><ele>1079.0</ele><time>2026-04-26T09:05:16.343Z</time></trkpt><trkpt lat="44.0050724" lon="7.7532353"><ele>1079.0</ele><time>2026-04-26T09:05:17.343Z</time></trkpt><trkpt lat="44.0049883" lon="7.7531778"><ele>1079.0</ele><time>2026-04-26T09:05:19.343Z</time></trkpt><trkpt lat="44.0049805" lon="7.7530746"><ele>1079.0</ele><time>2026-04-26T09:05:21.341Z</time></trkpt><trkpt lat="44.0050621" lon="7.7529815"><ele>1079.0</ele><time>2026-04-26T09:05:23.341Z</time></trkpt><trkpt lat="44.0051337" lon="7.7529449"><ele>1079.0</ele><time>2026-04-26T09:05:24.342Z</time></trkpt><trkpt lat="44.0051985" lon="7.7529081"><ele>1079.0</ele><time>2026-04-26T09:05:25.343Z</time></trkpt><trkpt lat="44.0052642" lon="7.752868"><ele>1079.0</ele><time>2026-04-26T09:05:26.342Z</time></trkpt><trkpt lat="44.0053165" lon="7.7527889"><ele>1079.0</ele><time>2026-04-26T09:05:27.343Z</time></trkpt><trkpt lat="44.005373" lon="7.7527021"><ele>1079.0</ele><time>2026-04-26T09:05:28.342Z</time></trkpt><trkpt lat="44.0054372" lon="7.7526092"><ele>1079.0</ele><time>2026-04-26T09:05:29.342Z</time></trkpt><trkpt lat="44.005498" lon="7.7525219"><ele>1079.0</ele><time>2026-04-26T09:05:30.342Z</time></trkpt><trkpt lat="44.005577" lon="7.7524363"><ele>1082.2</ele><time>2026-04-26T09:05:31.343Z</time></trkpt><trkpt lat="44.0056557" lon="7.7523517"><ele>1085.4</ele><time>2026-04-26T09:05:32.342Z</time></trkpt><trkpt lat="44.005725" lon="7.7522499"><ele>1088.6</ele><time>2026-04-26T09:05:33.342Z</time></trkpt><trkpt lat="44.0057918" lon="7.7521488"><ele>1091.8</ele><time>2026-04-26T09:05:34.342Z</time></trkpt><trkpt lat="44.0058508" lon="7.7520241"><ele>1095.0</ele><time>2026-04-26T09:05:35.342Z</time></trkpt><trkpt lat="44.0059049" lon="7.7519201"><ele>1098.2</ele><time>2026-04-26T09:05:36.342Z</time></trkpt><trkpt lat="44.005959" lon="7.7518009"><ele>1101.4</ele><time>2026-04-26T09:05:37.343Z</time></trkpt><trkpt lat="44.0060101" lon="7.7516785"><ele>1104.6</ele><time>2026-04-26T09:05:38.343Z</time></trkpt><trkpt lat="44.0060523" lon="7.7515427"><ele>1107.8</ele><time>2026-04-26T09:05:39.343Z</time></trkpt><trkpt lat="44.0060879" lon="7.751418"><ele>1111.0</ele><time>2026-04-26T09:05:40.341Z</time></trkpt><trkpt lat="44.0061233" lon="7.7512929"><ele>1111.0</ele><time>2026-04-26T09:05:41.344Z</time></trkpt><trkpt lat="44.0061602" lon="7.7511738"><ele>1111.0</ele><time>2026-04-26T09:05:42.342Z</time></trkpt><trkpt lat="44.0062109" lon="7.7510698"><ele>1111.0</ele><time>2026-04-26T09:05:43.343Z</time></trkpt><trkpt lat="44.0062696" lon="7.7509604"><ele>1111.0</ele><time>2026-04-26T09:05:44.343Z</time></trkpt><trkpt lat="44.0063215" lon="7.7508642"><ele>1111.0</ele><time>2026-04-26T09:05:45.342Z</time></trkpt><trkpt lat="44.0063751" lon="7.7507702"><ele>1110.8333333333333</ele><time>2026-04-26T09:05:46.343Z</time></trkpt><trkpt lat="44.006433" lon="7.7506899"><ele>1110.6666666666665</ele><time>2026-04-26T09:05:47.343Z</time></trkpt><trkpt lat="44.0064891" lon="7.7506051"><ele>1110.5</ele><time>2026-04-26T09:05:48.343Z</time></trkpt><trkpt lat="44.006543" lon="7.750512"><ele>1110.3333333333333</ele><time>2026-04-26T09:05:49.341Z</time></trkpt><trkpt lat="44.0065997" lon="7.7504189"><ele>1110.1666666666667</ele><time>2026-04-26T09:05:50.342Z</time></trkpt><trkpt lat="44.006662" lon="7.7503296"><ele>1110.0</ele><time>2026-04-26T09:05:51.342Z</time></trkpt><trkpt lat="44.0067565" lon="7.7502512"><ele>1114.4</ele><time>2026-04-26T09:05:52.342Z</time></trkpt><trkpt lat="44.0068376" lon="7.750179"><ele>1118.8</ele><time>2026-04-26T09:05:53.343Z</time></trkpt><trkpt lat="44.0069308" lon="7.7501052"><ele>1123.2</ele><time>2026-04-26T09:05:54.343Z</time></trkpt><trkpt lat="44.0070196" lon="7.7500143"><ele>1127.6</ele><time>2026-04-26T09:05:55.342Z</time></trkpt><trkpt lat="44.0070953" lon="7.7498983"><ele>1132.0</ele><time>2026-04-26T09:05:56.343Z</time></trkpt><trkpt lat="44.0071665" lon="7.7497768"><ele>1132.0</ele><time>2026-04-26T09:05:57.344Z</time></trkpt><trkpt lat="44.0072306" lon="7.7496479"><ele>1132.0</ele><time>2026-04-26T09:05:58.343Z</time></trkpt><trkpt lat="44.0072901" lon="7.7495122"><ele>1132.0</ele><time>2026-04-26T09:05:59.341Z</time></trkpt><trkpt lat="44.0073437" lon="7.7493768"><ele>1132.0</ele><time>2026-04-26T09:06:00.344Z</time></trkpt><trkpt lat="44.0073958" lon="7.7492494"><ele>1132.0</ele><time>2026-04-26T09:06:01.342Z</time></trkpt><trkpt lat="44.0074478" lon="7.7491252"><ele>1133.8</ele><time>2026-04-26T09:06:02.343Z</time></trkpt><trkpt lat="44.0075016" lon="7.7490065"><ele>1135.6</ele><time>2026-04-26T09:06:03.343Z</time></trkpt><trkpt lat="44.007564" lon="7.7488957"><ele>1137.3999999999999</ele><time>2026-04-26T09:06:04.342Z</time></trkpt><trkpt lat="44.0076373" lon="7.7487859"><ele>1139.2</ele><time>2026-04-26T09:06:05.342Z</time></trkpt><trkpt lat="44.0077189" lon="7.7486868"><ele>1141.0</ele><time>2026-04-26T09:06:06.341Z</time></trkpt><trkpt lat="44.0078182" lon="7.748592"><ele>1146.75</ele><time>2026-04-26T09:06:07.343Z</time></trkpt><trkpt lat="44.0079247" lon="7.7485176"><ele>1152.5</ele><time>2026-04-26T09:06:08.343Z</time></trkpt><trkpt lat="44.0080397" lon="7.7484583"><ele>1158.25</ele><time>2026-04-26T09:06:09.341Z</time></trkpt><trkpt lat="44.0081628" lon="7.7484038"><ele>1164.0</ele><time>2026-04-26T09:06:10.344Z</time></trkpt><trkpt lat="44.0082901" lon="7.7483553"><ele>1159.25</ele><time>2026-04-26T09:06:11.343Z</time></trkpt><trkpt lat="44.008419" lon="7.7482935"><ele>1154.5</ele><time>2026-04-26T09:06:12.342Z</time></trkpt><trkpt lat="44.008543" lon="7.7482231"><ele>1149.75</ele><time>2026-04-26T09:06:13.342Z</time></trkpt><trkpt lat="44.0086639" lon="7.7481668"><ele>1145.0</ele><time>2026-04-26T09:06:14.342Z</time></trkpt><trkpt lat="44.0087783" lon="7.7481174"><ele>1145.0</ele><time>2026-04-26T09:06:15.342Z</time></trkpt><trkpt lat="44.0089001" lon="7.748077"><ele>1145.0</ele><time>2026-04-26T09:06:16.342Z</time></trkpt><trkpt lat="44.0090218" lon="7.7480377"><ele>1145.0</ele><time>2026-04-26T09:06:17.342Z</time></trkpt><trkpt lat="44.009135" lon="7.7480138"><ele>1145.0</ele><time>2026-04-26T09:06:18.342Z</time></trkpt><trkpt lat="44.0092435" lon="7.7479978"><ele>1145.0</ele><time>2026-04-26T09:06:19.342Z</time></trkpt><trkpt lat="44.0093614" lon="7.7479951"><ele>1145.0</ele><time>2026-04-26T09:06:20.342Z</time></trkpt><trkpt lat="44.0094823" lon="7.7479937"><ele>1145.0</ele><time>2026-04-26T09:06:21.342Z</time></trkpt><trkpt lat="44.0096071" lon="7.7479911"><ele>1145.0</ele><time>2026-04-26T09:06:22.342Z</time></trkpt><trkpt lat="44.0097343" lon="7.7479823"><ele>1145.0</ele><time>2026-04-26T09:06:23.344Z</time></trkpt><trkpt lat="44.0098567" lon="7.7479675"><ele>1145.0</ele><time>2026-04-26T09:06:24.343Z</time></trkpt><trkpt lat="44.0099729" lon="7.7479531"><ele>1145.0</ele><time>2026-04-26T09:06:25.342Z</time></trkpt><trkpt lat="44.0100907" lon="7.7479679"><ele>1145.0</ele><time>2026-04-26T09:06:26.342Z</time></trkpt><trkpt lat="44.010208" lon="7.747981"><ele>1146.5</ele><time>2026-04-26T09:06:27.343Z</time></trkpt><trkpt lat="44.0103296" lon="7.7479845"><ele>1148.0</ele><time>2026-04-26T09:06:28.342Z</time></trkpt><trkpt lat="44.0104515" lon="7.7479792"><ele>1149.5</ele><time>2026-04-26T09:06:29.343Z</time></trkpt><trkpt lat="44.0105633" lon="7.7479736"><ele>1151.0</ele><time>2026-04-26T09:06:30.343Z</time></trkpt><trkpt lat="44.0106737" lon="7.7479607"><ele>1151.0</ele><time>2026-04-26T09:06:31.343Z</time></trkpt><trkpt lat="44.0107793" lon="7.7479492"><ele>1151.0</ele><time>2026-04-26T09:06:32.342Z</time></trkpt><trkpt lat="44.010883" lon="7.7479316"><ele>1151.0</ele><time>2026-04-26T09:06:33.342Z</time></trkpt><trkpt lat="44.0109895" lon="7.7479372"><ele>1151.0</ele><time>2026-04-26T09:06:34.342Z</time></trkpt><trkpt lat="44.0110939" lon="7.7479412"><ele>1151.0</ele><time>2026-04-26T09:06:35.342Z</time></trkpt><trkpt lat="44.0111988" lon="7.7479455"><ele>1154.0</ele><time>2026-04-26T09:06:36.343Z</time></trkpt><trkpt lat="44.0113025" lon="7.7479621"><ele>1157.0</ele><time>2026-04-26T09:06:37.343Z</time></trkpt><trkpt lat="44.0114111" lon="7.7479844"><ele>1160.0</ele><time>2026-04-26T09:06:38.343Z</time></trkpt><trkpt lat="44.0115179" lon="7.7479876"><ele>1163.0</ele><time>2026-04-26T09:06:39.342Z</time></trkpt><trkpt lat="44.0116256" lon="7.7479977"><ele>1166.0</ele><time>2026-04-26T09:06:40.342Z</time></trkpt><trkpt lat="44.0117271" lon="7.7480201"><ele>1171.0</ele><time>2026-04-26T09:06:41.343Z</time></trkpt><trkpt lat="44.0118271" lon="7.7480334"><ele>1176.0</ele><time>2026-04-26T09:06:42.343Z</time></trkpt><trkpt lat="44.0119406" lon="7.7480367"><ele>1181.0</ele><time>2026-04-26T09:06:43.343Z</time></trkpt><trkpt lat="44.0120542" lon="7.7480283"><ele>1186.0</ele><time>2026-04-26T09:06:44.342Z</time></trkpt><trkpt lat="44.0121571" lon="7.7480077"><ele>1191.0</ele><time>2026-04-26T09:06:45.343Z</time></trkpt><trkpt lat="44.0122587" lon="7.7479778"><ele>1191.0</ele><time>2026-04-26T09:06:46.343Z</time></trkpt><trkpt lat="44.0123432" lon="7.7479045"><ele>1191.0</ele><time>2026-04-26T09:06:47.342Z</time></trkpt><trkpt lat="44.0124276" lon="7.7478289"><ele>1191.0</ele><time>2026-04-26T09:06:48.343Z</time></trkpt><trkpt lat="44.0125081" lon="7.7477558"><ele>1191.0</ele><time>2026-04-26T09:06:49.343Z</time></trkpt><trkpt lat="44.0125831" lon="7.7476886"><ele>1191.0</ele><time>2026-04-26T09:06:50.342Z</time></trkpt><trkpt lat="44.012648" lon="7.7476423"><ele>1190.8333333333333</ele><time>2026-04-26T09:06:51.343Z</time></trkpt><trkpt lat="44.0127136" lon="7.7476373"><ele>1190.6666666666667</ele><time>2026-04-26T09:06:52.342Z</time></trkpt><trkpt lat="44.0127875" lon="7.7476421"><ele>1190.5</ele><time>2026-04-26T09:06:53.343Z</time></trkpt><trkpt lat="44.012867" lon="7.7476489"><ele>1190.3333333333335</ele><time>2026-04-26T09:06:54.342Z</time></trkpt><trkpt lat="44.0129459" lon="7.7476371"><ele>1190.1666666666667</ele><time>2026-04-26T09:06:55.342Z</time></trkpt><trkpt lat="44.0130281" lon="7.7476288"><ele>1190.0</ele><time>2026-04-26T09:06:56.343Z</time></trkpt><trkpt lat="44.0131203" lon="7.7475839"><ele>1190.0</ele><time>2026-04-26T09:06:57.342Z</time></trkpt><trkpt lat="44.0132111" lon="7.7475393"><ele>1190.0</ele><time>2026-04-26T09:06:58.344Z</time></trkpt><trkpt lat="44.0133026" lon="7.7474865"><ele>1190.0</ele><time>2026-04-26T09:06:59.342Z</time></trkpt><trkpt lat="44.0133807" lon="7.747405"><ele>1190.0</ele><time>2026-04-26T09:07:00.343Z</time></trkpt><trkpt lat="44.0134606" lon="7.747326"><ele>1190.0</ele><time>2026-04-26T09:07:01.342Z</time></trkpt><trkpt lat="44.0135333" lon="7.7472423"><ele>1189.1666666666667</ele><time>2026-04-26T09:07:02.343Z</time></trkpt><trkpt lat="44.0135931" lon="7.7471492"><ele>1188.3333333333335</ele><time>2026-04-26T09:07:03.342Z</time></trkpt><trkpt lat="44.0136491" lon="7.7470602"><ele>1187.5</ele><time>2026-04-26T09:07:04.343Z</time></trkpt><trkpt lat="44.0136891" lon="7.7469714"><ele>1186.6666666666667</ele><time>2026-04-26T09:07:05.343Z</time></trkpt><trkpt lat="44.0137345" lon="7.7468819"><ele>1185.8333333333333</ele><time>2026-04-26T09:07:06.343Z</time></trkpt><trkpt lat="44.0137703" lon="7.7468095"><ele>1185.0</ele><time>2026-04-26T09:07:07.342Z</time></trkpt><trkpt lat="44.0138187" lon="7.7467475"><ele>1185.0</ele><time>2026-04-26T09:07:08.343Z</time></trkpt><trkpt lat="44.0138722" lon="7.7466881"><ele>1185.0</ele><time>2026-04-26T09:07:09.343Z</time></trkpt><trkpt lat="44.0139326" lon="7.746647"><ele>1185.0</ele><time>2026-04-26T09:07:10.343Z</time></trkpt><trkpt lat="44.0140204" lon="7.7466006"><ele>1185.0</ele><time>2026-04-26T09:07:12.343Z</time></trkpt><trkpt lat="44.0141015" lon="7.7465941"><ele>1185.0</ele><time>2026-04-26T09:07:14.342Z</time></trkpt><trkpt lat="44.0142268" lon="7.746588"><ele>1185.0</ele><time>2026-04-26T09:07:16.343Z</time></trkpt><trkpt lat="44.0143467" lon="7.74656"><ele>1194.4</ele><time>2026-04-26T09:07:18.343Z</time></trkpt><trkpt lat="44.0144088" lon="7.7465331"><ele>1203.8</ele><time>2026-04-26T09:07:19.342Z</time></trkpt><trkpt lat="44.0145227" lon="7.74647"><ele>1213.2</ele><time>2026-04-26T09:07:21.343Z</time></trkpt><trkpt lat="44.014601" lon="7.7464175"><ele>1222.6</ele><time>2026-04-26T09:07:22.343Z</time></trkpt><trkpt lat="44.0146603" lon="7.7463662"><ele>1232.0</ele><time>2026-04-26T09:07:23.342Z</time></trkpt><trkpt lat="44.0147592" lon="7.7462515"><ele>1232.0</ele><time>2026-04-26T09:07:25.342Z</time></trkpt><trkpt lat="44.0148099" lon="7.7461786"><ele>1232.0</ele><time>2026-04-26T09:07:26.343Z</time></trkpt><trkpt lat="44.0148534" lon="7.7460891"><ele>1232.0</ele><time>2026-04-26T09:07:27.342Z</time></trkpt><trkpt lat="44.0149057" lon="7.7460053"><ele>1232.0</ele><time>2026-04-26T09:07:28.342Z</time></trkpt><trkpt lat="44.0149474" lon="7.7459196"><ele>1232.0</ele><time>2026-04-26T09:07:29.343Z</time></trkpt><trkpt lat="44.0149952" lon="7.745838"><ele>1232.0</ele><time>2026-04-26T09:07:30.343Z</time></trkpt><trkpt lat="44.0150408" lon="7.7457687"><ele>1232.0</ele><time>2026-04-26T09:07:31.342Z</time></trkpt><trkpt lat="44.0151601" lon="7.7457428"><ele>1232.0</ele><time>2026-04-26T09:07:33.343Z</time></trkpt><trkpt lat="44.0152866" lon="7.7457433"><ele>1232.0</ele><time>2026-04-26T09:07:35.342Z</time></trkpt><trkpt lat="44.0154026" lon="7.7458086"><ele>1232.0</ele><time>2026-04-26T09:07:37.342Z</time></trkpt><trkpt lat="44.0154846" lon="7.7459189"><ele>1232.0</ele><time>2026-04-26T09:07:39.342Z</time></trkpt><trkpt lat="44.015536" lon="7.7460629"><ele>1234.4285714285713</ele><time>2026-04-26T09:07:41.342Z</time></trkpt><trkpt lat="44.0155748" lon="7.7461388"><ele>1236.857142857143</ele><time>2026-04-26T09:07:42.343Z</time></trkpt><trkpt lat="44.0156176" lon="7.7462098"><ele>1239.2857142857142</ele><time>2026-04-26T09:07:43.342Z</time></trkpt><trkpt lat="44.0156604" lon="7.7462772"><ele>1241.7142857142858</ele><time>2026-04-26T09:07:44.342Z</time></trkpt><trkpt lat="44.0157105" lon="7.7463307"><ele>1244.142857142857</ele><time>2026-04-26T09:07:45.343Z</time></trkpt><trkpt lat="44.0157684" lon="7.7463795"><ele>1246.5714285714284</ele><time>2026-04-26T09:07:46.342Z</time></trkpt><trkpt lat="44.0158259" lon="7.7464245"><ele>1249.0</ele><time>2026-04-26T09:07:47.341Z</time></trkpt><trkpt lat="44.0158937" lon="7.746453"><ele>1249.0</ele><time>2026-04-26T09:07:48.343Z</time></trkpt><trkpt lat="44.0159645" lon="7.7464807"><ele>1249.0</ele><time>2026-04-26T09:07:49.342Z</time></trkpt><trkpt lat="44.0160336" lon="7.7465016"><ele>1249.0</ele><time>2026-04-26T09:07:50.343Z</time></trkpt><trkpt lat="44.0161031" lon="7.7465098"><ele>1249.0</ele><time>2026-04-26T09:07:51.343Z</time></trkpt><trkpt lat="44.0161706" lon="7.7465293"><ele>1249.0</ele><time>2026-04-26T09:07:52.344Z</time></trkpt><trkpt lat="44.0162988" lon="7.7465385"><ele>1249.0</ele><time>2026-04-26T09:07:54.343Z</time></trkpt><trkpt lat="44.0164177" lon="7.746536"><ele>1249.0</ele><time>2026-04-26T09:07:56.342Z</time></trkpt><trkpt lat="44.0164928" lon="7.746545"><ele>1249.0</ele><time>2026-04-26T09:07:57.342Z</time></trkpt><trkpt lat="44.0165583" lon="7.7465469"><ele>1249.0</ele><time>2026-04-26T09:07:58.343Z</time></trkpt><trkpt lat="44.016624" lon="7.7465523"><ele>1249.0</ele><time>2026-04-26T09:07:59.342Z</time></trkpt><trkpt lat="44.0167368" lon="7.7465357"><ele>1249.0</ele><time>2026-04-26T09:08:01.342Z</time></trkpt><trkpt lat="44.01683" lon="7.7464844"><ele>1249.0</ele><time>2026-04-26T09:08:03.342Z</time></trkpt><trkpt lat="44.0169067" lon="7.7464922"><ele>1248.2</ele><time>2026-04-26T09:08:39.342Z</time></trkpt><trkpt lat="44.017006" lon="7.7465103"><ele>1247.4</ele><time>2026-04-26T09:08:41.342Z</time></trkpt><trkpt lat="44.0171304" lon="7.7465067"><ele>1246.6</ele><time>2026-04-26T09:08:43.342Z</time></trkpt><trkpt lat="44.0172031" lon="7.7465013"><ele>1245.8</ele><time>2026-04-26T09:08:44.342Z</time></trkpt><trkpt lat="44.0172894" lon="7.7465055"><ele>1245.0</ele><time>2026-04-26T09:08:45.342Z</time></trkpt><trkpt lat="44.0173742" lon="7.7465025"><ele>1245.0</ele><time>2026-04-26T09:08:46.343Z</time></trkpt><trkpt lat="44.0174599" lon="7.7465019"><ele>1245.0</ele><time>2026-04-26T09:08:47.342Z</time></trkpt><trkpt lat="44.0175414" lon="7.7464828"><ele>1245.0</ele><time>2026-04-26T09:08:48.342Z</time></trkpt><trkpt lat="44.0176262" lon="7.7464851"><ele>1245.0</ele><time>2026-04-26T09:08:49.343Z</time></trkpt><trkpt lat="44.0176987" lon="7.746479"><ele>1245.0</ele><time>2026-04-26T09:08:50.344Z</time></trkpt><trkpt lat="44.0177781" lon="7.7464782"><ele>1245.0</ele><time>2026-04-26T09:08:51.343Z</time></trkpt><trkpt lat="44.017851" lon="7.7464857"><ele>1245.0</ele><time>2026-04-26T09:08:52.343Z</time></trkpt><trkpt lat="44.0179237" lon="7.7465084"><ele>1245.0</ele><time>2026-04-26T09:08:53.342Z</time></trkpt><trkpt lat="44.017993" lon="7.746536"><ele>1245.0</ele><time>2026-04-26T09:08:54.343Z</time></trkpt><trkpt lat="44.0180703" lon="7.746549"><ele>1245.0</ele><time>2026-04-26T09:08:55.344Z</time></trkpt><trkpt lat="44.0181375" lon="7.7465805"><ele>1245.0</ele><time>2026-04-26T09:08:56.343Z</time></trkpt><trkpt lat="44.0182572" lon="7.7466197"><ele>1245.0</ele><time>2026-04-26T09:08:58.343Z</time></trkpt><trkpt lat="44.0183732" lon="7.746603"><ele>1250.2</ele><time>2026-04-26T09:09:00.343Z</time></trkpt><trkpt lat="44.0184425" lon="7.7466115"><ele>1255.4</ele><time>2026-04-26T09:09:01.342Z</time></trkpt><trkpt lat="44.0185154" lon="7.7466145"><ele>1260.6</ele><time>2026-04-26T09:09:02.343Z</time></trkpt><trkpt lat="44.0185804" lon="7.7466238"><ele>1265.8</ele><time>2026-04-26T09:09:03.343Z</time></trkpt><trkpt lat="44.0187186" lon="7.7466244"><ele>1271.0</ele><time>2026-04-26T09:09:05.342Z</time></trkpt><trkpt lat="44.0188445" lon="7.7466241"><ele>1271.0</ele><time>2026-04-26T09:09:07.342Z</time></trkpt><trkpt lat="44.0189152" lon="7.746623"><ele>1271.0</ele><time>2026-04-26T09:09:08.342Z</time></trkpt><trkpt lat="44.0190507" lon="7.7466338"><ele>1271.0</ele><time>2026-04-26T09:09:10.344Z</time></trkpt><trkpt lat="44.0191149" lon="7.7466324"><ele>1271.0</ele><time>2026-04-26T09:09:11.342Z</time></trkpt><trkpt lat="44.0192451" lon="7.7466236"><ele>1271.0</ele><time>2026-04-26T09:09:13.342Z</time></trkpt><trkpt lat="44.0193658" lon="7.7466039"><ele>1272.5714285714287</ele><time>2026-04-26T09:09:15.342Z</time></trkpt><trkpt lat="44.0194344" lon="7.7465988"><ele>1274.142857142857</ele><time>2026-04-26T09:09:16.343Z</time></trkpt><trkpt lat="44.0195057" lon="7.746593"><ele>1275.7142857142858</ele><time>2026-04-26T09:09:17.343Z</time></trkpt><trkpt lat="44.019574" lon="7.7465735"><ele>1277.2857142857142</ele><time>2026-04-26T09:09:18.343Z</time></trkpt><trkpt lat="44.019645" lon="7.7465432"><ele>1278.857142857143</ele><time>2026-04-26T09:09:19.343Z</time></trkpt><trkpt lat="44.0197159" lon="7.7465184"><ele>1280.4285714285716</ele><time>2026-04-26T09:09:20.343Z</time></trkpt><trkpt lat="44.0197986" lon="7.7464798"><ele>1282.0</ele><time>2026-04-26T09:09:21.343Z</time></trkpt><trkpt lat="44.0198647" lon="7.7464589"><ele>1282.0</ele><time>2026-04-26T09:09:22.342Z</time></trkpt><trkpt lat="44.0199401" lon="7.7464195"><ele>1282.0</ele><time>2026-04-26T09:09:23.343Z</time></trkpt><trkpt lat="44.0200161" lon="7.7463994"><ele>1282.0</ele><time>2026-04-26T09:09:24.344Z</time></trkpt><trkpt lat="44.0201111" lon="7.746365"><ele>1282.0</ele><time>2026-04-26T09:09:25.343Z</time></trkpt><trkpt lat="44.020189" lon="7.7463342"><ele>1282.0</ele><time>2026-04-26T09:09:26.343Z</time></trkpt><trkpt lat="44.0202748" lon="7.7462858"><ele>1282.0</ele><time>2026-04-26T09:09:27.342Z</time></trkpt><trkpt lat="44.0203522" lon="7.7462488"><ele>1282.0</ele><time>2026-04-26T09:09:28.343Z</time></trkpt><trkpt lat="44.0204286" lon="7.7462064"><ele>1282.0</ele><time>2026-04-26T09:09:29.343Z</time></trkpt><trkpt lat="44.0204998" lon="7.7461578"><ele>1282.0</ele><time>2026-04-26T09:09:30.343Z</time></trkpt><trkpt lat="44.0205741" lon="7.7461122"><ele>1282.0</ele><time>2026-04-26T09:09:31.343Z</time></trkpt><trkpt lat="44.0206476" lon="7.746064"><ele>1282.0</ele><time>2026-04-26T09:09:32.343Z</time></trkpt><trkpt lat="44.0207183" lon="7.7460101"><ele>1282.0</ele><time>2026-04-26T09:09:33.343Z</time></trkpt><trkpt lat="44.0207889" lon="7.7459517"><ele>1286.0</ele><time>2026-04-26T09:09:34.343Z</time></trkpt><trkpt lat="44.0208692" lon="7.7458912"><ele>1290.0</ele><time>2026-04-26T09:09:35.342Z</time></trkpt><trkpt lat="44.020937" lon="7.7458342"><ele>1294.0</ele><time>2026-04-26T09:09:36.343Z</time></trkpt><trkpt lat="44.0210125" lon="7.7457687"><ele>1298.0</ele><time>2026-04-26T09:09:37.342Z</time></trkpt><trkpt lat="44.0210886" lon="7.7457145"><ele>1302.0</ele><time>2026-04-26T09:09:38.342Z</time></trkpt><trkpt lat="44.0211625" lon="7.7456508"><ele>1306.0</ele><time>2026-04-26T09:09:39.343Z</time></trkpt><trkpt lat="44.0212323" lon="7.7455893"><ele>1306.0</ele><time>2026-04-26T09:09:40.343Z</time></trkpt><trkpt lat="44.0213133" lon="7.7455359"><ele>1306.0</ele><time>2026-04-26T09:09:41.344Z</time></trkpt><trkpt lat="44.0213788" lon="7.7454903"><ele>1306.0</ele><time>2026-04-26T09:09:42.345Z</time></trkpt><trkpt lat="44.0214934" lon="7.7454313"><ele>1306.0</ele><time>2026-04-26T09:09:44.343Z</time></trkpt><trkpt lat="44.0215662" lon="7.7454221"><ele>1306.0</ele><time>2026-04-26T09:09:45.342Z</time></trkpt><trkpt lat="44.0216288" lon="7.7454049"><ele>1306.0</ele><time>2026-04-26T09:09:46.342Z</time></trkpt><trkpt lat="44.021696" lon="7.7453903"><ele>1303.6666666666665</ele><time>2026-04-26T09:09:47.343Z</time></trkpt><trkpt lat="44.0217658" lon="7.7453766"><ele>1301.3333333333333</ele><time>2026-04-26T09:09:48.343Z</time></trkpt><trkpt lat="44.0218405" lon="7.7453562"><ele>1299.0</ele><time>2026-04-26T09:09:49.342Z</time></trkpt><trkpt lat="44.0219149" lon="7.7453392"><ele>1296.6666666666667</ele><time>2026-04-26T09:09:50.344Z</time></trkpt><trkpt lat="44.0219893" lon="7.7453257"><ele>1294.3333333333335</ele><time>2026-04-26T09:09:51.343Z</time></trkpt><trkpt lat="44.0220727" lon="7.745329"><ele>1292.0</ele><time>2026-04-26T09:09:52.342Z</time></trkpt><trkpt lat="44.0221633" lon="7.7453407"><ele>1292.0000000000002</ele><time>2026-04-26T09:09:53.342Z</time></trkpt><trkpt lat="44.0222372" lon="7.7453568"><ele>1292.0</ele><time>2026-04-26T09:09:54.342Z</time></trkpt><trkpt lat="44.0223148" lon="7.745342"><ele>1292.0</ele><time>2026-04-26T09:09:55.342Z</time></trkpt><trkpt lat="44.0223805" lon="7.7453218"><ele>1292.0</ele><time>2026-04-26T09:09:56.343Z</time></trkpt><trkpt lat="44.0224443" lon="7.7452799"><ele>1292.0</ele><time>2026-04-26T09:09:57.343Z</time></trkpt><trkpt lat="44.0225028" lon="7.7452272"><ele>1292.0000000000002</ele><time>2026-04-26T09:09:58.343Z</time></trkpt><trkpt lat="44.0225771" lon="7.7451847"><ele>1292.0</ele><time>2026-04-26T09:09:59.342Z</time></trkpt><trkpt lat="44.02264" lon="7.7451366"><ele>1300.1999999999998</ele><time>2026-04-26T09:10:00.342Z</time></trkpt><trkpt lat="44.022725" lon="7.7450714"><ele>1308.4</ele><time>2026-04-26T09:10:01.343Z</time></trkpt><trkpt lat="44.0228079" lon="7.7450093"><ele>1316.6</ele><time>2026-04-26T09:10:02.343Z</time></trkpt><trkpt lat="44.0228803" lon="7.7449505"><ele>1324.8000000000002</ele><time>2026-04-26T09:10:03.344Z</time></trkpt><trkpt lat="44.0229934" lon="7.7449498"><ele>1333.0</ele><time>2026-04-26T09:10:04.344Z</time></trkpt><trkpt lat="44.023104" lon="7.7449365"><ele>1333.0</ele><time>2026-04-26T09:10:05.343Z</time></trkpt><trkpt lat="44.0232005" lon="7.7449154"><ele>1333.0</ele><time>2026-04-26T09:10:06.342Z</time></trkpt><trkpt lat="44.0232849" lon="7.7448819"><ele>1333.0</ele><time>2026-04-26T09:10:07.343Z</time></trkpt><trkpt lat="44.0233577" lon="7.7448156"><ele>1333.0</ele><time>2026-04-26T09:10:08.342Z</time></trkpt><trkpt lat="44.0234413" lon="7.7447434"><ele>1333.0</ele><time>2026-04-26T09:10:09.344Z</time></trkpt><trkpt lat="44.0235146" lon="7.7446889"><ele>1331.4</ele><time>2026-04-26T09:10:10.344Z</time></trkpt><trkpt lat="44.023599" lon="7.7446087"><ele>1329.8000000000002</ele><time>2026-04-26T09:10:11.342Z</time></trkpt><trkpt lat="44.0236756" lon="7.7445067"><ele>1328.2</ele><time>2026-04-26T09:10:12.342Z</time></trkpt><trkpt lat="44.0237615" lon="7.7444036"><ele>1326.6</ele><time>2026-04-26T09:10:13.342Z</time></trkpt><trkpt lat="44.0238307" lon="7.7443039"><ele>1325.0</ele><time>2026-04-26T09:10:14.342Z</time></trkpt><trkpt lat="44.0238745" lon="7.7441984"><ele>1327.1666666666667</ele><time>2026-04-26T09:10:15.343Z</time></trkpt><trkpt lat="44.023908" lon="7.7440923"><ele>1329.3333333333335</ele><time>2026-04-26T09:10:16.342Z</time></trkpt><trkpt lat="44.0239359" lon="7.7440032"><ele>1331.5</ele><time>2026-04-26T09:10:17.344Z</time></trkpt><trkpt lat="44.0240208" lon="7.743943"><ele>1333.6666666666667</ele><time>2026-04-26T09:10:19.342Z</time></trkpt><trkpt lat="44.0240895" lon="7.7438979"><ele>1335.8333333333333</ele><time>2026-04-26T09:10:21.344Z</time></trkpt><trkpt lat="44.0241449" lon="7.7437989"><ele>1338.0</ele><time>2026-04-26T09:10:43.342Z</time></trkpt><trkpt lat="44.0242142" lon="7.743665"><ele>1338.0</ele><time>2026-04-26T09:10:45.343Z</time></trkpt><trkpt lat="44.0242703" lon="7.7436065"><ele>1338.0</ele><time>2026-04-26T09:10:46.344Z</time></trkpt><trkpt lat="44.0243645" lon="7.7435683"><ele>1338.0</ele><time>2026-04-26T09:10:47.342Z</time></trkpt><trkpt lat="44.0244562" lon="7.7435253"><ele>1338.0</ele><time>2026-04-26T09:10:48.344Z</time></trkpt><trkpt lat="44.0245626" lon="7.7435007"><ele>1338.0</ele><time>2026-04-26T09:10:49.345Z</time></trkpt><trkpt lat="44.0246817" lon="7.7434637"><ele>1343.0</ele><time>2026-04-26T09:10:50.342Z</time></trkpt><trkpt lat="44.0248164" lon="7.7434249"><ele>1348.0</ele><time>2026-04-26T09:10:51.342Z</time></trkpt><trkpt lat="44.0249538" lon="7.7433795"><ele>1353.0</ele><time>2026-04-26T09:10:52.344Z</time></trkpt><trkpt lat="44.0250828" lon="7.7433324"><ele>1358.0</ele><time>2026-04-26T09:10:53.343Z</time></trkpt><trkpt lat="44.0252011" lon="7.7432824"><ele>1358.0</ele><time>2026-04-26T09:10:54.343Z</time></trkpt><trkpt lat="44.025338" lon="7.7432249"><ele>1358.0</ele><time>2026-04-26T09:10:55.343Z</time></trkpt><trkpt lat="44.0254551" lon="7.7432024"><ele>1358.0</ele><time>2026-04-26T09:10:56.342Z</time></trkpt><trkpt lat="44.0255389" lon="7.7431604"><ele>1358.0</ele><time>2026-04-26T09:10:57.342Z</time></trkpt><trkpt lat="44.0256437" lon="7.7431197"><ele>1358.0</ele><time>2026-04-26T09:10:58.342Z</time></trkpt><trkpt lat="44.0257667" lon="7.7430488"><ele>1358.0</ele><time>2026-04-26T09:10:59.342Z</time></trkpt><trkpt lat="44.0259107" lon="7.7429222"><ele>1358.0</ele><time>2026-04-26T09:11:00.343Z</time></trkpt><trkpt lat="44.026007" lon="7.7428365"><ele>1358.0</ele><time>2026-04-26T09:11:01.343Z</time></trkpt><trkpt lat="44.0261226" lon="7.7427673"><ele>1358.25</ele><time>2026-04-26T09:11:02.342Z</time></trkpt><trkpt lat="44.0262224" lon="7.7427244"><ele>1358.5</ele><time>2026-04-26T09:11:03.344Z</time></trkpt><trkpt lat="44.0263428" lon="7.7426915"><ele>1358.75</ele><time>2026-04-26T09:11:04.343Z</time></trkpt><trkpt lat="44.0264595" lon="7.7426863"><ele>1359.0</ele><time>2026-04-26T09:11:05.343Z</time></trkpt><trkpt lat="44.026584" lon="7.7426851"><ele>1364.25</ele><time>2026-04-26T09:11:06.342Z</time></trkpt><trkpt lat="44.0267034" lon="7.7426653"><ele>1369.5</ele><time>2026-04-26T09:11:07.343Z</time></trkpt><trkpt lat="44.026845" lon="7.7426428"><ele>1374.75</ele><time>2026-04-26T09:11:08.343Z</time></trkpt><trkpt lat="44.0269535" lon="7.74262"><ele>1380.0</ele><time>2026-04-26T09:11:09.344Z</time></trkpt><trkpt lat="44.0271232" lon="7.7426037"><ele>1380.0</ele><time>2026-04-26T09:11:10.343Z</time></trkpt><trkpt lat="44.027252" lon="7.7425931"><ele>1380.0</ele><time>2026-04-26T09:11:11.343Z</time></trkpt><trkpt lat="44.0273632" lon="7.7425729"><ele>1380.0</ele><time>2026-04-26T09:11:12.342Z</time></trkpt><trkpt lat="44.0274688" lon="7.7425476"><ele>1380.0</ele><time>2026-04-26T09:11:13.343Z</time></trkpt><trkpt lat="44.0275652" lon="7.742495"><ele>1379.2</ele><time>2026-04-26T09:11:14.343Z</time></trkpt><trkpt lat="44.0276649" lon="7.7424274"><ele>1378.4</ele><time>2026-04-26T09:11:15.343Z</time></trkpt><trkpt lat="44.0277672" lon="7.7423607"><ele>1377.6</ele><time>2026-04-26T09:11:16.342Z</time></trkpt><trkpt lat="44.0278556" lon="7.7423063"><ele>1376.8</ele><time>2026-04-26T09:11:17.342Z</time></trkpt><trkpt lat="44.0279585" lon="7.7422794"><ele>1376.0</ele><time>2026-04-26T09:11:18.345Z</time></trkpt><trkpt lat="44.0280789" lon="7.7422884"><ele>1376.0</ele><time>2026-04-26T09:11:19.342Z</time></trkpt><trkpt lat="44.0281779" lon="7.7422617"><ele>1376.0</ele><time>2026-04-26T09:11:20.342Z</time></trkpt><trkpt lat="44.0282758" lon="7.7422408"><ele>1376.0</ele><time>2026-04-26T09:11:21.343Z</time></trkpt><trkpt lat="44.0283437" lon="7.7423018"><ele>1376.0</ele><time>2026-04-26T09:11:22.343Z</time></trkpt><trkpt lat="44.0284442" lon="7.7423541"><ele>1376.0</ele><time>2026-04-26T09:11:23.343Z</time></trkpt><trkpt lat="44.0285405" lon="7.7424505"><ele>1376.5</ele><time>2026-04-26T09:11:24.343Z</time></trkpt><trkpt lat="44.0286512" lon="7.7425783"><ele>1377.0</ele><time>2026-04-26T09:11:25.343Z</time></trkpt><trkpt lat="44.0287509" lon="7.7427002"><ele>1377.5</ele><time>2026-04-26T09:11:26.342Z</time></trkpt><trkpt lat="44.0288423" lon="7.7428064"><ele>1378.0</ele><time>2026-04-26T09:11:27.342Z</time></trkpt><trkpt lat="44.028928" lon="7.7429085"><ele>1377.0</ele><time>2026-04-26T09:11:28.342Z</time></trkpt><trkpt lat="44.0290029" lon="7.742994"><ele>1376.0</ele><time>2026-04-26T09:11:29.343Z</time></trkpt><trkpt lat="44.0290849" lon="7.7430524"><ele>1375.0</ele><time>2026-04-26T09:11:30.344Z</time></trkpt><trkpt lat="44.0291579" lon="7.7430978"><ele>1374.0</ele><time>2026-04-26T09:11:31.343Z</time></trkpt><trkpt lat="44.0292766" lon="7.7431193"><ele>1373.0</ele><time>2026-04-26T09:11:33.344Z</time></trkpt><trkpt lat="44.0293777" lon="7.7429739"><ele>1373.0</ele><time>2026-04-26T09:11:35.344Z</time></trkpt><trkpt lat="44.0294248" lon="7.7428751"><ele>1373.0</ele><time>2026-04-26T09:11:36.343Z</time></trkpt><trkpt lat="44.0294602" lon="7.7427674"><ele>1373.0</ele><time>2026-04-26T09:11:37.343Z</time></trkpt><trkpt lat="44.0295249" lon="7.7426686"><ele>1373.0</ele><time>2026-04-26T09:11:38.343Z</time></trkpt><trkpt lat="44.0295963" lon="7.742572"><ele>1373.0</ele><time>2026-04-26T09:11:39.343Z</time></trkpt><trkpt lat="44.0296624" lon="7.7424862"><ele>1374.6000000000001</ele><time>2026-04-26T09:11:40.343Z</time></trkpt><trkpt lat="44.0297326" lon="7.7424022"><ele>1376.2</ele><time>2026-04-26T09:11:41.342Z</time></trkpt><trkpt lat="44.0298102" lon="7.7423064"><ele>1377.8</ele><time>2026-04-26T09:11:42.342Z</time></trkpt><trkpt lat="44.0298833" lon="7.7422133"><ele>1379.4</ele><time>2026-04-26T09:11:43.342Z</time></trkpt><trkpt lat="44.0299684" lon="7.74211"><ele>1381.0</ele><time>2026-04-26T09:11:44.343Z</time></trkpt><trkpt lat="44.030046" lon="7.7420141"><ele>1381.0</ele><time>2026-04-26T09:11:45.342Z</time></trkpt><trkpt lat="44.0301172" lon="7.7419275"><ele>1381.0</ele><time>2026-04-26T09:11:46.343Z</time></trkpt><trkpt lat="44.0301852" lon="7.7418457"><ele>1381.0</ele><time>2026-04-26T09:11:47.343Z</time></trkpt><trkpt lat="44.0302576" lon="7.7417708"><ele>1381.0</ele><time>2026-04-26T09:11:48.342Z</time></trkpt><trkpt lat="44.0303384" lon="7.7417464"><ele>1381.0</ele><time>2026-04-26T09:11:49.344Z</time></trkpt><trkpt lat="44.0304205" lon="7.7417368"><ele>1381.0</ele><time>2026-04-26T09:11:50.344Z</time></trkpt><trkpt lat="44.030504" lon="7.7417415"><ele>1377.8333333333333</ele><time>2026-04-26T09:11:51.343Z</time></trkpt><trkpt lat="44.0305969" lon="7.7417565"><ele>1374.6666666666665</ele><time>2026-04-26T09:11:52.344Z</time></trkpt><trkpt lat="44.0306854" lon="7.741817"><ele>1371.5</ele><time>2026-04-26T09:11:53.342Z</time></trkpt><trkpt lat="44.0307731" lon="7.7418659"><ele>1368.3333333333333</ele><time>2026-04-26T09:11:54.343Z</time></trkpt><trkpt lat="44.030846" lon="7.7419049"><ele>1365.1666666666667</ele><time>2026-04-26T09:11:55.342Z</time></trkpt><trkpt lat="44.0309071" lon="7.7419298"><ele>1362.0</ele><time>2026-04-26T09:11:56.343Z</time></trkpt><trkpt lat="44.0309684" lon="7.7419499"><ele>1362.0</ele><time>2026-04-26T09:11:57.343Z</time></trkpt><trkpt lat="44.0310477" lon="7.7419325"><ele>1362.0</ele><time>2026-04-26T09:11:59.344Z</time></trkpt><trkpt lat="44.0311434" lon="7.7418354"><ele>1362.0</ele><time>2026-04-26T09:12:01.344Z</time></trkpt><trkpt lat="44.0312021" lon="7.7417829"><ele>1362.0</ele><time>2026-04-26T09:12:02.343Z</time></trkpt><trkpt lat="44.0312644" lon="7.7417253"><ele>1362.0</ele><time>2026-04-26T09:12:03.342Z</time></trkpt><trkpt lat="44.0313236" lon="7.7416749"><ele>1362.0</ele><time>2026-04-26T09:12:04.343Z</time></trkpt><trkpt lat="44.0313952" lon="7.7416302"><ele>1366.6666666666667</ele><time>2026-04-26T09:12:05.343Z</time></trkpt><trkpt lat="44.0314569" lon="7.7415947"><ele>1371.3333333333333</ele><time>2026-04-26T09:12:06.344Z</time></trkpt><trkpt lat="44.0315479" lon="7.7415538"><ele>1376.0</ele><time>2026-04-26T09:12:08.343Z</time></trkpt><trkpt lat="44.0316256" lon="7.7414547"><ele>1380.6666666666665</ele><time>2026-04-26T09:13:03.344Z</time></trkpt><trkpt lat="44.0316681" lon="7.7413839"><ele>1385.3333333333333</ele><time>2026-04-26T09:13:15.343Z</time></trkpt><trkpt lat="44.0317313" lon="7.7412822"><ele>1390.0</ele><time>2026-04-26T09:13:17.343Z</time></trkpt><trkpt lat="44.0318028" lon="7.7411926"><ele>1390.0</ele><time>2026-04-26T09:13:19.342Z</time></trkpt><trkpt lat="44.031864" lon="7.7411226"><ele>1390.0</ele><time>2026-04-26T09:13:21.343Z</time></trkpt><trkpt lat="44.0319751" lon="7.741059"><ele>1390.0</ele><time>2026-04-26T09:13:23.342Z</time></trkpt><trkpt lat="44.0320489" lon="7.7410435"><ele>1390.0</ele><time>2026-04-26T09:13:24.343Z</time></trkpt><trkpt lat="44.0321319" lon="7.7410235"><ele>1390.0</ele><time>2026-04-26T09:13:25.344Z</time></trkpt><trkpt lat="44.0322253" lon="7.7409702"><ele>1390.2</ele><time>2026-04-26T09:13:26.342Z</time></trkpt><trkpt lat="44.0323196" lon="7.7409304"><ele>1390.4</ele><time>2026-04-26T09:13:27.344Z</time></trkpt><trkpt lat="44.0324334" lon="7.7408756"><ele>1390.6</ele><time>2026-04-26T09:13:28.344Z</time></trkpt><trkpt lat="44.0325283" lon="7.7408243"><ele>1390.8</ele><time>2026-04-26T09:13:29.345Z</time></trkpt><trkpt lat="44.0326235" lon="7.7407679"><ele>1391.0</ele><time>2026-04-26T09:13:30.343Z</time></trkpt><trkpt lat="44.0327054" lon="7.7407125"><ele>1391.0</ele><time>2026-04-26T09:13:31.343Z</time></trkpt><trkpt lat="44.0327771" lon="7.740648"><ele>1391.0</ele><time>2026-04-26T09:13:32.344Z</time></trkpt><trkpt lat="44.0328285" lon="7.740567"><ele>1391.0</ele><time>2026-04-26T09:13:33.342Z</time></trkpt><trkpt lat="44.0328776" lon="7.7404943"><ele>1391.0</ele><time>2026-04-26T09:13:34.344Z</time></trkpt><trkpt lat="44.0329461" lon="7.740423"><ele>1391.0</ele><time>2026-04-26T09:13:35.344Z</time></trkpt><trkpt lat="44.0330056" lon="7.74038"><ele>1391.0</ele><time>2026-04-26T09:13:36.343Z</time></trkpt><trkpt lat="44.0330659" lon="7.7403376"><ele>1391.0</ele><time>2026-04-26T09:13:37.344Z</time></trkpt><trkpt lat="44.0331676" lon="7.7402525"><ele>1391.0</ele><time>2026-04-26T09:13:39.343Z</time></trkpt><trkpt lat="44.0332274" lon="7.7402211"><ele>1391.0</ele><time>2026-04-26T09:13:40.343Z</time></trkpt><trkpt lat="44.033353" lon="7.7401725"><ele>1391.0</ele><time>2026-04-26T09:13:42.343Z</time></trkpt><trkpt lat="44.0334149" lon="7.7401509"><ele>1391.0</ele><time>2026-04-26T09:13:43.344Z</time></trkpt><trkpt lat="44.0335069" lon="7.7401245"><ele>1390.1999999999998</ele><time>2026-04-26T09:13:45.344Z</time></trkpt><trkpt lat="44.0336012" lon="7.7401116"><ele>1389.3999999999999</ele><time>2026-04-26T09:13:47.342Z</time></trkpt><trkpt lat="44.0337072" lon="7.7401098"><ele>1388.6</ele><time>2026-04-26T09:13:49.344Z</time></trkpt><trkpt lat="44.0338311" lon="7.7401109"><ele>1387.8</ele><time>2026-04-26T09:13:51.344Z</time></trkpt><trkpt lat="44.0339032" lon="7.740104"><ele>1387.0</ele><time>2026-04-26T09:13:52.342Z</time></trkpt><trkpt lat="44.0339732" lon="7.7401111"><ele>1387.0</ele><time>2026-04-26T09:13:53.343Z</time></trkpt><trkpt lat="44.0340609" lon="7.7400976"><ele>1387.0</ele><time>2026-04-26T09:13:54.344Z</time></trkpt><trkpt lat="44.0341332" lon="7.7400699"><ele>1387.0</ele><time>2026-04-26T09:13:55.342Z</time></trkpt><trkpt lat="44.0342009" lon="7.7400314"><ele>1387.0</ele><time>2026-04-26T09:13:56.343Z</time></trkpt><trkpt lat="44.0342694" lon="7.7399924"><ele>1387.0</ele><time>2026-04-26T09:13:57.343Z</time></trkpt><trkpt lat="44.0343324" lon="7.7399507"><ele>1387.0</ele><time>2026-04-26T09:13:58.343Z</time></trkpt><trkpt lat="44.0344041" lon="7.739905"><ele>1390.0</ele><time>2026-04-26T09:13:59.343Z</time></trkpt><trkpt lat="44.0344656" lon="7.7398495"><ele>1393.0</ele><time>2026-04-26T09:14:00.343Z</time></trkpt><trkpt lat="44.0345209" lon="7.7397645"><ele>1396.0</ele><time>2026-04-26T09:14:01.344Z</time></trkpt><trkpt lat="44.0345676" lon="7.7396723"><ele>1399.0</ele><time>2026-04-26T09:14:02.342Z</time></trkpt><trkpt lat="44.0346294" lon="7.7396001"><ele>1402.0</ele><time>2026-04-26T09:14:03.342Z</time></trkpt><trkpt lat="44.0346783" lon="7.7395253"><ele>1405.0</ele><time>2026-04-26T09:14:04.343Z</time></trkpt><trkpt lat="44.0347711" lon="7.7394789"><ele>1405.0</ele><time>2026-04-26T09:14:06.343Z</time></trkpt><trkpt lat="44.0348532" lon="7.7395528"><ele>1405.0</ele><time>2026-04-26T09:14:08.344Z</time></trkpt><trkpt lat="44.0349161" lon="7.7396856"><ele>1405.0</ele><time>2026-04-26T09:14:10.343Z</time></trkpt><trkpt lat="44.0349562" lon="7.7397817"><ele>1405.0</ele><time>2026-04-26T09:14:11.343Z</time></trkpt><trkpt lat="44.0349975" lon="7.7398948"><ele>1405.0</ele><time>2026-04-26T09:14:12.342Z</time></trkpt><trkpt lat="44.0350475" lon="7.7400128"><ele>1405.3333333333333</ele><time>2026-04-26T09:14:13.344Z</time></trkpt><trkpt lat="44.035097" lon="7.7401106"><ele>1405.6666666666665</ele><time>2026-04-26T09:14:14.344Z</time></trkpt><trkpt lat="44.0351429" lon="7.7401945"><ele>1406.0</ele><time>2026-04-26T09:14:15.343Z</time></trkpt><trkpt lat="44.0351876" lon="7.7402767"><ele>1406.3333333333333</ele><time>2026-04-26T09:14:16.342Z</time></trkpt><trkpt lat="44.0352326" lon="7.7403947"><ele>1406.6666666666667</ele><time>2026-04-26T09:14:18.343Z</time></trkpt><trkpt lat="44.0352675" lon="7.7405024"><ele>1407.0</ele><time>2026-04-26T09:14:20.343Z</time></trkpt><trkpt lat="44.0353221" lon="7.7405978"><ele>1408.8333333333333</ele><time>2026-04-26T09:14:22.343Z</time></trkpt><trkpt lat="44.0353945" lon="7.7407158"><ele>1410.6666666666667</ele><time>2026-04-26T09:14:24.342Z</time></trkpt><trkpt lat="44.035465" lon="7.7408551"><ele>1412.5</ele><time>2026-04-26T09:14:26.344Z</time></trkpt><trkpt lat="44.0355157" lon="7.740909"><ele>1414.3333333333335</ele><time>2026-04-26T09:14:27.343Z</time></trkpt><trkpt lat="44.0355666" lon="7.7409697"><ele>1416.1666666666667</ele><time>2026-04-26T09:14:28.342Z</time></trkpt><trkpt lat="44.035628" lon="7.7410249"><ele>1418.0</ele><time>2026-04-26T09:14:29.343Z</time></trkpt><trkpt lat="44.0357" lon="7.7410802"><ele>1418.0</ele><time>2026-04-26T09:14:30.343Z</time></trkpt><trkpt lat="44.0357572" lon="7.7411236"><ele>1418.0</ele><time>2026-04-26T09:14:31.342Z</time></trkpt><trkpt lat="44.0358431" lon="7.7411654"><ele>1418.0</ele><time>2026-04-26T09:14:32.342Z</time></trkpt><trkpt lat="44.0359181" lon="7.741213"><ele>1418.0</ele><time>2026-04-26T09:14:33.343Z</time></trkpt><trkpt lat="44.035991" lon="7.7412517"><ele>1418.0</ele><time>2026-04-26T09:14:34.343Z</time></trkpt><trkpt lat="44.0360654" lon="7.7413093"><ele>1418.0</ele><time>2026-04-26T09:14:35.343Z</time></trkpt><trkpt lat="44.0361222" lon="7.741371"><ele>1416.6666666666667</ele><time>2026-04-26T09:14:36.343Z</time></trkpt><trkpt lat="44.0361773" lon="7.7414487"><ele>1415.3333333333335</ele><time>2026-04-26T09:14:37.342Z</time></trkpt><trkpt lat="44.0362379" lon="7.7415232"><ele>1414.0</ele><time>2026-04-26T09:14:38.343Z</time></trkpt><trkpt lat="44.0362918" lon="7.7416368"><ele>1412.6666666666667</ele><time>2026-04-26T09:14:39.344Z</time></trkpt><trkpt lat="44.0363489" lon="7.7417216"><ele>1411.3333333333333</ele><time>2026-04-26T09:14:40.342Z</time></trkpt><trkpt lat="44.0364165" lon="7.7418058"><ele>1410.0</ele><time>2026-04-26T09:14:41.342Z</time></trkpt><trkpt lat="44.0364868" lon="7.7418812"><ele>1408.0</ele><time>2026-04-26T09:14:42.345Z</time></trkpt><trkpt lat="44.0365766" lon="7.7419513"><ele>1406.0</ele><time>2026-04-26T09:14:43.343Z</time></trkpt><trkpt lat="44.0366561" lon="7.7420045"><ele>1404.0</ele><time>2026-04-26T09:14:44.342Z</time></trkpt><trkpt lat="44.0367329" lon="7.7420615"><ele>1402.0</ele><time>2026-04-26T09:14:45.343Z</time></trkpt><trkpt lat="44.036827" lon="7.7421005"><ele>1400.0</ele><time>2026-04-26T09:14:46.344Z</time></trkpt><trkpt lat="44.0369218" lon="7.7421283"><ele>1400.0</ele><time>2026-04-26T09:14:47.344Z</time></trkpt><trkpt lat="44.0370018" lon="7.7421537"><ele>1400.0</ele><time>2026-04-26T09:14:48.344Z</time></trkpt><trkpt lat="44.0370991" lon="7.7421709"><ele>1400.0</ele><time>2026-04-26T09:14:49.343Z</time></trkpt><trkpt lat="44.0371688" lon="7.7421864"><ele>1400.0</ele><time>2026-04-26T09:14:50.344Z</time></trkpt><trkpt lat="44.03725" lon="7.7422029"><ele>1400.0</ele><time>2026-04-26T09:14:51.342Z</time></trkpt><trkpt lat="44.0373124" lon="7.7422227"><ele>1400.0</ele><time>2026-04-26T09:14:52.343Z</time></trkpt><trkpt lat="44.0373781" lon="7.7422475"><ele>1400.0</ele><time>2026-04-26T09:14:53.343Z</time></trkpt><trkpt lat="44.0374613" lon="7.7423038"><ele>1400.0</ele><time>2026-04-26T09:14:55.344Z</time></trkpt><trkpt lat="44.0375545" lon="7.7423221"><ele>1400.0</ele><time>2026-04-26T09:14:57.342Z</time></trkpt><trkpt lat="44.0376595" lon="7.7423284"><ele>1400.0</ele><time>2026-04-26T09:14:59.342Z</time></trkpt><trkpt lat="44.0377632" lon="7.7423252"><ele>1400.0</ele><time>2026-04-26T09:15:01.343Z</time></trkpt><trkpt lat="44.0378304" lon="7.7423163"><ele>1400.4285714285713</ele><time>2026-04-26T09:15:02.343Z</time></trkpt><trkpt lat="44.0379071" lon="7.7422879"><ele>1400.857142857143</ele><time>2026-04-26T09:15:03.344Z</time></trkpt><trkpt lat="44.0379868" lon="7.742272"><ele>1401.2857142857142</ele><time>2026-04-26T09:15:04.342Z</time></trkpt><trkpt lat="44.0380529" lon="7.7422538"><ele>1401.7142857142858</ele><time>2026-04-26T09:15:05.344Z</time></trkpt><trkpt lat="44.0381033" lon="7.7421973"><ele>1402.142857142857</ele><time>2026-04-26T09:15:06.343Z</time></trkpt><trkpt lat="44.0381646" lon="7.7421623"><ele>1402.5714285714284</ele><time>2026-04-26T09:15:07.342Z</time></trkpt><trkpt lat="44.0382341" lon="7.7421407"><ele>1403.0</ele><time>2026-04-26T09:15:08.343Z</time></trkpt><trkpt lat="44.0383541" lon="7.7421247"><ele>1405.3333333333335</ele><time>2026-04-26T09:15:10.342Z</time></trkpt><trkpt lat="44.0384185" lon="7.7421292"><ele>1407.6666666666667</ele><time>2026-04-26T09:15:11.343Z</time></trkpt><trkpt lat="44.0385012" lon="7.7421443"><ele>1410.0</ele><time>2026-04-26T09:15:12.344Z</time></trkpt><trkpt lat="44.0385707" lon="7.7421748"><ele>1412.3333333333333</ele><time>2026-04-26T09:15:13.343Z</time></trkpt><trkpt lat="44.0386528" lon="7.7421987"><ele>1414.6666666666665</ele><time>2026-04-26T09:15:14.343Z</time></trkpt><trkpt lat="44.0387218" lon="7.7422296"><ele>1417.0</ele><time>2026-04-26T09:15:15.344Z</time></trkpt><trkpt lat="44.0387985" lon="7.7422532"><ele>1417.0</ele><time>2026-04-26T09:15:16.343Z</time></trkpt><trkpt lat="44.0388758" lon="7.7422965"><ele>1417.0</ele><time>2026-04-26T09:15:17.342Z</time></trkpt><trkpt lat="44.038954" lon="7.7423295"><ele>1417.0</ele><time>2026-04-26T09:15:18.344Z</time></trkpt><trkpt lat="44.0390229" lon="7.7423656"><ele>1417.0</ele><time>2026-04-26T09:15:19.343Z</time></trkpt><trkpt lat="44.0390897" lon="7.7424091"><ele>1417.0</ele><time>2026-04-26T09:15:20.343Z</time></trkpt><trkpt lat="44.0391512" lon="7.7424535"><ele>1417.0</ele><time>2026-04-26T09:15:21.343Z</time></trkpt><trkpt lat="44.039245" lon="7.7424928"><ele>1418.1999999999998</ele><time>2026-04-26T09:15:23.342Z</time></trkpt><trkpt lat="44.0393349" lon="7.7425321"><ele>1419.4</ele><time>2026-04-26T09:15:25.343Z</time></trkpt><trkpt lat="44.039426" lon="7.7425859"><ele>1420.6</ele><time>2026-04-26T09:15:27.343Z</time></trkpt><trkpt lat="44.0395275" lon="7.7426615"><ele>1421.8000000000002</ele><time>2026-04-26T09:15:29.344Z</time></trkpt><trkpt lat="44.0396295" lon="7.7426903"><ele>1423.0</ele><time>2026-04-26T09:15:31.343Z</time></trkpt><trkpt lat="44.0397278" lon="7.7427194"><ele>1425.0</ele><time>2026-04-26T09:15:33.342Z</time></trkpt><trkpt lat="44.039839" lon="7.7427524"><ele>1427.0</ele><time>2026-04-26T09:15:35.343Z</time></trkpt><trkpt lat="44.0399458" lon="7.7427741"><ele>1429.0</ele><time>2026-04-26T09:15:37.344Z</time></trkpt><trkpt lat="44.0400614" lon="7.7427962"><ele>1431.0</ele><time>2026-04-26T09:15:39.344Z</time></trkpt><trkpt lat="44.0401829" lon="7.742794"><ele>1431.0</ele><time>2026-04-26T09:15:41.343Z</time></trkpt><trkpt lat="44.0403015" lon="7.7427962"><ele>1431.0</ele><time>2026-04-26T09:15:43.343Z</time></trkpt><trkpt lat="44.0404139" lon="7.7428375"><ele>1431.0</ele><time>2026-04-26T09:15:45.344Z</time></trkpt><trkpt lat="44.0404967" lon="7.7428979"><ele>1431.0</ele><time>2026-04-26T09:15:47.343Z</time></trkpt><trkpt lat="44.0405664" lon="7.7429881"><ele>1431.0</ele><time>2026-04-26T09:15:49.343Z</time></trkpt><trkpt lat="44.0406435" lon="7.7431024"><ele>1431.0</ele><time>2026-04-26T09:15:51.343Z</time></trkpt><trkpt lat="44.0407231" lon="7.7431931"><ele>1431.0</ele><time>2026-04-26T09:15:53.344Z</time></trkpt><trkpt lat="44.0407714" lon="7.7432493"><ele>1431.0</ele><time>2026-04-26T09:15:54.343Z</time></trkpt><trkpt lat="44.0408549" lon="7.743345"><ele>1431.0</ele><time>2026-04-26T09:15:56.343Z</time></trkpt><trkpt lat="44.0409292" lon="7.7434555"><ele>1431.0</ele><time>2026-04-26T09:15:58.343Z</time></trkpt><trkpt lat="44.0409699" lon="7.7435263"><ele>1431.0</ele><time>2026-04-26T09:15:59.343Z</time></trkpt><trkpt lat="44.0410178" lon="7.7435842"><ele>1432.6</ele><time>2026-04-26T09:16:00.344Z</time></trkpt><trkpt lat="44.0411073" lon="7.7436929"><ele>1434.1999999999998</ele><time>2026-04-26T09:16:02.343Z</time></trkpt><trkpt lat="44.0411717" lon="7.743812"><ele>1435.8000000000002</ele><time>2026-04-26T09:16:04.343Z</time></trkpt><trkpt lat="44.0411789" lon="7.7439262"><ele>1437.4</ele><time>2026-04-26T09:16:06.343Z</time></trkpt><trkpt lat="44.0411933" lon="7.7440331"><ele>1439.0</ele><time>2026-04-26T09:16:09.343Z</time></trkpt><trkpt lat="44.0412752" lon="7.7440111"><ele>1439.0</ele><time>2026-04-26T09:16:22.342Z</time></trkpt><trkpt lat="44.041348" lon="7.7440087"><ele>1439.0</ele><time>2026-04-26T09:16:24.343Z</time></trkpt><trkpt lat="44.041425" lon="7.7440585"><ele>1439.0</ele><time>2026-04-26T09:16:26.343Z</time></trkpt><trkpt lat="44.0414894" lon="7.7441006"><ele>1439.0</ele><time>2026-04-26T09:16:28.342Z</time></trkpt><trkpt lat="44.0415545" lon="7.7441269"><ele>1439.0</ele><time>2026-04-26T09:16:30.345Z</time></trkpt><trkpt lat="44.0416223" lon="7.7441626"><ele>1439.0</ele><time>2026-04-26T09:16:32.342Z</time></trkpt><trkpt lat="44.0416963" lon="7.7442069"><ele>1444.6</ele><time>2026-04-26T09:16:34.344Z</time></trkpt><trkpt lat="44.0417884" lon="7.7442617"><ele>1450.2</ele><time>2026-04-26T09:16:36.343Z</time></trkpt><trkpt lat="44.0419202" lon="7.7443008"><ele>1455.8</ele><time>2026-04-26T09:16:38.343Z</time></trkpt><trkpt lat="44.0419913" lon="7.7443138"><ele>1461.3999999999999</ele><time>2026-04-26T09:16:39.344Z</time></trkpt><trkpt lat="44.0420601" lon="7.7443254"><ele>1467.0</ele><time>2026-04-26T09:16:40.344Z</time></trkpt><trkpt lat="44.0421459" lon="7.7443481"><ele>1467.0</ele><time>2026-04-26T09:16:41.344Z</time></trkpt><trkpt lat="44.0422239" lon="7.7443793"><ele>1467.0</ele><time>2026-04-26T09:16:42.344Z</time></trkpt><trkpt lat="44.0422996" lon="7.7444024"><ele>1467.0</ele><time>2026-04-26T09:16:43.344Z</time></trkpt><trkpt lat="44.0423793" lon="7.7444127"><ele>1467.0</ele><time>2026-04-26T09:16:44.343Z</time></trkpt><trkpt lat="44.0424525" lon="7.7444287"><ele>1467.0</ele><time>2026-04-26T09:16:45.344Z</time></trkpt><trkpt lat="44.0425262" lon="7.7444459"><ele>1467.0</ele><time>2026-04-26T09:16:46.343Z</time></trkpt><trkpt lat="44.0426095" lon="7.7444515"><ele>1472.8333333333333</ele><time>2026-04-26T09:16:47.343Z</time></trkpt><trkpt lat="44.0427068" lon="7.7444626"><ele>1478.6666666666667</ele><time>2026-04-26T09:16:48.342Z</time></trkpt><trkpt lat="44.0427885" lon="7.7444693"><ele>1484.5</ele><time>2026-04-26T09:16:49.344Z</time></trkpt><trkpt lat="44.0428637" lon="7.744468"><ele>1490.3333333333335</ele><time>2026-04-26T09:16:50.342Z</time></trkpt><trkpt lat="44.0429427" lon="7.7444747"><ele>1496.1666666666667</ele><time>2026-04-26T09:16:51.343Z</time></trkpt><trkpt lat="44.0430454" lon="7.744447"><ele>1502.0</ele><time>2026-04-26T09:16:53.343Z</time></trkpt><trkpt lat="44.0431348" lon="7.744419"><ele>1502.0</ele><time>2026-04-26T09:16:56.344Z</time></trkpt><trkpt lat="44.0431462" lon="7.7445138"><ele>1502.0</ele><time>2026-04-26T09:17:00.342Z</time></trkpt><trkpt lat="44.0430661" lon="7.7445224"><ele>1502.0</ele><time>2026-04-26T09:17:28.343Z</time></trkpt><trkpt lat="44.042987" lon="7.7445307"><ele>1502.0</ele><time>2026-04-26T09:17:29.344Z</time></trkpt><trkpt lat="44.0429226" lon="7.7445412"><ele>1502.0</ele><time>2026-04-26T09:17:30.345Z</time></trkpt><trkpt lat="44.0427974" lon="7.7445818"><ele>1502.0</ele><time>2026-04-26T09:17:32.344Z</time></trkpt><trkpt lat="44.0427283" lon="7.7446019"><ele>1502.0</ele><time>2026-04-26T09:17:33.344Z</time></trkpt><trkpt lat="44.0426494" lon="7.7446167"><ele>1502.0</ele><time>2026-04-26T09:17:34.343Z</time></trkpt><trkpt lat="44.0425763" lon="7.7446322"><ele>1502.0</ele><time>2026-04-26T09:17:35.344Z</time></trkpt><trkpt lat="44.0424963" lon="7.7446385"><ele>1502.0</ele><time>2026-04-26T09:17:36.343Z</time></trkpt><trkpt lat="44.0424248" lon="7.7446462"><ele>1502.0</ele><time>2026-04-26T09:17:37.343Z</time></trkpt><trkpt lat="44.0423464" lon="7.7446606"><ele>1502.0</ele><time>2026-04-26T09:17:38.343Z</time></trkpt><trkpt lat="44.0422744" lon="7.7446731"><ele>1496.3999999999999</ele><time>2026-04-26T09:17:39.344Z</time></trkpt><trkpt lat="44.0421472" lon="7.7446975"><ele>1490.8</ele><time>2026-04-26T09:17:41.344Z</time></trkpt><trkpt lat="44.0420372" lon="7.7447391"><ele>1485.2</ele><time>2026-04-26T09:17:43.344Z</time></trkpt><trkpt lat="44.0419775" lon="7.7448339"><ele>1479.6</ele><time>2026-04-26T09:17:45.344Z</time></trkpt><trkpt lat="44.0419773" lon="7.744958"><ele>1474.0</ele><time>2026-04-26T09:17:47.343Z</time></trkpt><trkpt lat="44.0420422" lon="7.7450879"><ele>1474.0</ele><time>2026-04-26T09:17:49.344Z</time></trkpt><trkpt lat="44.0421165" lon="7.7451995"><ele>1474.0</ele><time>2026-04-26T09:17:51.343Z</time></trkpt><trkpt lat="44.0421879" lon="7.7453025"><ele>1474.0</ele><time>2026-04-26T09:17:53.343Z</time></trkpt><trkpt lat="44.042255" lon="7.7453991"><ele>1474.0</ele><time>2026-04-26T09:17:55.343Z</time></trkpt><trkpt lat="44.0423199" lon="7.7455068"><ele>1474.0</ele><time>2026-04-26T09:17:57.344Z</time></trkpt><trkpt lat="44.042381" lon="7.7456151"><ele>1470.4</ele><time>2026-04-26T09:17:59.343Z</time></trkpt><trkpt lat="44.0424357" lon="7.7457242"><ele>1466.8000000000002</ele><time>2026-04-26T09:18:01.344Z</time></trkpt><trkpt lat="44.0424741" lon="7.7458568"><ele>1463.1999999999998</ele><time>2026-04-26T09:18:03.344Z</time></trkpt><trkpt lat="44.042526" lon="7.7459933"><ele>1459.6</ele><time>2026-04-26T09:18:05.343Z</time></trkpt><trkpt lat="44.042565" lon="7.7461362"><ele>1456.0</ele><time>2026-04-26T09:18:07.344Z</time></trkpt><trkpt lat="44.0425682" lon="7.7462931"><ele>1463.8</ele><time>2026-04-26T09:18:09.344Z</time></trkpt><trkpt lat="44.0425536" lon="7.7464473"><ele>1471.6</ele><time>2026-04-26T09:18:11.344Z</time></trkpt><trkpt lat="44.042537" lon="7.7466039"><ele>1479.4</ele><time>2026-04-26T09:18:13.342Z</time></trkpt><trkpt lat="44.0425362" lon="7.7467481"><ele>1487.2</ele><time>2026-04-26T09:18:15.343Z</time></trkpt><trkpt lat="44.0425793" lon="7.7468612"><ele>1495.0</ele><time>2026-04-26T09:18:17.344Z</time></trkpt><trkpt lat="44.0426673" lon="7.7469285"><ele>1495.0</ele><time>2026-04-26T09:18:19.343Z</time></trkpt><trkpt lat="44.0427599" lon="7.7470139"><ele>1495.0</ele><time>2026-04-26T09:18:21.344Z</time></trkpt><trkpt lat="44.0428522" lon="7.7471214"><ele>1495.0</ele><time>2026-04-26T09:18:23.344Z</time></trkpt><trkpt lat="44.0429301" lon="7.7472316"><ele>1495.0</ele><time>2026-04-26T09:18:25.344Z</time></trkpt><trkpt lat="44.0429661" lon="7.7473094"><ele>1495.0</ele><time>2026-04-26T09:18:50.343Z</time></trkpt><trkpt lat="44.0430271" lon="7.7473437"><ele>1495.0</ele><time>2026-04-26T09:19:06.343Z</time></trkpt><trkpt lat="44.04296" lon="7.7472944"><ele>1495.0</ele><time>2026-04-26T09:19:33.344Z</time></trkpt><trkpt lat="44.0430446" lon="7.7473252"><ele>1495.0</ele><time>2026-04-26T09:20:23.344Z</time></trkpt><trkpt lat="44.0430785" lon="7.7474583"><ele>1495.0</ele><time>2026-04-26T09:20:29.343Z</time></trkpt><trkpt lat="44.0431048" lon="7.7475871"><ele>1495.0</ele><time>2026-04-26T09:20:31.343Z</time></trkpt><trkpt lat="44.043123" lon="7.7477244"><ele>1490.0</ele><time>2026-04-26T09:20:33.344Z</time></trkpt><trkpt lat="44.0431341" lon="7.7478567"><ele>1485.0</ele><time>2026-04-26T09:20:35.344Z</time></trkpt><trkpt lat="44.0431416" lon="7.7480088"><ele>1480.0</ele><time>2026-04-26T09:20:37.343Z</time></trkpt><trkpt lat="44.0431659" lon="7.7481486"><ele>1475.0</ele><time>2026-04-26T09:20:39.343Z</time></trkpt><trkpt lat="44.0431883" lon="7.7482972"><ele>1470.0</ele><time>2026-04-26T09:20:41.343Z</time></trkpt><trkpt lat="44.0432254" lon="7.7484623"><ele>1468.0</ele><time>2026-04-26T09:20:43.342Z</time></trkpt><trkpt lat="44.0432531" lon="7.7485458"><ele>1466.0</ele><time>2026-04-26T09:20:44.344Z</time></trkpt><trkpt lat="44.0433085" lon="7.7486409"><ele>1464.0</ele><time>2026-04-26T09:20:46.344Z</time></trkpt><trkpt lat="44.0433855" lon="7.7486841"><ele>1462.0</ele><time>2026-04-26T09:20:48.342Z</time></trkpt><trkpt lat="44.0434704" lon="7.748692"><ele>1460.0</ele><time>2026-04-26T09:20:50.343Z</time></trkpt><trkpt lat="44.0435725" lon="7.7487069"><ele>1458.0</ele><time>2026-04-26T09:20:52.344Z</time></trkpt><trkpt lat="44.0436681" lon="7.7487355"><ele>1468.8000000000002</ele><time>2026-04-26T09:20:54.343Z</time></trkpt><trkpt lat="44.0437727" lon="7.7487741"><ele>1479.6</ele><time>2026-04-26T09:20:56.344Z</time></trkpt><trkpt lat="44.043895" lon="7.7488105"><ele>1490.4</ele><time>2026-04-26T09:20:58.343Z</time></trkpt><trkpt lat="44.0439547" lon="7.7488394"><ele>1501.1999999999998</ele><time>2026-04-26T09:20:59.344Z</time></trkpt><trkpt lat="44.0440615" lon="7.7489129"><ele>1512.0</ele><time>2026-04-26T09:21:01.344Z</time></trkpt><trkpt lat="44.0441484" lon="7.749007"><ele>1512.6</ele><time>2026-04-26T09:21:03.343Z</time></trkpt><trkpt lat="44.044237" lon="7.7491152"><ele>1513.1999999999998</ele><time>2026-04-26T09:21:05.344Z</time></trkpt><trkpt lat="44.044323" lon="7.7492463"><ele>1513.8</ele><time>2026-04-26T09:21:07.342Z</time></trkpt><trkpt lat="44.0444094" lon="7.7493684"><ele>1514.4</ele><time>2026-04-26T09:21:09.344Z</time></trkpt><trkpt lat="44.0444573" lon="7.7494274"><ele>1515.0</ele><time>2026-04-26T09:21:10.344Z</time></trkpt><trkpt lat="44.0445009" lon="7.7494967"><ele>1515.0</ele><time>2026-04-26T09:21:11.343Z</time></trkpt><trkpt lat="44.0445722" lon="7.7496238"><ele>1515.0</ele><time>2026-04-26T09:21:13.343Z</time></trkpt><trkpt lat="44.0446124" lon="7.7497029"><ele>1515.0</ele><time>2026-04-26T09:21:14.345Z</time></trkpt><trkpt lat="44.0446887" lon="7.749832"><ele>1515.0</ele><time>2026-04-26T09:21:16.343Z</time></trkpt><trkpt lat="44.0447715" lon="7.7499298"><ele>1515.0</ele><time>2026-04-26T09:21:18.344Z</time></trkpt><trkpt lat="44.0448738" lon="7.7499787"><ele>1525.2</ele><time>2026-04-26T09:21:20.344Z</time></trkpt><trkpt lat="44.0449963" lon="7.7499909"><ele>1535.4</ele><time>2026-04-26T09:21:22.343Z</time></trkpt><trkpt lat="44.0451163" lon="7.7500032"><ele>1545.6</ele><time>2026-04-26T09:21:24.342Z</time></trkpt><trkpt lat="44.0452138" lon="7.7500401"><ele>1555.8</ele><time>2026-04-26T09:21:26.343Z</time></trkpt><trkpt lat="44.0452869" lon="7.7500905"><ele>1566.0</ele><time>2026-04-26T09:21:29.345Z</time></trkpt><trkpt lat="44.0453389" lon="7.7501591"><ele>1564.0</ele><time>2026-04-26T09:21:32.343Z</time></trkpt><trkpt lat="44.0453657" lon="7.7502729"><ele>1562.0</ele><time>2026-04-26T09:21:36.344Z</time></trkpt><trkpt lat="44.0453691" lon="7.7503662"><ele>1560.0</ele><time>2026-04-26T09:21:40.343Z</time></trkpt><trkpt lat="44.0453558" lon="7.750475"><ele>1558.0</ele><time>2026-04-26T09:21:43.343Z</time></trkpt><trkpt lat="44.0453166" lon="7.7505724"><ele>1556.0</ele><time>2026-04-26T09:21:45.343Z</time></trkpt><trkpt lat="44.0452857" lon="7.750688"><ele>1554.0</ele><time>2026-04-26T09:21:47.343Z</time></trkpt><trkpt lat="44.0452621" lon="7.7507888"><ele>1554.0</ele><time>2026-04-26T09:21:49.344Z</time></trkpt><trkpt lat="44.0452673" lon="7.7508979"><ele>1554.0</ele><time>2026-04-26T09:21:51.344Z</time></trkpt><trkpt lat="44.0452627" lon="7.7510228"><ele>1554.0</ele><time>2026-04-26T09:21:53.343Z</time></trkpt><trkpt lat="44.0452395" lon="7.7511721"><ele>1554.0</ele><time>2026-04-26T09:21:55.345Z</time></trkpt><trkpt lat="44.0452151" lon="7.751312"><ele>1554.0</ele><time>2026-04-26T09:21:57.344Z</time></trkpt><trkpt lat="44.0452232" lon="7.7514433"><ele>1551.1666666666667</ele><time>2026-04-26T09:21:59.344Z</time></trkpt><trkpt lat="44.0452403" lon="7.7515277"><ele>1548.3333333333335</ele><time>2026-04-26T09:22:00.343Z</time></trkpt><trkpt lat="44.0452601" lon="7.7516122"><ele>1545.5</ele><time>2026-04-26T09:22:01.344Z</time></trkpt><trkpt lat="44.0452955" lon="7.7516988"><ele>1542.6666666666667</ele><time>2026-04-26T09:22:02.344Z</time></trkpt><trkpt lat="44.0453586" lon="7.7518387"><ele>1539.8333333333335</ele><time>2026-04-26T09:22:04.344Z</time></trkpt><trkpt lat="44.0454329" lon="7.7519752"><ele>1537.0</ele><time>2026-04-26T09:22:06.344Z</time></trkpt><trkpt lat="44.0454831" lon="7.7521256"><ele>1533.25</ele><time>2026-04-26T09:22:08.343Z</time></trkpt><trkpt lat="44.0455426" lon="7.75226"><ele>1529.5</ele><time>2026-04-26T09:22:10.344Z</time></trkpt><trkpt lat="44.0456222" lon="7.7523873"><ele>1525.75</ele><time>2026-04-26T09:22:12.344Z</time></trkpt><trkpt lat="44.0456842" lon="7.7525247"><ele>1522.0</ele><time>2026-04-26T09:22:14.343Z</time></trkpt><trkpt lat="44.0457092" lon="7.752661"><ele>1523.1999999999998</ele><time>2026-04-26T09:22:16.343Z</time></trkpt><trkpt lat="44.0456873" lon="7.752806"><ele>1524.4</ele><time>2026-04-26T09:22:18.343Z</time></trkpt><trkpt lat="44.0456766" lon="7.7529705"><ele>1525.6</ele><time>2026-04-26T09:22:20.344Z</time></trkpt><trkpt lat="44.0456917" lon="7.7531445"><ele>1526.8000000000002</ele><time>2026-04-26T09:22:22.344Z</time></trkpt><trkpt lat="44.0456896" lon="7.7532447"><ele>1528.0</ele><time>2026-04-26T09:22:23.343Z</time></trkpt><trkpt lat="44.0456302" lon="7.7534114"><ele>1528.0</ele><time>2026-04-26T09:22:25.344Z</time></trkpt><trkpt lat="44.0455855" lon="7.7534943"><ele>1528.0</ele><time>2026-04-26T09:22:26.343Z</time></trkpt><trkpt lat="44.0455275" lon="7.7535748"><ele>1528.0</ele><time>2026-04-26T09:22:27.343Z</time></trkpt><trkpt lat="44.0454743" lon="7.7536266"><ele>1528.0</ele><time>2026-04-26T09:22:28.344Z</time></trkpt><trkpt lat="44.0453866" lon="7.7537362"><ele>1528.0</ele><time>2026-04-26T09:22:30.343Z</time></trkpt><trkpt lat="44.0453488" lon="7.753851"><ele>1528.0</ele><time>2026-04-26T09:22:32.343Z</time></trkpt><trkpt lat="44.0453439" lon="7.7539418"><ele>1526.8000000000002</ele><time>2026-04-26T09:22:35.342Z</time></trkpt><trkpt lat="44.045401" lon="7.7540385"><ele>1525.6</ele><time>2026-04-26T09:23:15.344Z</time></trkpt><trkpt lat="44.0454825" lon="7.7541944"><ele>1524.4</ele><time>2026-04-26T09:23:17.343Z</time></trkpt><trkpt lat="44.0455286" lon="7.7542695"><ele>1523.1999999999998</ele><time>2026-04-26T09:23:18.344Z</time></trkpt><trkpt lat="44.0455783" lon="7.7543263"><ele>1522.0</ele><time>2026-04-26T09:23:19.343Z</time></trkpt><trkpt lat="44.0456747" lon="7.7543959"><ele>1522.0</ele><time>2026-04-26T09:23:21.344Z</time></trkpt><trkpt lat="44.0457749" lon="7.7544401"><ele>1522.0</ele><time>2026-04-26T09:23:23.343Z</time></trkpt><trkpt lat="44.0458697" lon="7.7544779"><ele>1522.0</ele><time>2026-04-26T09:23:25.344Z</time></trkpt><trkpt lat="44.0459366" lon="7.754476"><ele>1522.0</ele><time>2026-04-26T09:23:27.344Z</time></trkpt><trkpt lat="44.0460232" lon="7.7544158"><ele>1522.0</ele><time>2026-04-26T09:23:35.344Z</time></trkpt><trkpt lat="44.046108" lon="7.7543671"><ele>1528.1666666666665</ele><time>2026-04-26T09:23:37.343Z</time></trkpt><trkpt lat="44.0461968" lon="7.7543047"><ele>1534.3333333333333</ele><time>2026-04-26T09:23:39.343Z</time></trkpt><trkpt lat="44.0462849" lon="7.7542641"><ele>1540.5</ele><time>2026-04-26T09:23:41.344Z</time></trkpt><trkpt lat="44.0463549" lon="7.7542653"><ele>1546.6666666666665</ele><time>2026-04-26T09:23:43.343Z</time></trkpt><trkpt lat="44.0464252" lon="7.7542961"><ele>1552.8333333333333</ele><time>2026-04-26T09:23:45.344Z</time></trkpt><trkpt lat="44.0464971" lon="7.7543638"><ele>1559.0</ele><time>2026-04-26T09:23:47.344Z</time></trkpt><trkpt lat="44.0465926" lon="7.7544234"><ele>1561.6</ele><time>2026-04-26T09:23:49.343Z</time></trkpt><trkpt lat="44.0466921" lon="7.7544101"><ele>1564.2</ele><time>2026-04-26T09:23:51.343Z</time></trkpt><trkpt lat="44.0468287" lon="7.754376"><ele>1566.8</ele><time>2026-04-26T09:23:53.344Z</time></trkpt><trkpt lat="44.0469131" lon="7.7543594"><ele>1569.3999999999999</ele><time>2026-04-26T09:23:54.343Z</time></trkpt><trkpt lat="44.0470004" lon="7.7543449"><ele>1572.0</ele><time>2026-04-26T09:23:55.344Z</time></trkpt><trkpt lat="44.0470825" lon="7.7543271"><ele>1578.6666666666667</ele><time>2026-04-26T09:23:56.344Z</time></trkpt><trkpt lat="44.047164" lon="7.7543126"><ele>1585.3333333333335</ele><time>2026-04-26T09:23:57.343Z</time></trkpt><trkpt lat="44.0472418" lon="7.7543027"><ele>1592.0</ele><time>2026-04-26T09:23:58.344Z</time></trkpt><trkpt lat="44.0473156" lon="7.7543028"><ele>1598.6666666666667</ele><time>2026-04-26T09:23:59.343Z</time></trkpt><trkpt lat="44.0473933" lon="7.7542974"><ele>1605.3333333333335</ele><time>2026-04-26T09:24:00.344Z</time></trkpt><trkpt lat="44.0474661" lon="7.7542902"><ele>1612.0</ele><time>2026-04-26T09:24:01.344Z</time></trkpt><trkpt lat="44.0475399" lon="7.7542887"><ele>1612.8333333333335</ele><time>2026-04-26T09:24:02.343Z</time></trkpt><trkpt lat="44.047613" lon="7.7542891"><ele>1613.6666666666667</ele><time>2026-04-26T09:24:03.344Z</time></trkpt><trkpt lat="44.0476875" lon="7.7542889"><ele>1614.5</ele><time>2026-04-26T09:24:04.344Z</time></trkpt><trkpt lat="44.047762" lon="7.7542888"><ele>1615.3333333333335</ele><time>2026-04-26T09:24:05.344Z</time></trkpt><trkpt lat="44.0478339" lon="7.754291"><ele>1616.1666666666667</ele><time>2026-04-26T09:24:06.343Z</time></trkpt><trkpt lat="44.0479017" lon="7.754291"><ele>1617.0</ele><time>2026-04-26T09:24:07.343Z</time></trkpt><trkpt lat="44.0480268" lon="7.7542703"><ele>1617.0</ele><time>2026-04-26T09:24:09.343Z</time></trkpt><trkpt lat="44.0480957" lon="7.7542587"><ele>1617.0</ele><time>2026-04-26T09:24:10.344Z</time></trkpt><trkpt lat="44.0481598" lon="7.754263"><ele>1617.0</ele><time>2026-04-26T09:24:11.343Z</time></trkpt><trkpt lat="44.0482253" lon="7.7542745"><ele>1617.0</ele><time>2026-04-26T09:24:12.344Z</time></trkpt><trkpt lat="44.0483196" lon="7.7543183"><ele>1617.0</ele><time>2026-04-26T09:24:14.343Z</time></trkpt><trkpt lat="44.0483917" lon="7.7543691"><ele>1617.0</ele><time>2026-04-26T09:24:16.344Z</time></trkpt><trkpt lat="44.0484422" lon="7.7544505"><ele>1615.6666666666667</ele><time>2026-04-26T09:24:18.344Z</time></trkpt><trkpt lat="44.0485046" lon="7.7545418"><ele>1614.3333333333335</ele><time>2026-04-26T09:24:20.343Z</time></trkpt><trkpt lat="44.048555" lon="7.7546477"><ele>1613.0</ele><time>2026-04-26T09:24:22.344Z</time></trkpt><trkpt lat="44.048605" lon="7.7547361"><ele>1611.6666666666667</ele><time>2026-04-26T09:24:24.343Z</time></trkpt><trkpt lat="44.0486616" lon="7.7548422"><ele>1610.3333333333335</ele><time>2026-04-26T09:24:26.343Z</time></trkpt><trkpt lat="44.0487088" lon="7.7549245"><ele>1609.0</ele><time>2026-04-26T09:24:28.344Z</time></trkpt><trkpt lat="44.048753" lon="7.755025"><ele>1609.0</ele><time>2026-04-26T09:24:30.343Z</time></trkpt><trkpt lat="44.0487978" lon="7.7551233"><ele>1609.0</ele><time>2026-04-26T09:24:32.344Z</time></trkpt><trkpt lat="44.0488568" lon="7.7552329"><ele>1609.0</ele><time>2026-04-26T09:24:34.344Z</time></trkpt><trkpt lat="44.0489148" lon="7.7553447"><ele>1609.0</ele><time>2026-04-26T09:24:36.343Z</time></trkpt><trkpt lat="44.0489587" lon="7.7554487"><ele>1609.0</ele><time>2026-04-26T09:24:38.344Z</time></trkpt><trkpt lat="44.0490061" lon="7.7555507"><ele>1607.6</ele><time>2026-04-26T09:24:40.344Z</time></trkpt><trkpt lat="44.0490635" lon="7.7556691"><ele>1606.2</ele><time>2026-04-26T09:24:42.344Z</time></trkpt><trkpt lat="44.0491193" lon="7.7557794"><ele>1604.8</ele><time>2026-04-26T09:24:44.344Z</time></trkpt><trkpt lat="44.0491836" lon="7.7558849"><ele>1603.3999999999999</ele><time>2026-04-26T09:24:46.344Z</time></trkpt><trkpt lat="44.0492371" lon="7.7560047"><ele>1602.0</ele><time>2026-04-26T09:24:48.344Z</time></trkpt><trkpt lat="44.0492672" lon="7.7561357"><ele>1607.0</ele><time>2026-04-26T09:24:50.344Z</time></trkpt><trkpt lat="44.0492883" lon="7.7562932"><ele>1612.0</ele><time>2026-04-26T09:24:52.343Z</time></trkpt><trkpt lat="44.0492953" lon="7.7564593"><ele>1617.0</ele><time>2026-04-26T09:24:54.344Z</time></trkpt><trkpt lat="44.0493053" lon="7.7566339"><ele>1622.0</ele><time>2026-04-26T09:24:56.344Z</time></trkpt><trkpt lat="44.0493136" lon="7.7567245"><ele>1627.0</ele><time>2026-04-26T09:24:57.344Z</time></trkpt><trkpt lat="44.0493259" lon="7.7568132"><ele>1627.1666666666667</ele><time>2026-04-26T09:24:58.343Z</time></trkpt><trkpt lat="44.0493411" lon="7.7569032"><ele>1627.3333333333335</ele><time>2026-04-26T09:24:59.343Z</time></trkpt><trkpt lat="44.0493598" lon="7.7570668"><ele>1627.5</ele><time>2026-04-26T09:25:01.344Z</time></trkpt><trkpt lat="44.0493716" lon="7.7572244"><ele>1627.6666666666665</ele><time>2026-04-26T09:25:03.344Z</time></trkpt><trkpt lat="44.0493821" lon="7.7573117"><ele>1627.8333333333333</ele><time>2026-04-26T09:25:04.344Z</time></trkpt><trkpt lat="44.0494037" lon="7.7573969"><ele>1628.0</ele><time>2026-04-26T09:25:05.343Z</time></trkpt><trkpt lat="44.0494465" lon="7.7575585"><ele>1628.0</ele><time>2026-04-26T09:25:07.344Z</time></trkpt><trkpt lat="44.0494707" lon="7.757643"><ele>1628.0</ele><time>2026-04-26T09:25:08.344Z</time></trkpt><trkpt lat="44.0494968" lon="7.7578069"><ele>1628.0</ele><time>2026-04-26T09:25:10.343Z</time></trkpt><trkpt lat="44.0494868" lon="7.7579722"><ele>1628.0</ele><time>2026-04-26T09:25:12.344Z</time></trkpt><trkpt lat="44.0494647" lon="7.7581142"><ele>1628.0</ele><time>2026-04-26T09:25:14.343Z</time></trkpt><trkpt lat="44.0494419" lon="7.758257"><ele>1627.6000000000001</ele><time>2026-04-26T09:25:16.344Z</time></trkpt><trkpt lat="44.049427" lon="7.7584058"><ele>1627.2</ele><time>2026-04-26T09:25:18.344Z</time></trkpt><trkpt lat="44.0493871" lon="7.758536"><ele>1626.8</ele><time>2026-04-26T09:25:20.344Z</time></trkpt><trkpt lat="44.0493488" lon="7.7586608"><ele>1626.4</ele><time>2026-04-26T09:25:22.343Z</time></trkpt><trkpt lat="44.0492972" lon="7.7587732"><ele>1626.0</ele><time>2026-04-26T09:25:24.343Z</time></trkpt><trkpt lat="44.0492636" lon="7.7588945"><ele>1622.0</ele><time>2026-04-26T09:25:26.343Z</time></trkpt><trkpt lat="44.0492311" lon="7.7590102"><ele>1618.0</ele><time>2026-04-26T09:25:28.343Z</time></trkpt><trkpt lat="44.049185" lon="7.7591252"><ele>1614.0</ele><time>2026-04-26T09:25:30.343Z</time></trkpt><trkpt lat="44.049139" lon="7.7592505"><ele>1610.0</ele><time>2026-04-26T09:25:32.343Z</time></trkpt><trkpt lat="44.0490826" lon="7.7593808"><ele>1606.0</ele><time>2026-04-26T09:25:34.343Z</time></trkpt><trkpt lat="44.049021" lon="7.7594986"><ele>1606.0</ele><time>2026-04-26T09:25:36.344Z</time></trkpt><trkpt lat="44.0489662" lon="7.7596138"><ele>1606.0</ele><time>2026-04-26T09:25:38.344Z</time></trkpt><trkpt lat="44.0489531" lon="7.759738"><ele>1606.0</ele><time>2026-04-26T09:25:40.344Z</time></trkpt><trkpt lat="44.0489482" lon="7.7598557"><ele>1606.0</ele><time>2026-04-26T09:25:42.343Z</time></trkpt><trkpt lat="44.0489619" lon="7.7599905"><ele>1606.0</ele><time>2026-04-26T09:25:44.342Z</time></trkpt><trkpt lat="44.0489531" lon="7.7601185"><ele>1611.6</ele><time>2026-04-26T09:25:46.343Z</time></trkpt><trkpt lat="44.0489239" lon="7.7602389"><ele>1617.1999999999998</ele><time>2026-04-26T09:25:48.342Z</time></trkpt><trkpt lat="44.048883" lon="7.7603688"><ele>1622.8000000000002</ele><time>2026-04-26T09:25:50.343Z</time></trkpt><trkpt lat="44.0488353" lon="7.7604735"><ele>1628.4</ele><time>2026-04-26T09:25:52.343Z</time></trkpt><trkpt lat="44.0487974" lon="7.760576"><ele>1634.0</ele><time>2026-04-26T09:25:54.344Z</time></trkpt><trkpt lat="44.0487678" lon="7.7607074"><ele>1634.0</ele><time>2026-04-26T09:25:56.342Z</time></trkpt><trkpt lat="44.0487178" lon="7.760829"><ele>1634.0</ele><time>2026-04-26T09:25:58.342Z</time></trkpt><trkpt lat="44.0486374" lon="7.7609163"><ele>1634.0</ele><time>2026-04-26T09:26:00.345Z</time></trkpt><trkpt lat="44.0485422" lon="7.7610197"><ele>1634.0</ele><time>2026-04-26T09:26:02.344Z</time></trkpt><trkpt lat="44.0484984" lon="7.7610868"><ele>1634.0</ele><time>2026-04-26T09:26:03.343Z</time></trkpt><trkpt lat="44.0484616" lon="7.7611657"><ele>1628.2</ele><time>2026-04-26T09:26:04.344Z</time></trkpt><trkpt lat="44.048422" lon="7.7613004"><ele>1622.4</ele><time>2026-04-26T09:26:06.342Z</time></trkpt><trkpt lat="44.0483887" lon="7.7614209"><ele>1616.6</ele><time>2026-04-26T09:26:08.342Z</time></trkpt><trkpt lat="44.0483353" lon="7.761538"><ele>1610.8</ele><time>2026-04-26T09:26:10.342Z</time></trkpt><trkpt lat="44.0482692" lon="7.7616681"><ele>1605.0</ele><time>2026-04-26T09:26:12.343Z</time></trkpt><trkpt lat="44.0482098" lon="7.7618132"><ele>1608.6666666666667</ele><time>2026-04-26T09:26:14.343Z</time></trkpt><trkpt lat="44.0481751" lon="7.7618929"><ele>1612.3333333333335</ele><time>2026-04-26T09:26:15.343Z</time></trkpt><trkpt lat="44.0481401" lon="7.7619667"><ele>1616.0</ele><time>2026-04-26T09:26:16.344Z</time></trkpt><trkpt lat="44.048066" lon="7.7621063"><ele>1619.6666666666667</ele><time>2026-04-26T09:26:18.343Z</time></trkpt><trkpt lat="44.0480279" lon="7.7621787"><ele>1623.3333333333335</ele><time>2026-04-26T09:26:19.343Z</time></trkpt><trkpt lat="44.0479388" lon="7.7622825"><ele>1627.0</ele><time>2026-04-26T09:26:21.343Z</time></trkpt><trkpt lat="44.0478388" lon="7.7623724"><ele>1627.0000000000002</ele><time>2026-04-26T09:26:23.342Z</time></trkpt><trkpt lat="44.0477853" lon="7.7624452"><ele>1627.0</ele><time>2026-04-26T09:26:25.343Z</time></trkpt><trkpt lat="44.0477241" lon="7.7625352"><ele>1627.0</ele><time>2026-04-26T09:26:27.343Z</time></trkpt><trkpt lat="44.0476849" lon="7.762645"><ele>1627.0</ele><time>2026-04-26T09:26:29.344Z</time></trkpt><trkpt lat="44.0476756" lon="7.7627435"><ele>1627.0000000000002</ele><time>2026-04-26T09:26:31.343Z</time></trkpt><trkpt lat="44.0476915" lon="7.7628311"><ele>1627.0</ele><time>2026-04-26T09:26:33.343Z</time></trkpt><trkpt lat="44.0477343" lon="7.7629351"><ele>1626.8333333333335</ele><time>2026-04-26T09:26:35.342Z</time></trkpt><trkpt lat="44.0477878" lon="7.7630118"><ele>1626.6666666666667</ele><time>2026-04-26T09:26:38.343Z</time></trkpt><trkpt lat="44.0478611" lon="7.7630518"><ele>1626.5</ele><time>2026-04-26T09:26:40.342Z</time></trkpt><trkpt lat="44.0479484" lon="7.7631063"><ele>1626.3333333333335</ele><time>2026-04-26T09:26:42.344Z</time></trkpt><trkpt lat="44.0480209" lon="7.7631541"><ele>1626.1666666666667</ele><time>2026-04-26T09:26:44.344Z</time></trkpt><trkpt lat="44.0480879" lon="7.76322"><ele>1626.0</ele><time>2026-04-26T09:26:46.342Z</time></trkpt><trkpt lat="44.0481534" lon="7.7633219"><ele>1626.0</ele><time>2026-04-26T09:26:48.344Z</time></trkpt><trkpt lat="44.0482256" lon="7.763433"><ele>1626.0</ele><time>2026-04-26T09:26:50.343Z</time></trkpt><trkpt lat="44.0482974" lon="7.7635449"><ele>1626.0</ele><time>2026-04-26T09:26:52.342Z</time></trkpt><trkpt lat="44.0483832" lon="7.7636665"><ele>1626.0</ele><time>2026-04-26T09:26:54.344Z</time></trkpt><trkpt lat="44.0484493" lon="7.7637732"><ele>1626.0</ele><time>2026-04-26T09:26:56.343Z</time></trkpt><trkpt lat="44.0485226" lon="7.7638832"><ele>1638.6</ele><time>2026-04-26T09:26:58.343Z</time></trkpt><trkpt lat="44.0485329" lon="7.7640133"><ele>1651.1999999999998</ele><time>2026-04-26T09:27:00.344Z</time></trkpt><trkpt lat="44.0485046" lon="7.7641409"><ele>1663.8000000000002</ele><time>2026-04-26T09:27:02.343Z</time></trkpt><trkpt lat="44.0484595" lon="7.7642562"><ele>1676.4</ele><time>2026-04-26T09:27:04.344Z</time></trkpt><trkpt lat="44.0483987" lon="7.7643686"><ele>1689.0</ele><time>2026-04-26T09:27:06.344Z</time></trkpt><trkpt lat="44.0483386" lon="7.7644762"><ele>1680.8000000000002</ele><time>2026-04-26T09:27:08.343Z</time></trkpt><trkpt lat="44.0482818" lon="7.7645827"><ele>1672.6000000000001</ele><time>2026-04-26T09:27:10.342Z</time></trkpt><trkpt lat="44.0482358" lon="7.7647115"><ele>1664.4</ele><time>2026-04-26T09:27:12.344Z</time></trkpt><trkpt lat="44.0482002" lon="7.7648378"><ele>1656.2</ele><time>2026-04-26T09:27:14.343Z</time></trkpt><trkpt lat="44.0482093" lon="7.7649748"><ele>1648.0</ele><time>2026-04-26T09:27:16.343Z</time></trkpt><trkpt lat="44.0482113" lon="7.765101"><ele>1648.0</ele><time>2026-04-26T09:27:18.342Z</time></trkpt><trkpt lat="44.0481587" lon="7.7651956"><ele>1648.0</ele><time>2026-04-26T09:27:20.342Z</time></trkpt><trkpt lat="44.0480983" lon="7.765293"><ele>1648.0</ele><time>2026-04-26T09:27:22.343Z</time></trkpt><trkpt lat="44.0480284" lon="7.7653992"><ele>1648.0</ele><time>2026-04-26T09:27:24.344Z</time></trkpt><trkpt lat="44.0479702" lon="7.7655059"><ele>1648.0</ele><time>2026-04-26T09:27:26.344Z</time></trkpt><trkpt lat="44.0479507" lon="7.7656286"><ele>1653.6000000000001</ele><time>2026-04-26T09:27:28.343Z</time></trkpt><trkpt lat="44.0479421" lon="7.765775"><ele>1659.2</ele><time>2026-04-26T09:27:30.343Z</time></trkpt><trkpt lat="44.0479097" lon="7.7659259"><ele>1664.8</ele><time>2026-04-26T09:27:32.342Z</time></trkpt><trkpt lat="44.0478374" lon="7.7660583"><ele>1670.4</ele><time>2026-04-26T09:27:34.344Z</time></trkpt><trkpt lat="44.0477962" lon="7.7661347"><ele>1676.0</ele><time>2026-04-26T09:27:35.343Z</time></trkpt><trkpt lat="44.0477164" lon="7.7662676"><ele>1678.9999999999998</ele><time>2026-04-26T09:27:37.342Z</time></trkpt><trkpt lat="44.0476512" lon="7.7663812"><ele>1682.0</ele><time>2026-04-26T09:27:39.342Z</time></trkpt><trkpt lat="44.0476326" lon="7.7664685"><ele>1685.0</ele><time>2026-04-26T09:27:41.344Z</time></trkpt><trkpt lat="44.0476245" lon="7.7665617"><ele>1688.0</ele><time>2026-04-26T09:27:43.344Z</time></trkpt><trkpt lat="44.0476341" lon="7.7666578"><ele>1690.9999999999998</ele><time>2026-04-26T09:28:01.343Z</time></trkpt><trkpt lat="44.0476384" lon="7.7667734"><ele>1694.0</ele><time>2026-04-26T09:28:03.343Z</time></trkpt><trkpt lat="44.0476501" lon="7.7668914"><ele>1696.6</ele><time>2026-04-26T09:28:05.344Z</time></trkpt><trkpt lat="44.047658" lon="7.7670155"><ele>1699.2</ele><time>2026-04-26T09:28:07.344Z</time></trkpt><trkpt lat="44.0476569" lon="7.7671308"><ele>1701.7999999999997</ele><time>2026-04-26T09:28:09.343Z</time></trkpt><trkpt lat="44.0476584" lon="7.7672697"><ele>1704.3999999999999</ele><time>2026-04-26T09:28:11.343Z</time></trkpt><trkpt lat="44.0476763" lon="7.7674052"><ele>1707.0</ele><time>2026-04-26T09:28:13.344Z</time></trkpt><trkpt lat="44.0476636" lon="7.7675327"><ele>1707.0</ele><time>2026-04-26T09:28:15.343Z</time></trkpt><trkpt lat="44.0476323" lon="7.7676099"><ele>1707.0</ele><time>2026-04-26T09:28:17.343Z</time></trkpt><trkpt lat="44.0475856" lon="7.767726"><ele>1707.0</ele><time>2026-04-26T09:28:20.342Z</time></trkpt><trkpt lat="44.0475202" lon="7.7678048"><ele>1707.0</ele><time>2026-04-26T09:28:22.343Z</time></trkpt><trkpt lat="44.0474775" lon="7.7679219"><ele>1707.0</ele><time>2026-04-26T09:28:24.342Z</time></trkpt><trkpt lat="44.0474456" lon="7.7680516"><ele>1707.0</ele><time>2026-04-26T09:28:26.343Z</time></trkpt><trkpt lat="44.0474139" lon="7.7681735"><ele>1711.1666666666667</ele><time>2026-04-26T09:28:28.344Z</time></trkpt><trkpt lat="44.0473702" lon="7.7682828"><ele>1715.3333333333335</ele><time>2026-04-26T09:28:30.344Z</time></trkpt><trkpt lat="44.0473146" lon="7.7683694"><ele>1719.5</ele><time>2026-04-26T09:28:32.344Z</time></trkpt><trkpt lat="44.0472438" lon="7.7684155"><ele>1723.6666666666667</ele><time>2026-04-26T09:28:34.343Z</time></trkpt><trkpt lat="44.0471691" lon="7.7684568"><ele>1727.8333333333335</ele><time>2026-04-26T09:28:36.343Z</time></trkpt><trkpt lat="44.047076" lon="7.768502"><ele>1732.0</ele><time>2026-04-26T09:28:38.344Z</time></trkpt><trkpt lat="44.0469777" lon="7.7685741"><ele>1732.0</ele><time>2026-04-26T09:28:40.344Z</time></trkpt><trkpt lat="44.0469187" lon="7.7686962"><ele>1731.9999999999998</ele><time>2026-04-26T09:28:42.344Z</time></trkpt><trkpt lat="44.0468929" lon="7.7688438"><ele>1731.9999999999998</ele><time>2026-04-26T09:28:44.343Z</time></trkpt><trkpt lat="44.0468464" lon="7.7689792"><ele>1732.0</ele><time>2026-04-26T09:28:46.343Z</time></trkpt><trkpt lat="44.0467835" lon="7.7690968"><ele>1732.0</ele><time>2026-04-26T09:28:48.343Z</time></trkpt><trkpt lat="44.0466811" lon="7.7692009"><ele>1729.6666666666667</ele><time>2026-04-26T09:28:50.343Z</time></trkpt><trkpt lat="44.0466082" lon="7.7692314"><ele>1727.3333333333335</ele><time>2026-04-26T09:28:51.342Z</time></trkpt><trkpt lat="44.0465349" lon="7.7692665"><ele>1725.0</ele><time>2026-04-26T09:28:52.344Z</time></trkpt><trkpt lat="44.0464505" lon="7.7692937"><ele>1722.6666666666665</ele><time>2026-04-26T09:28:53.344Z</time></trkpt><trkpt lat="44.0463671" lon="7.7693229"><ele>1720.3333333333333</ele><time>2026-04-26T09:28:54.344Z</time></trkpt><trkpt lat="44.0462917" lon="7.7693418"><ele>1718.0</ele><time>2026-04-26T09:28:55.344Z</time></trkpt><trkpt lat="44.0462318" lon="7.7693722"><ele>1718.0</ele><time>2026-04-26T09:28:56.342Z</time></trkpt><trkpt lat="44.0461798" lon="7.7694793"><ele>1718.0000000000002</ele><time>2026-04-26T09:28:58.343Z</time></trkpt><trkpt lat="44.0461563" lon="7.7696244"><ele>1718.0000000000002</ele><time>2026-04-26T09:29:00.343Z</time></trkpt><trkpt lat="44.0461406" lon="7.7697615"><ele>1718.0</ele><time>2026-04-26T09:29:02.343Z</time></trkpt><trkpt lat="44.046119" lon="7.7698967"><ele>1718.0</ele><time>2026-04-26T09:29:04.343Z</time></trkpt><trkpt lat="44.0460854" lon="7.7700197"><ele>1717.9999999999998</ele><time>2026-04-26T09:29:06.345Z</time></trkpt><trkpt lat="44.0460518" lon="7.7701589"><ele>1718.0</ele><time>2026-04-26T09:29:08.343Z</time></trkpt><trkpt lat="44.0460285" lon="7.7703245"><ele>1718.0</ele><time>2026-04-26T09:29:10.343Z</time></trkpt><trkpt lat="44.0460212" lon="7.7704173"><ele>1718.0</ele><time>2026-04-26T09:29:11.344Z</time></trkpt><trkpt lat="44.0460117" lon="7.7705116"><ele>1717.9999999999998</ele><time>2026-04-26T09:29:12.342Z</time></trkpt><trkpt lat="44.0460079" lon="7.77061"><ele>1718.0</ele><time>2026-04-26T09:29:13.342Z</time></trkpt><trkpt lat="44.0460036" lon="7.7707089"><ele>1721.0</ele><time>2026-04-26T09:29:14.343Z</time></trkpt><trkpt lat="44.0459893" lon="7.7707943"><ele>1724.0000000000002</ele><time>2026-04-26T09:29:15.344Z</time></trkpt><trkpt lat="44.0459325" lon="7.7709406"><ele>1727.0000000000002</ele><time>2026-04-26T09:29:17.343Z</time></trkpt><trkpt lat="44.0458994" lon="7.7710268"><ele>1730.0</ele><time>2026-04-26T09:29:18.344Z</time></trkpt><trkpt lat="44.0458736" lon="7.7711667"><ele>1733.0</ele><time>2026-04-26T09:29:20.343Z</time></trkpt><trkpt lat="44.0459128" lon="7.7713232"><ele>1733.1428571428573</ele><time>2026-04-26T09:29:22.343Z</time></trkpt><trkpt lat="44.0459417" lon="7.7714065"><ele>1733.2857142857142</ele><time>2026-04-26T09:29:23.342Z</time></trkpt><trkpt lat="44.045979" lon="7.771494"><ele>1733.4285714285716</ele><time>2026-04-26T09:29:24.344Z</time></trkpt><trkpt lat="44.0460135" lon="7.7715817"><ele>1733.5714285714287</ele><time>2026-04-26T09:29:25.343Z</time></trkpt><trkpt lat="44.0460443" lon="7.7716797"><ele>1733.7142857142858</ele><time>2026-04-26T09:29:26.343Z</time></trkpt><trkpt lat="44.0460688" lon="7.7717644"><ele>1733.857142857143</ele><time>2026-04-26T09:29:27.344Z</time></trkpt><trkpt lat="44.0460863" lon="7.7718516"><ele>1734.0</ele><time>2026-04-26T09:29:28.343Z</time></trkpt><trkpt lat="44.0461181" lon="7.7720114"><ele>1735.4</ele><time>2026-04-26T09:29:30.343Z</time></trkpt><trkpt lat="44.0460977" lon="7.7721777"><ele>1736.8000000000002</ele><time>2026-04-26T09:29:32.343Z</time></trkpt><trkpt lat="44.0460815" lon="7.7722775"><ele>1738.1999999999998</ele><time>2026-04-26T09:29:33.343Z</time></trkpt><trkpt lat="44.046052" lon="7.7723844"><ele>1739.6</ele><time>2026-04-26T09:29:34.342Z</time></trkpt><trkpt lat="44.0460194" lon="7.7725212"><ele>1741.0</ele><time>2026-04-26T09:29:35.344Z</time></trkpt><trkpt lat="44.0459945" lon="7.7726504"><ele>1744.4</ele><time>2026-04-26T09:29:36.343Z</time></trkpt><trkpt lat="44.045975" lon="7.7727793"><ele>1747.8</ele><time>2026-04-26T09:29:37.343Z</time></trkpt><trkpt lat="44.0459612" lon="7.7729156"><ele>1751.2000000000003</ele><time>2026-04-26T09:29:38.343Z</time></trkpt><trkpt lat="44.0459543" lon="7.7730405"><ele>1754.6000000000001</ele><time>2026-04-26T09:29:39.343Z</time></trkpt><trkpt lat="44.0459351" lon="7.7731922"><ele>1758.0</ele><time>2026-04-26T09:29:40.343Z</time></trkpt><trkpt lat="44.0459189" lon="7.7733472"><ele>1758.0</ele><time>2026-04-26T09:29:41.342Z</time></trkpt><trkpt lat="44.0458912" lon="7.7734694"><ele>1758.0000000000002</ele><time>2026-04-26T09:29:42.344Z</time></trkpt><trkpt lat="44.0458485" lon="7.7735742"><ele>1758.0000000000002</ele><time>2026-04-26T09:29:43.343Z</time></trkpt><trkpt lat="44.0458028" lon="7.7736865"><ele>1758.0</ele><time>2026-04-26T09:29:44.342Z</time></trkpt><trkpt lat="44.0457388" lon="7.7738054"><ele>1758.0</ele><time>2026-04-26T09:29:45.343Z</time></trkpt><trkpt lat="44.0456619" lon="7.7739299"><ele>1757.6000000000001</ele><time>2026-04-26T09:29:46.344Z</time></trkpt><trkpt lat="44.0455916" lon="7.774044"><ele>1757.2000000000003</ele><time>2026-04-26T09:29:47.343Z</time></trkpt><trkpt lat="44.0455204" lon="7.7741401"><ele>1756.8</ele><time>2026-04-26T09:29:48.344Z</time></trkpt><trkpt lat="44.0454594" lon="7.7742368"><ele>1756.4</ele><time>2026-04-26T09:29:49.343Z</time></trkpt><trkpt lat="44.0454047" lon="7.7743568"><ele>1756.0</ele><time>2026-04-26T09:29:50.344Z</time></trkpt><trkpt lat="44.0453544" lon="7.7744935"><ele>1756.0</ele><time>2026-04-26T09:29:51.343Z</time></trkpt><trkpt lat="44.0453078" lon="7.7746294"><ele>1756.0</ele><time>2026-04-26T09:29:52.343Z</time></trkpt><trkpt lat="44.0452731" lon="7.7747348"><ele>1756.0</ele><time>2026-04-26T09:29:53.343Z</time></trkpt><trkpt lat="44.0452378" lon="7.7748679"><ele>1756.0</ele><time>2026-04-26T09:29:55.342Z</time></trkpt><trkpt lat="44.0452428" lon="7.7749808"><ele>1756.0</ele><time>2026-04-26T09:30:38.343Z</time></trkpt><trkpt lat="44.0453233" lon="7.7750812"><ele>1756.0</ele><time>2026-04-26T09:30:40.344Z</time></trkpt><trkpt lat="44.0453741" lon="7.775138"><ele>1756.0</ele><time>2026-04-26T09:30:41.343Z</time></trkpt><trkpt lat="44.0454269" lon="7.7751891"><ele>1756.0</ele><time>2026-04-26T09:30:42.343Z</time></trkpt><trkpt lat="44.0455091" lon="7.7752903"><ele>1756.0</ele><time>2026-04-26T09:30:44.344Z</time></trkpt><trkpt lat="44.0455783" lon="7.7753339"><ele>1756.0</ele><time>2026-04-26T09:30:47.343Z</time></trkpt><trkpt lat="44.0456207" lon="7.7753991"><ele>1756.0</ele><time>2026-04-26T09:30:51.343Z</time></trkpt><trkpt lat="44.0456707" lon="7.7753311"><ele>1756.0</ele><time>2026-04-26T09:33:05.343Z</time></trkpt><trkpt lat="44.0456206" lon="7.7753944"><ele>1759.4285714285713</ele><time>2026-04-26T09:33:43.344Z</time></trkpt><trkpt lat="44.0456754" lon="7.7753201"><ele>1762.8571428571427</ele><time>2026-04-26T09:34:36.344Z</time></trkpt><trkpt lat="44.0455985" lon="7.7753393"><ele>1766.2857142857142</ele><time>2026-04-26T09:35:15.343Z</time></trkpt><trkpt lat="44.0455355" lon="7.7753188"><ele>1769.7142857142858</ele><time>2026-04-26T09:35:19.343Z</time></trkpt><trkpt lat="44.0455874" lon="7.7753776"><ele>1773.142857142857</ele><time>2026-04-26T09:37:11.342Z</time></trkpt><trkpt lat="44.0456501" lon="7.775423"><ele>1776.5714285714287</ele><time>2026-04-26T09:37:16.342Z</time></trkpt><trkpt lat="44.045712" lon="7.7753496"><ele>1780.0</ele><time>2026-04-26T09:41:12.343Z</time></trkpt><trkpt lat="44.0457678" lon="7.7753004"><ele>1779.0</ele><time>2026-04-26T09:41:14.342Z</time></trkpt><trkpt lat="44.0458355" lon="7.7752503"><ele>1778.0</ele><time>2026-04-26T09:41:16.342Z</time></trkpt><trkpt lat="44.0458987" lon="7.775183"><ele>1777.0</ele><time>2026-04-26T09:41:18.342Z</time></trkpt><trkpt lat="44.0459786" lon="7.7751003"><ele>1776.0</ele><time>2026-04-26T09:41:20.343Z</time></trkpt><trkpt lat="44.0460786" lon="7.7750662"><ele>1775.0</ele><time>2026-04-26T09:41:22.343Z</time></trkpt><trkpt lat="44.0461851" lon="7.7750616"><ele>1775.0</ele><time>2026-04-26T09:41:24.342Z</time></trkpt><trkpt lat="44.0462853" lon="7.7750613"><ele>1775.0</ele><time>2026-04-26T09:41:26.343Z</time></trkpt><trkpt lat="44.0463935" lon="7.7750644"><ele>1775.0</ele><time>2026-04-26T09:41:28.343Z</time></trkpt><trkpt lat="44.046508" lon="7.7750716"><ele>1775.0</ele><time>2026-04-26T09:41:30.343Z</time></trkpt><trkpt lat="44.046615" lon="7.7750761"><ele>1775.0</ele><time>2026-04-26T09:41:32.342Z</time></trkpt><trkpt lat="44.0467176" lon="7.7750681"><ele>1773.2</ele><time>2026-04-26T09:41:34.343Z</time></trkpt><trkpt lat="44.0468225" lon="7.7750513"><ele>1771.4</ele><time>2026-04-26T09:41:36.343Z</time></trkpt><trkpt lat="44.0469323" lon="7.7750165"><ele>1769.6</ele><time>2026-04-26T09:41:38.343Z</time></trkpt><trkpt lat="44.0470387" lon="7.7750015"><ele>1767.8</ele><time>2026-04-26T09:41:40.342Z</time></trkpt><trkpt lat="44.0471372" lon="7.774999"><ele>1766.0</ele><time>2026-04-26T09:41:42.342Z</time></trkpt><trkpt lat="44.0472253" lon="7.7749829"><ele>1766.0</ele><time>2026-04-26T09:41:44.342Z</time></trkpt><trkpt lat="44.0473286" lon="7.7749937"><ele>1766.0</ele><time>2026-04-26T09:41:46.342Z</time></trkpt><trkpt lat="44.0474134" lon="7.775047"><ele>1766.0</ele><time>2026-04-26T09:41:48.343Z</time></trkpt><trkpt lat="44.0474675" lon="7.7751429"><ele>1766.0</ele><time>2026-04-26T09:41:50.343Z</time></trkpt><trkpt lat="44.0475206" lon="7.7752481"><ele>1766.0</ele><time>2026-04-26T09:41:52.342Z</time></trkpt><trkpt lat="44.0475811" lon="7.7753542"><ele>1761.4</ele><time>2026-04-26T09:41:54.343Z</time></trkpt><trkpt lat="44.0476401" lon="7.7754547"><ele>1756.8</ele><time>2026-04-26T09:41:56.344Z</time></trkpt><trkpt lat="44.0476658" lon="7.7755769"><ele>1752.2000000000003</ele><time>2026-04-26T09:41:58.342Z</time></trkpt><trkpt lat="44.0476758" lon="7.7757126"><ele>1747.6000000000001</ele><time>2026-04-26T09:42:00.343Z</time></trkpt><trkpt lat="44.0477033" lon="7.7758437"><ele>1743.0</ele><time>2026-04-26T09:42:02.342Z</time></trkpt><trkpt lat="44.0477516" lon="7.7759512"><ele>1738.4</ele><time>2026-04-26T09:42:04.342Z</time></trkpt><trkpt lat="44.0478123" lon="7.7760579"><ele>1733.8000000000002</ele><time>2026-04-26T09:42:06.343Z</time></trkpt><trkpt lat="44.0478941" lon="7.7761774"><ele>1729.2</ele><time>2026-04-26T09:42:08.342Z</time></trkpt><trkpt lat="44.0479704" lon="7.7763005"><ele>1724.6</ele><time>2026-04-26T09:42:10.343Z</time></trkpt><trkpt lat="44.0480254" lon="7.7764198"><ele>1720.0</ele><time>2026-04-26T09:42:12.342Z</time></trkpt><trkpt lat="44.0480635" lon="7.7765221"><ele>1720.0000000000002</ele><time>2026-04-26T09:42:14.342Z</time></trkpt><trkpt lat="44.0481103" lon="7.7766187"><ele>1720.0</ele><time>2026-04-26T09:42:16.342Z</time></trkpt><trkpt lat="44.0481696" lon="7.7766997"><ele>1720.0</ele><time>2026-04-26T09:42:18.343Z</time></trkpt><trkpt lat="44.0482455" lon="7.7767687"><ele>1720.0</ele><time>2026-04-26T09:42:20.342Z</time></trkpt><trkpt lat="44.0483272" lon="7.7768367"><ele>1720.0000000000002</ele><time>2026-04-26T09:42:22.343Z</time></trkpt><trkpt lat="44.0484116" lon="7.776884"><ele>1720.0</ele><time>2026-04-26T09:42:24.341Z</time></trkpt><trkpt lat="44.0484987" lon="7.7769334"><ele>1718.6</ele><time>2026-04-26T09:42:26.343Z</time></trkpt><trkpt lat="44.0485848" lon="7.7769983"><ele>1717.2</ele><time>2026-04-26T09:42:28.343Z</time></trkpt><trkpt lat="44.0486577" lon="7.7770687"><ele>1715.8000000000002</ele><time>2026-04-26T09:42:30.342Z</time></trkpt><trkpt lat="44.0487268" lon="7.7771204"><ele>1714.4</ele><time>2026-04-26T09:42:32.342Z</time></trkpt><trkpt lat="44.0488078" lon="7.7771594"><ele>1713.0</ele><time>2026-04-26T09:42:34.342Z</time></trkpt><trkpt lat="44.0489232" lon="7.7771908"><ele>1713.0</ele><time>2026-04-26T09:42:36.342Z</time></trkpt><trkpt lat="44.0490353" lon="7.777202"><ele>1713.0000000000002</ele><time>2026-04-26T09:42:38.342Z</time></trkpt><trkpt lat="44.0491396" lon="7.7771821"><ele>1713.0000000000002</ele><time>2026-04-26T09:42:40.343Z</time></trkpt><trkpt lat="44.0492451" lon="7.7771881"><ele>1713.0</ele><time>2026-04-26T09:42:42.343Z</time></trkpt><trkpt lat="44.0493296" lon="7.7772494"><ele>1713.0</ele><time>2026-04-26T09:42:44.343Z</time></trkpt><trkpt lat="44.049409" lon="7.7773276"><ele>1714.8000000000002</ele><time>2026-04-26T09:42:46.343Z</time></trkpt><trkpt lat="44.0495005" lon="7.7773858"><ele>1716.6000000000001</ele><time>2026-04-26T09:42:48.343Z</time></trkpt><trkpt lat="44.0495934" lon="7.7774226"><ele>1718.3999999999999</ele><time>2026-04-26T09:42:50.342Z</time></trkpt><trkpt lat="44.0496754" lon="7.7774748"><ele>1720.1999999999998</ele><time>2026-04-26T09:42:52.342Z</time></trkpt><trkpt lat="44.0497507" lon="7.7775671"><ele>1722.0</ele><time>2026-04-26T09:42:54.343Z</time></trkpt><trkpt lat="44.0498208" lon="7.7776549"><ele>1718.6</ele><time>2026-04-26T09:42:56.342Z</time></trkpt><trkpt lat="44.0499054" lon="7.7777329"><ele>1715.1999999999998</ele><time>2026-04-26T09:42:58.343Z</time></trkpt><trkpt lat="44.0499905" lon="7.7778036"><ele>1711.8</ele><time>2026-04-26T09:43:00.342Z</time></trkpt><trkpt lat="44.0500741" lon="7.7778679"><ele>1708.4</ele><time>2026-04-26T09:43:02.342Z</time></trkpt><trkpt lat="44.0501602" lon="7.777934"><ele>1705.0</ele><time>2026-04-26T09:43:04.342Z</time></trkpt><trkpt lat="44.0502667" lon="7.7779892"><ele>1705.0</ele><time>2026-04-26T09:43:06.343Z</time></trkpt><trkpt lat="44.0503616" lon="7.7780382"><ele>1705.0</ele><time>2026-04-26T09:43:08.342Z</time></trkpt><trkpt lat="44.0504653" lon="7.7781175"><ele>1705.0</ele><time>2026-04-26T09:43:10.343Z</time></trkpt><trkpt lat="44.0505576" lon="7.7781957"><ele>1705.0</ele><time>2026-04-26T09:43:12.342Z</time></trkpt><trkpt lat="44.0506375" lon="7.7782543"><ele>1705.0</ele><time>2026-04-26T09:43:14.342Z</time></trkpt><trkpt lat="44.0507309" lon="7.7782508"><ele>1705.2</ele><time>2026-04-26T09:43:16.341Z</time></trkpt><trkpt lat="44.0508246" lon="7.7782301"><ele>1705.4</ele><time>2026-04-26T09:43:18.343Z</time></trkpt><trkpt lat="44.0509246" lon="7.7782098"><ele>1705.6</ele><time>2026-04-26T09:43:20.342Z</time></trkpt><trkpt lat="44.051041" lon="7.7781672"><ele>1705.8</ele><time>2026-04-26T09:43:22.343Z</time></trkpt><trkpt lat="44.0511516" lon="7.7781299"><ele>1706.0</ele><time>2026-04-26T09:43:24.343Z</time></trkpt><trkpt lat="44.0512144" lon="7.7781186"><ele>1706.0</ele><time>2026-04-26T09:43:25.342Z</time></trkpt><trkpt lat="44.0513311" lon="7.7781246"><ele>1706.0</ele><time>2026-04-26T09:43:27.342Z</time></trkpt><trkpt lat="44.0514446" lon="7.7781064"><ele>1706.0</ele><time>2026-04-26T09:43:29.343Z</time></trkpt><trkpt lat="44.0515483" lon="7.778044"><ele>1706.0</ele><time>2026-04-26T09:43:31.342Z</time></trkpt><trkpt lat="44.051605" lon="7.777978"><ele>1706.0</ele><time>2026-04-26T09:43:33.342Z</time></trkpt><trkpt lat="44.0516486" lon="7.7779055"><ele>1706.2857142857142</ele><time>2026-04-26T09:43:41.341Z</time></trkpt><trkpt lat="44.0516974" lon="7.7778418"><ele>1706.5714285714287</ele><time>2026-04-26T09:43:44.344Z</time></trkpt><trkpt lat="44.0517432" lon="7.7777538"><ele>1706.857142857143</ele><time>2026-04-26T09:44:14.342Z</time></trkpt><trkpt lat="44.0517754" lon="7.7776736"><ele>1707.142857142857</ele><time>2026-04-26T09:44:17.343Z</time></trkpt><trkpt lat="44.0518172" lon="7.7776035"><ele>1707.4285714285716</ele><time>2026-04-26T09:44:21.343Z</time></trkpt><trkpt lat="44.0518609" lon="7.7775383"><ele>1707.7142857142858</ele><time>2026-04-26T09:44:25.343Z</time></trkpt><trkpt lat="44.0519119" lon="7.7774652"><ele>1708.0</ele><time>2026-04-26T09:44:30.343Z</time></trkpt><trkpt lat="44.0519579" lon="7.777395"><ele>1708.0</ele><time>2026-04-26T09:44:34.342Z</time></trkpt><trkpt lat="44.052005" lon="7.7773249"><ele>1708.0</ele><time>2026-04-26T09:44:42.341Z</time></trkpt><trkpt lat="44.0520466" lon="7.7772386"><ele>1708.0</ele><time>2026-04-26T09:44:48.341Z</time></trkpt><trkpt lat="44.0520847" lon="7.7771538"><ele>1708.0</ele><time>2026-04-26T09:44:54.342Z</time></trkpt><trkpt lat="44.0521176" lon="7.7770758"><ele>1708.0</ele><time>2026-04-26T09:45:00.342Z</time></trkpt><trkpt lat="44.0521498" lon="7.7769868"><ele>1708.0</ele><time>2026-04-26T09:45:10.342Z</time></trkpt><trkpt lat="44.0521814" lon="7.7768856"><ele>1708.0</ele><time>2026-04-26T09:45:14.342Z</time></trkpt><trkpt lat="44.0521997" lon="7.7767994"><ele>1709.2857142857142</ele><time>2026-04-26T09:45:17.342Z</time></trkpt><trkpt lat="44.0522263" lon="7.7767082"><ele>1710.5714285714284</ele><time>2026-04-26T09:45:24.342Z</time></trkpt><trkpt lat="44.0522304" lon="7.7766148"><ele>1711.857142857143</ele><time>2026-04-26T09:45:33.342Z</time></trkpt><trkpt lat="44.0522473" lon="7.7765242"><ele>1713.142857142857</ele><time>2026-04-26T09:45:36.344Z</time></trkpt><trkpt lat="44.0522663" lon="7.776435"><ele>1714.4285714285713</ele><time>2026-04-26T09:45:39.344Z</time></trkpt><trkpt lat="44.0522812" lon="7.7763397"><ele>1715.7142857142858</ele><time>2026-04-26T09:45:42.342Z</time></trkpt><trkpt lat="44.0522899" lon="7.7762367"><ele>1717.0</ele><time>2026-04-26T09:45:49.342Z</time></trkpt><trkpt lat="44.0522882" lon="7.776144"><ele>1717.0</ele><time>2026-04-26T09:45:56.343Z</time></trkpt><trkpt lat="44.0522892" lon="7.7760463"><ele>1717.0</ele><time>2026-04-26T09:46:08.342Z</time></trkpt><trkpt lat="44.0522929" lon="7.7759534"><ele>1717.0</ele><time>2026-04-26T09:46:23.343Z</time></trkpt><trkpt lat="44.0523119" lon="7.7758635"><ele>1717.0</ele><time>2026-04-26T09:46:30.343Z</time></trkpt><trkpt lat="44.0523284" lon="7.7757425"><ele>1717.0</ele><time>2026-04-26T09:46:33.341Z</time></trkpt><trkpt lat="44.0523499" lon="7.775654"><ele>1717.0</ele><time>2026-04-26T09:46:37.343Z</time></trkpt><trkpt lat="44.0523313" lon="7.7757545"><ele>1717.0</ele><time>2026-04-26T09:58:48.342Z</time></trkpt><trkpt lat="44.0523129" lon="7.7758853"><ele>1717.0000000000002</ele><time>2026-04-26T09:58:50.34Z</time></trkpt><trkpt lat="44.0522955" lon="7.775975"><ele>1717.0</ele><time>2026-04-26T09:58:52.341Z</time></trkpt><trkpt lat="44.0522945" lon="7.776069"><ele>1717.0</ele><time>2026-04-26T09:59:00.342Z</time></trkpt><trkpt lat="44.0523187" lon="7.7761732"><ele>1717.0</ele><time>2026-04-26T09:59:05.341Z</time></trkpt><trkpt lat="44.0523156" lon="7.7762872"><ele>1717.0000000000002</ele><time>2026-04-26T09:59:13.341Z</time></trkpt><trkpt lat="44.0522966" lon="7.7763956"><ele>1717.0</ele><time>2026-04-26T10:01:53.339Z</time></trkpt><trkpt lat="44.0522805" lon="7.7764988"><ele>1717.0000000000002</ele><time>2026-04-26T10:01:55.34Z</time></trkpt><trkpt lat="44.0522607" lon="7.7766118"><ele>1717.0</ele><time>2026-04-26T10:01:57.341Z</time></trkpt><trkpt lat="44.0522446" lon="7.7767054"><ele>1717.0</ele><time>2026-04-26T10:01:59.34Z</time></trkpt><trkpt lat="44.0522203" lon="7.776812"><ele>1717.0</ele><time>2026-04-26T10:02:03.341Z</time></trkpt><trkpt lat="44.052198" lon="7.7769044"><ele>1717.0000000000002</ele><time>2026-04-26T10:02:05.34Z</time></trkpt><trkpt lat="44.052175" lon="7.7769951"><ele>1717.0</ele><time>2026-04-26T10:02:07.339Z</time></trkpt><trkpt lat="44.0521357" lon="7.7771127"><ele>1715.5000000000002</ele><time>2026-04-26T10:02:10.34Z</time></trkpt><trkpt lat="44.0520946" lon="7.7772116"><ele>1714.0</ele><time>2026-04-26T10:02:12.341Z</time></trkpt><trkpt lat="44.0520488" lon="7.7772947"><ele>1712.5</ele><time>2026-04-26T10:02:14.34Z</time></trkpt><trkpt lat="44.0520054" lon="7.7773672"><ele>1711.0</ele><time>2026-04-26T10:02:29.34Z</time></trkpt><trkpt lat="44.0519487" lon="7.7774462"><ele>1709.5000000000002</ele><time>2026-04-26T10:02:33.341Z</time></trkpt><trkpt lat="44.0518872" lon="7.7775282"><ele>1708.0</ele><time>2026-04-26T10:02:35.341Z</time></trkpt><trkpt lat="44.0518252" lon="7.7776008"><ele>1708.0000000000002</ele><time>2026-04-26T10:02:37.34Z</time></trkpt><trkpt lat="44.0517741" lon="7.7776806"><ele>1708.0</ele><time>2026-04-26T10:02:39.34Z</time></trkpt><trkpt lat="44.0517314" lon="7.777777"><ele>1708.0</ele><time>2026-04-26T10:02:41.34Z</time></trkpt><trkpt lat="44.0516838" lon="7.7778667"><ele>1708.0</ele><time>2026-04-26T10:02:43.341Z</time></trkpt><trkpt lat="44.0516332" lon="7.7779311"><ele>1708.0000000000002</ele><time>2026-04-26T10:02:45.34Z</time></trkpt><trkpt lat="44.0515746" lon="7.7780087"><ele>1708.0</ele><time>2026-04-26T10:02:47.34Z</time></trkpt><trkpt lat="44.0515107" lon="7.7780843"><ele>1707.6666666666667</ele><time>2026-04-26T10:02:49.341Z</time></trkpt><trkpt lat="44.051437" lon="7.7781253"><ele>1707.3333333333335</ele><time>2026-04-26T10:02:51.341Z</time></trkpt><trkpt lat="44.0513551" lon="7.778149"><ele>1707.0</ele><time>2026-04-26T10:02:53.34Z</time></trkpt><trkpt lat="44.0512665" lon="7.7781402"><ele>1706.6666666666665</ele><time>2026-04-26T10:02:55.341Z</time></trkpt><trkpt lat="44.0511745" lon="7.7781454"><ele>1706.3333333333333</ele><time>2026-04-26T10:02:57.341Z</time></trkpt><trkpt lat="44.0510806" lon="7.7781489"><ele>1706.0</ele><time>2026-04-26T10:03:00.34Z</time></trkpt><trkpt lat="44.0509914" lon="7.7781747"><ele>1705.9999999999998</ele><time>2026-04-26T10:03:02.34Z</time></trkpt><trkpt lat="44.0509301" lon="7.7781971"><ele>1706.0</ele><time>2026-04-26T10:03:03.34Z</time></trkpt><trkpt lat="44.0508173" lon="7.7782403"><ele>1706.0</ele><time>2026-04-26T10:03:05.34Z</time></trkpt><trkpt lat="44.0507492" lon="7.7782562"><ele>1706.0</ele><time>2026-04-26T10:03:06.341Z</time></trkpt><trkpt lat="44.0506847" lon="7.7782598"><ele>1705.9999999999998</ele><time>2026-04-26T10:03:07.341Z</time></trkpt><trkpt lat="44.0505713" lon="7.778216"><ele>1706.0</ele><time>2026-04-26T10:03:09.341Z</time></trkpt><trkpt lat="44.0505026" lon="7.7781696"><ele>1705.8333333333333</ele><time>2026-04-26T10:03:10.341Z</time></trkpt><trkpt lat="44.0504389" lon="7.7781324"><ele>1705.6666666666665</ele><time>2026-04-26T10:03:11.34Z</time></trkpt><trkpt lat="44.0503762" lon="7.7780905"><ele>1705.5</ele><time>2026-04-26T10:03:12.34Z</time></trkpt><trkpt lat="44.050309" lon="7.7780467"><ele>1705.3333333333335</ele><time>2026-04-26T10:03:13.341Z</time></trkpt><trkpt lat="44.0502333" lon="7.7780006"><ele>1705.1666666666667</ele><time>2026-04-26T10:03:14.341Z</time></trkpt><trkpt lat="44.0501519" lon="7.7779553"><ele>1705.0</ele><time>2026-04-26T10:03:15.341Z</time></trkpt><trkpt lat="44.0500744" lon="7.7778916"><ele>1705.0</ele><time>2026-04-26T10:03:16.341Z</time></trkpt><trkpt lat="44.0499895" lon="7.7778184"><ele>1705.0</ele><time>2026-04-26T10:03:17.339Z</time></trkpt><trkpt lat="44.0498874" lon="7.7777372"><ele>1705.0</ele><time>2026-04-26T10:03:18.339Z</time></trkpt><trkpt lat="44.0498072" lon="7.7776527"><ele>1705.0</ele><time>2026-04-26T10:03:19.341Z</time></trkpt><trkpt lat="44.0497173" lon="7.7775495"><ele>1705.0</ele><time>2026-04-26T10:03:20.339Z</time></trkpt><trkpt lat="44.0496393" lon="7.7774816"><ele>1707.8333333333335</ele><time>2026-04-26T10:03:21.34Z</time></trkpt><trkpt lat="44.0495585" lon="7.7774288"><ele>1710.6666666666667</ele><time>2026-04-26T10:03:22.34Z</time></trkpt><trkpt lat="44.0494716" lon="7.7773775"><ele>1713.5</ele><time>2026-04-26T10:03:23.34Z</time></trkpt><trkpt lat="44.0493962" lon="7.7773209"><ele>1716.3333333333335</ele><time>2026-04-26T10:03:24.339Z</time></trkpt><trkpt lat="44.0493182" lon="7.7772554"><ele>1719.1666666666667</ele><time>2026-04-26T10:03:25.34Z</time></trkpt><trkpt lat="44.0492546" lon="7.7772177"><ele>1722.0</ele><time>2026-04-26T10:03:26.341Z</time></trkpt><trkpt lat="44.0491483" lon="7.7771974"><ele>1720.5</ele><time>2026-04-26T10:03:28.34Z</time></trkpt><trkpt lat="44.0490044" lon="7.7772075"><ele>1719.0</ele><time>2026-04-26T10:03:30.34Z</time></trkpt><trkpt lat="44.048939" lon="7.7772088"><ele>1717.5</ele><time>2026-04-26T10:03:31.34Z</time></trkpt><trkpt lat="44.0488684" lon="7.7771908"><ele>1716.0</ele><time>2026-04-26T10:03:32.34Z</time></trkpt><trkpt lat="44.0487939" lon="7.7771569"><ele>1714.5</ele><time>2026-04-26T10:03:33.34Z</time></trkpt><trkpt lat="44.0487192" lon="7.7771027"><ele>1713.0</ele><time>2026-04-26T10:03:34.34Z</time></trkpt><trkpt lat="44.0486326" lon="7.7770387"><ele>1713.0</ele><time>2026-04-26T10:03:35.34Z</time></trkpt><trkpt lat="44.0485511" lon="7.7769791"><ele>1713.0</ele><time>2026-04-26T10:03:36.34Z</time></trkpt><trkpt lat="44.0484737" lon="7.7769187"><ele>1713.0</ele><time>2026-04-26T10:03:37.341Z</time></trkpt><trkpt lat="44.0483824" lon="7.7768537"><ele>1713.0</ele><time>2026-04-26T10:03:38.34Z</time></trkpt><trkpt lat="44.0483017" lon="7.7768038"><ele>1713.0</ele><time>2026-04-26T10:03:39.339Z</time></trkpt><trkpt lat="44.0482357" lon="7.7767542"><ele>1713.0</ele><time>2026-04-26T10:03:40.34Z</time></trkpt><trkpt lat="44.0481713" lon="7.7766828"><ele>1714.1666666666667</ele><time>2026-04-26T10:03:41.34Z</time></trkpt><trkpt lat="44.0481082" lon="7.7766023"><ele>1715.3333333333335</ele><time>2026-04-26T10:03:42.34Z</time></trkpt><trkpt lat="44.0480574" lon="7.7765146"><ele>1716.5</ele><time>2026-04-26T10:03:43.34Z</time></trkpt><trkpt lat="44.0480038" lon="7.7763986"><ele>1717.6666666666667</ele><time>2026-04-26T10:03:44.341Z</time></trkpt><trkpt lat="44.0479546" lon="7.7762902"><ele>1718.8333333333335</ele><time>2026-04-26T10:03:45.341Z</time></trkpt><trkpt lat="44.0479082" lon="7.7762101"><ele>1720.0</ele><time>2026-04-26T10:03:46.339Z</time></trkpt><trkpt lat="44.0478662" lon="7.7761408"><ele>1720.0</ele><time>2026-04-26T10:03:47.341Z</time></trkpt><trkpt lat="44.0478252" lon="7.7760637"><ele>1720.0</ele><time>2026-04-26T10:03:48.34Z</time></trkpt><trkpt lat="44.0477553" lon="7.7759355"><ele>1720.0</ele><time>2026-04-26T10:03:50.341Z</time></trkpt><trkpt lat="44.0477154" lon="7.7758619"><ele>1720.0</ele><time>2026-04-26T10:03:51.34Z</time></trkpt><trkpt lat="44.0476858" lon="7.7757845"><ele>1720.0</ele><time>2026-04-26T10:03:52.341Z</time></trkpt><trkpt lat="44.0476739" lon="7.7755961"><ele>1724.6</ele><time>2026-04-26T10:03:54.34Z</time></trkpt><trkpt lat="44.0476434" lon="7.7754447"><ele>1729.2</ele><time>2026-04-26T10:03:56.34Z</time></trkpt><trkpt lat="44.0475807" lon="7.7753261"><ele>1733.8000000000002</ele><time>2026-04-26T10:03:58.341Z</time></trkpt><trkpt lat="44.0475095" lon="7.7751989"><ele>1738.4</ele><time>2026-04-26T10:04:00.34Z</time></trkpt><trkpt lat="44.0474394" lon="7.7750734"><ele>1743.0</ele><time>2026-04-26T10:04:02.34Z</time></trkpt><trkpt lat="44.0473648" lon="7.7749916"><ele>1746.8333333333333</ele><time>2026-04-26T10:04:04.339Z</time></trkpt><trkpt lat="44.0472666" lon="7.774987"><ele>1750.6666666666665</ele><time>2026-04-26T10:04:06.34Z</time></trkpt><trkpt lat="44.0471893" lon="7.7750038"><ele>1754.5</ele><time>2026-04-26T10:04:09.34Z</time></trkpt><trkpt lat="44.047088" lon="7.775006"><ele>1758.3333333333333</ele><time>2026-04-26T10:04:17.339Z</time></trkpt><trkpt lat="44.0470157" lon="7.7750086"><ele>1762.1666666666665</ele><time>2026-04-26T10:04:18.341Z</time></trkpt><trkpt lat="44.0469314" lon="7.7750284"><ele>1766.0</ele><time>2026-04-26T10:04:19.34Z</time></trkpt><trkpt lat="44.0468351" lon="7.7750587"><ele>1766.0</ele><time>2026-04-26T10:04:20.341Z</time></trkpt><trkpt lat="44.0467418" lon="7.7750755"><ele>1766.0</ele><time>2026-04-26T10:04:21.341Z</time></trkpt><trkpt lat="44.0466422" lon="7.7750852"><ele>1766.0</ele><time>2026-04-26T10:04:22.34Z</time></trkpt><trkpt lat="44.0465369" lon="7.7750802"><ele>1766.0</ele><time>2026-04-26T10:04:23.34Z</time></trkpt><trkpt lat="44.0464395" lon="7.7750765"><ele>1766.0</ele><time>2026-04-26T10:04:24.34Z</time></trkpt><trkpt lat="44.0463482" lon="7.7750659"><ele>1765.3333333333333</ele><time>2026-04-26T10:04:25.339Z</time></trkpt><trkpt lat="44.0462649" lon="7.7750529"><ele>1764.6666666666665</ele><time>2026-04-26T10:04:26.34Z</time></trkpt><trkpt lat="44.0461782" lon="7.7750511"><ele>1764.0</ele><time>2026-04-26T10:04:27.34Z</time></trkpt><trkpt lat="44.0461" lon="7.7750608"><ele>1763.3333333333335</ele><time>2026-04-26T10:04:28.341Z</time></trkpt><trkpt lat="44.0460322" lon="7.7750769"><ele>1762.6666666666667</ele><time>2026-04-26T10:04:29.34Z</time></trkpt><trkpt lat="44.0459292" lon="7.7751473"><ele>1762.0</ele><time>2026-04-26T10:04:31.34Z</time></trkpt><trkpt lat="44.045834" lon="7.7752465"><ele>1761.0000000000002</ele><time>2026-04-26T10:04:33.34Z</time></trkpt><trkpt lat="44.0457285" lon="7.7753126"><ele>1760.0</ele><time>2026-04-26T10:04:35.34Z</time></trkpt><trkpt lat="44.0456313" lon="7.7753386"><ele>1759.0</ele><time>2026-04-26T10:04:37.34Z</time></trkpt><trkpt lat="44.0455502" lon="7.7753161"><ele>1758.0</ele><time>2026-04-26T10:04:39.341Z</time></trkpt><trkpt lat="44.0454887" lon="7.7752696"><ele>1757.0000000000002</ele><time>2026-04-26T10:04:41.341Z</time></trkpt><trkpt lat="44.0454512" lon="7.7751841"><ele>1756.0</ele><time>2026-04-26T10:04:43.342Z</time></trkpt><trkpt lat="44.0453921" lon="7.7751019"><ele>1756.0000000000002</ele><time>2026-04-26T10:04:45.341Z</time></trkpt><trkpt lat="44.0453441" lon="7.7750366"><ele>1756.0</ele><time>2026-04-26T10:04:46.34Z</time></trkpt><trkpt lat="44.0452789" lon="7.7749395"><ele>1756.0</ele><time>2026-04-26T10:04:48.34Z</time></trkpt><trkpt lat="44.0452477" lon="7.7748596"><ele>1756.0</ele><time>2026-04-26T10:06:14.34Z</time></trkpt><trkpt lat="44.0452921" lon="7.774728"><ele>1756.0000000000002</ele><time>2026-04-26T10:06:17.34Z</time></trkpt><trkpt lat="44.0453385" lon="7.7746182"><ele>1756.0</ele><time>2026-04-26T10:06:19.34Z</time></trkpt><trkpt lat="44.0453683" lon="7.774507"><ele>1756.0000000000002</ele><time>2026-04-26T10:06:21.34Z</time></trkpt><trkpt lat="44.0454111" lon="7.7743957"><ele>1756.0</ele><time>2026-04-26T10:06:23.34Z</time></trkpt><trkpt lat="44.0454566" lon="7.7743039"><ele>1756.0</ele><time>2026-04-26T10:06:25.34Z</time></trkpt><trkpt lat="44.0455085" lon="7.7742256"><ele>1756.0</ele><time>2026-04-26T10:06:27.34Z</time></trkpt><trkpt lat="44.0455659" lon="7.7741226"><ele>1756.0000000000002</ele><time>2026-04-26T10:06:29.34Z</time></trkpt><trkpt lat="44.0456345" lon="7.7740247"><ele>1756.0</ele><time>2026-04-26T10:06:31.34Z</time></trkpt><trkpt lat="44.045701" lon="7.7739044"><ele>1756.4</ele><time>2026-04-26T10:06:33.339Z</time></trkpt><trkpt lat="44.04576" lon="7.773773"><ele>1756.8</ele><time>2026-04-26T10:06:35.341Z</time></trkpt><trkpt lat="44.0458158" lon="7.7736447"><ele>1757.2000000000003</ele><time>2026-04-26T10:06:37.341Z</time></trkpt><trkpt lat="44.0458749" lon="7.7735327"><ele>1757.6000000000001</ele><time>2026-04-26T10:06:39.339Z</time></trkpt><trkpt lat="44.0459073" lon="7.7734244"><ele>1758.0</ele><time>2026-04-26T10:06:41.339Z</time></trkpt><trkpt lat="44.0459292" lon="7.7733071"><ele>1758.0</ele><time>2026-04-26T10:06:43.341Z</time></trkpt><trkpt lat="44.0459408" lon="7.7731986"><ele>1758.0</ele><time>2026-04-26T10:06:45.339Z</time></trkpt><trkpt lat="44.0459474" lon="7.7730774"><ele>1758.0</ele><time>2026-04-26T10:06:47.341Z</time></trkpt><trkpt lat="44.0459598" lon="7.7729608"><ele>1758.0</ele><time>2026-04-26T10:06:49.34Z</time></trkpt><trkpt lat="44.0459636" lon="7.7728345"><ele>1758.0</ele><time>2026-04-26T10:06:51.339Z</time></trkpt><trkpt lat="44.0459903" lon="7.7726993"><ele>1758.0</ele><time>2026-04-26T10:06:53.341Z</time></trkpt><trkpt lat="44.0460277" lon="7.7725333"><ele>1754.6000000000001</ele><time>2026-04-26T10:06:55.34Z</time></trkpt><trkpt lat="44.0460576" lon="7.7723849"><ele>1751.2000000000003</ele><time>2026-04-26T10:06:57.34Z</time></trkpt><trkpt lat="44.0460898" lon="7.7722436"><ele>1747.8</ele><time>2026-04-26T10:06:59.341Z</time></trkpt><trkpt lat="44.0461071" lon="7.772099"><ele>1744.4</ele><time>2026-04-26T10:07:01.34Z</time></trkpt><trkpt lat="44.046104" lon="7.7719651"><ele>1741.0</ele><time>2026-04-26T10:07:03.34Z</time></trkpt><trkpt lat="44.0460799" lon="7.7718294"><ele>1739.8333333333335</ele><time>2026-04-26T10:07:05.34Z</time></trkpt><trkpt lat="44.0460388" lon="7.7717117"><ele>1738.6666666666667</ele><time>2026-04-26T10:07:07.339Z</time></trkpt><trkpt lat="44.0459947" lon="7.771602"><ele>1737.5</ele><time>2026-04-26T10:07:09.341Z</time></trkpt><trkpt lat="44.0459602" lon="7.7714907"><ele>1736.3333333333335</ele><time>2026-04-26T10:07:11.34Z</time></trkpt><trkpt lat="44.0459252" lon="7.7713806"><ele>1735.1666666666667</ele><time>2026-04-26T10:07:13.34Z</time></trkpt><trkpt lat="44.045893" lon="7.7712641"><ele>1734.0</ele><time>2026-04-26T10:07:15.34Z</time></trkpt><trkpt lat="44.0458962" lon="7.7711327"><ele>1733.8000000000002</ele><time>2026-04-26T10:07:17.341Z</time></trkpt><trkpt lat="44.0459349" lon="7.7710108"><ele>1733.6000000000001</ele><time>2026-04-26T10:07:19.34Z</time></trkpt><trkpt lat="44.0459727" lon="7.770884"><ele>1733.4</ele><time>2026-04-26T10:07:21.341Z</time></trkpt><trkpt lat="44.0460064" lon="7.7707655"><ele>1733.2</ele><time>2026-04-26T10:07:23.341Z</time></trkpt><trkpt lat="44.0460211" lon="7.7706454"><ele>1733.0</ele><time>2026-04-26T10:07:25.341Z</time></trkpt><trkpt lat="44.0460223" lon="7.770517"><ele>1733.0</ele><time>2026-04-26T10:07:27.339Z</time></trkpt><trkpt lat="44.0460258" lon="7.7703784"><ele>1733.0000000000002</ele><time>2026-04-26T10:07:29.34Z</time></trkpt><trkpt lat="44.0460469" lon="7.7702424"><ele>1733.0000000000002</ele><time>2026-04-26T10:07:31.34Z</time></trkpt><trkpt lat="44.0460747" lon="7.7701015"><ele>1733.0</ele><time>2026-04-26T10:07:33.34Z</time></trkpt><trkpt lat="44.0461006" lon="7.7699512"><ele>1733.0</ele><time>2026-04-26T10:07:35.34Z</time></trkpt><trkpt lat="44.046123" lon="7.7698066"><ele>1730.4999999999998</ele><time>2026-04-26T10:07:37.341Z</time></trkpt><trkpt lat="44.0461469" lon="7.7696622"><ele>1728.0</ele><time>2026-04-26T10:07:39.341Z</time></trkpt><trkpt lat="44.0461733" lon="7.7695167"><ele>1725.5</ele><time>2026-04-26T10:07:41.34Z</time></trkpt><trkpt lat="44.0462059" lon="7.7694134"><ele>1723.0</ele><time>2026-04-26T10:07:43.339Z</time></trkpt><trkpt lat="44.0462551" lon="7.7693494"><ele>1720.4999999999998</ele><time>2026-04-26T10:07:45.339Z</time></trkpt><trkpt lat="44.0463343" lon="7.7693366"><ele>1718.0</ele><time>2026-04-26T10:07:47.339Z</time></trkpt><trkpt lat="44.0464287" lon="7.7693094"><ele>1720.3333333333333</ele><time>2026-04-26T10:07:49.339Z</time></trkpt><trkpt lat="44.046509" lon="7.7692828"><ele>1722.6666666666665</ele><time>2026-04-26T10:07:51.341Z</time></trkpt><trkpt lat="44.0465916" lon="7.7692592"><ele>1725.0</ele><time>2026-04-26T10:07:53.341Z</time></trkpt><trkpt lat="44.0466695" lon="7.769242"><ele>1727.3333333333335</ele><time>2026-04-26T10:07:55.341Z</time></trkpt><trkpt lat="44.0467432" lon="7.7691921"><ele>1729.6666666666667</ele><time>2026-04-26T10:07:57.342Z</time></trkpt><trkpt lat="44.0468169" lon="7.7690988"><ele>1732.0</ele><time>2026-04-26T10:07:59.341Z</time></trkpt><trkpt lat="44.0468742" lon="7.7690112"><ele>1732.0000000000002</ele><time>2026-04-26T10:08:01.34Z</time></trkpt><trkpt lat="44.0469037" lon="7.7689073"><ele>1732.0</ele><time>2026-04-26T10:08:03.341Z</time></trkpt><trkpt lat="44.0469206" lon="7.7687973"><ele>1732.0</ele><time>2026-04-26T10:08:05.34Z</time></trkpt><trkpt lat="44.0469331" lon="7.7686832"><ele>1732.0</ele><time>2026-04-26T10:08:07.341Z</time></trkpt><trkpt lat="44.0469684" lon="7.7685865"><ele>1732.0000000000002</ele><time>2026-04-26T10:08:09.34Z</time></trkpt><trkpt lat="44.047049" lon="7.7685566"><ele>1732.0</ele><time>2026-04-26T10:08:11.341Z</time></trkpt><trkpt lat="44.0471343" lon="7.768498"><ele>1731.1666666666667</ele><time>2026-04-26T10:08:13.341Z</time></trkpt><trkpt lat="44.0472136" lon="7.7684457"><ele>1730.3333333333335</ele><time>2026-04-26T10:08:15.341Z</time></trkpt><trkpt lat="44.047289" lon="7.7684021"><ele>1729.5</ele><time>2026-04-26T10:08:17.34Z</time></trkpt><trkpt lat="44.0473532" lon="7.7683407"><ele>1728.6666666666665</ele><time>2026-04-26T10:08:19.341Z</time></trkpt><trkpt lat="44.0474066" lon="7.768253"><ele>1727.8333333333333</ele><time>2026-04-26T10:08:21.34Z</time></trkpt><trkpt lat="44.047442" lon="7.768148"><ele>1727.0</ele><time>2026-04-26T10:08:23.341Z</time></trkpt><trkpt lat="44.0474655" lon="7.7680353"><ele>1726.9999999999998</ele><time>2026-04-26T10:08:25.341Z</time></trkpt><trkpt lat="44.0474867" lon="7.7679333"><ele>1727.0</ele><time>2026-04-26T10:08:27.34Z</time></trkpt><trkpt lat="44.04751" lon="7.7678368"><ele>1727.0</ele><time>2026-04-26T10:08:29.34Z</time></trkpt><trkpt lat="44.0475473" lon="7.7677477"><ele>1727.0</ele><time>2026-04-26T10:08:31.34Z</time></trkpt><trkpt lat="44.0475988" lon="7.7676631"><ele>1726.9999999999998</ele><time>2026-04-26T10:08:33.34Z</time></trkpt><trkpt lat="44.0476479" lon="7.7675679"><ele>1727.0</ele><time>2026-04-26T10:08:35.34Z</time></trkpt><trkpt lat="44.0476706" lon="7.767466"><ele>1723.6666666666665</ele><time>2026-04-26T10:08:37.339Z</time></trkpt><trkpt lat="44.0476592" lon="7.7673301"><ele>1720.3333333333333</ele><time>2026-04-26T10:08:39.34Z</time></trkpt><trkpt lat="44.047652" lon="7.7671992"><ele>1717.0</ele><time>2026-04-26T10:08:41.339Z</time></trkpt><trkpt lat="44.0476482" lon="7.7670817"><ele>1713.6666666666665</ele><time>2026-04-26T10:08:43.34Z</time></trkpt><trkpt lat="44.0476477" lon="7.7669743"><ele>1710.3333333333333</ele><time>2026-04-26T10:08:45.339Z</time></trkpt><trkpt lat="44.0476427" lon="7.7668671"><ele>1707.0</ele><time>2026-04-26T10:08:47.34Z</time></trkpt><trkpt lat="44.0476408" lon="7.7667483"><ele>1704.8333333333333</ele><time>2026-04-26T10:08:49.341Z</time></trkpt><trkpt lat="44.0476446" lon="7.7666042"><ele>1702.6666666666665</ele><time>2026-04-26T10:08:51.341Z</time></trkpt><trkpt lat="44.0476453" lon="7.7664781"><ele>1700.5</ele><time>2026-04-26T10:08:53.34Z</time></trkpt><trkpt lat="44.0476618" lon="7.7663825"><ele>1698.3333333333333</ele><time>2026-04-26T10:08:55.341Z</time></trkpt><trkpt lat="44.0477085" lon="7.766297"><ele>1696.1666666666665</ele><time>2026-04-26T10:08:57.341Z</time></trkpt><trkpt lat="44.0477497" lon="7.766201"><ele>1694.0</ele><time>2026-04-26T10:08:59.341Z</time></trkpt><trkpt lat="44.0478136" lon="7.7661018"><ele>1690.4</ele><time>2026-04-26T10:09:01.34Z</time></trkpt><trkpt lat="44.0478886" lon="7.7659862"><ele>1686.8000000000002</ele><time>2026-04-26T10:09:03.342Z</time></trkpt><trkpt lat="44.0479218" lon="7.7658579"><ele>1683.1999999999998</ele><time>2026-04-26T10:09:05.341Z</time></trkpt><trkpt lat="44.0479393" lon="7.7657272"><ele>1679.6</ele><time>2026-04-26T10:09:07.341Z</time></trkpt><trkpt lat="44.0479556" lon="7.7655871"><ele>1676.0</ele><time>2026-04-26T10:09:09.34Z</time></trkpt><trkpt lat="44.0479973" lon="7.7654608"><ele>1676.0</ele><time>2026-04-26T10:09:11.34Z</time></trkpt><trkpt lat="44.0480633" lon="7.7653565"><ele>1676.0</ele><time>2026-04-26T10:09:13.341Z</time></trkpt><trkpt lat="44.0481321" lon="7.7652504"><ele>1676.0</ele><time>2026-04-26T10:09:15.341Z</time></trkpt><trkpt lat="44.0481958" lon="7.765138"><ele>1676.0</ele><time>2026-04-26T10:09:17.339Z</time></trkpt><trkpt lat="44.0482056" lon="7.765031"><ele>1676.0</ele><time>2026-04-26T10:09:19.342Z</time></trkpt><trkpt lat="44.0481984" lon="7.764926"><ele>1678.1666666666665</ele><time>2026-04-26T10:09:21.341Z</time></trkpt><trkpt lat="44.0482097" lon="7.76483"><ele>1680.3333333333333</ele><time>2026-04-26T10:09:23.34Z</time></trkpt><trkpt lat="44.0482274" lon="7.7647265"><ele>1682.5</ele><time>2026-04-26T10:09:25.34Z</time></trkpt><trkpt lat="44.0482643" lon="7.7646331"><ele>1684.6666666666665</ele><time>2026-04-26T10:09:27.341Z</time></trkpt><trkpt lat="44.0483224" lon="7.7645406"><ele>1686.8333333333333</ele><time>2026-04-26T10:09:29.34Z</time></trkpt><trkpt lat="44.048379" lon="7.7644259"><ele>1689.0</ele><time>2026-04-26T10:09:31.341Z</time></trkpt><trkpt lat="44.0484363" lon="7.7643114"><ele>1689.0</ele><time>2026-04-26T10:09:33.341Z</time></trkpt><trkpt lat="44.0484938" lon="7.7642075"><ele>1689.0</ele><time>2026-04-26T10:09:35.339Z</time></trkpt><trkpt lat="44.0485287" lon="7.7641112"><ele>1689.0</ele><time>2026-04-26T10:09:37.34Z</time></trkpt><trkpt lat="44.0485425" lon="7.7640075"><ele>1689.0</ele><time>2026-04-26T10:09:39.341Z</time></trkpt><trkpt lat="44.0485279" lon="7.7639083"><ele>1689.0</ele><time>2026-04-26T10:09:41.339Z</time></trkpt><trkpt lat="44.048487" lon="7.7638351"><ele>1689.0</ele><time>2026-04-26T10:09:43.34Z</time></trkpt><trkpt lat="44.0484283" lon="7.7637468"><ele>1689.0</ele><time>2026-04-26T10:09:46.341Z</time></trkpt><trkpt lat="44.0483599" lon="7.7636561"><ele>1689.0</ele><time>2026-04-26T10:09:49.341Z</time></trkpt><trkpt lat="44.0483073" lon="7.7635793"><ele>1689.0</ele><time>2026-04-26T10:09:51.34Z</time></trkpt><trkpt lat="44.0482388" lon="7.7634896"><ele>1689.0</ele><time>2026-04-26T10:09:53.341Z</time></trkpt><trkpt lat="44.0481694" lon="7.763379"><ele>1689.0</ele><time>2026-04-26T10:09:55.341Z</time></trkpt><trkpt lat="44.048111" lon="7.7632767"><ele>1678.5</ele><time>2026-04-26T10:09:57.341Z</time></trkpt><trkpt lat="44.048044" lon="7.7631955"><ele>1668.0</ele><time>2026-04-26T10:09:59.34Z</time></trkpt><trkpt lat="44.0479632" lon="7.7631291"><ele>1657.5</ele><time>2026-04-26T10:10:01.34Z</time></trkpt><trkpt lat="44.0478862" lon="7.7630784"><ele>1647.0</ele><time>2026-04-26T10:10:03.341Z</time></trkpt><trkpt lat="44.0478091" lon="7.7630334"><ele>1636.5</ele><time>2026-04-26T10:10:05.34Z</time></trkpt><trkpt lat="44.0477439" lon="7.7629739"><ele>1626.0</ele><time>2026-04-26T10:10:07.341Z</time></trkpt><trkpt lat="44.0476991" lon="7.762854"><ele>1626.0</ele><time>2026-04-26T10:10:09.34Z</time></trkpt><trkpt lat="44.0476699" lon="7.7627455"><ele>1626.0</ele><time>2026-04-26T10:10:11.34Z</time></trkpt><trkpt lat="44.0476733" lon="7.7626385"><ele>1626.0</ele><time>2026-04-26T10:10:13.34Z</time></trkpt><trkpt lat="44.0477119" lon="7.7625547"><ele>1626.0</ele><time>2026-04-26T10:10:15.34Z</time></trkpt><trkpt lat="44.047759" lon="7.7624653"><ele>1626.0</ele><time>2026-04-26T10:10:17.34Z</time></trkpt><trkpt lat="44.0478181" lon="7.7624001"><ele>1626.0</ele><time>2026-04-26T10:10:19.341Z</time></trkpt><trkpt lat="44.0478858" lon="7.7623378"><ele>1626.1999999999998</ele><time>2026-04-26T10:10:21.34Z</time></trkpt><trkpt lat="44.0479495" lon="7.76228"><ele>1626.3999999999999</ele><time>2026-04-26T10:10:23.34Z</time></trkpt><trkpt lat="44.0480174" lon="7.7621865"><ele>1626.6</ele><time>2026-04-26T10:10:25.34Z</time></trkpt><trkpt lat="44.0480765" lon="7.7620763"><ele>1626.8</ele><time>2026-04-26T10:10:27.341Z</time></trkpt><trkpt lat="44.0481384" lon="7.7619554"><ele>1627.0</ele><time>2026-04-26T10:10:29.339Z</time></trkpt><trkpt lat="44.048189" lon="7.761843"><ele>1622.6</ele><time>2026-04-26T10:10:31.34Z</time></trkpt><trkpt lat="44.0482409" lon="7.7617312"><ele>1618.1999999999998</ele><time>2026-04-26T10:10:33.34Z</time></trkpt><trkpt lat="44.0483112" lon="7.7616264"><ele>1613.8</ele><time>2026-04-26T10:10:35.34Z</time></trkpt><trkpt lat="44.0483622" lon="7.7615137"><ele>1609.4</ele><time>2026-04-26T10:10:37.34Z</time></trkpt><trkpt lat="44.0483948" lon="7.76139"><ele>1605.0</ele><time>2026-04-26T10:10:39.34Z</time></trkpt><trkpt lat="44.0484288" lon="7.7612605"><ele>1610.8</ele><time>2026-04-26T10:10:41.34Z</time></trkpt><trkpt lat="44.0484792" lon="7.7611347"><ele>1616.6</ele><time>2026-04-26T10:10:43.341Z</time></trkpt><trkpt lat="44.0485394" lon="7.7610442"><ele>1622.4</ele><time>2026-04-26T10:10:45.341Z</time></trkpt><trkpt lat="44.0486138" lon="7.760958"><ele>1628.2</ele><time>2026-04-26T10:10:47.339Z</time></trkpt><trkpt lat="44.0486881" lon="7.7608759"><ele>1634.0</ele><time>2026-04-26T10:10:49.34Z</time></trkpt><trkpt lat="44.048736" lon="7.7607708"><ele>1634.0</ele><time>2026-04-26T10:10:51.341Z</time></trkpt><trkpt lat="44.0487786" lon="7.7606427"><ele>1634.0</ele><time>2026-04-26T10:10:53.34Z</time></trkpt><trkpt lat="44.0488261" lon="7.7605313"><ele>1634.0</ele><time>2026-04-26T10:10:55.339Z</time></trkpt><trkpt lat="44.0488729" lon="7.7604146"><ele>1634.0</ele><time>2026-04-26T10:10:57.339Z</time></trkpt><trkpt lat="44.048911" lon="7.7602934"><ele>1634.0</ele><time>2026-04-26T10:10:59.339Z</time></trkpt><trkpt lat="44.0489381" lon="7.7601603"><ele>1629.3333333333333</ele><time>2026-04-26T10:11:01.341Z</time></trkpt><trkpt lat="44.0489475" lon="7.7600341"><ele>1624.6666666666665</ele><time>2026-04-26T10:11:03.34Z</time></trkpt><trkpt lat="44.0489341" lon="7.7598807"><ele>1620.0</ele><time>2026-04-26T10:11:05.34Z</time></trkpt><trkpt lat="44.0489383" lon="7.7597585"><ele>1615.3333333333335</ele><time>2026-04-26T10:11:07.34Z</time></trkpt><trkpt lat="44.0489424" lon="7.7596485"><ele>1610.6666666666667</ele><time>2026-04-26T10:11:09.34Z</time></trkpt><trkpt lat="44.0489778" lon="7.7595657"><ele>1606.0</ele><time>2026-04-26T10:11:11.34Z</time></trkpt><trkpt lat="44.0490148" lon="7.7594793"><ele>1606.0000000000002</ele><time>2026-04-26T10:11:13.34Z</time></trkpt><trkpt lat="44.0490623" lon="7.7593887"><ele>1606.0</ele><time>2026-04-26T10:11:15.34Z</time></trkpt><trkpt lat="44.049108" lon="7.7592932"><ele>1606.0</ele><time>2026-04-26T10:11:17.341Z</time></trkpt><trkpt lat="44.0491571" lon="7.7591935"><ele>1606.0</ele><time>2026-04-26T10:11:19.34Z</time></trkpt><trkpt lat="44.0491995" lon="7.759077"><ele>1606.0000000000002</ele><time>2026-04-26T10:11:21.341Z</time></trkpt><trkpt lat="44.0492276" lon="7.758959"><ele>1606.0</ele><time>2026-04-26T10:11:23.339Z</time></trkpt><trkpt lat="44.049256" lon="7.7588394"><ele>1610.0</ele><time>2026-04-26T10:11:25.34Z</time></trkpt><trkpt lat="44.0493082" lon="7.7587297"><ele>1614.0</ele><time>2026-04-26T10:11:27.342Z</time></trkpt><trkpt lat="44.0493587" lon="7.7586185"><ele>1618.0</ele><time>2026-04-26T10:11:29.34Z</time></trkpt><trkpt lat="44.0493946" lon="7.7584973"><ele>1622.0</ele><time>2026-04-26T10:11:31.34Z</time></trkpt><trkpt lat="44.0494199" lon="7.7583442"><ele>1626.0</ele><time>2026-04-26T10:11:33.341Z</time></trkpt><trkpt lat="44.0494371" lon="7.7582551"><ele>1626.0</ele><time>2026-04-26T10:11:34.34Z</time></trkpt><trkpt lat="44.0494524" lon="7.7581694"><ele>1626.0</ele><time>2026-04-26T10:11:35.341Z</time></trkpt><trkpt lat="44.049476" lon="7.7579641"><ele>1626.0</ele><time>2026-04-26T10:11:37.342Z</time></trkpt><trkpt lat="44.04948" lon="7.7578663"><ele>1626.0</ele><time>2026-04-26T10:11:38.34Z</time></trkpt><trkpt lat="44.0494813" lon="7.7577679"><ele>1626.0</ele><time>2026-04-26T10:11:39.34Z</time></trkpt><trkpt lat="44.0494479" lon="7.7576079"><ele>1626.5</ele><time>2026-04-26T10:11:41.34Z</time></trkpt><trkpt lat="44.0494074" lon="7.757449"><ele>1627.0</ele><time>2026-04-26T10:11:43.342Z</time></trkpt><trkpt lat="44.0493888" lon="7.7572936"><ele>1627.5</ele><time>2026-04-26T10:11:45.339Z</time></trkpt><trkpt lat="44.049351" lon="7.7571394"><ele>1628.0</ele><time>2026-04-26T10:11:47.34Z</time></trkpt><trkpt lat="44.049323" lon="7.7569707"><ele>1627.8000000000002</ele><time>2026-04-26T10:11:49.34Z</time></trkpt><trkpt lat="44.0493099" lon="7.7568187"><ele>1627.6</ele><time>2026-04-26T10:11:51.341Z</time></trkpt><trkpt lat="44.0492926" lon="7.7566755"><ele>1627.4</ele><time>2026-04-26T10:11:53.34Z</time></trkpt><trkpt lat="44.0492809" lon="7.7565319"><ele>1627.1999999999998</ele><time>2026-04-26T10:11:55.34Z</time></trkpt><trkpt lat="44.049272" lon="7.7563714"><ele>1627.0</ele><time>2026-04-26T10:11:57.341Z</time></trkpt><trkpt lat="44.0492708" lon="7.7562747"><ele>1627.0</ele><time>2026-04-26T10:11:58.339Z</time></trkpt><trkpt lat="44.0492416" lon="7.7561062"><ele>1627.0</ele><time>2026-04-26T10:12:00.339Z</time></trkpt><trkpt lat="44.0492195" lon="7.7560153"><ele>1627.0</ele><time>2026-04-26T10:12:01.341Z</time></trkpt><trkpt lat="44.0491636" lon="7.7558758"><ele>1627.0</ele><time>2026-04-26T10:12:03.34Z</time></trkpt><trkpt lat="44.0491082" lon="7.755755"><ele>1627.0</ele><time>2026-04-26T10:12:05.341Z</time></trkpt><trkpt lat="44.049055" lon="7.7556515"><ele>1622.5</ele><time>2026-04-26T10:12:07.341Z</time></trkpt><trkpt lat="44.0489907" lon="7.7555125"><ele>1618.0</ele><time>2026-04-26T10:12:09.339Z</time></trkpt><trkpt lat="44.0489231" lon="7.7553702"><ele>1613.5</ele><time>2026-04-26T10:12:11.339Z</time></trkpt><trkpt lat="44.0488471" lon="7.7552198"><ele>1609.0</ele><time>2026-04-26T10:12:13.342Z</time></trkpt><trkpt lat="44.0488001" lon="7.7551356"><ele>1609.0000000000002</ele><time>2026-04-26T10:12:14.341Z</time></trkpt><trkpt lat="44.0487541" lon="7.7550579"><ele>1609.0</ele><time>2026-04-26T10:12:15.34Z</time></trkpt><trkpt lat="44.0487082" lon="7.7549775"><ele>1609.0</ele><time>2026-04-26T10:12:16.339Z</time></trkpt><trkpt lat="44.0486621" lon="7.7549047"><ele>1609.0</ele><time>2026-04-26T10:12:17.34Z</time></trkpt><trkpt lat="44.0486269" lon="7.7548318"><ele>1609.0000000000002</ele><time>2026-04-26T10:12:18.339Z</time></trkpt><trkpt lat="44.0485526" lon="7.7546774"><ele>1609.0</ele><time>2026-04-26T10:12:20.341Z</time></trkpt><trkpt lat="44.0485118" lon="7.7545899"><ele>1609.0000000000002</ele><time>2026-04-26T10:12:21.341Z</time></trkpt><trkpt lat="44.0484661" lon="7.754515"><ele>1609.0</ele><time>2026-04-26T10:12:22.34Z</time></trkpt><trkpt lat="44.048424" lon="7.7544455"><ele>1609.0</ele><time>2026-04-26T10:12:23.34Z</time></trkpt><trkpt lat="44.048337" lon="7.7543381"><ele>1609.0</ele><time>2026-04-26T10:12:25.34Z</time></trkpt><trkpt lat="44.0482406" lon="7.7542803"><ele>1609.0000000000002</ele><time>2026-04-26T10:12:27.34Z</time></trkpt><trkpt lat="44.0481618" lon="7.7542574"><ele>1609.0</ele><time>2026-04-26T10:12:29.341Z</time></trkpt><trkpt lat="44.048082" lon="7.7542578"><ele>1610.3333333333335</ele><time>2026-04-26T10:12:31.341Z</time></trkpt><trkpt lat="44.0480065" lon="7.7542776"><ele>1611.6666666666667</ele><time>2026-04-26T10:12:33.339Z</time></trkpt><trkpt lat="44.0479329" lon="7.7543105"><ele>1613.0</ele><time>2026-04-26T10:12:35.341Z</time></trkpt><trkpt lat="44.0478476" lon="7.7543046"><ele>1614.3333333333335</ele><time>2026-04-26T10:12:37.34Z</time></trkpt><trkpt lat="44.0477488" lon="7.7542905"><ele>1615.6666666666667</ele><time>2026-04-26T10:12:39.34Z</time></trkpt><trkpt lat="44.0476483" lon="7.7542856"><ele>1617.0</ele><time>2026-04-26T10:12:41.34Z</time></trkpt><trkpt lat="44.0475529" lon="7.7542835"><ele>1616.0</ele><time>2026-04-26T10:12:43.341Z</time></trkpt><trkpt lat="44.0474574" lon="7.7542934"><ele>1615.0</ele><time>2026-04-26T10:12:45.34Z</time></trkpt><trkpt lat="44.0473931" lon="7.7542968"><ele>1614.0</ele><time>2026-04-26T10:12:46.34Z</time></trkpt><trkpt lat="44.0473257" lon="7.7542985"><ele>1613.0</ele><time>2026-04-26T10:12:47.339Z</time></trkpt><trkpt lat="44.0472012" lon="7.7542967"><ele>1612.0</ele><time>2026-04-26T10:12:49.34Z</time></trkpt><trkpt lat="44.0470705" lon="7.7543179"><ele>1612.0000000000002</ele><time>2026-04-26T10:12:51.34Z</time></trkpt><trkpt lat="44.0469964" lon="7.7543359"><ele>1612.0</ele><time>2026-04-26T10:12:52.34Z</time></trkpt><trkpt lat="44.0469118" lon="7.7543561"><ele>1612.0</ele><time>2026-04-26T10:12:53.34Z</time></trkpt><trkpt lat="44.0468307" lon="7.7543779"><ele>1612.0</ele><time>2026-04-26T10:12:54.34Z</time></trkpt><trkpt lat="44.0467543" lon="7.7543906"><ele>1612.0000000000002</ele><time>2026-04-26T10:12:55.339Z</time></trkpt><trkpt lat="44.0466839" lon="7.7544058"><ele>1612.0</ele><time>2026-04-26T10:12:56.341Z</time></trkpt><trkpt lat="44.0466183" lon="7.7544145"><ele>1608.3999999999999</ele><time>2026-04-26T10:12:57.34Z</time></trkpt><trkpt lat="44.0465185" lon="7.7543751"><ele>1604.8</ele><time>2026-04-26T10:12:59.341Z</time></trkpt><trkpt lat="44.0464319" lon="7.7543069"><ele>1601.2</ele><time>2026-04-26T10:13:01.342Z</time></trkpt><trkpt lat="44.0463487" lon="7.7542613"><ele>1597.6</ele><time>2026-04-26T10:13:03.34Z</time></trkpt><trkpt lat="44.0462594" lon="7.7542634"><ele>1594.0</ele><time>2026-04-26T10:13:05.339Z</time></trkpt><trkpt lat="44.0461678" lon="7.7543109"><ele>1588.1666666666667</ele><time>2026-04-26T10:13:07.34Z</time></trkpt><trkpt lat="44.0460707" lon="7.7543715"><ele>1582.3333333333335</ele><time>2026-04-26T10:13:09.34Z</time></trkpt><trkpt lat="44.046015" lon="7.7544127"><ele>1576.5</ele><time>2026-04-26T10:13:10.34Z</time></trkpt><trkpt lat="44.0459167" lon="7.754461"><ele>1570.6666666666665</ele><time>2026-04-26T10:13:12.34Z</time></trkpt><trkpt lat="44.0458105" lon="7.7544642"><ele>1564.8333333333333</ele><time>2026-04-26T10:13:14.34Z</time></trkpt><trkpt lat="44.0457472" lon="7.7544357"><ele>1559.0</ele><time>2026-04-26T10:13:15.34Z</time></trkpt><trkpt lat="44.045683" lon="7.7543988"><ele>1556.6</ele><time>2026-04-26T10:13:16.341Z</time></trkpt><trkpt lat="44.0455781" lon="7.754343"><ele>1554.2</ele><time>2026-04-26T10:13:18.34Z</time></trkpt><trkpt lat="44.0454907" lon="7.7542471"><ele>1551.8</ele><time>2026-04-26T10:13:20.339Z</time></trkpt><trkpt lat="44.0454145" lon="7.7540992"><ele>1549.3999999999999</ele><time>2026-04-26T10:13:22.341Z</time></trkpt><trkpt lat="44.0453798" lon="7.7540148"><ele>1547.0</ele><time>2026-04-26T10:13:23.341Z</time></trkpt><trkpt lat="44.0453372" lon="7.7538988"><ele>1546.9999999999998</ele><time>2026-04-26T10:13:25.341Z</time></trkpt><trkpt lat="44.0453521" lon="7.7537875"><ele>1547.0</ele><time>2026-04-26T10:13:27.34Z</time></trkpt><trkpt lat="44.0454088" lon="7.7536944"><ele>1547.0</ele><time>2026-04-26T10:13:29.34Z</time></trkpt><trkpt lat="44.0454734" lon="7.7536172"><ele>1547.0</ele><time>2026-04-26T10:13:31.341Z</time></trkpt><trkpt lat="44.0455604" lon="7.7535243"><ele>1546.9999999999998</ele><time>2026-04-26T10:13:33.34Z</time></trkpt><trkpt lat="44.0456094" lon="7.753438"><ele>1547.0</ele><time>2026-04-26T10:13:35.339Z</time></trkpt><trkpt lat="44.0456488" lon="7.7533421"><ele>1543.1999999999998</ele><time>2026-04-26T10:13:37.341Z</time></trkpt><trkpt lat="44.0456712" lon="7.7532283"><ele>1539.4</ele><time>2026-04-26T10:13:39.34Z</time></trkpt><trkpt lat="44.0456611" lon="7.7530948"><ele>1535.6</ele><time>2026-04-26T10:13:41.34Z</time></trkpt><trkpt lat="44.0456553" lon="7.7529563"><ele>1531.8000000000002</ele><time>2026-04-26T10:13:43.34Z</time></trkpt><trkpt lat="44.0456634" lon="7.7528131"><ele>1528.0</ele><time>2026-04-26T10:13:45.341Z</time></trkpt><trkpt lat="44.045686" lon="7.7526853"><ele>1527.0</ele><time>2026-04-26T10:13:47.34Z</time></trkpt><trkpt lat="44.0456998" lon="7.7525728"><ele>1526.0</ele><time>2026-04-26T10:13:49.339Z</time></trkpt><trkpt lat="44.0456646" lon="7.7524697"><ele>1525.0</ele><time>2026-04-26T10:13:51.34Z</time></trkpt><trkpt lat="44.045605" lon="7.7523752"><ele>1524.0</ele><time>2026-04-26T10:13:53.341Z</time></trkpt><trkpt lat="44.0455379" lon="7.7522816"><ele>1523.0</ele><time>2026-04-26T10:13:55.34Z</time></trkpt><trkpt lat="44.0454861" lon="7.7521739"><ele>1522.0</ele><time>2026-04-26T10:13:57.34Z</time></trkpt><trkpt lat="44.0454551" lon="7.7520673"><ele>1522.0</ele><time>2026-04-26T10:13:59.339Z</time></trkpt><trkpt lat="44.0454302" lon="7.7519643"><ele>1522.0</ele><time>2026-04-26T10:14:01.341Z</time></trkpt><trkpt lat="44.0453873" lon="7.7518803"><ele>1522.0</ele><time>2026-04-26T10:14:03.34Z</time></trkpt><trkpt lat="44.0453325" lon="7.7517961"><ele>1522.0</ele><time>2026-04-26T10:14:05.339Z</time></trkpt><trkpt lat="44.0452906" lon="7.7516736"><ele>1522.0</ele><time>2026-04-26T10:14:07.341Z</time></trkpt><trkpt lat="44.0452521" lon="7.7515367"><ele>1522.0</ele><time>2026-04-26T10:14:09.342Z</time></trkpt><trkpt lat="44.0452275" lon="7.7513863"><ele>1525.0</ele><time>2026-04-26T10:14:11.342Z</time></trkpt><trkpt lat="44.0452327" lon="7.7512187"><ele>1528.0</ele><time>2026-04-26T10:14:13.341Z</time></trkpt><trkpt lat="44.0452525" lon="7.7510607"><ele>1531.0</ele><time>2026-04-26T10:14:15.34Z</time></trkpt><trkpt lat="44.0452582" lon="7.7509269"><ele>1534.0</ele><time>2026-04-26T10:14:17.34Z</time></trkpt><trkpt lat="44.0452683" lon="7.750819"><ele>1537.0</ele><time>2026-04-26T10:14:19.34Z</time></trkpt><trkpt lat="44.0452902" lon="7.750712"><ele>1539.8333333333335</ele><time>2026-04-26T10:14:21.34Z</time></trkpt><trkpt lat="44.0453122" lon="7.7505951"><ele>1542.6666666666667</ele><time>2026-04-26T10:14:23.34Z</time></trkpt><trkpt lat="44.045343" lon="7.7504704"><ele>1545.5</ele><time>2026-04-26T10:14:26.341Z</time></trkpt><trkpt lat="44.0453584" lon="7.7503478"><ele>1548.3333333333335</ele><time>2026-04-26T10:14:28.34Z</time></trkpt><trkpt lat="44.0453447" lon="7.7502461"><ele>1551.1666666666667</ele><time>2026-04-26T10:14:30.339Z</time></trkpt><trkpt lat="44.0453151" lon="7.7501665"><ele>1554.0</ele><time>2026-04-26T10:14:32.339Z</time></trkpt><trkpt lat="44.0452619" lon="7.7501099"><ele>1556.0</ele><time>2026-04-26T10:14:34.34Z</time></trkpt><trkpt lat="44.0451993" lon="7.7500703"><ele>1558.0</ele><time>2026-04-26T10:14:36.34Z</time></trkpt><trkpt lat="44.0451342" lon="7.7500424"><ele>1560.0</ele><time>2026-04-26T10:14:38.341Z</time></trkpt><trkpt lat="44.0450384" lon="7.750036"><ele>1562.0</ele><time>2026-04-26T10:14:40.339Z</time></trkpt><trkpt lat="44.044932" lon="7.7500173"><ele>1564.0</ele><time>2026-04-26T10:14:42.34Z</time></trkpt><trkpt lat="44.0448295" lon="7.7499839"><ele>1566.0</ele><time>2026-04-26T10:14:44.341Z</time></trkpt><trkpt lat="44.0447363" lon="7.749928"><ele>1555.8</ele><time>2026-04-26T10:14:46.34Z</time></trkpt><trkpt lat="44.0446484" lon="7.7498148"><ele>1545.6</ele><time>2026-04-26T10:14:48.341Z</time></trkpt><trkpt lat="44.0445689" lon="7.7496657"><ele>1535.4</ele><time>2026-04-26T10:14:50.341Z</time></trkpt><trkpt lat="44.0445065" lon="7.7495677"><ele>1525.2</ele><time>2026-04-26T10:14:51.34Z</time></trkpt><trkpt lat="44.0444411" lon="7.7494721"><ele>1515.0</ele><time>2026-04-26T10:14:52.34Z</time></trkpt><trkpt lat="44.04438" lon="7.7493786"><ele>1514.5</ele><time>2026-04-26T10:14:53.34Z</time></trkpt><trkpt lat="44.0443192" lon="7.7493004"><ele>1514.0</ele><time>2026-04-26T10:14:54.34Z</time></trkpt><trkpt lat="44.0442609" lon="7.7492254"><ele>1513.5</ele><time>2026-04-26T10:14:55.341Z</time></trkpt><trkpt lat="44.0442062" lon="7.7491425"><ele>1513.0</ele><time>2026-04-26T10:14:56.34Z</time></trkpt><trkpt lat="44.0441494" lon="7.7490709"><ele>1512.5</ele><time>2026-04-26T10:14:57.341Z</time></trkpt><trkpt lat="44.0440963" lon="7.7490058"><ele>1512.0</ele><time>2026-04-26T10:14:58.34Z</time></trkpt><trkpt lat="44.0440432" lon="7.7489428"><ele>1512.0</ele><time>2026-04-26T10:14:59.341Z</time></trkpt><trkpt lat="44.0439853" lon="7.7488943"><ele>1512.0</ele><time>2026-04-26T10:15:00.34Z</time></trkpt><trkpt lat="44.043924" lon="7.7488547"><ele>1512.0</ele><time>2026-04-26T10:15:01.339Z</time></trkpt><trkpt lat="44.0438593" lon="7.7488279"><ele>1512.0</ele><time>2026-04-26T10:15:02.341Z</time></trkpt><trkpt lat="44.0437932" lon="7.7488074"><ele>1512.0</ele><time>2026-04-26T10:15:03.339Z</time></trkpt><trkpt lat="44.0436707" lon="7.748757"><ele>1512.0</ele><time>2026-04-26T10:15:05.34Z</time></trkpt><trkpt lat="44.0435967" lon="7.7487342"><ele>1512.0</ele><time>2026-04-26T10:15:06.34Z</time></trkpt><trkpt lat="44.0435265" lon="7.7487242"><ele>1512.0</ele><time>2026-04-26T10:15:07.34Z</time></trkpt><trkpt lat="44.0434609" lon="7.7487168"><ele>1512.0</ele><time>2026-04-26T10:15:08.339Z</time></trkpt><trkpt lat="44.0433976" lon="7.7487046"><ele>1512.0</ele><time>2026-04-26T10:15:09.341Z</time></trkpt><trkpt lat="44.0433101" lon="7.7486517"><ele>1512.0</ele><time>2026-04-26T10:15:11.341Z</time></trkpt><trkpt lat="44.0432511" lon="7.7485669"><ele>1512.0</ele><time>2026-04-26T10:15:13.341Z</time></trkpt><trkpt lat="44.0432133" lon="7.7484691"><ele>1505.0</ele><time>2026-04-26T10:15:15.339Z</time></trkpt><trkpt lat="44.0431866" lon="7.7483572"><ele>1498.0</ele><time>2026-04-26T10:15:17.339Z</time></trkpt><trkpt lat="44.0431687" lon="7.7482409"><ele>1491.0</ele><time>2026-04-26T10:15:19.341Z</time></trkpt><trkpt lat="44.0431511" lon="7.7481154"><ele>1484.0</ele><time>2026-04-26T10:15:21.338Z</time></trkpt><trkpt lat="44.0431323" lon="7.7480003"><ele>1477.0</ele><time>2026-04-26T10:15:23.34Z</time></trkpt><trkpt lat="44.0431083" lon="7.7478753"><ele>1470.0</ele><time>2026-04-26T10:15:25.34Z</time></trkpt><trkpt lat="44.0430979" lon="7.747744"><ele>1475.0</ele><time>2026-04-26T10:15:27.339Z</time></trkpt><trkpt lat="44.0430819" lon="7.7476255"><ele>1480.0</ele><time>2026-04-26T10:15:29.339Z</time></trkpt><trkpt lat="44.0430474" lon="7.7474966"><ele>1485.0</ele><time>2026-04-26T10:15:31.34Z</time></trkpt><trkpt lat="44.0429999" lon="7.7473701"><ele>1490.0</ele><time>2026-04-26T10:15:33.34Z</time></trkpt><trkpt lat="44.0429329" lon="7.7472671"><ele>1495.0</ele><time>2026-04-26T10:15:35.341Z</time></trkpt><trkpt lat="44.0428532" lon="7.7471635"><ele>1495.0</ele><time>2026-04-26T10:15:37.339Z</time></trkpt><trkpt lat="44.0427763" lon="7.7470587"><ele>1495.0</ele><time>2026-04-26T10:15:39.341Z</time></trkpt><trkpt lat="44.0426891" lon="7.7469752"><ele>1495.0</ele><time>2026-04-26T10:15:41.34Z</time></trkpt><trkpt lat="44.0425973" lon="7.7468927"><ele>1495.0</ele><time>2026-04-26T10:15:43.341Z</time></trkpt><trkpt lat="44.042532" lon="7.7467963"><ele>1495.0</ele><time>2026-04-26T10:15:45.34Z</time></trkpt><trkpt lat="44.0425101" lon="7.7466675"><ele>1496.6</ele><time>2026-04-26T10:15:47.34Z</time></trkpt><trkpt lat="44.0425295" lon="7.7465373"><ele>1498.2</ele><time>2026-04-26T10:15:49.34Z</time></trkpt><trkpt lat="44.0425434" lon="7.746397"><ele>1499.8000000000002</ele><time>2026-04-26T10:15:51.34Z</time></trkpt><trkpt lat="44.0425419" lon="7.7462536"><ele>1501.4</ele><time>2026-04-26T10:15:53.339Z</time></trkpt><trkpt lat="44.0425186" lon="7.7461085"><ele>1503.0</ele><time>2026-04-26T10:15:55.341Z</time></trkpt><trkpt lat="44.0424862" lon="7.7459819"><ele>1493.6000000000001</ele><time>2026-04-26T10:15:57.34Z</time></trkpt><trkpt lat="44.0424459" lon="7.7458362"><ele>1484.2</ele><time>2026-04-26T10:15:59.34Z</time></trkpt><trkpt lat="44.0424013" lon="7.7456931"><ele>1474.8</ele><time>2026-04-26T10:16:01.34Z</time></trkpt><trkpt lat="44.0423326" lon="7.7455742"><ele>1465.4</ele><time>2026-04-26T10:16:03.34Z</time></trkpt><trkpt lat="44.0422594" lon="7.7454503"><ele>1456.0</ele><time>2026-04-26T10:16:05.34Z</time></trkpt><trkpt lat="44.0421873" lon="7.7453251"><ele>1459.6</ele><time>2026-04-26T10:16:07.339Z</time></trkpt><trkpt lat="44.0421131" lon="7.7451973"><ele>1463.1999999999998</ele><time>2026-04-26T10:16:09.339Z</time></trkpt><trkpt lat="44.0420421" lon="7.7450772"><ele>1466.8000000000002</ele><time>2026-04-26T10:16:11.34Z</time></trkpt><trkpt lat="44.0419832" lon="7.7449528"><ele>1470.4</ele><time>2026-04-26T10:16:13.34Z</time></trkpt><trkpt lat="44.041977" lon="7.7448295"><ele>1474.0</ele><time>2026-04-26T10:16:15.34Z</time></trkpt><trkpt lat="44.0420355" lon="7.744746"><ele>1474.0</ele><time>2026-04-26T10:16:17.341Z</time></trkpt><trkpt lat="44.0421286" lon="7.7446959"><ele>1474.0</ele><time>2026-04-26T10:16:19.34Z</time></trkpt><trkpt lat="44.0422333" lon="7.7446685"><ele>1474.0</ele><time>2026-04-26T10:16:21.339Z</time></trkpt><trkpt lat="44.0423433" lon="7.7446441"><ele>1474.0</ele><time>2026-04-26T10:16:23.339Z</time></trkpt><trkpt lat="44.0424453" lon="7.7446136"><ele>1474.0</ele><time>2026-04-26T10:16:25.341Z</time></trkpt><trkpt lat="44.0425463" lon="7.7445986"><ele>1479.6</ele><time>2026-04-26T10:16:27.341Z</time></trkpt><trkpt lat="44.0426555" lon="7.7445768"><ele>1485.2</ele><time>2026-04-26T10:16:29.34Z</time></trkpt><trkpt lat="44.0427589" lon="7.7445581"><ele>1490.8</ele><time>2026-04-26T10:16:31.34Z</time></trkpt><trkpt lat="44.0428491" lon="7.7445464"><ele>1496.3999999999999</ele><time>2026-04-26T10:16:33.339Z</time></trkpt><trkpt lat="44.0429464" lon="7.7445263"><ele>1502.0</ele><time>2026-04-26T10:16:35.34Z</time></trkpt><trkpt lat="44.0430375" lon="7.7445232"><ele>1502.0</ele><time>2026-04-26T10:16:37.341Z</time></trkpt><trkpt lat="44.0431155" lon="7.7445163"><ele>1502.0</ele><time>2026-04-26T10:16:39.339Z</time></trkpt><trkpt lat="44.043139" lon="7.7444224"><ele>1502.0</ele><time>2026-04-26T10:18:04.339Z</time></trkpt><trkpt lat="44.0430609" lon="7.7444548"><ele>1502.0</ele><time>2026-04-26T10:18:08.34Z</time></trkpt><trkpt lat="44.0429914" lon="7.7444704"><ele>1502.0</ele><time>2026-04-26T10:18:10.339Z</time></trkpt><trkpt lat="44.0428862" lon="7.7444709"><ele>1502.0</ele><time>2026-04-26T10:18:12.339Z</time></trkpt><trkpt lat="44.0427573" lon="7.7444731"><ele>1502.0</ele><time>2026-04-26T10:18:14.34Z</time></trkpt><trkpt lat="44.0426861" lon="7.7444619"><ele>1502.0</ele><time>2026-04-26T10:18:15.34Z</time></trkpt><trkpt lat="44.0426216" lon="7.7444594"><ele>1502.0</ele><time>2026-04-26T10:18:16.34Z</time></trkpt><trkpt lat="44.042557" lon="7.7444583"><ele>1502.0</ele><time>2026-04-26T10:18:17.339Z</time></trkpt><trkpt lat="44.0424876" lon="7.7444455"><ele>1502.0</ele><time>2026-04-26T10:18:18.34Z</time></trkpt><trkpt lat="44.0423698" lon="7.7444218"><ele>1502.0</ele><time>2026-04-26T10:18:20.341Z</time></trkpt><trkpt lat="44.0422438" lon="7.7444001"><ele>1497.3333333333335</ele><time>2026-04-26T10:18:22.339Z</time></trkpt><trkpt lat="44.0421744" lon="7.7443824"><ele>1492.6666666666667</ele><time>2026-04-26T10:18:23.339Z</time></trkpt><trkpt lat="44.0421079" lon="7.7443628"><ele>1488.0</ele><time>2026-04-26T10:18:24.34Z</time></trkpt><trkpt lat="44.0419743" lon="7.7443356"><ele>1483.3333333333333</ele><time>2026-04-26T10:18:26.34Z</time></trkpt><trkpt lat="44.0419108" lon="7.744315"><ele>1478.6666666666665</ele><time>2026-04-26T10:18:27.341Z</time></trkpt><trkpt lat="44.0418457" lon="7.7443082"><ele>1474.0</ele><time>2026-04-26T10:18:28.34Z</time></trkpt><trkpt lat="44.0417734" lon="7.7442829"><ele>1472.6</ele><time>2026-04-26T10:18:29.34Z</time></trkpt><trkpt lat="44.0417082" lon="7.7442549"><ele>1471.2</ele><time>2026-04-26T10:18:30.34Z</time></trkpt><trkpt lat="44.0416429" lon="7.7442221"><ele>1469.8</ele><time>2026-04-26T10:18:31.339Z</time></trkpt><trkpt lat="44.0415379" lon="7.7441507"><ele>1468.3999999999999</ele><time>2026-04-26T10:18:33.34Z</time></trkpt><trkpt lat="44.0414429" lon="7.7440788"><ele>1467.0</ele><time>2026-04-26T10:18:35.341Z</time></trkpt><trkpt lat="44.0413455" lon="7.7440455"><ele>1462.3333333333333</ele><time>2026-04-26T10:18:37.34Z</time></trkpt><trkpt lat="44.0412508" lon="7.744024"><ele>1457.6666666666667</ele><time>2026-04-26T10:18:39.341Z</time></trkpt><trkpt lat="44.0411782" lon="7.7439867"><ele>1453.0</ele><time>2026-04-26T10:18:41.341Z</time></trkpt><trkpt lat="44.0411535" lon="7.7439028"><ele>1448.3333333333335</ele><time>2026-04-26T10:18:43.339Z</time></trkpt><trkpt lat="44.0411544" lon="7.7438137"><ele>1443.6666666666667</ele><time>2026-04-26T10:18:45.341Z</time></trkpt><trkpt lat="44.0411038" lon="7.7437061"><ele>1439.0</ele><time>2026-04-26T10:18:47.341Z</time></trkpt><trkpt lat="44.0410312" lon="7.743611"><ele>1437.4</ele><time>2026-04-26T10:18:49.339Z</time></trkpt><trkpt lat="44.0409574" lon="7.743503"><ele>1435.8000000000002</ele><time>2026-04-26T10:18:51.34Z</time></trkpt><trkpt lat="44.040887" lon="7.7433872"><ele>1434.1999999999998</ele><time>2026-04-26T10:18:53.34Z</time></trkpt><trkpt lat="44.040817" lon="7.7432747"><ele>1432.6</ele><time>2026-04-26T10:18:55.341Z</time></trkpt><trkpt lat="44.0407613" lon="7.7432141"><ele>1431.0</ele><time>2026-04-26T10:18:56.341Z</time></trkpt><trkpt lat="44.0407043" lon="7.7431359"><ele>1431.0</ele><time>2026-04-26T10:18:57.34Z</time></trkpt><trkpt lat="44.0406077" lon="7.743007"><ele>1431.0</ele><time>2026-04-26T10:18:59.341Z</time></trkpt><trkpt lat="44.0405611" lon="7.7429375"><ele>1431.0</ele><time>2026-04-26T10:19:00.341Z</time></trkpt><trkpt lat="44.0404668" lon="7.7428428"><ele>1431.0</ele><time>2026-04-26T10:19:02.34Z</time></trkpt><trkpt lat="44.040356" lon="7.7427762"><ele>1431.0</ele><time>2026-04-26T10:19:04.341Z</time></trkpt><trkpt lat="44.0402207" lon="7.7427624"><ele>1431.0</ele><time>2026-04-26T10:19:06.341Z</time></trkpt><trkpt lat="44.0401518" lon="7.7427526"><ele>1431.0</ele><time>2026-04-26T10:19:07.34Z</time></trkpt><trkpt lat="44.040086" lon="7.7427515"><ele>1431.0</ele><time>2026-04-26T10:19:08.34Z</time></trkpt><trkpt lat="44.0400062" lon="7.7427388"><ele>1431.0</ele><time>2026-04-26T10:19:09.34Z</time></trkpt><trkpt lat="44.0399264" lon="7.742736"><ele>1431.0</ele><time>2026-04-26T10:19:10.34Z</time></trkpt><trkpt lat="44.0398473" lon="7.7427357"><ele>1431.0</ele><time>2026-04-26T10:19:11.34Z</time></trkpt><trkpt lat="44.039766" lon="7.7427207"><ele>1429.8571428571427</ele><time>2026-04-26T10:19:12.339Z</time></trkpt><trkpt lat="44.0396939" lon="7.742701"><ele>1428.7142857142858</ele><time>2026-04-26T10:19:13.341Z</time></trkpt><trkpt lat="44.0396164" lon="7.7426817"><ele>1427.5714285714284</ele><time>2026-04-26T10:19:14.341Z</time></trkpt><trkpt lat="44.0395448" lon="7.7426797"><ele>1426.4285714285713</ele><time>2026-04-26T10:19:15.339Z</time></trkpt><trkpt lat="44.0394779" lon="7.7426707"><ele>1425.2857142857142</ele><time>2026-04-26T10:19:16.341Z</time></trkpt><trkpt lat="44.0394176" lon="7.7426256"><ele>1424.142857142857</ele><time>2026-04-26T10:19:17.34Z</time></trkpt><trkpt lat="44.0393641" lon="7.7425745"><ele>1423.0</ele><time>2026-04-26T10:19:18.34Z</time></trkpt><trkpt lat="44.0393064" lon="7.742528"><ele>1423.0</ele><time>2026-04-26T10:19:19.34Z</time></trkpt><trkpt lat="44.0391826" lon="7.7424642"><ele>1423.0</ele><time>2026-04-26T10:19:21.341Z</time></trkpt><trkpt lat="44.0390691" lon="7.7424301"><ele>1423.0</ele><time>2026-04-26T10:19:23.339Z</time></trkpt><trkpt lat="44.0389732" lon="7.7423721"><ele>1423.0</ele><time>2026-04-26T10:19:25.34Z</time></trkpt><trkpt lat="44.0388763" lon="7.7423027"><ele>1421.8000000000002</ele><time>2026-04-26T10:19:27.34Z</time></trkpt><trkpt lat="44.0387876" lon="7.7422528"><ele>1420.6</ele><time>2026-04-26T10:19:29.341Z</time></trkpt><trkpt lat="44.0386859" lon="7.7422174"><ele>1419.4</ele><time>2026-04-26T10:19:31.339Z</time></trkpt><trkpt lat="44.0385861" lon="7.7421746"><ele>1418.1999999999998</ele><time>2026-04-26T10:19:33.341Z</time></trkpt><trkpt lat="44.0384886" lon="7.7421326"><ele>1417.0</ele><time>2026-04-26T10:19:35.34Z</time></trkpt><trkpt lat="44.0383982" lon="7.7421121"><ele>1417.0</ele><time>2026-04-26T10:19:37.34Z</time></trkpt><trkpt lat="44.0383054" lon="7.7421259"><ele>1417.0</ele><time>2026-04-26T10:19:39.34Z</time></trkpt><trkpt lat="44.0381946" lon="7.742155"><ele>1417.0</ele><time>2026-04-26T10:19:41.34Z</time></trkpt><trkpt lat="44.038089" lon="7.7421971"><ele>1417.0</ele><time>2026-04-26T10:19:43.34Z</time></trkpt><trkpt lat="44.0379657" lon="7.742233"><ele>1417.0</ele><time>2026-04-26T10:19:45.341Z</time></trkpt><trkpt lat="44.0378335" lon="7.7422648"><ele>1414.1999999999998</ele><time>2026-04-26T10:19:47.34Z</time></trkpt><trkpt lat="44.0377142" lon="7.7423239"><ele>1411.4</ele><time>2026-04-26T10:19:49.34Z</time></trkpt><trkpt lat="44.0376479" lon="7.7423312"><ele>1408.6</ele><time>2026-04-26T10:19:50.34Z</time></trkpt><trkpt lat="44.0375284" lon="7.7423262"><ele>1405.8000000000002</ele><time>2026-04-26T10:19:52.34Z</time></trkpt><trkpt lat="44.0374271" lon="7.7423142"><ele>1403.0</ele><time>2026-04-26T10:19:54.341Z</time></trkpt><trkpt lat="44.0373199" lon="7.742261"><ele>1402.5</ele><time>2026-04-26T10:19:56.339Z</time></trkpt><trkpt lat="44.0372571" lon="7.7422335"><ele>1402.0</ele><time>2026-04-26T10:19:57.341Z</time></trkpt><trkpt lat="44.0371258" lon="7.7421957"><ele>1401.5</ele><time>2026-04-26T10:19:59.341Z</time></trkpt><trkpt lat="44.0370493" lon="7.7421769"><ele>1401.0</ele><time>2026-04-26T10:20:00.339Z</time></trkpt><trkpt lat="44.0369691" lon="7.7421562"><ele>1400.5</ele><time>2026-04-26T10:20:01.339Z</time></trkpt><trkpt lat="44.0368979" lon="7.7421183"><ele>1400.0</ele><time>2026-04-26T10:20:02.339Z</time></trkpt><trkpt lat="44.0368262" lon="7.7420927"><ele>1400.0</ele><time>2026-04-26T10:20:03.339Z</time></trkpt><trkpt lat="44.0366939" lon="7.7420094"><ele>1400.0</ele><time>2026-04-26T10:20:05.341Z</time></trkpt><trkpt lat="44.0366193" lon="7.7419595"><ele>1400.0</ele><time>2026-04-26T10:20:06.339Z</time></trkpt><trkpt lat="44.0365483" lon="7.7419089"><ele>1400.0</ele><time>2026-04-26T10:20:07.341Z</time></trkpt><trkpt lat="44.0364939" lon="7.741858"><ele>1400.0</ele><time>2026-04-26T10:20:08.339Z</time></trkpt><trkpt lat="44.0364439" lon="7.7417898"><ele>1400.0</ele><time>2026-04-26T10:20:09.341Z</time></trkpt><trkpt lat="44.0363458" lon="7.7416694"><ele>1402.5</ele><time>2026-04-26T10:20:11.34Z</time></trkpt><trkpt lat="44.0363096" lon="7.7415879"><ele>1405.0</ele><time>2026-04-26T10:20:12.341Z</time></trkpt><trkpt lat="44.036227" lon="7.7414289"><ele>1407.5</ele><time>2026-04-26T10:20:14.34Z</time></trkpt><trkpt lat="44.0361043" lon="7.7413229"><ele>1410.0</ele><time>2026-04-26T10:20:16.341Z</time></trkpt><trkpt lat="44.0359954" lon="7.7412424"><ele>1410.0</ele><time>2026-04-26T10:20:18.341Z</time></trkpt><trkpt lat="44.0358861" lon="7.7412055"><ele>1410.0</ele><time>2026-04-26T10:20:20.34Z</time></trkpt><trkpt lat="44.0358209" lon="7.7411814"><ele>1410.0</ele><time>2026-04-26T10:20:21.341Z</time></trkpt><trkpt lat="44.035748" lon="7.7411585"><ele>1410.0</ele><time>2026-04-26T10:20:22.34Z</time></trkpt><trkpt lat="44.0356699" lon="7.7410656"><ele>1410.0</ele><time>2026-04-26T10:20:24.341Z</time></trkpt><trkpt lat="44.035566" lon="7.7409473"><ele>1413.0</ele><time>2026-04-26T10:20:26.34Z</time></trkpt><trkpt lat="44.0355152" lon="7.7408922"><ele>1416.0</ele><time>2026-04-26T10:20:27.339Z</time></trkpt><trkpt lat="44.0354689" lon="7.7408253"><ele>1419.0</ele><time>2026-04-26T10:20:28.339Z</time></trkpt><trkpt lat="44.0354007" lon="7.7407078"><ele>1422.0</ele><time>2026-04-26T10:20:30.339Z</time></trkpt><trkpt lat="44.0353248" lon="7.740593"><ele>1425.0</ele><time>2026-04-26T10:20:32.341Z</time></trkpt><trkpt lat="44.0352894" lon="7.7405203"><ele>1428.0</ele><time>2026-04-26T10:20:33.341Z</time></trkpt><trkpt lat="44.0352231" lon="7.740441"><ele>1428.0</ele><time>2026-04-26T10:20:34.34Z</time></trkpt><trkpt lat="44.0351819" lon="7.7403513"><ele>1428.0</ele><time>2026-04-26T10:20:35.34Z</time></trkpt><trkpt lat="44.0351355" lon="7.7402582"><ele>1428.0</ele><time>2026-04-26T10:20:36.339Z</time></trkpt><trkpt lat="44.0351033" lon="7.7401637"><ele>1428.0</ele><time>2026-04-26T10:20:37.34Z</time></trkpt><trkpt lat="44.0350596" lon="7.7400665"><ele>1428.0</ele><time>2026-04-26T10:20:38.339Z</time></trkpt><trkpt lat="44.0350405" lon="7.7399524"><ele>1428.0</ele><time>2026-04-26T10:20:39.339Z</time></trkpt><trkpt lat="44.0349827" lon="7.7398545"><ele>1423.4</ele><time>2026-04-26T10:20:40.341Z</time></trkpt><trkpt lat="44.0349099" lon="7.7397591"><ele>1418.8000000000002</ele><time>2026-04-26T10:20:41.34Z</time></trkpt><trkpt lat="44.0348775" lon="7.7396509"><ele>1414.2</ele><time>2026-04-26T10:20:42.34Z</time></trkpt><trkpt lat="44.0348397" lon="7.7395643"><ele>1409.6</ele><time>2026-04-26T10:20:43.339Z</time></trkpt><trkpt lat="44.0347727" lon="7.7395286"><ele>1405.0</ele><time>2026-04-26T10:20:44.34Z</time></trkpt><trkpt lat="44.0346496" lon="7.7395894"><ele>1405.0</ele><time>2026-04-26T10:20:46.34Z</time></trkpt><trkpt lat="44.0345493" lon="7.7397096"><ele>1405.0</ele><time>2026-04-26T10:20:48.339Z</time></trkpt><trkpt lat="44.0344896" lon="7.7397694"><ele>1405.0</ele><time>2026-04-26T10:20:49.34Z</time></trkpt><trkpt lat="44.0344482" lon="7.7398403"><ele>1405.0</ele><time>2026-04-26T10:20:50.34Z</time></trkpt><trkpt lat="44.0343875" lon="7.7399083"><ele>1405.0</ele><time>2026-04-26T10:20:51.34Z</time></trkpt><trkpt lat="44.0343179" lon="7.7399667"><ele>1405.0</ele><time>2026-04-26T10:20:52.341Z</time></trkpt><trkpt lat="44.0342524" lon="7.7400127"><ele>1405.0</ele><time>2026-04-26T10:20:53.34Z</time></trkpt><trkpt lat="44.0341813" lon="7.7400634"><ele>1405.0</ele><time>2026-04-26T10:20:54.341Z</time></trkpt><trkpt lat="44.0341011" lon="7.740101"><ele>1405.0</ele><time>2026-04-26T10:20:55.34Z</time></trkpt><trkpt lat="44.0340089" lon="7.7401312"><ele>1405.0</ele><time>2026-04-26T10:20:56.34Z</time></trkpt><trkpt lat="44.033927" lon="7.7401443"><ele>1405.0</ele><time>2026-04-26T10:20:57.339Z</time></trkpt><trkpt lat="44.0338479" lon="7.7401461"><ele>1405.0</ele><time>2026-04-26T10:20:58.339Z</time></trkpt><trkpt lat="44.0337621" lon="7.7401547"><ele>1402.0</ele><time>2026-04-26T10:20:59.341Z</time></trkpt><trkpt lat="44.0336795" lon="7.7401608"><ele>1399.0</ele><time>2026-04-26T10:21:00.34Z</time></trkpt><trkpt lat="44.0335999" lon="7.7401691"><ele>1396.0</ele><time>2026-04-26T10:21:01.341Z</time></trkpt><trkpt lat="44.0335105" lon="7.7401764"><ele>1393.0</ele><time>2026-04-26T10:21:02.341Z</time></trkpt><trkpt lat="44.0334245" lon="7.7401802"><ele>1390.0</ele><time>2026-04-26T10:21:03.34Z</time></trkpt><trkpt lat="44.0333414" lon="7.7401771"><ele>1387.0</ele><time>2026-04-26T10:21:04.34Z</time></trkpt><trkpt lat="44.0332231" lon="7.7401897"><ele>1387.6666666666665</ele><time>2026-04-26T10:21:06.342Z</time></trkpt><trkpt lat="44.0331571" lon="7.7402478"><ele>1388.3333333333333</ele><time>2026-04-26T10:21:10.339Z</time></trkpt><trkpt lat="44.0330825" lon="7.7402987"><ele>1389.0</ele><time>2026-04-26T10:21:14.341Z</time></trkpt><trkpt lat="44.0330096" lon="7.7403559"><ele>1389.6666666666667</ele><time>2026-04-26T10:21:17.34Z</time></trkpt><trkpt lat="44.0329278" lon="7.7404127"><ele>1390.3333333333335</ele><time>2026-04-26T10:21:19.34Z</time></trkpt><trkpt lat="44.0328494" lon="7.7404762"><ele>1391.0</ele><time>2026-04-26T10:21:21.34Z</time></trkpt><trkpt lat="44.0327839" lon="7.7406252"><ele>1391.0</ele><time>2026-04-26T10:21:23.339Z</time></trkpt><trkpt lat="44.0326995" lon="7.7407166"><ele>1391.0</ele><time>2026-04-26T10:21:25.34Z</time></trkpt><trkpt lat="44.0326175" lon="7.7407639"><ele>1391.0</ele><time>2026-04-26T10:21:27.34Z</time></trkpt><trkpt lat="44.0325581" lon="7.7407944"><ele>1391.0</ele><time>2026-04-26T10:21:29.339Z</time></trkpt><trkpt lat="44.0324806" lon="7.7408685"><ele>1391.0</ele><time>2026-04-26T10:21:32.34Z</time></trkpt><trkpt lat="44.0323868" lon="7.740917"><ele>1390.8</ele><time>2026-04-26T10:21:34.341Z</time></trkpt><trkpt lat="44.0322549" lon="7.740956"><ele>1390.6</ele><time>2026-04-26T10:21:36.34Z</time></trkpt><trkpt lat="44.0321303" lon="7.7410026"><ele>1390.4</ele><time>2026-04-26T10:21:38.341Z</time></trkpt><trkpt lat="44.0320588" lon="7.741022"><ele>1390.2</ele><time>2026-04-26T10:21:39.34Z</time></trkpt><trkpt lat="44.0319862" lon="7.7410413"><ele>1390.0</ele><time>2026-04-26T10:21:40.339Z</time></trkpt><trkpt lat="44.0319183" lon="7.7410828"><ele>1390.0</ele><time>2026-04-26T10:21:41.339Z</time></trkpt><trkpt lat="44.0318486" lon="7.7411469"><ele>1390.0</ele><time>2026-04-26T10:21:42.34Z</time></trkpt><trkpt lat="44.0317822" lon="7.7412187"><ele>1390.0</ele><time>2026-04-26T10:21:43.34Z</time></trkpt><trkpt lat="44.0317314" lon="7.7412814"><ele>1390.0</ele><time>2026-04-26T10:21:44.34Z</time></trkpt><trkpt lat="44.0316812" lon="7.741372"><ele>1390.0</ele><time>2026-04-26T10:21:45.34Z</time></trkpt><trkpt lat="44.0316322" lon="7.7414432"><ele>1390.0</ele><time>2026-04-26T10:21:46.34Z</time></trkpt><trkpt lat="44.0315777" lon="7.7415134"><ele>1392.5714285714287</ele><time>2026-04-26T10:21:47.34Z</time></trkpt><trkpt lat="44.0315266" lon="7.7415704"><ele>1395.142857142857</ele><time>2026-04-26T10:21:48.339Z</time></trkpt><trkpt lat="44.0314654" lon="7.7416259"><ele>1397.7142857142858</ele><time>2026-04-26T10:21:49.34Z</time></trkpt><trkpt lat="44.0314071" lon="7.7416757"><ele>1400.2857142857142</ele><time>2026-04-26T10:21:50.341Z</time></trkpt><trkpt lat="44.0313459" lon="7.7417244"><ele>1402.857142857143</ele><time>2026-04-26T10:21:51.341Z</time></trkpt><trkpt lat="44.0312644" lon="7.7417821"><ele>1405.4285714285716</ele><time>2026-04-26T10:21:52.341Z</time></trkpt><trkpt lat="44.0312012" lon="7.7418366"><ele>1408.0</ele><time>2026-04-26T10:21:53.341Z</time></trkpt><trkpt lat="44.0311358" lon="7.7418789"><ele>1409.8333333333333</ele><time>2026-04-26T10:21:54.339Z</time></trkpt><trkpt lat="44.0310802" lon="7.7419255"><ele>1411.6666666666665</ele><time>2026-04-26T10:21:55.341Z</time></trkpt><trkpt lat="44.0309806" lon="7.7419629"><ele>1413.5</ele><time>2026-04-26T10:21:57.34Z</time></trkpt><trkpt lat="44.0308863" lon="7.7419386"><ele>1415.3333333333333</ele><time>2026-04-26T10:21:59.341Z</time></trkpt><trkpt lat="44.0308218" lon="7.7418994"><ele>1417.1666666666667</ele><time>2026-04-26T10:22:00.34Z</time></trkpt><trkpt lat="44.0307603" lon="7.7418541"><ele>1419.0</ele><time>2026-04-26T10:22:01.34Z</time></trkpt><trkpt lat="44.0306909" lon="7.7418067"><ele>1419.0</ele><time>2026-04-26T10:22:02.34Z</time></trkpt><trkpt lat="44.0306172" lon="7.7417776"><ele>1419.0</ele><time>2026-04-26T10:22:03.339Z</time></trkpt><trkpt lat="44.0305315" lon="7.7417375"><ele>1419.0</ele><time>2026-04-26T10:22:04.34Z</time></trkpt><trkpt lat="44.0304605" lon="7.7417272"><ele>1419.0</ele><time>2026-04-26T10:22:05.34Z</time></trkpt><trkpt lat="44.0303883" lon="7.7417274"><ele>1419.0</ele><time>2026-04-26T10:22:06.339Z</time></trkpt><trkpt lat="44.0303067" lon="7.7417491"><ele>1419.0</ele><time>2026-04-26T10:22:07.341Z</time></trkpt><trkpt lat="44.0302407" lon="7.7417963"><ele>1419.0</ele><time>2026-04-26T10:22:08.34Z</time></trkpt><trkpt lat="44.0301712" lon="7.7418438"><ele>1419.0</ele><time>2026-04-26T10:22:09.341Z</time></trkpt><trkpt lat="44.0301095" lon="7.7419024"><ele>1419.0</ele><time>2026-04-26T10:22:10.34Z</time></trkpt><trkpt lat="44.0300482" lon="7.7419806"><ele>1419.0</ele><time>2026-04-26T10:22:11.34Z</time></trkpt><trkpt lat="44.0299827" lon="7.7420461"><ele>1419.0</ele><time>2026-04-26T10:22:12.34Z</time></trkpt><trkpt lat="44.0299247" lon="7.7421183"><ele>1419.0</ele><time>2026-04-26T10:22:13.34Z</time></trkpt><trkpt lat="44.0298712" lon="7.7421898"><ele>1415.857142857143</ele><time>2026-04-26T10:22:14.341Z</time></trkpt><trkpt lat="44.0298199" lon="7.7422684"><ele>1412.7142857142858</ele><time>2026-04-26T10:22:15.34Z</time></trkpt><trkpt lat="44.0297577" lon="7.7423307"><ele>1409.5714285714287</ele><time>2026-04-26T10:22:16.341Z</time></trkpt><trkpt lat="44.0297004" lon="7.7423891"><ele>1406.4285714285716</ele><time>2026-04-26T10:22:17.34Z</time></trkpt><trkpt lat="44.0296438" lon="7.7424522"><ele>1403.2857142857142</ele><time>2026-04-26T10:22:18.34Z</time></trkpt><trkpt lat="44.0295855" lon="7.7425092"><ele>1400.1428571428573</ele><time>2026-04-26T10:22:19.341Z</time></trkpt><trkpt lat="44.0295398" lon="7.7425765"><ele>1397.0</ele><time>2026-04-26T10:22:20.34Z</time></trkpt><trkpt lat="44.029498" lon="7.742659"><ele>1392.1999999999998</ele><time>2026-04-26T10:22:21.34Z</time></trkpt><trkpt lat="44.0294534" lon="7.7427327"><ele>1387.4</ele><time>2026-04-26T10:22:22.34Z</time></trkpt><trkpt lat="44.0294203" lon="7.7428159"><ele>1382.6</ele><time>2026-04-26T10:22:23.339Z</time></trkpt><trkpt lat="44.0293806" lon="7.7429305"><ele>1377.8000000000002</ele><time>2026-04-26T10:22:24.339Z</time></trkpt><trkpt lat="44.0293151" lon="7.7430634"><ele>1373.0</ele><time>2026-04-26T10:22:26.34Z</time></trkpt><trkpt lat="44.0292182" lon="7.7431246"><ele>1373.0</ele><time>2026-04-26T10:22:28.34Z</time></trkpt><trkpt lat="44.0291498" lon="7.7431098"><ele>1373.0</ele><time>2026-04-26T10:22:29.34Z</time></trkpt><trkpt lat="44.0290334" lon="7.7430503"><ele>1373.0</ele><time>2026-04-26T10:22:31.339Z</time></trkpt><trkpt lat="44.0289739" lon="7.7429981"><ele>1373.0</ele><time>2026-04-26T10:22:32.34Z</time></trkpt><trkpt lat="44.0289145" lon="7.7429385"><ele>1373.0</ele><time>2026-04-26T10:22:33.34Z</time></trkpt><trkpt lat="44.0288589" lon="7.7428769"><ele>1373.0</ele><time>2026-04-26T10:22:34.341Z</time></trkpt><trkpt lat="44.0288084" lon="7.7428047"><ele>1373.7142857142858</ele><time>2026-04-26T10:22:35.341Z</time></trkpt><trkpt lat="44.0287527" lon="7.742747"><ele>1374.4285714285713</ele><time>2026-04-26T10:22:36.341Z</time></trkpt><trkpt lat="44.028693" lon="7.7426896"><ele>1375.142857142857</ele><time>2026-04-26T10:22:37.341Z</time></trkpt><trkpt lat="44.0286422" lon="7.7426289"><ele>1375.857142857143</ele><time>2026-04-26T10:22:38.339Z</time></trkpt><trkpt lat="44.0285913" lon="7.7425735"><ele>1376.5714285714287</ele><time>2026-04-26T10:22:39.34Z</time></trkpt><trkpt lat="44.0285389" lon="7.7425134"><ele>1377.2857142857142</ele><time>2026-04-26T10:22:40.34Z</time></trkpt><trkpt lat="44.0284812" lon="7.7424632"><ele>1378.0</ele><time>2026-04-26T10:22:41.339Z</time></trkpt><trkpt lat="44.0284286" lon="7.742408"><ele>1378.0</ele><time>2026-04-26T10:22:42.34Z</time></trkpt><trkpt lat="44.0283167" lon="7.7423217"><ele>1378.0</ele><time>2026-04-26T10:22:44.339Z</time></trkpt><trkpt lat="44.0282077" lon="7.7423055"><ele>1378.0</ele><time>2026-04-26T10:22:46.341Z</time></trkpt><trkpt lat="44.0281101" lon="7.7423278"><ele>1378.0</ele><time>2026-04-26T10:22:48.34Z</time></trkpt><trkpt lat="44.0280436" lon="7.7423372"><ele>1378.0</ele><time>2026-04-26T10:22:50.34Z</time></trkpt><trkpt lat="44.0279789" lon="7.7423358"><ele>1377.7142857142858</ele><time>2026-04-26T10:22:52.34Z</time></trkpt><trkpt lat="44.0279121" lon="7.7423325"><ele>1377.4285714285716</ele><time>2026-04-26T10:22:54.34Z</time></trkpt><trkpt lat="44.0278349" lon="7.7423557"><ele>1377.1428571428573</ele><time>2026-04-26T10:22:57.34Z</time></trkpt><trkpt lat="44.0277674" lon="7.7424095"><ele>1376.857142857143</ele><time>2026-04-26T10:22:59.34Z</time></trkpt><trkpt lat="44.0276968" lon="7.7424533"><ele>1376.5714285714287</ele><time>2026-04-26T10:23:00.339Z</time></trkpt><trkpt lat="44.0276361" lon="7.7424862"><ele>1376.2857142857144</ele><time>2026-04-26T10:23:01.338Z</time></trkpt><trkpt lat="44.0275629" lon="7.7425276"><ele>1376.0</ele><time>2026-04-26T10:23:02.339Z</time></trkpt><trkpt lat="44.0274904" lon="7.7425665"><ele>1376.5714285714287</ele><time>2026-04-26T10:23:03.339Z</time></trkpt><trkpt lat="44.027417" lon="7.7425885"><ele>1377.142857142857</ele><time>2026-04-26T10:23:04.34Z</time></trkpt><trkpt lat="44.0273497" lon="7.7426082"><ele>1377.7142857142858</ele><time>2026-04-26T10:23:05.339Z</time></trkpt><trkpt lat="44.0272773" lon="7.742607"><ele>1378.2857142857142</ele><time>2026-04-26T10:23:06.339Z</time></trkpt><trkpt lat="44.0272097" lon="7.7426102"><ele>1378.857142857143</ele><time>2026-04-26T10:23:07.34Z</time></trkpt><trkpt lat="44.0271398" lon="7.7426262"><ele>1379.4285714285716</ele><time>2026-04-26T10:23:08.34Z</time></trkpt><trkpt lat="44.0270697" lon="7.7426333"><ele>1380.0</ele><time>2026-04-26T10:23:09.34Z</time></trkpt><trkpt lat="44.0269961" lon="7.74264"><ele>1380.0</ele><time>2026-04-26T10:23:10.341Z</time></trkpt><trkpt lat="44.0269024" lon="7.7426665"><ele>1380.0</ele><time>2026-04-26T10:23:11.34Z</time></trkpt><trkpt lat="44.0268124" lon="7.7426923"><ele>1380.0</ele><time>2026-04-26T10:23:12.34Z</time></trkpt><trkpt lat="44.0267202" lon="7.7427136"><ele>1380.0</ele><time>2026-04-26T10:23:13.339Z</time></trkpt><trkpt lat="44.0266095" lon="7.7427223"><ele>1380.0</ele><time>2026-04-26T10:23:14.34Z</time></trkpt><trkpt lat="44.0265187" lon="7.7427207"><ele>1377.0</ele><time>2026-04-26T10:23:15.341Z</time></trkpt><trkpt lat="44.0264272" lon="7.742724"><ele>1374.0</ele><time>2026-04-26T10:23:16.341Z</time></trkpt><trkpt lat="44.0263515" lon="7.7427327"><ele>1371.0</ele><time>2026-04-26T10:23:17.34Z</time></trkpt><trkpt lat="44.0262803" lon="7.7427476"><ele>1368.0</ele><time>2026-04-26T10:23:18.339Z</time></trkpt><trkpt lat="44.0262157" lon="7.7427712"><ele>1365.0</ele><time>2026-04-26T10:23:19.34Z</time></trkpt><trkpt lat="44.0261471" lon="7.7428046"><ele>1362.0</ele><time>2026-04-26T10:23:20.341Z</time></trkpt><trkpt lat="44.0260843" lon="7.7428363"><ele>1359.0</ele><time>2026-04-26T10:23:21.34Z</time></trkpt><trkpt lat="44.0260223" lon="7.7428708"><ele>1359.0</ele><time>2026-04-26T10:23:22.34Z</time></trkpt><trkpt lat="44.0259659" lon="7.7429155"><ele>1359.0</ele><time>2026-04-26T10:23:23.34Z</time></trkpt><trkpt lat="44.0259061" lon="7.7429588"><ele>1359.0</ele><time>2026-04-26T10:23:24.34Z</time></trkpt><trkpt lat="44.0258464" lon="7.7429991"><ele>1359.0</ele><time>2026-04-26T10:23:25.341Z</time></trkpt><trkpt lat="44.0257786" lon="7.7430451"><ele>1359.0</ele><time>2026-04-26T10:23:26.341Z</time></trkpt><trkpt lat="44.0257121" lon="7.7430967"><ele>1359.0</ele><time>2026-04-26T10:23:27.341Z</time></trkpt><trkpt lat="44.0256355" lon="7.7431337"><ele>1359.0</ele><time>2026-04-26T10:23:28.34Z</time></trkpt><trkpt lat="44.0255538" lon="7.7431666"><ele>1358.8333333333333</ele><time>2026-04-26T10:23:29.339Z</time></trkpt><trkpt lat="44.025467" lon="7.7432134"><ele>1358.6666666666667</ele><time>2026-04-26T10:23:30.339Z</time></trkpt><trkpt lat="44.0253709" lon="7.7432504"><ele>1358.5</ele><time>2026-04-26T10:23:31.34Z</time></trkpt><trkpt lat="44.0252853" lon="7.7432795"><ele>1358.3333333333335</ele><time>2026-04-26T10:23:32.34Z</time></trkpt><trkpt lat="44.0252039" lon="7.7432969"><ele>1358.1666666666667</ele><time>2026-04-26T10:23:33.34Z</time></trkpt><trkpt lat="44.0251265" lon="7.7433294"><ele>1358.0</ele><time>2026-04-26T10:23:34.34Z</time></trkpt><trkpt lat="44.0250354" lon="7.7433616"><ele>1358.8333333333335</ele><time>2026-04-26T10:23:35.34Z</time></trkpt><trkpt lat="44.0249438" lon="7.743407"><ele>1359.6666666666667</ele><time>2026-04-26T10:23:36.339Z</time></trkpt><trkpt lat="44.0248625" lon="7.7434517"><ele>1360.5</ele><time>2026-04-26T10:23:37.34Z</time></trkpt><trkpt lat="44.0247804" lon="7.7434779"><ele>1361.3333333333333</ele><time>2026-04-26T10:23:38.339Z</time></trkpt><trkpt lat="44.0247015" lon="7.7435179"><ele>1362.1666666666665</ele><time>2026-04-26T10:23:39.34Z</time></trkpt><trkpt lat="44.0246148" lon="7.7435477"><ele>1363.0</ele><time>2026-04-26T10:23:40.34Z</time></trkpt><trkpt lat="44.0245418" lon="7.7435754"><ele>1362.0</ele><time>2026-04-26T10:23:41.341Z</time></trkpt><trkpt lat="44.0244625" lon="7.7435674"><ele>1361.0</ele><time>2026-04-26T10:23:42.34Z</time></trkpt><trkpt lat="44.0243927" lon="7.7435815"><ele>1360.0</ele><time>2026-04-26T10:23:43.339Z</time></trkpt><trkpt lat="44.0243229" lon="7.7435995"><ele>1359.0</ele><time>2026-04-26T10:23:44.341Z</time></trkpt><trkpt lat="44.0242151" lon="7.7436963"><ele>1358.0</ele><time>2026-04-26T10:23:46.34Z</time></trkpt><trkpt lat="44.0241741" lon="7.7437654"><ele>1357.0</ele><time>2026-04-26T10:23:47.34Z</time></trkpt><trkpt lat="44.0241081" lon="7.7438879"><ele>1357.0</ele><time>2026-04-26T10:23:49.34Z</time></trkpt><trkpt lat="44.0240518" lon="7.7439361"><ele>1357.0</ele><time>2026-04-26T10:23:50.34Z</time></trkpt><trkpt lat="44.0239916" lon="7.7439794"><ele>1357.0</ele><time>2026-04-26T10:23:51.34Z</time></trkpt><trkpt lat="44.0239401" lon="7.7440644"><ele>1357.0</ele><time>2026-04-26T10:23:52.34Z</time></trkpt><trkpt lat="44.0239092" lon="7.7441678"><ele>1357.0</ele><time>2026-04-26T10:23:53.34Z</time></trkpt><trkpt lat="44.023881" lon="7.7442507"><ele>1357.0</ele><time>2026-04-26T10:23:54.341Z</time></trkpt><trkpt lat="44.0238437" lon="7.7443372"><ele>1357.0</ele><time>2026-04-26T10:23:55.339Z</time></trkpt><trkpt lat="44.0237729" lon="7.7444117"><ele>1352.4285714285713</ele><time>2026-04-26T10:23:56.34Z</time></trkpt><trkpt lat="44.0237162" lon="7.7444917"><ele>1347.857142857143</ele><time>2026-04-26T10:23:57.341Z</time></trkpt><trkpt lat="44.0236533" lon="7.7445701"><ele>1343.2857142857142</ele><time>2026-04-26T10:23:58.34Z</time></trkpt><trkpt lat="44.023591" lon="7.7446334"><ele>1338.7142857142858</ele><time>2026-04-26T10:23:59.34Z</time></trkpt><trkpt lat="44.0235299" lon="7.744694"><ele>1334.142857142857</ele><time>2026-04-26T10:24:00.341Z</time></trkpt><trkpt lat="44.0234728" lon="7.7447434"><ele>1329.5714285714287</ele><time>2026-04-26T10:24:01.339Z</time></trkpt><trkpt lat="44.023419" lon="7.7447912"><ele>1325.0</ele><time>2026-04-26T10:24:02.34Z</time></trkpt><trkpt lat="44.0233298" lon="7.744865"><ele>1326.6</ele><time>2026-04-26T10:24:04.339Z</time></trkpt><trkpt lat="44.0232492" lon="7.7449225"><ele>1328.2</ele><time>2026-04-26T10:24:06.34Z</time></trkpt><trkpt lat="44.0231545" lon="7.7449685"><ele>1329.8000000000002</ele><time>2026-04-26T10:24:08.34Z</time></trkpt><trkpt lat="44.0230595" lon="7.7449575"><ele>1331.4</ele><time>2026-04-26T10:24:10.339Z</time></trkpt><trkpt lat="44.0229669" lon="7.7449739"><ele>1333.0</ele><time>2026-04-26T10:24:12.341Z</time></trkpt><trkpt lat="44.0228889" lon="7.7449686"><ele>1333.0</ele><time>2026-04-26T10:24:14.34Z</time></trkpt><trkpt lat="44.0228042" lon="7.744957"><ele>1333.0</ele><time>2026-04-26T10:24:16.34Z</time></trkpt><trkpt lat="44.022705" lon="7.7450296"><ele>1333.0</ele><time>2026-04-26T10:24:18.339Z</time></trkpt><trkpt lat="44.0226308" lon="7.7451039"><ele>1333.0</ele><time>2026-04-26T10:24:19.339Z</time></trkpt><trkpt lat="44.0225653" lon="7.7451622"><ele>1333.0</ele><time>2026-04-26T10:24:20.34Z</time></trkpt><trkpt lat="44.0225068" lon="7.7451957"><ele>1333.0</ele><time>2026-04-26T10:24:21.34Z</time></trkpt><trkpt lat="44.0224422" lon="7.745238"><ele>1326.1666666666665</ele><time>2026-04-26T10:24:22.34Z</time></trkpt><trkpt lat="44.0223788" lon="7.7452767"><ele>1319.3333333333333</ele><time>2026-04-26T10:24:23.341Z</time></trkpt><trkpt lat="44.0222633" lon="7.74529"><ele>1312.5</ele><time>2026-04-26T10:24:25.341Z</time></trkpt><trkpt lat="44.0221986" lon="7.7452807"><ele>1305.6666666666667</ele><time>2026-04-26T10:24:26.341Z</time></trkpt><trkpt lat="44.0221319" lon="7.7452861"><ele>1298.8333333333335</ele><time>2026-04-26T10:24:27.342Z</time></trkpt><trkpt lat="44.0220559" lon="7.7452869"><ele>1292.0</ele><time>2026-04-26T10:24:28.341Z</time></trkpt><trkpt lat="44.0219847" lon="7.7452707"><ele>1292.0000000000002</ele><time>2026-04-26T10:24:29.34Z</time></trkpt><trkpt lat="44.0219206" lon="7.7452774"><ele>1292.0</ele><time>2026-04-26T10:24:30.341Z</time></trkpt><trkpt lat="44.0218524" lon="7.745287"><ele>1292.0</ele><time>2026-04-26T10:24:31.341Z</time></trkpt><trkpt lat="44.0217848" lon="7.7453076"><ele>1292.0</ele><time>2026-04-26T10:24:32.34Z</time></trkpt><trkpt lat="44.0217214" lon="7.7453252"><ele>1292.0</ele><time>2026-04-26T10:24:33.341Z</time></trkpt><trkpt lat="44.0216572" lon="7.7453477"><ele>1292.0000000000002</ele><time>2026-04-26T10:24:34.34Z</time></trkpt><trkpt lat="44.0215949" lon="7.745376"><ele>1292.0</ele><time>2026-04-26T10:24:35.34Z</time></trkpt><trkpt lat="44.0214657" lon="7.7454018"><ele>1294.3333333333335</ele><time>2026-04-26T10:24:37.34Z</time></trkpt><trkpt lat="44.0214057" lon="7.7454305"><ele>1296.6666666666667</ele><time>2026-04-26T10:24:38.341Z</time></trkpt><trkpt lat="44.0213478" lon="7.7454865"><ele>1299.0</ele><time>2026-04-26T10:24:39.34Z</time></trkpt><trkpt lat="44.0212307" lon="7.7455826"><ele>1301.3333333333333</ele><time>2026-04-26T10:24:41.339Z</time></trkpt><trkpt lat="44.02117" lon="7.7456373"><ele>1303.6666666666665</ele><time>2026-04-26T10:24:42.341Z</time></trkpt><trkpt lat="44.0211019" lon="7.745699"><ele>1306.0</ele><time>2026-04-26T10:24:43.34Z</time></trkpt><trkpt lat="44.0210287" lon="7.7457521"><ele>1306.0</ele><time>2026-04-26T10:24:44.339Z</time></trkpt><trkpt lat="44.0209492" lon="7.74583"><ele>1306.0</ele><time>2026-04-26T10:24:45.339Z</time></trkpt><trkpt lat="44.0208739" lon="7.7458938"><ele>1306.0</ele><time>2026-04-26T10:24:46.339Z</time></trkpt><trkpt lat="44.0208013" lon="7.745952"><ele>1306.0</ele><time>2026-04-26T10:24:47.34Z</time></trkpt><trkpt lat="44.0207274" lon="7.746013"><ele>1306.0</ele><time>2026-04-26T10:24:48.341Z</time></trkpt><trkpt lat="44.0206568" lon="7.7460798"><ele>1306.0</ele><time>2026-04-26T10:24:49.341Z</time></trkpt><trkpt lat="44.020586" lon="7.7461394"><ele>1302.0</ele><time>2026-04-26T10:24:50.339Z</time></trkpt><trkpt lat="44.0205133" lon="7.7461804"><ele>1298.0</ele><time>2026-04-26T10:24:51.34Z</time></trkpt><trkpt lat="44.020446" lon="7.7462307"><ele>1294.0</ele><time>2026-04-26T10:24:52.34Z</time></trkpt><trkpt lat="44.0203748" lon="7.7462716"><ele>1290.0</ele><time>2026-04-26T10:24:53.34Z</time></trkpt><trkpt lat="44.020284" lon="7.7463173"><ele>1286.0</ele><time>2026-04-26T10:24:54.341Z</time></trkpt><trkpt lat="44.0201954" lon="7.7463551"><ele>1282.0</ele><time>2026-04-26T10:24:55.339Z</time></trkpt><trkpt lat="44.0200963" lon="7.7463855"><ele>1282.0</ele><time>2026-04-26T10:24:56.341Z</time></trkpt><trkpt lat="44.0200176" lon="7.7464355"><ele>1282.0</ele><time>2026-04-26T10:24:57.341Z</time></trkpt><trkpt lat="44.0199358" lon="7.7464807"><ele>1282.0</ele><time>2026-04-26T10:24:58.34Z</time></trkpt><trkpt lat="44.0198444" lon="7.7464931"><ele>1282.0</ele><time>2026-04-26T10:24:59.34Z</time></trkpt><trkpt lat="44.0197631" lon="7.7465069"><ele>1282.0</ele><time>2026-04-26T10:25:00.34Z</time></trkpt><trkpt lat="44.0196803" lon="7.7465449"><ele>1282.0</ele><time>2026-04-26T10:25:01.341Z</time></trkpt><trkpt lat="44.0195977" lon="7.7465771"><ele>1282.0</ele><time>2026-04-26T10:25:02.341Z</time></trkpt><trkpt lat="44.0195179" lon="7.746596"><ele>1282.0</ele><time>2026-04-26T10:25:03.34Z</time></trkpt><trkpt lat="44.0194341" lon="7.7466055"><ele>1282.0</ele><time>2026-04-26T10:25:04.34Z</time></trkpt><trkpt lat="44.0193567" lon="7.7466205"><ele>1282.0</ele><time>2026-04-26T10:25:05.34Z</time></trkpt><trkpt lat="44.0192728" lon="7.7466372"><ele>1282.0</ele><time>2026-04-26T10:25:06.341Z</time></trkpt><trkpt lat="44.0191994" lon="7.7466416"><ele>1282.0</ele><time>2026-04-26T10:25:07.339Z</time></trkpt><trkpt lat="44.0191099" lon="7.7466541"><ele>1280.1666666666665</ele><time>2026-04-26T10:25:08.34Z</time></trkpt><trkpt lat="44.0190184" lon="7.746672"><ele>1278.3333333333333</ele><time>2026-04-26T10:25:09.339Z</time></trkpt><trkpt lat="44.0189424" lon="7.7466668"><ele>1276.5</ele><time>2026-04-26T10:25:10.341Z</time></trkpt><trkpt lat="44.0188678" lon="7.7466637"><ele>1274.6666666666667</ele><time>2026-04-26T10:25:11.341Z</time></trkpt><trkpt lat="44.0187866" lon="7.7466749"><ele>1272.8333333333335</ele><time>2026-04-26T10:25:12.339Z</time></trkpt><trkpt lat="44.018708" lon="7.7466744"><ele>1271.0</ele><time>2026-04-26T10:25:13.34Z</time></trkpt><trkpt lat="44.0186324" lon="7.7466611"><ele>1271.0</ele><time>2026-04-26T10:25:14.339Z</time></trkpt><trkpt lat="44.0185586" lon="7.7466536"><ele>1271.0</ele><time>2026-04-26T10:25:15.34Z</time></trkpt><trkpt lat="44.0184805" lon="7.7466288"><ele>1271.0</ele><time>2026-04-26T10:25:16.341Z</time></trkpt><trkpt lat="44.0184045" lon="7.7466178"><ele>1271.0</ele><time>2026-04-26T10:25:17.342Z</time></trkpt><trkpt lat="44.0183372" lon="7.7466149"><ele>1271.0</ele><time>2026-04-26T10:25:18.341Z</time></trkpt><trkpt lat="44.0182725" lon="7.7466192"><ele>1271.0</ele><time>2026-04-26T10:25:19.341Z</time></trkpt><trkpt lat="44.0181606" lon="7.7466018"><ele>1266.6666666666667</ele><time>2026-04-26T10:25:21.339Z</time></trkpt><trkpt lat="44.0180956" lon="7.7465834"><ele>1262.3333333333335</ele><time>2026-04-26T10:25:22.339Z</time></trkpt><trkpt lat="44.0180371" lon="7.7465414"><ele>1258.0</ele><time>2026-04-26T10:25:23.341Z</time></trkpt><trkpt lat="44.0179603" lon="7.7465061"><ele>1253.6666666666667</ele><time>2026-04-26T10:25:24.341Z</time></trkpt><trkpt lat="44.0178861" lon="7.7464922"><ele>1249.3333333333333</ele><time>2026-04-26T10:25:25.34Z</time></trkpt><trkpt lat="44.0178038" lon="7.7464785"><ele>1245.0</ele><time>2026-04-26T10:25:26.339Z</time></trkpt><trkpt lat="44.017705" lon="7.74647"><ele>1245.0</ele><time>2026-04-26T10:25:27.341Z</time></trkpt><trkpt lat="44.0175625" lon="7.7464697"><ele>1245.0</ele><time>2026-04-26T10:25:28.341Z</time></trkpt><trkpt lat="44.0174488" lon="7.7464855"><ele>1245.0</ele><time>2026-04-26T10:25:29.34Z</time></trkpt><trkpt lat="44.017341" lon="7.7464904"><ele>1245.0</ele><time>2026-04-26T10:25:30.341Z</time></trkpt><trkpt lat="44.017221" lon="7.7464909"><ele>1245.0</ele><time>2026-04-26T10:25:31.341Z</time></trkpt><trkpt lat="44.0170869" lon="7.7464934"><ele>1245.0</ele><time>2026-04-26T10:25:32.34Z</time></trkpt><trkpt lat="44.0169614" lon="7.7465017"><ele>1245.0</ele><time>2026-04-26T10:25:33.34Z</time></trkpt><trkpt lat="44.0168412" lon="7.7465028"><ele>1245.0</ele><time>2026-04-26T10:25:34.34Z</time></trkpt><trkpt lat="44.0167362" lon="7.7465147"><ele>1246.0</ele><time>2026-04-26T10:25:35.34Z</time></trkpt><trkpt lat="44.0166205" lon="7.746519"><ele>1247.0</ele><time>2026-04-26T10:25:36.34Z</time></trkpt><trkpt lat="44.0164827" lon="7.7465097"><ele>1248.0</ele><time>2026-04-26T10:25:37.339Z</time></trkpt><trkpt lat="44.0163577" lon="7.7464978"><ele>1249.0</ele><time>2026-04-26T10:25:38.34Z</time></trkpt><trkpt lat="44.0162333" lon="7.7464786"><ele>1249.0</ele><time>2026-04-26T10:25:39.34Z</time></trkpt><trkpt lat="44.0161153" lon="7.7464623"><ele>1249.0</ele><time>2026-04-26T10:25:40.339Z</time></trkpt><trkpt lat="44.0160171" lon="7.7464376"><ele>1249.0</ele><time>2026-04-26T10:25:41.339Z</time></trkpt><trkpt lat="44.0159257" lon="7.7464062"><ele>1249.0</ele><time>2026-04-26T10:25:42.34Z</time></trkpt><trkpt lat="44.0158368" lon="7.7463679"><ele>1249.0</ele><time>2026-04-26T10:25:43.34Z</time></trkpt><trkpt lat="44.0157502" lon="7.7463231"><ele>1249.6666666666665</ele><time>2026-04-26T10:25:44.34Z</time></trkpt><trkpt lat="44.0156746" lon="7.7462478"><ele>1250.3333333333333</ele><time>2026-04-26T10:25:45.341Z</time></trkpt><trkpt lat="44.0156004" lon="7.7461687"><ele>1251.0</ele><time>2026-04-26T10:25:46.34Z</time></trkpt><trkpt lat="44.0155555" lon="7.7460697"><ele>1251.6666666666667</ele><time>2026-04-26T10:25:47.339Z</time></trkpt><trkpt lat="44.0155129" lon="7.7459675"><ele>1252.3333333333335</ele><time>2026-04-26T10:25:48.339Z</time></trkpt><trkpt lat="44.0154752" lon="7.7458699"><ele>1253.0</ele><time>2026-04-26T10:25:49.34Z</time></trkpt><trkpt lat="44.0154271" lon="7.7458027"><ele>1249.5</ele><time>2026-04-26T10:25:50.341Z</time></trkpt><trkpt lat="44.0153614" lon="7.7457553"><ele>1246.0</ele><time>2026-04-26T10:25:51.34Z</time></trkpt><trkpt lat="44.0152842" lon="7.7457104"><ele>1242.5</ele><time>2026-04-26T10:25:52.341Z</time></trkpt><trkpt lat="44.0152008" lon="7.7456804"><ele>1239.0</ele><time>2026-04-26T10:25:53.34Z</time></trkpt><trkpt lat="44.0151262" lon="7.7456864"><ele>1235.5</ele><time>2026-04-26T10:25:54.341Z</time></trkpt><trkpt lat="44.0150641" lon="7.7457149"><ele>1232.0</ele><time>2026-04-26T10:25:55.34Z</time></trkpt><trkpt lat="44.0150052" lon="7.7457732"><ele>1232.0</ele><time>2026-04-26T10:25:56.34Z</time></trkpt><trkpt lat="44.0149453" lon="7.7458598"><ele>1232.0</ele><time>2026-04-26T10:25:57.342Z</time></trkpt><trkpt lat="44.0148742" lon="7.7459784"><ele>1232.0</ele><time>2026-04-26T10:25:58.341Z</time></trkpt><trkpt lat="44.0148043" lon="7.7460851"><ele>1232.0</ele><time>2026-04-26T10:25:59.341Z</time></trkpt><trkpt lat="44.0147418" lon="7.7461809"><ele>1232.0</ele><time>2026-04-26T10:26:00.34Z</time></trkpt><trkpt lat="44.0146774" lon="7.7462676"><ele>1232.0</ele><time>2026-04-26T10:26:01.339Z</time></trkpt><trkpt lat="44.0146175" lon="7.7463441"><ele>1232.0</ele><time>2026-04-26T10:26:02.341Z</time></trkpt><trkpt lat="44.0145484" lon="7.7464168"><ele>1232.0</ele><time>2026-04-26T10:26:03.34Z</time></trkpt><trkpt lat="44.0144622" lon="7.7464654"><ele>1232.0</ele><time>2026-04-26T10:26:04.34Z</time></trkpt><trkpt lat="44.0143828" lon="7.746524"><ele>1232.0</ele><time>2026-04-26T10:26:05.341Z</time></trkpt><trkpt lat="44.0143062" lon="7.7465456"><ele>1232.0</ele><time>2026-04-26T10:26:06.341Z</time></trkpt><trkpt lat="44.014224" lon="7.7465678"><ele>1224.1666666666667</ele><time>2026-04-26T10:26:07.34Z</time></trkpt><trkpt lat="44.0141248" lon="7.7465556"><ele>1216.3333333333335</ele><time>2026-04-26T10:26:08.34Z</time></trkpt><trkpt lat="44.014044" lon="7.7465684"><ele>1208.5</ele><time>2026-04-26T10:26:09.34Z</time></trkpt><trkpt lat="44.0139653" lon="7.746594"><ele>1200.6666666666667</ele><time>2026-04-26T10:26:10.34Z</time></trkpt><trkpt lat="44.0138873" lon="7.7466117"><ele>1192.8333333333333</ele><time>2026-04-26T10:26:11.341Z</time></trkpt><trkpt lat="44.0138197" lon="7.7466734"><ele>1185.0</ele><time>2026-04-26T10:26:12.339Z</time></trkpt><trkpt lat="44.0137258" lon="7.7467831"><ele>1192.2</ele><time>2026-04-26T10:26:14.341Z</time></trkpt><trkpt lat="44.0136643" lon="7.746901"><ele>1199.4</ele><time>2026-04-26T10:26:16.341Z</time></trkpt><trkpt lat="44.0136009" lon="7.7470315"><ele>1206.6</ele><time>2026-04-26T10:26:18.339Z</time></trkpt><trkpt lat="44.0135342" lon="7.7471512"><ele>1213.8</ele><time>2026-04-26T10:26:20.341Z</time></trkpt><trkpt lat="44.0134635" lon="7.7472644"><ele>1221.0</ele><time>2026-04-26T10:26:22.341Z</time></trkpt><trkpt lat="44.013378" lon="7.7473429"><ele>1215.8333333333333</ele><time>2026-04-26T10:26:24.341Z</time></trkpt><trkpt lat="44.0132793" lon="7.7474243"><ele>1210.6666666666667</ele><time>2026-04-26T10:26:26.341Z</time></trkpt><trkpt lat="44.0132158" lon="7.7474657"><ele>1205.5</ele><time>2026-04-26T10:26:27.34Z</time></trkpt><trkpt lat="44.0131579" lon="7.7475062"><ele>1200.3333333333335</ele><time>2026-04-26T10:26:28.34Z</time></trkpt><trkpt lat="44.0130903" lon="7.7475268"><ele>1195.1666666666667</ele><time>2026-04-26T10:26:29.341Z</time></trkpt><trkpt lat="44.0129857" lon="7.7475648"><ele>1190.0</ele><time>2026-04-26T10:26:31.34Z</time></trkpt><trkpt lat="44.012862" lon="7.7476022"><ele>1190.0</ele><time>2026-04-26T10:26:33.341Z</time></trkpt><trkpt lat="44.0127576" lon="7.747594"><ele>1190.0</ele><time>2026-04-26T10:26:35.341Z</time></trkpt><trkpt lat="44.0126616" lon="7.7475714"><ele>1190.0</ele><time>2026-04-26T10:26:37.34Z</time></trkpt><trkpt lat="44.0125691" lon="7.7475961"><ele>1190.0</ele><time>2026-04-26T10:26:39.339Z</time></trkpt><trkpt lat="44.0125041" lon="7.7476693"><ele>1190.0</ele><time>2026-04-26T10:26:41.34Z</time></trkpt><trkpt lat="44.0124335" lon="7.7477562"><ele>1190.2</ele><time>2026-04-26T10:26:43.341Z</time></trkpt><trkpt lat="44.0123549" lon="7.7478465"><ele>1190.4</ele><time>2026-04-26T10:26:45.339Z</time></trkpt><trkpt lat="44.0122892" lon="7.7479177"><ele>1190.6</ele><time>2026-04-26T10:26:47.34Z</time></trkpt><trkpt lat="44.0121959" lon="7.747947"><ele>1190.8</ele><time>2026-04-26T10:26:49.34Z</time></trkpt><trkpt lat="44.0121174" lon="7.7479602"><ele>1191.0</ele><time>2026-04-26T10:26:51.34Z</time></trkpt><trkpt lat="44.0120262" lon="7.7479798"><ele>1191.0</ele><time>2026-04-26T10:26:53.34Z</time></trkpt><trkpt lat="44.011943" lon="7.747995"><ele>1191.0</ele><time>2026-04-26T10:26:54.34Z</time></trkpt><trkpt lat="44.0118733" lon="7.7480096"><ele>1191.0</ele><time>2026-04-26T10:26:55.339Z</time></trkpt><trkpt lat="44.0117962" lon="7.7480045"><ele>1191.0</ele><time>2026-04-26T10:26:56.34Z</time></trkpt><trkpt lat="44.0116985" lon="7.7479886"><ele>1191.0</ele><time>2026-04-26T10:26:57.34Z</time></trkpt><trkpt lat="44.0116172" lon="7.7479742"><ele>1191.0</ele><time>2026-04-26T10:26:58.34Z</time></trkpt><trkpt lat="44.0115379" lon="7.7479717"><ele>1186.8333333333333</ele><time>2026-04-26T10:26:59.34Z</time></trkpt><trkpt lat="44.011453" lon="7.7479531"><ele>1182.6666666666667</ele><time>2026-04-26T10:27:00.339Z</time></trkpt><trkpt lat="44.0113633" lon="7.7479497"><ele>1178.5</ele><time>2026-04-26T10:27:01.341Z</time></trkpt><trkpt lat="44.0112788" lon="7.7479481"><ele>1174.3333333333335</ele><time>2026-04-26T10:27:02.341Z</time></trkpt><trkpt lat="44.0112068" lon="7.7479365"><ele>1170.1666666666667</ele><time>2026-04-26T10:27:03.341Z</time></trkpt><trkpt lat="44.0111192" lon="7.7479158"><ele>1166.0</ele><time>2026-04-26T10:27:04.341Z</time></trkpt><trkpt lat="44.0110354" lon="7.7479092"><ele>1166.0</ele><time>2026-04-26T10:27:05.339Z</time></trkpt><trkpt lat="44.0109482" lon="7.7479167"><ele>1166.0</ele><time>2026-04-26T10:27:06.34Z</time></trkpt><trkpt lat="44.0108674" lon="7.7479265"><ele>1166.0</ele><time>2026-04-26T10:27:07.341Z</time></trkpt><trkpt lat="44.0107762" lon="7.7479432"><ele>1166.0</ele><time>2026-04-26T10:27:08.341Z</time></trkpt><trkpt lat="44.0106759" lon="7.7479579"><ele>1166.0</ele><time>2026-04-26T10:27:09.341Z</time></trkpt><trkpt lat="44.010567" lon="7.7479704"><ele>1162.25</ele><time>2026-04-26T10:27:10.341Z</time></trkpt><trkpt lat="44.010445" lon="7.7479694"><ele>1158.5</ele><time>2026-04-26T10:27:11.341Z</time></trkpt><trkpt lat="44.0103262" lon="7.7479681"><ele>1154.75</ele><time>2026-04-26T10:27:12.34Z</time></trkpt><trkpt lat="44.0102036" lon="7.7479616"><ele>1151.0</ele><time>2026-04-26T10:27:13.341Z</time></trkpt><trkpt lat="44.0100857" lon="7.747957"><ele>1149.5</ele><time>2026-04-26T10:27:14.34Z</time></trkpt><trkpt lat="44.0099709" lon="7.7479565"><ele>1148.0</ele><time>2026-04-26T10:27:15.34Z</time></trkpt><trkpt lat="44.0098562" lon="7.7479658"><ele>1146.5</ele><time>2026-04-26T10:27:16.34Z</time></trkpt><trkpt lat="44.0097395" lon="7.7479806"><ele>1145.0</ele><time>2026-04-26T10:27:17.339Z</time></trkpt><trkpt lat="44.0096342" lon="7.7479895"><ele>1145.0</ele><time>2026-04-26T10:27:18.339Z</time></trkpt><trkpt lat="44.0095241" lon="7.747996"><ele>1145.0</ele><time>2026-04-26T10:27:19.342Z</time></trkpt><trkpt lat="44.0094161" lon="7.7480004"><ele>1145.0</ele><time>2026-04-26T10:27:20.34Z</time></trkpt><trkpt lat="44.0093106" lon="7.7480069"><ele>1145.0</ele><time>2026-04-26T10:27:21.339Z</time></trkpt><trkpt lat="44.0091964" lon="7.7480191"><ele>1145.0</ele><time>2026-04-26T10:27:22.34Z</time></trkpt><trkpt lat="44.0090804" lon="7.7480424"><ele>1145.0</ele><time>2026-04-26T10:27:23.34Z</time></trkpt><trkpt lat="44.0089673" lon="7.7480706"><ele>1145.0</ele><time>2026-04-26T10:27:24.34Z</time></trkpt><trkpt lat="44.0088564" lon="7.7481072"><ele>1145.0</ele><time>2026-04-26T10:27:25.34Z</time></trkpt><trkpt lat="44.0087448" lon="7.7481516"><ele>1145.0</ele><time>2026-04-26T10:27:26.339Z</time></trkpt><trkpt lat="44.0086354" lon="7.7482022"><ele>1145.0</ele><time>2026-04-26T10:27:27.341Z</time></trkpt><trkpt lat="44.008525" lon="7.7482625"><ele>1145.0</ele><time>2026-04-26T10:27:28.34Z</time></trkpt><trkpt lat="44.0084188" lon="7.7483185"><ele>1145.0</ele><time>2026-04-26T10:27:29.339Z</time></trkpt><trkpt lat="44.0083148" lon="7.7483755"><ele>1145.0</ele><time>2026-04-26T10:27:30.339Z</time></trkpt><trkpt lat="44.0082108" lon="7.7484254"><ele>1144.2</ele><time>2026-04-26T10:27:31.34Z</time></trkpt><trkpt lat="44.008102" lon="7.7484584"><ele>1143.4</ele><time>2026-04-26T10:27:32.341Z</time></trkpt><trkpt lat="44.0079976" lon="7.7485018"><ele>1142.6</ele><time>2026-04-26T10:27:33.341Z</time></trkpt><trkpt lat="44.0078986" lon="7.7485568"><ele>1141.8</ele><time>2026-04-26T10:27:34.341Z</time></trkpt><trkpt lat="44.0078062" lon="7.7486252"><ele>1141.0</ele><time>2026-04-26T10:27:35.341Z</time></trkpt><trkpt lat="44.0077185" lon="7.748717"><ele>1141.0</ele><time>2026-04-26T10:27:36.34Z</time></trkpt><trkpt lat="44.0076399" lon="7.7488133"><ele>1141.0</ele><time>2026-04-26T10:27:37.341Z</time></trkpt><trkpt lat="44.0075647" lon="7.7489196"><ele>1141.0</ele><time>2026-04-26T10:27:38.342Z</time></trkpt><trkpt lat="44.007499" lon="7.7490351"><ele>1141.0</ele><time>2026-04-26T10:27:39.341Z</time></trkpt><trkpt lat="44.0074384" lon="7.7491678"><ele>1141.0</ele><time>2026-04-26T10:27:40.34Z</time></trkpt><trkpt lat="44.0073814" lon="7.7492979"><ele>1139.2</ele><time>2026-04-26T10:27:41.34Z</time></trkpt><trkpt lat="44.0073299" lon="7.749427"><ele>1137.3999999999999</ele><time>2026-04-26T10:27:42.34Z</time></trkpt><trkpt lat="44.0072678" lon="7.7495549"><ele>1135.6</ele><time>2026-04-26T10:27:43.341Z</time></trkpt><trkpt lat="44.0072078" lon="7.7496884"><ele>1133.8</ele><time>2026-04-26T10:27:44.341Z</time></trkpt><trkpt lat="44.00715" lon="7.7498098"><ele>1132.0</ele><time>2026-04-26T10:27:45.34Z</time></trkpt><trkpt lat="44.0070812" lon="7.7499172"><ele>1132.0</ele><time>2026-04-26T10:27:46.34Z</time></trkpt><trkpt lat="44.0069981" lon="7.7500008"><ele>1132.0</ele><time>2026-04-26T10:27:47.34Z</time></trkpt><trkpt lat="44.0069151" lon="7.7500919"><ele>1132.0</ele><time>2026-04-26T10:27:48.34Z</time></trkpt><trkpt lat="44.0068313" lon="7.75017"><ele>1132.0</ele><time>2026-04-26T10:27:49.341Z</time></trkpt><trkpt lat="44.0067512" lon="7.7502448"><ele>1132.0</ele><time>2026-04-26T10:27:50.341Z</time></trkpt><trkpt lat="44.0066695" lon="7.7503334"><ele>1132.0</ele><time>2026-04-26T10:27:51.34Z</time></trkpt><trkpt lat="44.0065996" lon="7.7504375"><ele>1132.0</ele><time>2026-04-26T10:27:52.341Z</time></trkpt><trkpt lat="44.0065281" lon="7.7505384"><ele>1132.0</ele><time>2026-04-26T10:27:53.34Z</time></trkpt><trkpt lat="44.0064546" lon="7.7506512"><ele>1132.0</ele><time>2026-04-26T10:27:54.341Z</time></trkpt><trkpt lat="44.0063851" lon="7.7507643"><ele>1132.0</ele><time>2026-04-26T10:27:55.34Z</time></trkpt><trkpt lat="44.0063158" lon="7.7508699"><ele>1132.0</ele><time>2026-04-26T10:27:56.34Z</time></trkpt><trkpt lat="44.0062529" lon="7.7509808"><ele>1132.0</ele><time>2026-04-26T10:27:57.341Z</time></trkpt><trkpt lat="44.0062" lon="7.7510878"><ele>1132.0</ele><time>2026-04-26T10:27:58.34Z</time></trkpt><trkpt lat="44.0061508" lon="7.751213"><ele>1132.0</ele><time>2026-04-26T10:27:59.34Z</time></trkpt><trkpt lat="44.0061068" lon="7.7513416"><ele>1132.0</ele><time>2026-04-26T10:28:00.341Z</time></trkpt><trkpt lat="44.0060706" lon="7.7514677"><ele>1127.8</ele><time>2026-04-26T10:28:01.34Z</time></trkpt><trkpt lat="44.0060342" lon="7.7515924"><ele>1123.6</ele><time>2026-04-26T10:28:02.34Z</time></trkpt><trkpt lat="44.0059957" lon="7.7517096"><ele>1119.3999999999999</ele><time>2026-04-26T10:28:03.34Z</time></trkpt><trkpt lat="44.0059425" lon="7.7518197"><ele>1115.2</ele><time>2026-04-26T10:28:04.34Z</time></trkpt><trkpt lat="44.0058917" lon="7.751947"><ele>1111.0</ele><time>2026-04-26T10:28:05.34Z</time></trkpt><trkpt lat="44.0058322" lon="7.7520671"><ele>1111.0</ele><time>2026-04-26T10:28:06.342Z</time></trkpt><trkpt lat="44.0057671" lon="7.7521902"><ele>1111.0</ele><time>2026-04-26T10:28:07.341Z</time></trkpt><trkpt lat="44.0056929" lon="7.7523088"><ele>1111.0</ele><time>2026-04-26T10:28:08.34Z</time></trkpt><trkpt lat="44.005606" lon="7.7524102"><ele>1111.0</ele><time>2026-04-26T10:28:09.34Z</time></trkpt><trkpt lat="44.0055181" lon="7.7524934"><ele>1111.0</ele><time>2026-04-26T10:28:10.341Z</time></trkpt><trkpt lat="44.0054428" lon="7.752595"><ele>1111.0</ele><time>2026-04-26T10:28:11.34Z</time></trkpt><trkpt lat="44.0053738" lon="7.7527018"><ele>1111.0</ele><time>2026-04-26T10:28:12.342Z</time></trkpt><trkpt lat="44.005308" lon="7.7528029"><ele>1111.0</ele><time>2026-04-26T10:28:13.341Z</time></trkpt><trkpt lat="44.005232" lon="7.7528828"><ele>1111.0</ele><time>2026-04-26T10:28:14.34Z</time></trkpt><trkpt lat="44.0051556" lon="7.752955"><ele>1111.0</ele><time>2026-04-26T10:28:15.341Z</time></trkpt><trkpt lat="44.0050866" lon="7.7530024"><ele>1107.5</ele><time>2026-04-26T10:28:16.341Z</time></trkpt><trkpt lat="44.0050236" lon="7.7530454"><ele>1104.0</ele><time>2026-04-26T10:28:17.34Z</time></trkpt><trkpt lat="44.0049733" lon="7.7531026"><ele>1100.5</ele><time>2026-04-26T10:28:18.341Z</time></trkpt><trkpt lat="44.0050025" lon="7.7532157"><ele>1097.0</ele><time>2026-04-26T10:28:20.341Z</time></trkpt><trkpt lat="44.0050836" lon="7.7532575"><ele>1093.5</ele><time>2026-04-26T10:28:22.342Z</time></trkpt><trkpt lat="44.0051614" lon="7.7532269"><ele>1090.0</ele><time>2026-04-26T10:28:23.341Z</time></trkpt><trkpt lat="44.005246" lon="7.7531875"><ele>1087.8</ele><time>2026-04-26T10:28:24.34Z</time></trkpt><trkpt lat="44.0053271" lon="7.7531434"><ele>1085.6</ele><time>2026-04-26T10:28:25.342Z</time></trkpt><trkpt lat="44.005413" lon="7.7530955"><ele>1083.4</ele><time>2026-04-26T10:28:26.34Z</time></trkpt><trkpt lat="44.0054904" lon="7.7530556"><ele>1081.2</ele><time>2026-04-26T10:28:27.341Z</time></trkpt><trkpt lat="44.0055726" lon="7.7529885"><ele>1079.0</ele><time>2026-04-26T10:28:28.341Z</time></trkpt><trkpt lat="44.0056529" lon="7.7528993"><ele>1079.0</ele><time>2026-04-26T10:28:29.34Z</time></trkpt><trkpt lat="44.0057356" lon="7.7528185"><ele>1079.0</ele><time>2026-04-26T10:28:30.341Z</time></trkpt><trkpt lat="44.0058207" lon="7.7527544"><ele>1079.0</ele><time>2026-04-26T10:28:31.341Z</time></trkpt><trkpt lat="44.0059092" lon="7.7526887"><ele>1079.0</ele><time>2026-04-26T10:28:32.34Z</time></trkpt><trkpt lat="44.0059981" lon="7.7526287"><ele>1079.0</ele><time>2026-04-26T10:28:33.341Z</time></trkpt><trkpt lat="44.0060996" lon="7.7525623"><ele>1082.2</ele><time>2026-04-26T10:28:34.341Z</time></trkpt><trkpt lat="44.0061959" lon="7.7525"><ele>1085.4</ele><time>2026-04-26T10:28:35.341Z</time></trkpt><trkpt lat="44.0062975" lon="7.752436"><ele>1088.6</ele><time>2026-04-26T10:28:36.34Z</time></trkpt><trkpt lat="44.0063884" lon="7.7523958"><ele>1091.8</ele><time>2026-04-26T10:28:37.341Z</time></trkpt><trkpt lat="44.0064706" lon="7.7523348"><ele>1095.0</ele><time>2026-04-26T10:28:38.34Z</time></trkpt><trkpt lat="44.0065497" lon="7.7522684"><ele>1095.0</ele><time>2026-04-26T10:28:39.339Z</time></trkpt><trkpt lat="44.0066207" lon="7.7522038"><ele>1095.0</ele><time>2026-04-26T10:28:40.34Z</time></trkpt><trkpt lat="44.0066926" lon="7.7521356"><ele>1095.0</ele><time>2026-04-26T10:28:41.34Z</time></trkpt><trkpt lat="44.0067606" lon="7.7520556"><ele>1095.0</ele><time>2026-04-26T10:28:42.34Z</time></trkpt><trkpt lat="44.0068315" lon="7.7519676"><ele>1095.0</ele><time>2026-04-26T10:28:43.341Z</time></trkpt><trkpt lat="44.0068991" lon="7.7518822"><ele>1095.0</ele><time>2026-04-26T10:28:44.341Z</time></trkpt><trkpt lat="44.0069738" lon="7.7518098"><ele>1093.8</ele><time>2026-04-26T10:28:45.341Z</time></trkpt><trkpt lat="44.0070549" lon="7.7517516"><ele>1092.6</ele><time>2026-04-26T10:28:46.339Z</time></trkpt><trkpt lat="44.0071502" lon="7.7516951"><ele>1091.4</ele><time>2026-04-26T10:28:47.341Z</time></trkpt><trkpt lat="44.0072668" lon="7.7516501"><ele>1090.2</ele><time>2026-04-26T10:28:48.341Z</time></trkpt><trkpt lat="44.0073723" lon="7.7515978"><ele>1089.0</ele><time>2026-04-26T10:28:49.341Z</time></trkpt><trkpt lat="44.0074543" lon="7.751538"><ele>1085.8333333333333</ele><time>2026-04-26T10:28:50.341Z</time></trkpt><trkpt lat="44.0075275" lon="7.7514807"><ele>1082.6666666666667</ele><time>2026-04-26T10:28:51.341Z</time></trkpt><trkpt lat="44.007631" lon="7.7514483"><ele>1079.5</ele><time>2026-04-26T10:28:53.341Z</time></trkpt><trkpt lat="44.0076825" lon="7.7515164"><ele>1076.3333333333335</ele><time>2026-04-26T10:28:55.341Z</time></trkpt><trkpt lat="44.0076229" lon="7.7516362"><ele>1073.1666666666667</ele><time>2026-04-26T10:28:57.341Z</time></trkpt><trkpt lat="44.0075749" lon="7.7517016"><ele>1070.0</ele><time>2026-04-26T10:28:58.34Z</time></trkpt><trkpt lat="44.0075199" lon="7.7517741"><ele>1069.8333333333335</ele><time>2026-04-26T10:28:59.34Z</time></trkpt><trkpt lat="44.0074687" lon="7.7518528"><ele>1069.6666666666667</ele><time>2026-04-26T10:29:00.341Z</time></trkpt><trkpt lat="44.0074164" lon="7.7519382"><ele>1069.5</ele><time>2026-04-26T10:29:01.341Z</time></trkpt><trkpt lat="44.0073658" lon="7.7520301"><ele>1069.3333333333333</ele><time>2026-04-26T10:29:02.341Z</time></trkpt><trkpt lat="44.0073027" lon="7.7521265"><ele>1069.1666666666665</ele><time>2026-04-26T10:29:03.341Z</time></trkpt><trkpt lat="44.0072369" lon="7.7522285"><ele>1069.0</ele><time>2026-04-26T10:29:04.341Z</time></trkpt><trkpt lat="44.0071658" lon="7.752332"><ele>1069.0</ele><time>2026-04-26T10:29:05.341Z</time></trkpt><trkpt lat="44.0070919" lon="7.752452"><ele>1069.0</ele><time>2026-04-26T10:29:06.341Z</time></trkpt><trkpt lat="44.0070148" lon="7.7525662"><ele>1069.0</ele><time>2026-04-26T10:29:07.341Z</time></trkpt><trkpt lat="44.0069371" lon="7.7526784"><ele>1069.0</ele><time>2026-04-26T10:29:08.341Z</time></trkpt><trkpt lat="44.0068689" lon="7.7528176"><ele>1069.2</ele><time>2026-04-26T10:29:09.341Z</time></trkpt><trkpt lat="44.0068035" lon="7.752941"><ele>1069.4</ele><time>2026-04-26T10:29:10.34Z</time></trkpt><trkpt lat="44.0067414" lon="7.7530588"><ele>1069.6</ele><time>2026-04-26T10:29:11.34Z</time></trkpt><trkpt lat="44.0066848" lon="7.753175"><ele>1069.8</ele><time>2026-04-26T10:29:12.341Z</time></trkpt><trkpt lat="44.0066202" lon="7.7532917"><ele>1070.0</ele><time>2026-04-26T10:29:13.341Z</time></trkpt><trkpt lat="44.0065577" lon="7.7534032"><ele>1070.0</ele><time>2026-04-26T10:29:14.34Z</time></trkpt><trkpt lat="44.0064748" lon="7.7535083"><ele>1070.0</ele><time>2026-04-26T10:29:15.34Z</time></trkpt><trkpt lat="44.0063741" lon="7.7536093"><ele>1070.0</ele><time>2026-04-26T10:29:16.341Z</time></trkpt><trkpt lat="44.0062725" lon="7.7536984"><ele>1070.0</ele><time>2026-04-26T10:29:17.341Z</time></trkpt><trkpt lat="44.0061678" lon="7.7537912"><ele>1063.5</ele><time>2026-04-26T10:29:18.341Z</time></trkpt><trkpt lat="44.0060702" lon="7.753872"><ele>1057.0</ele><time>2026-04-26T10:29:19.341Z</time></trkpt><trkpt lat="44.0059743" lon="7.7539533"><ele>1050.5</ele><time>2026-04-26T10:29:20.341Z</time></trkpt><trkpt lat="44.0058769" lon="7.7540388"><ele>1044.0</ele><time>2026-04-26T10:29:21.341Z</time></trkpt><trkpt lat="44.0057814" lon="7.7541202"><ele>1044.0</ele><time>2026-04-26T10:29:22.34Z</time></trkpt><trkpt lat="44.0056947" lon="7.7542157"><ele>1044.0</ele><time>2026-04-26T10:29:23.341Z</time></trkpt><trkpt lat="44.0055957" lon="7.7542971"><ele>1044.0</ele><time>2026-04-26T10:29:24.34Z</time></trkpt><trkpt lat="44.0055046" lon="7.754361"><ele>1044.0</ele><time>2026-04-26T10:29:25.34Z</time></trkpt><trkpt lat="44.0054172" lon="7.754418"><ele>1044.0</ele><time>2026-04-26T10:29:26.341Z</time></trkpt><trkpt lat="44.0053327" lon="7.75444"><ele>1044.0</ele><time>2026-04-26T10:29:27.341Z</time></trkpt><trkpt lat="44.0052475" lon="7.7544379"><ele>1044.0</ele><time>2026-04-26T10:29:28.341Z</time></trkpt><trkpt lat="44.0051581" lon="7.7544217"><ele>1044.0</ele><time>2026-04-26T10:29:29.341Z</time></trkpt><trkpt lat="44.0050831" lon="7.754362"><ele>1044.0</ele><time>2026-04-26T10:29:30.34Z</time></trkpt><trkpt lat="44.0049961" lon="7.7543263"><ele>1044.0</ele><time>2026-04-26T10:29:31.34Z</time></trkpt><trkpt lat="44.0049115" lon="7.7543182"><ele>1044.0</ele><time>2026-04-26T10:29:32.341Z</time></trkpt><trkpt lat="44.0048168" lon="7.7543383"><ele>1038.0</ele><time>2026-04-26T10:29:33.341Z</time></trkpt><trkpt lat="44.0047087" lon="7.7543888"><ele>1032.0</ele><time>2026-04-26T10:29:34.341Z</time></trkpt><trkpt lat="44.0046012" lon="7.7544473"><ele>1026.0</ele><time>2026-04-26T10:29:35.341Z</time></trkpt><trkpt lat="44.0045029" lon="7.754513"><ele>1020.0</ele><time>2026-04-26T10:29:36.34Z</time></trkpt><trkpt lat="44.0044172" lon="7.7545689"><ele>1014.0</ele><time>2026-04-26T10:29:37.341Z</time></trkpt><trkpt lat="44.0043321" lon="7.7546285"><ele>1014.0</ele><time>2026-04-26T10:29:38.34Z</time></trkpt><trkpt lat="44.0042452" lon="7.7546808"><ele>1014.0000000000001</ele><time>2026-04-26T10:29:39.341Z</time></trkpt><trkpt lat="44.0041505" lon="7.7547287"><ele>1014.0000000000001</ele><time>2026-04-26T10:29:40.341Z</time></trkpt><trkpt lat="44.0040588" lon="7.7547636"><ele>1014.0</ele><time>2026-04-26T10:29:41.342Z</time></trkpt><trkpt lat="44.0039644" lon="7.7548029"><ele>1014.0</ele><time>2026-04-26T10:29:42.34Z</time></trkpt><trkpt lat="44.0038725" lon="7.7548333"><ele>1015.1666666666666</ele><time>2026-04-26T10:29:43.34Z</time></trkpt><trkpt lat="44.0037897" lon="7.7548648"><ele>1016.3333333333333</ele><time>2026-04-26T10:29:44.34Z</time></trkpt><trkpt lat="44.0037251" lon="7.7548908"><ele>1017.5</ele><time>2026-04-26T10:29:45.339Z</time></trkpt><trkpt lat="44.0036306" lon="7.7550017"><ele>1018.6666666666666</ele><time>2026-04-26T10:29:47.34Z</time></trkpt><trkpt lat="44.0035985" lon="7.7550982"><ele>1019.8333333333333</ele><time>2026-04-26T10:29:48.34Z</time></trkpt><trkpt lat="44.0035661" lon="7.7551908"><ele>1021.0</ele><time>2026-04-26T10:29:49.34Z</time></trkpt><trkpt lat="44.0035336" lon="7.7552868"><ele>1020.9999999999999</ele><time>2026-04-26T10:29:50.341Z</time></trkpt><trkpt lat="44.0035007" lon="7.7553828"><ele>1021.0</ele><time>2026-04-26T10:29:51.341Z</time></trkpt><trkpt lat="44.0034594" lon="7.7554664"><ele>1021.0</ele><time>2026-04-26T10:29:52.341Z</time></trkpt><trkpt lat="44.0034056" lon="7.7555427"><ele>1021.0</ele><time>2026-04-26T10:29:53.341Z</time></trkpt><trkpt lat="44.0033418" lon="7.7556083"><ele>1020.9999999999999</ele><time>2026-04-26T10:29:54.34Z</time></trkpt><trkpt lat="44.003281" lon="7.7556708"><ele>1021.0</ele><time>2026-04-26T10:29:55.341Z</time></trkpt><trkpt lat="44.0032184" lon="7.7557417"><ele>1021.4999999999999</ele><time>2026-04-26T10:29:56.341Z</time></trkpt><trkpt lat="44.0031544" lon="7.7558213"><ele>1022.0</ele><time>2026-04-26T10:29:57.341Z</time></trkpt><trkpt lat="44.0030994" lon="7.7559243"><ele>1022.5</ele><time>2026-04-26T10:29:58.341Z</time></trkpt><trkpt lat="44.003055" lon="7.7560333"><ele>1023.0</ele><time>2026-04-26T10:29:59.341Z</time></trkpt><trkpt lat="44.0030156" lon="7.7561365"><ele>1023.4999999999999</ele><time>2026-04-26T10:30:00.341Z</time></trkpt><trkpt lat="44.002971" lon="7.7562292"><ele>1024.0</ele><time>2026-04-26T10:30:01.341Z</time></trkpt><trkpt lat="44.0029184" lon="7.7563093"><ele>1024.0</ele><time>2026-04-26T10:30:02.34Z</time></trkpt><trkpt lat="44.0028493" lon="7.756379"><ele>1024.0</ele><time>2026-04-26T10:30:03.341Z</time></trkpt><trkpt lat="44.0027717" lon="7.7564551"><ele>1024.0</ele><time>2026-04-26T10:30:04.34Z</time></trkpt><trkpt lat="44.0026974" lon="7.7565347"><ele>1024.0</ele><time>2026-04-26T10:30:05.341Z</time></trkpt><trkpt lat="44.0026121" lon="7.7566334"><ele>1024.0</ele><time>2026-04-26T10:30:06.34Z</time></trkpt><trkpt lat="44.0025281" lon="7.7567247"><ele>1021.0</ele><time>2026-04-26T10:30:07.341Z</time></trkpt><trkpt lat="44.0024412" lon="7.7568022"><ele>1018.0000000000001</ele><time>2026-04-26T10:30:08.341Z</time></trkpt><trkpt lat="44.0023585" lon="7.756882"><ele>1015.0000000000001</ele><time>2026-04-26T10:30:09.341Z</time></trkpt><trkpt lat="44.0022825" lon="7.7569661"><ele>1012.0</ele><time>2026-04-26T10:30:10.34Z</time></trkpt><trkpt lat="44.0022096" lon="7.7570537"><ele>1009.0</ele><time>2026-04-26T10:30:11.34Z</time></trkpt><trkpt lat="44.00214" lon="7.7571341"><ele>1008.9999999999999</ele><time>2026-04-26T10:30:12.341Z</time></trkpt><trkpt lat="44.0020658" lon="7.7571887"><ele>1009.0</ele><time>2026-04-26T10:30:13.34Z</time></trkpt><trkpt lat="44.0019933" lon="7.7572405"><ele>1009.0</ele><time>2026-04-26T10:30:14.341Z</time></trkpt><trkpt lat="44.0019193" lon="7.7572936"><ele>1009.0</ele><time>2026-04-26T10:30:15.341Z</time></trkpt><trkpt lat="44.0018574" lon="7.7573975"><ele>1008.9999999999999</ele><time>2026-04-26T10:30:16.341Z</time></trkpt><trkpt lat="44.0017986" lon="7.7574959"><ele>1009.0</ele><time>2026-04-26T10:30:17.341Z</time></trkpt><trkpt lat="44.0017363" lon="7.7575912"><ele>1009.0</ele><time>2026-04-26T10:30:18.341Z</time></trkpt><trkpt lat="44.0016667" lon="7.7576853"><ele>1009.0000000000001</ele><time>2026-04-26T10:30:19.34Z</time></trkpt><trkpt lat="44.0015929" lon="7.7577893"><ele>1009.0000000000001</ele><time>2026-04-26T10:30:20.341Z</time></trkpt><trkpt lat="44.0015188" lon="7.7579219"><ele>1009.0</ele><time>2026-04-26T10:30:21.34Z</time></trkpt><trkpt lat="44.0014422" lon="7.7580495"><ele>1009.0</ele><time>2026-04-26T10:30:22.341Z</time></trkpt><trkpt lat="44.0013721" lon="7.7581668"><ele>1011.5</ele><time>2026-04-26T10:30:23.34Z</time></trkpt><trkpt lat="44.0012996" lon="7.7582791"><ele>1014.0</ele><time>2026-04-26T10:30:24.34Z</time></trkpt><trkpt lat="44.0012277" lon="7.7583986"><ele>1016.5</ele><time>2026-04-26T10:30:25.341Z</time></trkpt><trkpt lat="44.0011583" lon="7.7585217"><ele>1019.0</ele><time>2026-04-26T10:30:26.341Z</time></trkpt><trkpt lat="44.0010814" lon="7.7586443"><ele>1016.0</ele><time>2026-04-26T10:30:27.341Z</time></trkpt><trkpt lat="44.0010139" lon="7.7587617"><ele>1013.0000000000001</ele><time>2026-04-26T10:30:28.34Z</time></trkpt><trkpt lat="44.0009414" lon="7.7588672"><ele>1010.0000000000001</ele><time>2026-04-26T10:30:29.341Z</time></trkpt><trkpt lat="44.0008776" lon="7.7589727"><ele>1007.0</ele><time>2026-04-26T10:30:30.34Z</time></trkpt><trkpt lat="44.0008053" lon="7.7590654"><ele>1004.0</ele><time>2026-04-26T10:30:31.34Z</time></trkpt><trkpt lat="44.0007169" lon="7.7591467"><ele>1004.0</ele><time>2026-04-26T10:30:32.34Z</time></trkpt><trkpt lat="44.0006238" lon="7.7592215"><ele>1004.0000000000001</ele><time>2026-04-26T10:30:33.341Z</time></trkpt><trkpt lat="44.0005375" lon="7.7592988"><ele>1004.0000000000001</ele><time>2026-04-26T10:30:34.341Z</time></trkpt><trkpt lat="44.0004477" lon="7.7593812"><ele>1004.0</ele><time>2026-04-26T10:30:35.34Z</time></trkpt><trkpt lat="44.0003575" lon="7.7594611"><ele>1004.0</ele><time>2026-04-26T10:30:36.34Z</time></trkpt><trkpt lat="44.0002688" lon="7.7595402"><ele>994.4000000000001</ele><time>2026-04-26T10:30:37.34Z</time></trkpt><trkpt lat="44.0001792" lon="7.7596325"><ele>984.8000000000001</ele><time>2026-04-26T10:30:38.341Z</time></trkpt><trkpt lat="44.00009" lon="7.7597177"><ele>975.1999999999999</ele><time>2026-04-26T10:30:39.34Z</time></trkpt><trkpt lat="44.0000039" lon="7.7598031"><ele>965.5999999999999</ele><time>2026-04-26T10:30:40.341Z</time></trkpt><trkpt lat="43.9999247" lon="7.7598807"><ele>956.0</ele><time>2026-04-26T10:30:41.34Z</time></trkpt><trkpt lat="43.9998377" lon="7.7599473"><ele>956.0</ele><time>2026-04-26T10:30:42.34Z</time></trkpt><trkpt lat="43.9997366" lon="7.760002"><ele>955.9999999999999</ele><time>2026-04-26T10:30:43.34Z</time></trkpt><trkpt lat="43.999633" lon="7.760033"><ele>955.9999999999999</ele><time>2026-04-26T10:30:44.342Z</time></trkpt><trkpt lat="43.9995291" lon="7.7600705"><ele>956.0</ele><time>2026-04-26T10:30:45.341Z</time></trkpt><trkpt lat="43.9994305" lon="7.7601148"><ele>956.0</ele><time>2026-04-26T10:30:46.34Z</time></trkpt><trkpt lat="43.999326" lon="7.7601636"><ele>949.5999999999999</ele><time>2026-04-26T10:30:47.342Z</time></trkpt><trkpt lat="43.9992216" lon="7.7602151"><ele>943.1999999999999</ele><time>2026-04-26T10:30:48.341Z</time></trkpt><trkpt lat="43.9991174" lon="7.7602795"><ele>936.8000000000001</ele><time>2026-04-26T10:30:49.34Z</time></trkpt><trkpt lat="43.9990204" lon="7.7603438"><ele>930.4000000000001</ele><time>2026-04-26T10:30:50.341Z</time></trkpt><trkpt lat="43.9989239" lon="7.7604078"><ele>924.0</ele><time>2026-04-26T10:30:51.34Z</time></trkpt><trkpt lat="43.9988309" lon="7.760465"><ele>924.0</ele><time>2026-04-26T10:30:52.341Z</time></trkpt><trkpt lat="43.9987368" lon="7.7605367"><ele>924.0000000000001</ele><time>2026-04-26T10:30:53.341Z</time></trkpt><trkpt lat="43.9986498" lon="7.7605898"><ele>924.0000000000001</ele><time>2026-04-26T10:30:54.34Z</time></trkpt><trkpt lat="43.9985499" lon="7.7606329"><ele>924.0</ele><time>2026-04-26T10:30:55.341Z</time></trkpt><trkpt lat="43.9984473" lon="7.7606613"><ele>924.0</ele><time>2026-04-26T10:30:56.34Z</time></trkpt><trkpt lat="43.9983505" lon="7.7606686"><ele>927.4000000000001</ele><time>2026-04-26T10:30:57.341Z</time></trkpt><trkpt lat="43.9982542" lon="7.7607033"><ele>930.8000000000001</ele><time>2026-04-26T10:30:58.341Z</time></trkpt><trkpt lat="43.9981639" lon="7.7607661"><ele>934.1999999999999</ele><time>2026-04-26T10:30:59.34Z</time></trkpt><trkpt lat="43.9980816" lon="7.7608317"><ele>937.5999999999999</ele><time>2026-04-26T10:31:00.341Z</time></trkpt><trkpt lat="43.998002" lon="7.760909"><ele>941.0</ele><time>2026-04-26T10:31:01.341Z</time></trkpt><trkpt lat="43.9979201" lon="7.7609653"><ele>941.0000000000001</ele><time>2026-04-26T10:31:02.341Z</time></trkpt><trkpt lat="43.9978386" lon="7.7610169"><ele>941.0</ele><time>2026-04-26T10:31:03.342Z</time></trkpt><trkpt lat="43.9977585" lon="7.7610538"><ele>941.0</ele><time>2026-04-26T10:31:04.34Z</time></trkpt><trkpt lat="43.9976861" lon="7.7610705"><ele>941.0</ele><time>2026-04-26T10:31:05.341Z</time></trkpt><trkpt lat="43.9976215" lon="7.7610676"><ele>941.0000000000001</ele><time>2026-04-26T10:31:06.341Z</time></trkpt><trkpt lat="43.9975393" lon="7.7609614"><ele>941.0</ele><time>2026-04-26T10:31:08.341Z</time></trkpt><trkpt lat="43.9975225" lon="7.7608607"><ele>941.0000000000001</ele><time>2026-04-26T10:31:09.34Z</time></trkpt><trkpt lat="43.9975246" lon="7.7607441"><ele>941.0</ele><time>2026-04-26T10:31:10.34Z</time></trkpt><trkpt lat="43.9975235" lon="7.7606355"><ele>941.0</ele><time>2026-04-26T10:31:11.341Z</time></trkpt><trkpt lat="43.9975316" lon="7.7605169"><ele>941.0</ele><time>2026-04-26T10:31:12.34Z</time></trkpt><trkpt lat="43.9975408" lon="7.7603941"><ele>941.0000000000001</ele><time>2026-04-26T10:31:13.341Z</time></trkpt><trkpt lat="43.9975408" lon="7.7602749"><ele>941.0</ele><time>2026-04-26T10:31:14.34Z</time></trkpt><trkpt lat="43.9975465" lon="7.76016"><ele>947.5999999999999</ele><time>2026-04-26T10:31:15.341Z</time></trkpt><trkpt lat="43.9975527" lon="7.7600436"><ele>954.1999999999999</ele><time>2026-04-26T10:31:16.34Z</time></trkpt><trkpt lat="43.9975631" lon="7.7599246"><ele>960.8000000000001</ele><time>2026-04-26T10:31:17.341Z</time></trkpt><trkpt lat="43.9975711" lon="7.7597929"><ele>967.4000000000001</ele><time>2026-04-26T10:31:18.341Z</time></trkpt><trkpt lat="43.9975735" lon="7.7596632"><ele>974.0</ele><time>2026-04-26T10:31:19.34Z</time></trkpt><trkpt lat="43.9975741" lon="7.7595318"><ele>974.0</ele><time>2026-04-26T10:31:20.341Z</time></trkpt><trkpt lat="43.9975804" lon="7.7593903"><ele>974.0000000000001</ele><time>2026-04-26T10:31:21.341Z</time></trkpt><trkpt lat="43.9975818" lon="7.7592445"><ele>974.0000000000001</ele><time>2026-04-26T10:31:22.34Z</time></trkpt><trkpt lat="43.9975807" lon="7.7590917"><ele>974.0</ele><time>2026-04-26T10:31:23.341Z</time></trkpt><trkpt lat="43.9975847" lon="7.7589343"><ele>974.0</ele><time>2026-04-26T10:31:24.341Z</time></trkpt><trkpt lat="43.9975857" lon="7.7587713"><ele>976.75</ele><time>2026-04-26T10:31:25.341Z</time></trkpt><trkpt lat="43.9975825" lon="7.7586099"><ele>979.5</ele><time>2026-04-26T10:31:26.34Z</time></trkpt><trkpt lat="43.997579" lon="7.7584554"><ele>982.25</ele><time>2026-04-26T10:31:27.341Z</time></trkpt><trkpt lat="43.9975741" lon="7.75829"><ele>985.0</ele><time>2026-04-26T10:31:28.34Z</time></trkpt><trkpt lat="43.9975719" lon="7.7581272"><ele>985.0</ele><time>2026-04-26T10:31:29.341Z</time></trkpt><trkpt lat="43.9975793" lon="7.7579707"><ele>985.0</ele><time>2026-04-26T10:31:30.342Z</time></trkpt><trkpt lat="43.9975816" lon="7.7578117"><ele>985.0</ele><time>2026-04-26T10:31:31.341Z</time></trkpt><trkpt lat="43.997581" lon="7.757655"><ele>985.0</ele><time>2026-04-26T10:31:32.34Z</time></trkpt><trkpt lat="43.9975709" lon="7.7575004"><ele>982.8</ele><time>2026-04-26T10:31:33.341Z</time></trkpt><trkpt lat="43.9975452" lon="7.7573468"><ele>980.6</ele><time>2026-04-26T10:31:34.34Z</time></trkpt><trkpt lat="43.9975184" lon="7.7571977"><ele>978.4000000000001</ele><time>2026-04-26T10:31:35.34Z</time></trkpt><trkpt lat="43.9974951" lon="7.7570505"><ele>976.2</ele><time>2026-04-26T10:31:36.341Z</time></trkpt><trkpt lat="43.9974647" lon="7.7569105"><ele>974.0</ele><time>2026-04-26T10:31:37.341Z</time></trkpt><trkpt lat="43.9974375" lon="7.7567805"><ele>964.6</ele><time>2026-04-26T10:31:38.34Z</time></trkpt><trkpt lat="43.997402" lon="7.756653"><ele>955.2</ele><time>2026-04-26T10:31:39.342Z</time></trkpt><trkpt lat="43.9973554" lon="7.7565453"><ele>945.8000000000001</ele><time>2026-04-26T10:31:40.34Z</time></trkpt><trkpt lat="43.9972866" lon="7.7564569"><ele>936.4000000000001</ele><time>2026-04-26T10:31:41.341Z</time></trkpt><trkpt lat="43.9972088" lon="7.7563959"><ele>927.0</ele><time>2026-04-26T10:31:42.34Z</time></trkpt><trkpt lat="43.9971225" lon="7.7563525"><ele>927.0</ele><time>2026-04-26T10:31:43.34Z</time></trkpt><trkpt lat="43.9970342" lon="7.7563198"><ele>927.0</ele><time>2026-04-26T10:31:44.341Z</time></trkpt><trkpt lat="43.9969484" lon="7.7562758"><ele>927.0</ele><time>2026-04-26T10:31:45.34Z</time></trkpt><trkpt lat="43.9968707" lon="7.7562066"><ele>927.0</ele><time>2026-04-26T10:31:46.341Z</time></trkpt><trkpt lat="43.9967975" lon="7.7561144"><ele>927.0</ele><time>2026-04-26T10:31:47.341Z</time></trkpt><trkpt lat="43.9967411" lon="7.755991"><ele>928.8</ele><time>2026-04-26T10:31:48.34Z</time></trkpt><trkpt lat="43.9966863" lon="7.7558643"><ele>930.6</ele><time>2026-04-26T10:31:49.34Z</time></trkpt><trkpt lat="43.9966339" lon="7.7557392"><ele>932.3999999999999</ele><time>2026-04-26T10:31:50.341Z</time></trkpt><trkpt lat="43.9965844" lon="7.7556164"><ele>934.1999999999999</ele><time>2026-04-26T10:31:51.34Z</time></trkpt><trkpt lat="43.9965393" lon="7.7554838"><ele>936.0</ele><time>2026-04-26T10:31:52.341Z</time></trkpt><trkpt lat="43.9965023" lon="7.7553342"><ele>931.25</ele><time>2026-04-26T10:31:53.341Z</time></trkpt><trkpt lat="43.9964772" lon="7.7551806"><ele>926.5</ele><time>2026-04-26T10:31:54.34Z</time></trkpt><trkpt lat="43.9964601" lon="7.7550231"><ele>921.75</ele><time>2026-04-26T10:31:55.34Z</time></trkpt><trkpt lat="43.9964471" lon="7.7548611"><ele>917.0</ele><time>2026-04-26T10:31:56.34Z</time></trkpt><trkpt lat="43.9964462" lon="7.7546985"><ele>917.0</ele><time>2026-04-26T10:31:57.34Z</time></trkpt><trkpt lat="43.9964522" lon="7.7545387"><ele>917.0</ele><time>2026-04-26T10:31:58.341Z</time></trkpt><trkpt lat="43.9964624" lon="7.7543776"><ele>917.0</ele><time>2026-04-26T10:31:59.341Z</time></trkpt><trkpt lat="43.9964636" lon="7.7542194"><ele>917.0</ele><time>2026-04-26T10:32:00.34Z</time></trkpt><trkpt lat="43.9964636" lon="7.7540716"><ele>915.5000000000001</ele><time>2026-04-26T10:32:01.34Z</time></trkpt><trkpt lat="43.9964507" lon="7.7539404"><ele>914.0</ele><time>2026-04-26T10:32:02.34Z</time></trkpt><trkpt lat="43.9964441" lon="7.7538139"><ele>912.5</ele><time>2026-04-26T10:32:03.341Z</time></trkpt><trkpt lat="43.9964246" lon="7.7536925"><ele>911.0</ele><time>2026-04-26T10:32:04.34Z</time></trkpt><trkpt lat="43.9964095" lon="7.7535766"><ele>909.5000000000001</ele><time>2026-04-26T10:32:05.34Z</time></trkpt><trkpt lat="43.9963919" lon="7.7534724"><ele>908.0</ele><time>2026-04-26T10:32:06.341Z</time></trkpt><trkpt lat="43.9963728" lon="7.75337"><ele>907.4285714285714</ele><time>2026-04-26T10:32:07.34Z</time></trkpt><trkpt lat="43.9963597" lon="7.7532681"><ele>906.8571428571429</ele><time>2026-04-26T10:32:08.341Z</time></trkpt><trkpt lat="43.9963423" lon="7.7531672"><ele>906.2857142857143</ele><time>2026-04-26T10:32:09.341Z</time></trkpt><trkpt lat="43.9963267" lon="7.7530693"><ele>905.7142857142858</ele><time>2026-04-26T10:32:10.341Z</time></trkpt><trkpt lat="43.9963096" lon="7.7529698"><ele>905.1428571428571</ele><time>2026-04-26T10:32:11.341Z</time></trkpt><trkpt lat="43.9962896" lon="7.7528703"><ele>904.5714285714287</ele><time>2026-04-26T10:32:12.341Z</time></trkpt><trkpt lat="43.9962782" lon="7.7527735"><ele>904.0</ele><time>2026-04-26T10:32:13.34Z</time></trkpt><trkpt lat="43.9962618" lon="7.7526797"><ele>903.9999999999999</ele><time>2026-04-26T10:32:14.34Z</time></trkpt><trkpt lat="43.9962463" lon="7.7525797"><ele>904.0</ele><time>2026-04-26T10:32:15.341Z</time></trkpt><trkpt lat="43.9962319" lon="7.7524848"><ele>904.0</ele><time>2026-04-26T10:32:16.341Z</time></trkpt><trkpt lat="43.9962128" lon="7.7523941"><ele>904.0</ele><time>2026-04-26T10:32:17.34Z</time></trkpt><trkpt lat="43.9961756" lon="7.7522464"><ele>903.9999999999999</ele><time>2026-04-26T10:32:19.342Z</time></trkpt><trkpt lat="43.9961174" lon="7.7521787"><ele>904.0</ele><time>2026-04-26T10:32:21.342Z</time></trkpt><trkpt lat="43.9960492" lon="7.7522048"><ele>903.9999999999999</ele><time>2026-04-26T10:32:23.34Z</time></trkpt><trkpt lat="43.9959712" lon="7.752328"><ele>904.0</ele><time>2026-04-26T10:32:25.34Z</time></trkpt><trkpt lat="43.9959249" lon="7.7524064"><ele>904.0</ele><time>2026-04-26T10:32:26.341Z</time></trkpt><trkpt lat="43.9958742" lon="7.7524903"><ele>904.0</ele><time>2026-04-26T10:32:27.342Z</time></trkpt><trkpt lat="43.9958291" lon="7.7525769"><ele>903.9999999999999</ele><time>2026-04-26T10:32:28.34Z</time></trkpt><trkpt lat="43.9957854" lon="7.7526767"><ele>904.0</ele><time>2026-04-26T10:32:29.34Z</time></trkpt><trkpt lat="43.9957492" lon="7.7527773"><ele>900.6666666666666</ele><time>2026-04-26T10:32:30.341Z</time></trkpt><trkpt lat="43.995722" lon="7.7528911"><ele>897.3333333333333</ele><time>2026-04-26T10:32:31.34Z</time></trkpt><trkpt lat="43.9957102" lon="7.7529974"><ele>894.0</ele><time>2026-04-26T10:32:32.34Z</time></trkpt><trkpt lat="43.9957023" lon="7.7531055"><ele>890.6666666666667</ele><time>2026-04-26T10:32:33.34Z</time></trkpt><trkpt lat="43.9956987" lon="7.7532235"><ele>887.3333333333334</ele><time>2026-04-26T10:32:34.34Z</time></trkpt><trkpt lat="43.9957047" lon="7.7533492"><ele>884.0</ele><time>2026-04-26T10:32:35.34Z</time></trkpt><trkpt lat="43.995711" lon="7.753477"><ele>883.8000000000001</ele><time>2026-04-26T10:32:36.34Z</time></trkpt><trkpt lat="43.9957181" lon="7.7536029"><ele>883.6000000000001</ele><time>2026-04-26T10:32:37.341Z</time></trkpt><trkpt lat="43.9957247" lon="7.7537358"><ele>883.4</ele><time>2026-04-26T10:32:38.341Z</time></trkpt><trkpt lat="43.9957219" lon="7.7538665"><ele>883.2</ele><time>2026-04-26T10:32:39.34Z</time></trkpt><trkpt lat="43.9957186" lon="7.7539979"><ele>883.0</ele><time>2026-04-26T10:32:40.341Z</time></trkpt><trkpt lat="43.9957108" lon="7.754128"><ele>882.9999999999999</ele><time>2026-04-26T10:32:41.34Z</time></trkpt><trkpt lat="43.9957024" lon="7.7542502"><ele>883.0</ele><time>2026-04-26T10:32:42.34Z</time></trkpt><trkpt lat="43.9956933" lon="7.7543722"><ele>883.0</ele><time>2026-04-26T10:32:43.34Z</time></trkpt><trkpt lat="43.9956806" lon="7.7544901"><ele>883.0</ele><time>2026-04-26T10:32:44.341Z</time></trkpt><trkpt lat="43.9956511" lon="7.7545925"><ele>882.9999999999999</ele><time>2026-04-26T10:32:45.341Z</time></trkpt><trkpt lat="43.9956133" lon="7.7546838"><ele>883.0</ele><time>2026-04-26T10:32:46.34Z</time></trkpt><trkpt lat="43.9955773" lon="7.7547745"><ele>882.9999999999999</ele><time>2026-04-26T10:32:47.341Z</time></trkpt><trkpt lat="43.9955422" lon="7.7548666"><ele>883.0</ele><time>2026-04-26T10:32:48.342Z</time></trkpt><trkpt lat="43.9955123" lon="7.7549786"><ele>883.0</ele><time>2026-04-26T10:32:49.341Z</time></trkpt><trkpt lat="43.9954972" lon="7.7551008"><ele>883.0</ele><time>2026-04-26T10:32:50.34Z</time></trkpt><trkpt lat="43.9955036" lon="7.7552382"><ele>882.9999999999999</ele><time>2026-04-26T10:32:51.341Z</time></trkpt><trkpt lat="43.9955194" lon="7.755373"><ele>883.0</ele><time>2026-04-26T10:32:52.341Z</time></trkpt><trkpt lat="43.9955397" lon="7.7555208"><ele>882.0</ele><time>2026-04-26T10:32:53.342Z</time></trkpt><trkpt lat="43.9955609" lon="7.7556673"><ele>881.0</ele><time>2026-04-26T10:32:54.342Z</time></trkpt><trkpt lat="43.9955878" lon="7.75582"><ele>880.0</ele><time>2026-04-26T10:32:55.34Z</time></trkpt><trkpt lat="43.9956053" lon="7.7559672"><ele>879.0</ele><time>2026-04-26T10:32:56.34Z</time></trkpt><trkpt lat="43.9956256" lon="7.7561137"><ele>878.0</ele><time>2026-04-26T10:32:57.342Z</time></trkpt><trkpt lat="43.9956439" lon="7.7562605"><ele>875.5999999999999</ele><time>2026-04-26T10:32:58.341Z</time></trkpt><trkpt lat="43.99566" lon="7.7564049"><ele>873.1999999999999</ele><time>2026-04-26T10:32:59.342Z</time></trkpt><trkpt lat="43.9956762" lon="7.7565543"><ele>870.8</ele><time>2026-04-26T10:33:00.34Z</time></trkpt><trkpt lat="43.9957062" lon="7.7567109"><ele>868.4</ele><time>2026-04-26T10:33:01.34Z</time></trkpt><trkpt lat="43.9957408" lon="7.7568692"><ele>866.0</ele><time>2026-04-26T10:33:02.341Z</time></trkpt><trkpt lat="43.9957724" lon="7.7570288"><ele>863.0</ele><time>2026-04-26T10:33:03.34Z</time></trkpt><trkpt lat="43.9957919" lon="7.7571835"><ele>860.0</ele><time>2026-04-26T10:33:04.341Z</time></trkpt><trkpt lat="43.9958081" lon="7.7573431"><ele>857.0</ele><time>2026-04-26T10:33:05.342Z</time></trkpt><trkpt lat="43.9958167" lon="7.7574968"><ele>854.0</ele><time>2026-04-26T10:33:06.341Z</time></trkpt><trkpt lat="43.9958221" lon="7.7576541"><ele>852.25</ele><time>2026-04-26T10:33:07.34Z</time></trkpt><trkpt lat="43.9958248" lon="7.7578106"><ele>850.5</ele><time>2026-04-26T10:33:08.342Z</time></trkpt><trkpt lat="43.9958295" lon="7.7579685"><ele>848.75</ele><time>2026-04-26T10:33:09.341Z</time></trkpt><trkpt lat="43.9958347" lon="7.7581294"><ele>847.0</ele><time>2026-04-26T10:33:10.34Z</time></trkpt><trkpt lat="43.9958409" lon="7.7582905"><ele>846.25</ele><time>2026-04-26T10:33:11.341Z</time></trkpt><trkpt lat="43.9958468" lon="7.7584505"><ele>845.5</ele><time>2026-04-26T10:33:12.341Z</time></trkpt><trkpt lat="43.9958445" lon="7.7586063"><ele>844.75</ele><time>2026-04-26T10:33:13.341Z</time></trkpt><trkpt lat="43.9958376" lon="7.7587609"><ele>844.0</ele><time>2026-04-26T10:33:14.341Z</time></trkpt><trkpt lat="43.9958201" lon="7.758915"><ele>844.0</ele><time>2026-04-26T10:33:15.341Z</time></trkpt><trkpt lat="43.9957821" lon="7.7590606"><ele>844.0</ele><time>2026-04-26T10:33:16.341Z</time></trkpt><trkpt lat="43.9957345" lon="7.7592012"><ele>844.0</ele><time>2026-04-26T10:33:17.341Z</time></trkpt><trkpt lat="43.9956938" lon="7.7593416"><ele>844.0</ele><time>2026-04-26T10:33:18.34Z</time></trkpt><trkpt lat="43.9956679" lon="7.759482"><ele>844.0</ele><time>2026-04-26T10:33:19.342Z</time></trkpt><trkpt lat="43.9956484" lon="7.7596293"><ele>844.0</ele><time>2026-04-26T10:33:20.341Z</time></trkpt><trkpt lat="43.9956435" lon="7.7597829"><ele>844.0</ele><time>2026-04-26T10:33:21.34Z</time></trkpt><trkpt lat="43.9956462" lon="7.7599474"><ele>844.0</ele><time>2026-04-26T10:33:22.342Z</time></trkpt><trkpt lat="43.9956571" lon="7.760109"><ele>844.0</ele><time>2026-04-26T10:33:23.342Z</time></trkpt><trkpt lat="43.995667" lon="7.7602661"><ele>844.0</ele><time>2026-04-26T10:33:24.341Z</time></trkpt><trkpt lat="43.9956651" lon="7.7604305"><ele>844.0</ele><time>2026-04-26T10:33:25.341Z</time></trkpt><trkpt lat="43.9956578" lon="7.7605935"><ele>844.0</ele><time>2026-04-26T10:33:26.341Z</time></trkpt><trkpt lat="43.9956286" lon="7.7607641"><ele>844.0</ele><time>2026-04-26T10:33:27.341Z</time></trkpt><trkpt lat="43.9956031" lon="7.7609254"><ele>844.5</ele><time>2026-04-26T10:33:28.343Z</time></trkpt><trkpt lat="43.9955788" lon="7.7610977"><ele>845.0</ele><time>2026-04-26T10:33:29.34Z</time></trkpt><trkpt lat="43.9955583" lon="7.7612655"><ele>845.5</ele><time>2026-04-26T10:33:30.341Z</time></trkpt><trkpt lat="43.9955414" lon="7.7614231"><ele>846.0</ele><time>2026-04-26T10:33:31.341Z</time></trkpt><trkpt lat="43.995517" lon="7.7615775"><ele>846.0</ele><time>2026-04-26T10:33:32.34Z</time></trkpt><trkpt lat="43.9955107" lon="7.7617188"><ele>846.0</ele><time>2026-04-26T10:33:33.342Z</time></trkpt><trkpt lat="43.9954913" lon="7.7618552"><ele>846.0</ele><time>2026-04-26T10:33:34.34Z</time></trkpt><trkpt lat="43.9954746" lon="7.7619644"><ele>846.0</ele><time>2026-04-26T10:33:35.34Z</time></trkpt><trkpt lat="43.9954495" lon="7.7620499"><ele>846.0</ele><time>2026-04-26T10:33:36.34Z</time></trkpt><trkpt lat="43.9953937" lon="7.7621175"><ele>846.0</ele><time>2026-04-26T10:33:38.341Z</time></trkpt><trkpt lat="43.995332" lon="7.7620991"><ele>846.0</ele><time>2026-04-26T10:33:40.342Z</time></trkpt><trkpt lat="43.9953149" lon="7.7619482"><ele>846.0</ele><time>2026-04-26T10:33:42.341Z</time></trkpt><trkpt lat="43.995318" lon="7.761839"><ele>846.0</ele><time>2026-04-26T10:33:43.34Z</time></trkpt><trkpt lat="43.9953103" lon="7.7616918"><ele>846.0</ele><time>2026-04-26T10:33:44.341Z</time></trkpt><trkpt lat="43.9952961" lon="7.7615236"><ele>846.0</ele><time>2026-04-26T10:33:45.34Z</time></trkpt><trkpt lat="43.9953012" lon="7.7613153"><ele>846.0</ele><time>2026-04-26T10:33:46.341Z</time></trkpt><trkpt lat="43.9952997" lon="7.7611217"><ele>846.0</ele><time>2026-04-26T10:33:47.341Z</time></trkpt><trkpt lat="43.9953058" lon="7.7609418"><ele>846.0</ele><time>2026-04-26T10:33:48.342Z</time></trkpt><trkpt lat="43.9952896" lon="7.760766"><ele>846.0</ele><time>2026-04-26T10:33:49.34Z</time></trkpt><trkpt lat="43.9952807" lon="7.7605965"><ele>845.5999999999999</ele><time>2026-04-26T10:33:50.341Z</time></trkpt><trkpt lat="43.9952593" lon="7.7604436"><ele>845.2</ele><time>2026-04-26T10:33:51.342Z</time></trkpt><trkpt lat="43.995242" lon="7.7602962"><ele>844.8</ele><time>2026-04-26T10:33:52.34Z</time></trkpt><trkpt lat="43.9952283" lon="7.7601492"><ele>844.4000000000001</ele><time>2026-04-26T10:33:53.341Z</time></trkpt><trkpt lat="43.9952212" lon="7.7600166"><ele>844.0</ele><time>2026-04-26T10:33:54.342Z</time></trkpt><trkpt lat="43.9952027" lon="7.7598916"><ele>843.8333333333333</ele><time>2026-04-26T10:33:55.342Z</time></trkpt><trkpt lat="43.9951838" lon="7.7597685"><ele>843.6666666666666</ele><time>2026-04-26T10:33:56.341Z</time></trkpt><trkpt lat="43.9951406" lon="7.7596622"><ele>843.5</ele><time>2026-04-26T10:33:57.341Z</time></trkpt><trkpt lat="43.9950912" lon="7.7595708"><ele>843.3333333333333</ele><time>2026-04-26T10:33:58.342Z</time></trkpt><trkpt lat="43.9950334" lon="7.7594994"><ele>843.1666666666666</ele><time>2026-04-26T10:33:59.341Z</time></trkpt><trkpt lat="43.9949757" lon="7.7594491"><ele>843.0</ele><time>2026-04-26T10:34:00.34Z</time></trkpt><trkpt lat="43.9949155" lon="7.7594059"><ele>837.5999999999999</ele><time>2026-04-26T10:34:01.341Z</time></trkpt><trkpt lat="43.9948098" lon="7.7593283"><ele>832.1999999999999</ele><time>2026-04-26T10:34:03.341Z</time></trkpt><trkpt lat="43.9947269" lon="7.7592006"><ele>826.8</ele><time>2026-04-26T10:34:05.342Z</time></trkpt><trkpt lat="43.9947165" lon="7.759098"><ele>821.4</ele><time>2026-04-26T10:34:06.341Z</time></trkpt><trkpt lat="43.9947105" lon="7.7589899"><ele>816.0</ele><time>2026-04-26T10:34:07.34Z</time></trkpt><trkpt lat="43.9947183" lon="7.7588282"><ele>816.0</ele><time>2026-04-26T10:34:09.341Z</time></trkpt><trkpt lat="43.9946345" lon="7.7587295"><ele>816.0</ele><time>2026-04-26T10:34:11.341Z</time></trkpt><trkpt lat="43.9945431" lon="7.7587844"><ele>816.0</ele><time>2026-04-26T10:34:13.341Z</time></trkpt><trkpt lat="43.9945208" lon="7.7588737"><ele>816.0</ele><time>2026-04-26T10:34:14.341Z</time></trkpt><trkpt lat="43.9945061" lon="7.7589913"><ele>816.0</ele><time>2026-04-26T10:34:15.341Z</time></trkpt><trkpt lat="43.9945102" lon="7.7591141"><ele>816.0</ele><time>2026-04-26T10:34:16.341Z</time></trkpt><trkpt lat="43.9945114" lon="7.7592376"><ele>816.0</ele><time>2026-04-26T10:34:17.341Z</time></trkpt><trkpt lat="43.9945392" lon="7.7593422"><ele>816.0</ele><time>2026-04-26T10:34:18.341Z</time></trkpt><trkpt lat="43.9945799" lon="7.759444"><ele>816.0</ele><time>2026-04-26T10:34:19.34Z</time></trkpt><trkpt lat="43.9946024" lon="7.7595444"><ele>816.0</ele><time>2026-04-26T10:34:20.34Z</time></trkpt><trkpt lat="43.9946067" lon="7.7597095"><ele>816.0</ele><time>2026-04-26T10:34:22.341Z</time></trkpt><trkpt lat="43.9945237" lon="7.7597694"><ele>815.5999999999999</ele><time>2026-04-26T10:34:24.341Z</time></trkpt><trkpt lat="43.9944588" lon="7.7596764"><ele>815.2</ele><time>2026-04-26T10:34:26.341Z</time></trkpt><trkpt lat="43.9944457" lon="7.7595818"><ele>814.8</ele><time>2026-04-26T10:34:27.341Z</time></trkpt><trkpt lat="43.9944013" lon="7.7594241"><ele>814.4000000000001</ele><time>2026-04-26T10:34:29.341Z</time></trkpt><trkpt lat="43.9943381" lon="7.7594048"><ele>814.0</ele><time>2026-04-26T10:34:30.342Z</time></trkpt><trkpt lat="43.994242" lon="7.759466"><ele>813.9999999999999</ele><time>2026-04-26T10:34:32.341Z</time></trkpt><trkpt lat="43.9941892" lon="7.7595568"><ele>814.0</ele><time>2026-04-26T10:34:33.341Z</time></trkpt><trkpt lat="43.9941363" lon="7.7596447"><ele>814.0</ele><time>2026-04-26T10:34:34.341Z</time></trkpt><trkpt lat="43.9940816" lon="7.7597422"><ele>814.0</ele><time>2026-04-26T10:34:35.341Z</time></trkpt><trkpt lat="43.9940358" lon="7.7598417"><ele>813.9999999999999</ele><time>2026-04-26T10:34:36.341Z</time></trkpt><trkpt lat="43.9939865" lon="7.7599616"><ele>814.0</ele><time>2026-04-26T10:34:37.342Z</time></trkpt><trkpt lat="43.9939503" lon="7.7600659"><ele>810.6666666666666</ele><time>2026-04-26T10:34:38.341Z</time></trkpt><trkpt lat="43.9939273" lon="7.7601854"><ele>807.3333333333333</ele><time>2026-04-26T10:34:39.34Z</time></trkpt><trkpt lat="43.9938961" lon="7.7602909"><ele>804.0</ele><time>2026-04-26T10:34:40.341Z</time></trkpt><trkpt lat="43.9938956" lon="7.7603991"><ele>800.6666666666667</ele><time>2026-04-26T10:34:41.34Z</time></trkpt><trkpt lat="43.9939057" lon="7.7605184"><ele>797.3333333333334</ele><time>2026-04-26T10:34:42.34Z</time></trkpt><trkpt lat="43.9939296" lon="7.7606401"><ele>794.0</ele><time>2026-04-26T10:34:43.34Z</time></trkpt><trkpt lat="43.9939563" lon="7.7607586"><ele>794.0</ele><time>2026-04-26T10:34:44.342Z</time></trkpt><trkpt lat="43.9939857" lon="7.7608768"><ele>794.0</ele><time>2026-04-26T10:34:45.342Z</time></trkpt><trkpt lat="43.9940156" lon="7.7609988"><ele>794.0</ele><time>2026-04-26T10:34:46.341Z</time></trkpt><trkpt lat="43.9940411" lon="7.7611242"><ele>794.0</ele><time>2026-04-26T10:34:47.342Z</time></trkpt><trkpt lat="43.9940629" lon="7.7612402"><ele>794.0</ele><time>2026-04-26T10:34:48.342Z</time></trkpt><trkpt lat="43.9940877" lon="7.761358"><ele>793.3333333333334</ele><time>2026-04-26T10:34:49.341Z</time></trkpt><trkpt lat="43.9941109" lon="7.7614638"><ele>792.6666666666667</ele><time>2026-04-26T10:34:50.341Z</time></trkpt><trkpt lat="43.9941336" lon="7.7615718"><ele>792.0</ele><time>2026-04-26T10:34:51.342Z</time></trkpt><trkpt lat="43.9941658" lon="7.7616684"><ele>791.3333333333333</ele><time>2026-04-26T10:34:52.343Z</time></trkpt><trkpt lat="43.9941902" lon="7.7617658"><ele>790.6666666666666</ele><time>2026-04-26T10:34:53.342Z</time></trkpt><trkpt lat="43.9942015" lon="7.761871"><ele>790.0</ele><time>2026-04-26T10:34:54.341Z</time></trkpt><trkpt lat="43.9941909" lon="7.7619603"><ele>789.4999999999999</ele><time>2026-04-26T10:34:55.341Z</time></trkpt><trkpt lat="43.9941854" lon="7.7620534"><ele>789.0</ele><time>2026-04-26T10:34:56.341Z</time></trkpt><trkpt lat="43.9941985" lon="7.7622128"><ele>788.5</ele><time>2026-04-26T10:34:58.342Z</time></trkpt><trkpt lat="43.994192" lon="7.7623013"><ele>788.0</ele><time>2026-04-26T10:35:00.342Z</time></trkpt><trkpt lat="43.9941399" lon="7.7623704"><ele>787.4999999999999</ele><time>2026-04-26T10:35:03.342Z</time></trkpt><trkpt lat="43.994076" lon="7.762361"><ele>787.0</ele><time>2026-04-26T10:35:07.341Z</time></trkpt><trkpt lat="43.9940447" lon="7.7622644"><ele>786.9999999999999</ele><time>2026-04-26T10:35:09.342Z</time></trkpt><trkpt lat="43.9939995" lon="7.76212"><ele>787.0</ele><time>2026-04-26T10:35:11.341Z</time></trkpt><trkpt lat="43.9939684" lon="7.762043"><ele>787.0</ele><time>2026-04-26T10:35:12.34Z</time></trkpt><trkpt lat="43.9939334" lon="7.7619614"><ele>787.0</ele><time>2026-04-26T10:35:13.34Z</time></trkpt><trkpt lat="43.993902" lon="7.7618831"><ele>786.9999999999999</ele><time>2026-04-26T10:35:14.34Z</time></trkpt><trkpt lat="43.9938587" lon="7.7617343"><ele>787.0</ele><time>2026-04-26T10:35:16.341Z</time></trkpt><trkpt lat="43.9938378" lon="7.7616484"><ele>787.4999999999999</ele><time>2026-04-26T10:35:17.341Z</time></trkpt><trkpt lat="43.9938103" lon="7.7615589"><ele>788.0</ele><time>2026-04-26T10:35:18.34Z</time></trkpt><trkpt lat="43.9937734" lon="7.7614736"><ele>788.5</ele><time>2026-04-26T10:35:19.34Z</time></trkpt><trkpt lat="43.9937392" lon="7.7613959"><ele>789.0</ele><time>2026-04-26T10:35:20.341Z</time></trkpt><trkpt lat="43.993711" lon="7.7613172"><ele>789.4999999999999</ele><time>2026-04-26T10:35:21.341Z</time></trkpt><trkpt lat="43.993662" lon="7.761172"><ele>790.0</ele><time>2026-04-26T10:35:23.342Z</time></trkpt><trkpt lat="43.9936171" lon="7.7610515"><ele>790.8</ele><time>2026-04-26T10:35:25.341Z</time></trkpt><trkpt lat="43.9935805" lon="7.760936"><ele>791.6</ele><time>2026-04-26T10:35:27.34Z</time></trkpt><trkpt lat="43.9935427" lon="7.7608116"><ele>792.4000000000001</ele><time>2026-04-26T10:35:30.341Z</time></trkpt><trkpt lat="43.9934949" lon="7.7606764"><ele>793.2</ele><time>2026-04-26T10:35:32.341Z</time></trkpt><trkpt lat="43.9934434" lon="7.760549"><ele>794.0</ele><time>2026-04-26T10:35:34.341Z</time></trkpt><trkpt lat="43.9933921" lon="7.7604897"><ele>790.5000000000001</ele><time>2026-04-26T10:35:36.341Z</time></trkpt><trkpt lat="43.9933115" lon="7.760495"><ele>787.0</ele><time>2026-04-26T10:35:39.34Z</time></trkpt><trkpt lat="43.9932742" lon="7.7606276"><ele>783.5</ele><time>2026-04-26T10:35:41.341Z</time></trkpt><trkpt lat="43.9932695" lon="7.7607221"><ele>780.0</ele><time>2026-04-26T10:35:42.341Z</time></trkpt><trkpt lat="43.9932676" lon="7.7608326"><ele>776.5000000000001</ele><time>2026-04-26T10:35:43.341Z</time></trkpt><trkpt lat="43.9932573" lon="7.7609588"><ele>773.0</ele><time>2026-04-26T10:35:44.341Z</time></trkpt><trkpt lat="43.9932423" lon="7.7610988"><ele>773.0</ele><time>2026-04-26T10:35:45.342Z</time></trkpt><trkpt lat="43.9932287" lon="7.7612497"><ele>773.0</ele><time>2026-04-26T10:35:46.34Z</time></trkpt><trkpt lat="43.9932156" lon="7.7614011"><ele>773.0</ele><time>2026-04-26T10:35:47.341Z</time></trkpt><trkpt lat="43.9932014" lon="7.7615485"><ele>773.0</ele><time>2026-04-26T10:35:48.342Z</time></trkpt><trkpt lat="43.9931839" lon="7.7616968"><ele>773.0</ele><time>2026-04-26T10:35:49.341Z</time></trkpt><trkpt lat="43.9931805" lon="7.7618287"><ele>772.5000000000001</ele><time>2026-04-26T10:35:50.342Z</time></trkpt><trkpt lat="43.9931815" lon="7.7619629"><ele>772.0</ele><time>2026-04-26T10:35:51.34Z</time></trkpt><trkpt lat="43.993193" lon="7.7620864"><ele>771.5</ele><time>2026-04-26T10:35:52.341Z</time></trkpt><trkpt lat="43.9932075" lon="7.7622036"><ele>771.0</ele><time>2026-04-26T10:35:53.34Z</time></trkpt><trkpt lat="43.9932274" lon="7.7622991"><ele>770.5000000000001</ele><time>2026-04-26T10:35:54.341Z</time></trkpt><trkpt lat="43.9932399" lon="7.7623903"><ele>770.0</ele><time>2026-04-26T10:35:55.342Z</time></trkpt><trkpt lat="43.9932614" lon="7.762549"><ele>769.1666666666667</ele><time>2026-04-26T10:35:57.341Z</time></trkpt><trkpt lat="43.9932741" lon="7.7627147"><ele>768.3333333333334</ele><time>2026-04-26T10:35:59.342Z</time></trkpt><trkpt lat="43.9932731" lon="7.7628065"><ele>767.5</ele><time>2026-04-26T10:36:00.341Z</time></trkpt><trkpt lat="43.9932699" lon="7.7629067"><ele>766.6666666666667</ele><time>2026-04-26T10:36:01.342Z</time></trkpt><trkpt lat="43.9932624" lon="7.763009"><ele>765.8333333333334</ele><time>2026-04-26T10:36:02.341Z</time></trkpt><trkpt lat="43.9932453" lon="7.7631172"><ele>765.0</ele><time>2026-04-26T10:36:03.342Z</time></trkpt><trkpt lat="43.9932312" lon="7.763218"><ele>765.0</ele><time>2026-04-26T10:36:04.341Z</time></trkpt><trkpt lat="43.9932191" lon="7.7633233"><ele>765.0</ele><time>2026-04-26T10:36:05.342Z</time></trkpt><trkpt lat="43.993212" lon="7.7634507"><ele>765.0</ele><time>2026-04-26T10:36:06.341Z</time></trkpt><trkpt lat="43.9931991" lon="7.7635748"><ele>765.0</ele><time>2026-04-26T10:36:07.342Z</time></trkpt><trkpt lat="43.9931883" lon="7.7636977"><ele>765.0</ele><time>2026-04-26T10:36:08.341Z</time></trkpt><trkpt lat="43.9931675" lon="7.7638257"><ele>765.0</ele><time>2026-04-26T10:36:09.34Z</time></trkpt><trkpt lat="43.993137" lon="7.7639579"><ele>766.8</ele><time>2026-04-26T10:36:10.341Z</time></trkpt><trkpt lat="43.9930979" lon="7.7640881"><ele>768.6</ele><time>2026-04-26T10:36:11.341Z</time></trkpt><trkpt lat="43.9930488" lon="7.7642197"><ele>770.4000000000001</ele><time>2026-04-26T10:36:12.34Z</time></trkpt><trkpt lat="43.9929993" lon="7.7643602"><ele>772.2</ele><time>2026-04-26T10:36:13.342Z</time></trkpt><trkpt lat="43.9929461" lon="7.7644908"><ele>774.0</ele><time>2026-04-26T10:36:14.341Z</time></trkpt><trkpt lat="43.992888" lon="7.7646091"><ele>778.8000000000001</ele><time>2026-04-26T10:36:15.341Z</time></trkpt><trkpt lat="43.9928312" lon="7.764715"><ele>783.6</ele><time>2026-04-26T10:36:16.341Z</time></trkpt><trkpt lat="43.9927689" lon="7.7648183"><ele>788.4</ele><time>2026-04-26T10:36:17.341Z</time></trkpt><trkpt lat="43.9926893" lon="7.7648998"><ele>793.2</ele><time>2026-04-26T10:36:18.341Z</time></trkpt><trkpt lat="43.9926188" lon="7.7649737"><ele>798.0</ele><time>2026-04-26T10:36:19.341Z</time></trkpt><trkpt lat="43.9925476" lon="7.7650482"><ele>794.3333333333334</ele><time>2026-04-26T10:36:20.341Z</time></trkpt><trkpt lat="43.9924726" lon="7.7651158"><ele>790.6666666666667</ele><time>2026-04-26T10:36:21.342Z</time></trkpt><trkpt lat="43.992397" lon="7.7651803"><ele>787.0</ele><time>2026-04-26T10:36:22.34Z</time></trkpt><trkpt lat="43.9923187" lon="7.7652482"><ele>783.3333333333334</ele><time>2026-04-26T10:36:23.342Z</time></trkpt><trkpt lat="43.992241" lon="7.7653035"><ele>779.6666666666667</ele><time>2026-04-26T10:36:24.341Z</time></trkpt><trkpt lat="43.9921647" lon="7.7653525"><ele>776.0</ele><time>2026-04-26T10:36:25.342Z</time></trkpt><trkpt lat="43.9920876" lon="7.7654049"><ele>776.0</ele><time>2026-04-26T10:36:26.341Z</time></trkpt><trkpt lat="43.9920174" lon="7.765442"><ele>776.0</ele><time>2026-04-26T10:36:27.341Z</time></trkpt><trkpt lat="43.9919451" lon="7.7654873"><ele>776.0</ele><time>2026-04-26T10:36:28.341Z</time></trkpt><trkpt lat="43.9918834" lon="7.7655147"><ele>776.0</ele><time>2026-04-26T10:36:29.342Z</time></trkpt><trkpt lat="43.9918074" lon="7.7655654"><ele>776.0</ele><time>2026-04-26T10:36:31.341Z</time></trkpt><trkpt lat="43.9917486" lon="7.7656257"><ele>776.0</ele><time>2026-04-26T10:36:33.34Z</time></trkpt><trkpt lat="43.9917067" lon="7.7656983"><ele>776.0</ele><time>2026-04-26T10:36:35.342Z</time></trkpt><trkpt lat="43.9916602" lon="7.7657734"><ele>772.6666666666667</ele><time>2026-04-26T10:36:37.343Z</time></trkpt><trkpt lat="43.991591" lon="7.7658799"><ele>769.3333333333334</ele><time>2026-04-26T10:36:39.342Z</time></trkpt><trkpt lat="43.9915501" lon="7.7659633"><ele>766.0</ele><time>2026-04-26T10:36:40.342Z</time></trkpt><trkpt lat="43.9915163" lon="7.7660513"><ele>762.6666666666667</ele><time>2026-04-26T10:36:41.342Z</time></trkpt><trkpt lat="43.9914791" lon="7.7661408"><ele>759.3333333333334</ele><time>2026-04-26T10:36:42.34Z</time></trkpt><trkpt lat="43.9914356" lon="7.7662481"><ele>756.0</ele><time>2026-04-26T10:36:43.341Z</time></trkpt><trkpt lat="43.9913973" lon="7.7663476"><ele>756.0</ele><time>2026-04-26T10:36:44.343Z</time></trkpt><trkpt lat="43.9913575" lon="7.7664664"><ele>756.0</ele><time>2026-04-26T10:36:45.34Z</time></trkpt><trkpt lat="43.9913157" lon="7.7665872"><ele>756.0</ele><time>2026-04-26T10:36:46.342Z</time></trkpt><trkpt lat="43.9912745" lon="7.7667175"><ele>756.0</ele><time>2026-04-26T10:36:47.34Z</time></trkpt><trkpt lat="43.9912306" lon="7.7668566"><ele>756.0</ele><time>2026-04-26T10:36:48.34Z</time></trkpt><trkpt lat="43.9911808" lon="7.7670023"><ele>759.1999999999999</ele><time>2026-04-26T10:36:49.34Z</time></trkpt><trkpt lat="43.9911193" lon="7.7671309"><ele>762.4</ele><time>2026-04-26T10:36:50.342Z</time></trkpt><trkpt lat="43.9910499" lon="7.7672527"><ele>765.6</ele><time>2026-04-26T10:36:51.341Z</time></trkpt><trkpt lat="43.9909736" lon="7.7673617"><ele>768.8</ele><time>2026-04-26T10:36:52.341Z</time></trkpt><trkpt lat="43.9908928" lon="7.7674613"><ele>772.0</ele><time>2026-04-26T10:36:53.343Z</time></trkpt><trkpt lat="43.9908128" lon="7.7675625"><ele>764.4000000000001</ele><time>2026-04-26T10:36:54.341Z</time></trkpt><trkpt lat="43.9907351" lon="7.767662"><ele>756.8000000000001</ele><time>2026-04-26T10:36:55.341Z</time></trkpt><trkpt lat="43.9906632" lon="7.7677672"><ele>749.2</ele><time>2026-04-26T10:36:56.342Z</time></trkpt><trkpt lat="43.9906012" lon="7.7678811"><ele>741.6</ele><time>2026-04-26T10:36:57.342Z</time></trkpt><trkpt lat="43.9905355" lon="7.7679998"><ele>734.0</ele><time>2026-04-26T10:36:58.341Z</time></trkpt><trkpt lat="43.9904727" lon="7.7681248"><ele>734.0</ele><time>2026-04-26T10:36:59.342Z</time></trkpt><trkpt lat="43.9904165" lon="7.7682475"><ele>734.0</ele><time>2026-04-26T10:37:00.342Z</time></trkpt><trkpt lat="43.9903659" lon="7.7683592"><ele>734.0</ele><time>2026-04-26T10:37:01.341Z</time></trkpt><trkpt lat="43.990316" lon="7.7684713"><ele>734.0</ele><time>2026-04-26T10:37:02.34Z</time></trkpt><trkpt lat="43.9902898" lon="7.768583"><ele>734.0</ele><time>2026-04-26T10:37:03.341Z</time></trkpt><trkpt lat="43.9902747" lon="7.7686865"><ele>728.8333333333333</ele><time>2026-04-26T10:37:04.342Z</time></trkpt><trkpt lat="43.9903116" lon="7.7687842"><ele>723.6666666666666</ele><time>2026-04-26T10:37:05.34Z</time></trkpt><trkpt lat="43.9903734" lon="7.7688403"><ele>718.5</ele><time>2026-04-26T10:37:06.341Z</time></trkpt><trkpt lat="43.9904444" lon="7.7688654"><ele>713.3333333333334</ele><time>2026-04-26T10:37:07.34Z</time></trkpt><trkpt lat="43.9905217" lon="7.7688678"><ele>708.1666666666667</ele><time>2026-04-26T10:37:08.342Z</time></trkpt><trkpt lat="43.9906193" lon="7.7688669"><ele>703.0</ele><time>2026-04-26T10:37:09.342Z</time></trkpt><trkpt lat="43.9907247" lon="7.7688613"><ele>703.0</ele><time>2026-04-26T10:37:10.34Z</time></trkpt><trkpt lat="43.9908298" lon="7.7688575"><ele>703.0</ele><time>2026-04-26T10:37:11.343Z</time></trkpt><trkpt lat="43.9909365" lon="7.7688563"><ele>703.0</ele><time>2026-04-26T10:37:12.342Z</time></trkpt><trkpt lat="43.9910418" lon="7.7688588"><ele>703.0</ele><time>2026-04-26T10:37:13.341Z</time></trkpt><trkpt lat="43.9911415" lon="7.768868"><ele>703.0</ele><time>2026-04-26T10:37:14.342Z</time></trkpt><trkpt lat="43.9912372" lon="7.7688908"><ele>705.2</ele><time>2026-04-26T10:37:15.342Z</time></trkpt><trkpt lat="43.9913263" lon="7.7689797"><ele>707.4</ele><time>2026-04-26T10:37:16.342Z</time></trkpt><trkpt lat="43.9914089" lon="7.7690425"><ele>709.6</ele><time>2026-04-26T10:37:17.342Z</time></trkpt><trkpt lat="43.9915017" lon="7.7690988"><ele>711.8000000000001</ele><time>2026-04-26T10:37:18.341Z</time></trkpt><trkpt lat="43.9915997" lon="7.769145"><ele>714.0</ele><time>2026-04-26T10:37:19.342Z</time></trkpt><trkpt lat="43.9917008" lon="7.7691943"><ele>714.2</ele><time>2026-04-26T10:37:20.342Z</time></trkpt><trkpt lat="43.9917936" lon="7.7692609"><ele>714.4000000000001</ele><time>2026-04-26T10:37:21.341Z</time></trkpt><trkpt lat="43.9918771" lon="7.7693599"><ele>714.6</ele><time>2026-04-26T10:37:22.341Z</time></trkpt><trkpt lat="43.9919553" lon="7.7694814"><ele>714.8</ele><time>2026-04-26T10:37:23.34Z</time></trkpt><trkpt lat="43.9920262" lon="7.7696048"><ele>715.0</ele><time>2026-04-26T10:37:24.341Z</time></trkpt><trkpt lat="43.9920928" lon="7.7697171"><ele>710.6666666666667</ele><time>2026-04-26T10:37:25.342Z</time></trkpt><trkpt lat="43.9921592" lon="7.7698066"><ele>706.3333333333334</ele><time>2026-04-26T10:37:26.341Z</time></trkpt><trkpt lat="43.9922355" lon="7.7698546"><ele>702.0</ele><time>2026-04-26T10:37:27.343Z</time></trkpt><trkpt lat="43.9923125" lon="7.7698543"><ele>697.6666666666666</ele><time>2026-04-26T10:37:28.341Z</time></trkpt><trkpt lat="43.9923872" lon="7.7698015"><ele>693.3333333333333</ele><time>2026-04-26T10:37:29.343Z</time></trkpt><trkpt lat="43.9924627" lon="7.7697322"><ele>689.0</ele><time>2026-04-26T10:37:30.34Z</time></trkpt><trkpt lat="43.992543" lon="7.7696442"><ele>684.6</ele><time>2026-04-26T10:37:31.342Z</time></trkpt><trkpt lat="43.992617" lon="7.7695407"><ele>680.2</ele><time>2026-04-26T10:37:32.341Z</time></trkpt><trkpt lat="43.9926927" lon="7.7694266"><ele>675.8000000000001</ele><time>2026-04-26T10:37:33.342Z</time></trkpt><trkpt lat="43.9927335" lon="7.7692789"><ele>671.4000000000001</ele><time>2026-04-26T10:37:34.342Z</time></trkpt><trkpt lat="43.9927875" lon="7.7691453"><ele>667.0</ele><time>2026-04-26T10:37:35.341Z</time></trkpt><trkpt lat="43.9928388" lon="7.7689963"><ele>667.0</ele><time>2026-04-26T10:37:36.34Z</time></trkpt><trkpt lat="43.992905" lon="7.7688548"><ele>667.0</ele><time>2026-04-26T10:37:37.342Z</time></trkpt><trkpt lat="43.9929614" lon="7.7687222"><ele>667.0</ele><time>2026-04-26T10:37:38.342Z</time></trkpt><trkpt lat="43.993025" lon="7.7685926"><ele>667.0</ele><time>2026-04-26T10:37:39.342Z</time></trkpt><trkpt lat="43.9930945" lon="7.7684543"><ele>666.4000000000001</ele><time>2026-04-26T10:37:40.341Z</time></trkpt><trkpt lat="43.9931662" lon="7.7683205"><ele>665.8000000000001</ele><time>2026-04-26T10:37:41.343Z</time></trkpt><trkpt lat="43.9932293" lon="7.7681914"><ele>665.2</ele><time>2026-04-26T10:37:42.341Z</time></trkpt><trkpt lat="43.9932731" lon="7.7680638"><ele>664.6</ele><time>2026-04-26T10:37:43.342Z</time></trkpt><trkpt lat="43.9933421" lon="7.7679631"><ele>664.0</ele><time>2026-04-26T10:37:44.342Z</time></trkpt><trkpt lat="43.9934226" lon="7.7678846"><ele>664.0</ele><time>2026-04-26T10:37:45.341Z</time></trkpt><trkpt lat="43.9935121" lon="7.7678242"><ele>664.0</ele><time>2026-04-26T10:37:46.34Z</time></trkpt><trkpt lat="43.9936036" lon="7.7677678"><ele>664.0</ele><time>2026-04-26T10:37:47.341Z</time></trkpt><trkpt lat="43.9937038" lon="7.7677143"><ele>664.0</ele><time>2026-04-26T10:37:48.341Z</time></trkpt><trkpt lat="43.993807" lon="7.7676808"><ele>664.0</ele><time>2026-04-26T10:37:49.342Z</time></trkpt><trkpt lat="43.9938931" lon="7.7676542"><ele>664.0</ele><time>2026-04-26T10:37:50.342Z</time></trkpt><trkpt lat="43.993982" lon="7.767659"><ele>664.0</ele><time>2026-04-26T10:37:51.34Z</time></trkpt><trkpt lat="43.9940585" lon="7.7676935"><ele>664.0</ele><time>2026-04-26T10:37:52.34Z</time></trkpt><trkpt lat="43.9941242" lon="7.7677854"><ele>664.0</ele><time>2026-04-26T10:37:53.341Z</time></trkpt><trkpt lat="43.994206" lon="7.7678718"><ele>664.0</ele><time>2026-04-26T10:37:54.341Z</time></trkpt><trkpt lat="43.9943059" lon="7.7679454"><ele>666.0</ele><time>2026-04-26T10:37:55.341Z</time></trkpt><trkpt lat="43.9944178" lon="7.767996"><ele>668.0</ele><time>2026-04-26T10:37:56.34Z</time></trkpt><trkpt lat="43.9945359" lon="7.7680237"><ele>670.0</ele><time>2026-04-26T10:37:57.343Z</time></trkpt><trkpt lat="43.9946581" lon="7.7680655"><ele>672.0</ele><time>2026-04-26T10:37:58.342Z</time></trkpt><trkpt lat="43.9947743" lon="7.7681224"><ele>672.0</ele><time>2026-04-26T10:37:59.34Z</time></trkpt><trkpt lat="43.994876" lon="7.7681909"><ele>672.0</ele><time>2026-04-26T10:38:00.343Z</time></trkpt><trkpt lat="43.9949716" lon="7.7682695"><ele>672.0</ele><time>2026-04-26T10:38:01.341Z</time></trkpt><trkpt lat="43.9950724" lon="7.7683279"><ele>672.0</ele><time>2026-04-26T10:38:02.34Z</time></trkpt><trkpt lat="43.9951722" lon="7.768377"><ele>672.0</ele><time>2026-04-26T10:38:03.342Z</time></trkpt><trkpt lat="43.9952783" lon="7.7683926"><ele>671.5</ele><time>2026-04-26T10:38:04.34Z</time></trkpt><trkpt lat="43.9953738" lon="7.7683926"><ele>671.0</ele><time>2026-04-26T10:38:05.342Z</time></trkpt><trkpt lat="43.9954696" lon="7.7683711"><ele>670.5</ele><time>2026-04-26T10:38:06.341Z</time></trkpt><trkpt lat="43.9955576" lon="7.7683464"><ele>670.0</ele><time>2026-04-26T10:38:07.341Z</time></trkpt><trkpt lat="43.9956405" lon="7.7683193"><ele>669.5</ele><time>2026-04-26T10:38:08.341Z</time></trkpt><trkpt lat="43.9957108" lon="7.7682962"><ele>669.0</ele><time>2026-04-26T10:38:09.341Z</time></trkpt><trkpt lat="43.9957877" lon="7.7682467"><ele>663.6</ele><time>2026-04-26T10:38:10.342Z</time></trkpt><trkpt lat="43.9958621" lon="7.7681976"><ele>658.2</ele><time>2026-04-26T10:38:11.34Z</time></trkpt><trkpt lat="43.9959343" lon="7.7681293"><ele>652.8000000000001</ele><time>2026-04-26T10:38:12.34Z</time></trkpt><trkpt lat="43.9960066" lon="7.7680634"><ele>647.4000000000001</ele><time>2026-04-26T10:38:13.343Z</time></trkpt><trkpt lat="43.9960907" lon="7.7679781"><ele>642.0</ele><time>2026-04-26T10:38:14.341Z</time></trkpt><trkpt lat="43.9961772" lon="7.7678935"><ele>642.0</ele><time>2026-04-26T10:38:15.341Z</time></trkpt><trkpt lat="43.9962685" lon="7.7678142"><ele>642.0</ele><time>2026-04-26T10:38:16.342Z</time></trkpt><trkpt lat="43.9963531" lon="7.7677697"><ele>642.0</ele><time>2026-04-26T10:38:17.342Z</time></trkpt><trkpt lat="43.9964333" lon="7.7677274"><ele>642.0</ele><time>2026-04-26T10:38:18.34Z</time></trkpt><trkpt lat="43.9965088" lon="7.767686"><ele>642.0</ele><time>2026-04-26T10:38:19.34Z</time></trkpt><trkpt lat="43.9965833" lon="7.7676378"><ele>642.0</ele><time>2026-04-26T10:38:20.341Z</time></trkpt><trkpt lat="43.9966565" lon="7.7675931"><ele>642.8333333333334</ele><time>2026-04-26T10:38:21.343Z</time></trkpt><trkpt lat="43.9967281" lon="7.7675368"><ele>643.6666666666666</ele><time>2026-04-26T10:38:22.342Z</time></trkpt><trkpt lat="43.9967963" lon="7.7674804"><ele>644.5</ele><time>2026-04-26T10:38:23.341Z</time></trkpt><trkpt lat="43.9968672" lon="7.7674338"><ele>645.3333333333333</ele><time>2026-04-26T10:38:24.343Z</time></trkpt><trkpt lat="43.9969454" lon="7.7673881"><ele>646.1666666666666</ele><time>2026-04-26T10:38:25.342Z</time></trkpt><trkpt lat="43.9970503" lon="7.7673779"><ele>647.0</ele><time>2026-04-26T10:38:26.341Z</time></trkpt><trkpt lat="43.9971592" lon="7.7673893"><ele>647.0</ele><time>2026-04-26T10:38:27.342Z</time></trkpt><trkpt lat="43.9972694" lon="7.7674052"><ele>647.0</ele><time>2026-04-26T10:38:28.341Z</time></trkpt><trkpt lat="43.9973756" lon="7.7674151"><ele>647.0</ele><time>2026-04-26T10:38:29.341Z</time></trkpt><trkpt lat="43.9974721" lon="7.7673934"><ele>647.0</ele><time>2026-04-26T10:38:30.342Z</time></trkpt><trkpt lat="43.9975569" lon="7.7673368"><ele>647.0</ele><time>2026-04-26T10:38:31.342Z</time></trkpt><trkpt lat="43.9976384" lon="7.7672836"><ele>641.25</ele><time>2026-04-26T10:38:32.342Z</time></trkpt><trkpt lat="43.9977331" lon="7.767203"><ele>635.5</ele><time>2026-04-26T10:38:33.343Z</time></trkpt><trkpt lat="43.9978313" lon="7.7671339"><ele>629.75</ele><time>2026-04-26T10:38:34.341Z</time></trkpt><trkpt lat="43.9979279" lon="7.7670448"><ele>624.0</ele><time>2026-04-26T10:38:35.341Z</time></trkpt><trkpt lat="43.9980236" lon="7.7669483"><ele>630.5</ele><time>2026-04-26T10:38:36.342Z</time></trkpt><trkpt lat="43.9981154" lon="7.766825"><ele>637.0</ele><time>2026-04-26T10:38:37.341Z</time></trkpt><trkpt lat="43.9982034" lon="7.7667011"><ele>643.5</ele><time>2026-04-26T10:38:38.34Z</time></trkpt><trkpt lat="43.9982791" lon="7.7665893"><ele>650.0</ele><time>2026-04-26T10:38:39.341Z</time></trkpt><trkpt lat="43.9983314" lon="7.7664697"><ele>649.0</ele><time>2026-04-26T10:38:40.342Z</time></trkpt><trkpt lat="43.9983918" lon="7.7663866"><ele>648.0</ele><time>2026-04-26T10:38:41.343Z</time></trkpt><trkpt lat="43.9984593" lon="7.7663188"><ele>647.0</ele><time>2026-04-26T10:38:42.341Z</time></trkpt><trkpt lat="43.9985262" lon="7.766304"><ele>646.0</ele><time>2026-04-26T10:38:43.343Z</time></trkpt><trkpt lat="43.998598" lon="7.7663399"><ele>645.0</ele><time>2026-04-26T10:38:44.341Z</time></trkpt><trkpt lat="43.9986732" lon="7.7664233"><ele>644.0</ele><time>2026-04-26T10:38:45.34Z</time></trkpt><trkpt lat="43.9987615" lon="7.7665148"><ele>644.0</ele><time>2026-04-26T10:38:46.342Z</time></trkpt><trkpt lat="43.9988596" lon="7.7666152"><ele>644.0</ele><time>2026-04-26T10:38:47.341Z</time></trkpt><trkpt lat="43.9989639" lon="7.7667197"><ele>644.0</ele><time>2026-04-26T10:38:48.342Z</time></trkpt><trkpt lat="43.9990774" lon="7.7668086"><ele>644.0</ele><time>2026-04-26T10:38:49.342Z</time></trkpt><trkpt lat="43.9992092" lon="7.7668854"><ele>635.75</ele><time>2026-04-26T10:38:50.341Z</time></trkpt><trkpt lat="43.9993489" lon="7.7669263"><ele>627.5</ele><time>2026-04-26T10:38:51.341Z</time></trkpt><trkpt lat="43.9994862" lon="7.7669416"><ele>619.25</ele><time>2026-04-26T10:38:52.342Z</time></trkpt><trkpt lat="43.9996207" lon="7.7669763"><ele>611.0</ele><time>2026-04-26T10:38:53.341Z</time></trkpt><trkpt lat="43.9997495" lon="7.7670234"><ele>611.0</ele><time>2026-04-26T10:38:54.341Z</time></trkpt><trkpt lat="43.9998747" lon="7.7670368"><ele>611.0</ele><time>2026-04-26T10:38:55.341Z</time></trkpt><trkpt lat="43.9999954" lon="7.7670146"><ele>611.0</ele><time>2026-04-26T10:38:56.341Z</time></trkpt><trkpt lat="44.000114" lon="7.7669591"><ele>611.0</ele><time>2026-04-26T10:38:57.342Z</time></trkpt><trkpt lat="44.0002267" lon="7.7668991"><ele>620.25</ele><time>2026-04-26T10:38:58.341Z</time></trkpt><trkpt lat="44.0003484" lon="7.7668578"><ele>629.5</ele><time>2026-04-26T10:38:59.342Z</time></trkpt><trkpt lat="44.0004796" lon="7.7668494"><ele>638.75</ele><time>2026-04-26T10:39:00.343Z</time></trkpt><trkpt lat="44.0006028" lon="7.7668457"><ele>648.0</ele><time>2026-04-26T10:39:01.341Z</time></trkpt><trkpt lat="44.000718" lon="7.7668392"><ele>648.0</ele><time>2026-04-26T10:39:02.341Z</time></trkpt><trkpt lat="44.0008154" lon="7.7668484"><ele>648.0</ele><time>2026-04-26T10:39:03.343Z</time></trkpt><trkpt lat="44.0009066" lon="7.7668432"><ele>648.0</ele><time>2026-04-26T10:39:04.341Z</time></trkpt><trkpt lat="44.0009954" lon="7.7668201"><ele>648.0</ele><time>2026-04-26T10:39:05.341Z</time></trkpt><trkpt lat="44.001056" lon="7.7667267"><ele>648.0</ele><time>2026-04-26T10:39:06.342Z</time></trkpt><trkpt lat="44.001114" lon="7.7666697"><ele>648.0</ele><time>2026-04-26T10:39:07.341Z</time></trkpt><trkpt lat="44.0011736" lon="7.766641"><ele>646.3333333333334</ele><time>2026-04-26T10:39:08.341Z</time></trkpt><trkpt lat="44.0012475" lon="7.7667127"><ele>644.6666666666666</ele><time>2026-04-26T10:39:10.341Z</time></trkpt><trkpt lat="44.0011884" lon="7.766807"><ele>643.0</ele><time>2026-04-26T10:39:12.342Z</time></trkpt><trkpt lat="44.0011191" lon="7.7668501"><ele>641.3333333333333</ele><time>2026-04-26T10:39:13.342Z</time></trkpt><trkpt lat="44.0010329" lon="7.7668812"><ele>639.6666666666666</ele><time>2026-04-26T10:39:14.341Z</time></trkpt><trkpt lat="44.0009329" lon="7.7668992"><ele>638.0</ele><time>2026-04-26T10:39:15.342Z</time></trkpt><trkpt lat="44.0008315" lon="7.766912"><ele>632.6</ele><time>2026-04-26T10:39:16.341Z</time></trkpt><trkpt lat="44.0007282" lon="7.7669183"><ele>627.1999999999999</ele><time>2026-04-26T10:39:17.341Z</time></trkpt><trkpt lat="44.000629" lon="7.7669519"><ele>621.8</ele><time>2026-04-26T10:39:18.342Z</time></trkpt><trkpt lat="44.0005312" lon="7.7669913"><ele>616.4</ele><time>2026-04-26T10:39:19.342Z</time></trkpt><trkpt lat="44.0004384" lon="7.7670546"><ele>611.0</ele><time>2026-04-26T10:39:20.341Z</time></trkpt><trkpt lat="44.0003357" lon="7.7671266"><ele>611.0</ele><time>2026-04-26T10:39:21.342Z</time></trkpt><trkpt lat="44.0002297" lon="7.7672099"><ele>611.0</ele><time>2026-04-26T10:39:22.343Z</time></trkpt><trkpt lat="44.0001272" lon="7.7672946"><ele>611.0</ele><time>2026-04-26T10:39:23.342Z</time></trkpt><trkpt lat="44.000027" lon="7.7673674"><ele>611.0</ele><time>2026-04-26T10:39:24.341Z</time></trkpt><trkpt lat="43.9999255" lon="7.7674317"><ele>611.0</ele><time>2026-04-26T10:39:25.34Z</time></trkpt><trkpt lat="43.999838" lon="7.767489"><ele>611.0</ele><time>2026-04-26T10:39:26.341Z</time></trkpt><trkpt lat="43.9997557" lon="7.7675368"><ele>611.0</ele><time>2026-04-26T10:39:27.342Z</time></trkpt><trkpt lat="43.9996725" lon="7.7675465"><ele>611.0</ele><time>2026-04-26T10:39:28.343Z</time></trkpt><trkpt lat="43.9996018" lon="7.7675309"><ele>611.0</ele><time>2026-04-26T10:39:29.341Z</time></trkpt><trkpt lat="43.9995406" lon="7.7674867"><ele>611.0</ele><time>2026-04-26T10:39:30.341Z</time></trkpt><trkpt lat="43.9994894" lon="7.7674227"><ele>611.0</ele><time>2026-04-26T10:39:31.341Z</time></trkpt><trkpt lat="43.9993824" lon="7.7673756"><ele>611.0</ele><time>2026-04-26T10:39:33.342Z</time></trkpt><trkpt lat="43.9993236" lon="7.7674837"><ele>611.0</ele><time>2026-04-26T10:39:35.342Z</time></trkpt><trkpt lat="43.9993328" lon="7.7675759"><ele>611.0</ele><time>2026-04-26T10:39:36.342Z</time></trkpt><trkpt lat="43.9994432" lon="7.767684"><ele>611.0</ele><time>2026-04-26T10:39:38.341Z</time></trkpt><trkpt lat="43.9995326" lon="7.7677008"><ele>611.0</ele><time>2026-04-26T10:39:39.341Z</time></trkpt><trkpt lat="43.9996344" lon="7.7676948"><ele>611.0</ele><time>2026-04-26T10:39:40.342Z</time></trkpt><trkpt lat="43.9997509" lon="7.7676658"><ele>611.0</ele><time>2026-04-26T10:39:41.342Z</time></trkpt><trkpt lat="43.9998774" lon="7.7676324"><ele>611.0</ele><time>2026-04-26T10:39:42.342Z</time></trkpt><trkpt lat="44.0000017" lon="7.7675902"><ele>611.0</ele><time>2026-04-26T10:39:43.34Z</time></trkpt><trkpt lat="44.0001242" lon="7.7675363"><ele>611.0</ele><time>2026-04-26T10:39:44.342Z</time></trkpt><trkpt lat="44.0002566" lon="7.7674777"><ele>611.0</ele><time>2026-04-26T10:39:45.342Z</time></trkpt><trkpt lat="44.0003899" lon="7.7674102"><ele>611.0</ele><time>2026-04-26T10:39:46.341Z</time></trkpt><trkpt lat="44.0005328" lon="7.7673568"><ele>611.0</ele><time>2026-04-26T10:39:47.342Z</time></trkpt><trkpt lat="44.0006647" lon="7.767321"><ele>611.0</ele><time>2026-04-26T10:39:48.342Z</time></trkpt><trkpt lat="44.0007984" lon="7.7672858"><ele>611.0</ele><time>2026-04-26T10:39:49.342Z</time></trkpt><trkpt lat="44.0009284" lon="7.7672562"><ele>611.0</ele><time>2026-04-26T10:39:50.341Z</time></trkpt><trkpt lat="44.001044" lon="7.7672322"><ele>606.75</ele><time>2026-04-26T10:39:51.341Z</time></trkpt><trkpt lat="44.0011621" lon="7.7672004"><ele>602.5</ele><time>2026-04-26T10:39:52.342Z</time></trkpt><trkpt lat="44.0012777" lon="7.7671598"><ele>598.25</ele><time>2026-04-26T10:39:53.341Z</time></trkpt><trkpt lat="44.0013898" lon="7.7671204"><ele>594.0</ele><time>2026-04-26T10:39:54.342Z</time></trkpt><trkpt lat="44.0015005" lon="7.7670795"><ele>594.0</ele><time>2026-04-26T10:39:55.34Z</time></trkpt><trkpt lat="44.0016149" lon="7.7670282"><ele>594.0</ele><time>2026-04-26T10:39:56.342Z</time></trkpt><trkpt lat="44.0017273" lon="7.7669626"><ele>594.0</ele><time>2026-04-26T10:39:57.341Z</time></trkpt><trkpt lat="44.0018343" lon="7.7668776"><ele>594.0</ele><time>2026-04-26T10:39:58.341Z</time></trkpt><trkpt lat="44.0019424" lon="7.7667969"><ele>601.0</ele><time>2026-04-26T10:39:59.341Z</time></trkpt><trkpt lat="44.0020585" lon="7.7667218"><ele>608.0</ele><time>2026-04-26T10:40:00.341Z</time></trkpt><trkpt lat="44.0021795" lon="7.7666779"><ele>615.0</ele><time>2026-04-26T10:40:01.341Z</time></trkpt><trkpt lat="44.0023041" lon="7.7666473"><ele>622.0</ele><time>2026-04-26T10:40:02.341Z</time></trkpt><trkpt lat="44.002419" lon="7.7666008"><ele>614.5</ele><time>2026-04-26T10:40:03.341Z</time></trkpt><trkpt lat="44.0025238" lon="7.7665407"><ele>607.0</ele><time>2026-04-26T10:40:04.341Z</time></trkpt><trkpt lat="44.0026256" lon="7.7664777"><ele>599.5</ele><time>2026-04-26T10:40:05.341Z</time></trkpt><trkpt lat="44.0027395" lon="7.7664258"><ele>592.0</ele><time>2026-04-26T10:40:06.341Z</time></trkpt><trkpt lat="44.0028666" lon="7.7664033"><ele>592.0</ele><time>2026-04-26T10:40:07.341Z</time></trkpt><trkpt lat="44.00299" lon="7.7664038"><ele>592.0</ele><time>2026-04-26T10:40:08.342Z</time></trkpt><trkpt lat="44.0031124" lon="7.7664054"><ele>592.0</ele><time>2026-04-26T10:40:09.341Z</time></trkpt><trkpt lat="44.0032271" lon="7.7664174"><ele>592.0</ele><time>2026-04-26T10:40:10.343Z</time></trkpt><trkpt lat="44.0033481" lon="7.766442"><ele>589.0</ele><time>2026-04-26T10:40:11.341Z</time></trkpt><trkpt lat="44.003447" lon="7.7665173"><ele>586.0</ele><time>2026-04-26T10:40:12.341Z</time></trkpt><trkpt lat="44.0035498" lon="7.7665942"><ele>583.0</ele><time>2026-04-26T10:40:13.341Z</time></trkpt><trkpt lat="44.0036539" lon="7.7666629"><ele>580.0</ele><time>2026-04-26T10:40:14.341Z</time></trkpt><trkpt lat="44.0037602" lon="7.7667041"><ele>580.0</ele><time>2026-04-26T10:40:15.341Z</time></trkpt><trkpt lat="44.003869" lon="7.7667315"><ele>580.0</ele><time>2026-04-26T10:40:16.341Z</time></trkpt><trkpt lat="44.0039766" lon="7.7667234"><ele>580.0</ele><time>2026-04-26T10:40:17.342Z</time></trkpt><trkpt lat="44.0040783" lon="7.7666824"><ele>580.0</ele><time>2026-04-26T10:40:18.343Z</time></trkpt><trkpt lat="44.0041743" lon="7.7666087"><ele>580.0</ele><time>2026-04-26T10:40:19.342Z</time></trkpt><trkpt lat="44.0042616" lon="7.76652"><ele>579.8333333333334</ele><time>2026-04-26T10:40:20.342Z</time></trkpt><trkpt lat="44.0043454" lon="7.7664475"><ele>579.6666666666667</ele><time>2026-04-26T10:40:21.342Z</time></trkpt><trkpt lat="44.0044374" lon="7.766423"><ele>579.5</ele><time>2026-04-26T10:40:22.342Z</time></trkpt><trkpt lat="44.0045241" lon="7.7664391"><ele>579.3333333333334</ele><time>2026-04-26T10:40:23.342Z</time></trkpt><trkpt lat="44.0045993" lon="7.7664862"><ele>579.1666666666666</ele><time>2026-04-26T10:40:24.341Z</time></trkpt><trkpt lat="44.0046562" lon="7.766571"><ele>579.0</ele><time>2026-04-26T10:40:25.34Z</time></trkpt><trkpt lat="44.004692" lon="7.7666628"><ele>579.0</ele><time>2026-04-26T10:40:26.341Z</time></trkpt><trkpt lat="44.004722" lon="7.7667716"><ele>579.0</ele><time>2026-04-26T10:40:27.341Z</time></trkpt><trkpt lat="44.004746" lon="7.7668764"><ele>579.0</ele><time>2026-04-26T10:40:28.34Z</time></trkpt><trkpt lat="44.0047594" lon="7.766971"><ele>579.0</ele><time>2026-04-26T10:40:29.341Z</time></trkpt><trkpt lat="44.0047289" lon="7.7671271"><ele>579.0</ele><time>2026-04-26T10:40:31.342Z</time></trkpt><trkpt lat="44.0046809" lon="7.7671891"><ele>579.0</ele><time>2026-04-26T10:40:32.342Z</time></trkpt><trkpt lat="44.0046139" lon="7.767236"><ele>578.8</ele><time>2026-04-26T10:40:33.342Z</time></trkpt><trkpt lat="44.0045253" lon="7.7672924"><ele>578.5999999999999</ele><time>2026-04-26T10:40:34.341Z</time></trkpt><trkpt lat="44.0044329" lon="7.7673586"><ele>578.4</ele><time>2026-04-26T10:40:35.341Z</time></trkpt><trkpt lat="44.0043327" lon="7.7674202"><ele>578.1999999999999</ele><time>2026-04-26T10:40:36.342Z</time></trkpt><trkpt lat="44.0042214" lon="7.7674843"><ele>578.0</ele><time>2026-04-26T10:40:37.342Z</time></trkpt><trkpt lat="44.0041008" lon="7.7675425"><ele>579.25</ele><time>2026-04-26T10:40:38.342Z</time></trkpt><trkpt lat="44.0039795" lon="7.7675953"><ele>580.5</ele><time>2026-04-26T10:40:39.341Z</time></trkpt><trkpt lat="44.00386" lon="7.767653"><ele>581.75</ele><time>2026-04-26T10:40:40.341Z</time></trkpt><trkpt lat="44.0037345" lon="7.7677192"><ele>583.0</ele><time>2026-04-26T10:40:41.342Z</time></trkpt><trkpt lat="44.0036032" lon="7.7677952"><ele>583.0</ele><time>2026-04-26T10:40:42.342Z</time></trkpt><trkpt lat="44.0034644" lon="7.7679011"><ele>583.0</ele><time>2026-04-26T10:40:43.341Z</time></trkpt><trkpt lat="44.0033262" lon="7.7679948"><ele>583.0</ele><time>2026-04-26T10:40:44.341Z</time></trkpt><trkpt lat="44.0031822" lon="7.7680931"><ele>576.3333333333334</ele><time>2026-04-26T10:40:45.342Z</time></trkpt><trkpt lat="44.00299" lon="7.7681489"><ele>569.6666666666666</ele><time>2026-04-26T10:40:46.342Z</time></trkpt><trkpt lat="44.0028182" lon="7.7682108"><ele>563.0</ele><time>2026-04-26T10:40:47.341Z</time></trkpt><trkpt lat="44.0026427" lon="7.7682811"><ele>559.0</ele><time>2026-04-26T10:40:48.34Z</time></trkpt><trkpt lat="44.0024703" lon="7.7683436"><ele>555.0</ele><time>2026-04-26T10:40:49.341Z</time></trkpt><trkpt lat="44.0023082" lon="7.7684062"><ele>551.0</ele><time>2026-04-26T10:40:50.342Z</time></trkpt><trkpt lat="44.0021532" lon="7.7684588"><ele>551.0</ele><time>2026-04-26T10:40:51.342Z</time></trkpt><trkpt lat="44.0020092" lon="7.7685103"><ele>551.0</ele><time>2026-04-26T10:40:52.341Z</time></trkpt><trkpt lat="44.0018791" lon="7.7685546"><ele>551.0</ele><time>2026-04-26T10:40:53.342Z</time></trkpt><trkpt lat="44.0017654" lon="7.7686018"><ele>551.0</ele><time>2026-04-26T10:40:54.342Z</time></trkpt><trkpt lat="44.0016606" lon="7.7686557"><ele>549.2</ele><time>2026-04-26T10:40:55.341Z</time></trkpt><trkpt lat="44.0015802" lon="7.7687187"><ele>547.4000000000001</ele><time>2026-04-26T10:40:56.342Z</time></trkpt><trkpt lat="44.0015309" lon="7.768826"><ele>545.6</ele><time>2026-04-26T10:40:57.342Z</time></trkpt><trkpt lat="44.0014815" lon="7.7689634"><ele>543.8000000000001</ele><time>2026-04-26T10:40:58.34Z</time></trkpt><trkpt lat="44.0014182" lon="7.7691274"><ele>542.0</ele><time>2026-04-26T10:40:59.34Z</time></trkpt><trkpt lat="44.0013508" lon="7.7692799"><ele>547.75</ele><time>2026-04-26T10:41:00.34Z</time></trkpt><trkpt lat="44.0012913" lon="7.7694259"><ele>553.5</ele><time>2026-04-26T10:41:01.341Z</time></trkpt><trkpt lat="44.0012135" lon="7.7695469"><ele>559.25</ele><time>2026-04-26T10:41:02.341Z</time></trkpt><trkpt lat="44.0011218" lon="7.7696415"><ele>565.0</ele><time>2026-04-26T10:41:03.341Z</time></trkpt><trkpt lat="44.0010208" lon="7.7696991"><ele>565.0</ele><time>2026-04-26T10:41:04.342Z</time></trkpt><trkpt lat="44.0008974" lon="7.7696875"><ele>565.0</ele><time>2026-04-26T10:41:05.342Z</time></trkpt><trkpt lat="44.0007769" lon="7.7697081"><ele>565.0</ele><time>2026-04-26T10:41:06.342Z</time></trkpt><trkpt lat="44.0006499" lon="7.7697777"><ele>565.0</ele><time>2026-04-26T10:41:07.341Z</time></trkpt><trkpt lat="44.0005132" lon="7.7698816"><ele>560.75</ele><time>2026-04-26T10:41:08.342Z</time></trkpt><trkpt lat="44.000383" lon="7.7699814"><ele>556.5</ele><time>2026-04-26T10:41:09.342Z</time></trkpt><trkpt lat="44.0002619" lon="7.7700622"><ele>552.25</ele><time>2026-04-26T10:41:10.342Z</time></trkpt><trkpt lat="44.0001423" lon="7.7701268"><ele>548.0</ele><time>2026-04-26T10:41:11.341Z</time></trkpt><trkpt lat="44.0000256" lon="7.770161"><ele>548.0</ele><time>2026-04-26T10:41:12.34Z</time></trkpt><trkpt lat="43.9999076" lon="7.7701596"><ele>548.0</ele><time>2026-04-26T10:41:13.342Z</time></trkpt><trkpt lat="43.9997909" lon="7.7701331"><ele>548.0</ele><time>2026-04-26T10:41:14.342Z</time></trkpt><trkpt lat="43.9996688" lon="7.7701088"><ele>548.0</ele><time>2026-04-26T10:41:15.342Z</time></trkpt><trkpt lat="43.9995611" lon="7.7700891"><ele>548.0</ele><time>2026-04-26T10:41:16.342Z</time></trkpt><trkpt lat="43.9994451" lon="7.7700747"><ele>548.0</ele><time>2026-04-26T10:41:17.341Z</time></trkpt><trkpt lat="43.9993236" lon="7.770074"><ele>548.0</ele><time>2026-04-26T10:41:18.341Z</time></trkpt><trkpt lat="43.9991982" lon="7.7700745"><ele>548.0</ele><time>2026-04-26T10:41:19.341Z</time></trkpt><trkpt lat="43.9990789" lon="7.7700798"><ele>547.75</ele><time>2026-04-26T10:41:20.342Z</time></trkpt><trkpt lat="43.9989601" lon="7.7700753"><ele>547.5</ele><time>2026-04-26T10:41:21.34Z</time></trkpt><trkpt lat="43.9988429" lon="7.7700682"><ele>547.25</ele><time>2026-04-26T10:41:22.342Z</time></trkpt><trkpt lat="43.9987234" lon="7.7700688"><ele>547.0</ele><time>2026-04-26T10:41:23.342Z</time></trkpt><trkpt lat="43.9985915" lon="7.7700799"><ele>547.0</ele><time>2026-04-26T10:41:24.341Z</time></trkpt><trkpt lat="43.9984598" lon="7.7700855"><ele>547.0</ele><time>2026-04-26T10:41:25.342Z</time></trkpt><trkpt lat="43.9983324" lon="7.7700996"><ele>547.0</ele><time>2026-04-26T10:41:26.341Z</time></trkpt><trkpt lat="43.9982056" lon="7.770126"><ele>547.0</ele><time>2026-04-26T10:41:27.341Z</time></trkpt><trkpt lat="43.9980791" lon="7.7701416"><ele>551.25</ele><time>2026-04-26T10:41:28.342Z</time></trkpt><trkpt lat="43.9979665" lon="7.7701958"><ele>555.5</ele><time>2026-04-26T10:41:29.343Z</time></trkpt><trkpt lat="43.9978494" lon="7.7702797"><ele>559.75</ele><time>2026-04-26T10:41:30.341Z</time></trkpt><trkpt lat="43.9977393" lon="7.770369"><ele>564.0</ele><time>2026-04-26T10:41:31.342Z</time></trkpt><trkpt lat="43.9976316" lon="7.7704528"><ele>564.0</ele><time>2026-04-26T10:41:32.341Z</time></trkpt><trkpt lat="43.9975112" lon="7.7704824"><ele>564.0</ele><time>2026-04-26T10:41:33.342Z</time></trkpt><trkpt lat="43.9974058" lon="7.7705145"><ele>564.0</ele><time>2026-04-26T10:41:34.341Z</time></trkpt><trkpt lat="43.9972995" lon="7.7705312"><ele>564.0</ele><time>2026-04-26T10:41:35.341Z</time></trkpt><trkpt lat="43.9971995" lon="7.7705537"><ele>564.0</ele><time>2026-04-26T10:41:36.343Z</time></trkpt><trkpt lat="43.9971014" lon="7.7706142"><ele>561.2</ele><time>2026-04-26T10:41:37.342Z</time></trkpt><trkpt lat="43.9970116" lon="7.7706957"><ele>558.4</ele><time>2026-04-26T10:41:38.342Z</time></trkpt><trkpt lat="43.9969254" lon="7.7707938"><ele>555.6</ele><time>2026-04-26T10:41:39.341Z</time></trkpt><trkpt lat="43.9968439" lon="7.7708893"><ele>552.8</ele><time>2026-04-26T10:41:40.341Z</time></trkpt><trkpt lat="43.9967561" lon="7.7709568"><ele>550.0</ele><time>2026-04-26T10:41:41.342Z</time></trkpt><trkpt lat="43.9966746" lon="7.7710066"><ele>548.6</ele><time>2026-04-26T10:41:42.342Z</time></trkpt><trkpt lat="43.9966002" lon="7.7710746"><ele>547.2</ele><time>2026-04-26T10:41:43.342Z</time></trkpt><trkpt lat="43.9965425" lon="7.7711758"><ele>545.8</ele><time>2026-04-26T10:41:44.342Z</time></trkpt><trkpt lat="43.9964871" lon="7.7712975"><ele>544.4</ele><time>2026-04-26T10:41:45.341Z</time></trkpt><trkpt lat="43.9964154" lon="7.7714193"><ele>543.0</ele><time>2026-04-26T10:41:46.341Z</time></trkpt><trkpt lat="43.9963354" lon="7.7715316"><ele>543.0</ele><time>2026-04-26T10:41:47.342Z</time></trkpt><trkpt lat="43.9962336" lon="7.7716345"><ele>543.0</ele><time>2026-04-26T10:41:48.343Z</time></trkpt><trkpt lat="43.9961239" lon="7.7717345"><ele>543.0</ele><time>2026-04-26T10:41:49.342Z</time></trkpt><trkpt lat="43.9960232" lon="7.7718463"><ele>543.0</ele><time>2026-04-26T10:41:50.342Z</time></trkpt><trkpt lat="43.9959293" lon="7.7719668"><ele>540.5</ele><time>2026-04-26T10:41:51.341Z</time></trkpt><trkpt lat="43.9958367" lon="7.7720814"><ele>538.0</ele><time>2026-04-26T10:41:52.341Z</time></trkpt><trkpt lat="43.9957544" lon="7.7721938"><ele>535.5</ele><time>2026-04-26T10:41:53.341Z</time></trkpt><trkpt lat="43.9956562" lon="7.7722788"><ele>533.0</ele><time>2026-04-26T10:41:54.341Z</time></trkpt><trkpt lat="43.9955405" lon="7.7723416"><ele>533.0</ele><time>2026-04-26T10:41:55.341Z</time></trkpt><trkpt lat="43.9954163" lon="7.7723918"><ele>533.0</ele><time>2026-04-26T10:41:56.342Z</time></trkpt><trkpt lat="43.9952879" lon="7.772439"><ele>533.0</ele><time>2026-04-26T10:41:57.341Z</time></trkpt><trkpt lat="43.9951516" lon="7.7724852"><ele>533.0</ele><time>2026-04-26T10:41:58.342Z</time></trkpt><trkpt lat="43.9950129" lon="7.7725333"><ele>528.5</ele><time>2026-04-26T10:41:59.341Z</time></trkpt><trkpt lat="43.9948807" lon="7.7725759"><ele>524.0</ele><time>2026-04-26T10:42:00.342Z</time></trkpt><trkpt lat="43.9947456" lon="7.7726087"><ele>519.5</ele><time>2026-04-26T10:42:01.341Z</time></trkpt><trkpt lat="43.9946194" lon="7.7726525"><ele>515.0</ele><time>2026-04-26T10:42:02.342Z</time></trkpt><trkpt lat="43.9945071" lon="7.772694"><ele>514.0</ele><time>2026-04-26T10:42:03.342Z</time></trkpt><trkpt lat="43.9944051" lon="7.7727701"><ele>513.0</ele><time>2026-04-26T10:42:04.341Z</time></trkpt><trkpt lat="43.9943174" lon="7.7728683"><ele>512.0</ele><time>2026-04-26T10:42:05.341Z</time></trkpt><trkpt lat="43.994241" lon="7.7729748"><ele>511.0</ele><time>2026-04-26T10:42:06.341Z</time></trkpt><trkpt lat="43.994167" lon="7.7730994"><ele>511.0</ele><time>2026-04-26T10:42:07.342Z</time></trkpt><trkpt lat="43.9940935" lon="7.7732357"><ele>511.0</ele><time>2026-04-26T10:42:08.342Z</time></trkpt><trkpt lat="43.9940199" lon="7.7733813"><ele>511.0</ele><time>2026-04-26T10:42:09.341Z</time></trkpt><trkpt lat="43.9939591" lon="7.7735324"><ele>511.0</ele><time>2026-04-26T10:42:10.341Z</time></trkpt><trkpt lat="43.9938993" lon="7.7736715"><ele>516.5</ele><time>2026-04-26T10:42:11.342Z</time></trkpt><trkpt lat="43.9938372" lon="7.773811"><ele>522.0</ele><time>2026-04-26T10:42:12.341Z</time></trkpt><trkpt lat="43.993765" lon="7.7739343"><ele>527.5</ele><time>2026-04-26T10:42:13.342Z</time></trkpt><trkpt lat="43.9936817" lon="7.7740412"><ele>533.0</ele><time>2026-04-26T10:42:14.342Z</time></trkpt><trkpt lat="43.9935914" lon="7.7741307"><ele>533.0</ele><time>2026-04-26T10:42:15.341Z</time></trkpt><trkpt lat="43.9934949" lon="7.7742119"><ele>533.0</ele><time>2026-04-26T10:42:16.343Z</time></trkpt><trkpt lat="43.9933881" lon="7.7742898"><ele>533.0</ele><time>2026-04-26T10:42:17.341Z</time></trkpt><trkpt lat="43.9932805" lon="7.7743672"><ele>533.0</ele><time>2026-04-26T10:42:18.342Z</time></trkpt><trkpt lat="43.9931728" lon="7.774447"><ele>527.8</ele><time>2026-04-26T10:42:19.342Z</time></trkpt><trkpt lat="43.9930639" lon="7.7745193"><ele>522.5999999999999</ele><time>2026-04-26T10:42:20.341Z</time></trkpt><trkpt lat="43.9929529" lon="7.7745687"><ele>517.4000000000001</ele><time>2026-04-26T10:42:21.342Z</time></trkpt><trkpt lat="43.9928426" lon="7.7745805"><ele>512.2</ele><time>2026-04-26T10:42:22.341Z</time></trkpt><trkpt lat="43.9927448" lon="7.7745691"><ele>507.0</ele><time>2026-04-26T10:42:23.341Z</time></trkpt><trkpt lat="43.992655" lon="7.7745435"><ele>507.0</ele><time>2026-04-26T10:42:24.342Z</time></trkpt><trkpt lat="43.9925802" lon="7.7745135"><ele>507.0</ele><time>2026-04-26T10:42:25.342Z</time></trkpt><trkpt lat="43.9925134" lon="7.7745081"><ele>507.0</ele><time>2026-04-26T10:42:26.342Z</time></trkpt><trkpt lat="43.9924556" lon="7.7745565"><ele>507.0</ele><time>2026-04-26T10:42:27.342Z</time></trkpt><trkpt lat="43.9924076" lon="7.7746469"><ele>507.0</ele><time>2026-04-26T10:42:28.342Z</time></trkpt><trkpt lat="43.9923615" lon="7.7747606"><ele>507.0</ele><time>2026-04-26T10:42:29.342Z</time></trkpt><trkpt lat="43.992311" lon="7.7748888"><ele>503.25</ele><time>2026-04-26T10:42:30.342Z</time></trkpt><trkpt lat="43.992249" lon="7.7750207"><ele>499.5</ele><time>2026-04-26T10:42:31.341Z</time></trkpt><trkpt lat="43.9921795" lon="7.7751459"><ele>495.75</ele><time>2026-04-26T10:42:32.341Z</time></trkpt><trkpt lat="43.9921141" lon="7.7752764"><ele>492.0</ele><time>2026-04-26T10:42:33.342Z</time></trkpt><trkpt lat="43.992044" lon="7.7754077"><ele>489.40000000000003</ele><time>2026-04-26T10:42:34.342Z</time></trkpt><trkpt lat="43.9919776" lon="7.7755175"><ele>486.80000000000007</ele><time>2026-04-26T10:42:35.342Z</time></trkpt><trkpt lat="43.991904" lon="7.7756234"><ele>484.2</ele><time>2026-04-26T10:42:36.342Z</time></trkpt><trkpt lat="43.9918289" lon="7.7756971"><ele>481.6</ele><time>2026-04-26T10:42:37.341Z</time></trkpt><trkpt lat="43.9917474" lon="7.7757491"><ele>479.0</ele><time>2026-04-26T10:42:38.341Z</time></trkpt><trkpt lat="43.9916553" lon="7.7757843"><ele>479.0</ele><time>2026-04-26T10:42:39.342Z</time></trkpt><trkpt lat="43.9915633" lon="7.775813"><ele>479.0</ele><time>2026-04-26T10:42:40.342Z</time></trkpt><trkpt lat="43.9914657" lon="7.7758328"><ele>479.0</ele><time>2026-04-26T10:42:41.342Z</time></trkpt><trkpt lat="43.9913757" lon="7.7758438"><ele>479.0</ele><time>2026-04-26T10:42:42.342Z</time></trkpt><trkpt lat="43.9912802" lon="7.775836"><ele>479.0</ele><time>2026-04-26T10:42:43.341Z</time></trkpt><trkpt lat="43.9911867" lon="7.7758222"><ele>478.99999999999994</ele><time>2026-04-26T10:42:44.342Z</time></trkpt><trkpt lat="43.9910991" lon="7.775818"><ele>479.0</ele><time>2026-04-26T10:42:45.341Z</time></trkpt><trkpt lat="43.9910153" lon="7.775813"><ele>479.0</ele><time>2026-04-26T10:42:46.342Z</time></trkpt><trkpt lat="43.9909357" lon="7.7758022"><ele>479.0</ele><time>2026-04-26T10:42:47.343Z</time></trkpt><trkpt lat="43.990859" lon="7.775781"><ele>478.99999999999994</ele><time>2026-04-26T10:42:48.342Z</time></trkpt><trkpt lat="43.9907931" lon="7.7757365"><ele>479.0</ele><time>2026-04-26T10:42:49.342Z</time></trkpt><trkpt lat="43.9907322" lon="7.7756915"><ele>479.66666666666663</ele><time>2026-04-26T10:42:50.341Z</time></trkpt><trkpt lat="43.9906927" lon="7.7756181"><ele>480.3333333333333</ele><time>2026-04-26T10:42:51.342Z</time></trkpt><trkpt lat="43.990655" lon="7.7755379"><ele>481.0</ele><time>2026-04-26T10:42:52.342Z</time></trkpt><trkpt lat="43.9906178" lon="7.7754608"><ele>481.66666666666663</ele><time>2026-04-26T10:42:53.343Z</time></trkpt><trkpt lat="43.9905773" lon="7.7753867"><ele>482.3333333333333</ele><time>2026-04-26T10:42:54.342Z</time></trkpt><trkpt lat="43.9905144" lon="7.7752489"><ele>483.0</ele><time>2026-04-26T10:42:56.341Z</time></trkpt><trkpt lat="43.9904653" lon="7.7751133"><ele>483.0</ele><time>2026-04-26T10:42:58.341Z</time></trkpt><trkpt lat="43.9904277" lon="7.7749814"><ele>482.99999999999994</ele><time>2026-04-26T10:43:00.341Z</time></trkpt><trkpt lat="43.9903871" lon="7.7748528"><ele>482.99999999999994</ele><time>2026-04-26T10:43:02.341Z</time></trkpt><trkpt lat="43.9903458" lon="7.7747237"><ele>483.0</ele><time>2026-04-26T10:43:04.342Z</time></trkpt><trkpt lat="43.9903162" lon="7.7746094"><ele>483.0</ele><time>2026-04-26T10:43:06.342Z</time></trkpt><trkpt lat="43.9902914" lon="7.774512"><ele>483.0</ele><time>2026-04-26T10:43:08.341Z</time></trkpt><trkpt lat="43.9902513" lon="7.7744076"><ele>483.0</ele><time>2026-04-26T10:43:11.342Z</time></trkpt><trkpt lat="43.9902269" lon="7.7743244"><ele>483.0</ele><time>2026-04-26T10:43:17.342Z</time></trkpt><trkpt lat="43.9901965" lon="7.7742072"><ele>483.0</ele><time>2026-04-26T10:43:19.342Z</time></trkpt><trkpt lat="43.9901181" lon="7.7740718"><ele>483.0</ele><time>2026-04-26T10:43:21.342Z</time></trkpt><trkpt lat="43.9900685" lon="7.7740079"><ele>483.0</ele><time>2026-04-26T10:43:22.341Z</time></trkpt><trkpt lat="43.9899824" lon="7.7739126"><ele>481.0</ele><time>2026-04-26T10:43:24.341Z</time></trkpt><trkpt lat="43.98994" lon="7.7738381"><ele>479.0</ele><time>2026-04-26T10:43:26.342Z</time></trkpt><trkpt lat="43.9898717" lon="7.773784"><ele>477.0</ele><time>2026-04-26T10:43:34.342Z</time></trkpt><trkpt lat="43.9898192" lon="7.773735"><ele>475.0</ele><time>2026-04-26T10:43:36.342Z</time></trkpt><trkpt lat="43.9897558" lon="7.7737566"><ele>473.0</ele><time>2026-04-26T10:43:39.342Z</time></trkpt><trkpt lat="43.9898234" lon="7.7737628"><ele>471.0</ele><time>2026-04-26T10:45:43.343Z</time></trkpt><trkpt lat="43.9898796" lon="7.7738093"><ele>469.0</ele><time>2026-04-26T10:45:49.341Z</time></trkpt><trkpt lat="43.9899112" lon="7.7738979"><ele>469.0</ele><time>2026-04-26T10:45:55.334Z</time></trkpt><trkpt lat="43.9899681" lon="7.7739454"><ele>469.0</ele><time>2026-04-26T10:46:01.342Z</time></trkpt><trkpt lat="43.9900204" lon="7.7739993"><ele>469.0</ele><time>2026-04-26T10:46:07.335Z</time></trkpt><trkpt lat="43.9900673" lon="7.7740657"><ele>469.0</ele><time>2026-04-26T10:46:14.342Z</time></trkpt><trkpt lat="43.9901283" lon="7.7741349"><ele>469.0</ele><time>2026-04-26T10:46:21.289Z</time></trkpt><trkpt lat="43.9901886" lon="7.7742138"><ele>469.0</ele><time>2026-04-26T10:46:28.342Z</time></trkpt><trkpt lat="43.9902173" lon="7.7742984"><ele>469.0</ele><time>2026-04-26T10:46:35.342Z</time></trkpt><trkpt lat="43.9902308" lon="7.7743858"><ele>471.0</ele><time>2026-04-26T10:46:42.342Z</time></trkpt><trkpt lat="43.9902148" lon="7.7744706"><ele>473.0</ele><time>2026-04-26T10:46:50.341Z</time></trkpt><trkpt lat="43.9902437" lon="7.7745625"><ele>475.0</ele><time>2026-04-26T10:46:59.341Z</time></trkpt><trkpt lat="43.9902548" lon="7.7746491"><ele>477.0</ele><time>2026-04-26T10:47:05.342Z</time></trkpt><trkpt lat="43.990296" lon="7.7747186"><ele>479.0</ele><time>2026-04-26T10:47:11.342Z</time></trkpt><trkpt lat="43.9902422" lon="7.7747681"><ele>481.0</ele><time>2026-04-26T10:56:28.342Z</time></trkpt><trkpt lat="43.9901842" lon="7.7748031"><ele>483.0</ele><time>2026-04-26T10:56:38.342Z</time></trkpt><trkpt lat="43.9902611" lon="7.7747669"><ele>483.0</ele><time>2026-04-26T10:57:46.341Z</time></trkpt><trkpt lat="43.9903573" lon="7.7746746"><ele>483.0</ele><time>2026-04-26T11:25:24.34Z</time></trkpt><trkpt lat="43.9903495" lon="7.7745826"><ele>483.0</ele><time>2026-04-26T11:25:36.339Z</time></trkpt><trkpt lat="43.9903085" lon="7.7745096"><ele>483.0</ele><time>2026-04-26T11:25:41.339Z</time></trkpt><trkpt lat="43.9902672" lon="7.7744373"><ele>483.0</ele><time>2026-04-26T11:25:48.339Z</time></trkpt><trkpt lat="43.990237" lon="7.774356"><ele>483.0</ele><time>2026-04-26T11:25:54.34Z</time></trkpt><trkpt lat="43.9902202" lon="7.7742683"><ele>483.0</ele><time>2026-04-26T11:25:59.34Z</time></trkpt><trkpt lat="43.9901936" lon="7.7741856"><ele>483.8571428571429</ele><time>2026-04-26T11:26:05.339Z</time></trkpt><trkpt lat="43.9901547" lon="7.7741131"><ele>484.7142857142857</ele><time>2026-04-26T11:26:10.34Z</time></trkpt><trkpt lat="43.9901063" lon="7.7740559"><ele>485.57142857142856</ele><time>2026-04-26T11:26:15.268Z</time></trkpt><trkpt lat="43.9900447" lon="7.7740071"><ele>486.42857142857144</ele><time>2026-04-26T11:26:21.34Z</time></trkpt><trkpt lat="43.9899981" lon="7.7739327"><ele>487.28571428571433</ele><time>2026-04-26T11:26:26.334Z</time></trkpt><trkpt lat="43.9899441" lon="7.7738648"><ele>488.14285714285717</ele><time>2026-04-26T11:26:32.339Z</time></trkpt><trkpt lat="43.9899101" lon="7.7737906"><ele>489.0</ele><time>2026-04-26T11:26:37.339Z</time></trkpt><trkpt lat="43.9898675" lon="7.773706"><ele>485.6666666666667</ele><time>2026-04-26T11:26:43.336Z</time></trkpt><trkpt lat="43.9898024" lon="7.7736847"><ele>482.33333333333337</ele><time>2026-04-26T11:26:48.35Z</time></trkpt><trkpt lat="43.9897369" lon="7.77372"><ele>479.0</ele><time>2026-04-26T11:26:53.339Z</time></trkpt><trkpt lat="43.989802" lon="7.7737235"><ele>475.6666666666667</ele><time>2026-04-26T11:29:21.338Z</time></trkpt><trkpt lat="43.9898701" lon="7.7737696"><ele>472.33333333333337</ele><time>2026-04-26T11:29:39.339Z</time></trkpt><trkpt lat="43.9899371" lon="7.7738485"><ele>469.0</ele><time>2026-04-26T11:29:41.339Z</time></trkpt><trkpt lat="43.9900044" lon="7.7739483"><ele>471.79999999999995</ele><time>2026-04-26T11:29:43.339Z</time></trkpt><trkpt lat="43.9900806" lon="7.7740343"><ele>474.59999999999997</ele><time>2026-04-26T11:29:45.339Z</time></trkpt><trkpt lat="43.9901546" lon="7.7741531"><ele>477.4</ele><time>2026-04-26T11:29:47.338Z</time></trkpt><trkpt lat="43.9901931" lon="7.7742286"><ele>480.2</ele><time>2026-04-26T11:29:48.339Z</time></trkpt><trkpt lat="43.9902369" lon="7.7743689"><ele>483.0</ele><time>2026-04-26T11:29:50.338Z</time></trkpt><trkpt lat="43.99019" lon="7.7744703"><ele>483.0</ele><time>2026-04-26T11:29:52.338Z</time></trkpt><trkpt lat="43.990075" lon="7.7745307"><ele>482.99999999999994</ele><time>2026-04-26T11:29:54.339Z</time></trkpt><trkpt lat="43.9899955" lon="7.7745807"><ele>482.99999999999994</ele><time>2026-04-26T11:29:56.338Z</time></trkpt><trkpt lat="43.9899117" lon="7.7746295"><ele>483.0</ele><time>2026-04-26T11:29:59.338Z</time></trkpt><trkpt lat="43.98982" lon="7.7746536"><ele>483.0</ele><time>2026-04-26T11:30:01.338Z</time></trkpt><trkpt lat="43.9897285" lon="7.7746199"><ele>481.6666666666667</ele><time>2026-04-26T11:30:03.339Z</time></trkpt><trkpt lat="43.9896621" lon="7.7746085"><ele>480.33333333333337</ele><time>2026-04-26T11:30:04.339Z</time></trkpt><trkpt lat="43.9895576" lon="7.7746456"><ele>479.0</ele><time>2026-04-26T11:30:06.339Z</time></trkpt><trkpt lat="43.9895012" lon="7.7747781"><ele>477.6666666666667</ele><time>2026-04-26T11:30:08.339Z</time></trkpt><trkpt lat="43.9894979" lon="7.7748781"><ele>476.33333333333337</ele><time>2026-04-26T11:30:09.339Z</time></trkpt><trkpt lat="43.9894998" lon="7.7749854"><ele>475.0</ele><time>2026-04-26T11:30:10.339Z</time></trkpt><trkpt lat="43.9894923" lon="7.7751018"><ele>480.0</ele><time>2026-04-26T11:30:11.338Z</time></trkpt><trkpt lat="43.9894666" lon="7.7752103"><ele>485.0</ele><time>2026-04-26T11:30:12.339Z</time></trkpt><trkpt lat="43.9894379" lon="7.7753178"><ele>490.0</ele><time>2026-04-26T11:30:13.339Z</time></trkpt><trkpt lat="43.9893783" lon="7.7754336"><ele>495.0</ele><time>2026-04-26T11:30:14.338Z</time></trkpt><trkpt lat="43.9893319" lon="7.775544"><ele>500.0</ele><time>2026-04-26T11:30:15.339Z</time></trkpt><trkpt lat="43.9892797" lon="7.7756501"><ele>500.0</ele><time>2026-04-26T11:30:16.339Z</time></trkpt><trkpt lat="43.9892164" lon="7.7757638"><ele>500.0</ele><time>2026-04-26T11:30:17.339Z</time></trkpt><trkpt lat="43.9891458" lon="7.7758746"><ele>500.0</ele><time>2026-04-26T11:30:18.339Z</time></trkpt><trkpt lat="43.9890747" lon="7.7759777"><ele>500.0</ele><time>2026-04-26T11:30:19.339Z</time></trkpt><trkpt lat="43.9890038" lon="7.7760848"><ele>500.0</ele><time>2026-04-26T11:30:20.339Z</time></trkpt><trkpt lat="43.9889314" lon="7.7761842"><ele>500.2</ele><time>2026-04-26T11:30:21.339Z</time></trkpt><trkpt lat="43.9888539" lon="7.7762743"><ele>500.4</ele><time>2026-04-26T11:30:22.338Z</time></trkpt><trkpt lat="43.9887644" lon="7.7763518"><ele>500.6</ele><time>2026-04-26T11:30:23.339Z</time></trkpt><trkpt lat="43.9886664" lon="7.776421"><ele>500.8</ele><time>2026-04-26T11:30:24.338Z</time></trkpt><trkpt lat="43.9885635" lon="7.7764893"><ele>501.0</ele><time>2026-04-26T11:30:25.338Z</time></trkpt><trkpt lat="43.9884644" lon="7.7765556"><ele>501.0</ele><time>2026-04-26T11:30:26.337Z</time></trkpt><trkpt lat="43.9883607" lon="7.7766084"><ele>501.0</ele><time>2026-04-26T11:30:27.339Z</time></trkpt><trkpt lat="43.9882552" lon="7.7766406"><ele>501.0</ele><time>2026-04-26T11:30:28.338Z</time></trkpt><trkpt lat="43.9881486" lon="7.7766682"><ele>501.0</ele><time>2026-04-26T11:30:29.339Z</time></trkpt><trkpt lat="43.9880456" lon="7.7767235"><ele>501.0</ele><time>2026-04-26T11:30:30.339Z</time></trkpt><trkpt lat="43.9879483" lon="7.7767881"><ele>502.1666666666667</ele><time>2026-04-26T11:30:31.339Z</time></trkpt><trkpt lat="43.9878598" lon="7.7768529"><ele>503.33333333333337</ele><time>2026-04-26T11:30:32.339Z</time></trkpt><trkpt lat="43.9877799" lon="7.7769123"><ele>504.5</ele><time>2026-04-26T11:30:33.338Z</time></trkpt><trkpt lat="43.9877045" lon="7.776959"><ele>505.6666666666667</ele><time>2026-04-26T11:30:34.338Z</time></trkpt><trkpt lat="43.9876344" lon="7.7770064"><ele>506.83333333333337</ele><time>2026-04-26T11:30:35.338Z</time></trkpt><trkpt lat="43.9875699" lon="7.7770467"><ele>508.0</ele><time>2026-04-26T11:30:36.338Z</time></trkpt><trkpt lat="43.9875049" lon="7.7770883"><ele>501.4</ele><time>2026-04-26T11:30:37.339Z</time></trkpt><trkpt lat="43.9874362" lon="7.7771342"><ele>494.79999999999995</ele><time>2026-04-26T11:30:38.338Z</time></trkpt><trkpt lat="43.9873618" lon="7.7771881"><ele>488.2</ele><time>2026-04-26T11:30:39.34Z</time></trkpt><trkpt lat="43.987283" lon="7.7772521"><ele>481.6</ele><time>2026-04-26T11:30:40.34Z</time></trkpt><trkpt lat="43.9871983" lon="7.777323"><ele>475.0</ele><time>2026-04-26T11:30:41.338Z</time></trkpt><trkpt lat="43.9871095" lon="7.7774084"><ele>475.0</ele><time>2026-04-26T11:30:42.34Z</time></trkpt><trkpt lat="43.9870177" lon="7.7774926"><ele>475.0</ele><time>2026-04-26T11:30:43.34Z</time></trkpt><trkpt lat="43.9869302" lon="7.7775776"><ele>475.0</ele><time>2026-04-26T11:30:44.339Z</time></trkpt><trkpt lat="43.9868412" lon="7.7776657"><ele>475.0</ele><time>2026-04-26T11:30:45.339Z</time></trkpt><trkpt lat="43.9867426" lon="7.7777586"><ele>475.0</ele><time>2026-04-26T11:30:46.339Z</time></trkpt><trkpt lat="43.9866434" lon="7.7778481"><ele>474.5</ele><time>2026-04-26T11:30:47.339Z</time></trkpt><trkpt lat="43.9865473" lon="7.7779387"><ele>474.0</ele><time>2026-04-26T11:30:48.34Z</time></trkpt><trkpt lat="43.9864414" lon="7.7780316"><ele>473.5</ele><time>2026-04-26T11:30:49.339Z</time></trkpt><trkpt lat="43.9863406" lon="7.778156"><ele>473.0</ele><time>2026-04-26T11:30:50.34Z</time></trkpt><trkpt lat="43.9862472" lon="7.7783011"><ele>473.0</ele><time>2026-04-26T11:30:51.34Z</time></trkpt><trkpt lat="43.9861701" lon="7.7784632"><ele>473.0</ele><time>2026-04-26T11:30:52.339Z</time></trkpt><trkpt lat="43.9860827" lon="7.7786174"><ele>473.0</ele><time>2026-04-26T11:30:53.34Z</time></trkpt><trkpt lat="43.9860027" lon="7.7787717"><ele>473.0</ele><time>2026-04-26T11:30:54.34Z</time></trkpt><trkpt lat="43.9859305" lon="7.7789421"><ele>469.0</ele><time>2026-04-26T11:30:55.338Z</time></trkpt><trkpt lat="43.9858703" lon="7.7791183"><ele>465.0</ele><time>2026-04-26T11:30:56.339Z</time></trkpt><trkpt lat="43.9858245" lon="7.7793146"><ele>461.0</ele><time>2026-04-26T11:30:57.339Z</time></trkpt><trkpt lat="43.9858052" lon="7.7795238"><ele>457.0</ele><time>2026-04-26T11:30:58.339Z</time></trkpt><trkpt lat="43.9857913" lon="7.7797337"><ele>457.0</ele><time>2026-04-26T11:30:59.34Z</time></trkpt><trkpt lat="43.9857845" lon="7.7799458"><ele>457.0</ele><time>2026-04-26T11:31:00.339Z</time></trkpt><trkpt lat="43.9857786" lon="7.7801574"><ele>457.0</ele><time>2026-04-26T11:31:01.34Z</time></trkpt><trkpt lat="43.9857806" lon="7.78036"><ele>458.0</ele><time>2026-04-26T11:31:02.339Z</time></trkpt><trkpt lat="43.9857777" lon="7.7805528"><ele>459.0</ele><time>2026-04-26T11:31:03.34Z</time></trkpt><trkpt lat="43.9857804" lon="7.7807425"><ele>460.0</ele><time>2026-04-26T11:31:04.341Z</time></trkpt><trkpt lat="43.985774" lon="7.7809271"><ele>461.0</ele><time>2026-04-26T11:31:05.34Z</time></trkpt><trkpt lat="43.9857499" lon="7.781102"><ele>466.5</ele><time>2026-04-26T11:31:06.34Z</time></trkpt><trkpt lat="43.9857094" lon="7.781273"><ele>472.0</ele><time>2026-04-26T11:31:07.339Z</time></trkpt><trkpt lat="43.9856452" lon="7.7814273"><ele>477.5</ele><time>2026-04-26T11:31:08.339Z</time></trkpt><trkpt lat="43.9855424" lon="7.7815515"><ele>483.0</ele><time>2026-04-26T11:31:09.339Z</time></trkpt><trkpt lat="43.985432" lon="7.7816817"><ele>483.0</ele><time>2026-04-26T11:31:10.34Z</time></trkpt><trkpt lat="43.9853185" lon="7.7818033"><ele>483.0</ele><time>2026-04-26T11:31:11.34Z</time></trkpt><trkpt lat="43.9852059" lon="7.7819236"><ele>483.0</ele><time>2026-04-26T11:31:12.34Z</time></trkpt><trkpt lat="43.9850955" lon="7.7820491"><ele>483.0</ele><time>2026-04-26T11:31:13.339Z</time></trkpt><trkpt lat="43.9849918" lon="7.7821853"><ele>481.0</ele><time>2026-04-26T11:31:14.339Z</time></trkpt><trkpt lat="43.9848968" lon="7.7823315"><ele>479.0</ele><time>2026-04-26T11:31:15.34Z</time></trkpt><trkpt lat="43.9848038" lon="7.7824965"><ele>477.0</ele><time>2026-04-26T11:31:16.34Z</time></trkpt><trkpt lat="43.9847287" lon="7.7826724"><ele>475.0</ele><time>2026-04-26T11:31:17.34Z</time></trkpt><trkpt lat="43.9846595" lon="7.782851"><ele>475.0</ele><time>2026-04-26T11:31:18.339Z</time></trkpt><trkpt lat="43.9846077" lon="7.7830358"><ele>475.0</ele><time>2026-04-26T11:31:19.339Z</time></trkpt><trkpt lat="43.984583" lon="7.783226"><ele>475.0</ele><time>2026-04-26T11:31:20.34Z</time></trkpt><trkpt lat="43.9845872" lon="7.7834189"><ele>475.0</ele><time>2026-04-26T11:31:21.339Z</time></trkpt><trkpt lat="43.9846183" lon="7.7836123"><ele>473.0</ele><time>2026-04-26T11:31:22.34Z</time></trkpt><trkpt lat="43.9846678" lon="7.7838102"><ele>471.0</ele><time>2026-04-26T11:31:23.339Z</time></trkpt><trkpt lat="43.9847025" lon="7.7840135"><ele>469.0</ele><time>2026-04-26T11:31:24.339Z</time></trkpt><trkpt lat="43.984736" lon="7.7842266"><ele>465.6666666666667</ele><time>2026-04-26T11:31:25.339Z</time></trkpt><trkpt lat="43.9847684" lon="7.7844435"><ele>462.33333333333337</ele><time>2026-04-26T11:31:26.34Z</time></trkpt><trkpt lat="43.9847993" lon="7.7846563"><ele>459.0</ele><time>2026-04-26T11:31:27.339Z</time></trkpt><trkpt lat="43.9848232" lon="7.7848842"><ele>459.0</ele><time>2026-04-26T11:31:28.34Z</time></trkpt><trkpt lat="43.9848528" lon="7.7851011"><ele>459.0</ele><time>2026-04-26T11:31:29.339Z</time></trkpt><trkpt lat="43.984875" lon="7.785312"><ele>459.0</ele><time>2026-04-26T11:31:30.34Z</time></trkpt><trkpt lat="43.9848976" lon="7.7855164"><ele>456.75</ele><time>2026-04-26T11:31:31.34Z</time></trkpt><trkpt lat="43.9849215" lon="7.7857081"><ele>454.5</ele><time>2026-04-26T11:31:32.338Z</time></trkpt><trkpt lat="43.9849285" lon="7.7859071"><ele>452.25</ele><time>2026-04-26T11:31:33.339Z</time></trkpt><trkpt lat="43.9849204" lon="7.786117"><ele>450.0</ele><time>2026-04-26T11:31:34.338Z</time></trkpt><trkpt lat="43.9848951" lon="7.7863325"><ele>450.0</ele><time>2026-04-26T11:31:35.339Z</time></trkpt><trkpt lat="43.9848715" lon="7.7865435"><ele>450.0</ele><time>2026-04-26T11:31:36.34Z</time></trkpt><trkpt lat="43.9848506" lon="7.7867528"><ele>450.0</ele><time>2026-04-26T11:31:37.34Z</time></trkpt><trkpt lat="43.9848394" lon="7.7869403"><ele>450.0</ele><time>2026-04-26T11:31:38.34Z</time></trkpt><trkpt lat="43.984825" lon="7.7871344"><ele>451.75</ele><time>2026-04-26T11:31:39.339Z</time></trkpt><trkpt lat="43.9847953" lon="7.7872932"><ele>453.5</ele><time>2026-04-26T11:31:40.34Z</time></trkpt><trkpt lat="43.984742" lon="7.7874474"><ele>455.25</ele><time>2026-04-26T11:31:41.339Z</time></trkpt><trkpt lat="43.9846644" lon="7.7875739"><ele>457.0</ele><time>2026-04-26T11:31:42.339Z</time></trkpt><trkpt lat="43.9845733" lon="7.7876937"><ele>453.5</ele><time>2026-04-26T11:31:43.34Z</time></trkpt><trkpt lat="43.9844732" lon="7.7878188"><ele>450.0</ele><time>2026-04-26T11:31:44.339Z</time></trkpt><trkpt lat="43.9843638" lon="7.7879448"><ele>446.5</ele><time>2026-04-26T11:31:45.339Z</time></trkpt><trkpt lat="43.9842585" lon="7.7880649"><ele>443.0</ele><time>2026-04-26T11:31:46.341Z</time></trkpt><trkpt lat="43.9841531" lon="7.7882012"><ele>443.0</ele><time>2026-04-26T11:31:47.34Z</time></trkpt><trkpt lat="43.9840518" lon="7.7883341"><ele>443.0</ele><time>2026-04-26T11:31:48.34Z</time></trkpt><trkpt lat="43.9839466" lon="7.7884615"><ele>443.0</ele><time>2026-04-26T11:31:49.339Z</time></trkpt><trkpt lat="43.9838364" lon="7.7885866"><ele>443.0</ele><time>2026-04-26T11:31:50.339Z</time></trkpt><trkpt lat="43.9837215" lon="7.7886978"><ele>440.5</ele><time>2026-04-26T11:31:51.339Z</time></trkpt><trkpt lat="43.983609" lon="7.7888037"><ele>438.0</ele><time>2026-04-26T11:31:52.339Z</time></trkpt><trkpt lat="43.9835079" lon="7.7888952"><ele>435.5</ele><time>2026-04-26T11:31:53.339Z</time></trkpt><trkpt lat="43.983409" lon="7.7889902"><ele>433.0</ele><time>2026-04-26T11:31:54.338Z</time></trkpt><trkpt lat="43.9833414" lon="7.7891154"><ele>433.0</ele><time>2026-04-26T11:31:55.339Z</time></trkpt><trkpt lat="43.9832973" lon="7.7892702"><ele>433.0</ele><time>2026-04-26T11:31:56.34Z</time></trkpt><trkpt lat="43.9832702" lon="7.7894457"><ele>433.0</ele><time>2026-04-26T11:31:57.339Z</time></trkpt><trkpt lat="43.9832484" lon="7.7896355"><ele>433.0</ele><time>2026-04-26T11:31:58.339Z</time></trkpt><trkpt lat="43.9832545" lon="7.7898286"><ele>433.0</ele><time>2026-04-26T11:31:59.339Z</time></trkpt><trkpt lat="43.9832636" lon="7.790005"><ele>433.0</ele><time>2026-04-26T11:32:00.339Z</time></trkpt><trkpt lat="43.9833132" lon="7.7901573"><ele>433.0</ele><time>2026-04-26T11:32:01.339Z</time></trkpt><trkpt lat="43.9833665" lon="7.7902945"><ele>433.0</ele><time>2026-04-26T11:32:02.339Z</time></trkpt><trkpt lat="43.98343" lon="7.7904407"><ele>437.5</ele><time>2026-04-26T11:32:03.338Z</time></trkpt><trkpt lat="43.9835022" lon="7.7906146"><ele>442.0</ele><time>2026-04-26T11:32:04.34Z</time></trkpt><trkpt lat="43.9835649" lon="7.7908052"><ele>446.5</ele><time>2026-04-26T11:32:05.34Z</time></trkpt><trkpt lat="43.9836261" lon="7.7909958"><ele>451.0</ele><time>2026-04-26T11:32:06.34Z</time></trkpt><trkpt lat="43.983687" lon="7.791193"><ele>451.0</ele><time>2026-04-26T11:32:07.34Z</time></trkpt><trkpt lat="43.9837418" lon="7.791379"><ele>451.0</ele><time>2026-04-26T11:32:08.34Z</time></trkpt><trkpt lat="43.9837815" lon="7.7915642"><ele>451.0</ele><time>2026-04-26T11:32:09.34Z</time></trkpt><trkpt lat="43.983805" lon="7.7917458"><ele>451.0</ele><time>2026-04-26T11:32:10.34Z</time></trkpt><trkpt lat="43.9838269" lon="7.7919237"><ele>450.5</ele><time>2026-04-26T11:32:11.339Z</time></trkpt><trkpt lat="43.9838173" lon="7.7921162"><ele>450.0</ele><time>2026-04-26T11:32:12.338Z</time></trkpt><trkpt lat="43.9838054" lon="7.7923154"><ele>449.5</ele><time>2026-04-26T11:32:13.339Z</time></trkpt><trkpt lat="43.9837933" lon="7.7925057"><ele>449.0</ele><time>2026-04-26T11:32:14.34Z</time></trkpt><trkpt lat="43.9837538" lon="7.7926868"><ele>455.25</ele><time>2026-04-26T11:32:15.339Z</time></trkpt><trkpt lat="43.9837151" lon="7.792864"><ele>461.5</ele><time>2026-04-26T11:32:16.34Z</time></trkpt><trkpt lat="43.9836259" lon="7.7930129"><ele>467.75</ele><time>2026-04-26T11:32:17.338Z</time></trkpt><trkpt lat="43.9835321" lon="7.7931665"><ele>474.0</ele><time>2026-04-26T11:32:18.34Z</time></trkpt><trkpt lat="43.9834212" lon="7.7933012"><ele>468.66666666666663</ele><time>2026-04-26T11:32:19.339Z</time></trkpt><trkpt lat="43.9832977" lon="7.7934259"><ele>463.3333333333333</ele><time>2026-04-26T11:32:20.34Z</time></trkpt><trkpt lat="43.9831716" lon="7.793545"><ele>458.0</ele><time>2026-04-26T11:32:21.34Z</time></trkpt><trkpt lat="43.9830328" lon="7.7936498"><ele>458.0</ele><time>2026-04-26T11:32:22.34Z</time></trkpt><trkpt lat="43.9828818" lon="7.7937388"><ele>458.0</ele><time>2026-04-26T11:32:23.339Z</time></trkpt><trkpt lat="43.9827388" lon="7.7938196"><ele>458.0</ele><time>2026-04-26T11:32:24.34Z</time></trkpt><trkpt lat="43.9825971" lon="7.7938952"><ele>451.25</ele><time>2026-04-26T11:32:25.338Z</time></trkpt><trkpt lat="43.9824582" lon="7.7939618"><ele>444.5</ele><time>2026-04-26T11:32:26.339Z</time></trkpt><trkpt lat="43.9823233" lon="7.7940179"><ele>437.75</ele><time>2026-04-26T11:32:27.339Z</time></trkpt><trkpt lat="43.9821775" lon="7.7940379"><ele>431.0</ele><time>2026-04-26T11:32:28.339Z</time></trkpt><trkpt lat="43.9820303" lon="7.7940483"><ele>431.0</ele><time>2026-04-26T11:32:29.338Z</time></trkpt><trkpt lat="43.9818805" lon="7.7940473"><ele>431.0</ele><time>2026-04-26T11:32:30.339Z</time></trkpt><trkpt lat="43.9817431" lon="7.7940451"><ele>431.0</ele><time>2026-04-26T11:32:31.339Z</time></trkpt><trkpt lat="43.9816036" lon="7.7940322"><ele>431.0</ele><time>2026-04-26T11:32:32.34Z</time></trkpt><trkpt lat="43.9814798" lon="7.7940116"><ele>430.0</ele><time>2026-04-26T11:32:33.34Z</time></trkpt><trkpt lat="43.9813494" lon="7.794025"><ele>429.0</ele><time>2026-04-26T11:32:34.339Z</time></trkpt><trkpt lat="43.9812091" lon="7.79406"><ele>428.0</ele><time>2026-04-26T11:32:35.339Z</time></trkpt><trkpt lat="43.9810746" lon="7.7941073"><ele>427.0</ele><time>2026-04-26T11:32:36.338Z</time></trkpt><trkpt lat="43.9809505" lon="7.7941583"><ele>425.5</ele><time>2026-04-26T11:32:37.34Z</time></trkpt><trkpt lat="43.980836" lon="7.7942228"><ele>424.0</ele><time>2026-04-26T11:32:38.339Z</time></trkpt><trkpt lat="43.9807191" lon="7.7943146"><ele>422.5</ele><time>2026-04-26T11:32:39.339Z</time></trkpt><trkpt lat="43.9806161" lon="7.7944399"><ele>421.0</ele><time>2026-04-26T11:32:40.338Z</time></trkpt><trkpt lat="43.9805057" lon="7.7945867"><ele>421.0</ele><time>2026-04-26T11:32:41.339Z</time></trkpt><trkpt lat="43.9803921" lon="7.7947523"><ele>421.0</ele><time>2026-04-26T11:32:42.339Z</time></trkpt><trkpt lat="43.9802721" lon="7.7949206"><ele>421.0</ele><time>2026-04-26T11:32:43.339Z</time></trkpt><trkpt lat="43.9801558" lon="7.7950792"><ele>421.75</ele><time>2026-04-26T11:32:44.34Z</time></trkpt><trkpt lat="43.9800424" lon="7.7952351"><ele>422.5</ele><time>2026-04-26T11:32:45.34Z</time></trkpt><trkpt lat="43.9799445" lon="7.795385"><ele>423.25</ele><time>2026-04-26T11:32:46.339Z</time></trkpt><trkpt lat="43.979853" lon="7.7955396"><ele>424.0</ele><time>2026-04-26T11:32:47.34Z</time></trkpt><trkpt lat="43.9797789" lon="7.7957116"><ele>424.0</ele><time>2026-04-26T11:32:48.339Z</time></trkpt><trkpt lat="43.9797183" lon="7.7959062"><ele>424.0</ele><time>2026-04-26T11:32:49.339Z</time></trkpt><trkpt lat="43.9796709" lon="7.7961112"><ele>424.0</ele><time>2026-04-26T11:32:50.339Z</time></trkpt><trkpt lat="43.9796268" lon="7.7963192"><ele>425.0</ele><time>2026-04-26T11:32:51.34Z</time></trkpt><trkpt lat="43.9795908" lon="7.7965365"><ele>426.0</ele><time>2026-04-26T11:32:52.34Z</time></trkpt><trkpt lat="43.9795559" lon="7.7967588"><ele>427.0</ele><time>2026-04-26T11:32:53.339Z</time></trkpt><trkpt lat="43.9795363" lon="7.7969896"><ele>430.33333333333337</ele><time>2026-04-26T11:32:54.339Z</time></trkpt><trkpt lat="43.9795167" lon="7.7972152"><ele>433.66666666666663</ele><time>2026-04-26T11:32:55.34Z</time></trkpt><trkpt lat="43.9794845" lon="7.7974456"><ele>437.0</ele><time>2026-04-26T11:32:56.34Z</time></trkpt><trkpt lat="43.9794433" lon="7.7976708"><ele>444.66666666666663</ele><time>2026-04-26T11:32:57.338Z</time></trkpt><trkpt lat="43.9793955" lon="7.797887"><ele>452.33333333333337</ele><time>2026-04-26T11:32:58.339Z</time></trkpt><trkpt lat="43.9793412" lon="7.7981032"><ele>460.0</ele><time>2026-04-26T11:32:59.339Z</time></trkpt><trkpt lat="43.9792899" lon="7.7983078"><ele>466.0</ele><time>2026-04-26T11:33:00.339Z</time></trkpt><trkpt lat="43.9792338" lon="7.7985038"><ele>472.0</ele><time>2026-04-26T11:33:01.34Z</time></trkpt><trkpt lat="43.9791704" lon="7.7987023"><ele>478.0</ele><time>2026-04-26T11:33:02.339Z</time></trkpt><trkpt lat="43.9790984" lon="7.7989089"><ele>462.0</ele><time>2026-04-26T11:33:03.339Z</time></trkpt><trkpt lat="43.9790199" lon="7.7991069"><ele>446.0</ele><time>2026-04-26T11:33:04.339Z</time></trkpt><trkpt lat="43.9789313" lon="7.7992906"><ele>430.0</ele><time>2026-04-26T11:33:05.339Z</time></trkpt><trkpt lat="43.9788456" lon="7.7994698"><ele>430.0</ele><time>2026-04-26T11:33:06.34Z</time></trkpt><trkpt lat="43.9787646" lon="7.7996382"><ele>430.0</ele><time>2026-04-26T11:33:07.339Z</time></trkpt><trkpt lat="43.9786739" lon="7.7998189"><ele>430.0</ele><time>2026-04-26T11:33:08.339Z</time></trkpt><trkpt lat="43.9785579" lon="7.8000138"><ele>426.0</ele><time>2026-04-26T11:33:09.34Z</time></trkpt><trkpt lat="43.9784253" lon="7.8002065"><ele>422.0</ele><time>2026-04-26T11:33:10.339Z</time></trkpt><trkpt lat="43.9782837" lon="7.8003964"><ele>418.0</ele><time>2026-04-26T11:33:11.34Z</time></trkpt><trkpt lat="43.978147" lon="7.8005779"><ele>418.0</ele><time>2026-04-26T11:33:12.34Z</time></trkpt><trkpt lat="43.978027" lon="7.8007595"><ele>418.0</ele><time>2026-04-26T11:33:13.34Z</time></trkpt><trkpt lat="43.9779063" lon="7.8009396"><ele>418.0</ele><time>2026-04-26T11:33:14.339Z</time></trkpt><trkpt lat="43.9777875" lon="7.8011046"><ele>415.6666666666667</ele><time>2026-04-26T11:33:15.339Z</time></trkpt><trkpt lat="43.9776384" lon="7.8012693"><ele>413.33333333333337</ele><time>2026-04-26T11:33:16.339Z</time></trkpt><trkpt lat="43.9774735" lon="7.8014237"><ele>411.0</ele><time>2026-04-26T11:33:17.34Z</time></trkpt><trkpt lat="43.9773162" lon="7.8015675"><ele>411.0</ele><time>2026-04-26T11:33:18.338Z</time></trkpt><trkpt lat="43.9771744" lon="7.8017131"><ele>411.0</ele><time>2026-04-26T11:33:19.34Z</time></trkpt><trkpt lat="43.977033" lon="7.8018498"><ele>411.0</ele><time>2026-04-26T11:33:20.34Z</time></trkpt><trkpt lat="43.976898" lon="7.8019588"><ele>414.75</ele><time>2026-04-26T11:33:21.34Z</time></trkpt><trkpt lat="43.9767723" lon="7.8020593"><ele>418.5</ele><time>2026-04-26T11:33:22.339Z</time></trkpt><trkpt lat="43.9766657" lon="7.8021283"><ele>422.25</ele><time>2026-04-26T11:33:23.339Z</time></trkpt><trkpt lat="43.9765563" lon="7.802176"><ele>426.0</ele><time>2026-04-26T11:33:24.34Z</time></trkpt><trkpt lat="43.9764367" lon="7.8022023"><ele>426.0</ele><time>2026-04-26T11:33:25.339Z</time></trkpt><trkpt lat="43.9763122" lon="7.8022379"><ele>426.0</ele><time>2026-04-26T11:33:26.339Z</time></trkpt><trkpt lat="43.9761761" lon="7.8022654"><ele>426.0</ele><time>2026-04-26T11:33:27.34Z</time></trkpt><trkpt lat="43.9760474" lon="7.8022958"><ele>426.0</ele><time>2026-04-26T11:33:28.339Z</time></trkpt><trkpt lat="43.9759277" lon="7.8023412"><ele>419.0</ele><time>2026-04-26T11:33:29.34Z</time></trkpt><trkpt lat="43.9758086" lon="7.8023881"><ele>412.0</ele><time>2026-04-26T11:33:30.339Z</time></trkpt><trkpt lat="43.9757014" lon="7.8024831"><ele>405.0</ele><time>2026-04-26T11:33:31.339Z</time></trkpt><trkpt lat="43.9755901" lon="7.8025735"><ele>398.0</ele><time>2026-04-26T11:33:32.339Z</time></trkpt><trkpt lat="43.9754852" lon="7.8026592"><ele>406.25</ele><time>2026-04-26T11:33:33.34Z</time></trkpt><trkpt lat="43.9753856" lon="7.8027692"><ele>414.5</ele><time>2026-04-26T11:33:34.34Z</time></trkpt><trkpt lat="43.975292" lon="7.8028821"><ele>422.75</ele><time>2026-04-26T11:33:35.34Z</time></trkpt><trkpt lat="43.9751923" lon="7.8029923"><ele>431.0</ele><time>2026-04-26T11:33:36.339Z</time></trkpt><trkpt lat="43.9751018" lon="7.8031058"><ele>425.6</ele><time>2026-04-26T11:33:37.34Z</time></trkpt><trkpt lat="43.975018" lon="7.8032084"><ele>420.20000000000005</ele><time>2026-04-26T11:33:38.339Z</time></trkpt><trkpt lat="43.974948" lon="7.8033129"><ele>414.79999999999995</ele><time>2026-04-26T11:33:39.34Z</time></trkpt><trkpt lat="43.9748845" lon="7.8034238"><ele>409.4</ele><time>2026-04-26T11:33:40.339Z</time></trkpt><trkpt lat="43.9748206" lon="7.8035526"><ele>404.0</ele><time>2026-04-26T11:33:41.339Z</time></trkpt><trkpt lat="43.9747661" lon="7.8036984"><ele>404.0</ele><time>2026-04-26T11:33:42.339Z</time></trkpt><trkpt lat="43.9747059" lon="7.8038431"><ele>404.0</ele><time>2026-04-26T11:33:43.34Z</time></trkpt><trkpt lat="43.9746712" lon="7.8040161"><ele>404.0</ele><time>2026-04-26T11:33:44.34Z</time></trkpt><trkpt lat="43.974653" lon="7.8042037"><ele>404.0</ele><time>2026-04-26T11:33:45.34Z</time></trkpt><trkpt lat="43.9746442" lon="7.8044014"><ele>402.75</ele><time>2026-04-26T11:33:46.34Z</time></trkpt><trkpt lat="43.9746468" lon="7.8046035"><ele>401.5</ele><time>2026-04-26T11:33:47.339Z</time></trkpt><trkpt lat="43.9746565" lon="7.8047986"><ele>400.25</ele><time>2026-04-26T11:33:48.339Z</time></trkpt><trkpt lat="43.9746724" lon="7.8049933"><ele>399.0</ele><time>2026-04-26T11:33:49.34Z</time></trkpt><trkpt lat="43.9746979" lon="7.805192"><ele>396.25</ele><time>2026-04-26T11:33:50.34Z</time></trkpt><trkpt lat="43.974734" lon="7.8053946"><ele>393.5</ele><time>2026-04-26T11:33:51.34Z</time></trkpt><trkpt lat="43.9747752" lon="7.8055892"><ele>390.75</ele><time>2026-04-26T11:33:52.339Z</time></trkpt><trkpt lat="43.9748029" lon="7.8057835"><ele>388.0</ele><time>2026-04-26T11:33:53.34Z</time></trkpt><trkpt lat="43.9748433" lon="7.8059762"><ele>387.75</ele><time>2026-04-26T11:33:54.34Z</time></trkpt><trkpt lat="43.974881" lon="7.8061653"><ele>387.5</ele><time>2026-04-26T11:33:55.34Z</time></trkpt><trkpt lat="43.9749092" lon="7.8063506"><ele>387.25</ele><time>2026-04-26T11:33:56.34Z</time></trkpt><trkpt lat="43.9749284" lon="7.8065329"><ele>387.0</ele><time>2026-04-26T11:33:57.34Z</time></trkpt><trkpt lat="43.9749377" lon="7.8067051"><ele>387.0</ele><time>2026-04-26T11:33:58.34Z</time></trkpt><trkpt lat="43.9749469" lon="7.806881"><ele>387.0</ele><time>2026-04-26T11:33:59.34Z</time></trkpt><trkpt lat="43.9749532" lon="7.807043"><ele>387.0</ele><time>2026-04-26T11:34:00.339Z</time></trkpt><trkpt lat="43.9749519" lon="7.8072095"><ele>387.0</ele><time>2026-04-26T11:34:01.34Z</time></trkpt><trkpt lat="43.9749461" lon="7.8073792"><ele>387.0</ele><time>2026-04-26T11:34:02.339Z</time></trkpt><trkpt lat="43.9749395" lon="7.8075582"><ele>387.0</ele><time>2026-04-26T11:34:03.339Z</time></trkpt><trkpt lat="43.9749347" lon="7.8077437"><ele>387.0</ele><time>2026-04-26T11:34:04.34Z</time></trkpt><trkpt lat="43.9749215" lon="7.807933"><ele>387.0</ele><time>2026-04-26T11:34:05.34Z</time></trkpt><trkpt lat="43.9748898" lon="7.8081025"><ele>389.0</ele><time>2026-04-26T11:34:06.34Z</time></trkpt><trkpt lat="43.9748376" lon="7.8082729"><ele>391.0</ele><time>2026-04-26T11:34:07.339Z</time></trkpt><trkpt lat="43.9747783" lon="7.8084548"><ele>393.0</ele><time>2026-04-26T11:34:08.339Z</time></trkpt><trkpt lat="43.9747213" lon="7.8086447"><ele>395.0</ele><time>2026-04-26T11:34:09.338Z</time></trkpt><trkpt lat="43.9746733" lon="7.8088243"><ele>396.5</ele><time>2026-04-26T11:34:10.339Z</time></trkpt><trkpt lat="43.9746356" lon="7.8090003"><ele>398.0</ele><time>2026-04-26T11:34:11.34Z</time></trkpt><trkpt lat="43.9746" lon="7.8091706"><ele>399.5</ele><time>2026-04-26T11:34:12.339Z</time></trkpt><trkpt lat="43.974551" lon="7.8093377"><ele>401.0</ele><time>2026-04-26T11:34:13.34Z</time></trkpt><trkpt lat="43.9744973" lon="7.8095124"><ele>403.5</ele><time>2026-04-26T11:34:14.34Z</time></trkpt><trkpt lat="43.9744354" lon="7.8097004"><ele>406.0</ele><time>2026-04-26T11:34:15.34Z</time></trkpt><trkpt lat="43.9743793" lon="7.8098875"><ele>408.5</ele><time>2026-04-26T11:34:16.34Z</time></trkpt><trkpt lat="43.9743108" lon="7.8100735"><ele>411.0</ele><time>2026-04-26T11:34:17.34Z</time></trkpt><trkpt lat="43.9742449" lon="7.8102531"><ele>405.5</ele><time>2026-04-26T11:34:18.339Z</time></trkpt><trkpt lat="43.9741731" lon="7.810433"><ele>400.0</ele><time>2026-04-26T11:34:19.34Z</time></trkpt><trkpt lat="43.9741033" lon="7.8106138"><ele>394.5</ele><time>2026-04-26T11:34:20.339Z</time></trkpt><trkpt lat="43.9740379" lon="7.8107933"><ele>389.0</ele><time>2026-04-26T11:34:21.34Z</time></trkpt><trkpt lat="43.9739837" lon="7.8109752"><ele>390.5</ele><time>2026-04-26T11:34:22.339Z</time></trkpt><trkpt lat="43.973925" lon="7.8111581"><ele>392.0</ele><time>2026-04-26T11:34:23.339Z</time></trkpt><trkpt lat="43.9738661" lon="7.8113323"><ele>393.5</ele><time>2026-04-26T11:34:24.34Z</time></trkpt><trkpt lat="43.973805" lon="7.8114986"><ele>395.0</ele><time>2026-04-26T11:34:25.339Z</time></trkpt><trkpt lat="43.9737297" lon="7.8116608"><ele>395.0</ele><time>2026-04-26T11:34:26.34Z</time></trkpt><trkpt lat="43.9736179" lon="7.8118121"><ele>395.0</ele><time>2026-04-26T11:34:27.339Z</time></trkpt><trkpt lat="43.9735116" lon="7.811969"><ele>395.0</ele><time>2026-04-26T11:34:28.34Z</time></trkpt><trkpt lat="43.9734024" lon="7.8121185"><ele>395.5</ele><time>2026-04-26T11:34:29.34Z</time></trkpt><trkpt lat="43.973294" lon="7.812258"><ele>396.0</ele><time>2026-04-26T11:34:30.34Z</time></trkpt><trkpt lat="43.9731874" lon="7.8123978"><ele>396.5</ele><time>2026-04-26T11:34:31.338Z</time></trkpt><trkpt lat="43.9730844" lon="7.8125158"><ele>397.0</ele><time>2026-04-26T11:34:32.34Z</time></trkpt><trkpt lat="43.9729792" lon="7.812641"><ele>406.0</ele><time>2026-04-26T11:34:33.338Z</time></trkpt><trkpt lat="43.972872" lon="7.8127691"><ele>415.0</ele><time>2026-04-26T11:34:34.339Z</time></trkpt><trkpt lat="43.9727651" lon="7.8129053"><ele>424.0</ele><time>2026-04-26T11:34:35.34Z</time></trkpt><trkpt lat="43.9726625" lon="7.8130401"><ele>433.0</ele><time>2026-04-26T11:34:36.339Z</time></trkpt><trkpt lat="43.9725579" lon="7.8131895"><ele>426.75</ele><time>2026-04-26T11:34:37.339Z</time></trkpt><trkpt lat="43.9724616" lon="7.8133332"><ele>420.5</ele><time>2026-04-26T11:34:38.339Z</time></trkpt><trkpt lat="43.9723581" lon="7.8134802"><ele>414.25</ele><time>2026-04-26T11:34:39.34Z</time></trkpt><trkpt lat="43.9722583" lon="7.8136189"><ele>408.0</ele><time>2026-04-26T11:34:40.34Z</time></trkpt><trkpt lat="43.9721684" lon="7.8137523"><ele>408.0</ele><time>2026-04-26T11:34:41.338Z</time></trkpt><trkpt lat="43.9720845" lon="7.8138772"><ele>408.0</ele><time>2026-04-26T11:34:42.339Z</time></trkpt><trkpt lat="43.9720029" lon="7.8140056"><ele>408.0</ele><time>2026-04-26T11:34:43.339Z</time></trkpt><trkpt lat="43.9719194" lon="7.8141306"><ele>408.0</ele><time>2026-04-26T11:34:44.34Z</time></trkpt><trkpt lat="43.9718437" lon="7.8142685"><ele>411.75</ele><time>2026-04-26T11:34:45.339Z</time></trkpt><trkpt lat="43.971775" lon="7.8144231"><ele>415.5</ele><time>2026-04-26T11:34:46.339Z</time></trkpt><trkpt lat="43.9717106" lon="7.8145853"><ele>419.25</ele><time>2026-04-26T11:34:47.34Z</time></trkpt><trkpt lat="43.9716514" lon="7.8147455"><ele>423.0</ele><time>2026-04-26T11:34:48.34Z</time></trkpt><trkpt lat="43.9715863" lon="7.8148948"><ele>415.2</ele><time>2026-04-26T11:34:49.34Z</time></trkpt><trkpt lat="43.9715316" lon="7.8150349"><ele>407.4</ele><time>2026-04-26T11:34:50.34Z</time></trkpt><trkpt lat="43.9714956" lon="7.8151768"><ele>399.59999999999997</ele><time>2026-04-26T11:34:51.339Z</time></trkpt><trkpt lat="43.9714686" lon="7.8153095"><ele>391.79999999999995</ele><time>2026-04-26T11:34:52.34Z</time></trkpt><trkpt lat="43.971455" lon="7.8154426"><ele>384.0</ele><time>2026-04-26T11:34:53.34Z</time></trkpt><trkpt lat="43.9714373" lon="7.8155774"><ele>384.0</ele><time>2026-04-26T11:34:54.34Z</time></trkpt><trkpt lat="43.9714097" lon="7.8156904"><ele>384.0</ele><time>2026-04-26T11:34:55.339Z</time></trkpt><trkpt lat="43.9713381" lon="7.8157777"><ele>384.0</ele><time>2026-04-26T11:34:56.339Z</time></trkpt><trkpt lat="43.971259" lon="7.8158602"><ele>384.0</ele><time>2026-04-26T11:34:57.34Z</time></trkpt><trkpt lat="43.9711719" lon="7.815929"><ele>384.0</ele><time>2026-04-26T11:34:58.34Z</time></trkpt><trkpt lat="43.9710702" lon="7.8159661"><ele>386.5</ele><time>2026-04-26T11:34:59.339Z</time></trkpt><trkpt lat="43.9709681" lon="7.8160232"><ele>389.0</ele><time>2026-04-26T11:35:00.34Z</time></trkpt><trkpt lat="43.9708551" lon="7.8160798"><ele>391.5</ele><time>2026-04-26T11:35:01.34Z</time></trkpt><trkpt lat="43.9707408" lon="7.8161326"><ele>394.0</ele><time>2026-04-26T11:35:02.339Z</time></trkpt><trkpt lat="43.9706281" lon="7.8161942"><ele>394.0</ele><time>2026-04-26T11:35:03.34Z</time></trkpt><trkpt lat="43.9705153" lon="7.8162505"><ele>394.0</ele><time>2026-04-26T11:35:04.34Z</time></trkpt><trkpt lat="43.9703983" lon="7.8163087"><ele>394.0</ele><time>2026-04-26T11:35:05.339Z</time></trkpt><trkpt lat="43.9702782" lon="7.8163563"><ele>394.0</ele><time>2026-04-26T11:35:06.34Z</time></trkpt><trkpt lat="43.9701551" lon="7.8163963"><ele>394.0</ele><time>2026-04-26T11:35:07.34Z</time></trkpt><trkpt lat="43.9700339" lon="7.8164203"><ele>394.0</ele><time>2026-04-26T11:35:08.34Z</time></trkpt><trkpt lat="43.9699174" lon="7.8164467"><ele>394.0</ele><time>2026-04-26T11:35:09.34Z</time></trkpt><trkpt lat="43.9698014" lon="7.8164589"><ele>394.0</ele><time>2026-04-26T11:35:10.339Z</time></trkpt><trkpt lat="43.9696804" lon="7.8164633"><ele>391.5</ele><time>2026-04-26T11:35:11.34Z</time></trkpt><trkpt lat="43.9695622" lon="7.8164531"><ele>389.0</ele><time>2026-04-26T11:35:12.348Z</time></trkpt><trkpt lat="43.9694402" lon="7.8164275"><ele>386.5</ele><time>2026-04-26T11:35:13.34Z</time></trkpt><trkpt lat="43.9693193" lon="7.8163908"><ele>384.0</ele><time>2026-04-26T11:35:14.339Z</time></trkpt><trkpt lat="43.9692093" lon="7.8163513"><ele>385.2</ele><time>2026-04-26T11:35:15.339Z</time></trkpt><trkpt lat="43.9691013" lon="7.8163099"><ele>386.4</ele><time>2026-04-26T11:35:16.34Z</time></trkpt><trkpt lat="43.9689994" lon="7.8162854"><ele>387.6</ele><time>2026-04-26T11:35:17.339Z</time></trkpt><trkpt lat="43.9689046" lon="7.8162503"><ele>388.8</ele><time>2026-04-26T11:35:18.339Z</time></trkpt><trkpt lat="43.9688223" lon="7.8162249"><ele>390.0</ele><time>2026-04-26T11:35:19.34Z</time></trkpt><trkpt lat="43.9687337" lon="7.8162024"><ele>390.0</ele><time>2026-04-26T11:35:20.339Z</time></trkpt><trkpt lat="43.968635" lon="7.8161826"><ele>390.0</ele><time>2026-04-26T11:35:21.34Z</time></trkpt><trkpt lat="43.9685407" lon="7.8161686"><ele>390.0</ele><time>2026-04-26T11:35:22.34Z</time></trkpt><trkpt lat="43.9684404" lon="7.8161753"><ele>390.0</ele><time>2026-04-26T11:35:23.339Z</time></trkpt><trkpt lat="43.96834" lon="7.8161685"><ele>390.0</ele><time>2026-04-26T11:35:24.34Z</time></trkpt><trkpt lat="43.9682377" lon="7.81615"><ele>387.0</ele><time>2026-04-26T11:35:25.34Z</time></trkpt><trkpt lat="43.9681409" lon="7.8161581"><ele>384.0</ele><time>2026-04-26T11:35:26.339Z</time></trkpt><trkpt lat="43.9680411" lon="7.8161587"><ele>381.0</ele><time>2026-04-26T11:35:27.34Z</time></trkpt><trkpt lat="43.9679469" lon="7.8161658"><ele>378.0</ele><time>2026-04-26T11:35:28.339Z</time></trkpt><trkpt lat="43.967858" lon="7.8161886"><ele>375.0</ele><time>2026-04-26T11:35:29.339Z</time></trkpt><trkpt lat="43.967777" lon="7.816218"><ele>375.0</ele><time>2026-04-26T11:35:30.339Z</time></trkpt><trkpt lat="43.9677011" lon="7.8162659"><ele>375.0</ele><time>2026-04-26T11:35:31.34Z</time></trkpt><trkpt lat="43.9676297" lon="7.8163234"><ele>375.0</ele><time>2026-04-26T11:35:32.34Z</time></trkpt><trkpt lat="43.9675667" lon="7.8163915"><ele>375.0</ele><time>2026-04-26T11:35:33.34Z</time></trkpt><trkpt lat="43.9675026" lon="7.8164611"><ele>375.0</ele><time>2026-04-26T11:35:34.339Z</time></trkpt><trkpt lat="43.9674377" lon="7.8165254"><ele>375.0</ele><time>2026-04-26T11:35:35.339Z</time></trkpt><trkpt lat="43.9673768" lon="7.8166006"><ele>376.6</ele><time>2026-04-26T11:35:36.339Z</time></trkpt><trkpt lat="43.9673192" lon="7.816676"><ele>378.2</ele><time>2026-04-26T11:35:37.339Z</time></trkpt><trkpt lat="43.967257" lon="7.8167498"><ele>379.79999999999995</ele><time>2026-04-26T11:35:38.34Z</time></trkpt><trkpt lat="43.9671836" lon="7.8168299"><ele>381.4</ele><time>2026-04-26T11:35:39.339Z</time></trkpt><trkpt lat="43.9671128" lon="7.8169167"><ele>383.0</ele><time>2026-04-26T11:35:40.34Z</time></trkpt><trkpt lat="43.9670363" lon="7.8170151"><ele>383.0</ele><time>2026-04-26T11:35:41.34Z</time></trkpt><trkpt lat="43.9669571" lon="7.8171112"><ele>383.0</ele><time>2026-04-26T11:35:42.339Z</time></trkpt><trkpt lat="43.9668702" lon="7.8172027"><ele>383.0</ele><time>2026-04-26T11:35:43.339Z</time></trkpt><trkpt lat="43.9667774" lon="7.8172867"><ele>383.0</ele><time>2026-04-26T11:35:44.34Z</time></trkpt><trkpt lat="43.9666796" lon="7.8173596"><ele>383.0</ele><time>2026-04-26T11:35:45.34Z</time></trkpt><trkpt lat="43.9665786" lon="7.8174336"><ele>385.79999999999995</ele><time>2026-04-26T11:35:46.339Z</time></trkpt><trkpt lat="43.9664792" lon="7.8175003"><ele>388.6</ele><time>2026-04-26T11:35:47.339Z</time></trkpt><trkpt lat="43.9663787" lon="7.8175492"><ele>391.4</ele><time>2026-04-26T11:35:48.339Z</time></trkpt><trkpt lat="43.9662886" lon="7.8175943"><ele>394.20000000000005</ele><time>2026-04-26T11:35:49.339Z</time></trkpt><trkpt lat="43.9661858" lon="7.8176222"><ele>397.0</ele><time>2026-04-26T11:35:50.341Z</time></trkpt><trkpt lat="43.9660813" lon="7.8176521"><ele>397.0</ele><time>2026-04-26T11:35:51.339Z</time></trkpt><trkpt lat="43.9659778" lon="7.8176971"><ele>397.0</ele><time>2026-04-26T11:35:52.339Z</time></trkpt><trkpt lat="43.9658827" lon="7.8177794"><ele>397.0</ele><time>2026-04-26T11:35:53.339Z</time></trkpt><trkpt lat="43.9657876" lon="7.817873"><ele>397.0</ele><time>2026-04-26T11:35:54.339Z</time></trkpt><trkpt lat="43.9656901" lon="7.8179574"><ele>394.0</ele><time>2026-04-26T11:35:55.339Z</time></trkpt><trkpt lat="43.9655937" lon="7.8180286"><ele>391.0</ele><time>2026-04-26T11:35:56.34Z</time></trkpt><trkpt lat="43.9654982" lon="7.8180755"><ele>388.0</ele><time>2026-04-26T11:35:57.34Z</time></trkpt><trkpt lat="43.9654042" lon="7.8181059"><ele>385.0</ele><time>2026-04-26T11:35:58.34Z</time></trkpt><trkpt lat="43.9653028" lon="7.8180979"><ele>382.0</ele><time>2026-04-26T11:35:59.34Z</time></trkpt><trkpt lat="43.9652015" lon="7.8181025"><ele>382.0</ele><time>2026-04-26T11:36:00.339Z</time></trkpt><trkpt lat="43.9650973" lon="7.8180807"><ele>382.0</ele><time>2026-04-26T11:36:01.34Z</time></trkpt><trkpt lat="43.9650066" lon="7.8180488"><ele>382.0</ele><time>2026-04-26T11:36:02.34Z</time></trkpt><trkpt lat="43.9649101" lon="7.8180076"><ele>382.0</ele><time>2026-04-26T11:36:03.339Z</time></trkpt><trkpt lat="43.9648184" lon="7.8179835"><ele>382.0</ele><time>2026-04-26T11:36:04.339Z</time></trkpt><trkpt lat="43.9647282" lon="7.8179505"><ele>380.40000000000003</ele><time>2026-04-26T11:36:05.339Z</time></trkpt><trkpt lat="43.9646386" lon="7.8179458"><ele>378.8</ele><time>2026-04-26T11:36:06.341Z</time></trkpt><trkpt lat="43.9645574" lon="7.8179492"><ele>377.2</ele><time>2026-04-26T11:36:07.339Z</time></trkpt><trkpt lat="43.9644647" lon="7.8179958"><ele>375.6</ele><time>2026-04-26T11:36:08.34Z</time></trkpt><trkpt lat="43.964384" lon="7.8180603"><ele>374.0</ele><time>2026-04-26T11:36:09.34Z</time></trkpt><trkpt lat="43.9642957" lon="7.8181382"><ele>374.0</ele><time>2026-04-26T11:36:10.34Z</time></trkpt><trkpt lat="43.96421" lon="7.8182266"><ele>374.0</ele><time>2026-04-26T11:36:11.34Z</time></trkpt><trkpt lat="43.9641231" lon="7.818299"><ele>374.0</ele><time>2026-04-26T11:36:12.339Z</time></trkpt><trkpt lat="43.9640413" lon="7.818349"><ele>374.0</ele><time>2026-04-26T11:36:13.34Z</time></trkpt><trkpt lat="43.9639556" lon="7.8183803"><ele>374.0</ele><time>2026-04-26T11:36:14.34Z</time></trkpt><trkpt lat="43.9638657" lon="7.8184152"><ele>372.1666666666667</ele><time>2026-04-26T11:36:15.339Z</time></trkpt><trkpt lat="43.9637872" lon="7.8184775"><ele>370.33333333333337</ele><time>2026-04-26T11:36:16.34Z</time></trkpt><trkpt lat="43.9637095" lon="7.8185398"><ele>368.5</ele><time>2026-04-26T11:36:17.341Z</time></trkpt><trkpt lat="43.9636558" lon="7.8186282"><ele>366.6666666666667</ele><time>2026-04-26T11:36:18.34Z</time></trkpt><trkpt lat="43.9636062" lon="7.8187349"><ele>364.8333333333333</ele><time>2026-04-26T11:36:19.34Z</time></trkpt><trkpt lat="43.963569" lon="7.8188517"><ele>363.0</ele><time>2026-04-26T11:36:20.34Z</time></trkpt><trkpt lat="43.9635407" lon="7.8189581"><ele>363.2</ele><time>2026-04-26T11:36:21.34Z</time></trkpt><trkpt lat="43.963505" lon="7.8190849"><ele>363.4</ele><time>2026-04-26T11:36:22.339Z</time></trkpt><trkpt lat="43.9634714" lon="7.8192191"><ele>363.59999999999997</ele><time>2026-04-26T11:36:23.339Z</time></trkpt><trkpt lat="43.9634388" lon="7.8193568"><ele>363.79999999999995</ele><time>2026-04-26T11:36:24.339Z</time></trkpt><trkpt lat="43.9634009" lon="7.8194985"><ele>364.0</ele><time>2026-04-26T11:36:25.339Z</time></trkpt><trkpt lat="43.9633543" lon="7.8196404"><ele>364.0</ele><time>2026-04-26T11:36:26.34Z</time></trkpt><trkpt lat="43.9633177" lon="7.8197864"><ele>364.0</ele><time>2026-04-26T11:36:27.34Z</time></trkpt><trkpt lat="43.9632859" lon="7.8199407"><ele>364.0</ele><time>2026-04-26T11:36:28.339Z</time></trkpt><trkpt lat="43.9632558" lon="7.8201051"><ele>364.0</ele><time>2026-04-26T11:36:29.34Z</time></trkpt><trkpt lat="43.9632164" lon="7.8202491"><ele>366.5</ele><time>2026-04-26T11:36:30.34Z</time></trkpt><trkpt lat="43.9631802" lon="7.820417"><ele>369.0</ele><time>2026-04-26T11:36:31.339Z</time></trkpt><trkpt lat="43.9631516" lon="7.8205795"><ele>371.5</ele><time>2026-04-26T11:36:32.34Z</time></trkpt><trkpt lat="43.9631217" lon="7.8207342"><ele>374.0</ele><time>2026-04-26T11:36:33.341Z</time></trkpt><trkpt lat="43.9630811" lon="7.8208889"><ele>379.0</ele><time>2026-04-26T11:36:34.34Z</time></trkpt><trkpt lat="43.9630399" lon="7.8210437"><ele>384.0</ele><time>2026-04-26T11:36:35.34Z</time></trkpt><trkpt lat="43.9629823" lon="7.8211807"><ele>389.0</ele><time>2026-04-26T11:36:36.34Z</time></trkpt><trkpt lat="43.9629125" lon="7.8213075"><ele>394.0</ele><time>2026-04-26T11:36:37.339Z</time></trkpt><trkpt lat="43.9628382" lon="7.8214413"><ele>394.0</ele><time>2026-04-26T11:36:38.339Z</time></trkpt><trkpt lat="43.9627699" lon="7.8215655"><ele>394.0</ele><time>2026-04-26T11:36:39.34Z</time></trkpt><trkpt lat="43.9626984" lon="7.821685"><ele>394.0</ele><time>2026-04-26T11:36:40.339Z</time></trkpt><trkpt lat="43.9626272" lon="7.8218053"><ele>394.0</ele><time>2026-04-26T11:36:41.339Z</time></trkpt><trkpt lat="43.9625485" lon="7.8218831"><ele>394.0</ele><time>2026-04-26T11:36:42.339Z</time></trkpt><trkpt lat="43.9624684" lon="7.8219528"><ele>396.4</ele><time>2026-04-26T11:36:43.34Z</time></trkpt><trkpt lat="43.9623815" lon="7.8220212"><ele>398.79999999999995</ele><time>2026-04-26T11:36:44.339Z</time></trkpt><trkpt lat="43.9622891" lon="7.8220845"><ele>401.20000000000005</ele><time>2026-04-26T11:36:45.339Z</time></trkpt><trkpt lat="43.9621895" lon="7.8221482"><ele>403.6</ele><time>2026-04-26T11:36:46.339Z</time></trkpt><trkpt lat="43.9620901" lon="7.8222038"><ele>406.0</ele><time>2026-04-26T11:36:47.339Z</time></trkpt><trkpt lat="43.9619828" lon="7.8222637"><ele>406.0</ele><time>2026-04-26T11:36:48.339Z</time></trkpt><trkpt lat="43.9618737" lon="7.8223139"><ele>406.0</ele><time>2026-04-26T11:36:49.339Z</time></trkpt><trkpt lat="43.9617505" lon="7.822352"><ele>406.0</ele><time>2026-04-26T11:36:50.34Z</time></trkpt><trkpt lat="43.9616273" lon="7.8223904"><ele>406.0</ele><time>2026-04-26T11:36:51.339Z</time></trkpt><trkpt lat="43.961515" lon="7.8224177"><ele>403.0</ele><time>2026-04-26T11:36:52.339Z</time></trkpt><trkpt lat="43.9614039" lon="7.8224277"><ele>400.0</ele><time>2026-04-26T11:36:53.34Z</time></trkpt><trkpt lat="43.9612923" lon="7.8224123"><ele>397.0</ele><time>2026-04-26T11:36:54.339Z</time></trkpt><trkpt lat="43.9611835" lon="7.8223653"><ele>394.0</ele><time>2026-04-26T11:36:55.339Z</time></trkpt><trkpt lat="43.9610812" lon="7.8223006"><ele>394.0</ele><time>2026-04-26T11:36:56.339Z</time></trkpt><trkpt lat="43.9610145" lon="7.8222201"><ele>394.0</ele><time>2026-04-26T11:36:57.34Z</time></trkpt><trkpt lat="43.9609284" lon="7.8221412"><ele>394.0</ele><time>2026-04-26T11:36:58.339Z</time></trkpt><trkpt lat="43.9608335" lon="7.8221051"><ele>394.0</ele><time>2026-04-26T11:36:59.34Z</time></trkpt><trkpt lat="43.9607349" lon="7.822075"><ele>394.0</ele><time>2026-04-26T11:37:00.34Z</time></trkpt><trkpt lat="43.9606277" lon="7.8220732"><ele>393.75</ele><time>2026-04-26T11:37:01.34Z</time></trkpt><trkpt lat="43.9605137" lon="7.8220817"><ele>393.5</ele><time>2026-04-26T11:37:02.34Z</time></trkpt><trkpt lat="43.9603971" lon="7.8220808"><ele>393.25</ele><time>2026-04-26T11:37:03.339Z</time></trkpt><trkpt lat="43.9602869" lon="7.8220862"><ele>393.0</ele><time>2026-04-26T11:37:04.339Z</time></trkpt><trkpt lat="43.9601759" lon="7.822099"><ele>393.0</ele><time>2026-04-26T11:37:05.339Z</time></trkpt><trkpt lat="43.9600785" lon="7.8221013"><ele>393.0</ele><time>2026-04-26T11:37:06.339Z</time></trkpt><trkpt lat="43.9599841" lon="7.8221107"><ele>393.0</ele><time>2026-04-26T11:37:07.34Z</time></trkpt><trkpt lat="43.9598911" lon="7.8221515"><ele>393.0</ele><time>2026-04-26T11:37:08.34Z</time></trkpt><trkpt lat="43.9598064" lon="7.8222144"><ele>393.0</ele><time>2026-04-26T11:37:09.34Z</time></trkpt><trkpt lat="43.9597292" lon="7.822299"><ele>391.4</ele><time>2026-04-26T11:37:10.34Z</time></trkpt><trkpt lat="43.9596577" lon="7.8224062"><ele>389.79999999999995</ele><time>2026-04-26T11:37:11.34Z</time></trkpt><trkpt lat="43.9595967" lon="7.8225226"><ele>388.2</ele><time>2026-04-26T11:37:12.34Z</time></trkpt><trkpt lat="43.9595355" lon="7.8226456"><ele>386.6</ele><time>2026-04-26T11:37:13.34Z</time></trkpt><trkpt lat="43.9594674" lon="7.8227736"><ele>385.0</ele><time>2026-04-26T11:37:14.34Z</time></trkpt><trkpt lat="43.9593934" lon="7.8229032"><ele>381.6</ele><time>2026-04-26T11:37:15.339Z</time></trkpt><trkpt lat="43.9593256" lon="7.8230269"><ele>378.2</ele><time>2026-04-26T11:37:16.34Z</time></trkpt><trkpt lat="43.9592659" lon="7.8231527"><ele>374.79999999999995</ele><time>2026-04-26T11:37:17.339Z</time></trkpt><trkpt lat="43.9592093" lon="7.8232568"><ele>371.4</ele><time>2026-04-26T11:37:18.339Z</time></trkpt><trkpt lat="43.9591487" lon="7.8233654"><ele>368.0</ele><time>2026-04-26T11:37:19.341Z</time></trkpt><trkpt lat="43.9590944" lon="7.8234681"><ele>368.6666666666667</ele><time>2026-04-26T11:37:20.339Z</time></trkpt><trkpt lat="43.9590453" lon="7.8235713"><ele>369.33333333333337</ele><time>2026-04-26T11:37:21.34Z</time></trkpt><trkpt lat="43.9590381" lon="7.8237046"><ele>370.0</ele><time>2026-04-26T11:37:22.338Z</time></trkpt><trkpt lat="43.9590305" lon="7.8238226"><ele>370.6666666666667</ele><time>2026-04-26T11:37:23.339Z</time></trkpt><trkpt lat="43.9590325" lon="7.8239455"><ele>371.3333333333333</ele><time>2026-04-26T11:37:24.34Z</time></trkpt><trkpt lat="43.959019" lon="7.824062"><ele>372.0</ele><time>2026-04-26T11:37:25.339Z</time></trkpt><trkpt lat="43.9589946" lon="7.8241788"><ele>372.0</ele><time>2026-04-26T11:37:26.339Z</time></trkpt><trkpt lat="43.9589374" lon="7.8242898"><ele>372.0</ele><time>2026-04-26T11:37:27.34Z</time></trkpt><trkpt lat="43.9588709" lon="7.8243965"><ele>372.0</ele><time>2026-04-26T11:37:28.34Z</time></trkpt><trkpt lat="43.9588088" lon="7.8245049"><ele>372.0</ele><time>2026-04-26T11:37:29.34Z</time></trkpt><trkpt lat="43.9587398" lon="7.8246253"><ele>372.0</ele><time>2026-04-26T11:37:30.34Z</time></trkpt><trkpt lat="43.9586826" lon="7.8247335"><ele>372.20000000000005</ele><time>2026-04-26T11:37:31.34Z</time></trkpt><trkpt lat="43.9586146" lon="7.8248456"><ele>372.4</ele><time>2026-04-26T11:37:32.341Z</time></trkpt><trkpt lat="43.9585534" lon="7.8249575"><ele>372.6</ele><time>2026-04-26T11:37:33.34Z</time></trkpt><trkpt lat="43.95849" lon="7.8250528"><ele>372.79999999999995</ele><time>2026-04-26T11:37:34.341Z</time></trkpt><trkpt lat="43.9584132" lon="7.8251294"><ele>373.0</ele><time>2026-04-26T11:37:35.339Z</time></trkpt><trkpt lat="43.9583321" lon="7.8251888"><ele>377.4</ele><time>2026-04-26T11:37:36.339Z</time></trkpt><trkpt lat="43.9582382" lon="7.8251855"><ele>381.79999999999995</ele><time>2026-04-26T11:37:37.339Z</time></trkpt><trkpt lat="43.958145" lon="7.8251888"><ele>386.2</ele><time>2026-04-26T11:37:38.34Z</time></trkpt><trkpt lat="43.9580578" lon="7.8252149"><ele>390.6</ele><time>2026-04-26T11:37:39.34Z</time></trkpt><trkpt lat="43.9579764" lon="7.8252702"><ele>395.0</ele><time>2026-04-26T11:37:40.34Z</time></trkpt><trkpt lat="43.9579054" lon="7.8253558"><ele>395.0</ele><time>2026-04-26T11:37:41.342Z</time></trkpt><trkpt lat="43.9578443" lon="7.8254509"><ele>395.0</ele><time>2026-04-26T11:37:42.339Z</time></trkpt><trkpt lat="43.9577922" lon="7.8255519"><ele>395.0</ele><time>2026-04-26T11:37:43.34Z</time></trkpt><trkpt lat="43.9577412" lon="7.8256554"><ele>395.0</ele><time>2026-04-26T11:37:44.339Z</time></trkpt><trkpt lat="43.9576998" lon="7.8257922"><ele>395.0</ele><time>2026-04-26T11:37:45.339Z</time></trkpt><trkpt lat="43.9576366" lon="7.8259374"><ele>393.25</ele><time>2026-04-26T11:37:46.339Z</time></trkpt><trkpt lat="43.9575653" lon="7.8260868"><ele>391.5</ele><time>2026-04-26T11:37:47.339Z</time></trkpt><trkpt lat="43.95748" lon="7.8262354"><ele>389.75</ele><time>2026-04-26T11:37:48.34Z</time></trkpt><trkpt lat="43.9573967" lon="7.8263923"><ele>388.0</ele><time>2026-04-26T11:37:49.341Z</time></trkpt><trkpt lat="43.9573153" lon="7.8265618"><ele>388.0</ele><time>2026-04-26T11:37:50.34Z</time></trkpt><trkpt lat="43.9572353" lon="7.8267393"><ele>388.0</ele><time>2026-04-26T11:37:51.339Z</time></trkpt><trkpt lat="43.9571488" lon="7.8269016"><ele>388.0</ele><time>2026-04-26T11:37:52.341Z</time></trkpt><trkpt lat="43.9570563" lon="7.8270488"><ele>388.0</ele><time>2026-04-26T11:37:53.34Z</time></trkpt><trkpt lat="43.9569543" lon="7.8271787"><ele>383.5</ele><time>2026-04-26T11:37:54.341Z</time></trkpt><trkpt lat="43.956837" lon="7.8272955"><ele>379.0</ele><time>2026-04-26T11:37:55.339Z</time></trkpt><trkpt lat="43.9567444" lon="7.8274288"><ele>374.5</ele><time>2026-04-26T11:37:56.34Z</time></trkpt><trkpt lat="43.9566482" lon="7.8275835"><ele>370.0</ele><time>2026-04-26T11:37:57.339Z</time></trkpt><trkpt lat="43.9565412" lon="7.827723"><ele>381.0</ele><time>2026-04-26T11:37:58.34Z</time></trkpt><trkpt lat="43.9564282" lon="7.82785"><ele>392.0</ele><time>2026-04-26T11:37:59.34Z</time></trkpt><trkpt lat="43.9563232" lon="7.8279687"><ele>403.0</ele><time>2026-04-26T11:38:00.341Z</time></trkpt><trkpt lat="43.9562078" lon="7.8280602"><ele>414.0</ele><time>2026-04-26T11:38:01.339Z</time></trkpt><trkpt lat="43.9560845" lon="7.8281288"><ele>414.0</ele><time>2026-04-26T11:38:02.34Z</time></trkpt><trkpt lat="43.955956" lon="7.8281783"><ele>414.0</ele><time>2026-04-26T11:38:03.34Z</time></trkpt><trkpt lat="43.955824" lon="7.828241"><ele>414.0</ele><time>2026-04-26T11:38:04.34Z</time></trkpt><trkpt lat="43.9557051" lon="7.8283412"><ele>414.0</ele><time>2026-04-26T11:38:05.34Z</time></trkpt><trkpt lat="43.9555919" lon="7.8284626"><ele>412.0</ele><time>2026-04-26T11:38:06.339Z</time></trkpt><trkpt lat="43.9554938" lon="7.8286075"><ele>410.0</ele><time>2026-04-26T11:38:07.34Z</time></trkpt><trkpt lat="43.9553952" lon="7.8287586"><ele>408.0</ele><time>2026-04-26T11:38:08.339Z</time></trkpt><trkpt lat="43.9553014" lon="7.8288951"><ele>406.0</ele><time>2026-04-26T11:38:09.341Z</time></trkpt><trkpt lat="43.9552122" lon="7.8290344"><ele>406.0</ele><time>2026-04-26T11:38:10.339Z</time></trkpt><trkpt lat="43.9551295" lon="7.8291603"><ele>406.0</ele><time>2026-04-26T11:38:11.339Z</time></trkpt><trkpt lat="43.9550435" lon="7.8292738"><ele>406.0</ele><time>2026-04-26T11:38:12.34Z</time></trkpt><trkpt lat="43.9549368" lon="7.829351"><ele>406.0</ele><time>2026-04-26T11:38:13.34Z</time></trkpt><trkpt lat="43.9548296" lon="7.8294071"><ele>406.0</ele><time>2026-04-26T11:38:14.34Z</time></trkpt><trkpt lat="43.9547306" lon="7.8294431"><ele>406.0</ele><time>2026-04-26T11:38:15.339Z</time></trkpt><trkpt lat="43.9546396" lon="7.8295161"><ele>406.0</ele><time>2026-04-26T11:38:16.34Z</time></trkpt><trkpt lat="43.9545591" lon="7.8296178"><ele>406.0</ele><time>2026-04-26T11:38:17.341Z</time></trkpt><trkpt lat="43.9544789" lon="7.8297356"><ele>406.0</ele><time>2026-04-26T11:38:18.341Z</time></trkpt><trkpt lat="43.9543902" lon="7.8298437"><ele>406.0</ele><time>2026-04-26T11:38:19.341Z</time></trkpt><trkpt lat="43.9542868" lon="7.8299205"><ele>406.0</ele><time>2026-04-26T11:38:20.34Z</time></trkpt><trkpt lat="43.954176" lon="7.8299642"><ele>406.0</ele><time>2026-04-26T11:38:21.34Z</time></trkpt><trkpt lat="43.9540532" lon="7.8300068"><ele>406.0</ele><time>2026-04-26T11:38:22.339Z</time></trkpt><trkpt lat="43.9539389" lon="7.8300726"><ele>403.6</ele><time>2026-04-26T11:38:23.34Z</time></trkpt><trkpt lat="43.9538329" lon="7.8301442"><ele>401.20000000000005</ele><time>2026-04-26T11:38:24.341Z</time></trkpt><trkpt lat="43.9537327" lon="7.8301806"><ele>398.79999999999995</ele><time>2026-04-26T11:38:25.34Z</time></trkpt><trkpt lat="43.9536303" lon="7.8301871"><ele>396.4</ele><time>2026-04-26T11:38:26.339Z</time></trkpt><trkpt lat="43.9535293" lon="7.8301716"><ele>394.0</ele><time>2026-04-26T11:38:27.339Z</time></trkpt><trkpt lat="43.9534358" lon="7.8301046"><ele>391.2</ele><time>2026-04-26T11:38:28.34Z</time></trkpt><trkpt lat="43.9533658" lon="7.8300087"><ele>388.4</ele><time>2026-04-26T11:38:29.339Z</time></trkpt><trkpt lat="43.9532764" lon="7.8299538"><ele>385.6</ele><time>2026-04-26T11:38:30.34Z</time></trkpt><trkpt lat="43.9531759" lon="7.8299348"><ele>382.8</ele><time>2026-04-26T11:38:31.34Z</time></trkpt><trkpt lat="43.9530702" lon="7.8299189"><ele>380.0</ele><time>2026-04-26T11:38:32.339Z</time></trkpt><trkpt lat="43.9529716" lon="7.8299082"><ele>380.0</ele><time>2026-04-26T11:38:33.34Z</time></trkpt><trkpt lat="43.9528777" lon="7.8299284"><ele>380.0</ele><time>2026-04-26T11:38:34.34Z</time></trkpt><trkpt lat="43.9528018" lon="7.8299877"><ele>380.0</ele><time>2026-04-26T11:38:35.34Z</time></trkpt><trkpt lat="43.9527353" lon="7.8300534"><ele>380.0</ele><time>2026-04-26T11:38:36.34Z</time></trkpt><trkpt lat="43.9527019" lon="7.8301723"><ele>380.0</ele><time>2026-04-26T11:38:37.341Z</time></trkpt><trkpt lat="43.9526985" lon="7.8303236"><ele>389.5</ele><time>2026-04-26T11:38:38.341Z</time></trkpt><trkpt lat="43.9527041" lon="7.8305074"><ele>399.0</ele><time>2026-04-26T11:38:39.34Z</time></trkpt><trkpt lat="43.9526857" lon="7.8306814"><ele>408.5</ele><time>2026-04-26T11:38:40.339Z</time></trkpt><trkpt lat="43.9526483" lon="7.8308554"><ele>418.0</ele><time>2026-04-26T11:38:41.34Z</time></trkpt><trkpt lat="43.952603" lon="7.831025"><ele>415.5</ele><time>2026-04-26T11:38:42.34Z</time></trkpt><trkpt lat="43.9525356" lon="7.8311895"><ele>413.0</ele><time>2026-04-26T11:38:43.34Z</time></trkpt><trkpt lat="43.9524673" lon="7.8313585"><ele>410.5</ele><time>2026-04-26T11:38:44.34Z</time></trkpt><trkpt lat="43.9523943" lon="7.8315167"><ele>408.0</ele><time>2026-04-26T11:38:45.34Z</time></trkpt><trkpt lat="43.9523125" lon="7.8316823"><ele>413.5</ele><time>2026-04-26T11:38:46.341Z</time></trkpt><trkpt lat="43.9522381" lon="7.831835"><ele>419.0</ele><time>2026-04-26T11:38:47.339Z</time></trkpt><trkpt lat="43.9521662" lon="7.8319825"><ele>424.5</ele><time>2026-04-26T11:38:48.339Z</time></trkpt><trkpt lat="43.9520847" lon="7.8320972"><ele>430.0</ele><time>2026-04-26T11:38:49.34Z</time></trkpt><trkpt lat="43.9519991" lon="7.8321994"><ele>430.0</ele><time>2026-04-26T11:38:50.34Z</time></trkpt><trkpt lat="43.951897" lon="7.8322641"><ele>430.0</ele><time>2026-04-26T11:38:51.34Z</time></trkpt><trkpt lat="43.9517863" lon="7.832311"><ele>430.0</ele><time>2026-04-26T11:38:52.34Z</time></trkpt><trkpt lat="43.9516534" lon="7.8323217"><ele>430.0</ele><time>2026-04-26T11:38:53.34Z</time></trkpt><trkpt lat="43.9515221" lon="7.8323499"><ele>426.8</ele><time>2026-04-26T11:38:54.339Z</time></trkpt><trkpt lat="43.9514002" lon="7.8323823"><ele>423.6</ele><time>2026-04-26T11:38:55.339Z</time></trkpt><trkpt lat="43.9513138" lon="7.8324677"><ele>420.4</ele><time>2026-04-26T11:38:56.34Z</time></trkpt><trkpt lat="43.951236" lon="7.8325664"><ele>417.2</ele><time>2026-04-26T11:38:57.339Z</time></trkpt><trkpt lat="43.9511872" lon="7.832676"><ele>414.0</ele><time>2026-04-26T11:38:58.342Z</time></trkpt><trkpt lat="43.9511682" lon="7.8328089"><ele>414.0</ele><time>2026-04-26T11:38:59.34Z</time></trkpt><trkpt lat="43.9511718" lon="7.8329574"><ele>414.0</ele><time>2026-04-26T11:39:00.339Z</time></trkpt><trkpt lat="43.9511977" lon="7.833109"><ele>414.0</ele><time>2026-04-26T11:39:01.339Z</time></trkpt><trkpt lat="43.9512333" lon="7.833263"><ele>414.0</ele><time>2026-04-26T11:39:02.34Z</time></trkpt><trkpt lat="43.9512782" lon="7.8334275"><ele>413.0</ele><time>2026-04-26T11:39:03.339Z</time></trkpt><trkpt lat="43.9513281" lon="7.8335946"><ele>412.0</ele><time>2026-04-26T11:39:04.34Z</time></trkpt><trkpt lat="43.9513695" lon="7.8337596"><ele>411.0</ele><time>2026-04-26T11:39:05.34Z</time></trkpt><trkpt lat="43.9513815" lon="7.833911"><ele>410.0</ele><time>2026-04-26T11:39:06.341Z</time></trkpt><trkpt lat="43.9513706" lon="7.8340489"><ele>410.0</ele><time>2026-04-26T11:39:07.339Z</time></trkpt><trkpt lat="43.9513437" lon="7.8341685"><ele>410.0</ele><time>2026-04-26T11:39:08.339Z</time></trkpt><trkpt lat="43.9512629" lon="7.8342485"><ele>410.0</ele><time>2026-04-26T11:39:09.339Z</time></trkpt><trkpt lat="43.9511756" lon="7.8343081"><ele>410.0</ele><time>2026-04-26T11:39:10.34Z</time></trkpt><trkpt lat="43.9510819" lon="7.8343204"><ele>410.0</ele><time>2026-04-26T11:39:11.339Z</time></trkpt><trkpt lat="43.9509913" lon="7.8342868"><ele>410.0</ele><time>2026-04-26T11:39:12.34Z</time></trkpt><trkpt lat="43.9509043" lon="7.8342118"><ele>410.0</ele><time>2026-04-26T11:39:13.339Z</time></trkpt><trkpt lat="43.9508066" lon="7.8341243"><ele>410.0</ele><time>2026-04-26T11:39:14.339Z</time></trkpt><trkpt lat="43.9507072" lon="7.8340172"><ele>410.0</ele><time>2026-04-26T11:39:15.34Z</time></trkpt><trkpt lat="43.9505813" lon="7.833948"><ele>406.4</ele><time>2026-04-26T11:39:16.341Z</time></trkpt><trkpt lat="43.9504682" lon="7.8339011"><ele>402.8</ele><time>2026-04-26T11:39:17.34Z</time></trkpt><trkpt lat="43.9503618" lon="7.833888"><ele>399.20000000000005</ele><time>2026-04-26T11:39:18.34Z</time></trkpt><trkpt lat="43.9502668" lon="7.8339324"><ele>395.6</ele><time>2026-04-26T11:39:19.34Z</time></trkpt><trkpt lat="43.9501815" lon="7.8340109"><ele>392.0</ele><time>2026-04-26T11:39:20.339Z</time></trkpt><trkpt lat="43.9501013" lon="7.8340889"><ele>391.20000000000005</ele><time>2026-04-26T11:39:21.341Z</time></trkpt><trkpt lat="43.9500124" lon="7.8341377"><ele>390.4</ele><time>2026-04-26T11:39:22.341Z</time></trkpt><trkpt lat="43.949922" lon="7.8341485"><ele>389.6</ele><time>2026-04-26T11:39:23.34Z</time></trkpt><trkpt lat="43.9498324" lon="7.834122"><ele>388.79999999999995</ele><time>2026-04-26T11:39:24.34Z</time></trkpt><trkpt lat="43.9497537" lon="7.8340537"><ele>388.0</ele><time>2026-04-26T11:39:25.339Z</time></trkpt><trkpt lat="43.9497001" lon="7.8339497"><ele>388.0</ele><time>2026-04-26T11:39:26.34Z</time></trkpt><trkpt lat="43.9496578" lon="7.8338272"><ele>388.0</ele><time>2026-04-26T11:39:27.339Z</time></trkpt><trkpt lat="43.9496132" lon="7.8336835"><ele>388.0</ele><time>2026-04-26T11:39:28.34Z</time></trkpt><trkpt lat="43.9495613" lon="7.8335816"><ele>388.0</ele><time>2026-04-26T11:39:29.341Z</time></trkpt><trkpt lat="43.9495095" lon="7.8334816"><ele>388.0</ele><time>2026-04-26T11:39:30.339Z</time></trkpt><trkpt lat="43.9494085" lon="7.833461"><ele>388.0</ele><time>2026-04-26T11:39:31.339Z</time></trkpt><trkpt lat="43.9493164" lon="7.8334617"><ele>388.0</ele><time>2026-04-26T11:39:32.34Z</time></trkpt><trkpt lat="43.9492336" lon="7.8334986"><ele>388.0</ele><time>2026-04-26T11:39:33.34Z</time></trkpt><trkpt lat="43.9491661" lon="7.8335667"><ele>388.0</ele><time>2026-04-26T11:39:34.34Z</time></trkpt><trkpt lat="43.9491209" lon="7.8336689"><ele>388.0</ele><time>2026-04-26T11:39:35.339Z</time></trkpt><trkpt lat="43.949102" lon="7.8338257"><ele>387.4</ele><time>2026-04-26T11:39:36.34Z</time></trkpt><trkpt lat="43.9490539" lon="7.8339304"><ele>386.79999999999995</ele><time>2026-04-26T11:39:37.34Z</time></trkpt><trkpt lat="43.9489879" lon="7.8340072"><ele>386.2</ele><time>2026-04-26T11:39:38.34Z</time></trkpt><trkpt lat="43.9489212" lon="7.8340644"><ele>385.6</ele><time>2026-04-26T11:39:39.34Z</time></trkpt><trkpt lat="43.9488325" lon="7.8340548"><ele>385.0</ele><time>2026-04-26T11:39:40.34Z</time></trkpt><trkpt lat="43.948714" lon="7.833983"><ele>385.0</ele><time>2026-04-26T11:39:41.341Z</time></trkpt><trkpt lat="43.9486116" lon="7.8339544"><ele>385.0</ele><time>2026-04-26T11:39:42.34Z</time></trkpt><trkpt lat="43.9485052" lon="7.8339577"><ele>385.0</ele><time>2026-04-26T11:39:43.339Z</time></trkpt><trkpt lat="43.9484102" lon="7.8339954"><ele>385.0</ele><time>2026-04-26T11:39:44.34Z</time></trkpt><trkpt lat="43.9483296" lon="7.8340602"><ele>385.0</ele><time>2026-04-26T11:39:45.34Z</time></trkpt><trkpt lat="43.9482828" lon="7.8341781"><ele>383.6</ele><time>2026-04-26T11:39:46.339Z</time></trkpt><trkpt lat="43.9482774" lon="7.8343234"><ele>382.2</ele><time>2026-04-26T11:39:47.339Z</time></trkpt><trkpt lat="43.9482732" lon="7.8344687"><ele>380.79999999999995</ele><time>2026-04-26T11:39:48.34Z</time></trkpt><trkpt lat="43.9482827" lon="7.8346264"><ele>379.4</ele><time>2026-04-26T11:39:49.339Z</time></trkpt><trkpt lat="43.9482882" lon="7.8347844"><ele>378.0</ele><time>2026-04-26T11:39:50.34Z</time></trkpt><trkpt lat="43.9482859" lon="7.8349281"><ele>378.0</ele><time>2026-04-26T11:39:51.34Z</time></trkpt><trkpt lat="43.9482719" lon="7.8350609"><ele>378.0</ele><time>2026-04-26T11:39:52.339Z</time></trkpt><trkpt lat="43.9482389" lon="7.8351678"><ele>378.0</ele><time>2026-04-26T11:39:53.339Z</time></trkpt><trkpt lat="43.9481805" lon="7.8352594"><ele>378.0</ele><time>2026-04-26T11:39:54.34Z</time></trkpt><trkpt lat="43.9481014" lon="7.8353384"><ele>378.0</ele><time>2026-04-26T11:39:55.34Z</time></trkpt><trkpt lat="43.9480048" lon="7.8354126"><ele>385.25</ele><time>2026-04-26T11:39:56.34Z</time></trkpt><trkpt lat="43.9478963" lon="7.835481"><ele>392.5</ele><time>2026-04-26T11:39:57.34Z</time></trkpt><trkpt lat="43.9478059" lon="7.8355831"><ele>399.75</ele><time>2026-04-26T11:39:58.34Z</time></trkpt><trkpt lat="43.9477221" lon="7.8357188"><ele>407.0</ele><time>2026-04-26T11:39:59.34Z</time></trkpt><trkpt lat="43.9476524" lon="7.8358582"><ele>407.25</ele><time>2026-04-26T11:40:00.34Z</time></trkpt><trkpt lat="43.9476015" lon="7.8359987"><ele>407.5</ele><time>2026-04-26T11:40:01.339Z</time></trkpt><trkpt lat="43.9475418" lon="7.8361304"><ele>407.75</ele><time>2026-04-26T11:40:02.34Z</time></trkpt><trkpt lat="43.9474827" lon="7.8362438"><ele>408.0</ele><time>2026-04-26T11:40:03.339Z</time></trkpt><trkpt lat="43.9473639" lon="7.8362914"><ele>408.0</ele><time>2026-04-26T11:40:04.34Z</time></trkpt><trkpt lat="43.9472617" lon="7.8363616"><ele>408.0</ele><time>2026-04-26T11:40:05.34Z</time></trkpt><trkpt lat="43.9471305" lon="7.8364115"><ele>408.0</ele><time>2026-04-26T11:40:06.34Z</time></trkpt><trkpt lat="43.9470157" lon="7.8365116"><ele>408.0</ele><time>2026-04-26T11:40:07.34Z</time></trkpt><trkpt lat="43.9468952" lon="7.8365975"><ele>408.0</ele><time>2026-04-26T11:40:08.339Z</time></trkpt><trkpt lat="43.9467756" lon="7.8366605"><ele>408.0</ele><time>2026-04-26T11:40:09.341Z</time></trkpt><trkpt lat="43.9466652" lon="7.8367078"><ele>408.0</ele><time>2026-04-26T11:40:10.34Z</time></trkpt><trkpt lat="43.946556" lon="7.8367566"><ele>408.0</ele><time>2026-04-26T11:40:11.339Z</time></trkpt><trkpt lat="43.94646" lon="7.836861"><ele>408.2</ele><time>2026-04-26T11:40:12.341Z</time></trkpt><trkpt lat="43.9463777" lon="7.8369582"><ele>408.4</ele><time>2026-04-26T11:40:13.34Z</time></trkpt><trkpt lat="43.9463105" lon="7.8370843"><ele>408.59999999999997</ele><time>2026-04-26T11:40:14.342Z</time></trkpt><trkpt lat="43.9463275" lon="7.8372273"><ele>408.79999999999995</ele><time>2026-04-26T11:40:15.34Z</time></trkpt><trkpt lat="43.9463002" lon="7.8373513"><ele>409.0</ele><time>2026-04-26T11:40:16.341Z</time></trkpt><trkpt lat="43.9462293" lon="7.8374493"><ele>409.00000000000006</ele><time>2026-04-26T11:40:17.341Z</time></trkpt><trkpt lat="43.9461597" lon="7.8375228"><ele>409.0</ele><time>2026-04-26T11:40:18.341Z</time></trkpt><trkpt lat="43.9460804" lon="7.8375616"><ele>409.0</ele><time>2026-04-26T11:40:19.34Z</time></trkpt><trkpt lat="43.9459994" lon="7.8375499"><ele>409.0</ele><time>2026-04-26T11:40:20.341Z</time></trkpt><trkpt lat="43.9459174" lon="7.8375086"><ele>409.00000000000006</ele><time>2026-04-26T11:40:21.339Z</time></trkpt><trkpt lat="43.9458446" lon="7.8374163"><ele>409.0</ele><time>2026-04-26T11:40:22.34Z</time></trkpt><trkpt lat="43.9457795" lon="7.8373034"><ele>405.4</ele><time>2026-04-26T11:40:23.341Z</time></trkpt><trkpt lat="43.9457062" lon="7.8371878"><ele>401.79999999999995</ele><time>2026-04-26T11:40:24.34Z</time></trkpt><trkpt lat="43.9456363" lon="7.8370649"><ele>398.20000000000005</ele><time>2026-04-26T11:40:25.34Z</time></trkpt><trkpt lat="43.9455686" lon="7.8369486"><ele>394.6</ele><time>2026-04-26T11:40:26.341Z</time></trkpt><trkpt lat="43.9454856" lon="7.8368695"><ele>391.0</ele><time>2026-04-26T11:40:27.339Z</time></trkpt><trkpt lat="43.9453874" lon="7.8368066"><ele>386.75</ele><time>2026-04-26T11:40:28.339Z</time></trkpt><trkpt lat="43.945279" lon="7.836767"><ele>382.5</ele><time>2026-04-26T11:40:29.34Z</time></trkpt><trkpt lat="43.9451578" lon="7.8367297"><ele>378.25</ele><time>2026-04-26T11:40:30.34Z</time></trkpt><trkpt lat="43.9450515" lon="7.8366825"><ele>374.0</ele><time>2026-04-26T11:40:31.34Z</time></trkpt><trkpt lat="43.9449546" lon="7.836618"><ele>374.0</ele><time>2026-04-26T11:40:32.339Z</time></trkpt><trkpt lat="43.9448657" lon="7.8365184"><ele>374.0</ele><time>2026-04-26T11:40:33.341Z</time></trkpt><trkpt lat="43.9447882" lon="7.8364047"><ele>374.0</ele><time>2026-04-26T11:40:34.34Z</time></trkpt><trkpt lat="43.9447362" lon="7.8362633"><ele>374.0</ele><time>2026-04-26T11:40:35.341Z</time></trkpt><trkpt lat="43.944693" lon="7.8361148"><ele>374.0</ele><time>2026-04-26T11:40:36.341Z</time></trkpt><trkpt lat="43.9446722" lon="7.835986"><ele>374.0</ele><time>2026-04-26T11:40:37.339Z</time></trkpt><trkpt lat="43.9446436" lon="7.8358543"><ele>374.0</ele><time>2026-04-26T11:40:38.34Z</time></trkpt><trkpt lat="43.9446097" lon="7.8357334"><ele>374.0</ele><time>2026-04-26T11:40:39.341Z</time></trkpt><trkpt lat="43.9445104" lon="7.8356448"><ele>374.0</ele><time>2026-04-26T11:40:40.341Z</time></trkpt><trkpt lat="43.9444199" lon="7.8355596"><ele>380.75</ele><time>2026-04-26T11:40:41.339Z</time></trkpt><trkpt lat="43.9443087" lon="7.8354743"><ele>387.5</ele><time>2026-04-26T11:40:42.34Z</time></trkpt><trkpt lat="43.9441972" lon="7.8354"><ele>394.25</ele><time>2026-04-26T11:40:43.339Z</time></trkpt><trkpt lat="43.9441014" lon="7.8353152"><ele>401.0</ele><time>2026-04-26T11:40:44.339Z</time></trkpt><trkpt lat="43.9440094" lon="7.8352171"><ele>390.4</ele><time>2026-04-26T11:40:45.339Z</time></trkpt><trkpt lat="43.9439673" lon="7.8350831"><ele>379.8</ele><time>2026-04-26T11:40:46.34Z</time></trkpt><trkpt lat="43.9439134" lon="7.8349665"><ele>369.2</ele><time>2026-04-26T11:40:47.339Z</time></trkpt><trkpt lat="43.9438644" lon="7.8348693"><ele>358.59999999999997</ele><time>2026-04-26T11:40:48.34Z</time></trkpt><trkpt lat="43.9437763" lon="7.8348346"><ele>348.0</ele><time>2026-04-26T11:40:49.339Z</time></trkpt><trkpt lat="43.9436963" lon="7.8348088"><ele>348.0</ele><time>2026-04-26T11:40:50.339Z</time></trkpt><trkpt lat="43.9435879" lon="7.8348433"><ele>348.0</ele><time>2026-04-26T11:40:51.341Z</time></trkpt><trkpt lat="43.9434763" lon="7.8348638"><ele>348.0</ele><time>2026-04-26T11:40:52.339Z</time></trkpt><trkpt lat="43.9433554" lon="7.8349008"><ele>348.0</ele><time>2026-04-26T11:40:53.34Z</time></trkpt><trkpt lat="43.9432441" lon="7.8349386"><ele>348.0</ele><time>2026-04-26T11:40:54.34Z</time></trkpt><trkpt lat="43.9431438" lon="7.8350152"><ele>348.0</ele><time>2026-04-26T11:40:55.341Z</time></trkpt><trkpt lat="43.9430637" lon="7.8350943"><ele>348.0</ele><time>2026-04-26T11:40:56.341Z</time></trkpt><trkpt lat="43.9430491" lon="7.8352435"><ele>348.0</ele><time>2026-04-26T11:40:57.339Z</time></trkpt><trkpt lat="43.943029" lon="7.8353699"><ele>348.0</ele><time>2026-04-26T11:40:58.339Z</time></trkpt><trkpt lat="43.9429922" lon="7.8354999"><ele>353.0</ele><time>2026-04-26T11:40:59.341Z</time></trkpt><trkpt lat="43.9429296" lon="7.8355804"><ele>358.0</ele><time>2026-04-26T11:41:00.34Z</time></trkpt><trkpt lat="43.9428514" lon="7.8356372"><ele>363.0</ele><time>2026-04-26T11:41:01.341Z</time></trkpt><trkpt lat="43.9427574" lon="7.8356844"><ele>368.0</ele><time>2026-04-26T11:41:02.34Z</time></trkpt><trkpt lat="43.9426419" lon="7.8356872"><ele>373.0</ele><time>2026-04-26T11:41:03.34Z</time></trkpt><trkpt lat="43.9424587" lon="7.8356193"><ele>373.0</ele><time>2026-04-26T11:41:04.34Z</time></trkpt><trkpt lat="43.9423069" lon="7.835579"><ele>373.0</ele><time>2026-04-26T11:41:05.341Z</time></trkpt><trkpt lat="43.9421514" lon="7.8355601"><ele>373.0</ele><time>2026-04-26T11:41:06.34Z</time></trkpt><trkpt lat="43.9419942" lon="7.8355534"><ele>373.0</ele><time>2026-04-26T11:41:07.34Z</time></trkpt><trkpt lat="43.941842" lon="7.8355783"><ele>373.0</ele><time>2026-04-26T11:41:08.34Z</time></trkpt><trkpt lat="43.9416936" lon="7.835598"><ele>373.0</ele><time>2026-04-26T11:41:09.341Z</time></trkpt><trkpt lat="43.9415509" lon="7.8356151"><ele>373.0</ele><time>2026-04-26T11:41:10.34Z</time></trkpt><trkpt lat="43.9414197" lon="7.8356027"><ele>370.5</ele><time>2026-04-26T11:41:11.34Z</time></trkpt><trkpt lat="43.9412801" lon="7.8356041"><ele>368.0</ele><time>2026-04-26T11:41:12.34Z</time></trkpt><trkpt lat="43.9411392" lon="7.8355597"><ele>365.5</ele><time>2026-04-26T11:41:13.34Z</time></trkpt><trkpt lat="43.9410079" lon="7.8355001"><ele>363.0</ele><time>2026-04-26T11:41:14.341Z</time></trkpt><trkpt lat="43.9408853" lon="7.8353873"><ele>372.0</ele><time>2026-04-26T11:41:15.34Z</time></trkpt><trkpt lat="43.9407653" lon="7.8352687"><ele>381.0</ele><time>2026-04-26T11:41:16.341Z</time></trkpt><trkpt lat="43.9406664" lon="7.8351185"><ele>390.0</ele><time>2026-04-26T11:41:17.341Z</time></trkpt><trkpt lat="43.9405677" lon="7.8349488"><ele>370.6666666666667</ele><time>2026-04-26T11:41:18.339Z</time></trkpt><trkpt lat="43.9404742" lon="7.8347609"><ele>351.33333333333337</ele><time>2026-04-26T11:41:19.339Z</time></trkpt><trkpt lat="43.9403764" lon="7.8345842"><ele>332.0</ele><time>2026-04-26T11:41:20.34Z</time></trkpt><trkpt lat="43.9402765" lon="7.8344111"><ele>323.25</ele><time>2026-04-26T11:41:21.341Z</time></trkpt><trkpt lat="43.9402015" lon="7.83423"><ele>314.5</ele><time>2026-04-26T11:41:22.34Z</time></trkpt><trkpt lat="43.9401546" lon="7.8340363"><ele>305.75</ele><time>2026-04-26T11:41:23.34Z</time></trkpt><trkpt lat="43.9401288" lon="7.8338439"><ele>297.0</ele><time>2026-04-26T11:41:24.341Z</time></trkpt><trkpt lat="43.9400985" lon="7.8336409"><ele>292.75</ele><time>2026-04-26T11:41:25.34Z</time></trkpt><trkpt lat="43.9400739" lon="7.8334567"><ele>288.5</ele><time>2026-04-26T11:41:26.34Z</time></trkpt><trkpt lat="43.9400498" lon="7.8332894"><ele>284.25</ele><time>2026-04-26T11:41:27.339Z</time></trkpt><trkpt lat="43.9400227" lon="7.8331412"><ele>280.0</ele><time>2026-04-26T11:41:28.34Z</time></trkpt><trkpt lat="43.9399759" lon="7.8330148"><ele>286.8</ele><time>2026-04-26T11:41:29.34Z</time></trkpt><trkpt lat="43.9399208" lon="7.8329171"><ele>293.6</ele><time>2026-04-26T11:41:30.341Z</time></trkpt><trkpt lat="43.9398247" lon="7.8328602"><ele>300.4</ele><time>2026-04-26T11:41:31.34Z</time></trkpt><trkpt lat="43.9397352" lon="7.8328914"><ele>307.2</ele><time>2026-04-26T11:41:32.339Z</time></trkpt><trkpt lat="43.9396562" lon="7.8329446"><ele>314.0</ele><time>2026-04-26T11:41:33.341Z</time></trkpt><trkpt lat="43.9395962" lon="7.8330374"><ele>314.0</ele><time>2026-04-26T11:41:34.341Z</time></trkpt><trkpt lat="43.939548" lon="7.8331787"><ele>314.0</ele><time>2026-04-26T11:41:35.34Z</time></trkpt><trkpt lat="43.9394978" lon="7.8333522"><ele>314.0</ele><time>2026-04-26T11:41:36.34Z</time></trkpt><trkpt lat="43.9394406" lon="7.8335354"><ele>314.0</ele><time>2026-04-26T11:41:37.341Z</time></trkpt><trkpt lat="43.9393745" lon="7.8337157"><ele>312.75</ele><time>2026-04-26T11:41:38.34Z</time></trkpt><trkpt lat="43.9393009" lon="7.8339011"><ele>311.5</ele><time>2026-04-26T11:41:39.342Z</time></trkpt><trkpt lat="43.9392184" lon="7.8340746"><ele>310.25</ele><time>2026-04-26T11:41:40.341Z</time></trkpt><trkpt lat="43.9391403" lon="7.8342421"><ele>309.0</ele><time>2026-04-26T11:41:41.341Z</time></trkpt><trkpt lat="43.9390682" lon="7.8343959"><ele>314.0</ele><time>2026-04-26T11:41:42.341Z</time></trkpt><trkpt lat="43.9390055" lon="7.8345431"><ele>319.0</ele><time>2026-04-26T11:41:43.34Z</time></trkpt><trkpt lat="43.9389484" lon="7.8346862"><ele>324.0</ele><time>2026-04-26T11:41:44.339Z</time></trkpt><trkpt lat="43.9389063" lon="7.8348368"><ele>329.0</ele><time>2026-04-26T11:41:45.339Z</time></trkpt><trkpt lat="43.9388733" lon="7.8349931"><ele>333.5</ele><time>2026-04-26T11:41:46.34Z</time></trkpt><trkpt lat="43.9388214" lon="7.8351536"><ele>338.0</ele><time>2026-04-26T11:41:47.341Z</time></trkpt><trkpt lat="43.9387607" lon="7.8353085"><ele>342.5</ele><time>2026-04-26T11:41:48.342Z</time></trkpt><trkpt lat="43.9386536" lon="7.8354446"><ele>347.0</ele><time>2026-04-26T11:41:49.339Z</time></trkpt><trkpt lat="43.9385337" lon="7.8355782"><ele>347.0</ele><time>2026-04-26T11:41:50.34Z</time></trkpt><trkpt lat="43.9384051" lon="7.8357126"><ele>347.0</ele><time>2026-04-26T11:41:51.341Z</time></trkpt><trkpt lat="43.9382803" lon="7.83584"><ele>347.0</ele><time>2026-04-26T11:41:52.342Z</time></trkpt><trkpt lat="43.9381548" lon="7.8359544"><ele>342.0</ele><time>2026-04-26T11:41:53.34Z</time></trkpt><trkpt lat="43.9380241" lon="7.8360464"><ele>337.0</ele><time>2026-04-26T11:41:54.341Z</time></trkpt><trkpt lat="43.9378805" lon="7.8361281"><ele>332.0</ele><time>2026-04-26T11:41:55.341Z</time></trkpt><trkpt lat="43.9377228" lon="7.8362095"><ele>332.0</ele><time>2026-04-26T11:41:56.34Z</time></trkpt><trkpt lat="43.9375717" lon="7.8362942"><ele>332.0</ele><time>2026-04-26T11:41:57.34Z</time></trkpt><trkpt lat="43.9374339" lon="7.8364001"><ele>332.0</ele><time>2026-04-26T11:41:58.34Z</time></trkpt><trkpt lat="43.9372965" lon="7.8364997"><ele>333.0</ele><time>2026-04-26T11:41:59.339Z</time></trkpt><trkpt lat="43.9371636" lon="7.8365948"><ele>334.0</ele><time>2026-04-26T11:42:00.341Z</time></trkpt><trkpt lat="43.9370274" lon="7.8366913"><ele>335.0</ele><time>2026-04-26T11:42:01.34Z</time></trkpt><trkpt lat="43.9369021" lon="7.8367646"><ele>336.0</ele><time>2026-04-26T11:42:02.34Z</time></trkpt><trkpt lat="43.9367865" lon="7.8368376"><ele>323.25</ele><time>2026-04-26T11:42:03.34Z</time></trkpt><trkpt lat="43.9366921" lon="7.8369341"><ele>310.5</ele><time>2026-04-26T11:42:04.34Z</time></trkpt><trkpt lat="43.9366253" lon="7.8370587"><ele>297.75</ele><time>2026-04-26T11:42:05.342Z</time></trkpt><trkpt lat="43.9365859" lon="7.8371993"><ele>285.0</ele><time>2026-04-26T11:42:06.341Z</time></trkpt><trkpt lat="43.9365981" lon="7.8374003"><ele>285.0</ele><time>2026-04-26T11:42:07.34Z</time></trkpt><trkpt lat="43.9366003" lon="7.8376066"><ele>285.0</ele><time>2026-04-26T11:42:08.34Z</time></trkpt><trkpt lat="43.9365992" lon="7.8378345"><ele>285.0</ele><time>2026-04-26T11:42:09.339Z</time></trkpt><trkpt lat="43.9365874" lon="7.8380875"><ele>287.3333333333333</ele><time>2026-04-26T11:42:10.341Z</time></trkpt><trkpt lat="43.9365603" lon="7.8383272"><ele>289.66666666666663</ele><time>2026-04-26T11:42:11.341Z</time></trkpt><trkpt lat="43.9365337" lon="7.8385716"><ele>292.0</ele><time>2026-04-26T11:42:12.34Z</time></trkpt><trkpt lat="43.936509" lon="7.8388254"><ele>293.3333333333333</ele><time>2026-04-26T11:42:13.341Z</time></trkpt><trkpt lat="43.9365011" lon="7.8390695"><ele>294.6666666666667</ele><time>2026-04-26T11:42:14.34Z</time></trkpt><trkpt lat="43.9364828" lon="7.8393011"><ele>296.0</ele><time>2026-04-26T11:42:15.341Z</time></trkpt><trkpt lat="43.9364564" lon="7.8395216"><ele>298.0</ele><time>2026-04-26T11:42:16.341Z</time></trkpt><trkpt lat="43.9364" lon="7.8396934"><ele>300.0</ele><time>2026-04-26T11:42:17.341Z</time></trkpt><trkpt lat="43.9363226" lon="7.8398545"><ele>302.0</ele><time>2026-04-26T11:42:18.34Z</time></trkpt><trkpt lat="43.9362223" lon="7.8400096"><ele>304.0</ele><time>2026-04-26T11:42:19.34Z</time></trkpt><trkpt lat="43.9361066" lon="7.840153"><ele>302.66666666666663</ele><time>2026-04-26T11:42:20.34Z</time></trkpt><trkpt lat="43.9359413" lon="7.8402613"><ele>301.3333333333333</ele><time>2026-04-26T11:42:21.34Z</time></trkpt><trkpt lat="43.9357633" lon="7.8403712"><ele>300.0</ele><time>2026-04-26T11:42:22.34Z</time></trkpt><trkpt lat="43.9355961" lon="7.8404642"><ele>300.0</ele><time>2026-04-26T11:42:23.341Z</time></trkpt><trkpt lat="43.9354322" lon="7.840559"><ele>300.0</ele><time>2026-04-26T11:42:24.34Z</time></trkpt><trkpt lat="43.9352994" lon="7.8405979"><ele>300.0</ele><time>2026-04-26T11:42:25.339Z</time></trkpt><trkpt lat="43.9351737" lon="7.8405942"><ele>300.0</ele><time>2026-04-26T11:42:26.342Z</time></trkpt><trkpt lat="43.9350369" lon="7.8405535"><ele>296.5</ele><time>2026-04-26T11:42:27.339Z</time></trkpt><trkpt lat="43.9348994" lon="7.8405056"><ele>293.0</ele><time>2026-04-26T11:42:28.341Z</time></trkpt><trkpt lat="43.9347586" lon="7.8404626"><ele>289.5</ele><time>2026-04-26T11:42:29.34Z</time></trkpt><trkpt lat="43.9346312" lon="7.8404353"><ele>286.0</ele><time>2026-04-26T11:42:30.341Z</time></trkpt><trkpt lat="43.9345025" lon="7.8404122"><ele>286.0</ele><time>2026-04-26T11:42:31.339Z</time></trkpt><trkpt lat="43.9343882" lon="7.8403774"><ele>286.0</ele><time>2026-04-26T11:42:32.341Z</time></trkpt><trkpt lat="43.9342932" lon="7.8403145"><ele>286.0</ele><time>2026-04-26T11:42:33.341Z</time></trkpt><trkpt lat="43.9342056" lon="7.840254"><ele>286.0</ele><time>2026-04-26T11:42:34.339Z</time></trkpt><trkpt lat="43.9341157" lon="7.8402141"><ele>286.0</ele><time>2026-04-26T11:42:35.341Z</time></trkpt><trkpt lat="43.934033" lon="7.8401919"><ele>285.16666666666663</ele><time>2026-04-26T11:42:36.342Z</time></trkpt><trkpt lat="43.9339542" lon="7.8401946"><ele>284.3333333333333</ele><time>2026-04-26T11:42:37.341Z</time></trkpt><trkpt lat="43.9338727" lon="7.840216"><ele>283.5</ele><time>2026-04-26T11:42:38.34Z</time></trkpt><trkpt lat="43.9337966" lon="7.8402751"><ele>282.6666666666667</ele><time>2026-04-26T11:42:39.341Z</time></trkpt><trkpt lat="43.9337182" lon="7.8403499"><ele>281.83333333333337</ele><time>2026-04-26T11:42:40.34Z</time></trkpt><trkpt lat="43.9336341" lon="7.8404351"><ele>281.0</ele><time>2026-04-26T11:42:41.341Z</time></trkpt><trkpt lat="43.9335364" lon="7.8405179"><ele>281.0</ele><time>2026-04-26T11:42:42.34Z</time></trkpt><trkpt lat="43.933433" lon="7.8405979"><ele>281.0</ele><time>2026-04-26T11:42:43.34Z</time></trkpt><trkpt lat="43.9333341" lon="7.8406771"><ele>281.0</ele><time>2026-04-26T11:42:44.34Z</time></trkpt><trkpt lat="43.933234" lon="7.8407414"><ele>281.0</ele><time>2026-04-26T11:42:45.34Z</time></trkpt><trkpt lat="43.933133" lon="7.840794"><ele>276.5</ele><time>2026-04-26T11:42:46.341Z</time></trkpt><trkpt lat="43.9330264" lon="7.8408292"><ele>272.0</ele><time>2026-04-26T11:42:47.341Z</time></trkpt><trkpt lat="43.9329013" lon="7.8408531"><ele>267.5</ele><time>2026-04-26T11:42:48.34Z</time></trkpt><trkpt lat="43.9327701" lon="7.8408761"><ele>263.0</ele><time>2026-04-26T11:42:49.341Z</time></trkpt><trkpt lat="43.9326361" lon="7.8408973"><ele>266.25</ele><time>2026-04-26T11:42:50.34Z</time></trkpt><trkpt lat="43.9325024" lon="7.8409163"><ele>269.5</ele><time>2026-04-26T11:42:51.34Z</time></trkpt><trkpt lat="43.9323771" lon="7.8409354"><ele>272.75</ele><time>2026-04-26T11:42:52.34Z</time></trkpt><trkpt lat="43.9322571" lon="7.8409521"><ele>276.0</ele><time>2026-04-26T11:42:53.34Z</time></trkpt><trkpt lat="43.9321459" lon="7.8409695"><ele>276.0</ele><time>2026-04-26T11:42:54.341Z</time></trkpt><trkpt lat="43.9320383" lon="7.8409945"><ele>276.0</ele><time>2026-04-26T11:42:55.341Z</time></trkpt><trkpt lat="43.9319369" lon="7.8410344"><ele>276.0</ele><time>2026-04-26T11:42:56.341Z</time></trkpt><trkpt lat="43.9318411" lon="7.8411054"><ele>276.0</ele><time>2026-04-26T11:42:57.341Z</time></trkpt><trkpt lat="43.9317468" lon="7.8411974"><ele>276.0</ele><time>2026-04-26T11:42:58.342Z</time></trkpt><trkpt lat="43.9316572" lon="7.8413407"><ele>269.0</ele><time>2026-04-26T11:42:59.341Z</time></trkpt><trkpt lat="43.9315845" lon="7.8415046"><ele>262.0</ele><time>2026-04-26T11:43:00.341Z</time></trkpt><trkpt lat="43.9315184" lon="7.8416563"><ele>255.0</ele><time>2026-04-26T11:43:01.341Z</time></trkpt><trkpt lat="43.9314578" lon="7.8417964"><ele>248.0</ele><time>2026-04-26T11:43:02.339Z</time></trkpt><trkpt lat="43.9314066" lon="7.8419182"><ele>248.00000000000003</ele><time>2026-04-26T11:43:03.341Z</time></trkpt><trkpt lat="43.9313536" lon="7.8420199"><ele>248.0</ele><time>2026-04-26T11:43:04.339Z</time></trkpt><trkpt lat="43.9313081" lon="7.842106"><ele>248.0</ele><time>2026-04-26T11:43:05.342Z</time></trkpt><trkpt lat="43.9312432" lon="7.8422204"><ele>248.0</ele><time>2026-04-26T11:43:07.34Z</time></trkpt><trkpt lat="43.931203" lon="7.8423013"><ele>248.00000000000003</ele><time>2026-04-26T11:43:10.34Z</time></trkpt><trkpt lat="43.9311514" lon="7.8424261"><ele>248.0</ele><time>2026-04-26T11:43:30.339Z</time></trkpt><trkpt lat="43.9311188" lon="7.8425041"><ele>248.0</ele><time>2026-04-26T11:43:31.341Z</time></trkpt><trkpt lat="43.9310787" lon="7.8425956"><ele>248.0</ele><time>2026-04-26T11:43:32.34Z</time></trkpt><trkpt lat="43.9310261" lon="7.8427127"><ele>248.0</ele><time>2026-04-26T11:43:33.339Z</time></trkpt><trkpt lat="43.9309717" lon="7.842818"><ele>248.0</ele><time>2026-04-26T11:43:34.34Z</time></trkpt><trkpt lat="43.9309069" lon="7.842911"><ele>248.0</ele><time>2026-04-26T11:43:35.341Z</time></trkpt><trkpt lat="43.9308383" lon="7.8429904"><ele>244.8</ele><time>2026-04-26T11:43:36.341Z</time></trkpt><trkpt lat="43.9307538" lon="7.8430667"><ele>241.60000000000002</ele><time>2026-04-26T11:43:37.34Z</time></trkpt><trkpt lat="43.9306525" lon="7.8431398"><ele>238.39999999999998</ele><time>2026-04-26T11:43:38.34Z</time></trkpt><trkpt lat="43.9305504" lon="7.8432123"><ele>235.2</ele><time>2026-04-26T11:43:39.341Z</time></trkpt><trkpt lat="43.9304566" lon="7.8432854"><ele>232.0</ele><time>2026-04-26T11:43:40.34Z</time></trkpt><trkpt lat="43.9303582" lon="7.8433492"><ele>232.0</ele><time>2026-04-26T11:43:41.339Z</time></trkpt><trkpt lat="43.9302645" lon="7.8434049"><ele>232.0</ele><time>2026-04-26T11:43:42.341Z</time></trkpt><trkpt lat="43.930166" lon="7.8434394"><ele>232.0</ele><time>2026-04-26T11:43:43.339Z</time></trkpt><trkpt lat="43.9300669" lon="7.8434653"><ele>232.0</ele><time>2026-04-26T11:43:44.34Z</time></trkpt><trkpt lat="43.9299647" lon="7.8434834"><ele>232.0</ele><time>2026-04-26T11:43:45.341Z</time></trkpt><trkpt lat="43.9298454" lon="7.8434548"><ele>230.6</ele><time>2026-04-26T11:43:46.341Z</time></trkpt><trkpt lat="43.9297561" lon="7.843371"><ele>229.2</ele><time>2026-04-26T11:43:47.34Z</time></trkpt><trkpt lat="43.9296734" lon="7.8432803"><ele>227.8</ele><time>2026-04-26T11:43:48.34Z</time></trkpt><trkpt lat="43.9296057" lon="7.8431695"><ele>226.4</ele><time>2026-04-26T11:43:49.341Z</time></trkpt><trkpt lat="43.9295628" lon="7.843044"><ele>225.0</ele><time>2026-04-26T11:43:50.339Z</time></trkpt><trkpt lat="43.9295427" lon="7.8428887"><ele>225.0</ele><time>2026-04-26T11:43:51.34Z</time></trkpt><trkpt lat="43.9295296" lon="7.8427089"><ele>225.0</ele><time>2026-04-26T11:43:52.341Z</time></trkpt><trkpt lat="43.9295145" lon="7.8425266"><ele>225.0</ele><time>2026-04-26T11:43:53.34Z</time></trkpt><trkpt lat="43.9294757" lon="7.8422975"><ele>225.0</ele><time>2026-04-26T11:43:54.339Z</time></trkpt><trkpt lat="43.9294387" lon="7.8420712"><ele>224.33333333333331</ele><time>2026-04-26T11:43:55.341Z</time></trkpt><trkpt lat="43.9294072" lon="7.8418449"><ele>223.66666666666666</ele><time>2026-04-26T11:43:56.341Z</time></trkpt><trkpt lat="43.9293604" lon="7.8416459"><ele>223.0</ele><time>2026-04-26T11:43:57.34Z</time></trkpt><trkpt lat="43.9293171" lon="7.8414553"><ele>222.0</ele><time>2026-04-26T11:43:58.341Z</time></trkpt><trkpt lat="43.9292475" lon="7.8412889"><ele>221.0</ele><time>2026-04-26T11:43:59.341Z</time></trkpt><trkpt lat="43.9291596" lon="7.8411379"><ele>220.0</ele><time>2026-04-26T11:44:00.341Z</time></trkpt><trkpt lat="43.929064" lon="7.8409964"><ele>219.0</ele><time>2026-04-26T11:44:01.34Z</time></trkpt><trkpt lat="43.9289562" lon="7.8408918"><ele>219.0</ele><time>2026-04-26T11:44:02.34Z</time></trkpt><trkpt lat="43.9288419" lon="7.8408172"><ele>219.0</ele><time>2026-04-26T11:44:03.34Z</time></trkpt><trkpt lat="43.9287238" lon="7.8407803"><ele>219.0</ele><time>2026-04-26T11:44:04.339Z</time></trkpt><trkpt lat="43.9285977" lon="7.840807"><ele>219.0</ele><time>2026-04-26T11:44:05.34Z</time></trkpt><trkpt lat="43.9284655" lon="7.8408536"><ele>223.33333333333331</ele><time>2026-04-26T11:44:06.341Z</time></trkpt><trkpt lat="43.9283365" lon="7.8409728"><ele>227.66666666666666</ele><time>2026-04-26T11:44:07.34Z</time></trkpt><trkpt lat="43.9282061" lon="7.8411165"><ele>232.0</ele><time>2026-04-26T11:44:08.341Z</time></trkpt><trkpt lat="43.9280769" lon="7.8412863"><ele>232.0</ele><time>2026-04-26T11:44:09.34Z</time></trkpt><trkpt lat="43.9279515" lon="7.8414473"><ele>232.0</ele><time>2026-04-26T11:44:10.341Z</time></trkpt><trkpt lat="43.9278279" lon="7.8415847"><ele>232.0</ele><time>2026-04-26T11:44:11.34Z</time></trkpt><trkpt lat="43.9277053" lon="7.8417273"><ele>235.33333333333331</ele><time>2026-04-26T11:44:12.341Z</time></trkpt><trkpt lat="43.927574" lon="7.8418704"><ele>238.66666666666669</ele><time>2026-04-26T11:44:13.34Z</time></trkpt><trkpt lat="43.9274319" lon="7.8420151"><ele>242.0</ele><time>2026-04-26T11:44:14.341Z</time></trkpt><trkpt lat="43.927302" lon="7.8421543"><ele>242.0</ele><time>2026-04-26T11:44:15.341Z</time></trkpt><trkpt lat="43.9271718" lon="7.8422946"><ele>242.0</ele><time>2026-04-26T11:44:16.341Z</time></trkpt><trkpt lat="43.9270334" lon="7.842422"><ele>242.0</ele><time>2026-04-26T11:44:17.34Z</time></trkpt><trkpt lat="43.9268975" lon="7.8425301"><ele>242.0</ele><time>2026-04-26T11:44:18.341Z</time></trkpt><trkpt lat="43.9267563" lon="7.8426282"><ele>242.0</ele><time>2026-04-26T11:44:19.34Z</time></trkpt><trkpt lat="43.9266216" lon="7.8427238"><ele>242.0</ele><time>2026-04-26T11:44:20.34Z</time></trkpt><trkpt lat="43.9264895" lon="7.8428167"><ele>243.5</ele><time>2026-04-26T11:44:21.341Z</time></trkpt><trkpt lat="43.9263619" lon="7.8429055"><ele>245.0</ele><time>2026-04-26T11:44:22.34Z</time></trkpt><trkpt lat="43.9262348" lon="7.842996"><ele>246.5</ele><time>2026-04-26T11:44:23.34Z</time></trkpt><trkpt lat="43.9261181" lon="7.8430771"><ele>248.0</ele><time>2026-04-26T11:44:24.34Z</time></trkpt><trkpt lat="43.9259949" lon="7.8431519"><ele>241.5</ele><time>2026-04-26T11:44:25.341Z</time></trkpt><trkpt lat="43.9258735" lon="7.843211"><ele>235.0</ele><time>2026-04-26T11:44:26.339Z</time></trkpt><trkpt lat="43.9257461" lon="7.8432666"><ele>228.5</ele><time>2026-04-26T11:44:27.339Z</time></trkpt><trkpt lat="43.9256011" lon="7.8433194"><ele>222.0</ele><time>2026-04-26T11:44:28.341Z</time></trkpt><trkpt lat="43.9254433" lon="7.8433649"><ele>222.0</ele><time>2026-04-26T11:44:29.341Z</time></trkpt><trkpt lat="43.9252678" lon="7.843399"><ele>222.0</ele><time>2026-04-26T11:44:30.34Z</time></trkpt><trkpt lat="43.9250981" lon="7.8434125"><ele>222.0</ele><time>2026-04-26T11:44:31.339Z</time></trkpt><trkpt lat="43.9249314" lon="7.8434091"><ele>217.66666666666669</ele><time>2026-04-26T11:44:32.341Z</time></trkpt><trkpt lat="43.9247763" lon="7.8433942"><ele>213.33333333333334</ele><time>2026-04-26T11:44:33.341Z</time></trkpt><trkpt lat="43.9246226" lon="7.8433735"><ele>209.0</ele><time>2026-04-26T11:44:34.341Z</time></trkpt><trkpt lat="43.9244702" lon="7.843353"><ele>209.0</ele><time>2026-04-26T11:44:35.341Z</time></trkpt><trkpt lat="43.9243277" lon="7.8433239"><ele>209.0</ele><time>2026-04-26T11:44:36.341Z</time></trkpt><trkpt lat="43.9241903" lon="7.843309"><ele>209.0</ele><time>2026-04-26T11:44:37.341Z</time></trkpt><trkpt lat="43.9240467" lon="7.8432998"><ele>209.0</ele><time>2026-04-26T11:44:38.34Z</time></trkpt><trkpt lat="43.9238922" lon="7.8432917"><ele>207.0</ele><time>2026-04-26T11:44:39.34Z</time></trkpt><trkpt lat="43.92374" lon="7.8432801"><ele>205.0</ele><time>2026-04-26T11:44:40.34Z</time></trkpt><trkpt lat="43.9236062" lon="7.8432614"><ele>203.0</ele><time>2026-04-26T11:44:41.342Z</time></trkpt><trkpt lat="43.9234939" lon="7.8432389"><ele>201.0</ele><time>2026-04-26T11:44:42.341Z</time></trkpt><trkpt lat="43.923405" lon="7.843204"><ele>202.5</ele><time>2026-04-26T11:44:43.34Z</time></trkpt><trkpt lat="43.9233482" lon="7.8431263"><ele>204.0</ele><time>2026-04-26T11:44:44.34Z</time></trkpt><trkpt lat="43.9232908" lon="7.8429966"><ele>205.5</ele><time>2026-04-26T11:44:45.34Z</time></trkpt><trkpt lat="43.9232099" lon="7.8428416"><ele>207.0</ele><time>2026-04-26T11:44:46.341Z</time></trkpt><trkpt lat="43.9231144" lon="7.8427153"><ele>205.5</ele><time>2026-04-26T11:44:47.341Z</time></trkpt><trkpt lat="43.9230098" lon="7.8426186"><ele>204.0</ele><time>2026-04-26T11:44:48.34Z</time></trkpt><trkpt lat="43.9229009" lon="7.8425507"><ele>202.5</ele><time>2026-04-26T11:44:49.34Z</time></trkpt><trkpt lat="43.9227846" lon="7.8424929"><ele>201.0</ele><time>2026-04-26T11:44:50.341Z</time></trkpt><trkpt lat="43.9226616" lon="7.8424359"><ele>202.75</ele><time>2026-04-26T11:44:51.341Z</time></trkpt><trkpt lat="43.9225376" lon="7.8423826"><ele>204.5</ele><time>2026-04-26T11:44:52.34Z</time></trkpt><trkpt lat="43.9224114" lon="7.8423355"><ele>206.25</ele><time>2026-04-26T11:44:53.34Z</time></trkpt><trkpt lat="43.9222809" lon="7.8422967"><ele>208.0</ele><time>2026-04-26T11:44:54.342Z</time></trkpt><trkpt lat="43.9221507" lon="7.8422586"><ele>208.0</ele><time>2026-04-26T11:44:55.34Z</time></trkpt><trkpt lat="43.9220241" lon="7.8422319"><ele>208.0</ele><time>2026-04-26T11:44:56.34Z</time></trkpt><trkpt lat="43.9219015" lon="7.8422095"><ele>208.0</ele><time>2026-04-26T11:44:57.34Z</time></trkpt><trkpt lat="43.921778" lon="7.842211"><ele>208.0</ele><time>2026-04-26T11:44:58.34Z</time></trkpt><trkpt lat="43.9216486" lon="7.8422248"><ele>206.25</ele><time>2026-04-26T11:44:59.341Z</time></trkpt><trkpt lat="43.9215299" lon="7.842253"><ele>204.5</ele><time>2026-04-26T11:45:00.341Z</time></trkpt><trkpt lat="43.9214122" lon="7.8423035"><ele>202.75</ele><time>2026-04-26T11:45:01.34Z</time></trkpt><trkpt lat="43.9212904" lon="7.8423825"><ele>201.0</ele><time>2026-04-26T11:45:02.34Z</time></trkpt><trkpt lat="43.9211717" lon="7.8424587"><ele>201.0</ele><time>2026-04-26T11:45:03.341Z</time></trkpt><trkpt lat="43.921058" lon="7.8425278"><ele>201.0</ele><time>2026-04-26T11:45:04.34Z</time></trkpt><trkpt lat="43.9209543" lon="7.8425952"><ele>201.0</ele><time>2026-04-26T11:45:05.342Z</time></trkpt><trkpt lat="43.9208599" lon="7.8426613"><ele>201.0</ele><time>2026-04-26T11:45:06.34Z</time></trkpt><trkpt lat="43.9207613" lon="7.8427404"><ele>200.20000000000002</ele><time>2026-04-26T11:45:07.341Z</time></trkpt><trkpt lat="43.9206711" lon="7.8428046"><ele>199.4</ele><time>2026-04-26T11:45:08.339Z</time></trkpt><trkpt lat="43.9205874" lon="7.8428777"><ele>198.6</ele><time>2026-04-26T11:45:09.34Z</time></trkpt><trkpt lat="43.9205181" lon="7.8429358"><ele>197.8</ele><time>2026-04-26T11:45:10.34Z</time></trkpt><trkpt lat="43.920464" lon="7.8429827"><ele>197.0</ele><time>2026-04-26T11:45:11.34Z</time></trkpt><trkpt lat="43.920375" lon="7.8430709"><ele>197.0</ele><time>2026-04-26T11:45:13.339Z</time></trkpt><trkpt lat="43.9203147" lon="7.8431683"><ele>197.0</ele><time>2026-04-26T11:45:15.341Z</time></trkpt><trkpt lat="43.9202766" lon="7.8432924"><ele>197.0</ele><time>2026-04-26T11:45:17.341Z</time></trkpt><trkpt lat="43.9202449" lon="7.843445"><ele>197.0</ele><time>2026-04-26T11:45:19.341Z</time></trkpt><trkpt lat="43.920214" lon="7.8436111"><ele>197.0</ele><time>2026-04-26T11:45:21.341Z</time></trkpt><trkpt lat="43.9202013" lon="7.8436981"><ele>197.28571428571428</ele><time>2026-04-26T11:45:22.34Z</time></trkpt><trkpt lat="43.9201912" lon="7.8437909"><ele>197.57142857142858</ele><time>2026-04-26T11:45:23.341Z</time></trkpt><trkpt lat="43.9201816" lon="7.8438849"><ele>197.85714285714283</ele><time>2026-04-26T11:45:24.341Z</time></trkpt><trkpt lat="43.9201715" lon="7.8439805"><ele>198.14285714285714</ele><time>2026-04-26T11:45:25.34Z</time></trkpt><trkpt lat="43.9201564" lon="7.8440764"><ele>198.42857142857142</ele><time>2026-04-26T11:45:26.34Z</time></trkpt><trkpt lat="43.9201302" lon="7.8441813"><ele>198.7142857142857</ele><time>2026-04-26T11:45:27.34Z</time></trkpt><trkpt lat="43.920104" lon="7.8442881"><ele>199.0</ele><time>2026-04-26T11:45:28.341Z</time></trkpt><trkpt lat="43.9200734" lon="7.8443995"><ele>198.0</ele><time>2026-04-26T11:45:29.341Z</time></trkpt><trkpt lat="43.9200452" lon="7.844521"><ele>197.0</ele><time>2026-04-26T11:45:30.34Z</time></trkpt><trkpt lat="43.920012" lon="7.8446453"><ele>196.0</ele><time>2026-04-26T11:45:31.341Z</time></trkpt><trkpt lat="43.9199769" lon="7.8447677"><ele>195.0</ele><time>2026-04-26T11:45:32.34Z</time></trkpt><trkpt lat="43.9199329" lon="7.8448843"><ele>194.0</ele><time>2026-04-26T11:45:33.34Z</time></trkpt><trkpt lat="43.9198764" lon="7.8449981"><ele>194.0</ele><time>2026-04-26T11:45:34.34Z</time></trkpt><trkpt lat="43.9198145" lon="7.8451125"><ele>194.0</ele><time>2026-04-26T11:45:35.341Z</time></trkpt><trkpt lat="43.9197481" lon="7.8452263"><ele>194.0</ele><time>2026-04-26T11:45:36.341Z</time></trkpt><trkpt lat="43.9196829" lon="7.845343"><ele>194.0</ele><time>2026-04-26T11:45:37.34Z</time></trkpt><trkpt lat="43.9196111" lon="7.8454492"><ele>194.0</ele><time>2026-04-26T11:45:38.34Z</time></trkpt><trkpt lat="43.9195331" lon="7.8455454"><ele>193.79999999999998</ele><time>2026-04-26T11:45:39.34Z</time></trkpt><trkpt lat="43.9194501" lon="7.8456396"><ele>193.6</ele><time>2026-04-26T11:45:40.341Z</time></trkpt><trkpt lat="43.9193706" lon="7.8457214"><ele>193.4</ele><time>2026-04-26T11:45:41.34Z</time></trkpt><trkpt lat="43.919287" lon="7.845799"><ele>193.2</ele><time>2026-04-26T11:45:42.34Z</time></trkpt><trkpt lat="43.9191981" lon="7.8458808"><ele>193.0</ele><time>2026-04-26T11:45:43.341Z</time></trkpt><trkpt lat="43.9191073" lon="7.8459501"><ele>193.0</ele><time>2026-04-26T11:45:44.341Z</time></trkpt><trkpt lat="43.9190091" lon="7.8459979"><ele>193.0</ele><time>2026-04-26T11:45:45.341Z</time></trkpt><trkpt lat="43.9189134" lon="7.8460138"><ele>193.0</ele><time>2026-04-26T11:45:46.341Z</time></trkpt><trkpt lat="43.9188201" lon="7.8460044"><ele>193.0</ele><time>2026-04-26T11:45:47.341Z</time></trkpt><trkpt lat="43.9187419" lon="7.8459684"><ele>193.0</ele><time>2026-04-26T11:45:48.342Z</time></trkpt><trkpt lat="43.9186759" lon="7.8459128"><ele>192.99999999999997</ele><time>2026-04-26T11:45:49.341Z</time></trkpt><trkpt lat="43.9186074" lon="7.8458389"><ele>193.0</ele><time>2026-04-26T11:45:50.34Z</time></trkpt><trkpt lat="43.9185433" lon="7.8457557"><ele>193.0</ele><time>2026-04-26T11:45:51.341Z</time></trkpt><trkpt lat="43.91847" lon="7.8456802"><ele>193.0</ele><time>2026-04-26T11:45:52.34Z</time></trkpt><trkpt lat="43.9183924" lon="7.845621"><ele>192.99999999999997</ele><time>2026-04-26T11:45:53.341Z</time></trkpt><trkpt lat="43.9183059" lon="7.8455841"><ele>193.0</ele><time>2026-04-26T11:45:54.341Z</time></trkpt><trkpt lat="43.9182169" lon="7.8455705"><ele>193.4</ele><time>2026-04-26T11:45:55.34Z</time></trkpt><trkpt lat="43.9181279" lon="7.8455701"><ele>193.8</ele><time>2026-04-26T11:45:56.341Z</time></trkpt><trkpt lat="43.9180425" lon="7.8456174"><ele>194.2</ele><time>2026-04-26T11:45:57.341Z</time></trkpt><trkpt lat="43.9179699" lon="7.8456909"><ele>194.6</ele><time>2026-04-26T11:45:58.341Z</time></trkpt><trkpt lat="43.9179042" lon="7.8457824"><ele>195.0</ele><time>2026-04-26T11:45:59.34Z</time></trkpt><trkpt lat="43.9178372" lon="7.845885"><ele>193.5</ele><time>2026-04-26T11:46:00.341Z</time></trkpt><trkpt lat="43.9177797" lon="7.8459864"><ele>192.0</ele><time>2026-04-26T11:46:01.34Z</time></trkpt><trkpt lat="43.9177328" lon="7.8460885"><ele>190.5</ele><time>2026-04-26T11:46:02.34Z</time></trkpt><trkpt lat="43.9176873" lon="7.8461879"><ele>189.0</ele><time>2026-04-26T11:46:03.341Z</time></trkpt><trkpt lat="43.9176467" lon="7.8462704"><ele>187.5</ele><time>2026-04-26T11:46:04.34Z</time></trkpt><trkpt lat="43.917586" lon="7.8463309"><ele>186.0</ele><time>2026-04-26T11:46:05.341Z</time></trkpt><trkpt lat="43.9174845" lon="7.8464153"><ele>186.0</ele><time>2026-04-26T11:46:06.341Z</time></trkpt><trkpt lat="43.9173893" lon="7.8464753"><ele>186.0</ele><time>2026-04-26T11:46:07.34Z</time></trkpt><trkpt lat="43.917291" lon="7.8465372"><ele>186.0</ele><time>2026-04-26T11:46:08.341Z</time></trkpt><trkpt lat="43.9171934" lon="7.8465961"><ele>186.0</ele><time>2026-04-26T11:46:09.34Z</time></trkpt><trkpt lat="43.9170958" lon="7.846651"><ele>186.0</ele><time>2026-04-26T11:46:10.341Z</time></trkpt><trkpt lat="43.917006" lon="7.8467134"><ele>186.0</ele><time>2026-04-26T11:46:11.341Z</time></trkpt><trkpt lat="43.916933" lon="7.8467718"><ele>186.0</ele><time>2026-04-26T11:46:12.341Z</time></trkpt><trkpt lat="43.9168539" lon="7.8468294"><ele>186.0</ele><time>2026-04-26T11:46:13.342Z</time></trkpt><trkpt lat="43.9167951" lon="7.8468845"><ele>186.0</ele><time>2026-04-26T11:46:14.341Z</time></trkpt><trkpt lat="43.9167299" lon="7.8469482"><ele>186.0</ele><time>2026-04-26T11:46:15.341Z</time></trkpt><trkpt lat="43.9167098" lon="7.8470376"><ele>186.0</ele><time>2026-04-26T11:46:16.34Z</time></trkpt><trkpt lat="43.9166953" lon="7.8471258"><ele>186.16666666666666</ele><time>2026-04-26T11:46:17.34Z</time></trkpt><trkpt lat="43.9166875" lon="7.8472228"><ele>186.33333333333334</ele><time>2026-04-26T11:46:18.341Z</time></trkpt><trkpt lat="43.9166828" lon="7.8473204"><ele>186.5</ele><time>2026-04-26T11:46:19.34Z</time></trkpt><trkpt lat="43.9166754" lon="7.8474249"><ele>186.66666666666669</ele><time>2026-04-26T11:46:20.34Z</time></trkpt><trkpt lat="43.9166706" lon="7.8475217"><ele>186.83333333333334</ele><time>2026-04-26T11:46:21.341Z</time></trkpt><trkpt lat="43.9166249" lon="7.8476581"><ele>187.0</ele><time>2026-04-26T11:46:23.34Z</time></trkpt><trkpt lat="43.9164998" lon="7.8477425"><ele>186.5</ele><time>2026-04-26T11:46:25.34Z</time></trkpt><trkpt lat="43.9164273" lon="7.8477716"><ele>186.0</ele><time>2026-04-26T11:46:26.341Z</time></trkpt><trkpt lat="43.9163532" lon="7.847795"><ele>185.5</ele><time>2026-04-26T11:46:27.341Z</time></trkpt><trkpt lat="43.9162759" lon="7.8478018"><ele>185.0</ele><time>2026-04-26T11:46:28.341Z</time></trkpt><trkpt lat="43.9161914" lon="7.8477957"><ele>184.5</ele><time>2026-04-26T11:46:29.34Z</time></trkpt><trkpt lat="43.9161077" lon="7.8477866"><ele>184.0</ele><time>2026-04-26T11:46:30.341Z</time></trkpt><trkpt lat="43.9160336" lon="7.8477693"><ele>184.0</ele><time>2026-04-26T11:46:31.34Z</time></trkpt><trkpt lat="43.9159599" lon="7.8477589"><ele>184.0</ele><time>2026-04-26T11:46:32.341Z</time></trkpt><trkpt lat="43.9158413" lon="7.847772"><ele>184.0</ele><time>2026-04-26T11:46:34.34Z</time></trkpt><trkpt lat="43.9157319" lon="7.8478038"><ele>184.0</ele><time>2026-04-26T11:46:36.341Z</time></trkpt><trkpt lat="43.9156673" lon="7.8478239"><ele>184.0</ele><time>2026-04-26T11:46:38.34Z</time></trkpt><trkpt lat="43.9156052" lon="7.8478593"><ele>184.0</ele><time>2026-04-26T11:46:40.341Z</time></trkpt><trkpt lat="43.9155285" lon="7.8478875"><ele>183.71428571428572</ele><time>2026-04-26T11:46:42.34Z</time></trkpt><trkpt lat="43.9154589" lon="7.847914"><ele>183.42857142857142</ele><time>2026-04-26T11:46:44.34Z</time></trkpt><trkpt lat="43.9154019" lon="7.8478657"><ele>183.14285714285714</ele><time>2026-04-26T11:47:51.341Z</time></trkpt><trkpt lat="43.9153425" lon="7.8478947"><ele>182.85714285714286</ele><time>2026-04-26T11:47:57.341Z</time></trkpt><trkpt lat="43.9152815" lon="7.8479345"><ele>182.57142857142856</ele><time>2026-04-26T11:48:05.341Z</time></trkpt><trkpt lat="43.9152159" lon="7.8479044"><ele>182.28571428571428</ele><time>2026-04-26T11:48:12.341Z</time></trkpt><trkpt lat="43.9151483" lon="7.8479118"><ele>182.0</ele><time>2026-04-26T11:48:19.34Z</time></trkpt><trkpt lat="43.9150835" lon="7.8479167"><ele>182.0</ele><time>2026-04-26T11:48:25.341Z</time></trkpt><trkpt lat="43.9150121" lon="7.847925"><ele>182.0</ele><time>2026-04-26T11:48:32.34Z</time></trkpt><trkpt lat="43.915087" lon="7.8479164"><ele>182.0</ele><time>2026-04-26T11:58:36.341Z</time></trkpt><trkpt lat="43.9151366" lon="7.8478612"><ele>182.0</ele><time>2026-04-26T11:58:42.342Z</time></trkpt><trkpt lat="43.9151977" lon="7.8478272"><ele>182.0</ele><time>2026-04-26T11:58:46.342Z</time></trkpt><trkpt lat="43.9152617" lon="7.8478335"><ele>182.0</ele><time>2026-04-26T11:58:51.341Z</time></trkpt><trkpt lat="43.9153547" lon="7.84785"><ele>182.0</ele><time>2026-04-26T11:58:59.342Z</time></trkpt><trkpt lat="43.9154242" lon="7.8478361"><ele>182.0</ele><time>2026-04-26T11:59:09.342Z</time></trkpt><trkpt lat="43.9153544" lon="7.8478774"><ele>182.0</ele><time>2026-04-26T12:01:35.342Z</time></trkpt><trkpt lat="43.9153479" lon="7.8479727"><ele>182.0</ele><time>2026-04-26T12:01:39.341Z</time></trkpt><trkpt lat="43.9154353" lon="7.8479443"><ele>182.0</ele><time>2026-04-26T12:01:42.342Z</time></trkpt><trkpt lat="43.9155118" lon="7.8478889"><ele>182.0</ele><time>2026-04-26T12:01:44.342Z</time></trkpt><trkpt lat="43.9156013" lon="7.8478435"><ele>182.0</ele><time>2026-04-26T12:01:46.342Z</time></trkpt><trkpt lat="43.9156914" lon="7.8478008"><ele>182.0</ele><time>2026-04-26T12:01:48.342Z</time></trkpt><trkpt lat="43.9157879" lon="7.8477568"><ele>182.0</ele><time>2026-04-26T12:01:50.341Z</time></trkpt><trkpt lat="43.9158916" lon="7.8477274"><ele>182.0</ele><time>2026-04-26T12:01:52.341Z</time></trkpt><trkpt lat="43.9159969" lon="7.8477297"><ele>182.0</ele><time>2026-04-26T12:01:54.342Z</time></trkpt><trkpt lat="43.9161296" lon="7.8477642"><ele>182.0</ele><time>2026-04-26T12:01:56.342Z</time></trkpt><trkpt lat="43.9162033" lon="7.8477819"><ele>182.33333333333331</ele><time>2026-04-26T12:01:57.342Z</time></trkpt><trkpt lat="43.9162781" lon="7.8477845"><ele>182.66666666666666</ele><time>2026-04-26T12:01:58.341Z</time></trkpt><trkpt lat="43.9163577" lon="7.8477939"><ele>183.0</ele><time>2026-04-26T12:01:59.342Z</time></trkpt><trkpt lat="43.916459" lon="7.8477458"><ele>183.33333333333334</ele><time>2026-04-26T12:02:00.342Z</time></trkpt><trkpt lat="43.9165449" lon="7.8477185"><ele>183.66666666666669</ele><time>2026-04-26T12:02:01.341Z</time></trkpt><trkpt lat="43.916609" lon="7.8476533"><ele>184.0</ele><time>2026-04-26T12:02:02.341Z</time></trkpt><trkpt lat="43.9166587" lon="7.8475907"><ele>184.5</ele><time>2026-04-26T12:02:03.341Z</time></trkpt><trkpt lat="43.9166725" lon="7.8474987"><ele>185.0</ele><time>2026-04-26T12:02:04.341Z</time></trkpt><trkpt lat="43.9166794" lon="7.8473604"><ele>185.5</ele><time>2026-04-26T12:02:05.341Z</time></trkpt><trkpt lat="43.9166803" lon="7.8472182"><ele>186.0</ele><time>2026-04-26T12:02:06.341Z</time></trkpt><trkpt lat="43.9166915" lon="7.8470963"><ele>186.5</ele><time>2026-04-26T12:02:07.342Z</time></trkpt><trkpt lat="43.9167174" lon="7.8469985"><ele>187.0</ele><time>2026-04-26T12:02:08.341Z</time></trkpt><trkpt lat="43.9167597" lon="7.8469201"><ele>186.8</ele><time>2026-04-26T12:02:09.341Z</time></trkpt><trkpt lat="43.9168202" lon="7.846847"><ele>186.6</ele><time>2026-04-26T12:02:10.341Z</time></trkpt><trkpt lat="43.9168998" lon="7.8467815"><ele>186.4</ele><time>2026-04-26T12:02:11.341Z</time></trkpt><trkpt lat="43.9169952" lon="7.8467181"><ele>186.20000000000002</ele><time>2026-04-26T12:02:12.341Z</time></trkpt><trkpt lat="43.9170869" lon="7.8466571"><ele>186.0</ele><time>2026-04-26T12:02:13.342Z</time></trkpt><trkpt lat="43.9171788" lon="7.8465975"><ele>186.0</ele><time>2026-04-26T12:02:14.342Z</time></trkpt><trkpt lat="43.9172849" lon="7.846526"><ele>186.0</ele><time>2026-04-26T12:02:15.342Z</time></trkpt><trkpt lat="43.9173904" lon="7.8464553"><ele>186.0</ele><time>2026-04-26T12:02:16.341Z</time></trkpt><trkpt lat="43.9174876" lon="7.8463965"><ele>186.0</ele><time>2026-04-26T12:02:17.341Z</time></trkpt><trkpt lat="43.9175769" lon="7.8463409"><ele>186.0</ele><time>2026-04-26T12:02:18.341Z</time></trkpt><trkpt lat="43.9176602" lon="7.8462578"><ele>188.25</ele><time>2026-04-26T12:02:19.342Z</time></trkpt><trkpt lat="43.9177391" lon="7.8461503"><ele>190.5</ele><time>2026-04-26T12:02:20.341Z</time></trkpt><trkpt lat="43.9178037" lon="7.8460205"><ele>192.75</ele><time>2026-04-26T12:02:21.342Z</time></trkpt><trkpt lat="43.917872" lon="7.845883"><ele>195.0</ele><time>2026-04-26T12:02:22.341Z</time></trkpt><trkpt lat="43.9179531" lon="7.84576"><ele>195.0</ele><time>2026-04-26T12:02:23.341Z</time></trkpt><trkpt lat="43.9180452" lon="7.8456589"><ele>195.0</ele><time>2026-04-26T12:02:24.341Z</time></trkpt><trkpt lat="43.91814" lon="7.8456072"><ele>195.0</ele><time>2026-04-26T12:02:25.341Z</time></trkpt><trkpt lat="43.9182344" lon="7.8455933"><ele>195.0</ele><time>2026-04-26T12:02:26.342Z</time></trkpt><trkpt lat="43.9183293" lon="7.845618"><ele>195.0</ele><time>2026-04-26T12:02:27.342Z</time></trkpt><trkpt lat="43.9184124" lon="7.8456778"><ele>194.6</ele><time>2026-04-26T12:02:28.342Z</time></trkpt><trkpt lat="43.9184957" lon="7.8457699"><ele>194.2</ele><time>2026-04-26T12:02:29.341Z</time></trkpt><trkpt lat="43.9185782" lon="7.845867"><ele>193.8</ele><time>2026-04-26T12:02:30.342Z</time></trkpt><trkpt lat="43.9186692" lon="7.8459531"><ele>193.4</ele><time>2026-04-26T12:02:31.342Z</time></trkpt><trkpt lat="43.9187659" lon="7.8460024"><ele>193.0</ele><time>2026-04-26T12:02:32.341Z</time></trkpt><trkpt lat="43.9188699" lon="7.8460262"><ele>193.0</ele><time>2026-04-26T12:02:33.341Z</time></trkpt><trkpt lat="43.918973" lon="7.846016"><ele>193.0</ele><time>2026-04-26T12:02:34.342Z</time></trkpt><trkpt lat="43.9190742" lon="7.8459703"><ele>193.0</ele><time>2026-04-26T12:02:35.342Z</time></trkpt><trkpt lat="43.919176" lon="7.8458978"><ele>193.0</ele><time>2026-04-26T12:02:36.342Z</time></trkpt><trkpt lat="43.9192811" lon="7.8458097"><ele>193.0</ele><time>2026-04-26T12:02:37.341Z</time></trkpt><trkpt lat="43.9193851" lon="7.8457143"><ele>194.5</ele><time>2026-04-26T12:02:38.341Z</time></trkpt><trkpt lat="43.9194872" lon="7.8456126"><ele>196.0</ele><time>2026-04-26T12:02:39.342Z</time></trkpt><trkpt lat="43.9195872" lon="7.8455006"><ele>197.5</ele><time>2026-04-26T12:02:40.341Z</time></trkpt><trkpt lat="43.9196802" lon="7.845376"><ele>199.0</ele><time>2026-04-26T12:02:41.342Z</time></trkpt><trkpt lat="43.9197653" lon="7.8452505"><ele>199.79999999999998</ele><time>2026-04-26T12:02:42.342Z</time></trkpt><trkpt lat="43.9198415" lon="7.8451172"><ele>200.6</ele><time>2026-04-26T12:02:43.341Z</time></trkpt><trkpt lat="43.9198979" lon="7.8450004"><ele>201.4</ele><time>2026-04-26T12:02:44.342Z</time></trkpt><trkpt lat="43.9199514" lon="7.8448675"><ele>202.2</ele><time>2026-04-26T12:02:45.342Z</time></trkpt><trkpt lat="43.920004" lon="7.8447294"><ele>203.0</ele><time>2026-04-26T12:02:46.342Z</time></trkpt><trkpt lat="43.9200682" lon="7.8445809"><ele>203.0</ele><time>2026-04-26T12:02:47.341Z</time></trkpt><trkpt lat="43.9201111" lon="7.844396"><ele>203.0</ele><time>2026-04-26T12:02:48.341Z</time></trkpt><trkpt lat="43.9201512" lon="7.8442309"><ele>203.0</ele><time>2026-04-26T12:02:49.342Z</time></trkpt><trkpt lat="43.9201866" lon="7.8440791"><ele>203.0</ele><time>2026-04-26T12:02:50.341Z</time></trkpt><trkpt lat="43.9202137" lon="7.8439351"><ele>202.33333333333334</ele><time>2026-04-26T12:02:51.342Z</time></trkpt><trkpt lat="43.9202348" lon="7.8438067"><ele>201.66666666666669</ele><time>2026-04-26T12:02:52.342Z</time></trkpt><trkpt lat="43.9202467" lon="7.8436879"><ele>201.0</ele><time>2026-04-26T12:02:53.342Z</time></trkpt><trkpt lat="43.9202634" lon="7.8435812"><ele>200.33333333333331</ele><time>2026-04-26T12:02:54.342Z</time></trkpt><trkpt lat="43.9202752" lon="7.8434909"><ele>199.66666666666666</ele><time>2026-04-26T12:02:55.341Z</time></trkpt><trkpt lat="43.9203049" lon="7.8434087"><ele>199.0</ele><time>2026-04-26T12:02:56.342Z</time></trkpt><trkpt lat="43.9203546" lon="7.8433319"><ele>198.6</ele><time>2026-04-26T12:02:57.341Z</time></trkpt><trkpt lat="43.9204144" lon="7.8432415"><ele>198.2</ele><time>2026-04-26T12:02:58.341Z</time></trkpt><trkpt lat="43.920467" lon="7.8431437"><ele>197.79999999999998</ele><time>2026-04-26T12:02:59.342Z</time></trkpt><trkpt lat="43.9205197" lon="7.843039"><ele>197.39999999999998</ele><time>2026-04-26T12:03:00.343Z</time></trkpt><trkpt lat="43.9205873" lon="7.8429365"><ele>197.0</ele><time>2026-04-26T12:03:01.342Z</time></trkpt><trkpt lat="43.9206612" lon="7.8428532"><ele>197.0</ele><time>2026-04-26T12:03:02.341Z</time></trkpt><trkpt lat="43.9207486" lon="7.8427742"><ele>197.0</ele><time>2026-04-26T12:03:03.341Z</time></trkpt><trkpt lat="43.9208387" lon="7.8427027"><ele>197.0</ele><time>2026-04-26T12:03:04.342Z</time></trkpt><trkpt lat="43.9209298" lon="7.8426345"><ele>197.0</ele><time>2026-04-26T12:03:05.342Z</time></trkpt><trkpt lat="43.9210216" lon="7.8425821"><ele>197.0</ele><time>2026-04-26T12:03:06.342Z</time></trkpt><trkpt lat="43.9211114" lon="7.8425241"><ele>197.8</ele><time>2026-04-26T12:03:07.341Z</time></trkpt><trkpt lat="43.9212014" lon="7.842467"><ele>198.6</ele><time>2026-04-26T12:03:08.341Z</time></trkpt><trkpt lat="43.9212896" lon="7.8424049"><ele>199.4</ele><time>2026-04-26T12:03:09.342Z</time></trkpt><trkpt lat="43.9213683" lon="7.8423575"><ele>200.20000000000002</ele><time>2026-04-26T12:03:10.342Z</time></trkpt><trkpt lat="43.9214493" lon="7.8423086"><ele>201.0</ele><time>2026-04-26T12:03:11.343Z</time></trkpt><trkpt lat="43.9215325" lon="7.8422754"><ele>201.0</ele><time>2026-04-26T12:03:12.341Z</time></trkpt><trkpt lat="43.9216252" lon="7.8422602"><ele>201.0</ele><time>2026-04-26T12:03:13.341Z</time></trkpt><trkpt lat="43.9217315" lon="7.842249"><ele>201.0</ele><time>2026-04-26T12:03:14.341Z</time></trkpt><trkpt lat="43.9218466" lon="7.842248"><ele>201.0</ele><time>2026-04-26T12:03:15.343Z</time></trkpt><trkpt lat="43.9219654" lon="7.84225"><ele>201.0</ele><time>2026-04-26T12:03:16.341Z</time></trkpt><trkpt lat="43.9220946" lon="7.8422705"><ele>201.0</ele><time>2026-04-26T12:03:17.342Z</time></trkpt><trkpt lat="43.9222256" lon="7.8423031"><ele>201.0</ele><time>2026-04-26T12:03:18.342Z</time></trkpt><trkpt lat="43.9223568" lon="7.8423417"><ele>201.0</ele><time>2026-04-26T12:03:19.342Z</time></trkpt><trkpt lat="43.9224942" lon="7.8423885"><ele>201.0</ele><time>2026-04-26T12:03:20.342Z</time></trkpt><trkpt lat="43.9226309" lon="7.8424385"><ele>201.0</ele><time>2026-04-26T12:03:21.341Z</time></trkpt><trkpt lat="43.9227658" lon="7.8424998"><ele>201.0</ele><time>2026-04-26T12:03:22.342Z</time></trkpt><trkpt lat="43.9228942" lon="7.8425679"><ele>201.0</ele><time>2026-04-26T12:03:23.341Z</time></trkpt><trkpt lat="43.9230129" lon="7.8426471"><ele>201.0</ele><time>2026-04-26T12:03:24.342Z</time></trkpt><trkpt lat="43.9231121" lon="7.8427403"><ele>201.0</ele><time>2026-04-26T12:03:25.344Z</time></trkpt><trkpt lat="43.9231868" lon="7.8428487"><ele>201.0</ele><time>2026-04-26T12:03:26.341Z</time></trkpt><trkpt lat="43.9232453" lon="7.8429638"><ele>201.0</ele><time>2026-04-26T12:03:27.341Z</time></trkpt><trkpt lat="43.9232949" lon="7.8430769"><ele>201.0</ele><time>2026-04-26T12:03:28.341Z</time></trkpt><trkpt lat="43.9233529" lon="7.8431771"><ele>201.0</ele><time>2026-04-26T12:03:29.341Z</time></trkpt><trkpt lat="43.9234341" lon="7.8432325"><ele>201.0</ele><time>2026-04-26T12:03:30.342Z</time></trkpt><trkpt lat="43.923534" lon="7.843263"><ele>201.0</ele><time>2026-04-26T12:03:31.341Z</time></trkpt><trkpt lat="43.9236486" lon="7.8432785"><ele>201.0</ele><time>2026-04-26T12:03:32.341Z</time></trkpt><trkpt lat="43.9237724" lon="7.8432879"><ele>201.0</ele><time>2026-04-26T12:03:33.343Z</time></trkpt><trkpt lat="43.9239005" lon="7.8433044"><ele>201.0</ele><time>2026-04-26T12:03:34.342Z</time></trkpt><trkpt lat="43.9240365" lon="7.8433212"><ele>201.0</ele><time>2026-04-26T12:03:35.341Z</time></trkpt><trkpt lat="43.924178" lon="7.8433229"><ele>201.0</ele><time>2026-04-26T12:03:36.341Z</time></trkpt><trkpt lat="43.9243105" lon="7.8433274"><ele>201.0</ele><time>2026-04-26T12:03:37.342Z</time></trkpt><trkpt lat="43.9244455" lon="7.8433401"><ele>203.0</ele><time>2026-04-26T12:03:38.343Z</time></trkpt><trkpt lat="43.9245772" lon="7.8433573"><ele>205.0</ele><time>2026-04-26T12:03:39.341Z</time></trkpt><trkpt lat="43.9247089" lon="7.8433729"><ele>207.0</ele><time>2026-04-26T12:03:40.342Z</time></trkpt><trkpt lat="43.9248392" lon="7.8433843"><ele>209.0</ele><time>2026-04-26T12:03:41.342Z</time></trkpt><trkpt lat="43.92497" lon="7.8434043"><ele>212.25</ele><time>2026-04-26T12:03:42.341Z</time></trkpt><trkpt lat="43.9251066" lon="7.8434199"><ele>215.5</ele><time>2026-04-26T12:03:43.342Z</time></trkpt><trkpt lat="43.9252401" lon="7.8434182"><ele>218.75</ele><time>2026-04-26T12:03:44.342Z</time></trkpt><trkpt lat="43.9253841" lon="7.8434041"><ele>222.0</ele><time>2026-04-26T12:03:45.341Z</time></trkpt><trkpt lat="43.9255274" lon="7.8433741"><ele>222.0</ele><time>2026-04-26T12:03:46.342Z</time></trkpt><trkpt lat="43.9256687" lon="7.8433039"><ele>222.0</ele><time>2026-04-26T12:03:47.342Z</time></trkpt><trkpt lat="43.9258152" lon="7.84325"><ele>222.0</ele><time>2026-04-26T12:03:48.341Z</time></trkpt><trkpt lat="43.9259608" lon="7.8431919"><ele>230.66666666666669</ele><time>2026-04-26T12:03:49.343Z</time></trkpt><trkpt lat="43.9261032" lon="7.8431015"><ele>239.33333333333334</ele><time>2026-04-26T12:03:50.342Z</time></trkpt><trkpt lat="43.9262487" lon="7.8429981"><ele>248.0</ele><time>2026-04-26T12:03:51.341Z</time></trkpt><trkpt lat="43.9263991" lon="7.8428904"><ele>248.0</ele><time>2026-04-26T12:03:52.343Z</time></trkpt><trkpt lat="43.9265466" lon="7.8427783"><ele>248.0</ele><time>2026-04-26T12:03:53.342Z</time></trkpt><trkpt lat="43.9266892" lon="7.8426848"><ele>248.0</ele><time>2026-04-26T12:03:54.343Z</time></trkpt><trkpt lat="43.9268287" lon="7.8425907"><ele>246.5</ele><time>2026-04-26T12:03:55.342Z</time></trkpt><trkpt lat="43.9269538" lon="7.842488"><ele>245.0</ele><time>2026-04-26T12:03:56.343Z</time></trkpt><trkpt lat="43.9270743" lon="7.8423775"><ele>243.5</ele><time>2026-04-26T12:03:57.341Z</time></trkpt><trkpt lat="43.9271938" lon="7.8422583"><ele>242.0</ele><time>2026-04-26T12:03:58.341Z</time></trkpt><trkpt lat="43.9273113" lon="7.842131"><ele>242.0</ele><time>2026-04-26T12:03:59.341Z</time></trkpt><trkpt lat="43.9274311" lon="7.8420058"><ele>242.0</ele><time>2026-04-26T12:04:00.342Z</time></trkpt><trkpt lat="43.927548" lon="7.8418836"><ele>242.0</ele><time>2026-04-26T12:04:01.341Z</time></trkpt><trkpt lat="43.9276715" lon="7.8417694"><ele>242.0</ele><time>2026-04-26T12:04:02.342Z</time></trkpt><trkpt lat="43.9277806" lon="7.841654"><ele>239.5</ele><time>2026-04-26T12:04:03.341Z</time></trkpt><trkpt lat="43.9278754" lon="7.8415435"><ele>237.0</ele><time>2026-04-26T12:04:04.341Z</time></trkpt><trkpt lat="43.9279739" lon="7.8414287"><ele>234.5</ele><time>2026-04-26T12:04:05.342Z</time></trkpt><trkpt lat="43.928072" lon="7.8413294"><ele>232.0</ele><time>2026-04-26T12:04:06.342Z</time></trkpt><trkpt lat="43.9281622" lon="7.8412123"><ele>232.0</ele><time>2026-04-26T12:04:07.341Z</time></trkpt><trkpt lat="43.9282473" lon="7.841103"><ele>232.0</ele><time>2026-04-26T12:04:08.341Z</time></trkpt><trkpt lat="43.9283378" lon="7.8409995"><ele>232.0</ele><time>2026-04-26T12:04:09.342Z</time></trkpt><trkpt lat="43.9284326" lon="7.8409114"><ele>232.0</ele><time>2026-04-26T12:04:10.342Z</time></trkpt><trkpt lat="43.928544" lon="7.8408615"><ele>232.0</ele><time>2026-04-26T12:04:11.342Z</time></trkpt><trkpt lat="43.9286533" lon="7.8408205"><ele>232.0</ele><time>2026-04-26T12:04:12.341Z</time></trkpt><trkpt lat="43.9287681" lon="7.8408522"><ele>232.0</ele><time>2026-04-26T12:04:13.342Z</time></trkpt><trkpt lat="43.9288797" lon="7.8409011"><ele>232.0</ele><time>2026-04-26T12:04:14.342Z</time></trkpt><trkpt lat="43.9289812" lon="7.8409809"><ele>232.0</ele><time>2026-04-26T12:04:15.341Z</time></trkpt><trkpt lat="43.9290754" lon="7.8410946"><ele>232.0</ele><time>2026-04-26T12:04:16.342Z</time></trkpt><trkpt lat="43.929164" lon="7.8412322"><ele>232.0</ele><time>2026-04-26T12:04:17.342Z</time></trkpt><trkpt lat="43.9292354" lon="7.8413775"><ele>232.0</ele><time>2026-04-26T12:04:18.341Z</time></trkpt><trkpt lat="43.929295" lon="7.8415318"><ele>231.75</ele><time>2026-04-26T12:04:19.341Z</time></trkpt><trkpt lat="43.929334" lon="7.8416945"><ele>231.5</ele><time>2026-04-26T12:04:20.341Z</time></trkpt><trkpt lat="43.9293779" lon="7.8418553"><ele>231.25</ele><time>2026-04-26T12:04:21.341Z</time></trkpt><trkpt lat="43.9294188" lon="7.8420371"><ele>231.0</ele><time>2026-04-26T12:04:22.342Z</time></trkpt><trkpt lat="43.9294488" lon="7.8422187"><ele>229.5</ele><time>2026-04-26T12:04:23.342Z</time></trkpt><trkpt lat="43.9294793" lon="7.8424017"><ele>228.0</ele><time>2026-04-26T12:04:24.343Z</time></trkpt><trkpt lat="43.929493" lon="7.8425921"><ele>226.5</ele><time>2026-04-26T12:04:25.342Z</time></trkpt><trkpt lat="43.929509" lon="7.8427697"><ele>225.0</ele><time>2026-04-26T12:04:26.342Z</time></trkpt><trkpt lat="43.9295181" lon="7.8429504"><ele>225.0</ele><time>2026-04-26T12:04:27.341Z</time></trkpt><trkpt lat="43.9295631" lon="7.8431034"><ele>225.0</ele><time>2026-04-26T12:04:28.342Z</time></trkpt><trkpt lat="43.9296139" lon="7.8432509"><ele>225.0</ele><time>2026-04-26T12:04:29.341Z</time></trkpt><trkpt lat="43.9296874" lon="7.8433588"><ele>225.0</ele><time>2026-04-26T12:04:30.342Z</time></trkpt><trkpt lat="43.9297881" lon="7.8434411"><ele>228.25</ele><time>2026-04-26T12:04:31.342Z</time></trkpt><trkpt lat="43.929894" lon="7.8434961"><ele>231.5</ele><time>2026-04-26T12:04:32.342Z</time></trkpt><trkpt lat="43.9300135" lon="7.8435148"><ele>234.75</ele><time>2026-04-26T12:04:33.342Z</time></trkpt><trkpt lat="43.9301249" lon="7.8435024"><ele>238.0</ele><time>2026-04-26T12:04:34.342Z</time></trkpt><trkpt lat="43.9302413" lon="7.8434679"><ele>236.5</ele><time>2026-04-26T12:04:35.342Z</time></trkpt><trkpt lat="43.930359" lon="7.8433999"><ele>235.0</ele><time>2026-04-26T12:04:36.341Z</time></trkpt><trkpt lat="43.9304736" lon="7.8433169"><ele>233.5</ele><time>2026-04-26T12:04:37.342Z</time></trkpt><trkpt lat="43.9305895" lon="7.8432239"><ele>232.0</ele><time>2026-04-26T12:04:38.341Z</time></trkpt><trkpt lat="43.9307006" lon="7.8431342"><ele>232.0</ele><time>2026-04-26T12:04:39.342Z</time></trkpt><trkpt lat="43.9308122" lon="7.8430456"><ele>232.0</ele><time>2026-04-26T12:04:40.342Z</time></trkpt><trkpt lat="43.9309049" lon="7.8429608"><ele>232.0</ele><time>2026-04-26T12:04:41.342Z</time></trkpt><trkpt lat="43.930969" lon="7.8428745"><ele>232.0</ele><time>2026-04-26T12:04:42.342Z</time></trkpt><trkpt lat="43.931019" lon="7.842744"><ele>232.0</ele><time>2026-04-26T12:04:43.342Z</time></trkpt><trkpt lat="43.9310733" lon="7.8426363"><ele>234.66666666666666</ele><time>2026-04-26T12:04:44.342Z</time></trkpt><trkpt lat="43.9311314" lon="7.8425202"><ele>237.33333333333331</ele><time>2026-04-26T12:04:45.342Z</time></trkpt><trkpt lat="43.9311928" lon="7.8424292"><ele>240.0</ele><time>2026-04-26T12:04:46.342Z</time></trkpt><trkpt lat="43.9312602" lon="7.8423715"><ele>242.66666666666669</ele><time>2026-04-26T12:04:47.342Z</time></trkpt><trkpt lat="43.9313282" lon="7.8423669"><ele>245.33333333333334</ele><time>2026-04-26T12:04:48.342Z</time></trkpt><trkpt lat="43.9313987" lon="7.8423937"><ele>248.0</ele><time>2026-04-26T12:04:49.342Z</time></trkpt><trkpt lat="43.9314588" lon="7.8424671"><ele>248.0</ele><time>2026-04-26T12:04:50.342Z</time></trkpt><trkpt lat="43.9315006" lon="7.8425663"><ele>248.0</ele><time>2026-04-26T12:04:51.341Z</time></trkpt><trkpt lat="43.9315216" lon="7.8426912"><ele>248.0</ele><time>2026-04-26T12:04:52.342Z</time></trkpt><trkpt lat="43.9315346" lon="7.8428362"><ele>248.0</ele><time>2026-04-26T12:04:53.342Z</time></trkpt><trkpt lat="43.9315106" lon="7.8429899"><ele>248.0</ele><time>2026-04-26T12:04:54.341Z</time></trkpt><trkpt lat="43.9314948" lon="7.8431506"><ele>249.25</ele><time>2026-04-26T12:04:55.343Z</time></trkpt><trkpt lat="43.9314765" lon="7.843321"><ele>250.5</ele><time>2026-04-26T12:04:56.342Z</time></trkpt><trkpt lat="43.9314514" lon="7.8434933"><ele>251.75</ele><time>2026-04-26T12:04:57.341Z</time></trkpt><trkpt lat="43.9314244" lon="7.8436661"><ele>253.0</ele><time>2026-04-26T12:04:58.341Z</time></trkpt><trkpt lat="43.9314069" lon="7.8438328"><ele>255.5</ele><time>2026-04-26T12:04:59.342Z</time></trkpt><trkpt lat="43.9313822" lon="7.8440039"><ele>258.0</ele><time>2026-04-26T12:05:00.341Z</time></trkpt><trkpt lat="43.9313608" lon="7.8441624"><ele>260.5</ele><time>2026-04-26T12:05:01.342Z</time></trkpt><trkpt lat="43.9313343" lon="7.8443028"><ele>263.0</ele><time>2026-04-26T12:05:02.342Z</time></trkpt><trkpt lat="43.9312943" lon="7.8444377"><ele>262.6</ele><time>2026-04-26T12:05:03.342Z</time></trkpt><trkpt lat="43.9312295" lon="7.8445449"><ele>262.20000000000005</ele><time>2026-04-26T12:05:04.343Z</time></trkpt><trkpt lat="43.9311529" lon="7.8446416"><ele>261.8</ele><time>2026-04-26T12:05:05.343Z</time></trkpt><trkpt lat="43.9310721" lon="7.8447239"><ele>261.40000000000003</ele><time>2026-04-26T12:05:06.343Z</time></trkpt><trkpt lat="43.9309817" lon="7.8447889"><ele>261.0</ele><time>2026-04-26T12:05:07.341Z</time></trkpt><trkpt lat="43.9308784" lon="7.8448322"><ele>261.0</ele><time>2026-04-26T12:05:08.342Z</time></trkpt><trkpt lat="43.9307739" lon="7.8448642"><ele>261.0</ele><time>2026-04-26T12:05:09.342Z</time></trkpt><trkpt lat="43.9306561" lon="7.8448819"><ele>261.0</ele><time>2026-04-26T12:05:10.343Z</time></trkpt><trkpt lat="43.9305467" lon="7.8448781"><ele>261.0</ele><time>2026-04-26T12:05:11.343Z</time></trkpt><trkpt lat="43.9304339" lon="7.8448755"><ele>261.0</ele><time>2026-04-26T12:05:12.342Z</time></trkpt><trkpt lat="43.9303245" lon="7.8448503"><ele>261.0</ele><time>2026-04-26T12:05:13.341Z</time></trkpt><trkpt lat="43.9302142" lon="7.844821"><ele>261.0</ele><time>2026-04-26T12:05:14.341Z</time></trkpt><trkpt lat="43.9301051" lon="7.8447747"><ele>261.0</ele><time>2026-04-26T12:05:15.343Z</time></trkpt><trkpt lat="43.9300084" lon="7.8447142"><ele>261.0</ele><time>2026-04-26T12:05:16.341Z</time></trkpt><trkpt lat="43.9299247" lon="7.8446377"><ele>261.0</ele><time>2026-04-26T12:05:17.342Z</time></trkpt><trkpt lat="43.9298417" lon="7.844557"><ele>256.8</ele><time>2026-04-26T12:05:18.342Z</time></trkpt><trkpt lat="43.9297549" lon="7.8444751"><ele>252.60000000000002</ele><time>2026-04-26T12:05:19.342Z</time></trkpt><trkpt lat="43.9296778" lon="7.8443884"><ele>248.4</ele><time>2026-04-26T12:05:20.341Z</time></trkpt><trkpt lat="43.9296007" lon="7.8443043"><ele>244.2</ele><time>2026-04-26T12:05:21.342Z</time></trkpt><trkpt lat="43.9295298" lon="7.844212"><ele>240.0</ele><time>2026-04-26T12:05:22.343Z</time></trkpt><trkpt lat="43.9294599" lon="7.8441136"><ele>240.0</ele><time>2026-04-26T12:05:23.342Z</time></trkpt><trkpt lat="43.9293989" lon="7.8439876"><ele>240.0</ele><time>2026-04-26T12:05:24.341Z</time></trkpt><trkpt lat="43.9293441" lon="7.8438604"><ele>240.0</ele><time>2026-04-26T12:05:25.342Z</time></trkpt><trkpt lat="43.9292902" lon="7.8437248"><ele>240.0</ele><time>2026-04-26T12:05:26.341Z</time></trkpt><trkpt lat="43.9292316" lon="7.8435844"><ele>240.0</ele><time>2026-04-26T12:05:27.343Z</time></trkpt><trkpt lat="43.9291648" lon="7.8434376"><ele>245.75</ele><time>2026-04-26T12:05:28.343Z</time></trkpt><trkpt lat="43.9290961" lon="7.843287"><ele>251.5</ele><time>2026-04-26T12:05:29.342Z</time></trkpt><trkpt lat="43.9290316" lon="7.8431391"><ele>257.25</ele><time>2026-04-26T12:05:30.341Z</time></trkpt><trkpt lat="43.9289732" lon="7.8429825"><ele>263.0</ele><time>2026-04-26T12:05:31.343Z</time></trkpt><trkpt lat="43.9289299" lon="7.8428228"><ele>263.0</ele><time>2026-04-26T12:05:32.342Z</time></trkpt><trkpt lat="43.9289024" lon="7.8426627"><ele>263.0</ele><time>2026-04-26T12:05:33.342Z</time></trkpt><trkpt lat="43.9288836" lon="7.8425146"><ele>263.0</ele><time>2026-04-26T12:05:34.342Z</time></trkpt><trkpt lat="43.9288582" lon="7.8423897"><ele>263.0</ele><time>2026-04-26T12:05:35.343Z</time></trkpt><trkpt lat="43.9288248" lon="7.8422766"><ele>263.0</ele><time>2026-04-26T12:05:36.342Z</time></trkpt><trkpt lat="43.9287653" lon="7.8421933"><ele>265.4</ele><time>2026-04-26T12:05:37.341Z</time></trkpt><trkpt lat="43.9286916" lon="7.8421475"><ele>267.8</ele><time>2026-04-26T12:05:38.343Z</time></trkpt><trkpt lat="43.9285989" lon="7.8421565"><ele>270.2</ele><time>2026-04-26T12:05:39.341Z</time></trkpt><trkpt lat="43.9284999" lon="7.8421842"><ele>272.6</ele><time>2026-04-26T12:05:40.342Z</time></trkpt><trkpt lat="43.9283829" lon="7.8422592"><ele>275.0</ele><time>2026-04-26T12:05:41.343Z</time></trkpt><trkpt lat="43.9282672" lon="7.8423493"><ele>275.0</ele><time>2026-04-26T12:05:42.341Z</time></trkpt><trkpt lat="43.9281547" lon="7.8424673"><ele>275.0</ele><time>2026-04-26T12:05:43.341Z</time></trkpt><trkpt lat="43.9280534" lon="7.8425905"><ele>275.0</ele><time>2026-04-26T12:05:44.343Z</time></trkpt><trkpt lat="43.9279624" lon="7.8427317"><ele>275.0</ele><time>2026-04-26T12:05:45.342Z</time></trkpt><trkpt lat="43.9278846" lon="7.8428845"><ele>282.5</ele><time>2026-04-26T12:05:46.342Z</time></trkpt><trkpt lat="43.9278102" lon="7.8430362"><ele>290.0</ele><time>2026-04-26T12:05:47.342Z</time></trkpt><trkpt lat="43.9277409" lon="7.843182"><ele>297.5</ele><time>2026-04-26T12:05:48.341Z</time></trkpt><trkpt lat="43.9276792" lon="7.8433209"><ele>305.0</ele><time>2026-04-26T12:05:49.341Z</time></trkpt><trkpt lat="43.9276005" lon="7.8434304"><ele>306.75</ele><time>2026-04-26T12:05:50.341Z</time></trkpt><trkpt lat="43.9275038" lon="7.8435221"><ele>308.5</ele><time>2026-04-26T12:05:51.341Z</time></trkpt><trkpt lat="43.9274088" lon="7.8436111"><ele>310.25</ele><time>2026-04-26T12:05:52.341Z</time></trkpt><trkpt lat="43.9273315" lon="7.8437427"><ele>312.0</ele><time>2026-04-26T12:05:53.343Z</time></trkpt><trkpt lat="43.9272546" lon="7.8438619"><ele>312.0</ele><time>2026-04-26T12:05:54.341Z</time></trkpt><trkpt lat="43.9271871" lon="7.8439847"><ele>312.0</ele><time>2026-04-26T12:05:55.341Z</time></trkpt><trkpt lat="43.9271128" lon="7.8440828"><ele>312.0</ele><time>2026-04-26T12:05:56.342Z</time></trkpt><trkpt lat="43.9270043" lon="7.8441484"><ele>312.0</ele><time>2026-04-26T12:05:57.342Z</time></trkpt><trkpt lat="43.926885" lon="7.8442039"><ele>312.0</ele><time>2026-04-26T12:05:58.342Z</time></trkpt><trkpt lat="43.9267707" lon="7.8442846"><ele>312.0</ele><time>2026-04-26T12:05:59.343Z</time></trkpt><trkpt lat="43.9266524" lon="7.8443547"><ele>312.0</ele><time>2026-04-26T12:06:00.341Z</time></trkpt><trkpt lat="43.9265354" lon="7.8444136"><ele>312.0</ele><time>2026-04-26T12:06:01.341Z</time></trkpt><trkpt lat="43.9264386" lon="7.8444676"><ele>306.2</ele><time>2026-04-26T12:06:02.341Z</time></trkpt><trkpt lat="43.9263402" lon="7.844519"><ele>300.4</ele><time>2026-04-26T12:06:03.343Z</time></trkpt><trkpt lat="43.9262729" lon="7.8445822"><ele>294.6</ele><time>2026-04-26T12:06:04.342Z</time></trkpt><trkpt lat="43.9262423" lon="7.844732"><ele>288.8</ele><time>2026-04-26T12:06:06.343Z</time></trkpt><trkpt lat="43.9263157" lon="7.8448141"><ele>283.0</ele><time>2026-04-26T12:06:08.341Z</time></trkpt><trkpt lat="43.9264017" lon="7.8447851"><ele>283.0</ele><time>2026-04-26T12:06:10.343Z</time></trkpt><trkpt lat="43.9264933" lon="7.8447043"><ele>283.0</ele><time>2026-04-26T12:06:12.342Z</time></trkpt><trkpt lat="43.9265973" lon="7.8446012"><ele>283.0</ele><time>2026-04-26T12:06:14.343Z</time></trkpt><trkpt lat="43.926709" lon="7.8445254"><ele>283.0</ele><time>2026-04-26T12:06:16.342Z</time></trkpt><trkpt lat="43.9267677" lon="7.8444892"><ele>283.0</ele><time>2026-04-26T12:06:17.342Z</time></trkpt><trkpt lat="43.9268719" lon="7.8444271"><ele>288.2</ele><time>2026-04-26T12:06:19.342Z</time></trkpt><trkpt lat="43.9270052" lon="7.8443706"><ele>293.4</ele><time>2026-04-26T12:06:21.341Z</time></trkpt><trkpt lat="43.927079" lon="7.8443225"><ele>298.59999999999997</ele><time>2026-04-26T12:06:22.342Z</time></trkpt><trkpt lat="43.9271455" lon="7.8442693"><ele>303.8</ele><time>2026-04-26T12:06:23.341Z</time></trkpt><trkpt lat="43.9272231" lon="7.8442053"><ele>309.0</ele><time>2026-04-26T12:06:24.342Z</time></trkpt><trkpt lat="43.9273046" lon="7.8441096"><ele>309.59999999999997</ele><time>2026-04-26T12:06:25.342Z</time></trkpt><trkpt lat="43.9273878" lon="7.8440156"><ele>310.2</ele><time>2026-04-26T12:06:26.342Z</time></trkpt><trkpt lat="43.9274512" lon="7.8439165"><ele>310.79999999999995</ele><time>2026-04-26T12:06:27.341Z</time></trkpt><trkpt lat="43.9275165" lon="7.8438202"><ele>311.4</ele><time>2026-04-26T12:06:28.342Z</time></trkpt><trkpt lat="43.927595" lon="7.8437394"><ele>312.0</ele><time>2026-04-26T12:06:29.342Z</time></trkpt><trkpt lat="43.9276711" lon="7.8436748"><ele>310.8333333333333</ele><time>2026-04-26T12:06:30.341Z</time></trkpt><trkpt lat="43.9277528" lon="7.8436204"><ele>309.6666666666667</ele><time>2026-04-26T12:06:31.342Z</time></trkpt><trkpt lat="43.9278245" lon="7.8435443"><ele>308.5</ele><time>2026-04-26T12:06:32.341Z</time></trkpt><trkpt lat="43.9278895" lon="7.8434741"><ele>307.33333333333337</ele><time>2026-04-26T12:06:33.341Z</time></trkpt><trkpt lat="43.9279529" lon="7.8433998"><ele>306.1666666666667</ele><time>2026-04-26T12:06:34.342Z</time></trkpt><trkpt lat="43.9280022" lon="7.8433255"><ele>305.0</ele><time>2026-04-26T12:06:35.342Z</time></trkpt><trkpt lat="43.9280586" lon="7.8432607"><ele>305.0</ele><time>2026-04-26T12:06:36.341Z</time></trkpt><trkpt lat="43.928108" lon="7.8431936"><ele>305.0</ele><time>2026-04-26T12:06:37.341Z</time></trkpt><trkpt lat="43.9281639" lon="7.8431348"><ele>305.0</ele><time>2026-04-26T12:06:38.342Z</time></trkpt><trkpt lat="43.9282544" lon="7.8430335"><ele>305.0</ele><time>2026-04-26T12:06:40.341Z</time></trkpt><trkpt lat="43.9283307" lon="7.8430607"><ele>305.0</ele><time>2026-04-26T12:06:42.343Z</time></trkpt><trkpt lat="43.9283873" lon="7.8431521"><ele>305.0</ele><time>2026-04-26T12:06:44.342Z</time></trkpt><trkpt lat="43.9284396" lon="7.843291"><ele>301.6</ele><time>2026-04-26T12:06:46.343Z</time></trkpt><trkpt lat="43.9285088" lon="7.8434508"><ele>298.2</ele><time>2026-04-26T12:06:48.342Z</time></trkpt><trkpt lat="43.9285392" lon="7.8435496"><ele>294.8</ele><time>2026-04-26T12:06:49.343Z</time></trkpt><trkpt lat="43.9285755" lon="7.8436591"><ele>291.4</ele><time>2026-04-26T12:06:50.342Z</time></trkpt><trkpt lat="43.9286145" lon="7.8437639"><ele>288.0</ele><time>2026-04-26T12:06:51.342Z</time></trkpt><trkpt lat="43.9286486" lon="7.8438697"><ele>288.0</ele><time>2026-04-26T12:06:52.342Z</time></trkpt><trkpt lat="43.9286936" lon="7.8439767"><ele>288.0</ele><time>2026-04-26T12:06:53.342Z</time></trkpt><trkpt lat="43.9287309" lon="7.844081"><ele>288.0</ele><time>2026-04-26T12:06:54.342Z</time></trkpt><trkpt lat="43.9287785" lon="7.8441946"><ele>288.0</ele><time>2026-04-26T12:06:55.341Z</time></trkpt><trkpt lat="43.9288356" lon="7.8442927"><ele>288.0</ele><time>2026-04-26T12:06:56.342Z</time></trkpt><trkpt lat="43.9288934" lon="7.8443987"><ele>292.0</ele><time>2026-04-26T12:06:57.342Z</time></trkpt><trkpt lat="43.9289601" lon="7.8444984"><ele>296.0</ele><time>2026-04-26T12:06:58.342Z</time></trkpt><trkpt lat="43.929022" lon="7.8446049"><ele>300.0</ele><time>2026-04-26T12:06:59.341Z</time></trkpt><trkpt lat="43.9290854" lon="7.8447151"><ele>304.0</ele><time>2026-04-26T12:07:00.343Z</time></trkpt><trkpt lat="43.9291514" lon="7.8448213"><ele>308.0</ele><time>2026-04-26T12:07:01.342Z</time></trkpt><trkpt lat="43.9292107" lon="7.8449296"><ele>309.4</ele><time>2026-04-26T12:07:02.342Z</time></trkpt><trkpt lat="43.9292547" lon="7.8450601"><ele>310.8</ele><time>2026-04-26T12:07:03.342Z</time></trkpt><trkpt lat="43.9292808" lon="7.8452065"><ele>312.2</ele><time>2026-04-26T12:07:04.342Z</time></trkpt><trkpt lat="43.9293261" lon="7.8453171"><ele>313.6</ele><time>2026-04-26T12:07:05.341Z</time></trkpt><trkpt lat="43.9293682" lon="7.8454034"><ele>315.0</ele><time>2026-04-26T12:07:06.342Z</time></trkpt><trkpt lat="43.9294637" lon="7.8454531"><ele>315.0</ele><time>2026-04-26T12:07:07.341Z</time></trkpt><trkpt lat="43.9295561" lon="7.8455083"><ele>315.0</ele><time>2026-04-26T12:07:08.343Z</time></trkpt><trkpt lat="43.9296599" lon="7.8455602"><ele>315.0</ele><time>2026-04-26T12:07:09.342Z</time></trkpt><trkpt lat="43.9297705" lon="7.8456163"><ele>315.0</ele><time>2026-04-26T12:07:10.342Z</time></trkpt><trkpt lat="43.9298861" lon="7.8456746"><ele>315.0</ele><time>2026-04-26T12:07:11.341Z</time></trkpt><trkpt lat="43.9299982" lon="7.8457388"><ele>315.0</ele><time>2026-04-26T12:07:12.341Z</time></trkpt><trkpt lat="43.9301123" lon="7.845797"><ele>315.0</ele><time>2026-04-26T12:07:13.342Z</time></trkpt><trkpt lat="43.9302245" lon="7.8458521"><ele>315.0</ele><time>2026-04-26T12:07:14.342Z</time></trkpt><trkpt lat="43.9303285" lon="7.8459017"><ele>314.0</ele><time>2026-04-26T12:07:15.342Z</time></trkpt><trkpt lat="43.9304218" lon="7.8459484"><ele>313.0</ele><time>2026-04-26T12:07:16.341Z</time></trkpt><trkpt lat="43.9305065" lon="7.8459999"><ele>312.0</ele><time>2026-04-26T12:07:17.341Z</time></trkpt><trkpt lat="43.9305696" lon="7.8460526"><ele>311.0</ele><time>2026-04-26T12:07:18.343Z</time></trkpt><trkpt lat="43.9306172" lon="7.8461251"><ele>310.0</ele><time>2026-04-26T12:07:19.341Z</time></trkpt><trkpt lat="43.9306585" lon="7.8462094"><ele>309.0</ele><time>2026-04-26T12:07:20.343Z</time></trkpt><trkpt lat="43.9306914" lon="7.8463142"><ele>308.8</ele><time>2026-04-26T12:07:21.343Z</time></trkpt><trkpt lat="43.9307535" lon="7.846407"><ele>308.59999999999997</ele><time>2026-04-26T12:07:22.341Z</time></trkpt><trkpt lat="43.9308189" lon="7.8464781"><ele>308.4</ele><time>2026-04-26T12:07:23.342Z</time></trkpt><trkpt lat="43.930902" lon="7.8465071"><ele>308.2</ele><time>2026-04-26T12:07:24.343Z</time></trkpt><trkpt lat="43.9309977" lon="7.8464943"><ele>308.0</ele><time>2026-04-26T12:07:25.342Z</time></trkpt><trkpt lat="43.9310969" lon="7.846474"><ele>312.6</ele><time>2026-04-26T12:07:26.342Z</time></trkpt><trkpt lat="43.9312018" lon="7.8464582"><ele>317.20000000000005</ele><time>2026-04-26T12:07:27.342Z</time></trkpt><trkpt lat="43.9313165" lon="7.8464463"><ele>321.8</ele><time>2026-04-26T12:07:28.343Z</time></trkpt><trkpt lat="43.9314297" lon="7.8464506"><ele>326.40000000000003</ele><time>2026-04-26T12:07:29.342Z</time></trkpt><trkpt lat="43.9315381" lon="7.8464705"><ele>331.0</ele><time>2026-04-26T12:07:30.342Z</time></trkpt><trkpt lat="43.9316406" lon="7.8464878"><ele>336.5</ele><time>2026-04-26T12:07:31.342Z</time></trkpt><trkpt lat="43.9317506" lon="7.8465"><ele>342.0</ele><time>2026-04-26T12:07:32.343Z</time></trkpt><trkpt lat="43.9318629" lon="7.8465001"><ele>347.5</ele><time>2026-04-26T12:07:33.343Z</time></trkpt><trkpt lat="43.9319776" lon="7.8464831"><ele>353.0</ele><time>2026-04-26T12:07:34.342Z</time></trkpt><trkpt lat="43.9320956" lon="7.846454"><ele>353.0</ele><time>2026-04-26T12:07:35.343Z</time></trkpt><trkpt lat="43.9322214" lon="7.8464677"><ele>353.0</ele><time>2026-04-26T12:07:36.341Z</time></trkpt><trkpt lat="43.9323444" lon="7.8465192"><ele>353.0</ele><time>2026-04-26T12:07:37.342Z</time></trkpt><trkpt lat="43.9324546" lon="7.8465879"><ele>353.0</ele><time>2026-04-26T12:07:38.341Z</time></trkpt><trkpt lat="43.932569" lon="7.8466875"><ele>354.0</ele><time>2026-04-26T12:07:39.343Z</time></trkpt><trkpt lat="43.9326773" lon="7.8468119"><ele>355.0</ele><time>2026-04-26T12:07:40.343Z</time></trkpt><trkpt lat="43.9327849" lon="7.8469494"><ele>356.0</ele><time>2026-04-26T12:07:41.342Z</time></trkpt><trkpt lat="43.9328878" lon="7.8470781"><ele>357.0</ele><time>2026-04-26T12:07:42.341Z</time></trkpt><trkpt lat="43.9329833" lon="7.8472001"><ele>357.0</ele><time>2026-04-26T12:07:43.342Z</time></trkpt><trkpt lat="43.9330369" lon="7.8473412"><ele>357.0</ele><time>2026-04-26T12:07:44.343Z</time></trkpt><trkpt lat="43.9330798" lon="7.847483"><ele>357.0</ele><time>2026-04-26T12:07:45.342Z</time></trkpt><trkpt lat="43.9331353" lon="7.8475833"><ele>357.0</ele><time>2026-04-26T12:07:46.341Z</time></trkpt><trkpt lat="43.9332095" lon="7.8476276"><ele>357.0</ele><time>2026-04-26T12:07:47.342Z</time></trkpt><trkpt lat="43.9332975" lon="7.8476443"><ele>351.8</ele><time>2026-04-26T12:07:48.344Z</time></trkpt><trkpt lat="43.9333877" lon="7.847691"><ele>346.6</ele><time>2026-04-26T12:07:49.342Z</time></trkpt><trkpt lat="43.9334705" lon="7.8477825"><ele>341.40000000000003</ele><time>2026-04-26T12:07:50.342Z</time></trkpt><trkpt lat="43.9335571" lon="7.8478718"><ele>336.20000000000005</ele><time>2026-04-26T12:07:51.342Z</time></trkpt><trkpt lat="43.9336487" lon="7.8479299"><ele>331.0</ele><time>2026-04-26T12:07:52.343Z</time></trkpt><trkpt lat="43.9337529" lon="7.8479474"><ele>331.0</ele><time>2026-04-26T12:07:53.341Z</time></trkpt><trkpt lat="43.9338703" lon="7.8479321"><ele>331.0</ele><time>2026-04-26T12:07:54.341Z</time></trkpt><trkpt lat="43.9340038" lon="7.847914"><ele>331.0</ele><time>2026-04-26T12:07:55.342Z</time></trkpt><trkpt lat="43.9341569" lon="7.8478998"><ele>331.0</ele><time>2026-04-26T12:07:56.343Z</time></trkpt><trkpt lat="43.9343039" lon="7.8479003"><ele>336.25</ele><time>2026-04-26T12:07:57.342Z</time></trkpt><trkpt lat="43.9344495" lon="7.8479146"><ele>341.5</ele><time>2026-04-26T12:07:58.343Z</time></trkpt><trkpt lat="43.9345861" lon="7.8479425"><ele>346.75</ele><time>2026-04-26T12:07:59.343Z</time></trkpt><trkpt lat="43.934719" lon="7.8479765"><ele>352.0</ele><time>2026-04-26T12:08:00.342Z</time></trkpt><trkpt lat="43.9348518" lon="7.8479865"><ele>352.0</ele><time>2026-04-26T12:08:01.344Z</time></trkpt><trkpt lat="43.9349783" lon="7.8480202"><ele>352.0</ele><time>2026-04-26T12:08:02.342Z</time></trkpt><trkpt lat="43.9350959" lon="7.848086"><ele>352.0</ele><time>2026-04-26T12:08:03.342Z</time></trkpt><trkpt lat="43.9352139" lon="7.8482043"><ele>352.0</ele><time>2026-04-26T12:08:04.343Z</time></trkpt><trkpt lat="43.9353186" lon="7.8483323"><ele>353.40000000000003</ele><time>2026-04-26T12:08:05.343Z</time></trkpt><trkpt lat="43.9354234" lon="7.8484385"><ele>354.8</ele><time>2026-04-26T12:08:06.342Z</time></trkpt><trkpt lat="43.9355305" lon="7.8485072"><ele>356.2</ele><time>2026-04-26T12:08:07.342Z</time></trkpt><trkpt lat="43.9356274" lon="7.8485689"><ele>357.6</ele><time>2026-04-26T12:08:08.342Z</time></trkpt><trkpt lat="43.9357018" lon="7.8486448"><ele>359.0</ele><time>2026-04-26T12:08:09.343Z</time></trkpt><trkpt lat="43.9357449" lon="7.8487519"><ele>359.0</ele><time>2026-04-26T12:08:10.341Z</time></trkpt><trkpt lat="43.9357643" lon="7.8489029"><ele>359.0</ele><time>2026-04-26T12:08:11.342Z</time></trkpt><trkpt lat="43.9357795" lon="7.8490556"><ele>359.0</ele><time>2026-04-26T12:08:12.342Z</time></trkpt><trkpt lat="43.9357983" lon="7.8492079"><ele>359.0</ele><time>2026-04-26T12:08:13.342Z</time></trkpt><trkpt lat="43.9358332" lon="7.8493298"><ele>359.0</ele><time>2026-04-26T12:08:14.343Z</time></trkpt><trkpt lat="43.9358935" lon="7.8494025"><ele>359.75</ele><time>2026-04-26T12:08:15.342Z</time></trkpt><trkpt lat="43.9359811" lon="7.8494346"><ele>360.5</ele><time>2026-04-26T12:08:16.341Z</time></trkpt><trkpt lat="43.9360934" lon="7.8494399"><ele>361.25</ele><time>2026-04-26T12:08:17.343Z</time></trkpt><trkpt lat="43.9362167" lon="7.8494598"><ele>362.0</ele><time>2026-04-26T12:08:18.344Z</time></trkpt><trkpt lat="43.9363442" lon="7.8494826"><ele>362.0</ele><time>2026-04-26T12:08:19.342Z</time></trkpt><trkpt lat="43.9364584" lon="7.8495164"><ele>362.0</ele><time>2026-04-26T12:08:20.343Z</time></trkpt><trkpt lat="43.9365673" lon="7.8495595"><ele>362.0</ele><time>2026-04-26T12:08:21.342Z</time></trkpt><trkpt lat="43.9366637" lon="7.8496239"><ele>362.0</ele><time>2026-04-26T12:08:22.342Z</time></trkpt><trkpt lat="43.9367565" lon="7.8496939"><ele>362.0</ele><time>2026-04-26T12:08:23.343Z</time></trkpt><trkpt lat="43.9368411" lon="7.8497828"><ele>367.20000000000005</ele><time>2026-04-26T12:08:24.342Z</time></trkpt><trkpt lat="43.9369307" lon="7.8498595"><ele>372.4</ele><time>2026-04-26T12:08:25.341Z</time></trkpt><trkpt lat="43.9370103" lon="7.8499474"><ele>377.6</ele><time>2026-04-26T12:08:26.342Z</time></trkpt><trkpt lat="43.9370722" lon="7.8500554"><ele>382.79999999999995</ele><time>2026-04-26T12:08:27.343Z</time></trkpt><trkpt lat="43.9371287" lon="7.8501687"><ele>388.0</ele><time>2026-04-26T12:08:28.343Z</time></trkpt><trkpt lat="43.9371857" lon="7.8502848"><ele>388.0</ele><time>2026-04-26T12:08:29.342Z</time></trkpt><trkpt lat="43.9372451" lon="7.850397"><ele>388.0</ele><time>2026-04-26T12:08:30.342Z</time></trkpt><trkpt lat="43.9373105" lon="7.8504956"><ele>388.0</ele><time>2026-04-26T12:08:31.342Z</time></trkpt><trkpt lat="43.9373811" lon="7.850588"><ele>388.0</ele><time>2026-04-26T12:08:32.342Z</time></trkpt><trkpt lat="43.9374464" lon="7.8506668"><ele>388.0</ele><time>2026-04-26T12:08:33.344Z</time></trkpt><trkpt lat="43.9374846" lon="7.8507639"><ele>388.0</ele><time>2026-04-26T12:08:34.342Z</time></trkpt><trkpt lat="43.9374892" lon="7.8509356"><ele>388.0</ele><time>2026-04-26T12:08:36.343Z</time></trkpt><trkpt lat="43.937474" lon="7.8510388"><ele>388.0</ele><time>2026-04-26T12:08:37.341Z</time></trkpt><trkpt lat="43.93747" lon="7.8511582"><ele>388.0</ele><time>2026-04-26T12:08:38.342Z</time></trkpt><trkpt lat="43.9374786" lon="7.8512945"><ele>388.0</ele><time>2026-04-26T12:08:39.343Z</time></trkpt><trkpt lat="43.9374966" lon="7.851429"><ele>387.79999999999995</ele><time>2026-04-26T12:08:40.341Z</time></trkpt><trkpt lat="43.9375234" lon="7.8515557"><ele>387.6</ele><time>2026-04-26T12:08:41.342Z</time></trkpt><trkpt lat="43.9375892" lon="7.8516472"><ele>387.4</ele><time>2026-04-26T12:08:42.344Z</time></trkpt><trkpt lat="43.9376694" lon="7.8517271"><ele>387.20000000000005</ele><time>2026-04-26T12:08:43.342Z</time></trkpt><trkpt lat="43.9377651" lon="7.8517959"><ele>387.0</ele><time>2026-04-26T12:08:44.342Z</time></trkpt><trkpt lat="43.9378655" lon="7.8518757"><ele>387.0</ele><time>2026-04-26T12:08:45.343Z</time></trkpt><trkpt lat="43.9379652" lon="7.8519633"><ele>387.0</ele><time>2026-04-26T12:08:46.342Z</time></trkpt><trkpt lat="43.9380674" lon="7.8520518"><ele>387.0</ele><time>2026-04-26T12:08:47.341Z</time></trkpt><trkpt lat="43.9381701" lon="7.8521409"><ele>387.0</ele><time>2026-04-26T12:08:48.341Z</time></trkpt><trkpt lat="43.9382512" lon="7.8522536"><ele>387.0</ele><time>2026-04-26T12:08:49.343Z</time></trkpt><trkpt lat="43.9383248" lon="7.8523753"><ele>387.0</ele><time>2026-04-26T12:08:50.342Z</time></trkpt><trkpt lat="43.938415" lon="7.8524903"><ele>387.0</ele><time>2026-04-26T12:08:51.342Z</time></trkpt><trkpt lat="43.9385162" lon="7.8525922"><ele>387.0</ele><time>2026-04-26T12:08:52.342Z</time></trkpt><trkpt lat="43.9386118" lon="7.8526739"><ele>383.5</ele><time>2026-04-26T12:08:53.343Z</time></trkpt><trkpt lat="43.9387097" lon="7.85272"><ele>380.0</ele><time>2026-04-26T12:08:54.341Z</time></trkpt><trkpt lat="43.9388246" lon="7.8527274"><ele>376.5</ele><time>2026-04-26T12:08:55.343Z</time></trkpt><trkpt lat="43.9389362" lon="7.8527312"><ele>373.0</ele><time>2026-04-26T12:08:56.341Z</time></trkpt><trkpt lat="43.9390628" lon="7.852735"><ele>373.0</ele><time>2026-04-26T12:08:57.342Z</time></trkpt><trkpt lat="43.9391864" lon="7.8527428"><ele>373.0</ele><time>2026-04-26T12:08:58.343Z</time></trkpt><trkpt lat="43.9393116" lon="7.852742"><ele>373.0</ele><time>2026-04-26T12:08:59.342Z</time></trkpt><trkpt lat="43.9394379" lon="7.8527402"><ele>373.0</ele><time>2026-04-26T12:09:00.343Z</time></trkpt><trkpt lat="43.9395626" lon="7.8527418"><ele>377.25</ele><time>2026-04-26T12:09:01.342Z</time></trkpt><trkpt lat="43.9396827" lon="7.8527462"><ele>381.5</ele><time>2026-04-26T12:09:02.341Z</time></trkpt><trkpt lat="43.9398013" lon="7.8527493"><ele>385.75</ele><time>2026-04-26T12:09:03.342Z</time></trkpt><trkpt lat="43.9399126" lon="7.852748"><ele>390.0</ele><time>2026-04-26T12:09:04.343Z</time></trkpt><trkpt lat="43.9400195" lon="7.852727"><ele>395.2</ele><time>2026-04-26T12:09:05.342Z</time></trkpt><trkpt lat="43.9401115" lon="7.8526241"><ele>400.4</ele><time>2026-04-26T12:09:06.342Z</time></trkpt><trkpt lat="43.9401829" lon="7.8525126"><ele>405.6</ele><time>2026-04-26T12:09:07.343Z</time></trkpt><trkpt lat="43.9402472" lon="7.8524021"><ele>410.8</ele><time>2026-04-26T12:09:08.342Z</time></trkpt><trkpt lat="43.9403166" lon="7.8523286"><ele>416.0</ele><time>2026-04-26T12:09:09.341Z</time></trkpt><trkpt lat="43.9403893" lon="7.8522957"><ele>415.99999999999994</ele><time>2026-04-26T12:09:10.341Z</time></trkpt><trkpt lat="43.940454" lon="7.8523225"><ele>416.0</ele><time>2026-04-26T12:09:11.342Z</time></trkpt><trkpt lat="43.9405022" lon="7.8523983"><ele>416.0</ele><time>2026-04-26T12:09:12.342Z</time></trkpt><trkpt lat="43.9405138" lon="7.8525015"><ele>416.0</ele><time>2026-04-26T12:09:13.343Z</time></trkpt><trkpt lat="43.9405126" lon="7.8526307"><ele>415.99999999999994</ele><time>2026-04-26T12:09:14.342Z</time></trkpt><trkpt lat="43.9405068" lon="7.8527776"><ele>416.0</ele><time>2026-04-26T12:09:15.342Z</time></trkpt><trkpt lat="43.9405018" lon="7.8529225"><ele>416.0</ele><time>2026-04-26T12:09:16.341Z</time></trkpt><trkpt lat="43.9404973" lon="7.8530739"><ele>416.0</ele><time>2026-04-26T12:09:17.343Z</time></trkpt><trkpt lat="43.9405033" lon="7.8532074"><ele>416.0</ele><time>2026-04-26T12:09:18.342Z</time></trkpt><trkpt lat="43.9405367" lon="7.8533337"><ele>416.0</ele><time>2026-04-26T12:09:19.343Z</time></trkpt><trkpt lat="43.9406002" lon="7.8534202"><ele>416.0</ele><time>2026-04-26T12:09:20.344Z</time></trkpt><trkpt lat="43.9406761" lon="7.8534602"><ele>415.99999999999994</ele><time>2026-04-26T12:09:21.342Z</time></trkpt><trkpt lat="43.9407617" lon="7.8534374"><ele>416.0</ele><time>2026-04-26T12:09:22.342Z</time></trkpt><trkpt lat="43.940847" lon="7.8534003"><ele>416.0</ele><time>2026-04-26T12:09:23.342Z</time></trkpt><trkpt lat="43.9409392" lon="7.853404"><ele>416.0</ele><time>2026-04-26T12:09:24.341Z</time></trkpt><trkpt lat="43.9410127" lon="7.853463"><ele>415.99999999999994</ele><time>2026-04-26T12:09:25.343Z</time></trkpt><trkpt lat="43.9410695" lon="7.8535513"><ele>416.0</ele><time>2026-04-26T12:09:26.343Z</time></trkpt><trkpt lat="43.9411261" lon="7.8536638"><ele>417.0</ele><time>2026-04-26T12:09:27.343Z</time></trkpt><trkpt lat="43.941203" lon="7.8537557"><ele>418.0</ele><time>2026-04-26T12:09:28.343Z</time></trkpt><trkpt lat="43.9412977" lon="7.8538203"><ele>419.0</ele><time>2026-04-26T12:09:29.342Z</time></trkpt><trkpt lat="43.9413992" lon="7.853861"><ele>420.0</ele><time>2026-04-26T12:09:30.343Z</time></trkpt><trkpt lat="43.9414967" lon="7.8538893"><ele>421.0</ele><time>2026-04-26T12:09:31.342Z</time></trkpt><trkpt lat="43.941592" lon="7.85391"><ele>421.0</ele><time>2026-04-26T12:09:32.341Z</time></trkpt><trkpt lat="43.9416842" lon="7.8539092"><ele>421.0</ele><time>2026-04-26T12:09:33.343Z</time></trkpt><trkpt lat="43.9417745" lon="7.8538812"><ele>421.0</ele><time>2026-04-26T12:09:34.343Z</time></trkpt><trkpt lat="43.9418686" lon="7.8538416"><ele>421.0</ele><time>2026-04-26T12:09:35.342Z</time></trkpt><trkpt lat="43.9419599" lon="7.8538564"><ele>421.0</ele><time>2026-04-26T12:09:36.341Z</time></trkpt><trkpt lat="43.9420208" lon="7.8539177"><ele>424.6</ele><time>2026-04-26T12:09:37.343Z</time></trkpt><trkpt lat="43.9420497" lon="7.8540024"><ele>428.20000000000005</ele><time>2026-04-26T12:09:38.342Z</time></trkpt><trkpt lat="43.9420784" lon="7.8541129"><ele>431.79999999999995</ele><time>2026-04-26T12:09:39.343Z</time></trkpt><trkpt lat="43.9421153" lon="7.854246"><ele>435.4</ele><time>2026-04-26T12:09:40.342Z</time></trkpt><trkpt lat="43.9421737" lon="7.8543863"><ele>439.0</ele><time>2026-04-26T12:09:41.343Z</time></trkpt><trkpt lat="43.9422354" lon="7.85453"><ele>439.0</ele><time>2026-04-26T12:09:42.343Z</time></trkpt><trkpt lat="43.9422997" lon="7.8546699"><ele>439.0</ele><time>2026-04-26T12:09:43.342Z</time></trkpt><trkpt lat="43.9423653" lon="7.8548169"><ele>439.0</ele><time>2026-04-26T12:09:44.342Z</time></trkpt><trkpt lat="43.9424303" lon="7.8549562"><ele>439.0</ele><time>2026-04-26T12:09:45.344Z</time></trkpt><trkpt lat="43.9424948" lon="7.8550966"><ele>443.25</ele><time>2026-04-26T12:09:46.343Z</time></trkpt><trkpt lat="43.9425614" lon="7.8552379"><ele>447.5</ele><time>2026-04-26T12:09:47.344Z</time></trkpt><trkpt lat="43.9426196" lon="7.8553854"><ele>451.75</ele><time>2026-04-26T12:09:48.341Z</time></trkpt><trkpt lat="43.9426668" lon="7.8555442"><ele>456.0</ele><time>2026-04-26T12:09:49.342Z</time></trkpt><trkpt lat="43.9427061" lon="7.8557025"><ele>456.0</ele><time>2026-04-26T12:09:50.343Z</time></trkpt><trkpt lat="43.9427321" lon="7.8558536"><ele>456.0</ele><time>2026-04-26T12:09:51.343Z</time></trkpt><trkpt lat="43.9427521" lon="7.8559807"><ele>456.0</ele><time>2026-04-26T12:09:52.341Z</time></trkpt><trkpt lat="43.9427953" lon="7.8560674"><ele>456.0</ele><time>2026-04-26T12:09:53.344Z</time></trkpt><trkpt lat="43.9428573" lon="7.8561065"><ele>456.0</ele><time>2026-04-26T12:09:54.342Z</time></trkpt><trkpt lat="43.9429202" lon="7.8561004"><ele>456.0</ele><time>2026-04-26T12:09:55.342Z</time></trkpt><trkpt lat="43.9429843" lon="7.8560392"><ele>456.0</ele><time>2026-04-26T12:09:56.343Z</time></trkpt><trkpt lat="43.9430521" lon="7.8559284"><ele>456.0</ele><time>2026-04-26T12:09:57.342Z</time></trkpt><trkpt lat="43.9431165" lon="7.8558181"><ele>456.0</ele><time>2026-04-26T12:09:58.343Z</time></trkpt><trkpt lat="43.9431942" lon="7.8557321"><ele>456.0</ele><time>2026-04-26T12:09:59.342Z</time></trkpt><trkpt lat="43.9432672" lon="7.8556514"><ele>456.0</ele><time>2026-04-26T12:10:00.342Z</time></trkpt><trkpt lat="43.9433802" lon="7.8557039"><ele>453.1428571428571</ele><time>2026-04-26T12:10:02.343Z</time></trkpt><trkpt lat="43.943415" lon="7.8557833"><ele>450.2857142857142</ele><time>2026-04-26T12:10:03.343Z</time></trkpt><trkpt lat="43.943454" lon="7.8558805"><ele>447.42857142857144</ele><time>2026-04-26T12:10:04.341Z</time></trkpt><trkpt lat="43.9434877" lon="7.8559905"><ele>444.57142857142856</ele><time>2026-04-26T12:10:05.343Z</time></trkpt><trkpt lat="43.9435484" lon="7.856048"><ele>441.7142857142857</ele><time>2026-04-26T12:10:06.341Z</time></trkpt><trkpt lat="43.9436039" lon="7.8560983"><ele>438.8571428571429</ele><time>2026-04-26T12:10:07.343Z</time></trkpt><trkpt lat="43.9436702" lon="7.8561104"><ele>436.0</ele><time>2026-04-26T12:10:08.342Z</time></trkpt><trkpt lat="43.9437706" lon="7.8560993"><ele>436.0</ele><time>2026-04-26T12:10:09.342Z</time></trkpt><trkpt lat="43.9438739" lon="7.8561007"><ele>436.0</ele><time>2026-04-26T12:10:10.341Z</time></trkpt><trkpt lat="43.9439795" lon="7.8561154"><ele>436.0</ele><time>2026-04-26T12:10:11.342Z</time></trkpt><trkpt lat="43.9440924" lon="7.8561495"><ele>436.0</ele><time>2026-04-26T12:10:12.341Z</time></trkpt><trkpt lat="43.9442022" lon="7.8561932"><ele>436.0</ele><time>2026-04-26T12:10:13.341Z</time></trkpt><trkpt lat="43.9443098" lon="7.8562293"><ele>442.8</ele><time>2026-04-26T12:10:14.342Z</time></trkpt><trkpt lat="43.9444127" lon="7.8562701"><ele>449.6</ele><time>2026-04-26T12:10:15.342Z</time></trkpt><trkpt lat="43.9444986" lon="7.8563408"><ele>456.4</ele><time>2026-04-26T12:10:16.343Z</time></trkpt><trkpt lat="43.9445547" lon="7.8564517"><ele>463.2</ele><time>2026-04-26T12:10:17.342Z</time></trkpt><trkpt lat="43.944609" lon="7.8565615"><ele>470.0</ele><time>2026-04-26T12:10:18.342Z</time></trkpt><trkpt lat="43.9446539" lon="7.8566638"><ele>469.99999999999994</ele><time>2026-04-26T12:10:19.342Z</time></trkpt><trkpt lat="43.944721" lon="7.8567103"><ele>470.0</ele><time>2026-04-26T12:10:20.343Z</time></trkpt><trkpt lat="43.9447937" lon="7.8567418"><ele>470.0</ele><time>2026-04-26T12:10:21.343Z</time></trkpt><trkpt lat="43.9448791" lon="7.8567391"><ele>470.0</ele><time>2026-04-26T12:10:22.342Z</time></trkpt><trkpt lat="43.9449743" lon="7.8567037"><ele>469.99999999999994</ele><time>2026-04-26T12:10:23.342Z</time></trkpt><trkpt lat="43.945067" lon="7.8566797"><ele>470.0</ele><time>2026-04-26T12:10:24.342Z</time></trkpt><trkpt lat="43.9451622" lon="7.8566476"><ele>472.71428571428567</ele><time>2026-04-26T12:10:25.342Z</time></trkpt><trkpt lat="43.9452452" lon="7.8566166"><ele>475.4285714285714</ele><time>2026-04-26T12:10:26.343Z</time></trkpt><trkpt lat="43.9453179" lon="7.8566286"><ele>478.1428571428571</ele><time>2026-04-26T12:10:27.343Z</time></trkpt><trkpt lat="43.9453774" lon="7.8566747"><ele>480.8571428571429</ele><time>2026-04-26T12:10:28.343Z</time></trkpt><trkpt lat="43.9454281" lon="7.8567423"><ele>483.5714285714286</ele><time>2026-04-26T12:10:29.344Z</time></trkpt><trkpt lat="43.945431" lon="7.8568422"><ele>486.28571428571433</ele><time>2026-04-26T12:10:30.343Z</time></trkpt><trkpt lat="43.945413" lon="7.8569316"><ele>489.0</ele><time>2026-04-26T12:10:31.343Z</time></trkpt><trkpt lat="43.9453617" lon="7.8570266"><ele>489.0</ele><time>2026-04-26T12:10:32.343Z</time></trkpt><trkpt lat="43.9453136" lon="7.857133"><ele>489.0</ele><time>2026-04-26T12:10:33.342Z</time></trkpt><trkpt lat="43.9453003" lon="7.8572489"><ele>489.0</ele><time>2026-04-26T12:10:34.343Z</time></trkpt><trkpt lat="43.9453278" lon="7.8573538"><ele>489.0</ele><time>2026-04-26T12:10:35.343Z</time></trkpt><trkpt lat="43.9453859" lon="7.8574345"><ele>489.0</ele><time>2026-04-26T12:10:36.342Z</time></trkpt><trkpt lat="43.9454725" lon="7.8574924"><ele>489.0</ele><time>2026-04-26T12:10:37.342Z</time></trkpt><trkpt lat="43.9455698" lon="7.8575536"><ele>495.33333333333337</ele><time>2026-04-26T12:10:38.342Z</time></trkpt><trkpt lat="43.9456994" lon="7.8576363"><ele>501.6666666666667</ele><time>2026-04-26T12:10:39.342Z</time></trkpt><trkpt lat="43.9458291" lon="7.8577387"><ele>508.0</ele><time>2026-04-26T12:10:40.343Z</time></trkpt><trkpt lat="43.9459584" lon="7.8578814"><ele>508.0</ele><time>2026-04-26T12:10:41.342Z</time></trkpt><trkpt lat="43.9460721" lon="7.8580439"><ele>508.0</ele><time>2026-04-26T12:10:42.342Z</time></trkpt><trkpt lat="43.94617" lon="7.8581983"><ele>508.0</ele><time>2026-04-26T12:10:43.342Z</time></trkpt><trkpt lat="43.9462495" lon="7.8583555"><ele>503.4</ele><time>2026-04-26T12:10:44.342Z</time></trkpt><trkpt lat="43.9463049" lon="7.8585126"><ele>498.79999999999995</ele><time>2026-04-26T12:10:45.342Z</time></trkpt><trkpt lat="43.9463274" lon="7.8586726"><ele>494.2</ele><time>2026-04-26T12:10:46.343Z</time></trkpt><trkpt lat="43.9463402" lon="7.8588156"><ele>489.6</ele><time>2026-04-26T12:10:47.343Z</time></trkpt><trkpt lat="43.9463733" lon="7.8589305"><ele>485.0</ele><time>2026-04-26T12:10:48.342Z</time></trkpt><trkpt lat="43.9464371" lon="7.8590093"><ele>485.0</ele><time>2026-04-26T12:10:49.343Z</time></trkpt><trkpt lat="43.9465252" lon="7.8590623"><ele>485.0</ele><time>2026-04-26T12:10:50.343Z</time></trkpt><trkpt lat="43.9466387" lon="7.8591043"><ele>485.0</ele><time>2026-04-26T12:10:51.342Z</time></trkpt><trkpt lat="43.9467514" lon="7.8591213"><ele>485.0</ele><time>2026-04-26T12:10:52.342Z</time></trkpt><trkpt lat="43.9468741" lon="7.8591207"><ele>485.6</ele><time>2026-04-26T12:10:53.342Z</time></trkpt><trkpt lat="43.9469917" lon="7.8591105"><ele>486.2</ele><time>2026-04-26T12:10:54.343Z</time></trkpt><trkpt lat="43.9471024" lon="7.859125"><ele>486.79999999999995</ele><time>2026-04-26T12:10:55.343Z</time></trkpt><trkpt lat="43.9471932" lon="7.8591791"><ele>487.4</ele><time>2026-04-26T12:10:56.343Z</time></trkpt><trkpt lat="43.9472948" lon="7.859231"><ele>488.0</ele><time>2026-04-26T12:10:57.344Z</time></trkpt><trkpt lat="43.9473874" lon="7.8593703"><ele>488.0</ele><time>2026-04-26T12:10:58.342Z</time></trkpt><trkpt lat="43.9474891" lon="7.8595162"><ele>488.0</ele><time>2026-04-26T12:10:59.341Z</time></trkpt><trkpt lat="43.9475808" lon="7.8596705"><ele>488.0</ele><time>2026-04-26T12:11:00.342Z</time></trkpt><trkpt lat="43.9476592" lon="7.8598199"><ele>488.0</ele><time>2026-04-26T12:11:01.341Z</time></trkpt><trkpt lat="43.9477167" lon="7.8599668"><ele>500.75</ele><time>2026-04-26T12:11:02.342Z</time></trkpt><trkpt lat="43.947762" lon="7.8601339"><ele>513.5</ele><time>2026-04-26T12:11:03.343Z</time></trkpt><trkpt lat="43.947802" lon="7.860307"><ele>526.25</ele><time>2026-04-26T12:11:04.341Z</time></trkpt><trkpt lat="43.9478477" lon="7.8605027"><ele>539.0</ele><time>2026-04-26T12:11:05.342Z</time></trkpt><trkpt lat="43.9478938" lon="7.8607004"><ele>539.0</ele><time>2026-04-26T12:11:06.342Z</time></trkpt><trkpt lat="43.9479251" lon="7.8608815"><ele>539.0</ele><time>2026-04-26T12:11:07.342Z</time></trkpt><trkpt lat="43.9479411" lon="7.8610624"><ele>539.0</ele><time>2026-04-26T12:11:08.342Z</time></trkpt><trkpt lat="43.9479254" lon="7.8612691"><ele>539.0</ele><time>2026-04-26T12:11:09.343Z</time></trkpt><trkpt lat="43.947899" lon="7.8614627"><ele>538.25</ele><time>2026-04-26T12:11:10.343Z</time></trkpt><trkpt lat="43.9478878" lon="7.8616415"><ele>537.5</ele><time>2026-04-26T12:11:11.343Z</time></trkpt><trkpt lat="43.9478847" lon="7.8618193"><ele>536.75</ele><time>2026-04-26T12:11:12.344Z</time></trkpt><trkpt lat="43.9478983" lon="7.8619963"><ele>536.0</ele><time>2026-04-26T12:11:13.343Z</time></trkpt><trkpt lat="43.9479219" lon="7.8621494"><ele>533.0</ele><time>2026-04-26T12:11:14.341Z</time></trkpt><trkpt lat="43.9479718" lon="7.8622903"><ele>530.0</ele><time>2026-04-26T12:11:15.344Z</time></trkpt><trkpt lat="43.9480504" lon="7.8624349"><ele>527.0</ele><time>2026-04-26T12:11:16.343Z</time></trkpt><trkpt lat="43.9481318" lon="7.8625946"><ele>524.0</ele><time>2026-04-26T12:11:17.343Z</time></trkpt><trkpt lat="43.9482062" lon="7.8627509"><ele>519.25</ele><time>2026-04-26T12:11:18.342Z</time></trkpt><trkpt lat="43.9482678" lon="7.8629155"><ele>514.5</ele><time>2026-04-26T12:11:19.343Z</time></trkpt><trkpt lat="43.948326" lon="7.8630723"><ele>509.75</ele><time>2026-04-26T12:11:20.343Z</time></trkpt><trkpt lat="43.9483856" lon="7.8632032"><ele>505.0</ele><time>2026-04-26T12:11:21.343Z</time></trkpt><trkpt lat="43.9484561" lon="7.8633061"><ele>506.0</ele><time>2026-04-26T12:11:22.343Z</time></trkpt><trkpt lat="43.948542" lon="7.8633771"><ele>507.0</ele><time>2026-04-26T12:11:23.342Z</time></trkpt><trkpt lat="43.9486564" lon="7.8634357"><ele>508.0</ele><time>2026-04-26T12:11:24.342Z</time></trkpt><trkpt lat="43.9487826" lon="7.8635091"><ele>509.0</ele><time>2026-04-26T12:11:25.343Z</time></trkpt><trkpt lat="43.9489081" lon="7.8636033"><ele>509.0</ele><time>2026-04-26T12:11:26.342Z</time></trkpt><trkpt lat="43.9490235" lon="7.863712"><ele>509.0</ele><time>2026-04-26T12:11:27.342Z</time></trkpt><trkpt lat="43.9491375" lon="7.8638234"><ele>509.0</ele><time>2026-04-26T12:11:28.344Z</time></trkpt><trkpt lat="43.9492499" lon="7.8639278"><ele>509.0</ele><time>2026-04-26T12:11:29.342Z</time></trkpt><trkpt lat="43.9493615" lon="7.8640163"><ele>512.4</ele><time>2026-04-26T12:11:30.342Z</time></trkpt><trkpt lat="43.949461" lon="7.8640939"><ele>515.8</ele><time>2026-04-26T12:11:31.342Z</time></trkpt><trkpt lat="43.9495526" lon="7.8641584"><ele>519.2</ele><time>2026-04-26T12:11:32.342Z</time></trkpt><trkpt lat="43.9496372" lon="7.8641945"><ele>522.6</ele><time>2026-04-26T12:11:33.342Z</time></trkpt><trkpt lat="43.9497292" lon="7.8641877"><ele>526.0</ele><time>2026-04-26T12:11:34.342Z</time></trkpt><trkpt lat="43.9498295" lon="7.8641292"><ele>526.0</ele><time>2026-04-26T12:11:35.342Z</time></trkpt><trkpt lat="43.9499344" lon="7.8640447"><ele>526.0</ele><time>2026-04-26T12:11:36.343Z</time></trkpt><trkpt lat="43.9500571" lon="7.8639464"><ele>526.0</ele><time>2026-04-26T12:11:37.344Z</time></trkpt><trkpt lat="43.9501774" lon="7.8638426"><ele>526.0</ele><time>2026-04-26T12:11:38.343Z</time></trkpt><trkpt lat="43.9502802" lon="7.863746"><ele>529.8333333333334</ele><time>2026-04-26T12:11:39.343Z</time></trkpt><trkpt lat="43.9503816" lon="7.863665"><ele>533.6666666666667</ele><time>2026-04-26T12:11:40.343Z</time></trkpt><trkpt lat="43.9504707" lon="7.8636323"><ele>537.5</ele><time>2026-04-26T12:11:41.342Z</time></trkpt><trkpt lat="43.9505517" lon="7.8636488"><ele>541.3333333333334</ele><time>2026-04-26T12:11:42.343Z</time></trkpt><trkpt lat="43.9506121" lon="7.8637033"><ele>545.1666666666666</ele><time>2026-04-26T12:11:43.343Z</time></trkpt><trkpt lat="43.9506457" lon="7.8638062"><ele>549.0</ele><time>2026-04-26T12:11:44.342Z</time></trkpt><trkpt lat="43.9506578" lon="7.8639273"><ele>549.0</ele><time>2026-04-26T12:11:45.343Z</time></trkpt><trkpt lat="43.9506443" lon="7.8640843"><ele>549.0</ele><time>2026-04-26T12:11:46.343Z</time></trkpt><trkpt lat="43.9506309" lon="7.8642533"><ele>549.0</ele><time>2026-04-26T12:11:47.344Z</time></trkpt><trkpt lat="43.9506163" lon="7.8644389"><ele>549.0</ele><time>2026-04-26T12:11:48.342Z</time></trkpt><trkpt lat="43.9506193" lon="7.8646077"><ele>546.0</ele><time>2026-04-26T12:11:49.342Z</time></trkpt><trkpt lat="43.9506472" lon="7.8647714"><ele>543.0</ele><time>2026-04-26T12:11:50.342Z</time></trkpt><trkpt lat="43.9506922" lon="7.86492"><ele>540.0</ele><time>2026-04-26T12:11:51.343Z</time></trkpt><trkpt lat="43.9507424" lon="7.8650497"><ele>537.0</ele><time>2026-04-26T12:11:52.343Z</time></trkpt><trkpt lat="43.9508386" lon="7.8651322"><ele>537.25</ele><time>2026-04-26T12:11:53.342Z</time></trkpt><trkpt lat="43.9509281" lon="7.8652126"><ele>537.5</ele><time>2026-04-26T12:11:54.342Z</time></trkpt><trkpt lat="43.9510874" lon="7.8652456"><ele>537.75</ele><time>2026-04-26T12:11:55.343Z</time></trkpt><trkpt lat="43.9512341" lon="7.8652898"><ele>538.0</ele><time>2026-04-26T12:11:56.341Z</time></trkpt><trkpt lat="43.9513882" lon="7.8653102"><ele>538.0</ele><time>2026-04-26T12:11:57.343Z</time></trkpt><trkpt lat="43.9515357" lon="7.8653474"><ele>538.0</ele><time>2026-04-26T12:11:58.343Z</time></trkpt><trkpt lat="43.9516738" lon="7.865413"><ele>538.0</ele><time>2026-04-26T12:11:59.344Z</time></trkpt><trkpt lat="43.9518058" lon="7.8655034"><ele>538.0</ele><time>2026-04-26T12:12:00.344Z</time></trkpt><trkpt lat="43.9519214" lon="7.8656055"><ele>544.75</ele><time>2026-04-26T12:12:01.342Z</time></trkpt><trkpt lat="43.9520449" lon="7.8656951"><ele>551.5</ele><time>2026-04-26T12:12:02.343Z</time></trkpt><trkpt lat="43.9521835" lon="7.865769"><ele>558.25</ele><time>2026-04-26T12:12:03.342Z</time></trkpt><trkpt lat="43.9523357" lon="7.8658199"><ele>565.0</ele><time>2026-04-26T12:12:04.342Z</time></trkpt><trkpt lat="43.9524824" lon="7.865842"><ele>562.0</ele><time>2026-04-26T12:12:05.342Z</time></trkpt><trkpt lat="43.952614" lon="7.8658525"><ele>559.0</ele><time>2026-04-26T12:12:06.342Z</time></trkpt><trkpt lat="43.9527287" lon="7.8658776"><ele>556.0</ele><time>2026-04-26T12:12:07.342Z</time></trkpt><trkpt lat="43.9528369" lon="7.8659367"><ele>553.0</ele><time>2026-04-26T12:12:08.342Z</time></trkpt><trkpt lat="43.9529391" lon="7.8660366"><ele>553.0</ele><time>2026-04-26T12:12:09.343Z</time></trkpt><trkpt lat="43.953013" lon="7.866156"><ele>553.0</ele><time>2026-04-26T12:12:10.343Z</time></trkpt><trkpt lat="43.953088" lon="7.8662484"><ele>553.0</ele><time>2026-04-26T12:12:11.342Z</time></trkpt><trkpt lat="43.9531712" lon="7.8662785"><ele>553.0</ele><time>2026-04-26T12:12:12.342Z</time></trkpt><trkpt lat="43.9532432" lon="7.866266"><ele>553.0</ele><time>2026-04-26T12:12:13.343Z</time></trkpt><trkpt lat="43.9533125" lon="7.8661899"><ele>556.8</ele><time>2026-04-26T12:12:14.342Z</time></trkpt><trkpt lat="43.9533852" lon="7.8660938"><ele>560.5999999999999</ele><time>2026-04-26T12:12:15.342Z</time></trkpt><trkpt lat="43.9534606" lon="7.865988"><ele>564.4000000000001</ele><time>2026-04-26T12:12:16.343Z</time></trkpt><trkpt lat="43.9535449" lon="7.8659218"><ele>568.2</ele><time>2026-04-26T12:12:17.342Z</time></trkpt><trkpt lat="43.9536314" lon="7.8659135"><ele>572.0</ele><time>2026-04-26T12:12:18.342Z</time></trkpt><trkpt lat="43.9537315" lon="7.8659302"><ele>572.0</ele><time>2026-04-26T12:12:19.343Z</time></trkpt><trkpt lat="43.9538337" lon="7.8659588"><ele>572.0</ele><time>2026-04-26T12:12:20.343Z</time></trkpt><trkpt lat="43.9539375" lon="7.8659833"><ele>572.0</ele><time>2026-04-26T12:12:21.342Z</time></trkpt><trkpt lat="43.954031" lon="7.8660231"><ele>572.0</ele><time>2026-04-26T12:12:22.342Z</time></trkpt><trkpt lat="43.9541198" lon="7.8660726"><ele>572.0</ele><time>2026-04-26T12:12:23.343Z</time></trkpt><trkpt lat="43.9541959" lon="7.8661505"><ele>578.6666666666666</ele><time>2026-04-26T12:12:24.342Z</time></trkpt><trkpt lat="43.9542588" lon="7.8662627"><ele>585.3333333333333</ele><time>2026-04-26T12:12:25.343Z</time></trkpt><trkpt lat="43.9542969" lon="7.866389"><ele>592.0</ele><time>2026-04-26T12:12:26.343Z</time></trkpt><trkpt lat="43.95432" lon="7.8664941"><ele>598.6666666666666</ele><time>2026-04-26T12:12:27.342Z</time></trkpt><trkpt lat="43.9543326" lon="7.8665849"><ele>605.3333333333334</ele><time>2026-04-26T12:12:28.343Z</time></trkpt><trkpt lat="43.9543448" lon="7.8667055"><ele>612.0</ele><time>2026-04-26T12:12:30.342Z</time></trkpt><trkpt lat="43.9543496" lon="7.8668052"><ele>612.0</ele><time>2026-04-26T12:12:59.342Z</time></trkpt><trkpt lat="43.954362" lon="7.8669499"><ele>612.0</ele><time>2026-04-26T12:13:02.342Z</time></trkpt><trkpt lat="43.9543565" lon="7.8671021"><ele>612.0</ele><time>2026-04-26T12:13:04.343Z</time></trkpt><trkpt lat="43.954361" lon="7.867267"><ele>612.0</ele><time>2026-04-26T12:13:06.342Z</time></trkpt><trkpt lat="43.9543713" lon="7.8674595"><ele>612.0</ele><time>2026-04-26T12:13:08.343Z</time></trkpt><trkpt lat="43.9543825" lon="7.8675656"><ele>612.0</ele><time>2026-04-26T12:13:09.342Z</time></trkpt><trkpt lat="43.9543918" lon="7.8676747"><ele>612.0</ele><time>2026-04-26T12:13:10.345Z</time></trkpt><trkpt lat="43.9544096" lon="7.8677858"><ele>612.0</ele><time>2026-04-26T12:13:11.342Z</time></trkpt><trkpt lat="43.9544245" lon="7.867894"><ele>612.0</ele><time>2026-04-26T12:13:12.342Z</time></trkpt><trkpt lat="43.9544371" lon="7.868002"><ele>612.0</ele><time>2026-04-26T12:13:13.343Z</time></trkpt><trkpt lat="43.9544502" lon="7.8680972"><ele>607.6666666666666</ele><time>2026-04-26T12:13:14.343Z</time></trkpt><trkpt lat="43.9544627" lon="7.868204"><ele>603.3333333333334</ele><time>2026-04-26T12:13:15.343Z</time></trkpt><trkpt lat="43.954479" lon="7.8682981"><ele>599.0</ele><time>2026-04-26T12:13:16.343Z</time></trkpt><trkpt lat="43.9545199" lon="7.8683692"><ele>594.6666666666667</ele><time>2026-04-26T12:13:17.344Z</time></trkpt><trkpt lat="43.9545683" lon="7.8684253"><ele>590.3333333333334</ele><time>2026-04-26T12:13:18.342Z</time></trkpt><trkpt lat="43.954631" lon="7.8684673"><ele>586.0</ele><time>2026-04-26T12:13:19.342Z</time></trkpt><trkpt lat="43.9547273" lon="7.8685428"><ele>582.8</ele><time>2026-04-26T12:13:21.342Z</time></trkpt><trkpt lat="43.9547796" lon="7.868663"><ele>579.6</ele><time>2026-04-26T12:13:23.343Z</time></trkpt><trkpt lat="43.954749" lon="7.8687859"><ele>576.4</ele><time>2026-04-26T12:13:25.342Z</time></trkpt><trkpt lat="43.954689" lon="7.8688913"><ele>573.2</ele><time>2026-04-26T12:13:27.344Z</time></trkpt><trkpt lat="43.9546142" lon="7.8689939"><ele>570.0</ele><time>2026-04-26T12:13:29.342Z</time></trkpt><trkpt lat="43.9545238" lon="7.8690841"><ele>570.0</ele><time>2026-04-26T12:13:31.344Z</time></trkpt><trkpt lat="43.9544031" lon="7.8691413"><ele>570.0</ele><time>2026-04-26T12:13:33.343Z</time></trkpt><trkpt lat="43.9543403" lon="7.8691723"><ele>570.0</ele><time>2026-04-26T12:13:34.342Z</time></trkpt><trkpt lat="43.954279" lon="7.8692026"><ele>570.0</ele><time>2026-04-26T12:13:35.342Z</time></trkpt><trkpt lat="43.9542129" lon="7.8692294"><ele>570.0</ele><time>2026-04-26T12:13:36.343Z</time></trkpt><trkpt lat="43.9541467" lon="7.8692599"><ele>570.0</ele><time>2026-04-26T12:13:37.342Z</time></trkpt><trkpt lat="43.9540803" lon="7.8692974"><ele>573.1666666666666</ele><time>2026-04-26T12:13:38.342Z</time></trkpt><trkpt lat="43.9540176" lon="7.8693383"><ele>576.3333333333334</ele><time>2026-04-26T12:13:39.343Z</time></trkpt><trkpt lat="43.9539089" lon="7.8694491"><ele>579.5</ele><time>2026-04-26T12:13:41.343Z</time></trkpt><trkpt lat="43.9538734" lon="7.8695253"><ele>582.6666666666667</ele><time>2026-04-26T12:13:42.342Z</time></trkpt><trkpt lat="43.9538221" lon="7.8696332"><ele>585.8333333333334</ele><time>2026-04-26T12:13:44.343Z</time></trkpt><trkpt lat="43.9537718" lon="7.8696873"><ele>589.0</ele><time>2026-04-26T12:13:45.343Z</time></trkpt><trkpt lat="43.9536762" lon="7.8697041"><ele>589.0</ele><time>2026-04-26T12:13:47.343Z</time></trkpt><trkpt lat="43.953582" lon="7.8696315"><ele>589.0</ele><time>2026-04-26T12:13:49.342Z</time></trkpt><trkpt lat="43.9535752" lon="7.8695438"><ele>589.0</ele><time>2026-04-26T12:13:50.343Z</time></trkpt><trkpt lat="43.9535744" lon="7.8693691"><ele>589.0</ele><time>2026-04-26T12:13:52.342Z</time></trkpt><trkpt lat="43.9535754" lon="7.8692709"><ele>589.0</ele><time>2026-04-26T12:13:53.342Z</time></trkpt><trkpt lat="43.9535729" lon="7.8691666"><ele>589.0</ele><time>2026-04-26T12:13:54.342Z</time></trkpt><trkpt lat="43.9535708" lon="7.8690597"><ele>586.8333333333334</ele><time>2026-04-26T12:13:55.343Z</time></trkpt><trkpt lat="43.9535868" lon="7.8689651"><ele>584.6666666666667</ele><time>2026-04-26T12:13:56.342Z</time></trkpt><trkpt lat="43.953589" lon="7.8688706"><ele>582.5</ele><time>2026-04-26T12:13:57.343Z</time></trkpt><trkpt lat="43.9535258" lon="7.8687399"><ele>580.3333333333334</ele><time>2026-04-26T12:13:59.343Z</time></trkpt><trkpt lat="43.9534591" lon="7.8687443"><ele>578.1666666666666</ele><time>2026-04-26T12:14:00.344Z</time></trkpt><trkpt lat="43.9533455" lon="7.8688094"><ele>576.0</ele><time>2026-04-26T12:14:02.342Z</time></trkpt><trkpt lat="43.9532834" lon="7.8688697"><ele>576.0</ele><time>2026-04-26T12:14:03.343Z</time></trkpt><trkpt lat="43.9532233" lon="7.8689316"><ele>576.0</ele><time>2026-04-26T12:14:04.343Z</time></trkpt><trkpt lat="43.9531661" lon="7.8690013"><ele>576.0</ele><time>2026-04-26T12:14:05.342Z</time></trkpt><trkpt lat="43.9531203" lon="7.8690646"><ele>576.0</ele><time>2026-04-26T12:14:06.342Z</time></trkpt><trkpt lat="43.9530755" lon="7.869145"><ele>576.0</ele><time>2026-04-26T12:14:07.343Z</time></trkpt><trkpt lat="43.9530146" lon="7.8692976"><ele>576.0</ele><time>2026-04-26T12:14:09.343Z</time></trkpt><trkpt lat="43.9529732" lon="7.8693789"><ele>577.4285714285714</ele><time>2026-04-26T12:14:10.343Z</time></trkpt><trkpt lat="43.9529331" lon="7.8694776"><ele>578.8571428571429</ele><time>2026-04-26T12:14:11.343Z</time></trkpt><trkpt lat="43.9528898" lon="7.8695567"><ele>580.2857142857142</ele><time>2026-04-26T12:14:12.343Z</time></trkpt><trkpt lat="43.9528281" lon="7.8696119"><ele>581.7142857142858</ele><time>2026-04-26T12:14:13.343Z</time></trkpt><trkpt lat="43.9527767" lon="7.8696637"><ele>583.1428571428571</ele><time>2026-04-26T12:14:14.342Z</time></trkpt><trkpt lat="43.9527714" lon="7.8697711"><ele>584.5714285714286</ele><time>2026-04-26T12:14:16.343Z</time></trkpt><trkpt lat="43.9528361" lon="7.8697969"><ele>586.0</ele><time>2026-04-26T12:14:18.344Z</time></trkpt><trkpt lat="43.9529353" lon="7.8697187"><ele>586.0</ele><time>2026-04-26T12:14:20.343Z</time></trkpt><trkpt lat="43.9529973" lon="7.8696468"><ele>586.0</ele><time>2026-04-26T12:14:21.342Z</time></trkpt><trkpt lat="43.953047" lon="7.869563"><ele>586.0</ele><time>2026-04-26T12:14:22.342Z</time></trkpt><trkpt lat="43.9530862" lon="7.8694899"><ele>586.0</ele><time>2026-04-26T12:14:23.342Z</time></trkpt><trkpt lat="43.9531742" lon="7.8694596"><ele>586.0</ele><time>2026-04-26T12:14:25.342Z</time></trkpt><trkpt lat="43.9531863" lon="7.8695507"><ele>586.0</ele><time>2026-04-26T12:14:27.343Z</time></trkpt><trkpt lat="43.9531514" lon="7.8696788"><ele>586.0</ele><time>2026-04-26T12:14:29.342Z</time></trkpt><trkpt lat="43.9530811" lon="7.8697764"><ele>586.0</ele><time>2026-04-26T12:14:31.342Z</time></trkpt><trkpt lat="43.9529898" lon="7.8698564"><ele>586.0</ele><time>2026-04-26T12:14:33.344Z</time></trkpt><trkpt lat="43.9529415" lon="7.8699195"><ele>586.0</ele><time>2026-04-26T12:14:34.343Z</time></trkpt><trkpt lat="43.9528911" lon="7.8699795"><ele>586.0</ele><time>2026-04-26T12:14:35.343Z</time></trkpt><trkpt lat="43.9528306" lon="7.8700415"><ele>586.0</ele><time>2026-04-26T12:14:36.342Z</time></trkpt><trkpt lat="43.952777" lon="7.8701151"><ele>588.0</ele><time>2026-04-26T12:14:37.344Z</time></trkpt><trkpt lat="43.9527208" lon="7.8701783"><ele>590.0</ele><time>2026-04-26T12:14:38.342Z</time></trkpt><trkpt lat="43.9526556" lon="7.8702226"><ele>592.0</ele><time>2026-04-26T12:14:39.343Z</time></trkpt><trkpt lat="43.952596" lon="7.87026"><ele>594.0</ele><time>2026-04-26T12:14:40.343Z</time></trkpt><trkpt lat="43.9525295" lon="7.8703158"><ele>596.0</ele><time>2026-04-26T12:14:41.343Z</time></trkpt><trkpt lat="43.9524464" lon="7.8703671"><ele>598.0</ele><time>2026-04-26T12:14:42.342Z</time></trkpt><trkpt lat="43.9523568" lon="7.8704175"><ele>602.8</ele><time>2026-04-26T12:14:43.344Z</time></trkpt><trkpt lat="43.9522677" lon="7.8704776"><ele>607.5999999999999</ele><time>2026-04-26T12:14:44.344Z</time></trkpt><trkpt lat="43.9521833" lon="7.8705314"><ele>612.4000000000001</ele><time>2026-04-26T12:14:45.343Z</time></trkpt><trkpt lat="43.9521021" lon="7.8705912"><ele>617.2</ele><time>2026-04-26T12:14:46.343Z</time></trkpt><trkpt lat="43.9520445" lon="7.8706719"><ele>622.0</ele><time>2026-04-26T12:14:47.342Z</time></trkpt><trkpt lat="43.9519826" lon="7.8707545"><ele>622.0</ele><time>2026-04-26T12:14:48.344Z</time></trkpt><trkpt lat="43.9519171" lon="7.8708525"><ele>622.0</ele><time>2026-04-26T12:14:49.344Z</time></trkpt><trkpt lat="43.951873" lon="7.8709439"><ele>622.0</ele><time>2026-04-26T12:14:50.343Z</time></trkpt><trkpt lat="43.9518212" lon="7.8710768"><ele>622.0</ele><time>2026-04-26T12:14:52.343Z</time></trkpt><trkpt lat="43.9518686" lon="7.8711532"><ele>622.0</ele><time>2026-04-26T12:14:54.344Z</time></trkpt><trkpt lat="43.9519234" lon="7.8710938"><ele>622.0</ele><time>2026-04-26T12:14:56.342Z</time></trkpt><trkpt lat="43.9520181" lon="7.8709634"><ele>622.0</ele><time>2026-04-26T12:14:58.343Z</time></trkpt><trkpt lat="43.9520832" lon="7.8709174"><ele>622.0</ele><time>2026-04-26T12:14:59.343Z</time></trkpt><trkpt lat="43.9521591" lon="7.8708763"><ele>622.0</ele><time>2026-04-26T12:15:00.342Z</time></trkpt><trkpt lat="43.9522306" lon="7.8708376"><ele>622.0</ele><time>2026-04-26T12:15:01.343Z</time></trkpt><trkpt lat="43.9523163" lon="7.8708345"><ele>622.0</ele><time>2026-04-26T12:15:02.343Z</time></trkpt><trkpt lat="43.9523913" lon="7.8708247"><ele>622.0</ele><time>2026-04-26T12:15:03.343Z</time></trkpt><trkpt lat="43.9524808" lon="7.8708642"><ele>626.5</ele><time>2026-04-26T12:15:05.343Z</time></trkpt><trkpt lat="43.9524568" lon="7.8709679"><ele>631.0</ele><time>2026-04-26T12:15:08.345Z</time></trkpt><trkpt lat="43.9523735" lon="7.8709666"><ele>635.5</ele><time>2026-04-26T12:15:10.343Z</time></trkpt><trkpt lat="43.952295" lon="7.8710234"><ele>640.0</ele><time>2026-04-26T12:15:12.343Z</time></trkpt><trkpt lat="43.9522339" lon="7.8710851"><ele>644.5</ele><time>2026-04-26T12:15:14.342Z</time></trkpt><trkpt lat="43.9521907" lon="7.8711584"><ele>649.0</ele><time>2026-04-26T12:15:16.343Z</time></trkpt><trkpt lat="43.9521388" lon="7.8712522"><ele>649.0</ele><time>2026-04-26T12:15:18.344Z</time></trkpt><trkpt lat="43.95208" lon="7.8713714"><ele>649.0</ele><time>2026-04-26T12:15:20.343Z</time></trkpt><trkpt lat="43.9520323" lon="7.8714937"><ele>649.0</ele><time>2026-04-26T12:15:22.342Z</time></trkpt><trkpt lat="43.9519839" lon="7.8716453"><ele>649.0</ele><time>2026-04-26T12:15:24.343Z</time></trkpt><trkpt lat="43.9519622" lon="7.8717386"><ele>649.0</ele><time>2026-04-26T12:15:25.342Z</time></trkpt><trkpt lat="43.9519422" lon="7.8718323"><ele>651.8000000000001</ele><time>2026-04-26T12:15:26.343Z</time></trkpt><trkpt lat="43.9519123" lon="7.8719268"><ele>654.6</ele><time>2026-04-26T12:15:27.343Z</time></trkpt><trkpt lat="43.9518639" lon="7.8720422"><ele>657.4</ele><time>2026-04-26T12:15:28.343Z</time></trkpt><trkpt lat="43.9518113" lon="7.8721415"><ele>660.2</ele><time>2026-04-26T12:15:29.343Z</time></trkpt><trkpt lat="43.9517499" lon="7.8722483"><ele>663.0</ele><time>2026-04-26T12:15:30.344Z</time></trkpt><trkpt lat="43.951667" lon="7.8723479"><ele>664.0</ele><time>2026-04-26T12:15:31.343Z</time></trkpt><trkpt lat="43.9515983" lon="7.8724496"><ele>665.0</ele><time>2026-04-26T12:15:32.344Z</time></trkpt><trkpt lat="43.9515241" lon="7.8725453"><ele>666.0</ele><time>2026-04-26T12:15:33.342Z</time></trkpt><trkpt lat="43.9514509" lon="7.872626"><ele>667.0</ele><time>2026-04-26T12:15:34.344Z</time></trkpt><trkpt lat="43.9513806" lon="7.8726697"><ele>668.0</ele><time>2026-04-26T12:15:35.345Z</time></trkpt><trkpt lat="43.9512907" lon="7.8726253"><ele>668.0</ele><time>2026-04-26T12:15:37.344Z</time></trkpt><trkpt lat="43.9512599" lon="7.8725426"><ele>668.0</ele><time>2026-04-26T12:15:39.343Z</time></trkpt><trkpt lat="43.9512782" lon="7.8724494"><ele>668.0</ele><time>2026-04-26T12:15:41.343Z</time></trkpt><trkpt lat="43.9513153" lon="7.8723657"><ele>668.0</ele><time>2026-04-26T12:15:42.343Z</time></trkpt><trkpt lat="43.9513542" lon="7.8722869"><ele>668.0</ele><time>2026-04-26T12:15:43.344Z</time></trkpt><trkpt lat="43.9513816" lon="7.8721956"><ele>668.0</ele><time>2026-04-26T12:15:44.344Z</time></trkpt><trkpt lat="43.9513767" lon="7.8720169"><ele>668.0</ele><time>2026-04-26T12:15:46.342Z</time></trkpt><trkpt lat="43.9513401" lon="7.8719218"><ele>668.0</ele><time>2026-04-26T12:15:47.344Z</time></trkpt><trkpt lat="43.9512963" lon="7.8718246"><ele>668.0</ele><time>2026-04-26T12:15:48.344Z</time></trkpt><trkpt lat="43.9512361" lon="7.8717302"><ele>668.0</ele><time>2026-04-26T12:15:49.342Z</time></trkpt><trkpt lat="43.9511883" lon="7.8716457"><ele>668.0</ele><time>2026-04-26T12:15:50.343Z</time></trkpt><trkpt lat="43.9511199" lon="7.8715718"><ele>668.0</ele><time>2026-04-26T12:15:51.342Z</time></trkpt><trkpt lat="43.9510541" lon="7.8715017"><ele>664.8333333333333</ele><time>2026-04-26T12:15:52.343Z</time></trkpt><trkpt lat="43.9509785" lon="7.8714666"><ele>661.6666666666666</ele><time>2026-04-26T12:15:53.345Z</time></trkpt><trkpt lat="43.9509104" lon="7.8714216"><ele>658.5</ele><time>2026-04-26T12:15:54.343Z</time></trkpt><trkpt lat="43.9508527" lon="7.8713837"><ele>655.3333333333334</ele><time>2026-04-26T12:15:55.344Z</time></trkpt><trkpt lat="43.9507652" lon="7.8712706"><ele>652.1666666666667</ele><time>2026-04-26T12:15:57.342Z</time></trkpt><trkpt lat="43.9507691" lon="7.8711306"><ele>649.0</ele><time>2026-04-26T12:15:59.343Z</time></trkpt><trkpt lat="43.950806" lon="7.8709945"><ele>647.4285714285713</ele><time>2026-04-26T12:16:01.344Z</time></trkpt><trkpt lat="43.9508456" lon="7.870919"><ele>645.8571428571429</ele><time>2026-04-26T12:16:02.343Z</time></trkpt><trkpt lat="43.9508829" lon="7.870832"><ele>644.2857142857142</ele><time>2026-04-26T12:16:03.343Z</time></trkpt><trkpt lat="43.9509088" lon="7.8707467"><ele>642.7142857142857</ele><time>2026-04-26T12:16:04.343Z</time></trkpt><trkpt lat="43.9509427" lon="7.8706437"><ele>641.1428571428571</ele><time>2026-04-26T12:16:05.343Z</time></trkpt><trkpt lat="43.9509617" lon="7.8705452"><ele>639.5714285714286</ele><time>2026-04-26T12:16:06.343Z</time></trkpt><trkpt lat="43.9509737" lon="7.8704437"><ele>638.0</ele><time>2026-04-26T12:16:07.342Z</time></trkpt><trkpt lat="43.950984" lon="7.8703356"><ele>638.0</ele><time>2026-04-26T12:16:08.342Z</time></trkpt><trkpt lat="43.9509874" lon="7.8701489"><ele>638.0</ele><time>2026-04-26T12:16:10.342Z</time></trkpt><trkpt lat="43.9510019" lon="7.8700528"><ele>638.0</ele><time>2026-04-26T12:16:11.342Z</time></trkpt><trkpt lat="43.9510212" lon="7.8699453"><ele>638.0</ele><time>2026-04-26T12:16:12.342Z</time></trkpt><trkpt lat="43.9510305" lon="7.8698539"><ele>638.0</ele><time>2026-04-26T12:16:13.343Z</time></trkpt><trkpt lat="43.9510406" lon="7.8697581"><ele>638.0</ele><time>2026-04-26T12:16:14.343Z</time></trkpt><trkpt lat="43.9510569" lon="7.8695841"><ele>639.5</ele><time>2026-04-26T12:16:16.344Z</time></trkpt><trkpt lat="43.9510911" lon="7.8695006"><ele>641.0</ele><time>2026-04-26T12:16:17.343Z</time></trkpt><trkpt lat="43.9511131" lon="7.8694158"><ele>642.5</ele><time>2026-04-26T12:16:18.343Z</time></trkpt><trkpt lat="43.951147" lon="7.8693398"><ele>644.0</ele><time>2026-04-26T12:16:19.343Z</time></trkpt><trkpt lat="43.951188" lon="7.8692509"><ele>645.5</ele><time>2026-04-26T12:16:20.343Z</time></trkpt><trkpt lat="43.9512408" lon="7.8691119"><ele>647.0</ele><time>2026-04-26T12:16:22.344Z</time></trkpt><trkpt lat="43.9512357" lon="7.8690049"><ele>647.0</ele><time>2026-04-26T12:16:24.343Z</time></trkpt><trkpt lat="43.9511667" lon="7.869005"><ele>647.0</ele><time>2026-04-26T12:16:26.344Z</time></trkpt><trkpt lat="43.9511365" lon="7.8690919"><ele>647.0</ele><time>2026-04-26T12:16:28.343Z</time></trkpt><trkpt lat="43.9510887" lon="7.8692259"><ele>647.0</ele><time>2026-04-26T12:16:30.343Z</time></trkpt><trkpt lat="43.951004" lon="7.8693711"><ele>647.0</ele><time>2026-04-26T12:16:32.344Z</time></trkpt><trkpt lat="43.9509571" lon="7.8694493"><ele>647.0</ele><time>2026-04-26T12:16:33.343Z</time></trkpt><trkpt lat="43.9508952" lon="7.8695336"><ele>647.0</ele><time>2026-04-26T12:16:34.343Z</time></trkpt><trkpt lat="43.9508497" lon="7.8696117"><ele>647.0</ele><time>2026-04-26T12:16:35.344Z</time></trkpt><trkpt lat="43.9507985" lon="7.8696957"><ele>647.0</ele><time>2026-04-26T12:16:36.342Z</time></trkpt><trkpt lat="43.9507496" lon="7.8697839"><ele>647.0</ele><time>2026-04-26T12:16:37.342Z</time></trkpt><trkpt lat="43.9507099" lon="7.8698712"><ele>647.0</ele><time>2026-04-26T12:16:38.343Z</time></trkpt><trkpt lat="43.9506713" lon="7.8699554"><ele>652.5714285714286</ele><time>2026-04-26T12:16:39.342Z</time></trkpt><trkpt lat="43.9506425" lon="7.8700408"><ele>658.1428571428571</ele><time>2026-04-26T12:16:40.344Z</time></trkpt><trkpt lat="43.9506117" lon="7.8701269"><ele>663.7142857142858</ele><time>2026-04-26T12:16:41.343Z</time></trkpt><trkpt lat="43.9505868" lon="7.8702192"><ele>669.2857142857142</ele><time>2026-04-26T12:16:42.344Z</time></trkpt><trkpt lat="43.9505546" lon="7.8703176"><ele>674.8571428571429</ele><time>2026-04-26T12:16:43.342Z</time></trkpt><trkpt lat="43.950522" lon="7.8704088"><ele>680.4285714285714</ele><time>2026-04-26T12:16:44.343Z</time></trkpt><trkpt lat="43.9504869" lon="7.8705112"><ele>686.0</ele><time>2026-04-26T12:16:45.342Z</time></trkpt><trkpt lat="43.9504411" lon="7.8705999"><ele>686.0</ele><time>2026-04-26T12:16:46.342Z</time></trkpt><trkpt lat="43.9503893" lon="7.8706811"><ele>686.0</ele><time>2026-04-26T12:16:47.342Z</time></trkpt><trkpt lat="43.9503463" lon="7.8707635"><ele>686.0</ele><time>2026-04-26T12:16:48.344Z</time></trkpt><trkpt lat="43.9503049" lon="7.8708425"><ele>686.0</ele><time>2026-04-26T12:16:49.344Z</time></trkpt><trkpt lat="43.9502706" lon="7.8709324"><ele>686.0</ele><time>2026-04-26T12:16:50.344Z</time></trkpt><trkpt lat="43.950236" lon="7.8710734"><ele>686.0</ele><time>2026-04-26T12:16:52.343Z</time></trkpt><trkpt lat="43.9501892" lon="7.8711451"><ele>686.0</ele><time>2026-04-26T12:16:54.342Z</time></trkpt><trkpt lat="43.9501556" lon="7.8710696"><ele>686.0</ele><time>2026-04-26T12:16:57.342Z</time></trkpt><trkpt lat="43.9501924" lon="7.8709726"><ele>686.0</ele><time>2026-04-26T12:16:59.343Z</time></trkpt><trkpt lat="43.9502357" lon="7.8708377"><ele>686.0</ele><time>2026-04-26T12:17:01.343Z</time></trkpt><trkpt lat="43.95024" lon="7.8707284"><ele>686.0</ele><time>2026-04-26T12:17:03.344Z</time></trkpt><trkpt lat="43.9501682" lon="7.8707432"><ele>686.0</ele><time>2026-04-26T12:17:06.343Z</time></trkpt><trkpt lat="43.9501215" lon="7.870875"><ele>686.4</ele><time>2026-04-26T12:17:08.344Z</time></trkpt><trkpt lat="43.9500869" lon="7.8709732"><ele>686.8</ele><time>2026-04-26T12:17:09.343Z</time></trkpt><trkpt lat="43.9500282" lon="7.8711067"><ele>687.1999999999999</ele><time>2026-04-26T12:17:10.343Z</time></trkpt><trkpt lat="43.9499728" lon="7.8712497"><ele>687.5999999999999</ele><time>2026-04-26T12:17:11.342Z</time></trkpt><trkpt lat="43.949918" lon="7.8713903"><ele>688.0</ele><time>2026-04-26T12:17:12.342Z</time></trkpt><trkpt lat="43.949864" lon="7.8715212"><ele>693.1666666666667</ele><time>2026-04-26T12:17:13.344Z</time></trkpt><trkpt lat="43.9498255" lon="7.8716633"><ele>698.3333333333334</ele><time>2026-04-26T12:17:14.344Z</time></trkpt><trkpt lat="43.9497845" lon="7.8717841"><ele>703.5</ele><time>2026-04-26T12:17:15.343Z</time></trkpt><trkpt lat="43.949757" lon="7.8719127"><ele>708.6666666666666</ele><time>2026-04-26T12:17:16.342Z</time></trkpt><trkpt lat="43.9497331" lon="7.8720182"><ele>713.8333333333333</ele><time>2026-04-26T12:17:17.344Z</time></trkpt><trkpt lat="43.9497124" lon="7.8721068"><ele>719.0</ele><time>2026-04-26T12:17:18.343Z</time></trkpt><trkpt lat="43.9496842" lon="7.872194"><ele>721.6666666666666</ele><time>2026-04-26T12:17:19.344Z</time></trkpt><trkpt lat="43.9496385" lon="7.8722704"><ele>724.3333333333333</ele><time>2026-04-26T12:17:20.344Z</time></trkpt><trkpt lat="43.9495769" lon="7.8723386"><ele>727.0</ele><time>2026-04-26T12:17:21.344Z</time></trkpt><trkpt lat="43.9494983" lon="7.8724052"><ele>729.6666666666666</ele><time>2026-04-26T12:17:22.343Z</time></trkpt><trkpt lat="43.9494175" lon="7.8724776"><ele>732.3333333333334</ele><time>2026-04-26T12:17:23.342Z</time></trkpt><trkpt lat="43.9493507" lon="7.872542"><ele>735.0</ele><time>2026-04-26T12:17:24.343Z</time></trkpt><trkpt lat="43.9492935" lon="7.8726076"><ele>737.0</ele><time>2026-04-26T12:17:25.343Z</time></trkpt><trkpt lat="43.9492427" lon="7.8726946"><ele>739.0</ele><time>2026-04-26T12:17:26.344Z</time></trkpt><trkpt lat="43.9492062" lon="7.8728047"><ele>741.0</ele><time>2026-04-26T12:17:27.343Z</time></trkpt><trkpt lat="43.9491684" lon="7.8729228"><ele>743.0</ele><time>2026-04-26T12:17:28.345Z</time></trkpt><trkpt lat="43.9491343" lon="7.8730427"><ele>745.0</ele><time>2026-04-26T12:17:29.343Z</time></trkpt><trkpt lat="43.9490954" lon="7.8731684"><ele>746.0</ele><time>2026-04-26T12:17:30.343Z</time></trkpt><trkpt lat="43.9490466" lon="7.873283"><ele>747.0</ele><time>2026-04-26T12:17:31.343Z</time></trkpt><trkpt lat="43.948994" lon="7.8733789"><ele>748.0</ele><time>2026-04-26T12:17:32.343Z</time></trkpt><trkpt lat="43.9489243" lon="7.8734535"><ele>749.0</ele><time>2026-04-26T12:17:33.343Z</time></trkpt><trkpt lat="43.9488548" lon="7.8735135"><ele>750.0</ele><time>2026-04-26T12:17:34.344Z</time></trkpt><trkpt lat="43.9487799" lon="7.8735247"><ele>751.0</ele><time>2026-04-26T12:17:35.343Z</time></trkpt><trkpt lat="43.9487055" lon="7.8735325"><ele>754.1666666666667</ele><time>2026-04-26T12:17:36.343Z</time></trkpt><trkpt lat="43.9486249" lon="7.8735267"><ele>757.3333333333334</ele><time>2026-04-26T12:17:37.344Z</time></trkpt><trkpt lat="43.9485354" lon="7.8735164"><ele>760.5</ele><time>2026-04-26T12:17:38.343Z</time></trkpt><trkpt lat="43.9484531" lon="7.8735318"><ele>763.6666666666667</ele><time>2026-04-26T12:17:39.343Z</time></trkpt><trkpt lat="43.9483727" lon="7.8735568"><ele>766.8333333333334</ele><time>2026-04-26T12:17:40.344Z</time></trkpt><trkpt lat="43.9482974" lon="7.8736003"><ele>770.0</ele><time>2026-04-26T12:17:41.344Z</time></trkpt><trkpt lat="43.9482124" lon="7.8736425"><ele>770.0000000000001</ele><time>2026-04-26T12:17:42.343Z</time></trkpt><trkpt lat="43.948126" lon="7.8736776"><ele>770.0</ele><time>2026-04-26T12:17:43.344Z</time></trkpt><trkpt lat="43.9480435" lon="7.8736774"><ele>770.0</ele><time>2026-04-26T12:17:44.344Z</time></trkpt><trkpt lat="43.9479548" lon="7.8736535"><ele>770.0</ele><time>2026-04-26T12:17:45.342Z</time></trkpt><trkpt lat="43.9478826" lon="7.8736595"><ele>770.0000000000001</ele><time>2026-04-26T12:17:46.343Z</time></trkpt><trkpt lat="43.9478108" lon="7.873693"><ele>770.0</ele><time>2026-04-26T12:17:47.344Z</time></trkpt><trkpt lat="43.9477318" lon="7.8737227"><ele>770.0000000000001</ele><time>2026-04-26T12:17:48.343Z</time></trkpt><trkpt lat="43.9476636" lon="7.8737818"><ele>770.0</ele><time>2026-04-26T12:17:49.343Z</time></trkpt><trkpt lat="43.9475859" lon="7.8738543"><ele>770.0</ele><time>2026-04-26T12:17:50.344Z</time></trkpt><trkpt lat="43.9475142" lon="7.8739139"><ele>770.0</ele><time>2026-04-26T12:17:51.344Z</time></trkpt><trkpt lat="43.9474544" lon="7.8739752"><ele>770.0000000000001</ele><time>2026-04-26T12:17:52.342Z</time></trkpt><trkpt lat="43.9473989" lon="7.874058"><ele>770.0</ele><time>2026-04-26T12:17:53.343Z</time></trkpt><trkpt lat="43.9473533" lon="7.8741601"><ele>772.1666666666667</ele><time>2026-04-26T12:17:54.342Z</time></trkpt><trkpt lat="43.9473215" lon="7.8742677"><ele>774.3333333333334</ele><time>2026-04-26T12:17:55.343Z</time></trkpt><trkpt lat="43.947287" lon="7.874359"><ele>776.5</ele><time>2026-04-26T12:17:56.343Z</time></trkpt><trkpt lat="43.9472319" lon="7.874417"><ele>778.6666666666667</ele><time>2026-04-26T12:17:57.342Z</time></trkpt><trkpt lat="43.9471727" lon="7.8744601"><ele>780.8333333333334</ele><time>2026-04-26T12:17:58.343Z</time></trkpt><trkpt lat="43.9470733" lon="7.8745399"><ele>783.0</ele><time>2026-04-26T12:18:00.343Z</time></trkpt><trkpt lat="43.9470495" lon="7.8746356"><ele>783.0</ele><time>2026-04-26T12:18:01.342Z</time></trkpt><trkpt lat="43.9470059" lon="7.8747116"><ele>783.0</ele><time>2026-04-26T12:18:02.343Z</time></trkpt><trkpt lat="43.9469637" lon="7.8748334"><ele>783.0</ele><time>2026-04-26T12:18:03.343Z</time></trkpt><trkpt lat="43.9469235" lon="7.8749308"><ele>783.0</ele><time>2026-04-26T12:18:04.344Z</time></trkpt><trkpt lat="43.9468609" lon="7.8750065"><ele>783.0</ele><time>2026-04-26T12:18:05.343Z</time></trkpt><trkpt lat="43.9467812" lon="7.8750374"><ele>783.0</ele><time>2026-04-26T12:18:06.342Z</time></trkpt><trkpt lat="43.9466945" lon="7.8750679"><ele>785.8333333333334</ele><time>2026-04-26T12:18:07.342Z</time></trkpt><trkpt lat="43.94661" lon="7.8751175"><ele>788.6666666666667</ele><time>2026-04-26T12:18:08.342Z</time></trkpt><trkpt lat="43.9465153" lon="7.8751611"><ele>791.5</ele><time>2026-04-26T12:18:09.342Z</time></trkpt><trkpt lat="43.9464265" lon="7.8751974"><ele>794.3333333333334</ele><time>2026-04-26T12:18:10.343Z</time></trkpt><trkpt lat="43.9463441" lon="7.8752122"><ele>797.1666666666667</ele><time>2026-04-26T12:18:11.343Z</time></trkpt><trkpt lat="43.9462756" lon="7.8752033"><ele>800.0</ele><time>2026-04-26T12:18:12.342Z</time></trkpt><trkpt lat="43.9461805" lon="7.8751147"><ele>792.0</ele><time>2026-04-26T12:18:14.344Z</time></trkpt><trkpt lat="43.9462209" lon="7.8749439"><ele>784.0</ele><time>2026-04-26T12:18:16.344Z</time></trkpt><trkpt lat="43.946263" lon="7.8748374"><ele>776.0</ele><time>2026-04-26T12:18:17.343Z</time></trkpt><trkpt lat="43.9462719" lon="7.8747394"><ele>768.0</ele><time>2026-04-26T12:18:18.344Z</time></trkpt><trkpt lat="43.9462897" lon="7.8746471"><ele>760.0</ele><time>2026-04-26T12:18:19.344Z</time></trkpt><trkpt lat="43.9462256" lon="7.8745101"><ele>760.0</ele><time>2026-04-26T12:18:21.344Z</time></trkpt><trkpt lat="43.9461697" lon="7.8744691"><ele>760.0</ele><time>2026-04-26T12:18:22.343Z</time></trkpt><trkpt lat="43.9460909" lon="7.8743777"><ele>760.0</ele><time>2026-04-26T12:18:23.343Z</time></trkpt><trkpt lat="43.9460394" lon="7.8742638"><ele>760.0</ele><time>2026-04-26T12:18:24.343Z</time></trkpt><trkpt lat="43.9459905" lon="7.8741443"><ele>760.0</ele><time>2026-04-26T12:18:25.342Z</time></trkpt><trkpt lat="43.9459499" lon="7.8740309"><ele>756.1666666666667</ele><time>2026-04-26T12:18:26.343Z</time></trkpt><trkpt lat="43.9459097" lon="7.8739293"><ele>752.3333333333334</ele><time>2026-04-26T12:18:27.344Z</time></trkpt><trkpt lat="43.9458867" lon="7.8738283"><ele>748.5</ele><time>2026-04-26T12:18:28.343Z</time></trkpt><trkpt lat="43.9459046" lon="7.8737359"><ele>744.6666666666666</ele><time>2026-04-26T12:18:29.342Z</time></trkpt><trkpt lat="43.9459149" lon="7.8736284"><ele>740.8333333333333</ele><time>2026-04-26T12:18:30.344Z</time></trkpt><trkpt lat="43.9459153" lon="7.8735091"><ele>737.0</ele><time>2026-04-26T12:18:31.343Z</time></trkpt><trkpt lat="43.9459033" lon="7.8733968"><ele>734.3333333333333</ele><time>2026-04-26T12:18:32.343Z</time></trkpt><trkpt lat="43.9458948" lon="7.8732818"><ele>731.6666666666666</ele><time>2026-04-26T12:18:33.342Z</time></trkpt><trkpt lat="43.9458812" lon="7.8731758"><ele>729.0</ele><time>2026-04-26T12:18:34.343Z</time></trkpt><trkpt lat="43.9458573" lon="7.8730801"><ele>726.3333333333334</ele><time>2026-04-26T12:18:35.344Z</time></trkpt><trkpt lat="43.9458436" lon="7.8729942"><ele>723.6666666666667</ele><time>2026-04-26T12:18:36.344Z</time></trkpt><trkpt lat="43.945829" lon="7.8728556"><ele>721.0</ele><time>2026-04-26T12:18:38.344Z</time></trkpt><trkpt lat="43.9458248" lon="7.8727587"><ele>730.4</ele><time>2026-04-26T12:18:40.343Z</time></trkpt><trkpt lat="43.9458067" lon="7.8726679"><ele>739.8</ele><time>2026-04-26T12:18:42.343Z</time></trkpt><trkpt lat="43.9457745" lon="7.8725207"><ele>749.1999999999999</ele><time>2026-04-26T12:18:44.344Z</time></trkpt><trkpt lat="43.9457648" lon="7.8723465"><ele>758.5999999999999</ele><time>2026-04-26T12:18:46.344Z</time></trkpt><trkpt lat="43.9457475" lon="7.8722509"><ele>768.0</ele><time>2026-04-26T12:18:47.344Z</time></trkpt><trkpt lat="43.9457173" lon="7.8720868"><ele>768.0</ele><time>2026-04-26T12:18:49.343Z</time></trkpt><trkpt lat="43.9456944" lon="7.8719336"><ele>768.0</ele><time>2026-04-26T12:18:51.345Z</time></trkpt><trkpt lat="43.9456734" lon="7.8718221"><ele>768.0</ele><time>2026-04-26T12:18:53.343Z</time></trkpt><trkpt lat="43.9456104" lon="7.8718277"><ele>768.0</ele><time>2026-04-26T12:18:56.343Z</time></trkpt><trkpt lat="43.9456023" lon="7.8719304"><ele>768.0</ele><time>2026-04-26T12:18:58.344Z</time></trkpt><trkpt lat="43.9456123" lon="7.8720439"><ele>768.0</ele><time>2026-04-26T12:19:00.343Z</time></trkpt><trkpt lat="43.9456147" lon="7.8721496"><ele>768.0</ele><time>2026-04-26T12:19:01.343Z</time></trkpt><trkpt lat="43.9456022" lon="7.8722836"><ele>768.0</ele><time>2026-04-26T12:19:03.343Z</time></trkpt><trkpt lat="43.9455472" lon="7.8723649"><ele>768.0</ele><time>2026-04-26T12:19:05.343Z</time></trkpt><trkpt lat="43.9454745" lon="7.8722852"><ele>768.0</ele><time>2026-04-26T12:19:08.343Z</time></trkpt><trkpt lat="43.9454293" lon="7.8721792"><ele>768.0</ele><time>2026-04-26T12:19:10.344Z</time></trkpt><trkpt lat="43.9453854" lon="7.8720417"><ele>768.0</ele><time>2026-04-26T12:19:12.345Z</time></trkpt><trkpt lat="43.9453328" lon="7.8719034"><ele>768.0</ele><time>2026-04-26T12:19:14.344Z</time></trkpt><trkpt lat="43.9453067" lon="7.8718212"><ele>768.0</ele><time>2026-04-26T12:19:15.343Z</time></trkpt><trkpt lat="43.9452909" lon="7.8716607"><ele>768.0</ele><time>2026-04-26T12:19:17.344Z</time></trkpt><trkpt lat="43.9452997" lon="7.8715711"><ele>768.0</ele><time>2026-04-26T12:19:18.344Z</time></trkpt><trkpt lat="43.9453109" lon="7.8714657"><ele>768.0</ele><time>2026-04-26T12:19:19.343Z</time></trkpt><trkpt lat="43.9453406" lon="7.871356"><ele>768.5</ele><time>2026-04-26T12:19:20.344Z</time></trkpt><trkpt lat="43.9453646" lon="7.8712638"><ele>769.0</ele><time>2026-04-26T12:19:21.343Z</time></trkpt><trkpt lat="43.9453931" lon="7.8711713"><ele>769.5</ele><time>2026-04-26T12:19:22.344Z</time></trkpt><trkpt lat="43.945426" lon="7.8710888"><ele>770.0</ele><time>2026-04-26T12:19:23.344Z</time></trkpt><trkpt lat="43.9454476" lon="7.8709311"><ele>770.5</ele><time>2026-04-26T12:19:25.343Z</time></trkpt><trkpt lat="43.9454106" lon="7.8707743"><ele>771.0</ele><time>2026-04-26T12:19:27.343Z</time></trkpt><trkpt lat="43.9453981" lon="7.8706088"><ele>772.5999999999999</ele><time>2026-04-26T12:19:29.343Z</time></trkpt><trkpt lat="43.9453929" lon="7.8705147"><ele>774.2</ele><time>2026-04-26T12:19:30.343Z</time></trkpt><trkpt lat="43.9453562" lon="7.8703695"><ele>775.8</ele><time>2026-04-26T12:19:32.344Z</time></trkpt><trkpt lat="43.9452932" lon="7.8702923"><ele>777.4000000000001</ele><time>2026-04-26T12:19:34.344Z</time></trkpt><trkpt lat="43.9451849" lon="7.870211"><ele>779.0</ele><time>2026-04-26T12:19:36.343Z</time></trkpt><trkpt lat="43.9450983" lon="7.8701993"><ele>779.0000000000001</ele><time>2026-04-26T12:19:38.343Z</time></trkpt><trkpt lat="43.9450502" lon="7.8702902"><ele>779.0</ele><time>2026-04-26T12:19:40.344Z</time></trkpt><trkpt lat="43.9450181" lon="7.8703917"><ele>779.0</ele><time>2026-04-26T12:19:42.344Z</time></trkpt><trkpt lat="43.9449851" lon="7.8705007"><ele>779.0</ele><time>2026-04-26T12:19:44.343Z</time></trkpt><trkpt lat="43.9449134" lon="7.8706115"><ele>779.0000000000001</ele><time>2026-04-26T12:19:46.344Z</time></trkpt><trkpt lat="43.9448472" lon="7.8706903"><ele>779.0</ele><time>2026-04-26T12:19:48.343Z</time></trkpt><trkpt lat="43.9447923" lon="7.8707649"><ele>784.6666666666667</ele><time>2026-04-26T12:19:50.343Z</time></trkpt><trkpt lat="43.9447307" lon="7.870819"><ele>790.3333333333334</ele><time>2026-04-26T12:19:52.344Z</time></trkpt><trkpt lat="43.9446653" lon="7.8708647"><ele>796.0</ele><time>2026-04-26T12:19:55.343Z</time></trkpt><trkpt lat="43.9445857" lon="7.8709477"><ele>801.6666666666667</ele><time>2026-04-26T12:19:58.343Z</time></trkpt><trkpt lat="43.9445212" lon="7.8710232"><ele>807.3333333333334</ele><time>2026-04-26T12:20:00.343Z</time></trkpt><trkpt lat="43.9444527" lon="7.8710923"><ele>813.0</ele><time>2026-04-26T12:20:02.343Z</time></trkpt><trkpt lat="43.9443792" lon="7.871152"><ele>813.8</ele><time>2026-04-26T12:20:04.344Z</time></trkpt><trkpt lat="43.9443263" lon="7.8712324"><ele>814.5999999999999</ele><time>2026-04-26T12:20:06.343Z</time></trkpt><trkpt lat="43.9443261" lon="7.8713756"><ele>815.4000000000001</ele><time>2026-04-26T12:20:08.343Z</time></trkpt><trkpt lat="43.9443284" lon="7.8715158"><ele>816.2</ele><time>2026-04-26T12:20:10.343Z</time></trkpt><trkpt lat="43.9443224" lon="7.8716535"><ele>817.0</ele><time>2026-04-26T12:20:12.343Z</time></trkpt><trkpt lat="43.9442817" lon="7.8717767"><ele>817.1666666666666</ele><time>2026-04-26T12:20:14.344Z</time></trkpt><trkpt lat="43.9442145" lon="7.8719083"><ele>817.3333333333333</ele><time>2026-04-26T12:20:16.345Z</time></trkpt><trkpt lat="43.9441741" lon="7.8719767"><ele>817.5</ele><time>2026-04-26T12:20:17.343Z</time></trkpt><trkpt lat="43.9441454" lon="7.8720569"><ele>817.6666666666667</ele><time>2026-04-26T12:20:18.343Z</time></trkpt><trkpt lat="43.9441077" lon="7.8721356"><ele>817.8333333333334</ele><time>2026-04-26T12:20:19.344Z</time></trkpt><trkpt lat="43.9440644" lon="7.8722335"><ele>818.0</ele><time>2026-04-26T12:20:20.344Z</time></trkpt><trkpt lat="43.9439876" lon="7.8723198"><ele>821.6666666666667</ele><time>2026-04-26T12:20:21.343Z</time></trkpt><trkpt lat="43.9439264" lon="7.8723997"><ele>825.3333333333334</ele><time>2026-04-26T12:20:22.343Z</time></trkpt><trkpt lat="43.9438526" lon="7.8724594"><ele>829.0</ele><time>2026-04-26T12:20:23.343Z</time></trkpt><trkpt lat="43.9437886" lon="7.8725041"><ele>832.6666666666667</ele><time>2026-04-26T12:20:24.343Z</time></trkpt><trkpt lat="43.9437303" lon="7.8725383"><ele>836.3333333333334</ele><time>2026-04-26T12:20:25.344Z</time></trkpt><trkpt lat="43.9436299" lon="7.8726201"><ele>840.0</ele><time>2026-04-26T12:20:27.343Z</time></trkpt><trkpt lat="43.9435752" lon="7.8727439"><ele>841.8</ele><time>2026-04-26T12:20:29.343Z</time></trkpt><trkpt lat="43.9435386" lon="7.8728637"><ele>843.6</ele><time>2026-04-26T12:20:31.344Z</time></trkpt><trkpt lat="43.943492" lon="7.8729825"><ele>845.4000000000001</ele><time>2026-04-26T12:20:33.344Z</time></trkpt><trkpt lat="43.9434309" lon="7.8731096"><ele>847.2</ele><time>2026-04-26T12:20:35.343Z</time></trkpt><trkpt lat="43.9433672" lon="7.8732306"><ele>849.0</ele><time>2026-04-26T12:20:37.344Z</time></trkpt><trkpt lat="43.9432891" lon="7.8733352"><ele>849.0</ele><time>2026-04-26T12:20:39.343Z</time></trkpt><trkpt lat="43.9432362" lon="7.8733839"><ele>849.0</ele><time>2026-04-26T12:20:40.343Z</time></trkpt><trkpt lat="43.9431475" lon="7.87348"><ele>849.0</ele><time>2026-04-26T12:20:42.344Z</time></trkpt><trkpt lat="43.943098" lon="7.8736122"><ele>849.0</ele><time>2026-04-26T12:20:44.344Z</time></trkpt><trkpt lat="43.9430875" lon="7.8737047"><ele>849.0</ele><time>2026-04-26T12:20:45.344Z</time></trkpt><trkpt lat="43.9430819" lon="7.8738064"><ele>849.0</ele><time>2026-04-26T12:20:46.343Z</time></trkpt><trkpt lat="43.9430649" lon="7.8738932"><ele>854.4000000000001</ele><time>2026-04-26T12:20:47.344Z</time></trkpt><trkpt lat="43.9430473" lon="7.8739791"><ele>859.8</ele><time>2026-04-26T12:20:48.343Z</time></trkpt><trkpt lat="43.9429905" lon="7.8741089"><ele>865.1999999999999</ele><time>2026-04-26T12:20:50.344Z</time></trkpt><trkpt lat="43.9429293" lon="7.8742481"><ele>870.5999999999999</ele><time>2026-04-26T12:20:52.343Z</time></trkpt><trkpt lat="43.9428576" lon="7.8743611"><ele>876.0</ele><time>2026-04-26T12:20:54.344Z</time></trkpt><trkpt lat="43.9427973" lon="7.874413"><ele>875.4</ele><time>2026-04-26T12:20:55.343Z</time></trkpt><trkpt lat="43.9427057" lon="7.874502"><ele>874.8</ele><time>2026-04-26T12:20:57.344Z</time></trkpt><trkpt lat="43.942622" lon="7.8746063"><ele>874.1999999999999</ele><time>2026-04-26T12:20:59.343Z</time></trkpt><trkpt lat="43.9425695" lon="7.8747424"><ele>873.5999999999999</ele><time>2026-04-26T12:21:01.343Z</time></trkpt><trkpt lat="43.9425547" lon="7.8748357"><ele>873.0</ele><time>2026-04-26T12:21:02.343Z</time></trkpt><trkpt lat="43.9425297" lon="7.8749278"><ele>873.0</ele><time>2026-04-26T12:21:03.344Z</time></trkpt><trkpt lat="43.9424979" lon="7.87502"><ele>873.0</ele><time>2026-04-26T12:21:04.343Z</time></trkpt><trkpt lat="43.942463" lon="7.8751051"><ele>873.0</ele><time>2026-04-26T12:21:05.343Z</time></trkpt><trkpt lat="43.9424179" lon="7.8751708"><ele>873.0</ele><time>2026-04-26T12:21:06.344Z</time></trkpt><trkpt lat="43.9422977" lon="7.8752173"><ele>873.0</ele><time>2026-04-26T12:21:08.344Z</time></trkpt><trkpt lat="43.9421659" lon="7.8752416"><ele>879.5999999999999</ele><time>2026-04-26T12:21:10.344Z</time></trkpt><trkpt lat="43.9420733" lon="7.8753309"><ele>886.1999999999999</ele><time>2026-04-26T12:21:12.344Z</time></trkpt><trkpt lat="43.9419966" lon="7.8754333"><ele>892.8</ele><time>2026-04-26T12:21:14.344Z</time></trkpt><trkpt lat="43.9419214" lon="7.8755428"><ele>899.4</ele><time>2026-04-26T12:21:16.344Z</time></trkpt><trkpt lat="43.941874" lon="7.8756845"><ele>906.0</ele><time>2026-04-26T12:21:18.343Z</time></trkpt><trkpt lat="43.9418403" lon="7.8758222"><ele>906.0</ele><time>2026-04-26T12:21:20.345Z</time></trkpt><trkpt lat="43.9418137" lon="7.8759037"><ele>906.0</ele><time>2026-04-26T12:21:21.344Z</time></trkpt><trkpt lat="43.94179" lon="7.875988"><ele>906.0</ele><time>2026-04-26T12:21:22.343Z</time></trkpt><trkpt lat="43.9417559" lon="7.8761368"><ele>906.0</ele><time>2026-04-26T12:21:24.343Z</time></trkpt><trkpt lat="43.9417302" lon="7.8762745"><ele>906.0</ele><time>2026-04-26T12:21:26.344Z</time></trkpt><trkpt lat="43.9417024" lon="7.8763723"><ele>906.0</ele><time>2026-04-26T12:21:28.343Z</time></trkpt><trkpt lat="43.9416699" lon="7.8764763"><ele>905.8</ele><time>2026-04-26T12:21:30.345Z</time></trkpt><trkpt lat="43.9416244" lon="7.8765581"><ele>905.5999999999999</ele><time>2026-04-26T12:21:32.344Z</time></trkpt><trkpt lat="43.9415783" lon="7.8766416"><ele>905.4</ele><time>2026-04-26T12:21:34.344Z</time></trkpt><trkpt lat="43.9414897" lon="7.8767043"><ele>905.2</ele><time>2026-04-26T12:21:36.343Z</time></trkpt><trkpt lat="43.94137" lon="7.8767143"><ele>905.0</ele><time>2026-04-26T12:21:38.345Z</time></trkpt><trkpt lat="43.9412707" lon="7.8767358"><ele>911.4</ele><time>2026-04-26T12:21:40.343Z</time></trkpt><trkpt lat="43.9411821" lon="7.8768091"><ele>917.8</ele><time>2026-04-26T12:21:42.343Z</time></trkpt><trkpt lat="43.9410937" lon="7.8769236"><ele>924.2</ele><time>2026-04-26T12:21:44.344Z</time></trkpt><trkpt lat="43.9410487" lon="7.8769934"><ele>930.6</ele><time>2026-04-26T12:21:45.345Z</time></trkpt><trkpt lat="43.9409924" lon="7.8770622"><ele>937.0</ele><time>2026-04-26T12:21:46.344Z</time></trkpt><trkpt lat="43.9409081" lon="7.8771553"><ele>935.1666666666666</ele><time>2026-04-26T12:21:48.345Z</time></trkpt><trkpt lat="43.9408053" lon="7.8771508"><ele>933.3333333333333</ele><time>2026-04-26T12:21:50.344Z</time></trkpt><trkpt lat="43.9406921" lon="7.877125"><ele>931.5</ele><time>2026-04-26T12:21:52.343Z</time></trkpt><trkpt lat="43.9406214" lon="7.8770898"><ele>929.6666666666667</ele><time>2026-04-26T12:21:54.343Z</time></trkpt><trkpt lat="43.9405687" lon="7.8770286"><ele>927.8333333333334</ele><time>2026-04-26T12:21:56.345Z</time></trkpt><trkpt lat="43.940515" lon="7.8769384"><ele>926.0</ele><time>2026-04-26T12:21:59.344Z</time></trkpt><trkpt lat="43.9404458" lon="7.8769486"><ele>926.0000000000001</ele><time>2026-04-26T12:22:24.343Z</time></trkpt><trkpt lat="43.9403811" lon="7.8769304"><ele>926.0</ele><time>2026-04-26T12:22:26.344Z</time></trkpt><trkpt lat="43.9402862" lon="7.8769315"><ele>926.0</ele><time>2026-04-26T12:22:29.344Z</time></trkpt><trkpt lat="43.9402219" lon="7.8769458"><ele>926.0</ele><time>2026-04-26T12:22:31.344Z</time></trkpt><trkpt lat="43.9401423" lon="7.8769536"><ele>926.0000000000001</ele><time>2026-04-26T12:22:34.343Z</time></trkpt><trkpt lat="43.9400648" lon="7.876898"><ele>926.0</ele><time>2026-04-26T12:22:37.344Z</time></trkpt><trkpt lat="43.9400031" lon="7.8768205"><ele>923.1666666666667</ele><time>2026-04-26T12:22:40.344Z</time></trkpt><trkpt lat="43.9399311" lon="7.8767453"><ele>920.3333333333334</ele><time>2026-04-26T12:22:43.345Z</time></trkpt><trkpt lat="43.9398744" lon="7.8766973"><ele>917.5</ele><time>2026-04-26T12:22:45.344Z</time></trkpt><trkpt lat="43.9398004" lon="7.876702"><ele>914.6666666666667</ele><time>2026-04-26T12:22:47.344Z</time></trkpt><trkpt lat="43.93974" lon="7.8767498"><ele>911.8333333333334</ele><time>2026-04-26T12:22:49.344Z</time></trkpt><trkpt lat="43.9397279" lon="7.8768368"><ele>909.0</ele><time>2026-04-26T12:22:51.343Z</time></trkpt><trkpt lat="43.9397935" lon="7.8769226"><ele>915.1666666666666</ele><time>2026-04-26T12:22:54.345Z</time></trkpt><trkpt lat="43.9398548" lon="7.8769623"><ele>921.3333333333333</ele><time>2026-04-26T12:22:56.344Z</time></trkpt><trkpt lat="43.9398199" lon="7.8770433"><ele>927.5</ele><time>2026-04-26T12:23:00.344Z</time></trkpt><trkpt lat="43.9397546" lon="7.8769992"><ele>933.6666666666666</ele><time>2026-04-26T12:23:02.344Z</time></trkpt><trkpt lat="43.9396844" lon="7.8769439"><ele>939.8333333333333</ele><time>2026-04-26T12:23:04.344Z</time></trkpt><trkpt lat="43.9396254" lon="7.8768901"><ele>946.0</ele><time>2026-04-26T12:23:05.345Z</time></trkpt><trkpt lat="43.9395185" lon="7.876822"><ele>946.0</ele><time>2026-04-26T12:23:07.344Z</time></trkpt><trkpt lat="43.939417" lon="7.8767759"><ele>945.9999999999999</ele><time>2026-04-26T12:23:09.343Z</time></trkpt><trkpt lat="43.9393214" lon="7.8767694"><ele>945.9999999999999</ele><time>2026-04-26T12:23:11.345Z</time></trkpt><trkpt lat="43.9392097" lon="7.8767852"><ele>946.0</ele><time>2026-04-26T12:23:13.345Z</time></trkpt><trkpt lat="43.9390988" lon="7.8767993"><ele>946.0</ele><time>2026-04-26T12:23:15.345Z</time></trkpt><trkpt lat="43.938991" lon="7.87684"><ele>949.4999999999999</ele><time>2026-04-26T12:23:17.343Z</time></trkpt><trkpt lat="43.9389185" lon="7.8768932"><ele>953.0</ele><time>2026-04-26T12:23:19.344Z</time></trkpt><trkpt lat="43.9388992" lon="7.8769873"><ele>956.5</ele><time>2026-04-26T12:23:21.345Z</time></trkpt><trkpt lat="43.938943" lon="7.8770504"><ele>960.0</ele><time>2026-04-26T12:23:23.345Z</time></trkpt><trkpt lat="43.9390232" lon="7.877059"><ele>963.4999999999999</ele><time>2026-04-26T12:23:25.343Z</time></trkpt><trkpt lat="43.939094" lon="7.8770527"><ele>967.0</ele><time>2026-04-26T12:23:27.343Z</time></trkpt><trkpt lat="43.9391817" lon="7.8770695"><ele>962.8</ele><time>2026-04-26T12:23:29.345Z</time></trkpt><trkpt lat="43.9392657" lon="7.8770993"><ele>958.6</ele><time>2026-04-26T12:23:31.343Z</time></trkpt><trkpt lat="43.9393425" lon="7.8771402"><ele>954.3999999999999</ele><time>2026-04-26T12:23:33.345Z</time></trkpt><trkpt lat="43.939415" lon="7.8772177"><ele>950.1999999999999</ele><time>2026-04-26T12:23:35.344Z</time></trkpt><trkpt lat="43.9394749" lon="7.877329"><ele>946.0</ele><time>2026-04-26T12:23:37.343Z</time></trkpt><trkpt lat="43.9395628" lon="7.8774667"><ele>945.9999999999999</ele><time>2026-04-26T12:23:39.344Z</time></trkpt><trkpt lat="43.9396643" lon="7.8775638"><ele>946.0</ele><time>2026-04-26T12:23:41.343Z</time></trkpt><trkpt lat="43.9397176" lon="7.8776232"><ele>946.0</ele><time>2026-04-26T12:23:43.344Z</time></trkpt><trkpt lat="43.9396596" lon="7.8776981"><ele>946.0</ele><time>2026-04-26T12:23:47.344Z</time></trkpt><trkpt lat="43.9395908" lon="7.8776327"><ele>945.9999999999999</ele><time>2026-04-26T12:23:49.344Z</time></trkpt><trkpt lat="43.9395102" lon="7.8775988"><ele>946.0</ele><time>2026-04-26T12:23:51.345Z</time></trkpt><trkpt lat="43.9394317" lon="7.8775921"><ele>952.6666666666666</ele><time>2026-04-26T12:23:53.345Z</time></trkpt><trkpt lat="43.9393392" lon="7.8776234"><ele>959.3333333333333</ele><time>2026-04-26T12:23:56.345Z</time></trkpt><trkpt lat="43.9392519" lon="7.8776843"><ele>966.0</ele><time>2026-04-26T12:23:59.345Z</time></trkpt><trkpt lat="43.9391862" lon="7.8777247"><ele>972.6666666666667</ele><time>2026-04-26T12:24:01.344Z</time></trkpt><trkpt lat="43.9391081" lon="7.8777401"><ele>979.3333333333334</ele><time>2026-04-26T12:24:03.344Z</time></trkpt><trkpt lat="43.9390071" lon="7.8777112"><ele>986.0</ele><time>2026-04-26T12:24:05.345Z</time></trkpt><trkpt lat="43.9389434" lon="7.8777065"><ele>988.6666666666667</ele><time>2026-04-26T12:24:06.344Z</time></trkpt><trkpt lat="43.9388692" lon="7.8777061"><ele>991.3333333333334</ele><time>2026-04-26T12:24:07.344Z</time></trkpt><trkpt lat="43.9387165" lon="7.8777081"><ele>994.0</ele><time>2026-04-26T12:24:09.344Z</time></trkpt><trkpt lat="43.9386425" lon="7.8777235"><ele>996.6666666666667</ele><time>2026-04-26T12:24:10.344Z</time></trkpt><trkpt lat="43.9385755" lon="7.8777451"><ele>999.3333333333334</ele><time>2026-04-26T12:24:11.344Z</time></trkpt><trkpt lat="43.9384988" lon="7.8777594"><ele>1002.0</ele><time>2026-04-26T12:24:12.344Z</time></trkpt><trkpt lat="43.9383695" lon="7.8778061"><ele>1003.1666666666666</ele><time>2026-04-26T12:24:14.344Z</time></trkpt><trkpt lat="43.9383095" lon="7.8778503"><ele>1004.3333333333333</ele><time>2026-04-26T12:24:15.344Z</time></trkpt><trkpt lat="43.9382494" lon="7.877897"><ele>1005.5</ele><time>2026-04-26T12:24:16.344Z</time></trkpt><trkpt lat="43.9381504" lon="7.8779382"><ele>1006.6666666666666</ele><time>2026-04-26T12:24:18.344Z</time></trkpt><trkpt lat="43.9380599" lon="7.8778869"><ele>1007.8333333333333</ele><time>2026-04-26T12:24:20.346Z</time></trkpt><trkpt lat="43.938004" lon="7.8778369"><ele>1009.0</ele><time>2026-04-26T12:24:21.344Z</time></trkpt><trkpt lat="43.9379396" lon="7.8777981"><ele>1009.0</ele><time>2026-04-26T12:24:22.344Z</time></trkpt><trkpt lat="43.937858" lon="7.8777801"><ele>1009.0000000000001</ele><time>2026-04-26T12:24:23.344Z</time></trkpt><trkpt lat="43.9377696" lon="7.8777729"><ele>1009.0000000000001</ele><time>2026-04-26T12:24:24.344Z</time></trkpt><trkpt lat="43.9376808" lon="7.877787"><ele>1009.0</ele><time>2026-04-26T12:24:25.343Z</time></trkpt><trkpt lat="43.9376041" lon="7.8778065"><ele>1009.0</ele><time>2026-04-26T12:24:26.344Z</time></trkpt><trkpt lat="43.9374749" lon="7.8778081"><ele>1006.0</ele><time>2026-04-26T12:24:28.345Z</time></trkpt><trkpt lat="43.9373392" lon="7.8777009"><ele>1003.0000000000001</ele><time>2026-04-26T12:24:30.343Z</time></trkpt><trkpt lat="43.9372779" lon="7.8776157"><ele>1000.0000000000001</ele><time>2026-04-26T12:24:31.345Z</time></trkpt><trkpt lat="43.9372056" lon="7.8775381"><ele>997.0</ele><time>2026-04-26T12:24:32.344Z</time></trkpt><trkpt lat="43.9371461" lon="7.8774531"><ele>994.0</ele><time>2026-04-26T12:24:33.344Z</time></trkpt><trkpt lat="43.9370876" lon="7.8773445"><ele>994.0</ele><time>2026-04-26T12:24:34.344Z</time></trkpt><trkpt lat="43.9370274" lon="7.8772496"><ele>994.0000000000001</ele><time>2026-04-26T12:24:35.344Z</time></trkpt><trkpt lat="43.9369615" lon="7.8771487"><ele>994.0000000000001</ele><time>2026-04-26T12:24:36.344Z</time></trkpt><trkpt lat="43.9368954" lon="7.8770759"><ele>994.0</ele><time>2026-04-26T12:24:37.344Z</time></trkpt><trkpt lat="43.9368374" lon="7.8770259"><ele>994.0</ele><time>2026-04-26T12:24:38.343Z</time></trkpt><trkpt lat="43.9367198" lon="7.8770089"><ele>995.5714285714286</ele><time>2026-04-26T12:24:40.344Z</time></trkpt><trkpt lat="43.9366538" lon="7.8769943"><ele>997.1428571428571</ele><time>2026-04-26T12:24:41.344Z</time></trkpt><trkpt lat="43.9365857" lon="7.8769715"><ele>998.7142857142858</ele><time>2026-04-26T12:24:42.344Z</time></trkpt><trkpt lat="43.9365236" lon="7.8769399"><ele>1000.2857142857143</ele><time>2026-04-26T12:24:43.344Z</time></trkpt><trkpt lat="43.936463" lon="7.8768805"><ele>1001.8571428571429</ele><time>2026-04-26T12:24:44.345Z</time></trkpt><trkpt lat="43.9364014" lon="7.8768032"><ele>1003.4285714285716</ele><time>2026-04-26T12:24:45.345Z</time></trkpt><trkpt lat="43.9363467" lon="7.8767284"><ele>1005.0000000000001</ele><time>2026-04-26T12:24:46.345Z</time></trkpt><trkpt lat="43.9363018" lon="7.8766448"><ele>1005.0</ele><time>2026-04-26T12:24:47.344Z</time></trkpt><trkpt lat="43.9362599" lon="7.8765614"><ele>1005.0</ele><time>2026-04-26T12:24:48.344Z</time></trkpt><trkpt lat="43.9362433" lon="7.8764308"><ele>1005.0</ele><time>2026-04-26T12:24:49.345Z</time></trkpt><trkpt lat="43.936207" lon="7.8762852"><ele>1005.0</ele><time>2026-04-26T12:24:50.345Z</time></trkpt><trkpt lat="43.9361519" lon="7.8761315"><ele>1005.0</ele><time>2026-04-26T12:24:51.345Z</time></trkpt><trkpt lat="43.9361035" lon="7.8760051"><ele>1003.6666666666666</ele><time>2026-04-26T12:24:52.343Z</time></trkpt><trkpt lat="43.9360473" lon="7.875889"><ele>1002.3333333333333</ele><time>2026-04-26T12:24:53.345Z</time></trkpt><trkpt lat="43.9360109" lon="7.875787"><ele>1001.0</ele><time>2026-04-26T12:24:54.344Z</time></trkpt><trkpt lat="43.93595" lon="7.8757045"><ele>999.6666666666666</ele><time>2026-04-26T12:24:55.343Z</time></trkpt><trkpt lat="43.9358758" lon="7.8756788"><ele>998.3333333333333</ele><time>2026-04-26T12:24:57.344Z</time></trkpt><trkpt lat="43.9358779" lon="7.875771"><ele>997.0</ele><time>2026-04-26T12:24:59.344Z</time></trkpt><trkpt lat="43.9359096" lon="7.8758605"><ele>998.3333333333333</ele><time>2026-04-26T12:25:00.345Z</time></trkpt><trkpt lat="43.9359196" lon="7.8759531"><ele>999.6666666666666</ele><time>2026-04-26T12:25:01.344Z</time></trkpt><trkpt lat="43.9359339" lon="7.8760476"><ele>1001.0</ele><time>2026-04-26T12:25:02.343Z</time></trkpt><trkpt lat="43.9359399" lon="7.8761349"><ele>1002.3333333333333</ele><time>2026-04-26T12:25:03.344Z</time></trkpt><trkpt lat="43.9359342" lon="7.8762611"><ele>1003.6666666666666</ele><time>2026-04-26T12:25:04.344Z</time></trkpt><trkpt lat="43.9359192" lon="7.8763926"><ele>1005.0</ele><time>2026-04-26T12:25:05.344Z</time></trkpt><trkpt lat="43.935902" lon="7.8765525"><ele>1005.0</ele><time>2026-04-26T12:25:06.343Z</time></trkpt><trkpt lat="43.935905" lon="7.876699"><ele>1005.0</ele><time>2026-04-26T12:25:07.344Z</time></trkpt><trkpt lat="43.9359202" lon="7.8768244"><ele>1005.0</ele><time>2026-04-26T12:25:08.344Z</time></trkpt><trkpt lat="43.9359279" lon="7.8769288"><ele>1005.0</ele><time>2026-04-26T12:25:09.345Z</time></trkpt><trkpt lat="43.9359439" lon="7.8770642"><ele>1005.0</ele><time>2026-04-26T12:25:11.343Z</time></trkpt><trkpt lat="43.9359116" lon="7.8771664"><ele>1010.4</ele><time>2026-04-26T12:25:14.345Z</time></trkpt><trkpt lat="43.9358475" lon="7.8771797"><ele>1015.8</ele><time>2026-04-26T12:25:16.345Z</time></trkpt><trkpt lat="43.9357742" lon="7.8771254"><ele>1021.2</ele><time>2026-04-26T12:26:23.345Z</time></trkpt><trkpt lat="43.9356464" lon="7.8771311"><ele>1026.6</ele><time>2026-04-26T12:26:25.345Z</time></trkpt><trkpt lat="43.9355582" lon="7.877102"><ele>1032.0</ele><time>2026-04-26T12:26:26.345Z</time></trkpt><trkpt lat="43.9354566" lon="7.8770769"><ele>1032.0</ele><time>2026-04-26T12:26:27.345Z</time></trkpt><trkpt lat="43.9353466" lon="7.8770654"><ele>1032.0</ele><time>2026-04-26T12:26:28.344Z</time></trkpt><trkpt lat="43.935244" lon="7.8770499"><ele>1032.0</ele><time>2026-04-26T12:26:29.344Z</time></trkpt><trkpt lat="43.935167" lon="7.8770399"><ele>1032.0</ele><time>2026-04-26T12:26:30.344Z</time></trkpt><trkpt lat="43.9350596" lon="7.8771276"><ele>1032.0</ele><time>2026-04-26T12:26:32.345Z</time></trkpt><trkpt lat="43.9349945" lon="7.8771741"><ele>1032.1666666666667</ele><time>2026-04-26T12:26:33.344Z</time></trkpt><trkpt lat="43.93492" lon="7.8772164"><ele>1032.3333333333333</ele><time>2026-04-26T12:26:34.344Z</time></trkpt><trkpt lat="43.93485" lon="7.8772534"><ele>1032.5</ele><time>2026-04-26T12:26:35.344Z</time></trkpt><trkpt lat="43.9347813" lon="7.8772899"><ele>1032.6666666666665</ele><time>2026-04-26T12:26:36.344Z</time></trkpt><trkpt lat="43.9347196" lon="7.8773373"><ele>1032.8333333333333</ele><time>2026-04-26T12:26:37.344Z</time></trkpt><trkpt lat="43.9346372" lon="7.8774482"><ele>1033.0</ele><time>2026-04-26T12:26:39.344Z</time></trkpt><trkpt lat="43.9345518" lon="7.877495"><ele>1033.0</ele><time>2026-04-26T12:26:41.345Z</time></trkpt><trkpt lat="43.9344429" lon="7.8774686"><ele>1033.0</ele><time>2026-04-26T12:26:43.345Z</time></trkpt><trkpt lat="43.9343358" lon="7.8774008"><ele>1033.0</ele><time>2026-04-26T12:26:45.344Z</time></trkpt><trkpt lat="43.9342286" lon="7.8773196"><ele>1033.0</ele><time>2026-04-26T12:26:47.345Z</time></trkpt><trkpt lat="43.9341273" lon="7.8772423"><ele>1033.6</ele><time>2026-04-26T12:26:49.345Z</time></trkpt><trkpt lat="43.9340178" lon="7.8771771"><ele>1034.1999999999998</ele><time>2026-04-26T12:26:51.345Z</time></trkpt><trkpt lat="43.9339146" lon="7.8771385"><ele>1034.8</ele><time>2026-04-26T12:26:53.344Z</time></trkpt><trkpt lat="43.9338203" lon="7.8771287"><ele>1035.3999999999999</ele><time>2026-04-26T12:26:55.344Z</time></trkpt><trkpt lat="43.933745" lon="7.8771797"><ele>1036.0</ele><time>2026-04-26T12:26:57.344Z</time></trkpt><trkpt lat="43.9336778" lon="7.8772517"><ele>1036.0</ele><time>2026-04-26T12:26:59.345Z</time></trkpt><trkpt lat="43.9336406" lon="7.8773415"><ele>1036.0</ele><time>2026-04-26T12:27:01.345Z</time></trkpt><trkpt lat="43.9336078" lon="7.8774727"><ele>1036.0</ele><time>2026-04-26T12:27:03.345Z</time></trkpt><trkpt lat="43.9335887" lon="7.8775575"><ele>1036.0</ele><time>2026-04-26T12:27:04.344Z</time></trkpt><trkpt lat="43.9335871" lon="7.8776479"><ele>1036.0</ele><time>2026-04-26T12:27:05.344Z</time></trkpt><trkpt lat="43.9335566" lon="7.8777404"><ele>1036.0</ele><time>2026-04-26T12:27:06.344Z</time></trkpt><trkpt lat="43.9335038" lon="7.8778958"><ele>1031.5</ele><time>2026-04-26T12:27:08.344Z</time></trkpt><trkpt lat="43.9334579" lon="7.8780575"><ele>1027.0</ele><time>2026-04-26T12:27:10.345Z</time></trkpt><trkpt lat="43.9334254" lon="7.878231"><ele>1022.5</ele><time>2026-04-26T12:27:12.345Z</time></trkpt><trkpt lat="43.9334096" lon="7.8783339"><ele>1018.0</ele><time>2026-04-26T12:27:13.345Z</time></trkpt><trkpt lat="43.9333698" lon="7.878496"><ele>1014.8</ele><time>2026-04-26T12:27:15.344Z</time></trkpt><trkpt lat="43.9333406" lon="7.87864"><ele>1011.5999999999999</ele><time>2026-04-26T12:27:17.345Z</time></trkpt><trkpt lat="43.9333094" lon="7.8787895"><ele>1008.4000000000001</ele><time>2026-04-26T12:27:19.344Z</time></trkpt><trkpt lat="43.933253" lon="7.8789143"><ele>1005.2</ele><time>2026-04-26T12:27:21.345Z</time></trkpt><trkpt lat="43.933156" lon="7.8790056"><ele>1002.0</ele><time>2026-04-26T12:27:23.345Z</time></trkpt><trkpt lat="43.9330372" lon="7.879069"><ele>1002.0</ele><time>2026-04-26T12:27:25.345Z</time></trkpt><trkpt lat="43.9329306" lon="7.8791061"><ele>1002.0</ele><time>2026-04-26T12:27:27.345Z</time></trkpt><trkpt lat="43.9328564" lon="7.8791356"><ele>1002.0</ele><time>2026-04-26T12:27:29.344Z</time></trkpt><trkpt lat="43.9327989" lon="7.8791748"><ele>1002.0</ele><time>2026-04-26T12:27:31.344Z</time></trkpt><trkpt lat="43.9327793" lon="7.8792592"><ele>1002.0</ele><time>2026-04-26T12:27:34.344Z</time></trkpt><trkpt lat="43.9328493" lon="7.8792816"><ele>1002.0</ele><time>2026-04-26T12:27:38.345Z</time></trkpt><trkpt lat="43.9329163" lon="7.8792541"><ele>1002.0</ele><time>2026-04-26T12:27:40.345Z</time></trkpt><trkpt lat="43.932985" lon="7.8792149"><ele>1002.0</ele><time>2026-04-26T12:27:42.345Z</time></trkpt><trkpt lat="43.933051" lon="7.8792117"><ele>1002.0</ele><time>2026-04-26T12:27:44.344Z</time></trkpt><trkpt lat="43.9331231" lon="7.8792029"><ele>1002.0</ele><time>2026-04-26T12:27:46.345Z</time></trkpt><trkpt lat="43.9332071" lon="7.8791777"><ele>1002.0</ele><time>2026-04-26T12:27:49.345Z</time></trkpt><trkpt lat="43.9331976" lon="7.8792837"><ele>1002.0</ele><time>2026-04-26T12:27:53.345Z</time></trkpt><trkpt lat="43.9331182" lon="7.8793203"><ele>997.1666666666666</ele><time>2026-04-26T12:27:56.346Z</time></trkpt><trkpt lat="43.9330375" lon="7.8793621"><ele>992.3333333333333</ele><time>2026-04-26T12:27:59.345Z</time></trkpt><trkpt lat="43.9329747" lon="7.8794091"><ele>987.5</ele><time>2026-04-26T12:28:10.344Z</time></trkpt><trkpt lat="43.9329135" lon="7.8794738"><ele>982.6666666666666</ele><time>2026-04-26T12:28:58.345Z</time></trkpt><trkpt lat="43.9328441" lon="7.8795569"><ele>977.8333333333333</ele><time>2026-04-26T12:29:01.345Z</time></trkpt><trkpt lat="43.932774" lon="7.8796212"><ele>973.0</ele><time>2026-04-26T12:29:04.344Z</time></trkpt><trkpt lat="43.9327135" lon="7.879658"><ele>972.9999999999999</ele><time>2026-04-26T12:29:07.344Z</time></trkpt><trkpt lat="43.9326773" lon="7.8797464"><ele>973.0</ele><time>2026-04-26T12:29:11.344Z</time></trkpt><trkpt lat="43.9327403" lon="7.8797759"><ele>973.0</ele><time>2026-04-26T12:29:14.345Z</time></trkpt><trkpt lat="43.9328163" lon="7.8797108"><ele>973.0</ele><time>2026-04-26T12:29:17.345Z</time></trkpt><trkpt lat="43.9328892" lon="7.8796568"><ele>972.9999999999999</ele><time>2026-04-26T12:29:19.345Z</time></trkpt><trkpt lat="43.9329678" lon="7.8796168"><ele>973.0</ele><time>2026-04-26T12:29:21.345Z</time></trkpt><trkpt lat="43.9330324" lon="7.879595"><ele>972.9999999999999</ele><time>2026-04-26T12:29:23.345Z</time></trkpt><trkpt lat="43.933105" lon="7.8795453"><ele>973.0</ele><time>2026-04-26T12:29:26.345Z</time></trkpt><trkpt lat="43.9331325" lon="7.8796456"><ele>973.0</ele><time>2026-04-26T12:29:30.344Z</time></trkpt><trkpt lat="43.9330803" lon="7.8797138"><ele>973.0</ele><time>2026-04-26T12:29:32.345Z</time></trkpt><trkpt lat="43.9329963" lon="7.8797633"><ele>972.9999999999999</ele><time>2026-04-26T12:29:34.345Z</time></trkpt><trkpt lat="43.9329153" lon="7.8798532"><ele>973.0</ele><time>2026-04-26T12:29:36.344Z</time></trkpt><trkpt lat="43.9328423" lon="7.8799633"><ele>972.9999999999999</ele><time>2026-04-26T12:29:38.345Z</time></trkpt><trkpt lat="43.9327657" lon="7.8800612"><ele>973.0</ele><time>2026-04-26T12:29:40.347Z</time></trkpt><trkpt lat="43.9326884" lon="7.8801623"><ele>973.0</ele><time>2026-04-26T12:29:42.344Z</time></trkpt><trkpt lat="43.9326305" lon="7.8802514"><ele>973.0</ele><time>2026-04-26T12:29:44.344Z</time></trkpt><trkpt lat="43.9325625" lon="7.8802904"><ele>972.9999999999999</ele><time>2026-04-26T12:29:46.346Z</time></trkpt><trkpt lat="43.9324982" lon="7.8802927"><ele>973.0</ele><time>2026-04-26T12:29:48.344Z</time></trkpt><trkpt lat="43.9324811" lon="7.880403"><ele>970.8333333333333</ele><time>2026-04-26T12:29:51.345Z</time></trkpt><trkpt lat="43.9325251" lon="7.8804809"><ele>968.6666666666666</ele><time>2026-04-26T12:29:53.344Z</time></trkpt><trkpt lat="43.9325973" lon="7.8805103"><ele>966.5</ele><time>2026-04-26T12:29:55.346Z</time></trkpt><trkpt lat="43.9326689" lon="7.8804841"><ele>964.3333333333333</ele><time>2026-04-26T12:29:57.344Z</time></trkpt><trkpt lat="43.932744" lon="7.8804116"><ele>962.1666666666666</ele><time>2026-04-26T12:29:59.345Z</time></trkpt><trkpt lat="43.9328028" lon="7.8803406"><ele>960.0</ele><time>2026-04-26T12:30:01.345Z</time></trkpt><trkpt lat="43.932866" lon="7.8802801"><ele>957.0</ele><time>2026-04-26T12:30:03.344Z</time></trkpt><trkpt lat="43.9329434" lon="7.8802228"><ele>954.0</ele><time>2026-04-26T12:30:05.344Z</time></trkpt><trkpt lat="43.9330115" lon="7.8801758"><ele>951.0</ele><time>2026-04-26T12:30:07.346Z</time></trkpt><trkpt lat="43.9330911" lon="7.8801685"><ele>948.0</ele><time>2026-04-26T12:30:10.345Z</time></trkpt><trkpt lat="43.9330927" lon="7.8802733"><ele>945.0</ele><time>2026-04-26T12:30:13.345Z</time></trkpt><trkpt lat="43.9330293" lon="7.8803086"><ele>942.0</ele><time>2026-04-26T12:30:15.346Z</time></trkpt><trkpt lat="43.9329609" lon="7.8803605"><ele>942.0</ele><time>2026-04-26T12:30:17.344Z</time></trkpt><trkpt lat="43.9328934" lon="7.8804522"><ele>942.0</ele><time>2026-04-26T12:30:19.345Z</time></trkpt><trkpt lat="43.9328335" lon="7.8805563"><ele>942.0</ele><time>2026-04-26T12:30:21.344Z</time></trkpt><trkpt lat="43.9327778" lon="7.8806633"><ele>942.0</ele><time>2026-04-26T12:30:23.346Z</time></trkpt><trkpt lat="43.9327279" lon="7.8807795"><ele>942.0</ele><time>2026-04-26T12:30:25.346Z</time></trkpt><trkpt lat="43.9326856" lon="7.8808957"><ele>941.0</ele><time>2026-04-26T12:30:27.345Z</time></trkpt><trkpt lat="43.9326245" lon="7.880999"><ele>940.0</ele><time>2026-04-26T12:30:29.345Z</time></trkpt><trkpt lat="43.9325461" lon="7.8810994"><ele>939.0</ele><time>2026-04-26T12:30:31.345Z</time></trkpt><trkpt lat="43.9324729" lon="7.881168"><ele>938.0</ele><time>2026-04-26T12:30:33.344Z</time></trkpt><trkpt lat="43.9324019" lon="7.8812192"><ele>937.0</ele><time>2026-04-26T12:30:36.346Z</time></trkpt><trkpt lat="43.9324192" lon="7.8813246"><ele>936.0</ele><time>2026-04-26T12:30:40.345Z</time></trkpt><trkpt lat="43.9324999" lon="7.8813195"><ele>937.0</ele><time>2026-04-26T12:30:43.345Z</time></trkpt><trkpt lat="43.9325621" lon="7.8812882"><ele>938.0</ele><time>2026-04-26T12:30:45.345Z</time></trkpt><trkpt lat="43.9326217" lon="7.8812328"><ele>939.0</ele><time>2026-04-26T12:30:47.346Z</time></trkpt><trkpt lat="43.9326718" lon="7.8811469"><ele>940.0</ele><time>2026-04-26T12:30:49.346Z</time></trkpt><trkpt lat="43.932752" lon="7.8810559"><ele>941.0</ele><time>2026-04-26T12:30:51.345Z</time></trkpt><trkpt lat="43.9328442" lon="7.8809745"><ele>942.0</ele><time>2026-04-26T12:30:53.345Z</time></trkpt><trkpt lat="43.932936" lon="7.8809079"><ele>942.0</ele><time>2026-04-26T12:30:55.346Z</time></trkpt><trkpt lat="43.9330162" lon="7.8808516"><ele>942.0</ele><time>2026-04-26T12:30:57.344Z</time></trkpt><trkpt lat="43.9330887" lon="7.8807995"><ele>942.0</ele><time>2026-04-26T12:30:59.345Z</time></trkpt><trkpt lat="43.9331794" lon="7.8807299"><ele>942.0</ele><time>2026-04-26T12:31:01.344Z</time></trkpt><trkpt lat="43.9332703" lon="7.8806559"><ele>942.0</ele><time>2026-04-26T12:31:03.346Z</time></trkpt><trkpt lat="43.9333617" lon="7.8805876"><ele>938.8</ele><time>2026-04-26T12:31:05.346Z</time></trkpt><trkpt lat="43.9334532" lon="7.8805087"><ele>935.6</ele><time>2026-04-26T12:31:07.345Z</time></trkpt><trkpt lat="43.9335493" lon="7.8804255"><ele>932.3999999999999</ele><time>2026-04-26T12:31:09.346Z</time></trkpt><trkpt lat="43.9336051" lon="7.8803771"><ele>929.1999999999999</ele><time>2026-04-26T12:31:10.345Z</time></trkpt><trkpt lat="43.9337064" lon="7.8803454"><ele>926.0</ele><time>2026-04-26T12:31:12.345Z</time></trkpt><trkpt lat="43.9337712" lon="7.8803828"><ele>926.0000000000001</ele><time>2026-04-26T12:31:14.346Z</time></trkpt><trkpt lat="43.9337488" lon="7.8804788"><ele>926.0</ele><time>2026-04-26T12:31:17.345Z</time></trkpt><trkpt lat="43.9336864" lon="7.8805225"><ele>926.0</ele><time>2026-04-26T12:31:19.345Z</time></trkpt><trkpt lat="43.9336263" lon="7.880585"><ele>926.0</ele><time>2026-04-26T12:31:21.345Z</time></trkpt><trkpt lat="43.9335739" lon="7.8806851"><ele>926.0000000000001</ele><time>2026-04-26T12:31:23.345Z</time></trkpt><trkpt lat="43.9335543" lon="7.8807765"><ele>926.0</ele><time>2026-04-26T12:31:24.346Z</time></trkpt><trkpt lat="43.9335249" lon="7.8808933"><ele>923.8</ele><time>2026-04-26T12:31:26.344Z</time></trkpt><trkpt lat="43.93347" lon="7.8810137"><ele>921.5999999999999</ele><time>2026-04-26T12:31:28.345Z</time></trkpt><trkpt lat="43.9333795" lon="7.8810894"><ele>919.4</ele><time>2026-04-26T12:31:30.345Z</time></trkpt><trkpt lat="43.9332902" lon="7.8811592"><ele>917.2</ele><time>2026-04-26T12:31:32.346Z</time></trkpt><trkpt lat="43.9332301" lon="7.8812682"><ele>915.0</ele><time>2026-04-26T12:31:34.346Z</time></trkpt><trkpt lat="43.9331711" lon="7.8813864"><ele>915.0</ele><time>2026-04-26T12:31:36.346Z</time></trkpt><trkpt lat="43.9331084" lon="7.8815039"><ele>915.0</ele><time>2026-04-26T12:31:38.345Z</time></trkpt><trkpt lat="43.9330218" lon="7.8815898"><ele>915.0</ele><time>2026-04-26T12:31:40.345Z</time></trkpt><trkpt lat="43.9329556" lon="7.8817305"><ele>915.0</ele><time>2026-04-26T12:31:42.345Z</time></trkpt><trkpt lat="43.9329213" lon="7.8818184"><ele>915.0</ele><time>2026-04-26T12:31:43.346Z</time></trkpt><trkpt lat="43.932889" lon="7.8819047"><ele>912.1666666666666</ele><time>2026-04-26T12:31:44.346Z</time></trkpt><trkpt lat="43.9328706" lon="7.8819932"><ele>909.3333333333333</ele><time>2026-04-26T12:31:45.346Z</time></trkpt><trkpt lat="43.932851" lon="7.8820867"><ele>906.5</ele><time>2026-04-26T12:31:46.346Z</time></trkpt><trkpt lat="43.9328008" lon="7.8822619"><ele>903.6666666666666</ele><time>2026-04-26T12:31:48.346Z</time></trkpt><trkpt lat="43.9327671" lon="7.8823642"><ele>900.8333333333333</ele><time>2026-04-26T12:31:49.345Z</time></trkpt><trkpt lat="43.9327362" lon="7.8824842"><ele>898.0</ele><time>2026-04-26T12:31:50.345Z</time></trkpt><trkpt lat="43.9327029" lon="7.8826068"><ele>894.4999999999999</ele><time>2026-04-26T12:31:51.344Z</time></trkpt><trkpt lat="43.9326735" lon="7.8827432"><ele>891.0</ele><time>2026-04-26T12:31:52.345Z</time></trkpt><trkpt lat="43.9326663" lon="7.8828462"><ele>887.5</ele><time>2026-04-26T12:31:53.345Z</time></trkpt><trkpt lat="43.9326444" lon="7.8829617"><ele>884.0</ele><time>2026-04-26T12:31:54.347Z</time></trkpt><trkpt lat="43.9326062" lon="7.8830372"><ele>880.4999999999999</ele><time>2026-04-26T12:31:55.346Z</time></trkpt><trkpt lat="43.9325962" lon="7.8831343"><ele>877.0</ele><time>2026-04-26T12:31:57.345Z</time></trkpt><trkpt lat="43.9326656" lon="7.8831064"><ele>876.9999999999999</ele><time>2026-04-26T12:32:01.345Z</time></trkpt><trkpt lat="43.9327081" lon="7.8830248"><ele>877.0</ele><time>2026-04-26T12:32:03.346Z</time></trkpt><trkpt lat="43.9327683" lon="7.8829141"><ele>877.0</ele><time>2026-04-26T12:32:05.346Z</time></trkpt><trkpt lat="43.9328335" lon="7.8828213"><ele>877.0</ele><time>2026-04-26T12:32:07.346Z</time></trkpt><trkpt lat="43.9328909" lon="7.8827278"><ele>876.9999999999999</ele><time>2026-04-26T12:32:09.346Z</time></trkpt><trkpt lat="43.9329435" lon="7.882629"><ele>877.0</ele><time>2026-04-26T12:32:11.346Z</time></trkpt><trkpt lat="43.9330154" lon="7.8825276"><ele>878.8</ele><time>2026-04-26T12:32:13.345Z</time></trkpt><trkpt lat="43.9330956" lon="7.8824488"><ele>880.6</ele><time>2026-04-26T12:32:15.346Z</time></trkpt><trkpt lat="43.9331836" lon="7.882386"><ele>882.3999999999999</ele><time>2026-04-26T12:32:17.346Z</time></trkpt><trkpt lat="43.9332701" lon="7.8823359"><ele>884.1999999999999</ele><time>2026-04-26T12:32:19.345Z</time></trkpt><trkpt lat="43.9333594" lon="7.8822728"><ele>886.0</ele><time>2026-04-26T12:32:21.345Z</time></trkpt><trkpt lat="43.9334367" lon="7.8822041"><ele>886.0</ele><time>2026-04-26T12:32:23.346Z</time></trkpt><trkpt lat="43.9335056" lon="7.882117"><ele>885.9999999999999</ele><time>2026-04-26T12:32:25.346Z</time></trkpt><trkpt lat="43.9335729" lon="7.8820141"><ele>885.9999999999999</ele><time>2026-04-26T12:32:27.345Z</time></trkpt><trkpt lat="43.9336708" lon="7.8819171"><ele>886.0</ele><time>2026-04-26T12:32:29.346Z</time></trkpt><trkpt lat="43.9337895" lon="7.881869"><ele>886.0</ele><time>2026-04-26T12:32:31.346Z</time></trkpt><trkpt lat="43.933889" lon="7.8818808"><ele>886.0</ele><time>2026-04-26T12:32:33.345Z</time></trkpt><trkpt lat="43.933967" lon="7.8819769"><ele>885.9999999999999</ele><time>2026-04-26T12:32:35.346Z</time></trkpt><trkpt lat="43.9340396" lon="7.8820881"><ele>885.9999999999999</ele><time>2026-04-26T12:32:37.346Z</time></trkpt><trkpt lat="43.9341336" lon="7.8821487"><ele>886.0</ele><time>2026-04-26T12:32:39.346Z</time></trkpt><trkpt lat="43.9342038" lon="7.8821608"><ele>886.0</ele><time>2026-04-26T12:32:40.344Z</time></trkpt><trkpt lat="43.9342664" lon="7.8821767"><ele>886.9999999999999</ele><time>2026-04-26T12:32:41.345Z</time></trkpt><trkpt lat="43.9343704" lon="7.8822232"><ele>888.0</ele><time>2026-04-26T12:32:43.344Z</time></trkpt><trkpt lat="43.9344415" lon="7.8822793"><ele>889.0</ele><time>2026-04-26T12:32:45.344Z</time></trkpt><trkpt lat="43.9344528" lon="7.8823801"><ele>890.0</ele><time>2026-04-26T12:32:47.346Z</time></trkpt><trkpt lat="43.9343947" lon="7.8824479"><ele>890.9999999999999</ele><time>2026-04-26T12:32:49.345Z</time></trkpt><trkpt lat="43.9343185" lon="7.8824875"><ele>892.0</ele><time>2026-04-26T12:32:51.346Z</time></trkpt><trkpt lat="43.9342278" lon="7.882492"><ele>890.8</ele><time>2026-04-26T12:32:53.344Z</time></trkpt><trkpt lat="43.934116" lon="7.8824891"><ele>889.6</ele><time>2026-04-26T12:32:55.345Z</time></trkpt><trkpt lat="43.9340026" lon="7.8824492"><ele>888.3999999999999</ele><time>2026-04-26T12:32:57.345Z</time></trkpt><trkpt lat="43.9339382" lon="7.8824081"><ele>887.1999999999999</ele><time>2026-04-26T12:32:58.346Z</time></trkpt><trkpt lat="43.9338462" lon="7.882374"><ele>886.0</ele><time>2026-04-26T12:33:00.346Z</time></trkpt><trkpt lat="43.933775" lon="7.8824382"><ele>886.0</ele><time>2026-04-26T12:33:02.345Z</time></trkpt><trkpt lat="43.9337093" lon="7.8825611"><ele>885.9999999999999</ele><time>2026-04-26T12:33:04.346Z</time></trkpt><trkpt lat="43.9336357" lon="7.8827042"><ele>885.9999999999999</ele><time>2026-04-26T12:33:06.345Z</time></trkpt><trkpt lat="43.9335942" lon="7.8827701"><ele>886.0</ele><time>2026-04-26T12:33:07.346Z</time></trkpt><trkpt lat="43.9335271" lon="7.8828715"><ele>886.0</ele><time>2026-04-26T12:33:09.345Z</time></trkpt><trkpt lat="43.9335165" lon="7.8829833"><ele>883.2857142857143</ele><time>2026-04-26T12:33:12.345Z</time></trkpt><trkpt lat="43.9335789" lon="7.8830083"><ele>880.5714285714287</ele><time>2026-04-26T12:33:15.345Z</time></trkpt><trkpt lat="43.9336537" lon="7.8829658"><ele>877.8571428571429</ele><time>2026-04-26T12:33:18.346Z</time></trkpt><trkpt lat="43.9337138" lon="7.882921"><ele>875.1428571428571</ele><time>2026-04-26T12:33:20.345Z</time></trkpt><trkpt lat="43.9337714" lon="7.8828813"><ele>872.4285714285714</ele><time>2026-04-26T12:33:22.346Z</time></trkpt><trkpt lat="43.9338615" lon="7.8828657"><ele>869.7142857142857</ele><time>2026-04-26T12:33:25.345Z</time></trkpt><trkpt lat="43.9339066" lon="7.8829389"><ele>867.0</ele><time>2026-04-26T12:33:27.345Z</time></trkpt><trkpt lat="43.9339514" lon="7.8830551"><ele>867.0</ele><time>2026-04-26T12:33:29.346Z</time></trkpt><trkpt lat="43.9340304" lon="7.8831213"><ele>867.0</ele><time>2026-04-26T12:33:31.347Z</time></trkpt><trkpt lat="43.9341257" lon="7.883166"><ele>867.0</ele><time>2026-04-26T12:33:33.344Z</time></trkpt><trkpt lat="43.934219" lon="7.8832376"><ele>867.0</ele><time>2026-04-26T12:33:35.345Z</time></trkpt><trkpt lat="43.9342987" lon="7.8833115"><ele>867.0</ele><time>2026-04-26T12:33:37.346Z</time></trkpt><trkpt lat="43.9343522" lon="7.8833768"><ele>862.8</ele><time>2026-04-26T12:33:39.345Z</time></trkpt><trkpt lat="43.9343739" lon="7.8834952"><ele>858.6</ele><time>2026-04-26T12:33:42.346Z</time></trkpt><trkpt lat="43.9343213" lon="7.8835779"><ele>854.4</ele><time>2026-04-26T12:33:44.346Z</time></trkpt><trkpt lat="43.9342297" lon="7.8836582"><ele>850.1999999999999</ele><time>2026-04-26T12:33:46.346Z</time></trkpt><trkpt lat="43.934129" lon="7.8837126"><ele>846.0</ele><time>2026-04-26T12:33:48.345Z</time></trkpt><trkpt lat="43.9340281" lon="7.8836856"><ele>846.0</ele><time>2026-04-26T12:33:50.346Z</time></trkpt><trkpt lat="43.9339492" lon="7.8836248"><ele>846.0</ele><time>2026-04-26T12:33:52.345Z</time></trkpt><trkpt lat="43.9338713" lon="7.8835817"><ele>846.0</ele><time>2026-04-26T12:33:54.345Z</time></trkpt><trkpt lat="43.933797" lon="7.8835814"><ele>846.0</ele><time>2026-04-26T12:33:56.345Z</time></trkpt><trkpt lat="43.9337432" lon="7.883634"><ele>846.0</ele><time>2026-04-26T12:33:58.345Z</time></trkpt><trkpt lat="43.9337169" lon="7.8837597"><ele>846.0</ele><time>2026-04-26T12:34:00.345Z</time></trkpt><trkpt lat="43.9337024" lon="7.8838672"><ele>846.0</ele><time>2026-04-26T12:34:01.346Z</time></trkpt><trkpt lat="43.9336919" lon="7.8839777"><ele>846.0</ele><time>2026-04-26T12:34:02.346Z</time></trkpt><trkpt lat="43.9336902" lon="7.8840837"><ele>846.0</ele><time>2026-04-26T12:34:03.345Z</time></trkpt><trkpt lat="43.9336922" lon="7.8842055"><ele>846.0</ele><time>2026-04-26T12:34:05.345Z</time></trkpt><trkpt lat="43.9336444" lon="7.8842881"><ele>846.0</ele><time>2026-04-26T12:34:07.346Z</time></trkpt><trkpt lat="43.9335756" lon="7.8843733"><ele>846.0</ele><time>2026-04-26T12:34:09.345Z</time></trkpt><trkpt lat="43.9335405" lon="7.8844524"><ele>845.8333333333334</ele><time>2026-04-26T12:34:10.346Z</time></trkpt><trkpt lat="43.9335002" lon="7.8845364"><ele>845.6666666666667</ele><time>2026-04-26T12:34:11.345Z</time></trkpt><trkpt lat="43.9334646" lon="7.8846293"><ele>845.5</ele><time>2026-04-26T12:34:12.346Z</time></trkpt><trkpt lat="43.9334254" lon="7.8847367"><ele>845.3333333333334</ele><time>2026-04-26T12:34:13.346Z</time></trkpt><trkpt lat="43.9333775" lon="7.8848439"><ele>845.1666666666667</ele><time>2026-04-26T12:34:14.345Z</time></trkpt><trkpt lat="43.9333315" lon="7.8849509"><ele>845.0</ele><time>2026-04-26T12:34:15.346Z</time></trkpt><trkpt lat="43.9333211" lon="7.8850512"><ele>842.4</ele><time>2026-04-26T12:34:16.346Z</time></trkpt><trkpt lat="43.9333139" lon="7.8851738"><ele>839.8</ele><time>2026-04-26T12:34:17.346Z</time></trkpt><trkpt lat="43.9333187" lon="7.885306"><ele>837.2</ele><time>2026-04-26T12:34:18.346Z</time></trkpt><trkpt lat="43.9333302" lon="7.8854376"><ele>834.6</ele><time>2026-04-26T12:34:19.346Z</time></trkpt><trkpt lat="43.9333368" lon="7.885568"><ele>832.0</ele><time>2026-04-26T12:34:20.346Z</time></trkpt><trkpt lat="43.9333469" lon="7.8856942"><ele>831.9999999999999</ele><time>2026-04-26T12:34:21.346Z</time></trkpt><trkpt lat="43.9333638" lon="7.8858109"><ele>832.0</ele><time>2026-04-26T12:34:22.345Z</time></trkpt><trkpt lat="43.9333841" lon="7.88592"><ele>832.0</ele><time>2026-04-26T12:34:23.346Z</time></trkpt><trkpt lat="43.9333827" lon="7.8860256"><ele>832.0</ele><time>2026-04-26T12:34:24.346Z</time></trkpt><trkpt lat="43.9333592" lon="7.8861306"><ele>831.9999999999999</ele><time>2026-04-26T12:34:25.345Z</time></trkpt><trkpt lat="43.9333304" lon="7.8862113"><ele>832.0</ele><time>2026-04-26T12:34:26.347Z</time></trkpt><trkpt lat="43.9332683" lon="7.8863463"><ele>830.1666666666666</ele><time>2026-04-26T12:34:28.345Z</time></trkpt><trkpt lat="43.9332286" lon="7.8864327"><ele>828.3333333333333</ele><time>2026-04-26T12:34:30.345Z</time></trkpt><trkpt lat="43.9333111" lon="7.8864943"><ele>826.5</ele><time>2026-04-26T12:35:44.345Z</time></trkpt><trkpt lat="43.9333782" lon="7.8864036"><ele>824.6666666666667</ele><time>2026-04-26T12:35:47.346Z</time></trkpt><trkpt lat="43.9334358" lon="7.8863027"><ele>822.8333333333334</ele><time>2026-04-26T12:35:49.347Z</time></trkpt><trkpt lat="43.9334823" lon="7.8861981"><ele>821.0</ele><time>2026-04-26T12:35:51.346Z</time></trkpt><trkpt lat="43.9335291" lon="7.8860952"><ele>818.3333333333334</ele><time>2026-04-26T12:35:53.346Z</time></trkpt><trkpt lat="43.9335643" lon="7.8860086"><ele>815.6666666666667</ele><time>2026-04-26T12:35:55.346Z</time></trkpt><trkpt lat="43.9335959" lon="7.8859206"><ele>813.0</ele><time>2026-04-26T12:35:57.345Z</time></trkpt><trkpt lat="43.933619" lon="7.8858115"><ele>810.3333333333333</ele><time>2026-04-26T12:36:10.346Z</time></trkpt><trkpt lat="43.9336629" lon="7.8857222"><ele>807.6666666666666</ele><time>2026-04-26T12:36:13.345Z</time></trkpt><trkpt lat="43.9337364" lon="7.88571"><ele>805.0</ele><time>2026-04-26T12:36:16.347Z</time></trkpt><trkpt lat="43.9337788" lon="7.8858097"><ele>803.4999999999999</ele><time>2026-04-26T12:36:18.346Z</time></trkpt><trkpt lat="43.9337773" lon="7.8859353"><ele>802.0</ele><time>2026-04-26T12:36:20.345Z</time></trkpt><trkpt lat="43.9337803" lon="7.8860621"><ele>800.5</ele><time>2026-04-26T12:36:22.347Z</time></trkpt><trkpt lat="43.9337669" lon="7.88617"><ele>799.0</ele><time>2026-04-26T12:36:24.346Z</time></trkpt><trkpt lat="43.9337489" lon="7.8862548"><ele>797.4999999999999</ele><time>2026-04-26T12:36:26.345Z</time></trkpt><trkpt lat="43.9337373" lon="7.8863505"><ele>796.0</ele><time>2026-04-26T12:36:28.346Z</time></trkpt><trkpt lat="43.9337332" lon="7.8864708"><ele>795.9999999999999</ele><time>2026-04-26T12:36:30.345Z</time></trkpt><trkpt lat="43.9337327" lon="7.8865694"><ele>796.0</ele><time>2026-04-26T12:36:32.347Z</time></trkpt><trkpt lat="43.9337313" lon="7.8866799"><ele>796.0</ele><time>2026-04-26T12:36:34.347Z</time></trkpt><trkpt lat="43.9337279" lon="7.8867937"><ele>796.0</ele><time>2026-04-26T12:36:36.347Z</time></trkpt><trkpt lat="43.9337371" lon="7.886901"><ele>795.9999999999999</ele><time>2026-04-26T12:36:53.346Z</time></trkpt><trkpt lat="43.9337444" lon="7.8869975"><ele>796.0</ele><time>2026-04-26T12:36:56.347Z</time></trkpt><trkpt lat="43.9337308" lon="7.8871335"><ele>794.1999999999999</ele><time>2026-04-26T12:36:58.345Z</time></trkpt><trkpt lat="43.9337263" lon="7.8872815"><ele>792.4</ele><time>2026-04-26T12:37:00.346Z</time></trkpt><trkpt lat="43.93371" lon="7.8874197"><ele>790.6</ele><time>2026-04-26T12:37:02.346Z</time></trkpt><trkpt lat="43.9336909" lon="7.8875826"><ele>788.8</ele><time>2026-04-26T12:37:04.347Z</time></trkpt><trkpt lat="43.9336931" lon="7.8876788"><ele>787.0</ele><time>2026-04-26T12:37:05.347Z</time></trkpt><trkpt lat="43.9336742" lon="7.8878397"><ele>784.4000000000001</ele><time>2026-04-26T12:37:07.347Z</time></trkpt><trkpt lat="43.9336463" lon="7.8879742"><ele>781.8000000000001</ele><time>2026-04-26T12:37:09.346Z</time></trkpt><trkpt lat="43.9336167" lon="7.8881305"><ele>779.2</ele><time>2026-04-26T12:37:11.347Z</time></trkpt><trkpt lat="43.9335925" lon="7.8882506"><ele>776.6</ele><time>2026-04-26T12:37:13.347Z</time></trkpt><trkpt lat="43.933525" lon="7.8883634"><ele>774.0</ele><time>2026-04-26T12:37:15.345Z</time></trkpt><trkpt lat="43.9335012" lon="7.8884797"><ele>774.0</ele><time>2026-04-26T12:37:18.346Z</time></trkpt><trkpt lat="43.9335805" lon="7.88851"><ele>774.0</ele><time>2026-04-26T12:37:21.346Z</time></trkpt><trkpt lat="43.9336263" lon="7.888444"><ele>774.0</ele><time>2026-04-26T12:37:23.346Z</time></trkpt><trkpt lat="43.9336684" lon="7.888352"><ele>774.0</ele><time>2026-04-26T12:37:25.345Z</time></trkpt><trkpt lat="43.9337196" lon="7.888227"><ele>774.0</ele><time>2026-04-26T12:37:27.347Z</time></trkpt><trkpt lat="43.9337716" lon="7.8881105"><ele>774.0</ele><time>2026-04-26T12:37:29.346Z</time></trkpt><trkpt lat="43.9338176" lon="7.8879906"><ele>774.0</ele><time>2026-04-26T12:37:31.347Z</time></trkpt><trkpt lat="43.9338714" lon="7.8878585"><ele>774.0</ele><time>2026-04-26T12:37:33.347Z</time></trkpt><trkpt lat="43.9339133" lon="7.8877289"><ele>774.0</ele><time>2026-04-26T12:37:35.346Z</time></trkpt><trkpt lat="43.9339431" lon="7.8876444"><ele>774.0</ele><time>2026-04-26T12:37:36.346Z</time></trkpt><trkpt lat="43.9339606" lon="7.8874496"><ele>774.0</ele><time>2026-04-26T12:37:38.346Z</time></trkpt><trkpt lat="43.933992" lon="7.8872918"><ele>776.1666666666666</ele><time>2026-04-26T12:37:40.346Z</time></trkpt><trkpt lat="43.9340432" lon="7.8871906"><ele>778.3333333333333</ele><time>2026-04-26T12:37:42.347Z</time></trkpt><trkpt lat="43.9340911" lon="7.8871148"><ele>780.5</ele><time>2026-04-26T12:37:44.346Z</time></trkpt><trkpt lat="43.934155" lon="7.8871548"><ele>782.6666666666666</ele><time>2026-04-26T12:37:47.347Z</time></trkpt><trkpt lat="43.9341586" lon="7.8872554"><ele>784.8333333333333</ele><time>2026-04-26T12:37:49.346Z</time></trkpt><trkpt lat="43.9341625" lon="7.887382"><ele>787.0</ele><time>2026-04-26T12:37:51.348Z</time></trkpt><trkpt lat="43.9341477" lon="7.8875192"><ele>784.8333333333333</ele><time>2026-04-26T12:37:53.345Z</time></trkpt><trkpt lat="43.9341416" lon="7.8876578"><ele>782.6666666666666</ele><time>2026-04-26T12:37:55.346Z</time></trkpt><trkpt lat="43.9341378" lon="7.8877884"><ele>780.5</ele><time>2026-04-26T12:37:58.347Z</time></trkpt><trkpt lat="43.9341377" lon="7.8878999"><ele>778.3333333333333</ele><time>2026-04-26T12:38:16.345Z</time></trkpt><trkpt lat="43.9341103" lon="7.888007"><ele>776.1666666666666</ele><time>2026-04-26T12:38:19.346Z</time></trkpt><trkpt lat="43.9340879" lon="7.8880921"><ele>774.0</ele><time>2026-04-26T12:38:47.347Z</time></trkpt><trkpt lat="43.9340831" lon="7.8882121"><ele>774.0</ele><time>2026-04-26T12:38:50.347Z</time></trkpt><trkpt lat="43.934086" lon="7.8883261"><ele>774.0</ele><time>2026-04-26T12:38:53.347Z</time></trkpt><trkpt lat="43.9340855" lon="7.8884143"><ele>774.0</ele><time>2026-04-26T12:38:55.345Z</time></trkpt><trkpt lat="43.9340836" lon="7.8885202"><ele>774.0</ele><time>2026-04-26T12:38:58.348Z</time></trkpt><trkpt lat="43.9340954" lon="7.8886513"><ele>774.0</ele><time>2026-04-26T12:39:01.345Z</time></trkpt><trkpt lat="43.9340991" lon="7.8887744"><ele>774.0</ele><time>2026-04-26T12:39:04.346Z</time></trkpt><trkpt lat="43.9341049" lon="7.8889129"><ele>771.1666666666666</ele><time>2026-04-26T12:39:07.345Z</time></trkpt><trkpt lat="43.9340562" lon="7.8890526"><ele>768.3333333333334</ele><time>2026-04-26T12:39:09.346Z</time></trkpt><trkpt lat="43.9340347" lon="7.8891523"><ele>765.5</ele><time>2026-04-26T12:39:10.347Z</time></trkpt><trkpt lat="43.934023" lon="7.8892387"><ele>762.6666666666667</ele><time>2026-04-26T12:39:11.345Z</time></trkpt><trkpt lat="43.9339946" lon="7.8893233"><ele>759.8333333333334</ele><time>2026-04-26T12:39:12.346Z</time></trkpt><trkpt lat="43.9339226" lon="7.8894144"><ele>757.0</ele><time>2026-04-26T12:39:14.347Z</time></trkpt><trkpt lat="43.9338868" lon="7.8895057"><ele>757.0</ele><time>2026-04-26T12:39:16.346Z</time></trkpt><trkpt lat="43.9339505" lon="7.889549"><ele>757.0</ele><time>2026-04-26T12:39:19.347Z</time></trkpt><trkpt lat="43.934002" lon="7.8894823"><ele>757.0</ele><time>2026-04-26T12:39:21.346Z</time></trkpt><trkpt lat="43.9340628" lon="7.8893576"><ele>757.0</ele><time>2026-04-26T12:39:23.347Z</time></trkpt><trkpt lat="43.9341215" lon="7.889231"><ele>757.0</ele><time>2026-04-26T12:39:25.345Z</time></trkpt><trkpt lat="43.9341864" lon="7.8891129"><ele>750.2</ele><time>2026-04-26T12:39:27.346Z</time></trkpt><trkpt lat="43.9342472" lon="7.8889752"><ele>743.4000000000001</ele><time>2026-04-26T12:39:29.347Z</time></trkpt><trkpt lat="43.9342641" lon="7.8888866"><ele>736.5999999999999</ele><time>2026-04-26T12:39:30.346Z</time></trkpt><trkpt lat="43.9342971" lon="7.8887268"><ele>729.8</ele><time>2026-04-26T12:39:32.347Z</time></trkpt><trkpt lat="43.9343162" lon="7.8886013"><ele>723.0</ele><time>2026-04-26T12:39:34.346Z</time></trkpt><trkpt lat="43.9343315" lon="7.8884771"><ele>723.0</ele><time>2026-04-26T12:39:36.347Z</time></trkpt><trkpt lat="43.9343419" lon="7.8883659"><ele>723.0</ele><time>2026-04-26T12:39:38.346Z</time></trkpt><trkpt lat="43.9343675" lon="7.8882577"><ele>723.0</ele><time>2026-04-26T12:39:40.347Z</time></trkpt><trkpt lat="43.934434" lon="7.8882298"><ele>723.0</ele><time>2026-04-26T12:39:43.347Z</time></trkpt><trkpt lat="43.9344522" lon="7.8883395"><ele>723.0</ele><time>2026-04-26T12:39:46.346Z</time></trkpt><trkpt lat="43.9344629" lon="7.8884725"><ele>723.0</ele><time>2026-04-26T12:39:49.347Z</time></trkpt><trkpt lat="43.9344513" lon="7.8885738"><ele>723.0</ele><time>2026-04-26T12:39:51.347Z</time></trkpt><trkpt lat="43.9344444" lon="7.8886678"><ele>723.0</ele><time>2026-04-26T12:39:53.347Z</time></trkpt><trkpt lat="43.9344245" lon="7.8888415"><ele>723.0</ele><time>2026-04-26T12:39:55.346Z</time></trkpt><trkpt lat="43.9344113" lon="7.8889369"><ele>723.0</ele><time>2026-04-26T12:39:56.346Z</time></trkpt><trkpt lat="43.9344053" lon="7.8890889"><ele>723.0</ele><time>2026-04-26T12:39:58.346Z</time></trkpt><trkpt lat="43.9343879" lon="7.8892603"><ele>725.1666666666666</ele><time>2026-04-26T12:40:00.347Z</time></trkpt><trkpt lat="43.9343689" lon="7.889351"><ele>727.3333333333334</ele><time>2026-04-26T12:40:01.346Z</time></trkpt><trkpt lat="43.9343266" lon="7.8895151"><ele>729.5</ele><time>2026-04-26T12:40:03.347Z</time></trkpt><trkpt lat="43.9342678" lon="7.8896131"><ele>731.6666666666667</ele><time>2026-04-26T12:40:04.346Z</time></trkpt><trkpt lat="43.9342367" lon="7.8897052"><ele>733.8333333333334</ele><time>2026-04-26T12:40:05.347Z</time></trkpt><trkpt lat="43.9341976" lon="7.8897858"><ele>736.0</ele><time>2026-04-26T12:40:06.347Z</time></trkpt><trkpt lat="43.934165" lon="7.8898701"><ele>736.0</ele><time>2026-04-26T12:40:07.347Z</time></trkpt><trkpt lat="43.9341212" lon="7.8899729"><ele>736.0</ele><time>2026-04-26T12:40:09.346Z</time></trkpt><trkpt lat="43.9340814" lon="7.8900872"><ele>736.0</ele><time>2026-04-26T12:40:11.346Z</time></trkpt><trkpt lat="43.934134" lon="7.8901522"><ele>736.0</ele><time>2026-04-26T12:40:15.347Z</time></trkpt><trkpt lat="43.9342101" lon="7.8900971"><ele>736.0</ele><time>2026-04-26T12:40:21.347Z</time></trkpt><trkpt lat="43.9342482" lon="7.8899759"><ele>736.0</ele><time>2026-04-26T12:40:24.346Z</time></trkpt><trkpt lat="43.9343091" lon="7.8898866"><ele>731.5</ele><time>2026-04-26T12:40:26.346Z</time></trkpt><trkpt lat="43.9343797" lon="7.889791"><ele>727.0</ele><time>2026-04-26T12:40:28.346Z</time></trkpt><trkpt lat="43.934441" lon="7.8897159"><ele>722.5</ele><time>2026-04-26T12:40:30.346Z</time></trkpt><trkpt lat="43.9345068" lon="7.8896477"><ele>718.0</ele><time>2026-04-26T12:40:32.346Z</time></trkpt><trkpt lat="43.9345792" lon="7.8895928"><ele>713.5</ele><time>2026-04-26T12:40:34.347Z</time></trkpt><trkpt lat="43.9346185" lon="7.8896678"><ele>709.0</ele><time>2026-04-26T12:40:37.346Z</time></trkpt><trkpt lat="43.9345621" lon="7.8897528"><ele>709.0</ele><time>2026-04-26T12:40:40.347Z</time></trkpt><trkpt lat="43.9344994" lon="7.8898252"><ele>709.0</ele><time>2026-04-26T12:43:26.347Z</time></trkpt><trkpt lat="43.9344715" lon="7.8899169"><ele>709.0</ele><time>2026-04-26T12:43:28.347Z</time></trkpt><trkpt lat="43.9344459" lon="7.8900208"><ele>709.0</ele><time>2026-04-26T12:43:30.346Z</time></trkpt><trkpt lat="43.9344249" lon="7.890136"><ele>709.0</ele><time>2026-04-26T12:43:32.345Z</time></trkpt><trkpt lat="43.9344321" lon="7.8902597"><ele>709.0</ele><time>2026-04-26T12:43:34.347Z</time></trkpt><trkpt lat="43.9345004" lon="7.8903072"><ele>709.0</ele><time>2026-04-26T12:43:38.346Z</time></trkpt><trkpt lat="43.9345089" lon="7.8901993"><ele>709.0</ele><time>2026-04-26T12:43:40.347Z</time></trkpt><trkpt lat="43.9345085" lon="7.8900995"><ele>709.0</ele><time>2026-04-26T12:43:42.347Z</time></trkpt><trkpt lat="43.9345324" lon="7.8899997"><ele>709.0</ele><time>2026-04-26T12:43:44.347Z</time></trkpt><trkpt lat="43.9345835" lon="7.8899372"><ele>709.0</ele><time>2026-04-26T12:43:46.346Z</time></trkpt><trkpt lat="43.9346401" lon="7.8898695"><ele>709.0</ele><time>2026-04-26T12:43:48.347Z</time></trkpt><trkpt lat="43.9347073" lon="7.8898047"><ele>709.0</ele><time>2026-04-26T12:43:50.347Z</time></trkpt><trkpt lat="43.9347689" lon="7.8897338"><ele>709.0</ele><time>2026-04-26T12:43:52.348Z</time></trkpt><trkpt lat="43.934815" lon="7.8896529"><ele>709.0</ele><time>2026-04-26T12:43:54.346Z</time></trkpt><trkpt lat="43.9348804" lon="7.8895654"><ele>709.0</ele><time>2026-04-26T12:43:57.346Z</time></trkpt><trkpt lat="43.9349367" lon="7.889516"><ele>709.0</ele><time>2026-04-26T12:43:59.346Z</time></trkpt><trkpt lat="43.9350189" lon="7.889555"><ele>709.0</ele><time>2026-04-26T12:44:02.346Z</time></trkpt><trkpt lat="43.9350115" lon="7.8896606"><ele>709.0</ele><time>2026-04-26T12:44:05.348Z</time></trkpt><trkpt lat="43.9349559" lon="7.8897122"><ele>709.0</ele><time>2026-04-26T12:44:08.346Z</time></trkpt><trkpt lat="43.9348907" lon="7.8898005"><ele>709.0</ele><time>2026-04-26T12:44:11.346Z</time></trkpt><trkpt lat="43.9348766" lon="7.889926"><ele>709.0</ele><time>2026-04-26T12:44:13.347Z</time></trkpt><trkpt lat="43.9348556" lon="7.8900655"><ele>709.0</ele><time>2026-04-26T12:44:15.346Z</time></trkpt><trkpt lat="43.9348296" lon="7.890148"><ele>709.0</ele><time>2026-04-26T12:44:16.349Z</time></trkpt><trkpt lat="43.9348045" lon="7.8902357"><ele>705.4000000000001</ele><time>2026-04-26T12:44:17.349Z</time></trkpt><trkpt lat="43.9347911" lon="7.8903656"><ele>701.8</ele><time>2026-04-26T12:44:19.347Z</time></trkpt><trkpt lat="43.9347647" lon="7.890461"><ele>698.2</ele><time>2026-04-26T12:44:20.347Z</time></trkpt><trkpt lat="43.9347507" lon="7.8905603"><ele>694.5999999999999</ele><time>2026-04-26T12:44:21.348Z</time></trkpt><trkpt lat="43.9347119" lon="7.8907249"><ele>691.0</ele><time>2026-04-26T12:44:23.347Z</time></trkpt><trkpt lat="43.9346877" lon="7.8908645"><ele>687.0</ele><time>2026-04-26T12:44:25.347Z</time></trkpt><trkpt lat="43.9346356" lon="7.8910143"><ele>683.0</ele><time>2026-04-26T12:44:27.348Z</time></trkpt><trkpt lat="43.9345911" lon="7.8911536"><ele>679.0</ele><time>2026-04-26T12:44:29.347Z</time></trkpt><trkpt lat="43.9345356" lon="7.8912516"><ele>675.0</ele><time>2026-04-26T12:44:31.349Z</time></trkpt><trkpt lat="43.9344473" lon="7.8912955"><ele>671.0</ele><time>2026-04-26T12:44:33.347Z</time></trkpt><trkpt lat="43.9343466" lon="7.891252"><ele>671.0</ele><time>2026-04-26T12:44:35.347Z</time></trkpt><trkpt lat="43.9342899" lon="7.8912103"><ele>671.0</ele><time>2026-04-26T12:44:36.348Z</time></trkpt><trkpt lat="43.9342276" lon="7.8911655"><ele>671.0</ele><time>2026-04-26T12:44:37.348Z</time></trkpt><trkpt lat="43.9341142" lon="7.8910833"><ele>671.0</ele><time>2026-04-26T12:44:39.348Z</time></trkpt><trkpt lat="43.9340263" lon="7.8910025"><ele>671.0</ele><time>2026-04-26T12:44:41.348Z</time></trkpt><trkpt lat="43.9339286" lon="7.8909047"><ele>679.1999999999999</ele><time>2026-04-26T12:44:43.346Z</time></trkpt><trkpt lat="43.9338231" lon="7.8908331"><ele>687.4</ele><time>2026-04-26T12:44:45.348Z</time></trkpt><trkpt lat="43.9337024" lon="7.8908385"><ele>695.6</ele><time>2026-04-26T12:44:47.348Z</time></trkpt><trkpt lat="43.9335953" lon="7.890831"><ele>703.8</ele><time>2026-04-26T12:44:49.346Z</time></trkpt><trkpt lat="43.9334927" lon="7.8908201"><ele>712.0</ele><time>2026-04-26T12:44:51.347Z</time></trkpt><trkpt lat="43.9334106" lon="7.8908696"><ele>705.4000000000001</ele><time>2026-04-26T12:44:53.348Z</time></trkpt><trkpt lat="43.9333185" lon="7.890937"><ele>698.8000000000001</ele><time>2026-04-26T12:44:55.347Z</time></trkpt><trkpt lat="43.9332111" lon="7.8909957"><ele>692.2</ele><time>2026-04-26T12:44:57.348Z</time></trkpt><trkpt lat="43.9330969" lon="7.891024"><ele>685.6</ele><time>2026-04-26T12:44:59.347Z</time></trkpt><trkpt lat="43.9330129" lon="7.8910752"><ele>679.0</ele><time>2026-04-26T12:45:01.347Z</time></trkpt><trkpt lat="43.9329751" lon="7.8911624"><ele>679.0</ele><time>2026-04-26T12:45:03.348Z</time></trkpt><trkpt lat="43.9329165" lon="7.8912457"><ele>679.0</ele><time>2026-04-26T12:45:06.347Z</time></trkpt><trkpt lat="43.9328533" lon="7.8912319"><ele>679.0</ele><time>2026-04-26T12:45:08.348Z</time></trkpt><trkpt lat="43.9327809" lon="7.8911753"><ele>679.0</ele><time>2026-04-26T12:45:10.346Z</time></trkpt><trkpt lat="43.9327175" lon="7.8911414"><ele>679.0</ele><time>2026-04-26T12:45:11.347Z</time></trkpt><trkpt lat="43.9326184" lon="7.8910661"><ele>679.0</ele><time>2026-04-26T12:45:13.346Z</time></trkpt><trkpt lat="43.9325222" lon="7.8910041"><ele>679.1666666666667</ele><time>2026-04-26T12:45:15.348Z</time></trkpt><trkpt lat="43.9324462" lon="7.8909421"><ele>679.3333333333334</ele><time>2026-04-26T12:45:17.347Z</time></trkpt><trkpt lat="43.9324026" lon="7.8908531"><ele>679.5</ele><time>2026-04-26T12:45:19.346Z</time></trkpt><trkpt lat="43.9323601" lon="7.8907817"><ele>679.6666666666666</ele><time>2026-04-26T12:45:21.346Z</time></trkpt><trkpt lat="43.9322814" lon="7.8907189"><ele>679.8333333333333</ele><time>2026-04-26T12:45:24.347Z</time></trkpt><trkpt lat="43.9322285" lon="7.8907982"><ele>680.0</ele><time>2026-04-26T12:45:28.348Z</time></trkpt><trkpt lat="43.9322137" lon="7.890888"><ele>680.0</ele><time>2026-04-26T12:45:30.348Z</time></trkpt><trkpt lat="43.9321974" lon="7.8910139"><ele>680.0</ele><time>2026-04-26T12:45:32.348Z</time></trkpt><trkpt lat="43.9321457" lon="7.8911544"><ele>680.0</ele><time>2026-04-26T12:45:34.348Z</time></trkpt><trkpt lat="43.9321479" lon="7.8912468"><ele>680.0</ele><time>2026-04-26T12:45:35.349Z</time></trkpt><trkpt lat="43.9321796" lon="7.8913601"><ele>680.0</ele><time>2026-04-26T12:45:36.348Z</time></trkpt><trkpt lat="43.9321916" lon="7.8914515"><ele>680.0</ele><time>2026-04-26T12:45:37.347Z</time></trkpt><trkpt lat="43.9321901" lon="7.8915521"><ele>680.0</ele><time>2026-04-26T12:45:38.348Z</time></trkpt><trkpt lat="43.9321919" lon="7.8916468"><ele>680.0</ele><time>2026-04-26T12:45:39.348Z</time></trkpt><trkpt lat="43.9322027" lon="7.8917604"><ele>680.0</ele><time>2026-04-26T12:45:40.348Z</time></trkpt><trkpt lat="43.9322242" lon="7.8918572"><ele>680.0</ele><time>2026-04-26T12:45:41.347Z</time></trkpt><trkpt lat="43.9322623" lon="7.8920144"><ele>680.0</ele><time>2026-04-26T12:45:43.348Z</time></trkpt><trkpt lat="43.9322704" lon="7.8921524"><ele>680.0</ele><time>2026-04-26T12:45:45.348Z</time></trkpt><trkpt lat="43.9322093" lon="7.8922205"><ele>679.5</ele><time>2026-04-26T12:45:47.347Z</time></trkpt><trkpt lat="43.9321321" lon="7.8922122"><ele>679.0</ele><time>2026-04-26T12:45:49.347Z</time></trkpt><trkpt lat="43.9320554" lon="7.8922127"><ele>678.5</ele><time>2026-04-26T12:45:51.347Z</time></trkpt><trkpt lat="43.9319903" lon="7.8922666"><ele>678.0</ele><time>2026-04-26T12:45:54.348Z</time></trkpt><trkpt lat="43.9320015" lon="7.8923846"><ele>677.5</ele><time>2026-04-26T12:45:57.347Z</time></trkpt><trkpt lat="43.9320547" lon="7.8924432"><ele>677.0</ele><time>2026-04-26T12:45:58.346Z</time></trkpt><trkpt lat="43.9321112" lon="7.8926056"><ele>677.0</ele><time>2026-04-26T12:46:00.348Z</time></trkpt><trkpt lat="43.9321605" lon="7.8927647"><ele>677.0</ele><time>2026-04-26T12:46:02.348Z</time></trkpt><trkpt lat="43.9321889" lon="7.8928613"><ele>677.0</ele><time>2026-04-26T12:46:03.346Z</time></trkpt><trkpt lat="43.9322472" lon="7.8930041"><ele>677.0</ele><time>2026-04-26T12:46:05.348Z</time></trkpt><trkpt lat="43.9323391" lon="7.8930856"><ele>677.0</ele><time>2026-04-26T12:46:07.348Z</time></trkpt><trkpt lat="43.9324322" lon="7.89317"><ele>677.0</ele><time>2026-04-26T12:46:09.348Z</time></trkpt><trkpt lat="43.9324766" lon="7.893232"><ele>677.0</ele><time>2026-04-26T12:46:10.348Z</time></trkpt><trkpt lat="43.9325403" lon="7.8933664"><ele>677.0</ele><time>2026-04-26T12:46:12.348Z</time></trkpt><trkpt lat="43.9326152" lon="7.8934498"><ele>677.0</ele><time>2026-04-26T12:46:14.348Z</time></trkpt><trkpt lat="43.9327065" lon="7.8935038"><ele>677.0</ele><time>2026-04-26T12:46:16.348Z</time></trkpt><trkpt lat="43.9327784" lon="7.8935395"><ele>670.5</ele><time>2026-04-26T12:46:18.347Z</time></trkpt><trkpt lat="43.9328397" lon="7.8935662"><ele>664.0</ele><time>2026-04-26T12:46:20.347Z</time></trkpt><trkpt lat="43.932891" lon="7.8936323"><ele>657.5</ele><time>2026-04-26T12:46:22.348Z</time></trkpt><trkpt lat="43.9329322" lon="7.8937261"><ele>651.0</ele><time>2026-04-26T12:46:24.347Z</time></trkpt><trkpt lat="43.9329591" lon="7.8938284"><ele>644.5</ele><time>2026-04-26T12:46:26.348Z</time></trkpt><trkpt lat="43.9329695" lon="7.8939485"><ele>638.0</ele><time>2026-04-26T12:46:28.347Z</time></trkpt><trkpt lat="43.9329528" lon="7.8940579"><ele>638.0</ele><time>2026-04-26T12:46:30.347Z</time></trkpt><trkpt lat="43.9329098" lon="7.894151"><ele>638.0</ele><time>2026-04-26T12:46:32.348Z</time></trkpt><trkpt lat="43.9328646" lon="7.8942548"><ele>638.0</ele><time>2026-04-26T12:46:34.347Z</time></trkpt><trkpt lat="43.9328592" lon="7.8943424"><ele>638.0</ele><time>2026-04-26T12:46:36.348Z</time></trkpt><trkpt lat="43.9328962" lon="7.8944502"><ele>638.0</ele><time>2026-04-26T12:46:39.347Z</time></trkpt><trkpt lat="43.9329294" lon="7.8945447"><ele>638.0</ele><time>2026-04-26T12:46:41.348Z</time></trkpt><trkpt lat="43.9329594" lon="7.8946822"><ele>637.6</ele><time>2026-04-26T12:46:43.347Z</time></trkpt><trkpt lat="43.933" lon="7.8948225"><ele>637.1999999999999</ele><time>2026-04-26T12:46:45.348Z</time></trkpt><trkpt lat="43.9330557" lon="7.8949274"><ele>636.8</ele><time>2026-04-26T12:46:47.347Z</time></trkpt><trkpt lat="43.9331221" lon="7.8950106"><ele>636.4</ele><time>2026-04-26T12:46:49.348Z</time></trkpt><trkpt lat="43.9331623" lon="7.8951249"><ele>636.0</ele><time>2026-04-26T12:46:51.347Z</time></trkpt><trkpt lat="43.9331866" lon="7.8952671"><ele>633.6</ele><time>2026-04-26T12:46:53.348Z</time></trkpt><trkpt lat="43.9332106" lon="7.895394"><ele>631.2</ele><time>2026-04-26T12:46:55.348Z</time></trkpt><trkpt lat="43.9332143" lon="7.8955313"><ele>628.8</ele><time>2026-04-26T12:46:57.348Z</time></trkpt><trkpt lat="43.9331893" lon="7.8956683"><ele>626.4</ele><time>2026-04-26T12:46:59.348Z</time></trkpt><trkpt lat="43.9331839" lon="7.8957871"><ele>624.0</ele><time>2026-04-26T12:47:01.348Z</time></trkpt><trkpt lat="43.933138" lon="7.8959083"><ele>620.2</ele><time>2026-04-26T12:47:03.349Z</time></trkpt><trkpt lat="43.9330687" lon="7.8960029"><ele>616.4</ele><time>2026-04-26T12:47:05.348Z</time></trkpt><trkpt lat="43.9329978" lon="7.8961242"><ele>612.6</ele><time>2026-04-26T12:47:07.347Z</time></trkpt><trkpt lat="43.9329254" lon="7.8962094"><ele>608.8</ele><time>2026-04-26T12:47:09.348Z</time></trkpt><trkpt lat="43.9328549" lon="7.8962914"><ele>605.0</ele><time>2026-04-26T12:47:11.347Z</time></trkpt><trkpt lat="43.9328078" lon="7.8964102"><ele>605.0</ele><time>2026-04-26T12:47:13.347Z</time></trkpt><trkpt lat="43.9327883" lon="7.8965214"><ele>605.0</ele><time>2026-04-26T12:47:15.347Z</time></trkpt><trkpt lat="43.9327845" lon="7.8966428"><ele>605.0</ele><time>2026-04-26T12:47:17.347Z</time></trkpt><trkpt lat="43.9327749" lon="7.8967479"><ele>605.0</ele><time>2026-04-26T12:47:19.347Z</time></trkpt><trkpt lat="43.9327036" lon="7.8968062"><ele>605.0</ele><time>2026-04-26T12:47:22.349Z</time></trkpt><trkpt lat="43.9326393" lon="7.8967903"><ele>605.0</ele><time>2026-04-26T12:47:24.348Z</time></trkpt><trkpt lat="43.9325488" lon="7.8967776"><ele>604.0</ele><time>2026-04-26T12:47:26.347Z</time></trkpt><trkpt lat="43.9324698" lon="7.8968099"><ele>603.0</ele><time>2026-04-26T12:47:28.347Z</time></trkpt><trkpt lat="43.9323656" lon="7.8968615"><ele>602.0</ele><time>2026-04-26T12:47:30.347Z</time></trkpt><trkpt lat="43.9322691" lon="7.8968898"><ele>601.0</ele><time>2026-04-26T12:47:32.349Z</time></trkpt><trkpt lat="43.9321604" lon="7.8969015"><ele>600.0</ele><time>2026-04-26T12:47:34.348Z</time></trkpt><trkpt lat="43.9320955" lon="7.8968985"><ele>600.0</ele><time>2026-04-26T12:47:35.348Z</time></trkpt><trkpt lat="43.9320008" lon="7.8968984"><ele>600.0</ele><time>2026-04-26T12:47:37.347Z</time></trkpt><trkpt lat="43.931902" lon="7.8969402"><ele>600.0</ele><time>2026-04-26T12:47:39.347Z</time></trkpt><trkpt lat="43.9318096" lon="7.897027"><ele>600.0</ele><time>2026-04-26T12:47:41.348Z</time></trkpt><trkpt lat="43.9317171" lon="7.8971144"><ele>600.0</ele><time>2026-04-26T12:47:43.348Z</time></trkpt><trkpt lat="43.9316213" lon="7.897217"><ele>602.2</ele><time>2026-04-26T12:47:45.348Z</time></trkpt><trkpt lat="43.9315234" lon="7.8972878"><ele>604.4</ele><time>2026-04-26T12:47:47.347Z</time></trkpt><trkpt lat="43.9314184" lon="7.8973167"><ele>606.6</ele><time>2026-04-26T12:47:49.348Z</time></trkpt><trkpt lat="43.9313329" lon="7.8973392"><ele>608.8</ele><time>2026-04-26T12:47:51.348Z</time></trkpt><trkpt lat="43.9312718" lon="7.8974242"><ele>611.0</ele><time>2026-04-26T12:47:53.348Z</time></trkpt><trkpt lat="43.9312192" lon="7.897521"><ele>608.4</ele><time>2026-04-26T12:47:55.348Z</time></trkpt><trkpt lat="43.931166" lon="7.8976077"><ele>605.8</ele><time>2026-04-26T12:47:57.348Z</time></trkpt><trkpt lat="43.9311456" lon="7.8977148"><ele>603.1999999999999</ele><time>2026-04-26T12:47:59.349Z</time></trkpt><trkpt lat="43.9311301" lon="7.8978439"><ele>600.6</ele><time>2026-04-26T12:48:01.348Z</time></trkpt><trkpt lat="43.9311255" lon="7.8979905"><ele>598.0</ele><time>2026-04-26T12:48:03.348Z</time></trkpt><trkpt lat="43.9311092" lon="7.8981311"><ele>598.0</ele><time>2026-04-26T12:48:05.347Z</time></trkpt><trkpt lat="43.9310822" lon="7.8982711"><ele>598.0</ele><time>2026-04-26T12:48:07.348Z</time></trkpt><trkpt lat="43.9310708" lon="7.898429"><ele>598.0</ele><time>2026-04-26T12:48:09.348Z</time></trkpt><trkpt lat="43.931113" lon="7.8985259"><ele>598.0</ele><time>2026-04-26T12:48:10.347Z</time></trkpt><trkpt lat="43.9311504" lon="7.8986107"><ele>598.0</ele><time>2026-04-26T12:48:11.348Z</time></trkpt><trkpt lat="43.9312111" lon="7.8987443"><ele>595.8</ele><time>2026-04-26T12:48:13.347Z</time></trkpt><trkpt lat="43.9312591" lon="7.8988919"><ele>593.5999999999999</ele><time>2026-04-26T12:48:15.347Z</time></trkpt><trkpt lat="43.9312558" lon="7.8989902"><ele>591.4000000000001</ele><time>2026-04-26T12:48:16.349Z</time></trkpt><trkpt lat="43.9312698" lon="7.8990794"><ele>589.2</ele><time>2026-04-26T12:48:17.348Z</time></trkpt><trkpt lat="43.931272" lon="7.8992618"><ele>587.0</ele><time>2026-04-26T12:48:19.347Z</time></trkpt><trkpt lat="43.9312774" lon="7.8993586"><ele>586.5</ele><time>2026-04-26T12:48:20.349Z</time></trkpt><trkpt lat="43.9312786" lon="7.8994678"><ele>586.0</ele><time>2026-04-26T12:48:21.348Z</time></trkpt><trkpt lat="43.9312909" lon="7.8995697"><ele>585.5</ele><time>2026-04-26T12:48:22.348Z</time></trkpt><trkpt lat="43.9313021" lon="7.8996647"><ele>585.0</ele><time>2026-04-26T12:48:23.348Z</time></trkpt><trkpt lat="43.9313234" lon="7.8997577"><ele>584.5</ele><time>2026-04-26T12:48:24.347Z</time></trkpt><trkpt lat="43.9313252" lon="7.8998457"><ele>584.0</ele><time>2026-04-26T12:48:25.348Z</time></trkpt><trkpt lat="43.9313303" lon="7.9000087"><ele>584.6</ele><time>2026-04-26T12:48:27.348Z</time></trkpt><trkpt lat="43.9313447" lon="7.9001449"><ele>585.2</ele><time>2026-04-26T12:48:29.347Z</time></trkpt><trkpt lat="43.931385" lon="7.900285"><ele>585.8000000000001</ele><time>2026-04-26T12:48:31.348Z</time></trkpt><trkpt lat="43.9314208" lon="7.9004246"><ele>586.4</ele><time>2026-04-26T12:48:33.348Z</time></trkpt><trkpt lat="43.9314451" lon="7.900542"><ele>587.0</ele><time>2026-04-26T12:48:35.348Z</time></trkpt><trkpt lat="43.9315087" lon="7.9006563"><ele>587.0</ele><time>2026-04-26T12:48:37.347Z</time></trkpt><trkpt lat="43.9315897" lon="7.9007665"><ele>587.0</ele><time>2026-04-26T12:48:39.347Z</time></trkpt><trkpt lat="43.9316504" lon="7.9008936"><ele>587.0</ele><time>2026-04-26T12:48:41.347Z</time></trkpt><trkpt lat="43.9317198" lon="7.9010046"><ele>587.0</ele><time>2026-04-26T12:48:43.35Z</time></trkpt><trkpt lat="43.9317433" lon="7.9011326"><ele>587.0</ele><time>2026-04-26T12:48:45.348Z</time></trkpt><trkpt lat="43.9317588" lon="7.9012565"><ele>575.8000000000001</ele><time>2026-04-26T12:48:47.348Z</time></trkpt><trkpt lat="43.9317344" lon="7.901367"><ele>564.6</ele><time>2026-04-26T12:48:49.348Z</time></trkpt><trkpt lat="43.9317348" lon="7.9014812"><ele>553.4000000000001</ele><time>2026-04-26T12:48:51.347Z</time></trkpt><trkpt lat="43.9317386" lon="7.9016242"><ele>542.2</ele><time>2026-04-26T12:48:53.347Z</time></trkpt><trkpt lat="43.9317634" lon="7.9017882"><ele>531.0</ele><time>2026-04-26T12:48:55.349Z</time></trkpt><trkpt lat="43.9317707" lon="7.901936"><ele>530.1666666666666</ele><time>2026-04-26T12:48:57.348Z</time></trkpt><trkpt lat="43.9317482" lon="7.9020538"><ele>529.3333333333334</ele><time>2026-04-26T12:48:59.347Z</time></trkpt><trkpt lat="43.9317074" lon="7.9022039"><ele>528.5</ele><time>2026-04-26T12:49:01.348Z</time></trkpt><trkpt lat="43.9316777" lon="7.9023197"><ele>527.6666666666667</ele><time>2026-04-26T12:49:02.348Z</time></trkpt><trkpt lat="43.931652" lon="7.9024161"><ele>526.8333333333334</ele><time>2026-04-26T12:49:03.347Z</time></trkpt><trkpt lat="43.93162" lon="7.9025023"><ele>526.0</ele><time>2026-04-26T12:49:04.347Z</time></trkpt><trkpt lat="43.9315657" lon="7.9026216"><ele>526.0</ele><time>2026-04-26T12:49:06.348Z</time></trkpt><trkpt lat="43.9315332" lon="7.9027049"><ele>526.0</ele><time>2026-04-26T12:49:09.348Z</time></trkpt><trkpt lat="43.9316017" lon="7.9026962"><ele>526.0</ele><time>2026-04-26T12:49:13.347Z</time></trkpt><trkpt lat="43.931651" lon="7.9026187"><ele>526.0</ele><time>2026-04-26T12:49:17.349Z</time></trkpt><trkpt lat="43.9317014" lon="7.9025416"><ele>526.0</ele><time>2026-04-26T12:49:20.348Z</time></trkpt><trkpt lat="43.9317567" lon="7.9024471"><ele>526.0</ele><time>2026-04-26T12:49:23.347Z</time></trkpt><trkpt lat="43.9318218" lon="7.9023705"><ele>526.0</ele><time>2026-04-26T12:49:25.348Z</time></trkpt><trkpt lat="43.9319148" lon="7.9023128"><ele>526.0</ele><time>2026-04-26T12:49:27.349Z</time></trkpt><trkpt lat="43.9319773" lon="7.9022005"><ele>526.0</ele><time>2026-04-26T12:49:29.348Z</time></trkpt><trkpt lat="43.9320228" lon="7.9020778"><ele>526.0</ele><time>2026-04-26T12:49:31.348Z</time></trkpt><trkpt lat="43.9320498" lon="7.9019218"><ele>526.0</ele><time>2026-04-26T12:49:33.347Z</time></trkpt><trkpt lat="43.9320746" lon="7.9017612"><ele>526.8333333333334</ele><time>2026-04-26T12:49:35.349Z</time></trkpt><trkpt lat="43.9321203" lon="7.9016439"><ele>527.6666666666667</ele><time>2026-04-26T12:49:37.348Z</time></trkpt><trkpt lat="43.932176" lon="7.9015668"><ele>528.5</ele><time>2026-04-26T12:49:39.349Z</time></trkpt><trkpt lat="43.9322205" lon="7.9014804"><ele>529.3333333333334</ele><time>2026-04-26T12:49:41.349Z</time></trkpt><trkpt lat="43.9322387" lon="7.9013598"><ele>530.1666666666666</ele><time>2026-04-26T12:49:43.349Z</time></trkpt><trkpt lat="43.9322407" lon="7.9012494"><ele>531.0</ele><time>2026-04-26T12:49:45.348Z</time></trkpt><trkpt lat="43.9322365" lon="7.9011554"><ele>531.0</ele><time>2026-04-26T12:49:47.347Z</time></trkpt><trkpt lat="43.9322113" lon="7.9010402"><ele>531.0</ele><time>2026-04-26T12:49:49.348Z</time></trkpt><trkpt lat="43.9322061" lon="7.9009243"><ele>531.0</ele><time>2026-04-26T12:49:51.347Z</time></trkpt><trkpt lat="43.9322243" lon="7.9008161"><ele>531.0</ele><time>2026-04-26T12:49:54.348Z</time></trkpt><trkpt lat="43.932279" lon="7.9008733"><ele>531.0</ele><time>2026-04-26T12:50:00.349Z</time></trkpt><trkpt lat="43.9322757" lon="7.9009634"><ele>531.0</ele><time>2026-04-26T12:50:03.347Z</time></trkpt><trkpt lat="43.9323165" lon="7.9010308"><ele>531.0</ele><time>2026-04-26T12:50:38.348Z</time></trkpt><trkpt lat="43.9323528" lon="7.9011322"><ele>531.0</ele><time>2026-04-26T12:50:40.349Z</time></trkpt><trkpt lat="43.9323877" lon="7.9012394"><ele>531.0</ele><time>2026-04-26T12:50:42.348Z</time></trkpt><trkpt lat="43.9324035" lon="7.9013517"><ele>531.0</ele><time>2026-04-26T12:50:44.347Z</time></trkpt><trkpt lat="43.9324221" lon="7.9014738"><ele>531.0</ele><time>2026-04-26T12:50:46.347Z</time></trkpt><trkpt lat="43.93244" lon="7.9015951"><ele>531.0</ele><time>2026-04-26T12:50:48.349Z</time></trkpt><trkpt lat="43.9324467" lon="7.9017441"><ele>530.0</ele><time>2026-04-26T12:50:50.348Z</time></trkpt><trkpt lat="43.9324412" lon="7.901878"><ele>529.0</ele><time>2026-04-26T12:50:52.349Z</time></trkpt><trkpt lat="43.9324471" lon="7.9020184"><ele>528.0</ele><time>2026-04-26T12:50:54.348Z</time></trkpt><trkpt lat="43.9324446" lon="7.9021624"><ele>527.0</ele><time>2026-04-26T12:50:56.347Z</time></trkpt><trkpt lat="43.9324279" lon="7.9022512"><ele>526.0</ele><time>2026-04-26T12:50:57.347Z</time></trkpt><trkpt lat="43.9324083" lon="7.9024144"><ele>526.0</ele><time>2026-04-26T12:50:59.347Z</time></trkpt><trkpt lat="43.9324058" lon="7.9025487"><ele>526.0</ele><time>2026-04-26T12:51:01.348Z</time></trkpt><trkpt lat="43.9323519" lon="7.9026443"><ele>526.0</ele><time>2026-04-26T12:51:03.348Z</time></trkpt><trkpt lat="43.9322719" lon="7.9027172"><ele>526.0</ele><time>2026-04-26T12:51:05.347Z</time></trkpt><trkpt lat="43.9321949" lon="7.9027754"><ele>526.0</ele><time>2026-04-26T12:51:07.347Z</time></trkpt><trkpt lat="43.9321348" lon="7.9028667"><ele>522.8333333333334</ele><time>2026-04-26T12:51:09.348Z</time></trkpt><trkpt lat="43.932086" lon="7.9029974"><ele>519.6666666666667</ele><time>2026-04-26T12:51:11.347Z</time></trkpt><trkpt lat="43.9320628" lon="7.9030869"><ele>516.5</ele><time>2026-04-26T12:51:12.348Z</time></trkpt><trkpt lat="43.9320436" lon="7.9031854"><ele>513.3333333333334</ele><time>2026-04-26T12:51:13.349Z</time></trkpt><trkpt lat="43.9320251" lon="7.9032837"><ele>510.1666666666667</ele><time>2026-04-26T12:51:14.348Z</time></trkpt><trkpt lat="43.9320171" lon="7.90338"><ele>507.0</ele><time>2026-04-26T12:51:15.348Z</time></trkpt><trkpt lat="43.9320063" lon="7.9035021"><ele>507.0</ele><time>2026-04-26T12:51:17.349Z</time></trkpt><trkpt lat="43.9320358" lon="7.9035954"><ele>507.0</ele><time>2026-04-26T12:51:20.348Z</time></trkpt><trkpt lat="43.9320992" lon="7.9035365"><ele>507.0</ele><time>2026-04-26T12:51:24.348Z</time></trkpt><trkpt lat="43.9320998" lon="7.9034308"><ele>507.0</ele><time>2026-04-26T12:51:27.348Z</time></trkpt><trkpt lat="43.9321094" lon="7.903306"><ele>507.0</ele><time>2026-04-26T12:51:30.348Z</time></trkpt><trkpt lat="43.932143" lon="7.9031844"><ele>507.0</ele><time>2026-04-26T12:51:32.349Z</time></trkpt><trkpt lat="43.932203" lon="7.903079"><ele>507.0</ele><time>2026-04-26T12:51:34.348Z</time></trkpt><trkpt lat="43.9322786" lon="7.902979"><ele>507.00000000000006</ele><time>2026-04-26T12:51:36.348Z</time></trkpt><trkpt lat="43.9323932" lon="7.9029429"><ele>507.00000000000006</ele><time>2026-04-26T12:51:38.348Z</time></trkpt><trkpt lat="43.932462" lon="7.9029099"><ele>507.0</ele><time>2026-04-26T12:51:39.349Z</time></trkpt><trkpt lat="43.932553" lon="7.9028502"><ele>507.0</ele><time>2026-04-26T12:51:41.349Z</time></trkpt><trkpt lat="43.9326344" lon="7.9027585"><ele>501.0</ele><time>2026-04-26T12:51:43.349Z</time></trkpt><trkpt lat="43.9326598" lon="7.9026029"><ele>495.00000000000006</ele><time>2026-04-26T12:51:45.349Z</time></trkpt><trkpt lat="43.9326814" lon="7.9024144"><ele>489.00000000000006</ele><time>2026-04-26T12:51:47.348Z</time></trkpt><trkpt lat="43.9327055" lon="7.9023029"><ele>483.0</ele><time>2026-04-26T12:51:48.349Z</time></trkpt><trkpt lat="43.9327317" lon="7.9021774"><ele>477.0</ele><time>2026-04-26T12:51:49.348Z</time></trkpt><trkpt lat="43.9327665" lon="7.9020316"><ele>477.0</ele><time>2026-04-26T12:51:50.349Z</time></trkpt><trkpt lat="43.9327861" lon="7.9019041"><ele>477.00000000000006</ele><time>2026-04-26T12:51:51.349Z</time></trkpt><trkpt lat="43.9328045" lon="7.9017841"><ele>477.00000000000006</ele><time>2026-04-26T12:51:52.349Z</time></trkpt><trkpt lat="43.9328232" lon="7.9016652"><ele>477.0</ele><time>2026-04-26T12:51:53.348Z</time></trkpt><trkpt lat="43.9328558" lon="7.9015498"><ele>477.0</ele><time>2026-04-26T12:51:54.348Z</time></trkpt><trkpt lat="43.9329153" lon="7.9014364"><ele>478.85714285714283</ele><time>2026-04-26T12:51:55.349Z</time></trkpt><trkpt lat="43.932955" lon="7.9013335"><ele>480.71428571428567</ele><time>2026-04-26T12:51:56.348Z</time></trkpt><trkpt lat="43.9329968" lon="7.9012469"><ele>482.57142857142856</ele><time>2026-04-26T12:51:57.349Z</time></trkpt><trkpt lat="43.9330429" lon="7.9011469"><ele>484.42857142857144</ele><time>2026-04-26T12:51:59.349Z</time></trkpt><trkpt lat="43.9331003" lon="7.9011034"><ele>486.2857142857143</ele><time>2026-04-26T12:52:01.347Z</time></trkpt><trkpt lat="43.9331293" lon="7.9011953"><ele>488.1428571428571</ele><time>2026-04-26T12:52:05.349Z</time></trkpt><trkpt lat="43.9330908" lon="7.9012712"><ele>490.0</ele><time>2026-04-26T12:52:07.349Z</time></trkpt><trkpt lat="43.933057" lon="7.9013863"><ele>490.00000000000006</ele><time>2026-04-26T12:52:09.348Z</time></trkpt><trkpt lat="43.9330245" lon="7.9015186"><ele>490.0</ele><time>2026-04-26T12:52:11.348Z</time></trkpt><trkpt lat="43.9329898" lon="7.901698"><ele>490.0</ele><time>2026-04-26T12:52:13.349Z</time></trkpt><trkpt lat="43.9329728" lon="7.901792"><ele>490.0</ele><time>2026-04-26T12:52:14.348Z</time></trkpt><trkpt lat="43.9329519" lon="7.9018932"><ele>490.00000000000006</ele><time>2026-04-26T12:52:15.348Z</time></trkpt><trkpt lat="43.9329433" lon="7.9019841"><ele>490.0</ele><time>2026-04-26T12:52:16.349Z</time></trkpt><trkpt lat="43.9329324" lon="7.9020847"><ele>488.1428571428571</ele><time>2026-04-26T12:52:17.349Z</time></trkpt><trkpt lat="43.9329192" lon="7.9021753"><ele>486.2857142857143</ele><time>2026-04-26T12:52:18.348Z</time></trkpt><trkpt lat="43.9329041" lon="7.9022744"><ele>484.42857142857144</ele><time>2026-04-26T12:52:19.349Z</time></trkpt><trkpt lat="43.9329024" lon="7.9023779"><ele>482.57142857142856</ele><time>2026-04-26T12:52:20.349Z</time></trkpt><trkpt lat="43.9328899" lon="7.9024818"><ele>480.71428571428567</ele><time>2026-04-26T12:52:21.349Z</time></trkpt><trkpt lat="43.9328825" lon="7.9025861"><ele>478.85714285714283</ele><time>2026-04-26T12:52:22.347Z</time></trkpt><trkpt lat="43.9328797" lon="7.9026972"><ele>477.0</ele><time>2026-04-26T12:52:23.348Z</time></trkpt><trkpt lat="43.9328776" lon="7.9028084"><ele>475.2857142857143</ele><time>2026-04-26T12:52:24.348Z</time></trkpt><trkpt lat="43.9328572" lon="7.9029084"><ele>473.57142857142856</ele><time>2026-04-26T12:52:25.347Z</time></trkpt><trkpt lat="43.9328245" lon="7.9030026"><ele>471.85714285714283</ele><time>2026-04-26T12:52:26.348Z</time></trkpt><trkpt lat="43.9327787" lon="7.9030917"><ele>470.1428571428571</ele><time>2026-04-26T12:52:27.348Z</time></trkpt><trkpt lat="43.9327262" lon="7.9031669"><ele>468.42857142857144</ele><time>2026-04-26T12:52:28.348Z</time></trkpt><trkpt lat="43.932677" lon="7.9032361"><ele>466.71428571428567</ele><time>2026-04-26T12:52:29.348Z</time></trkpt><trkpt lat="43.9326277" lon="7.9032955"><ele>465.0</ele><time>2026-04-26T12:52:30.349Z</time></trkpt><trkpt lat="43.9325796" lon="7.9033559"><ele>468.6</ele><time>2026-04-26T12:52:32.348Z</time></trkpt><trkpt lat="43.9325494" lon="7.9034366"><ele>472.2</ele><time>2026-04-26T12:52:45.348Z</time></trkpt><trkpt lat="43.9324963" lon="7.9035621"><ele>475.79999999999995</ele><time>2026-04-26T12:52:47.348Z</time></trkpt><trkpt lat="43.9324466" lon="7.9037069"><ele>479.4</ele><time>2026-04-26T12:52:49.349Z</time></trkpt><trkpt lat="43.9324221" lon="7.9038551"><ele>483.0</ele><time>2026-04-26T12:52:51.348Z</time></trkpt><trkpt lat="43.9323694" lon="7.9039933"><ele>483.0</ele><time>2026-04-26T12:52:53.349Z</time></trkpt><trkpt lat="43.9322726" lon="7.9040854"><ele>483.0</ele><time>2026-04-26T12:52:55.348Z</time></trkpt><trkpt lat="43.9321976" lon="7.9041121"><ele>483.0</ele><time>2026-04-26T12:52:56.348Z</time></trkpt><trkpt lat="43.932125" lon="7.9041264"><ele>483.0</ele><time>2026-04-26T12:52:57.348Z</time></trkpt><trkpt lat="43.9320548" lon="7.9041379"><ele>483.0</ele><time>2026-04-26T12:52:58.349Z</time></trkpt><trkpt lat="43.9319825" lon="7.9041484"><ele>483.0</ele><time>2026-04-26T12:52:59.349Z</time></trkpt><trkpt lat="43.9319185" lon="7.9041697"><ele>480.1666666666667</ele><time>2026-04-26T12:53:00.349Z</time></trkpt><trkpt lat="43.9318266" lon="7.9042918"><ele>477.33333333333337</ele><time>2026-04-26T12:53:02.348Z</time></trkpt><trkpt lat="43.9318054" lon="7.9043869"><ele>474.5</ele><time>2026-04-26T12:53:03.349Z</time></trkpt><trkpt lat="43.9318071" lon="7.9044874"><ele>471.6666666666667</ele><time>2026-04-26T12:53:04.348Z</time></trkpt><trkpt lat="43.9318521" lon="7.9045763"><ele>468.83333333333337</ele><time>2026-04-26T12:53:05.348Z</time></trkpt><trkpt lat="43.9318992" lon="7.904674"><ele>466.0</ele><time>2026-04-26T12:53:06.348Z</time></trkpt><trkpt lat="43.9319473" lon="7.9047687"><ele>466.00000000000006</ele><time>2026-04-26T12:53:07.348Z</time></trkpt><trkpt lat="43.9319927" lon="7.9048716"><ele>466.0</ele><time>2026-04-26T12:53:08.348Z</time></trkpt><trkpt lat="43.9320448" lon="7.9049771"><ele>466.0</ele><time>2026-04-26T12:53:09.348Z</time></trkpt><trkpt lat="43.9321127" lon="7.9050706"><ele>466.0</ele><time>2026-04-26T12:53:10.348Z</time></trkpt><trkpt lat="43.9321526" lon="7.9051763"><ele>466.00000000000006</ele><time>2026-04-26T12:53:11.349Z</time></trkpt><trkpt lat="43.932193" lon="7.9052807"><ele>466.0</ele><time>2026-04-26T12:53:12.349Z</time></trkpt><trkpt lat="43.9322235" lon="7.9053848"><ele>466.6</ele><time>2026-04-26T12:53:13.349Z</time></trkpt><trkpt lat="43.9322381" lon="7.9054895"><ele>467.20000000000005</ele><time>2026-04-26T12:53:14.349Z</time></trkpt><trkpt lat="43.9322507" lon="7.9056062"><ele>467.79999999999995</ele><time>2026-04-26T12:53:15.349Z</time></trkpt><trkpt lat="43.9322355" lon="7.905744"><ele>468.4</ele><time>2026-04-26T12:53:16.348Z</time></trkpt><trkpt lat="43.932231" lon="7.9058759"><ele>469.0</ele><time>2026-04-26T12:53:17.348Z</time></trkpt><trkpt lat="43.93224" lon="7.9060263"><ele>469.4</ele><time>2026-04-26T12:53:18.348Z</time></trkpt><trkpt lat="43.9322674" lon="7.9061801"><ele>469.79999999999995</ele><time>2026-04-26T12:53:19.349Z</time></trkpt><trkpt lat="43.9323016" lon="7.9063223"><ele>470.20000000000005</ele><time>2026-04-26T12:53:20.349Z</time></trkpt><trkpt lat="43.9323386" lon="7.9064522"><ele>470.6</ele><time>2026-04-26T12:53:21.349Z</time></trkpt><trkpt lat="43.9323726" lon="7.906567"><ele>471.0</ele><time>2026-04-26T12:53:22.349Z</time></trkpt><trkpt lat="43.93239" lon="7.9066734"><ele>469.3333333333333</ele><time>2026-04-26T12:53:23.349Z</time></trkpt><trkpt lat="43.9323868" lon="7.9067795"><ele>467.66666666666663</ele><time>2026-04-26T12:53:24.349Z</time></trkpt><trkpt lat="43.9323754" lon="7.9068723"><ele>466.0</ele><time>2026-04-26T12:53:25.349Z</time></trkpt><trkpt lat="43.9323457" lon="7.9069549"><ele>464.3333333333333</ele><time>2026-04-26T12:53:26.348Z</time></trkpt><trkpt lat="43.9322666" lon="7.9070285"><ele>462.66666666666663</ele><time>2026-04-26T12:53:27.348Z</time></trkpt><trkpt lat="43.9322006" lon="7.9071081"><ele>461.0</ele><time>2026-04-26T12:53:28.349Z</time></trkpt><trkpt lat="43.932136" lon="7.9071876"><ele>460.99999999999994</ele><time>2026-04-26T12:53:29.348Z</time></trkpt><trkpt lat="43.9320762" lon="7.9072764"><ele>461.0</ele><time>2026-04-26T12:53:30.35Z</time></trkpt><trkpt lat="43.9320181" lon="7.9073464"><ele>461.0</ele><time>2026-04-26T12:53:31.349Z</time></trkpt><trkpt lat="43.9319598" lon="7.9073982"><ele>461.0</ele><time>2026-04-26T12:53:32.349Z</time></trkpt><trkpt lat="43.9318889" lon="7.9074413"><ele>460.99999999999994</ele><time>2026-04-26T12:53:33.348Z</time></trkpt><trkpt lat="43.9317995" lon="7.9074811"><ele>461.0</ele><time>2026-04-26T12:53:34.349Z</time></trkpt><trkpt lat="43.9316984" lon="7.9075127"><ele>459.20000000000005</ele><time>2026-04-26T12:53:35.348Z</time></trkpt><trkpt lat="43.9315997" lon="7.907554"><ele>457.40000000000003</ele><time>2026-04-26T12:53:36.349Z</time></trkpt><trkpt lat="43.9315005" lon="7.9075968"><ele>455.6</ele><time>2026-04-26T12:53:37.348Z</time></trkpt><trkpt lat="43.9313906" lon="7.9076495"><ele>453.8</ele><time>2026-04-26T12:53:38.349Z</time></trkpt><trkpt lat="43.9312787" lon="7.9077208"><ele>452.0</ele><time>2026-04-26T12:53:39.349Z</time></trkpt><trkpt lat="43.931173" lon="7.9078034"><ele>452.0</ele><time>2026-04-26T12:53:40.349Z</time></trkpt><trkpt lat="43.9310804" lon="7.9078868"><ele>452.00000000000006</ele><time>2026-04-26T12:53:41.349Z</time></trkpt><trkpt lat="43.9309886" lon="7.9079701"><ele>452.00000000000006</ele><time>2026-04-26T12:53:42.349Z</time></trkpt><trkpt lat="43.9309019" lon="7.9080518"><ele>452.0</ele><time>2026-04-26T12:53:43.349Z</time></trkpt><trkpt lat="43.9308204" lon="7.9081176"><ele>452.0</ele><time>2026-04-26T12:53:44.349Z</time></trkpt><trkpt lat="43.9307249" lon="7.9081785"><ele>455.5</ele><time>2026-04-26T12:53:45.349Z</time></trkpt><trkpt lat="43.9306002" lon="7.9082281"><ele>459.0</ele><time>2026-04-26T12:53:46.35Z</time></trkpt><trkpt lat="43.9304858" lon="7.9082824"><ele>462.5</ele><time>2026-04-26T12:53:47.348Z</time></trkpt><trkpt lat="43.9303729" lon="7.9083372"><ele>466.0</ele><time>2026-04-26T12:53:48.349Z</time></trkpt><trkpt lat="43.9302739" lon="7.9083759"><ele>467.00000000000006</ele><time>2026-04-26T12:53:49.349Z</time></trkpt><trkpt lat="43.930182" lon="7.9084162"><ele>468.0</ele><time>2026-04-26T12:53:50.349Z</time></trkpt><trkpt lat="43.930097" lon="7.9084411"><ele>469.0</ele><time>2026-04-26T12:53:51.348Z</time></trkpt><trkpt lat="43.930027" lon="7.9084898"><ele>470.0</ele><time>2026-04-26T12:53:52.348Z</time></trkpt><trkpt lat="43.9299689" lon="7.908557"><ele>471.00000000000006</ele><time>2026-04-26T12:53:53.349Z</time></trkpt><trkpt lat="43.9299314" lon="7.9086356"><ele>472.0</ele><time>2026-04-26T12:53:54.349Z</time></trkpt><trkpt lat="43.9299146" lon="7.9087244"><ele>472.00000000000006</ele><time>2026-04-26T12:53:55.348Z</time></trkpt><trkpt lat="43.9299214" lon="7.90883"><ele>472.0</ele><time>2026-04-26T12:53:56.35Z</time></trkpt><trkpt lat="43.9299511" lon="7.9089507"><ele>472.0</ele><time>2026-04-26T12:53:57.348Z</time></trkpt><trkpt lat="43.9299843" lon="7.9090731"><ele>472.0</ele><time>2026-04-26T12:53:58.349Z</time></trkpt><trkpt lat="43.9300157" lon="7.9091878"><ele>472.00000000000006</ele><time>2026-04-26T12:53:59.348Z</time></trkpt><trkpt lat="43.9300398" lon="7.9092957"><ele>472.0</ele><time>2026-04-26T12:54:00.348Z</time></trkpt><trkpt lat="43.9300544" lon="7.9093949"><ele>471.50000000000006</ele><time>2026-04-26T12:54:01.349Z</time></trkpt><trkpt lat="43.930061" lon="7.909493"><ele>471.0</ele><time>2026-04-26T12:54:02.349Z</time></trkpt><trkpt lat="43.9300619" lon="7.9095933"><ele>470.5</ele><time>2026-04-26T12:54:03.348Z</time></trkpt><trkpt lat="43.9300568" lon="7.9096955"><ele>470.0</ele><time>2026-04-26T12:54:04.348Z</time></trkpt><trkpt lat="43.9300579" lon="7.9097936"><ele>469.50000000000006</ele><time>2026-04-26T12:54:05.348Z</time></trkpt><trkpt lat="43.9300449" lon="7.9098856"><ele>469.0</ele><time>2026-04-26T12:54:06.348Z</time></trkpt><trkpt lat="43.9299847" lon="7.9100424"><ele>466.0</ele><time>2026-04-26T12:54:08.349Z</time></trkpt><trkpt lat="43.929906" lon="7.9101749"><ele>463.0</ele><time>2026-04-26T12:54:10.348Z</time></trkpt><trkpt lat="43.9298001" lon="7.9102772"><ele>460.0</ele><time>2026-04-26T12:54:12.35Z</time></trkpt><trkpt lat="43.929723" lon="7.9103202"><ele>457.0</ele><time>2026-04-26T12:54:13.349Z</time></trkpt><trkpt lat="43.9296296" lon="7.9103527"><ele>454.0</ele><time>2026-04-26T12:54:14.349Z</time></trkpt><trkpt lat="43.9295479" lon="7.9103898"><ele>454.00000000000006</ele><time>2026-04-26T12:54:15.349Z</time></trkpt><trkpt lat="43.9294722" lon="7.9104265"><ele>454.0</ele><time>2026-04-26T12:54:16.349Z</time></trkpt><trkpt lat="43.9294009" lon="7.9104655"><ele>454.0</ele><time>2026-04-26T12:54:17.35Z</time></trkpt><trkpt lat="43.9293534" lon="7.9105892"><ele>454.0</ele><time>2026-04-26T12:54:19.349Z</time></trkpt><trkpt lat="43.9293756" lon="7.910712"><ele>454.00000000000006</ele><time>2026-04-26T12:54:21.348Z</time></trkpt><trkpt lat="43.9294188" lon="7.9108351"><ele>454.0</ele><time>2026-04-26T12:54:23.349Z</time></trkpt><trkpt lat="43.9294844" lon="7.9109682"><ele>454.14285714285717</ele><time>2026-04-26T12:54:25.349Z</time></trkpt><trkpt lat="43.9295352" lon="7.9110228"><ele>454.28571428571433</ele><time>2026-04-26T12:54:26.349Z</time></trkpt><trkpt lat="43.9295944" lon="7.9110783"><ele>454.42857142857144</ele><time>2026-04-26T12:54:27.348Z</time></trkpt><trkpt lat="43.9296515" lon="7.9111375"><ele>454.57142857142856</ele><time>2026-04-26T12:54:28.349Z</time></trkpt><trkpt lat="43.9297094" lon="7.9111887"><ele>454.7142857142857</ele><time>2026-04-26T12:54:29.349Z</time></trkpt><trkpt lat="43.9297771" lon="7.9112431"><ele>454.8571428571429</ele><time>2026-04-26T12:54:30.349Z</time></trkpt><trkpt lat="43.929836" lon="7.9112918"><ele>455.0</ele><time>2026-04-26T12:54:31.348Z</time></trkpt><trkpt lat="43.9298863" lon="7.9113623"><ele>455.0</ele><time>2026-04-26T12:54:32.349Z</time></trkpt><trkpt lat="43.9299228" lon="7.9114437"><ele>455.0</ele><time>2026-04-26T12:54:33.35Z</time></trkpt><trkpt lat="43.9299696" lon="7.9115249"><ele>455.0</ele><time>2026-04-26T12:54:34.349Z</time></trkpt><trkpt lat="43.9300092" lon="7.9116027"><ele>455.0</ele><time>2026-04-26T12:54:35.349Z</time></trkpt><trkpt lat="43.9300607" lon="7.9116846"><ele>455.0</ele><time>2026-04-26T12:54:36.348Z</time></trkpt><trkpt lat="43.9301157" lon="7.9117607"><ele>455.0</ele><time>2026-04-26T12:54:37.349Z</time></trkpt><trkpt lat="43.9301749" lon="7.911834"><ele>455.0</ele><time>2026-04-26T12:54:38.349Z</time></trkpt><trkpt lat="43.9302409" lon="7.911914"><ele>451.49999999999994</ele><time>2026-04-26T12:54:39.348Z</time></trkpt><trkpt lat="43.9302876" lon="7.9119894"><ele>448.0</ele><time>2026-04-26T12:54:40.348Z</time></trkpt><trkpt lat="43.9303441" lon="7.9120682"><ele>444.5</ele><time>2026-04-26T12:54:41.349Z</time></trkpt><trkpt lat="43.9304116" lon="7.9121496"><ele>441.0</ele><time>2026-04-26T12:54:42.35Z</time></trkpt><trkpt lat="43.9304649" lon="7.9122242"><ele>437.49999999999994</ele><time>2026-04-26T12:54:43.349Z</time></trkpt><trkpt lat="43.9305128" lon="7.9123243"><ele>434.0</ele><time>2026-04-26T12:54:44.349Z</time></trkpt><trkpt lat="43.9305652" lon="7.9124336"><ele>434.0</ele><time>2026-04-26T12:54:45.349Z</time></trkpt><trkpt lat="43.9306164" lon="7.9125529"><ele>434.0</ele><time>2026-04-26T12:54:46.349Z</time></trkpt><trkpt lat="43.9306479" lon="7.9126679"><ele>434.0</ele><time>2026-04-26T12:54:47.35Z</time></trkpt><trkpt lat="43.9306835" lon="7.9127823"><ele>434.0</ele><time>2026-04-26T12:54:48.348Z</time></trkpt><trkpt lat="43.9307244" lon="7.9128883"><ele>434.0</ele><time>2026-04-26T12:54:49.349Z</time></trkpt><trkpt lat="43.9307979" lon="7.9129732"><ele>431.66666666666663</ele><time>2026-04-26T12:54:50.349Z</time></trkpt><trkpt lat="43.9308615" lon="7.9130498"><ele>429.3333333333333</ele><time>2026-04-26T12:54:51.35Z</time></trkpt><trkpt lat="43.9309328" lon="7.9131212"><ele>427.0</ele><time>2026-04-26T12:54:52.349Z</time></trkpt><trkpt lat="43.9309981" lon="7.913202"><ele>424.66666666666663</ele><time>2026-04-26T12:54:53.35Z</time></trkpt><trkpt lat="43.9310566" lon="7.9132909"><ele>422.3333333333333</ele><time>2026-04-26T12:54:54.348Z</time></trkpt><trkpt lat="43.9311165" lon="7.9133652"><ele>420.0</ele><time>2026-04-26T12:54:55.349Z</time></trkpt><trkpt lat="43.9311843" lon="7.9134482"><ele>420.0</ele><time>2026-04-26T12:54:56.349Z</time></trkpt><trkpt lat="43.9312577" lon="7.9135162"><ele>420.0</ele><time>2026-04-26T12:54:57.348Z</time></trkpt><trkpt lat="43.9313297" lon="7.9135874"><ele>420.0</ele><time>2026-04-26T12:54:58.348Z</time></trkpt><trkpt lat="43.9313959" lon="7.9136728"><ele>420.0</ele><time>2026-04-26T12:54:59.349Z</time></trkpt><trkpt lat="43.9314468" lon="7.9137669"><ele>420.0</ele><time>2026-04-26T12:55:00.348Z</time></trkpt><trkpt lat="43.9314914" lon="7.9138672"><ele>420.0</ele><time>2026-04-26T12:55:01.348Z</time></trkpt><trkpt lat="43.9315438" lon="7.9139594"><ele>420.0</ele><time>2026-04-26T12:55:02.35Z</time></trkpt><trkpt lat="43.9315914" lon="7.9140507"><ele>420.0</ele><time>2026-04-26T12:55:03.349Z</time></trkpt><trkpt lat="43.9316223" lon="7.9141358"><ele>420.0</ele><time>2026-04-26T12:55:04.35Z</time></trkpt><trkpt lat="43.9316506" lon="7.9142148"><ele>420.0</ele><time>2026-04-26T12:55:05.349Z</time></trkpt><trkpt lat="43.9316195" lon="7.9142976"><ele>420.0</ele><time>2026-04-26T12:55:06.349Z</time></trkpt><trkpt lat="43.9315971" lon="7.9143825"><ele>420.0</ele><time>2026-04-26T12:55:07.348Z</time></trkpt><trkpt lat="43.9315345" lon="7.9144661"><ele>420.0</ele><time>2026-04-26T12:55:08.349Z</time></trkpt><trkpt lat="43.9314738" lon="7.9145505"><ele>417.8333333333333</ele><time>2026-04-26T12:55:09.348Z</time></trkpt><trkpt lat="43.9314005" lon="7.9146273"><ele>415.66666666666663</ele><time>2026-04-26T12:55:10.349Z</time></trkpt><trkpt lat="43.9313437" lon="7.914705"><ele>413.5</ele><time>2026-04-26T12:55:11.349Z</time></trkpt><trkpt lat="43.9312833" lon="7.9147873"><ele>411.3333333333333</ele><time>2026-04-26T12:55:12.349Z</time></trkpt><trkpt lat="43.9312347" lon="7.9148731"><ele>409.16666666666663</ele><time>2026-04-26T12:55:13.35Z</time></trkpt><trkpt lat="43.93121" lon="7.9149762"><ele>407.0</ele><time>2026-04-26T12:55:14.35Z</time></trkpt><trkpt lat="43.9311873" lon="7.9150935"><ele>405.40000000000003</ele><time>2026-04-26T12:55:15.348Z</time></trkpt><trkpt lat="43.9311783" lon="7.9152137"><ele>403.8</ele><time>2026-04-26T12:55:16.348Z</time></trkpt><trkpt lat="43.9311938" lon="7.9153603"><ele>402.2</ele><time>2026-04-26T12:55:17.348Z</time></trkpt><trkpt lat="43.9312234" lon="7.9154999"><ele>400.6</ele><time>2026-04-26T12:55:18.349Z</time></trkpt><trkpt lat="43.9312509" lon="7.9156282"><ele>399.0</ele><time>2026-04-26T12:55:19.349Z</time></trkpt><trkpt lat="43.931277" lon="7.9157667"><ele>399.0</ele><time>2026-04-26T12:55:20.349Z</time></trkpt><trkpt lat="43.9312944" lon="7.915895"><ele>399.0</ele><time>2026-04-26T12:55:21.348Z</time></trkpt><trkpt lat="43.9313012" lon="7.9160124"><ele>399.0</ele><time>2026-04-26T12:55:22.351Z</time></trkpt><trkpt lat="43.9313132" lon="7.9161166"><ele>399.0</ele><time>2026-04-26T12:55:23.35Z</time></trkpt><trkpt lat="43.9313178" lon="7.916218"><ele>399.0</ele><time>2026-04-26T12:55:24.348Z</time></trkpt><trkpt lat="43.9313145" lon="7.9163106"><ele>399.0</ele><time>2026-04-26T12:55:25.348Z</time></trkpt><trkpt lat="43.9313211" lon="7.9164702"><ele>398.1666666666667</ele><time>2026-04-26T12:55:27.349Z</time></trkpt><trkpt lat="43.9313997" lon="7.9165169"><ele>397.33333333333337</ele><time>2026-04-26T12:55:29.349Z</time></trkpt><trkpt lat="43.9314409" lon="7.9164206"><ele>396.5</ele><time>2026-04-26T12:55:31.349Z</time></trkpt><trkpt lat="43.931429" lon="7.9163244"><ele>395.6666666666667</ele><time>2026-04-26T12:55:32.347Z</time></trkpt><trkpt lat="43.9314148" lon="7.9162183"><ele>394.83333333333337</ele><time>2026-04-26T12:55:33.347Z</time></trkpt><trkpt lat="43.9314069" lon="7.9161073"><ele>394.0</ele><time>2026-04-26T12:55:34.35Z</time></trkpt><trkpt lat="43.9313894" lon="7.916002"><ele>394.83333333333337</ele><time>2026-04-26T12:55:35.348Z</time></trkpt><trkpt lat="43.9313855" lon="7.9158928"><ele>395.6666666666667</ele><time>2026-04-26T12:55:36.349Z</time></trkpt><trkpt lat="43.9313891" lon="7.9157666"><ele>396.5</ele><time>2026-04-26T12:55:37.35Z</time></trkpt><trkpt lat="43.9314048" lon="7.915637"><ele>397.33333333333337</ele><time>2026-04-26T12:55:38.348Z</time></trkpt><trkpt lat="43.931419" lon="7.9155145"><ele>398.1666666666667</ele><time>2026-04-26T12:55:39.348Z</time></trkpt><trkpt lat="43.9314281" lon="7.9153891"><ele>399.0</ele><time>2026-04-26T12:55:40.349Z</time></trkpt><trkpt lat="43.9314494" lon="7.9152756"><ele>399.0</ele><time>2026-04-26T12:55:41.349Z</time></trkpt><trkpt lat="43.9314736" lon="7.91517"><ele>399.0</ele><time>2026-04-26T12:55:42.349Z</time></trkpt><trkpt lat="43.9315086" lon="7.9150648"><ele>399.0</ele><time>2026-04-26T12:55:43.35Z</time></trkpt><trkpt lat="43.9315544" lon="7.9149738"><ele>399.0</ele><time>2026-04-26T12:55:44.349Z</time></trkpt><trkpt lat="43.9316212" lon="7.9149035"><ele>399.0</ele><time>2026-04-26T12:55:45.349Z</time></trkpt><trkpt lat="43.9316787" lon="7.9148359"><ele>399.0</ele><time>2026-04-26T12:55:46.349Z</time></trkpt><trkpt lat="43.931751" lon="7.9147806"><ele>395.7142857142857</ele><time>2026-04-26T12:55:47.35Z</time></trkpt><trkpt lat="43.9318178" lon="7.914731"><ele>392.42857142857144</ele><time>2026-04-26T12:55:48.349Z</time></trkpt><trkpt lat="43.9318756" lon="7.9146731"><ele>389.1428571428571</ele><time>2026-04-26T12:55:49.349Z</time></trkpt><trkpt lat="43.9319258" lon="7.9146188"><ele>385.8571428571429</ele><time>2026-04-26T12:55:50.348Z</time></trkpt><trkpt lat="43.9319772" lon="7.9145644"><ele>382.57142857142856</ele><time>2026-04-26T12:55:51.349Z</time></trkpt><trkpt lat="43.9320576" lon="7.9145621"><ele>379.2857142857143</ele><time>2026-04-26T12:55:53.349Z</time></trkpt><trkpt lat="43.9320373" lon="7.9146591"><ele>376.0</ele><time>2026-04-26T12:55:55.349Z</time></trkpt><trkpt lat="43.9319179" lon="7.9147583"><ele>376.0</ele><time>2026-04-26T12:55:57.35Z</time></trkpt><trkpt lat="43.9318529" lon="7.9148204"><ele>376.0</ele><time>2026-04-26T12:55:58.35Z</time></trkpt><trkpt lat="43.9317933" lon="7.9148947"><ele>376.0</ele><time>2026-04-26T12:55:59.348Z</time></trkpt><trkpt lat="43.9317459" lon="7.9149739"><ele>376.0</ele><time>2026-04-26T12:56:00.349Z</time></trkpt><trkpt lat="43.9317035" lon="7.9150643"><ele>376.0</ele><time>2026-04-26T12:56:01.348Z</time></trkpt><trkpt lat="43.9316895" lon="7.9151564"><ele>376.0</ele><time>2026-04-26T12:56:02.35Z</time></trkpt><trkpt lat="43.9316712" lon="7.9152458"><ele>376.0</ele><time>2026-04-26T12:56:03.35Z</time></trkpt><trkpt lat="43.9316594" lon="7.9153325"><ele>374.5</ele><time>2026-04-26T12:56:04.349Z</time></trkpt><trkpt lat="43.9316652" lon="7.9154233"><ele>373.0</ele><time>2026-04-26T12:56:05.349Z</time></trkpt><trkpt lat="43.9316959" lon="7.915599"><ele>371.5</ele><time>2026-04-26T12:56:07.35Z</time></trkpt><trkpt lat="43.9317235" lon="7.9156991"><ele>370.0</ele><time>2026-04-26T12:56:08.349Z</time></trkpt><trkpt lat="43.9317448" lon="7.9158023"><ele>368.5</ele><time>2026-04-26T12:56:09.349Z</time></trkpt><trkpt lat="43.9317591" lon="7.9159123"><ele>367.0</ele><time>2026-04-26T12:56:10.348Z</time></trkpt><trkpt lat="43.9317749" lon="7.9160133"><ele>365.8</ele><time>2026-04-26T12:56:11.349Z</time></trkpt><trkpt lat="43.9318125" lon="7.9161744"><ele>364.6</ele><time>2026-04-26T12:56:13.349Z</time></trkpt><trkpt lat="43.931874" lon="7.9163318"><ele>363.40000000000003</ele><time>2026-04-26T12:56:15.35Z</time></trkpt><trkpt lat="43.931914" lon="7.9164053"><ele>362.20000000000005</ele><time>2026-04-26T12:56:16.348Z</time></trkpt><trkpt lat="43.9319891" lon="7.9165418"><ele>361.0</ele><time>2026-04-26T12:56:18.348Z</time></trkpt><trkpt lat="43.9320189" lon="7.9166983"><ele>363.0</ele><time>2026-04-26T12:56:20.349Z</time></trkpt><trkpt lat="43.9319476" lon="7.9168248"><ele>365.0</ele><time>2026-04-26T12:56:22.348Z</time></trkpt><trkpt lat="43.931839" lon="7.9169233"><ele>367.0</ele><time>2026-04-26T12:56:24.349Z</time></trkpt><trkpt lat="43.9317727" lon="7.9169756"><ele>369.0</ele><time>2026-04-26T12:56:25.349Z</time></trkpt><trkpt lat="43.9317059" lon="7.9170313"><ele>371.0</ele><time>2026-04-26T12:56:26.349Z</time></trkpt><trkpt lat="43.9316451" lon="7.9170941"><ele>371.0</ele><time>2026-04-26T12:56:27.349Z</time></trkpt><trkpt lat="43.9315914" lon="7.9171619"><ele>371.0</ele><time>2026-04-26T12:56:28.35Z</time></trkpt><trkpt lat="43.9315437" lon="7.9172491"><ele>371.0</ele><time>2026-04-26T12:56:29.348Z</time></trkpt><trkpt lat="43.9315025" lon="7.9173521"><ele>371.0</ele><time>2026-04-26T12:56:30.349Z</time></trkpt><trkpt lat="43.9314667" lon="7.9174566"><ele>371.0</ele><time>2026-04-26T12:56:31.348Z</time></trkpt><trkpt lat="43.9314096" lon="7.9175335"><ele>371.0</ele><time>2026-04-26T12:56:32.349Z</time></trkpt><trkpt lat="43.9313563" lon="7.9176093"><ele>367.6</ele><time>2026-04-26T12:56:33.349Z</time></trkpt><trkpt lat="43.9312777" lon="7.9176617"><ele>364.20000000000005</ele><time>2026-04-26T12:56:34.35Z</time></trkpt><trkpt lat="43.9312135" lon="7.9177115"><ele>360.79999999999995</ele><time>2026-04-26T12:56:35.351Z</time></trkpt><trkpt lat="43.9311188" lon="7.9178287"><ele>357.4</ele><time>2026-04-26T12:56:37.348Z</time></trkpt><trkpt lat="43.9310828" lon="7.91798"><ele>354.0</ele><time>2026-04-26T12:56:39.349Z</time></trkpt><trkpt lat="43.9311432" lon="7.9180509"><ele>354.0</ele><time>2026-04-26T12:56:40.348Z</time></trkpt><trkpt lat="43.9311923" lon="7.9181139"><ele>354.0</ele><time>2026-04-26T12:56:41.348Z</time></trkpt><trkpt lat="43.9312481" lon="7.9181845"><ele>354.0</ele><time>2026-04-26T12:56:42.349Z</time></trkpt><trkpt lat="43.9312975" lon="7.9182387"><ele>354.0</ele><time>2026-04-26T12:56:43.349Z</time></trkpt><trkpt lat="43.9313238" lon="7.9183213"><ele>354.0</ele><time>2026-04-26T12:56:44.349Z</time></trkpt><trkpt lat="43.9313452" lon="7.9184047"><ele>354.0</ele><time>2026-04-26T12:56:45.351Z</time></trkpt><trkpt lat="43.9312926" lon="7.9185746"><ele>351.6</ele><time>2026-04-26T12:56:47.349Z</time></trkpt><trkpt lat="43.9312699" lon="7.918675"><ele>349.2</ele><time>2026-04-26T12:56:48.349Z</time></trkpt><trkpt lat="43.9312257" lon="7.9188011"><ele>346.8</ele><time>2026-04-26T12:56:49.348Z</time></trkpt><trkpt lat="43.9311565" lon="7.9189286"><ele>344.40000000000003</ele><time>2026-04-26T12:56:50.349Z</time></trkpt><trkpt lat="43.9310981" lon="7.9190517"><ele>342.0</ele><time>2026-04-26T12:56:51.35Z</time></trkpt><trkpt lat="43.9310366" lon="7.9191673"><ele>342.1666666666667</ele><time>2026-04-26T12:56:52.348Z</time></trkpt><trkpt lat="43.9309821" lon="7.9192814"><ele>342.3333333333333</ele><time>2026-04-26T12:56:53.349Z</time></trkpt><trkpt lat="43.9309336" lon="7.9193968"><ele>342.5</ele><time>2026-04-26T12:56:54.348Z</time></trkpt><trkpt lat="43.930891" lon="7.9194951"><ele>342.66666666666663</ele><time>2026-04-26T12:56:55.349Z</time></trkpt><trkpt lat="43.9308296" lon="7.9195831"><ele>342.8333333333333</ele><time>2026-04-26T12:56:56.349Z</time></trkpt><trkpt lat="43.930767" lon="7.9196495"><ele>343.0</ele><time>2026-04-26T12:56:57.35Z</time></trkpt><trkpt lat="43.9306986" lon="7.919688"><ele>343.0</ele><time>2026-04-26T12:56:58.35Z</time></trkpt><trkpt lat="43.9306099" lon="7.9197135"><ele>343.0</ele><time>2026-04-26T12:56:59.348Z</time></trkpt><trkpt lat="43.9304945" lon="7.9197064"><ele>343.0</ele><time>2026-04-26T12:57:00.349Z</time></trkpt><trkpt lat="43.9303858" lon="7.9197023"><ele>343.0</ele><time>2026-04-26T12:57:01.349Z</time></trkpt><trkpt lat="43.9302782" lon="7.9196934"><ele>343.0</ele><time>2026-04-26T12:57:02.349Z</time></trkpt><trkpt lat="43.930178" lon="7.9196839"><ele>343.0</ele><time>2026-04-26T12:57:03.35Z</time></trkpt><trkpt lat="43.9300777" lon="7.9196793"><ele>343.0</ele><time>2026-04-26T12:57:04.35Z</time></trkpt><trkpt lat="43.9299869" lon="7.9196717"><ele>343.0</ele><time>2026-04-26T12:57:05.348Z</time></trkpt><trkpt lat="43.9298973" lon="7.919641"><ele>343.0</ele><time>2026-04-26T12:57:06.349Z</time></trkpt><trkpt lat="43.9298163" lon="7.9195881"><ele>343.0</ele><time>2026-04-26T12:57:07.349Z</time></trkpt><trkpt lat="43.929751" lon="7.9195023"><ele>341.59999999999997</ele><time>2026-04-26T12:57:08.35Z</time></trkpt><trkpt lat="43.9296803" lon="7.919425"><ele>340.2</ele><time>2026-04-26T12:57:09.349Z</time></trkpt><trkpt lat="43.9296172" lon="7.9193489"><ele>338.8</ele><time>2026-04-26T12:57:10.35Z</time></trkpt><trkpt lat="43.9295473" lon="7.9192992"><ele>337.4</ele><time>2026-04-26T12:57:11.349Z</time></trkpt><trkpt lat="43.9294497" lon="7.919269"><ele>336.0</ele><time>2026-04-26T12:57:12.35Z</time></trkpt><trkpt lat="43.9293532" lon="7.9192501"><ele>338.20000000000005</ele><time>2026-04-26T12:57:13.349Z</time></trkpt><trkpt lat="43.9292552" lon="7.9192246"><ele>340.40000000000003</ele><time>2026-04-26T12:57:14.348Z</time></trkpt><trkpt lat="43.9291597" lon="7.9191847"><ele>342.6</ele><time>2026-04-26T12:57:15.349Z</time></trkpt><trkpt lat="43.9290693" lon="7.9191388"><ele>344.8</ele><time>2026-04-26T12:57:16.348Z</time></trkpt><trkpt lat="43.9289851" lon="7.9190778"><ele>347.0</ele><time>2026-04-26T12:57:17.348Z</time></trkpt><trkpt lat="43.9289104" lon="7.9190038"><ele>347.0</ele><time>2026-04-26T12:57:18.349Z</time></trkpt><trkpt lat="43.9288476" lon="7.9189156"><ele>347.0</ele><time>2026-04-26T12:57:19.348Z</time></trkpt><trkpt lat="43.9287823" lon="7.9188335"><ele>347.0</ele><time>2026-04-26T12:57:20.348Z</time></trkpt><trkpt lat="43.9287141" lon="7.9187619"><ele>347.0</ele><time>2026-04-26T12:57:21.349Z</time></trkpt><trkpt lat="43.9286322" lon="7.9187496"><ele>347.0</ele><time>2026-04-26T12:57:22.349Z</time></trkpt><trkpt lat="43.9285577" lon="7.9187422"><ele>347.0</ele><time>2026-04-26T12:57:23.348Z</time></trkpt><trkpt lat="43.9284936" lon="7.9187744"><ele>347.0</ele><time>2026-04-26T12:57:24.348Z</time></trkpt><trkpt lat="43.9284394" lon="7.9188322"><ele>347.0</ele><time>2026-04-26T12:57:25.349Z</time></trkpt><trkpt lat="43.9284001" lon="7.918912"><ele>347.0</ele><time>2026-04-26T12:57:26.348Z</time></trkpt><trkpt lat="43.9283681" lon="7.919005"><ele>347.0</ele><time>2026-04-26T12:57:27.35Z</time></trkpt><trkpt lat="43.9283378" lon="7.9190954"><ele>347.0</ele><time>2026-04-26T12:57:28.35Z</time></trkpt><trkpt lat="43.928284" lon="7.9192565"><ele>347.0</ele><time>2026-04-26T12:57:30.35Z</time></trkpt><trkpt lat="43.9282563" lon="7.9193409"><ele>346.83333333333337</ele><time>2026-04-26T12:57:31.348Z</time></trkpt><trkpt lat="43.9282393" lon="7.9194386"><ele>346.6666666666667</ele><time>2026-04-26T12:57:32.349Z</time></trkpt><trkpt lat="43.9282293" lon="7.9195401"><ele>346.5</ele><time>2026-04-26T12:57:33.348Z</time></trkpt><trkpt lat="43.9282364" lon="7.9196557"><ele>346.3333333333333</ele><time>2026-04-26T12:57:34.349Z</time></trkpt><trkpt lat="43.9282453" lon="7.9197726"><ele>346.16666666666663</ele><time>2026-04-26T12:57:35.349Z</time></trkpt><trkpt lat="43.9282685" lon="7.9198877"><ele>346.0</ele><time>2026-04-26T12:57:36.348Z</time></trkpt><trkpt lat="43.9282858" lon="7.920002"><ele>348.3333333333333</ele><time>2026-04-26T12:57:37.35Z</time></trkpt><trkpt lat="43.9283185" lon="7.9201078"><ele>350.66666666666663</ele><time>2026-04-26T12:57:38.35Z</time></trkpt><trkpt lat="43.9283595" lon="7.920203"><ele>353.0</ele><time>2026-04-26T12:57:39.35Z</time></trkpt><trkpt lat="43.9284134" lon="7.9203062"><ele>355.3333333333333</ele><time>2026-04-26T12:57:40.349Z</time></trkpt><trkpt lat="43.9284698" lon="7.9204122"><ele>357.6666666666667</ele><time>2026-04-26T12:57:41.349Z</time></trkpt><trkpt lat="43.9285241" lon="7.9205168"><ele>360.0</ele><time>2026-04-26T12:57:42.349Z</time></trkpt><trkpt lat="43.9285658" lon="7.9206264"><ele>352.4</ele><time>2026-04-26T12:57:43.35Z</time></trkpt><trkpt lat="43.928603" lon="7.9207423"><ele>344.8</ele><time>2026-04-26T12:57:44.349Z</time></trkpt><trkpt lat="43.9286421" lon="7.9208585"><ele>337.20000000000005</ele><time>2026-04-26T12:57:45.349Z</time></trkpt><trkpt lat="43.9286883" lon="7.92097"><ele>329.6</ele><time>2026-04-26T12:57:46.349Z</time></trkpt><trkpt lat="43.9287492" lon="7.9210663"><ele>322.0</ele><time>2026-04-26T12:57:47.349Z</time></trkpt><trkpt lat="43.9288103" lon="7.921159"><ele>322.0</ele><time>2026-04-26T12:57:48.349Z</time></trkpt><trkpt lat="43.9288705" lon="7.9212441"><ele>322.0</ele><time>2026-04-26T12:57:49.35Z</time></trkpt><trkpt lat="43.9289317" lon="7.9213427"><ele>322.0</ele><time>2026-04-26T12:57:50.35Z</time></trkpt><trkpt lat="43.9289871" lon="7.9214491"><ele>322.0</ele><time>2026-04-26T12:57:51.349Z</time></trkpt><trkpt lat="43.9290182" lon="7.9215694"><ele>322.0</ele><time>2026-04-26T12:57:52.349Z</time></trkpt><trkpt lat="43.9290453" lon="7.9216959"><ele>323.20000000000005</ele><time>2026-04-26T12:57:53.349Z</time></trkpt><trkpt lat="43.9290617" lon="7.9218143"><ele>324.4</ele><time>2026-04-26T12:57:54.349Z</time></trkpt><trkpt lat="43.9290675" lon="7.9219385"><ele>325.6</ele><time>2026-04-26T12:57:55.349Z</time></trkpt><trkpt lat="43.9290623" lon="7.9220651"><ele>326.79999999999995</ele><time>2026-04-26T12:57:56.349Z</time></trkpt><trkpt lat="43.9290561" lon="7.9221886"><ele>328.0</ele><time>2026-04-26T12:57:57.35Z</time></trkpt><trkpt lat="43.9290612" lon="7.9223228"><ele>328.0</ele><time>2026-04-26T12:57:58.348Z</time></trkpt><trkpt lat="43.9290907" lon="7.922455"><ele>328.0</ele><time>2026-04-26T12:57:59.35Z</time></trkpt><trkpt lat="43.9291274" lon="7.9225844"><ele>328.0</ele><time>2026-04-26T12:58:00.349Z</time></trkpt><trkpt lat="43.9291693" lon="7.922713"><ele>328.0</ele><time>2026-04-26T12:58:01.35Z</time></trkpt><trkpt lat="43.9292266" lon="7.9228195"><ele>328.0</ele><time>2026-04-26T12:58:02.35Z</time></trkpt><trkpt lat="43.9292764" lon="7.9229139"><ele>326.8333333333333</ele><time>2026-04-26T12:58:03.349Z</time></trkpt><trkpt lat="43.9293116" lon="7.9230045"><ele>325.66666666666663</ele><time>2026-04-26T12:58:04.348Z</time></trkpt><trkpt lat="43.929336" lon="7.9231023"><ele>324.5</ele><time>2026-04-26T12:58:05.349Z</time></trkpt><trkpt lat="43.9293302" lon="7.9232088"><ele>323.3333333333333</ele><time>2026-04-26T12:58:06.349Z</time></trkpt><trkpt lat="43.929293" lon="7.9233057"><ele>322.1666666666667</ele><time>2026-04-26T12:58:07.35Z</time></trkpt><trkpt lat="43.9292256" lon="7.9233945"><ele>321.0</ele><time>2026-04-26T12:58:08.35Z</time></trkpt><trkpt lat="43.9291389" lon="7.923476"><ele>315.5</ele><time>2026-04-26T12:58:09.35Z</time></trkpt><trkpt lat="43.9290308" lon="7.923545"><ele>310.0</ele><time>2026-04-26T12:58:10.35Z</time></trkpt><trkpt lat="43.928922" lon="7.9236134"><ele>304.5</ele><time>2026-04-26T12:58:11.349Z</time></trkpt><trkpt lat="43.9288223" lon="7.9236864"><ele>299.0</ele><time>2026-04-26T12:58:12.349Z</time></trkpt><trkpt lat="43.9287268" lon="7.9237687"><ele>299.0</ele><time>2026-04-26T12:58:13.35Z</time></trkpt><trkpt lat="43.928637" lon="7.9238614"><ele>299.0</ele><time>2026-04-26T12:58:14.349Z</time></trkpt><trkpt lat="43.9285525" lon="7.9239459"><ele>299.0</ele><time>2026-04-26T12:58:15.35Z</time></trkpt><trkpt lat="43.9284645" lon="7.9240326"><ele>299.0</ele><time>2026-04-26T12:58:16.349Z</time></trkpt><trkpt lat="43.9283837" lon="7.924116"><ele>299.0</ele><time>2026-04-26T12:58:17.349Z</time></trkpt><trkpt lat="43.9283002" lon="7.9241769"><ele>297.0</ele><time>2026-04-26T12:58:18.349Z</time></trkpt><trkpt lat="43.9282059" lon="7.9242176"><ele>295.0</ele><time>2026-04-26T12:58:19.349Z</time></trkpt><trkpt lat="43.9280962" lon="7.9242479"><ele>293.0</ele><time>2026-04-26T12:58:20.35Z</time></trkpt><trkpt lat="43.9279833" lon="7.9242781"><ele>291.0</ele><time>2026-04-26T12:58:21.349Z</time></trkpt><trkpt lat="43.9278772" lon="7.9243173"><ele>289.0</ele><time>2026-04-26T12:58:22.349Z</time></trkpt><trkpt lat="43.9277836" lon="7.9243748"><ele>289.0</ele><time>2026-04-26T12:58:23.349Z</time></trkpt><trkpt lat="43.9277011" lon="7.9244458"><ele>289.0</ele><time>2026-04-26T12:58:24.35Z</time></trkpt><trkpt lat="43.9276399" lon="7.924552"><ele>289.0</ele><time>2026-04-26T12:58:25.349Z</time></trkpt><trkpt lat="43.9275944" lon="7.9246903"><ele>289.0</ele><time>2026-04-26T12:58:26.349Z</time></trkpt><trkpt lat="43.9275683" lon="7.9248459"><ele>289.0</ele><time>2026-04-26T12:58:27.35Z</time></trkpt><trkpt lat="43.9275546" lon="7.9250073"><ele>291.59999999999997</ele><time>2026-04-26T12:58:28.349Z</time></trkpt><trkpt lat="43.9275741" lon="7.9251684"><ele>294.2</ele><time>2026-04-26T12:58:29.35Z</time></trkpt><trkpt lat="43.9275877" lon="7.9253254"><ele>296.79999999999995</ele><time>2026-04-26T12:58:30.348Z</time></trkpt><trkpt lat="43.9275884" lon="7.9254729"><ele>299.4</ele><time>2026-04-26T12:58:31.349Z</time></trkpt><trkpt lat="43.927569" lon="7.9256011"><ele>302.0</ele><time>2026-04-26T12:58:32.348Z</time></trkpt><trkpt lat="43.92755" lon="7.9257201"><ele>302.0</ele><time>2026-04-26T12:58:33.349Z</time></trkpt><trkpt lat="43.9275301" lon="7.92582"><ele>302.0</ele><time>2026-04-26T12:58:34.349Z</time></trkpt><trkpt lat="43.9275082" lon="7.9259024"><ele>302.0</ele><time>2026-04-26T12:58:35.349Z</time></trkpt><trkpt lat="43.9275071" lon="7.9260437"><ele>302.0</ele><time>2026-04-26T12:58:37.349Z</time></trkpt><trkpt lat="43.9275884" lon="7.9260232"><ele>302.0</ele><time>2026-04-26T12:58:39.35Z</time></trkpt><trkpt lat="43.9276318" lon="7.9258762"><ele>302.0</ele><time>2026-04-26T12:58:41.349Z</time></trkpt><trkpt lat="43.9276399" lon="7.9257573"><ele>296.2</ele><time>2026-04-26T12:58:42.35Z</time></trkpt><trkpt lat="43.9276554" lon="7.9256337"><ele>290.4</ele><time>2026-04-26T12:58:43.35Z</time></trkpt><trkpt lat="43.9276852" lon="7.9254958"><ele>284.6</ele><time>2026-04-26T12:58:44.349Z</time></trkpt><trkpt lat="43.9277224" lon="7.9253545"><ele>278.8</ele><time>2026-04-26T12:58:45.349Z</time></trkpt><trkpt lat="43.9277684" lon="7.9252261"><ele>273.0</ele><time>2026-04-26T12:58:46.349Z</time></trkpt><trkpt lat="43.9278363" lon="7.9251192"><ele>276.2</ele><time>2026-04-26T12:58:47.349Z</time></trkpt><trkpt lat="43.9279149" lon="7.9250406"><ele>279.4</ele><time>2026-04-26T12:58:48.35Z</time></trkpt><trkpt lat="43.9280061" lon="7.9249755"><ele>282.59999999999997</ele><time>2026-04-26T12:58:49.349Z</time></trkpt><trkpt lat="43.9281076" lon="7.9249263"><ele>285.8</ele><time>2026-04-26T12:58:50.35Z</time></trkpt><trkpt lat="43.9282231" lon="7.9248831"><ele>289.0</ele><time>2026-04-26T12:58:51.35Z</time></trkpt><trkpt lat="43.9283662" lon="7.9248411"><ele>286.0</ele><time>2026-04-26T12:58:52.35Z</time></trkpt><trkpt lat="43.9284989" lon="7.9247978"><ele>283.0</ele><time>2026-04-26T12:58:53.35Z</time></trkpt><trkpt lat="43.9286303" lon="7.9247557"><ele>280.0</ele><time>2026-04-26T12:58:54.349Z</time></trkpt><trkpt lat="43.928757" lon="7.9247206"><ele>277.0</ele><time>2026-04-26T12:58:55.349Z</time></trkpt><trkpt lat="43.9288782" lon="7.9246861"><ele>277.0</ele><time>2026-04-26T12:58:56.35Z</time></trkpt><trkpt lat="43.9289906" lon="7.9246522"><ele>277.0</ele><time>2026-04-26T12:58:57.349Z</time></trkpt><trkpt lat="43.9290971" lon="7.9246184"><ele>277.0</ele><time>2026-04-26T12:58:58.35Z</time></trkpt><trkpt lat="43.929202" lon="7.924588"><ele>277.0</ele><time>2026-04-26T12:58:59.35Z</time></trkpt><trkpt lat="43.9292976" lon="7.9245697"><ele>277.0</ele><time>2026-04-26T12:59:00.35Z</time></trkpt><trkpt lat="43.9293876" lon="7.9245705"><ele>276.3333333333333</ele><time>2026-04-26T12:59:01.348Z</time></trkpt><trkpt lat="43.9294741" lon="7.9245978"><ele>275.66666666666663</ele><time>2026-04-26T12:59:02.349Z</time></trkpt><trkpt lat="43.9295551" lon="7.9246409"><ele>275.0</ele><time>2026-04-26T12:59:03.349Z</time></trkpt><trkpt lat="43.9296299" lon="7.9247016"><ele>274.3333333333333</ele><time>2026-04-26T12:59:04.348Z</time></trkpt><trkpt lat="43.9296929" lon="7.9247534"><ele>273.6666666666667</ele><time>2026-04-26T12:59:05.349Z</time></trkpt><trkpt lat="43.9297451" lon="7.9248069"><ele>273.0</ele><time>2026-04-26T12:59:06.349Z</time></trkpt><trkpt lat="43.9298076" lon="7.9249373"><ele>273.0</ele><time>2026-04-26T12:59:08.35Z</time></trkpt><trkpt lat="43.9297782" lon="7.9250253"><ele>273.0</ele><time>2026-04-26T12:59:10.348Z</time></trkpt><trkpt lat="43.9297067" lon="7.924986"><ele>273.0</ele><time>2026-04-26T12:59:11.349Z</time></trkpt><trkpt lat="43.9296452" lon="7.9249339"><ele>273.0</ele><time>2026-04-26T12:59:12.349Z</time></trkpt><trkpt lat="43.9295809" lon="7.9248753"><ele>273.0</ele><time>2026-04-26T12:59:13.35Z</time></trkpt><trkpt lat="43.9295054" lon="7.9248431"><ele>273.0</ele><time>2026-04-26T12:59:14.349Z</time></trkpt><trkpt lat="43.9294194" lon="7.9248511"><ele>273.0</ele><time>2026-04-26T12:59:15.35Z</time></trkpt><trkpt lat="43.9293344" lon="7.9248966"><ele>273.0</ele><time>2026-04-26T12:59:16.349Z</time></trkpt><trkpt lat="43.9292463" lon="7.9249516"><ele>273.0</ele><time>2026-04-26T12:59:17.348Z</time></trkpt><trkpt lat="43.929165" lon="7.9250191"><ele>273.0</ele><time>2026-04-26T12:59:18.35Z</time></trkpt><trkpt lat="43.9290902" lon="7.9250844"><ele>273.0</ele><time>2026-04-26T12:59:19.35Z</time></trkpt><trkpt lat="43.9290199" lon="7.9251572"><ele>270.8333333333333</ele><time>2026-04-26T12:59:20.349Z</time></trkpt><trkpt lat="43.9289538" lon="7.9252353"><ele>268.6666666666667</ele><time>2026-04-26T12:59:21.35Z</time></trkpt><trkpt lat="43.928898" lon="7.9253125"><ele>266.5</ele><time>2026-04-26T12:59:22.349Z</time></trkpt><trkpt lat="43.9288434" lon="7.9253922"><ele>264.33333333333337</ele><time>2026-04-26T12:59:23.35Z</time></trkpt><trkpt lat="43.9287941" lon="7.9254731"><ele>262.1666666666667</ele><time>2026-04-26T12:59:24.349Z</time></trkpt><trkpt lat="43.928752" lon="7.9255546"><ele>260.0</ele><time>2026-04-26T12:59:25.35Z</time></trkpt><trkpt lat="43.9287211" lon="7.9256504"><ele>260.00000000000006</ele><time>2026-04-26T12:59:26.349Z</time></trkpt><trkpt lat="43.9286981" lon="7.9257458"><ele>260.0</ele><time>2026-04-26T12:59:27.349Z</time></trkpt><trkpt lat="43.9286897" lon="7.9258478"><ele>260.0</ele><time>2026-04-26T12:59:28.349Z</time></trkpt><trkpt lat="43.9286889" lon="7.9259541"><ele>260.0</ele><time>2026-04-26T12:59:29.35Z</time></trkpt><trkpt lat="43.9286871" lon="7.9260552"><ele>260.0</ele><time>2026-04-26T12:59:30.349Z</time></trkpt><trkpt lat="43.9286812" lon="7.9261613"><ele>260.00000000000006</ele><time>2026-04-26T12:59:31.35Z</time></trkpt><trkpt lat="43.928676" lon="7.9262498"><ele>260.0</ele><time>2026-04-26T12:59:32.35Z</time></trkpt><trkpt lat="43.9286547" lon="7.9263341"><ele>257.6666666666667</ele><time>2026-04-26T12:59:33.348Z</time></trkpt><trkpt lat="43.9285916" lon="7.9264748"><ele>255.33333333333334</ele><time>2026-04-26T12:59:35.349Z</time></trkpt><trkpt lat="43.9285534" lon="7.9265447"><ele>253.0</ele><time>2026-04-26T12:59:36.35Z</time></trkpt><trkpt lat="43.9285087" lon="7.9266285"><ele>250.66666666666669</ele><time>2026-04-26T12:59:37.35Z</time></trkpt><trkpt lat="43.9284637" lon="7.9267152"><ele>248.33333333333334</ele><time>2026-04-26T12:59:38.349Z</time></trkpt><trkpt lat="43.9284174" lon="7.9267993"><ele>246.0</ele><time>2026-04-26T12:59:39.349Z</time></trkpt><trkpt lat="43.9283695" lon="7.9268821"><ele>245.42857142857144</ele><time>2026-04-26T12:59:40.351Z</time></trkpt><trkpt lat="43.9283152" lon="7.9269538"><ele>244.85714285714286</ele><time>2026-04-26T12:59:41.35Z</time></trkpt><trkpt lat="43.9282533" lon="7.9270011"><ele>244.28571428571428</ele><time>2026-04-26T12:59:42.35Z</time></trkpt><trkpt lat="43.9281864" lon="7.9270408"><ele>243.71428571428572</ele><time>2026-04-26T12:59:43.349Z</time></trkpt><trkpt lat="43.9281162" lon="7.9270624"><ele>243.1428571428571</ele><time>2026-04-26T12:59:44.35Z</time></trkpt><trkpt lat="43.9280477" lon="7.9270807"><ele>242.57142857142856</ele><time>2026-04-26T12:59:45.349Z</time></trkpt><trkpt lat="43.9279835" lon="7.9271112"><ele>242.0</ele><time>2026-04-26T12:59:46.349Z</time></trkpt><trkpt lat="43.9279131" lon="7.927161"><ele>242.0</ele><time>2026-04-26T12:59:47.349Z</time></trkpt><trkpt lat="43.9278465" lon="7.9272218"><ele>242.0</ele><time>2026-04-26T12:59:48.35Z</time></trkpt><trkpt lat="43.9277713" lon="7.927285"><ele>242.0</ele><time>2026-04-26T12:59:49.35Z</time></trkpt><trkpt lat="43.9276979" lon="7.9273473"><ele>242.0</ele><time>2026-04-26T12:59:50.35Z</time></trkpt><trkpt lat="43.9276137" lon="7.9274153"><ele>242.0</ele><time>2026-04-26T12:59:51.35Z</time></trkpt><trkpt lat="43.9275282" lon="7.9274937"><ele>239.39999999999998</ele><time>2026-04-26T12:59:52.349Z</time></trkpt><trkpt lat="43.9274455" lon="7.927606"><ele>236.79999999999998</ele><time>2026-04-26T12:59:53.349Z</time></trkpt><trkpt lat="43.9273716" lon="7.927731"><ele>234.2</ele><time>2026-04-26T12:59:54.349Z</time></trkpt><trkpt lat="43.9273175" lon="7.9278566"><ele>231.6</ele><time>2026-04-26T12:59:55.349Z</time></trkpt><trkpt lat="43.9272581" lon="7.9279649"><ele>229.0</ele><time>2026-04-26T12:59:56.35Z</time></trkpt><trkpt lat="43.9271807" lon="7.9280676"><ele>229.0</ele><time>2026-04-26T12:59:57.35Z</time></trkpt><trkpt lat="43.9270831" lon="7.9281605"><ele>229.0</ele><time>2026-04-26T12:59:58.35Z</time></trkpt><trkpt lat="43.926986" lon="7.9282746"><ele>229.0</ele><time>2026-04-26T12:59:59.349Z</time></trkpt><trkpt lat="43.9268936" lon="7.9283996"><ele>229.0</ele><time>2026-04-26T13:00:00.349Z</time></trkpt><trkpt lat="43.9268037" lon="7.9285173"><ele>229.2</ele><time>2026-04-26T13:00:01.349Z</time></trkpt><trkpt lat="43.926705" lon="7.928619"><ele>229.39999999999998</ele><time>2026-04-26T13:00:02.35Z</time></trkpt><trkpt lat="43.9266268" lon="7.9287134"><ele>229.6</ele><time>2026-04-26T13:00:03.35Z</time></trkpt><trkpt lat="43.9265402" lon="7.9288091"><ele>229.8</ele><time>2026-04-26T13:00:04.35Z</time></trkpt><trkpt lat="43.9264789" lon="7.928906"><ele>230.0</ele><time>2026-04-26T13:00:05.35Z</time></trkpt><trkpt lat="43.9264279" lon="7.9290172"><ele>230.0</ele><time>2026-04-26T13:00:06.349Z</time></trkpt><trkpt lat="43.9263857" lon="7.9291229"><ele>230.0</ele><time>2026-04-26T13:00:07.349Z</time></trkpt><trkpt lat="43.9263552" lon="7.9292349"><ele>230.0</ele><time>2026-04-26T13:00:08.349Z</time></trkpt><trkpt lat="43.9263463" lon="7.9293541"><ele>230.0</ele><time>2026-04-26T13:00:09.349Z</time></trkpt><trkpt lat="43.92634" lon="7.9294861"><ele>230.0</ele><time>2026-04-26T13:00:10.349Z</time></trkpt><trkpt lat="43.9263348" lon="7.9296378"><ele>228.0</ele><time>2026-04-26T13:00:11.349Z</time></trkpt><trkpt lat="43.9263329" lon="7.9297924"><ele>226.0</ele><time>2026-04-26T13:00:12.35Z</time></trkpt><trkpt lat="43.9263348" lon="7.9299489"><ele>224.0</ele><time>2026-04-26T13:00:13.35Z</time></trkpt><trkpt lat="43.9263446" lon="7.9300982"><ele>222.0</ele><time>2026-04-26T13:00:14.35Z</time></trkpt><trkpt lat="43.9263614" lon="7.9302324"><ele>220.0</ele><time>2026-04-26T13:00:15.349Z</time></trkpt><trkpt lat="43.9263841" lon="7.9303644"><ele>218.83333333333331</ele><time>2026-04-26T13:00:16.35Z</time></trkpt><trkpt lat="43.9264083" lon="7.9304944"><ele>217.66666666666666</ele><time>2026-04-26T13:00:17.35Z</time></trkpt><trkpt lat="43.9264294" lon="7.9306123"><ele>216.5</ele><time>2026-04-26T13:00:18.35Z</time></trkpt><trkpt lat="43.926444" lon="7.9307214"><ele>215.33333333333331</ele><time>2026-04-26T13:00:19.349Z</time></trkpt><trkpt lat="43.9264474" lon="7.9308227"><ele>214.16666666666666</ele><time>2026-04-26T13:00:20.349Z</time></trkpt><trkpt lat="43.9264425" lon="7.9309109"><ele>213.0</ele><time>2026-04-26T13:00:21.349Z</time></trkpt><trkpt lat="43.9264948" lon="7.9310279"><ele>213.0</ele><time>2026-04-26T13:00:23.35Z</time></trkpt><trkpt lat="43.9265803" lon="7.930994"><ele>213.0</ele><time>2026-04-26T13:00:25.349Z</time></trkpt><trkpt lat="43.9265504" lon="7.9308417"><ele>213.0</ele><time>2026-04-26T13:00:27.35Z</time></trkpt><trkpt lat="43.9265155" lon="7.9306998"><ele>213.0</ele><time>2026-04-26T13:00:29.349Z</time></trkpt><trkpt lat="43.9264921" lon="7.9305529"><ele>213.0</ele><time>2026-04-26T13:00:31.35Z</time></trkpt><trkpt lat="43.9264811" lon="7.9303997"><ele>213.0</ele><time>2026-04-26T13:00:33.35Z</time></trkpt><trkpt lat="43.9264908" lon="7.930305"><ele>213.0</ele><time>2026-04-26T13:00:34.349Z</time></trkpt><trkpt lat="43.9265064" lon="7.9302131"><ele>213.0</ele><time>2026-04-26T13:00:35.349Z</time></trkpt><trkpt lat="43.9265244" lon="7.9301027"><ele>213.0</ele><time>2026-04-26T13:00:36.35Z</time></trkpt><trkpt lat="43.9265444" lon="7.929994"><ele>213.0</ele><time>2026-04-26T13:00:37.35Z</time></trkpt><trkpt lat="43.9265741" lon="7.9298791"><ele>213.0</ele><time>2026-04-26T13:00:38.349Z</time></trkpt><trkpt lat="43.9266096" lon="7.9297678"><ele>214.4</ele><time>2026-04-26T13:00:39.349Z</time></trkpt><trkpt lat="43.9266483" lon="7.9296569"><ele>215.8</ele><time>2026-04-26T13:00:40.35Z</time></trkpt><trkpt lat="43.9266986" lon="7.9295592"><ele>217.2</ele><time>2026-04-26T13:00:41.349Z</time></trkpt><trkpt lat="43.9267541" lon="7.9294631"><ele>218.6</ele><time>2026-04-26T13:00:42.349Z</time></trkpt><trkpt lat="43.9268226" lon="7.9293532"><ele>220.0</ele><time>2026-04-26T13:00:43.349Z</time></trkpt><trkpt lat="43.926905" lon="7.929236"><ele>216.8</ele><time>2026-04-26T13:00:44.349Z</time></trkpt><trkpt lat="43.9269873" lon="7.92914"><ele>213.6</ele><time>2026-04-26T13:00:45.349Z</time></trkpt><trkpt lat="43.9270741" lon="7.9290438"><ele>210.39999999999998</ele><time>2026-04-26T13:00:46.35Z</time></trkpt><trkpt lat="43.9271595" lon="7.9289528"><ele>207.2</ele><time>2026-04-26T13:00:47.349Z</time></trkpt><trkpt lat="43.9272438" lon="7.9288761"><ele>204.0</ele><time>2026-04-26T13:00:48.35Z</time></trkpt><trkpt lat="43.9273247" lon="7.9288015"><ele>204.0</ele><time>2026-04-26T13:00:49.351Z</time></trkpt><trkpt lat="43.9274095" lon="7.9287367"><ele>204.0</ele><time>2026-04-26T13:00:50.351Z</time></trkpt><trkpt lat="43.9275086" lon="7.9286841"><ele>204.0</ele><time>2026-04-26T13:00:51.35Z</time></trkpt><trkpt lat="43.9276075" lon="7.9286488"><ele>204.0</ele><time>2026-04-26T13:00:52.35Z</time></trkpt><trkpt lat="43.9277037" lon="7.9286248"><ele>204.0</ele><time>2026-04-26T13:00:53.351Z</time></trkpt><trkpt lat="43.9278052" lon="7.9286443"><ele>203.16666666666666</ele><time>2026-04-26T13:00:54.349Z</time></trkpt><trkpt lat="43.9278877" lon="7.9286863"><ele>202.33333333333331</ele><time>2026-04-26T13:00:55.35Z</time></trkpt><trkpt lat="43.9279646" lon="7.9287496"><ele>201.5</ele><time>2026-04-26T13:00:56.35Z</time></trkpt><trkpt lat="43.9280378" lon="7.928826"><ele>200.66666666666666</ele><time>2026-04-26T13:00:57.35Z</time></trkpt><trkpt lat="43.9281062" lon="7.9289108"><ele>199.83333333333331</ele><time>2026-04-26T13:00:58.349Z</time></trkpt><trkpt lat="43.9281713" lon="7.9289774"><ele>199.0</ele><time>2026-04-26T13:00:59.349Z</time></trkpt><trkpt lat="43.9282417" lon="7.9290254"><ele>199.0</ele><time>2026-04-26T13:01:00.352Z</time></trkpt><trkpt lat="43.9283182" lon="7.9290516"><ele>199.0</ele><time>2026-04-26T13:01:01.349Z</time></trkpt><trkpt lat="43.9284206" lon="7.9290466"><ele>199.0</ele><time>2026-04-26T13:01:02.349Z</time></trkpt><trkpt lat="43.9285267" lon="7.929003"><ele>199.0</ele><time>2026-04-26T13:01:03.349Z</time></trkpt><trkpt lat="43.9286304" lon="7.9289534"><ele>199.0</ele><time>2026-04-26T13:01:04.349Z</time></trkpt><trkpt lat="43.9287478" lon="7.9288922"><ele>196.79999999999998</ele><time>2026-04-26T13:01:05.349Z</time></trkpt><trkpt lat="43.9288542" lon="7.9288317"><ele>194.6</ele><time>2026-04-26T13:01:06.35Z</time></trkpt><trkpt lat="43.9289512" lon="7.928769"><ele>192.4</ele><time>2026-04-26T13:01:07.35Z</time></trkpt><trkpt lat="43.9290416" lon="7.9287159"><ele>190.2</ele><time>2026-04-26T13:01:08.349Z</time></trkpt><trkpt lat="43.9291262" lon="7.9286739"><ele>188.0</ele><time>2026-04-26T13:01:09.349Z</time></trkpt><trkpt lat="43.9292134" lon="7.9286525"><ele>186.83333333333331</ele><time>2026-04-26T13:01:10.349Z</time></trkpt><trkpt lat="43.9293004" lon="7.9286525"><ele>185.66666666666666</ele><time>2026-04-26T13:01:11.35Z</time></trkpt><trkpt lat="43.9293861" lon="7.9286765"><ele>184.5</ele><time>2026-04-26T13:01:12.349Z</time></trkpt><trkpt lat="43.929466" lon="7.9287272"><ele>183.33333333333334</ele><time>2026-04-26T13:01:13.35Z</time></trkpt><trkpt lat="43.929533" lon="7.928787"><ele>182.16666666666669</ele><time>2026-04-26T13:01:14.35Z</time></trkpt><trkpt lat="43.929599" lon="7.9288453"><ele>181.0</ele><time>2026-04-26T13:01:15.35Z</time></trkpt><trkpt lat="43.9296615" lon="7.9288894"><ele>181.0</ele><time>2026-04-26T13:01:16.35Z</time></trkpt><trkpt lat="43.9297262" lon="7.9288927"><ele>181.0</ele><time>2026-04-26T13:01:17.349Z</time></trkpt><trkpt lat="43.929834" lon="7.9289231"><ele>181.0</ele><time>2026-04-26T13:01:19.35Z</time></trkpt><trkpt lat="43.9298079" lon="7.9290304"><ele>181.0</ele><time>2026-04-26T13:01:21.35Z</time></trkpt><trkpt lat="43.9296899" lon="7.9290413"><ele>181.0</ele><time>2026-04-26T13:01:23.349Z</time></trkpt><trkpt lat="43.9296063" lon="7.9290085"><ele>181.0</ele><time>2026-04-26T13:01:24.349Z</time></trkpt><trkpt lat="43.929528" lon="7.9289937"><ele>181.0</ele><time>2026-04-26T13:01:25.35Z</time></trkpt><trkpt lat="43.9294402" lon="7.9289818"><ele>181.0</ele><time>2026-04-26T13:01:26.351Z</time></trkpt><trkpt lat="43.9293437" lon="7.9290007"><ele>181.0</ele><time>2026-04-26T13:01:27.351Z</time></trkpt><trkpt lat="43.9292508" lon="7.9290248"><ele>181.0</ele><time>2026-04-26T13:01:28.35Z</time></trkpt><trkpt lat="43.9291543" lon="7.9290545"><ele>180.4</ele><time>2026-04-26T13:01:29.349Z</time></trkpt><trkpt lat="43.9290626" lon="7.9290835"><ele>179.8</ele><time>2026-04-26T13:01:30.35Z</time></trkpt><trkpt lat="43.9289698" lon="7.9291179"><ele>179.20000000000002</ele><time>2026-04-26T13:01:31.349Z</time></trkpt><trkpt lat="43.9288797" lon="7.9291479"><ele>178.60000000000002</ele><time>2026-04-26T13:01:32.35Z</time></trkpt><trkpt lat="43.9288079" lon="7.9291906"><ele>178.0</ele><time>2026-04-26T13:01:33.35Z</time></trkpt><trkpt lat="43.9287307" lon="7.9292644"><ele>178.0</ele><time>2026-04-26T13:01:34.35Z</time></trkpt><trkpt lat="43.9286617" lon="7.9293616"><ele>178.0</ele><time>2026-04-26T13:01:35.349Z</time></trkpt><trkpt lat="43.9285847" lon="7.9294702"><ele>178.0</ele><time>2026-04-26T13:01:36.349Z</time></trkpt><trkpt lat="43.9285054" lon="7.9295722"><ele>178.0</ele><time>2026-04-26T13:01:37.35Z</time></trkpt><trkpt lat="43.9284221" lon="7.9296554"><ele>178.0</ele><time>2026-04-26T13:01:38.35Z</time></trkpt><trkpt lat="43.9283472" lon="7.9297491"><ele>178.0</ele><time>2026-04-26T13:01:39.35Z</time></trkpt><trkpt lat="43.9282785" lon="7.9298432"><ele>178.0</ele><time>2026-04-26T13:01:40.351Z</time></trkpt><trkpt lat="43.9282172" lon="7.9299482"><ele>178.0</ele><time>2026-04-26T13:01:41.35Z</time></trkpt><trkpt lat="43.9281637" lon="7.9300655"><ele>178.0</ele><time>2026-04-26T13:01:42.349Z</time></trkpt><trkpt lat="43.9281106" lon="7.9301911"><ele>178.0</ele><time>2026-04-26T13:01:43.349Z</time></trkpt><trkpt lat="43.9280552" lon="7.9303189"><ele>177.8</ele><time>2026-04-26T13:01:44.35Z</time></trkpt><trkpt lat="43.9279946" lon="7.9304474"><ele>177.60000000000002</ele><time>2026-04-26T13:01:45.35Z</time></trkpt><trkpt lat="43.9279355" lon="7.9305692"><ele>177.39999999999998</ele><time>2026-04-26T13:01:46.35Z</time></trkpt><trkpt lat="43.9278742" lon="7.9306859"><ele>177.2</ele><time>2026-04-26T13:01:47.35Z</time></trkpt><trkpt lat="43.9278108" lon="7.9308024"><ele>177.0</ele><time>2026-04-26T13:01:48.349Z</time></trkpt><trkpt lat="43.9277481" lon="7.9309085"><ele>177.0</ele><time>2026-04-26T13:01:49.351Z</time></trkpt><trkpt lat="43.9276822" lon="7.9310186"><ele>177.0</ele><time>2026-04-26T13:01:50.349Z</time></trkpt><trkpt lat="43.9276201" lon="7.931123"><ele>177.0</ele><time>2026-04-26T13:01:51.349Z</time></trkpt><trkpt lat="43.927565" lon="7.9312357"><ele>177.0</ele><time>2026-04-26T13:01:52.351Z</time></trkpt><trkpt lat="43.9275161" lon="7.9313531"><ele>177.0</ele><time>2026-04-26T13:01:53.349Z</time></trkpt><trkpt lat="43.9274802" lon="7.9314728"><ele>176.39999999999998</ele><time>2026-04-26T13:01:54.35Z</time></trkpt><trkpt lat="43.9274572" lon="7.9315998"><ele>175.79999999999998</ele><time>2026-04-26T13:01:55.35Z</time></trkpt><trkpt lat="43.9274388" lon="7.9317384"><ele>175.2</ele><time>2026-04-26T13:01:56.35Z</time></trkpt><trkpt lat="43.9274554" lon="7.9318851"><ele>174.6</ele><time>2026-04-26T13:01:57.35Z</time></trkpt><trkpt lat="43.9274711" lon="7.9320206"><ele>174.0</ele><time>2026-04-26T13:01:58.35Z</time></trkpt><trkpt lat="43.9274723" lon="7.9321463"><ele>172.39999999999998</ele><time>2026-04-26T13:01:59.35Z</time></trkpt><trkpt lat="43.9274541" lon="7.9322611"><ele>170.8</ele><time>2026-04-26T13:02:00.349Z</time></trkpt><trkpt lat="43.9274118" lon="7.9323748"><ele>169.2</ele><time>2026-04-26T13:02:01.349Z</time></trkpt><trkpt lat="43.9273648" lon="7.9324865"><ele>167.60000000000002</ele><time>2026-04-26T13:02:02.349Z</time></trkpt><trkpt lat="43.927278" lon="7.9325891"><ele>166.0</ele><time>2026-04-26T13:02:03.35Z</time></trkpt><trkpt lat="43.9272031" lon="7.9326918"><ele>166.0</ele><time>2026-04-26T13:02:04.35Z</time></trkpt><trkpt lat="43.927137" lon="7.9327891"><ele>166.0</ele><time>2026-04-26T13:02:05.351Z</time></trkpt><trkpt lat="43.9270683" lon="7.9328742"><ele>166.0</ele><time>2026-04-26T13:02:06.351Z</time></trkpt><trkpt lat="43.9270088" lon="7.9329489"><ele>166.0</ele><time>2026-04-26T13:02:07.35Z</time></trkpt><trkpt lat="43.9269625" lon="7.9330297"><ele>166.0</ele><time>2026-04-26T13:02:08.35Z</time></trkpt><trkpt lat="43.9269412" lon="7.9331207"><ele>166.0</ele><time>2026-04-26T13:02:09.35Z</time></trkpt><trkpt lat="43.9269886" lon="7.9332651"><ele>167.0</ele><time>2026-04-26T13:02:11.349Z</time></trkpt><trkpt lat="43.9270399" lon="7.9334067"><ele>168.0</ele><time>2026-04-26T13:02:13.35Z</time></trkpt><trkpt lat="43.927042" lon="7.9334964"><ele>169.0</ele><time>2026-04-26T13:02:14.349Z</time></trkpt><trkpt lat="43.9270262" lon="7.933592"><ele>170.0</ele><time>2026-04-26T13:02:15.351Z</time></trkpt><trkpt lat="43.9270079" lon="7.9336957"><ele>171.0</ele><time>2026-04-26T13:02:16.349Z</time></trkpt><trkpt lat="43.9269918" lon="7.9338113"><ele>172.0</ele><time>2026-04-26T13:02:17.349Z</time></trkpt><trkpt lat="43.9269751" lon="7.9339299"><ele>172.0</ele><time>2026-04-26T13:02:18.35Z</time></trkpt><trkpt lat="43.9269565" lon="7.9340552"><ele>172.0</ele><time>2026-04-26T13:02:19.349Z</time></trkpt><trkpt lat="43.92693" lon="7.93418"><ele>172.0</ele><time>2026-04-26T13:02:20.35Z</time></trkpt><trkpt lat="43.9269042" lon="7.9343011"><ele>172.0</ele><time>2026-04-26T13:02:21.349Z</time></trkpt><trkpt lat="43.9268764" lon="7.9344204"><ele>172.0</ele><time>2026-04-26T13:02:22.351Z</time></trkpt><trkpt lat="43.9268407" lon="7.9345359"><ele>173.39999999999998</ele><time>2026-04-26T13:02:23.35Z</time></trkpt><trkpt lat="43.9268053" lon="7.9346569"><ele>174.79999999999998</ele><time>2026-04-26T13:02:24.35Z</time></trkpt><trkpt lat="43.9267653" lon="7.9347852"><ele>176.2</ele><time>2026-04-26T13:02:25.349Z</time></trkpt><trkpt lat="43.9267285" lon="7.9349142"><ele>177.6</ele><time>2026-04-26T13:02:26.349Z</time></trkpt><trkpt lat="43.9266806" lon="7.9350322"><ele>179.0</ele><time>2026-04-26T13:02:27.349Z</time></trkpt><trkpt lat="43.9266257" lon="7.9351457"><ele>175.2</ele><time>2026-04-26T13:02:28.349Z</time></trkpt><trkpt lat="43.9265739" lon="7.9352596"><ele>171.39999999999998</ele><time>2026-04-26T13:02:29.351Z</time></trkpt><trkpt lat="43.9265255" lon="7.9353706"><ele>167.6</ele><time>2026-04-26T13:02:30.349Z</time></trkpt><trkpt lat="43.9264887" lon="7.9354994"><ele>163.8</ele><time>2026-04-26T13:02:31.351Z</time></trkpt><trkpt lat="43.9264535" lon="7.9356297"><ele>160.0</ele><time>2026-04-26T13:02:32.351Z</time></trkpt><trkpt lat="43.926416" lon="7.9357474"><ele>160.0</ele><time>2026-04-26T13:02:33.35Z</time></trkpt><trkpt lat="43.9263882" lon="7.9358544"><ele>160.0</ele><time>2026-04-26T13:02:34.35Z</time></trkpt><trkpt lat="43.9263644" lon="7.9359682"><ele>160.0</ele><time>2026-04-26T13:02:35.349Z</time></trkpt><trkpt lat="43.9263446" lon="7.9360956"><ele>160.0</ele><time>2026-04-26T13:02:36.351Z</time></trkpt><trkpt lat="43.9263392" lon="7.9362105"><ele>160.0</ele><time>2026-04-26T13:02:37.351Z</time></trkpt><trkpt lat="43.9263342" lon="7.9363195"><ele>160.0</ele><time>2026-04-26T13:02:38.349Z</time></trkpt><trkpt lat="43.9263117" lon="7.9364305"><ele>161.4</ele><time>2026-04-26T13:02:39.349Z</time></trkpt><trkpt lat="43.9262819" lon="7.9365415"><ele>162.8</ele><time>2026-04-26T13:02:40.35Z</time></trkpt><trkpt lat="43.9262494" lon="7.9366512"><ele>164.2</ele><time>2026-04-26T13:02:41.35Z</time></trkpt><trkpt lat="43.9261994" lon="7.9367646"><ele>165.6</ele><time>2026-04-26T13:02:42.349Z</time></trkpt><trkpt lat="43.9261571" lon="7.9368837"><ele>167.0</ele><time>2026-04-26T13:02:43.351Z</time></trkpt><trkpt lat="43.9261088" lon="7.9369935"><ele>164.6</ele><time>2026-04-26T13:02:44.349Z</time></trkpt><trkpt lat="43.9260675" lon="7.9371114"><ele>162.2</ele><time>2026-04-26T13:02:45.35Z</time></trkpt><trkpt lat="43.9260211" lon="7.9372364"><ele>159.8</ele><time>2026-04-26T13:02:46.35Z</time></trkpt><trkpt lat="43.9259763" lon="7.9373566"><ele>157.4</ele><time>2026-04-26T13:02:47.351Z</time></trkpt><trkpt lat="43.9259294" lon="7.9374782"><ele>155.0</ele><time>2026-04-26T13:02:48.35Z</time></trkpt><trkpt lat="43.9258844" lon="7.9376085"><ele>155.0</ele><time>2026-04-26T13:02:49.349Z</time></trkpt><trkpt lat="43.9258451" lon="7.9377479"><ele>155.0</ele><time>2026-04-26T13:02:50.35Z</time></trkpt><trkpt lat="43.9258078" lon="7.9378829"><ele>155.0</ele><time>2026-04-26T13:02:51.351Z</time></trkpt><trkpt lat="43.9257697" lon="7.9380242"><ele>155.0</ele><time>2026-04-26T13:02:52.35Z</time></trkpt><trkpt lat="43.925729" lon="7.9381635"><ele>155.0</ele><time>2026-04-26T13:02:53.351Z</time></trkpt><trkpt lat="43.925691" lon="7.9382968"><ele>159.0</ele><time>2026-04-26T13:02:54.351Z</time></trkpt><trkpt lat="43.9256621" lon="7.938426"><ele>163.0</ele><time>2026-04-26T13:02:55.349Z</time></trkpt><trkpt lat="43.9256267" lon="7.9385532"><ele>167.0</ele><time>2026-04-26T13:02:56.35Z</time></trkpt><trkpt lat="43.9255886" lon="7.9386743"><ele>171.0</ele><time>2026-04-26T13:02:57.351Z</time></trkpt><trkpt lat="43.9255526" lon="7.9387932"><ele>175.0</ele><time>2026-04-26T13:02:58.351Z</time></trkpt><trkpt lat="43.9255061" lon="7.9388985"><ele>175.0</ele><time>2026-04-26T13:02:59.351Z</time></trkpt><trkpt lat="43.9254391" lon="7.9389936"><ele>175.0</ele><time>2026-04-26T13:03:00.349Z</time></trkpt><trkpt lat="43.9253564" lon="7.9390807"><ele>175.0</ele><time>2026-04-26T13:03:01.351Z</time></trkpt><trkpt lat="43.9252946" lon="7.9391695"><ele>175.0</ele><time>2026-04-26T13:03:02.35Z</time></trkpt><trkpt lat="43.9252461" lon="7.9392759"><ele>175.0</ele><time>2026-04-26T13:03:03.35Z</time></trkpt><trkpt lat="43.9252065" lon="7.9393987"><ele>178.4</ele><time>2026-04-26T13:03:04.349Z</time></trkpt><trkpt lat="43.9251647" lon="7.9395239"><ele>181.8</ele><time>2026-04-26T13:03:05.349Z</time></trkpt><trkpt lat="43.9251275" lon="7.9396493"><ele>185.2</ele><time>2026-04-26T13:03:06.35Z</time></trkpt><trkpt lat="43.9250919" lon="7.9397742"><ele>188.6</ele><time>2026-04-26T13:03:07.352Z</time></trkpt><trkpt lat="43.9250535" lon="7.9398896"><ele>192.0</ele><time>2026-04-26T13:03:08.35Z</time></trkpt><trkpt lat="43.9250184" lon="7.9399967"><ele>186.0</ele><time>2026-04-26T13:03:09.35Z</time></trkpt><trkpt lat="43.9249753" lon="7.9401077"><ele>180.0</ele><time>2026-04-26T13:03:10.349Z</time></trkpt><trkpt lat="43.9249425" lon="7.9402079"><ele>174.0</ele><time>2026-04-26T13:03:11.351Z</time></trkpt><trkpt lat="43.924917" lon="7.9403067"><ele>168.0</ele><time>2026-04-26T13:03:12.35Z</time></trkpt><trkpt lat="43.9248974" lon="7.9404121"><ele>162.0</ele><time>2026-04-26T13:03:13.35Z</time></trkpt><trkpt lat="43.9248659" lon="7.9405159"><ele>156.0</ele><time>2026-04-26T13:03:14.349Z</time></trkpt><trkpt lat="43.924833" lon="7.9406152"><ele>156.0</ele><time>2026-04-26T13:03:15.35Z</time></trkpt><trkpt lat="43.9248048" lon="7.9407038"><ele>156.0</ele><time>2026-04-26T13:03:16.35Z</time></trkpt><trkpt lat="43.9247637" lon="7.9407964"><ele>156.0</ele><time>2026-04-26T13:03:17.349Z</time></trkpt><trkpt lat="43.9247163" lon="7.9408833"><ele>156.0</ele><time>2026-04-26T13:03:18.349Z</time></trkpt><trkpt lat="43.9246611" lon="7.9409568"><ele>156.0</ele><time>2026-04-26T13:03:19.35Z</time></trkpt><trkpt lat="43.9246128" lon="7.9410383"><ele>156.0</ele><time>2026-04-26T13:03:20.35Z</time></trkpt><trkpt lat="43.9245834" lon="7.9411175"><ele>156.0</ele><time>2026-04-26T13:03:21.349Z</time></trkpt><trkpt lat="43.9245843" lon="7.9412159"><ele>154.83333333333334</ele><time>2026-04-26T13:03:22.349Z</time></trkpt><trkpt lat="43.9245959" lon="7.9413125"><ele>153.66666666666666</ele><time>2026-04-26T13:03:23.35Z</time></trkpt><trkpt lat="43.9246686" lon="7.9414684"><ele>152.5</ele><time>2026-04-26T13:03:25.349Z</time></trkpt><trkpt lat="43.9247154" lon="7.9415326"><ele>151.33333333333331</ele><time>2026-04-26T13:03:26.349Z</time></trkpt><trkpt lat="43.9247593" lon="7.9415993"><ele>150.16666666666666</ele><time>2026-04-26T13:03:27.349Z</time></trkpt><trkpt lat="43.9248248" lon="7.9417194"><ele>149.0</ele><time>2026-04-26T13:03:29.35Z</time></trkpt><trkpt lat="43.9247759" lon="7.9418398"><ele>147.8</ele><time>2026-04-26T13:03:31.349Z</time></trkpt><trkpt lat="43.9246438" lon="7.9419168"><ele>146.60000000000002</ele><time>2026-04-26T13:03:33.35Z</time></trkpt><trkpt lat="43.9245755" lon="7.941957"><ele>145.4</ele><time>2026-04-26T13:03:34.35Z</time></trkpt><trkpt lat="43.9245087" lon="7.9420097"><ele>144.20000000000002</ele><time>2026-04-26T13:03:35.351Z</time></trkpt><trkpt lat="43.9244319" lon="7.9420654"><ele>143.0</ele><time>2026-04-26T13:03:36.351Z</time></trkpt><trkpt lat="43.9243635" lon="7.9421102"><ele>143.0</ele><time>2026-04-26T13:03:37.349Z</time></trkpt><trkpt lat="43.9242942" lon="7.9421678"><ele>143.0</ele><time>2026-04-26T13:03:38.35Z</time></trkpt><trkpt lat="43.9242177" lon="7.9422303"><ele>143.0</ele><time>2026-04-26T13:03:39.35Z</time></trkpt><trkpt lat="43.9241396" lon="7.9422811"><ele>143.0</ele><time>2026-04-26T13:03:40.35Z</time></trkpt><trkpt lat="43.9240558" lon="7.9423386"><ele>143.0</ele><time>2026-04-26T13:03:41.35Z</time></trkpt><trkpt lat="43.9239662" lon="7.9423983"><ele>143.0</ele><time>2026-04-26T13:03:42.35Z</time></trkpt><trkpt lat="43.9238731" lon="7.9424694"><ele>149.0</ele><time>2026-04-26T13:03:43.351Z</time></trkpt><trkpt lat="43.9237746" lon="7.9425516"><ele>155.0</ele><time>2026-04-26T13:03:44.35Z</time></trkpt><trkpt lat="43.9236677" lon="7.942639"><ele>161.0</ele><time>2026-04-26T13:03:45.349Z</time></trkpt><trkpt lat="43.9235706" lon="7.9427247"><ele>167.0</ele><time>2026-04-26T13:03:46.35Z</time></trkpt><trkpt lat="43.9234755" lon="7.9428278"><ele>161.25</ele><time>2026-04-26T13:03:47.349Z</time></trkpt><trkpt lat="43.9233774" lon="7.9429303"><ele>155.5</ele><time>2026-04-26T13:03:48.349Z</time></trkpt><trkpt lat="43.9232763" lon="7.9430374"><ele>149.75</ele><time>2026-04-26T13:03:49.351Z</time></trkpt><trkpt lat="43.9231755" lon="7.9431492"><ele>144.0</ele><time>2026-04-26T13:03:50.35Z</time></trkpt><trkpt lat="43.9230859" lon="7.9432546"><ele>144.0</ele><time>2026-04-26T13:03:51.35Z</time></trkpt><trkpt lat="43.9229956" lon="7.9433621"><ele>144.0</ele><time>2026-04-26T13:03:52.349Z</time></trkpt><trkpt lat="43.9229044" lon="7.9434588"><ele>144.0</ele><time>2026-04-26T13:03:53.349Z</time></trkpt><trkpt lat="43.9228074" lon="7.9435359"><ele>144.0</ele><time>2026-04-26T13:03:54.35Z</time></trkpt><trkpt lat="43.922703" lon="7.9436089"><ele>149.75</ele><time>2026-04-26T13:03:55.35Z</time></trkpt><trkpt lat="43.9225874" lon="7.9436578"><ele>155.5</ele><time>2026-04-26T13:03:56.351Z</time></trkpt><trkpt lat="43.9224647" lon="7.9436882"><ele>161.25</ele><time>2026-04-26T13:03:57.349Z</time></trkpt><trkpt lat="43.9223447" lon="7.9437102"><ele>167.0</ele><time>2026-04-26T13:03:58.349Z</time></trkpt><trkpt lat="43.922226" lon="7.9437033"><ele>167.0</ele><time>2026-04-26T13:03:59.35Z</time></trkpt><trkpt lat="43.9221066" lon="7.9436889"><ele>167.0</ele><time>2026-04-26T13:04:00.349Z</time></trkpt><trkpt lat="43.9219808" lon="7.9436727"><ele>167.0</ele><time>2026-04-26T13:04:01.35Z</time></trkpt><trkpt lat="43.9218482" lon="7.9436528"><ele>167.0</ele><time>2026-04-26T13:04:02.349Z</time></trkpt><trkpt lat="43.9217237" lon="7.9436485"><ele>165.0</ele><time>2026-04-26T13:04:03.35Z</time></trkpt><trkpt lat="43.92159" lon="7.943652"><ele>163.0</ele><time>2026-04-26T13:04:04.349Z</time></trkpt><trkpt lat="43.9214676" lon="7.9436659"><ele>161.0</ele><time>2026-04-26T13:04:05.35Z</time></trkpt><trkpt lat="43.921337" lon="7.9436706"><ele>159.0</ele><time>2026-04-26T13:04:06.349Z</time></trkpt><trkpt lat="43.9212095" lon="7.9436729"><ele>159.0</ele><time>2026-04-26T13:04:07.35Z</time></trkpt><trkpt lat="43.9210808" lon="7.9436718"><ele>159.0</ele><time>2026-04-26T13:04:08.35Z</time></trkpt><trkpt lat="43.9209556" lon="7.9436509"><ele>159.0</ele><time>2026-04-26T13:04:09.349Z</time></trkpt><trkpt lat="43.9208322" lon="7.9436208"><ele>159.0</ele><time>2026-04-26T13:04:10.351Z</time></trkpt><trkpt lat="43.9207053" lon="7.9435964"><ele>156.0</ele><time>2026-04-26T13:04:11.35Z</time></trkpt><trkpt lat="43.920575" lon="7.943587"><ele>153.0</ele><time>2026-04-26T13:04:12.35Z</time></trkpt><trkpt lat="43.9204541" lon="7.9435821"><ele>150.0</ele><time>2026-04-26T13:04:13.35Z</time></trkpt><trkpt lat="43.9203444" lon="7.9435935"><ele>147.0</ele><time>2026-04-26T13:04:14.349Z</time></trkpt><trkpt lat="43.920237" lon="7.9436199"><ele>147.0</ele><time>2026-04-26T13:04:15.35Z</time></trkpt><trkpt lat="43.9201359" lon="7.9436742"><ele>147.0</ele><time>2026-04-26T13:04:16.349Z</time></trkpt><trkpt lat="43.9200434" lon="7.9437559"><ele>147.0</ele><time>2026-04-26T13:04:17.351Z</time></trkpt><trkpt lat="43.919963" lon="7.9438813"><ele>147.0</ele><time>2026-04-26T13:04:18.35Z</time></trkpt><trkpt lat="43.9198877" lon="7.944015"><ele>145.75</ele><time>2026-04-26T13:04:19.351Z</time></trkpt><trkpt lat="43.9198129" lon="7.9441597"><ele>144.5</ele><time>2026-04-26T13:04:20.35Z</time></trkpt><trkpt lat="43.9197402" lon="7.9443162"><ele>143.25</ele><time>2026-04-26T13:04:21.35Z</time></trkpt><trkpt lat="43.9196691" lon="7.9444619"><ele>142.0</ele><time>2026-04-26T13:04:22.349Z</time></trkpt><trkpt lat="43.9196027" lon="7.9445996"><ele>142.0</ele><time>2026-04-26T13:04:23.35Z</time></trkpt><trkpt lat="43.9195436" lon="7.9447449"><ele>142.0</ele><time>2026-04-26T13:04:24.35Z</time></trkpt><trkpt lat="43.9194913" lon="7.9449052"><ele>142.0</ele><time>2026-04-26T13:04:25.349Z</time></trkpt><trkpt lat="43.9194425" lon="7.9450639"><ele>142.0</ele><time>2026-04-26T13:04:26.352Z</time></trkpt><trkpt lat="43.919395" lon="7.9452253"><ele>144.75</ele><time>2026-04-26T13:04:27.349Z</time></trkpt><trkpt lat="43.9193413" lon="7.9453801"><ele>147.5</ele><time>2026-04-26T13:04:28.35Z</time></trkpt><trkpt lat="43.9192722" lon="7.945522"><ele>150.25</ele><time>2026-04-26T13:04:29.351Z</time></trkpt><trkpt lat="43.9191827" lon="7.9456575"><ele>153.0</ele><time>2026-04-26T13:04:30.351Z</time></trkpt><trkpt lat="43.9190907" lon="7.9457919"><ele>152.25</ele><time>2026-04-26T13:04:31.351Z</time></trkpt><trkpt lat="43.918987" lon="7.9459245"><ele>151.5</ele><time>2026-04-26T13:04:32.35Z</time></trkpt><trkpt lat="43.9188842" lon="7.9460472"><ele>150.75</ele><time>2026-04-26T13:04:33.349Z</time></trkpt><trkpt lat="43.9187834" lon="7.9461663"><ele>150.0</ele><time>2026-04-26T13:04:34.349Z</time></trkpt><trkpt lat="43.9186922" lon="7.9462803"><ele>150.0</ele><time>2026-04-26T13:04:35.35Z</time></trkpt><trkpt lat="43.9185968" lon="7.9463934"><ele>150.0</ele><time>2026-04-26T13:04:36.35Z</time></trkpt><trkpt lat="43.9184932" lon="7.9464974"><ele>150.0</ele><time>2026-04-26T13:04:37.349Z</time></trkpt><trkpt lat="43.9183862" lon="7.9465855"><ele>150.0</ele><time>2026-04-26T13:04:38.35Z</time></trkpt><trkpt lat="43.9182753" lon="7.9466516"><ele>150.75</ele><time>2026-04-26T13:04:39.35Z</time></trkpt><trkpt lat="43.9181621" lon="7.9467115"><ele>151.5</ele><time>2026-04-26T13:04:40.35Z</time></trkpt><trkpt lat="43.9180441" lon="7.9467608"><ele>152.25</ele><time>2026-04-26T13:04:41.35Z</time></trkpt><trkpt lat="43.9179225" lon="7.9468158"><ele>153.0</ele><time>2026-04-26T13:04:42.35Z</time></trkpt><trkpt lat="43.9177959" lon="7.9468688"><ele>153.0</ele><time>2026-04-26T13:04:43.349Z</time></trkpt><trkpt lat="43.9176674" lon="7.9469195"><ele>153.0</ele><time>2026-04-26T13:04:44.35Z</time></trkpt><trkpt lat="43.9175348" lon="7.946967"><ele>153.0</ele><time>2026-04-26T13:04:45.35Z</time></trkpt><trkpt lat="43.9174025" lon="7.9470039"><ele>153.0</ele><time>2026-04-26T13:04:46.349Z</time></trkpt><trkpt lat="43.9172723" lon="7.9470468"><ele>146.75</ele><time>2026-04-26T13:04:47.35Z</time></trkpt><trkpt lat="43.9171467" lon="7.9470851"><ele>140.5</ele><time>2026-04-26T13:04:48.35Z</time></trkpt><trkpt lat="43.9170239" lon="7.9471293"><ele>134.25</ele><time>2026-04-26T13:04:49.35Z</time></trkpt><trkpt lat="43.9168993" lon="7.9471709"><ele>128.0</ele><time>2026-04-26T13:04:50.351Z</time></trkpt><trkpt lat="43.9167737" lon="7.9472137"><ele>125.5</ele><time>2026-04-26T13:04:51.351Z</time></trkpt><trkpt lat="43.9166546" lon="7.947265"><ele>123.0</ele><time>2026-04-26T13:04:52.35Z</time></trkpt><trkpt lat="43.9165371" lon="7.9473252"><ele>120.5</ele><time>2026-04-26T13:04:53.349Z</time></trkpt><trkpt lat="43.9164263" lon="7.9473863"><ele>118.0</ele><time>2026-04-26T13:04:54.351Z</time></trkpt><trkpt lat="43.9163178" lon="7.9474406"><ele>118.0</ele><time>2026-04-26T13:04:55.35Z</time></trkpt><trkpt lat="43.9162102" lon="7.9474768"><ele>118.0</ele><time>2026-04-26T13:04:56.349Z</time></trkpt><trkpt lat="43.9160995" lon="7.9475044"><ele>118.0</ele><time>2026-04-26T13:04:57.351Z</time></trkpt><trkpt lat="43.9159739" lon="7.9475098"><ele>118.0</ele><time>2026-04-26T13:04:58.35Z</time></trkpt><trkpt lat="43.9158449" lon="7.9475023"><ele>117.25</ele><time>2026-04-26T13:04:59.35Z</time></trkpt><trkpt lat="43.9157194" lon="7.9474843"><ele>116.5</ele><time>2026-04-26T13:05:00.35Z</time></trkpt><trkpt lat="43.915593" lon="7.9474533"><ele>115.75</ele><time>2026-04-26T13:05:01.349Z</time></trkpt><trkpt lat="43.9154705" lon="7.9474269"><ele>115.0</ele><time>2026-04-26T13:05:02.35Z</time></trkpt><trkpt lat="43.9153533" lon="7.9473982"><ele>115.0</ele><time>2026-04-26T13:05:03.351Z</time></trkpt><trkpt lat="43.9152413" lon="7.9473694"><ele>115.0</ele><time>2026-04-26T13:05:04.35Z</time></trkpt><trkpt lat="43.9151335" lon="7.9473386"><ele>115.0</ele><time>2026-04-26T13:05:05.35Z</time></trkpt><trkpt lat="43.9150367" lon="7.9473372"><ele>115.0</ele><time>2026-04-26T13:05:06.349Z</time></trkpt><trkpt lat="43.9149372" lon="7.9473532"><ele>115.0</ele><time>2026-04-26T13:05:07.351Z</time></trkpt><trkpt lat="43.9148367" lon="7.9473918"><ele>114.5</ele><time>2026-04-26T13:05:08.35Z</time></trkpt><trkpt lat="43.9147412" lon="7.9474626"><ele>114.0</ele><time>2026-04-26T13:05:09.349Z</time></trkpt><trkpt lat="43.9146455" lon="7.9475637"><ele>113.5</ele><time>2026-04-26T13:05:10.35Z</time></trkpt><trkpt lat="43.9145474" lon="7.9476691"><ele>113.0</ele><time>2026-04-26T13:05:11.351Z</time></trkpt><trkpt lat="43.9144445" lon="7.9477844"><ele>114.25</ele><time>2026-04-26T13:05:12.349Z</time></trkpt><trkpt lat="43.9143373" lon="7.9479"><ele>115.5</ele><time>2026-04-26T13:05:13.351Z</time></trkpt><trkpt lat="43.9142332" lon="7.9480218"><ele>116.75</ele><time>2026-04-26T13:05:14.349Z</time></trkpt><trkpt lat="43.9141307" lon="7.9481429"><ele>118.0</ele><time>2026-04-26T13:05:15.349Z</time></trkpt><trkpt lat="43.9140271" lon="7.9482582"><ele>118.0</ele><time>2026-04-26T13:05:16.352Z</time></trkpt><trkpt lat="43.9139109" lon="7.9483679"><ele>118.0</ele><time>2026-04-26T13:05:17.349Z</time></trkpt><trkpt lat="43.91379" lon="7.948469"><ele>118.0</ele><time>2026-04-26T13:05:18.35Z</time></trkpt><trkpt lat="43.9136623" lon="7.9485677"><ele>118.0</ele><time>2026-04-26T13:05:19.351Z</time></trkpt><trkpt lat="43.9135297" lon="7.9486608"><ele>117.25</ele><time>2026-04-26T13:05:20.35Z</time></trkpt><trkpt lat="43.9133934" lon="7.9487501"><ele>116.5</ele><time>2026-04-26T13:05:21.35Z</time></trkpt><trkpt lat="43.9132663" lon="7.9488352"><ele>115.75</ele><time>2026-04-26T13:05:22.351Z</time></trkpt><trkpt lat="43.9131377" lon="7.9489173"><ele>115.0</ele><time>2026-04-26T13:05:23.349Z</time></trkpt><trkpt lat="43.9130115" lon="7.9489913"><ele>115.0</ele><time>2026-04-26T13:05:24.35Z</time></trkpt><trkpt lat="43.9128858" lon="7.9490537"><ele>115.0</ele><time>2026-04-26T13:05:25.351Z</time></trkpt><trkpt lat="43.9127668" lon="7.949093"><ele>115.0</ele><time>2026-04-26T13:05:26.351Z</time></trkpt><trkpt lat="43.9126406" lon="7.9491134"><ele>115.0</ele><time>2026-04-26T13:05:27.35Z</time></trkpt><trkpt lat="43.9125108" lon="7.9491214"><ele>112.5</ele><time>2026-04-26T13:05:28.35Z</time></trkpt><trkpt lat="43.9123767" lon="7.949116"><ele>110.0</ele><time>2026-04-26T13:05:29.351Z</time></trkpt><trkpt lat="43.9122306" lon="7.949109"><ele>107.5</ele><time>2026-04-26T13:05:30.349Z</time></trkpt><trkpt lat="43.9120925" lon="7.9490966"><ele>105.0</ele><time>2026-04-26T13:05:31.351Z</time></trkpt><trkpt lat="43.9119494" lon="7.9490832"><ele>105.0</ele><time>2026-04-26T13:05:32.351Z</time></trkpt><trkpt lat="43.9117987" lon="7.949071"><ele>105.0</ele><time>2026-04-26T13:05:33.351Z</time></trkpt><trkpt lat="43.9116599" lon="7.9490547"><ele>105.0</ele><time>2026-04-26T13:05:34.349Z</time></trkpt><trkpt lat="43.9115213" lon="7.9490408"><ele>105.0</ele><time>2026-04-26T13:05:35.349Z</time></trkpt><trkpt lat="43.9113792" lon="7.9490211"><ele>104.25</ele><time>2026-04-26T13:05:36.351Z</time></trkpt><trkpt lat="43.9112437" lon="7.949001"><ele>103.5</ele><time>2026-04-26T13:05:37.349Z</time></trkpt><trkpt lat="43.9111148" lon="7.9489897"><ele>102.75</ele><time>2026-04-26T13:05:38.35Z</time></trkpt><trkpt lat="43.9109804" lon="7.9489805"><ele>102.0</ele><time>2026-04-26T13:05:39.349Z</time></trkpt><trkpt lat="43.910842" lon="7.948972"><ele>101.0</ele><time>2026-04-26T13:05:40.35Z</time></trkpt><trkpt lat="43.9107027" lon="7.9489742"><ele>100.0</ele><time>2026-04-26T13:05:41.351Z</time></trkpt><trkpt lat="43.9105647" lon="7.9489761"><ele>99.0</ele><time>2026-04-26T13:05:42.35Z</time></trkpt><trkpt lat="43.9104312" lon="7.9489813"><ele>98.0</ele><time>2026-04-26T13:05:43.351Z</time></trkpt><trkpt lat="43.9103003" lon="7.9489853"><ele>98.0</ele><time>2026-04-26T13:05:44.35Z</time></trkpt><trkpt lat="43.9101681" lon="7.9489896"><ele>98.0</ele><time>2026-04-26T13:05:45.35Z</time></trkpt><trkpt lat="43.9100463" lon="7.9490013"><ele>98.0</ele><time>2026-04-26T13:05:46.35Z</time></trkpt><trkpt lat="43.9099268" lon="7.9490287"><ele>98.0</ele><time>2026-04-26T13:05:47.35Z</time></trkpt><trkpt lat="43.9098166" lon="7.9490922"><ele>99.25</ele><time>2026-04-26T13:05:48.35Z</time></trkpt><trkpt lat="43.9097017" lon="7.9491871"><ele>100.5</ele><time>2026-04-26T13:05:49.35Z</time></trkpt><trkpt lat="43.9095844" lon="7.9492906"><ele>101.75</ele><time>2026-04-26T13:05:50.35Z</time></trkpt><trkpt lat="43.9094722" lon="7.9493997"><ele>103.0</ele><time>2026-04-26T13:05:51.351Z</time></trkpt><trkpt lat="43.909361" lon="7.9495082"><ele>103.0</ele><time>2026-04-26T13:05:52.35Z</time></trkpt><trkpt lat="43.9092536" lon="7.9496151"><ele>103.0</ele><time>2026-04-26T13:05:53.351Z</time></trkpt><trkpt lat="43.9091529" lon="7.9497164"><ele>103.0</ele><time>2026-04-26T13:05:54.349Z</time></trkpt><trkpt lat="43.9090545" lon="7.9498112"><ele>103.0</ele><time>2026-04-26T13:05:55.351Z</time></trkpt><trkpt lat="43.9089666" lon="7.9498979"><ele>102.2</ele><time>2026-04-26T13:05:56.35Z</time></trkpt><trkpt lat="43.9088806" lon="7.9499794"><ele>101.4</ele><time>2026-04-26T13:05:57.35Z</time></trkpt><trkpt lat="43.9088067" lon="7.9500542"><ele>100.60000000000001</ele><time>2026-04-26T13:05:58.35Z</time></trkpt><trkpt lat="43.9087336" lon="7.9501319"><ele>99.80000000000001</ele><time>2026-04-26T13:05:59.35Z</time></trkpt><trkpt lat="43.9086626" lon="7.9502144"><ele>99.0</ele><time>2026-04-26T13:06:00.35Z</time></trkpt><trkpt lat="43.9085994" lon="7.9502985"><ele>99.0</ele><time>2026-04-26T13:06:01.35Z</time></trkpt><trkpt lat="43.9085362" lon="7.9503882"><ele>99.0</ele><time>2026-04-26T13:06:02.349Z</time></trkpt><trkpt lat="43.9084791" lon="7.9504813"><ele>99.0</ele><time>2026-04-26T13:06:03.351Z</time></trkpt><trkpt lat="43.9084249" lon="7.9505773"><ele>99.0</ele><time>2026-04-26T13:06:04.351Z</time></trkpt><trkpt lat="43.9083779" lon="7.9506753"><ele>99.0</ele><time>2026-04-26T13:06:05.35Z</time></trkpt><trkpt lat="43.9083263" lon="7.9507704"><ele>99.0</ele><time>2026-04-26T13:06:06.349Z</time></trkpt><trkpt lat="43.9082743" lon="7.9508739"><ele>97.83333333333333</ele><time>2026-04-26T13:06:07.35Z</time></trkpt><trkpt lat="43.9082206" lon="7.950979"><ele>96.66666666666667</ele><time>2026-04-26T13:06:08.351Z</time></trkpt><trkpt lat="43.9081654" lon="7.9510837"><ele>95.5</ele><time>2026-04-26T13:06:09.349Z</time></trkpt><trkpt lat="43.9081105" lon="7.9511871"><ele>94.33333333333334</ele><time>2026-04-26T13:06:10.35Z</time></trkpt><trkpt lat="43.9080586" lon="7.9512875"><ele>93.16666666666667</ele><time>2026-04-26T13:06:11.35Z</time></trkpt><trkpt lat="43.9080111" lon="7.9513792"><ele>92.0</ele><time>2026-04-26T13:06:12.349Z</time></trkpt><trkpt lat="43.9079621" lon="7.9514628"><ele>92.0</ele><time>2026-04-26T13:06:13.35Z</time></trkpt><trkpt lat="43.9079119" lon="7.9515417"><ele>92.0</ele><time>2026-04-26T13:06:14.35Z</time></trkpt><trkpt lat="43.9078627" lon="7.9516337"><ele>92.0</ele><time>2026-04-26T13:06:15.35Z</time></trkpt><trkpt lat="43.9078131" lon="7.9517262"><ele>92.0</ele><time>2026-04-26T13:06:16.35Z</time></trkpt><trkpt lat="43.9077652" lon="7.9518269"><ele>92.0</ele><time>2026-04-26T13:06:17.351Z</time></trkpt><trkpt lat="43.9077262" lon="7.9519348"><ele>92.0</ele><time>2026-04-26T13:06:18.349Z</time></trkpt><trkpt lat="43.9076999" lon="7.9520677"><ele>93.83333333333334</ele><time>2026-04-26T13:06:19.35Z</time></trkpt><trkpt lat="43.9076808" lon="7.9521909"><ele>95.66666666666667</ele><time>2026-04-26T13:06:20.35Z</time></trkpt><trkpt lat="43.907658" lon="7.9523098"><ele>97.5</ele><time>2026-04-26T13:06:21.349Z</time></trkpt><trkpt lat="43.9076426" lon="7.9524273"><ele>99.33333333333334</ele><time>2026-04-26T13:06:22.349Z</time></trkpt><trkpt lat="43.9076237" lon="7.9525485"><ele>101.16666666666667</ele><time>2026-04-26T13:06:23.351Z</time></trkpt><trkpt lat="43.9076056" lon="7.9526746"><ele>103.0</ele><time>2026-04-26T13:06:24.351Z</time></trkpt><trkpt lat="43.9075825" lon="7.9527935"><ele>100.33333333333334</ele><time>2026-04-26T13:06:25.351Z</time></trkpt><trkpt lat="43.9075644" lon="7.9529122"><ele>97.66666666666667</ele><time>2026-04-26T13:06:26.35Z</time></trkpt><trkpt lat="43.907543" lon="7.9530325"><ele>95.0</ele><time>2026-04-26T13:06:27.351Z</time></trkpt><trkpt lat="43.9075221" lon="7.9531419"><ele>92.33333333333334</ele><time>2026-04-26T13:06:28.35Z</time></trkpt><trkpt lat="43.9074656" lon="7.9532678"><ele>89.66666666666667</ele><time>2026-04-26T13:06:30.35Z</time></trkpt><trkpt lat="43.9073935" lon="7.9532912"><ele>87.0</ele><time>2026-04-26T13:06:32.352Z</time></trkpt><trkpt lat="43.9073171" lon="7.953239"><ele>87.0</ele><time>2026-04-26T13:06:34.35Z</time></trkpt><trkpt lat="43.907253" lon="7.9531938"><ele>87.0</ele><time>2026-04-26T13:06:36.35Z</time></trkpt><trkpt lat="43.9071739" lon="7.9531707"><ele>87.0</ele><time>2026-04-26T13:06:39.351Z</time></trkpt><trkpt lat="43.9070977" lon="7.9531432"><ele>87.0</ele><time>2026-04-26T13:06:42.351Z</time></trkpt><trkpt lat="43.9070073" lon="7.9530912"><ele>87.0</ele><time>2026-04-26T13:06:44.351Z</time></trkpt><trkpt lat="43.9069124" lon="7.9530308"><ele>87.0</ele><time>2026-04-26T13:06:46.35Z</time></trkpt><trkpt lat="43.9068511" lon="7.9529193"><ele>87.0</ele><time>2026-04-26T13:06:48.349Z</time></trkpt><trkpt lat="43.9068495" lon="7.9527558"><ele>87.0</ele><time>2026-04-26T13:06:50.35Z</time></trkpt><trkpt lat="43.9068618" lon="7.952656"><ele>87.0</ele><time>2026-04-26T13:06:51.35Z</time></trkpt><trkpt lat="43.9068658" lon="7.9525612"><ele>87.0</ele><time>2026-04-26T13:06:52.35Z</time></trkpt><trkpt lat="43.9068602" lon="7.9524533"><ele>87.0</ele><time>2026-04-26T13:06:53.35Z</time></trkpt><trkpt lat="43.9068433" lon="7.9523383"><ele>87.0</ele><time>2026-04-26T13:06:54.35Z</time></trkpt><trkpt lat="43.9068147" lon="7.9522209"><ele>86.83333333333333</ele><time>2026-04-26T13:06:55.35Z</time></trkpt><trkpt lat="43.9068055" lon="7.9521096"><ele>86.66666666666667</ele><time>2026-04-26T13:06:56.35Z</time></trkpt><trkpt lat="43.9068114" lon="7.9520037"><ele>86.5</ele><time>2026-04-26T13:06:57.35Z</time></trkpt><trkpt lat="43.9068268" lon="7.9518977"><ele>86.33333333333334</ele><time>2026-04-26T13:06:58.349Z</time></trkpt><trkpt lat="43.906844" lon="7.9518032"><ele>86.16666666666667</ele><time>2026-04-26T13:06:59.35Z</time></trkpt><trkpt lat="43.9068541" lon="7.9516413"><ele>86.0</ele><time>2026-04-26T13:07:01.349Z</time></trkpt><trkpt lat="43.90677" lon="7.9515406"><ele>86.57142857142858</ele><time>2026-04-26T13:07:03.351Z</time></trkpt><trkpt lat="43.9067105" lon="7.9515093"><ele>87.14285714285714</ele><time>2026-04-26T13:07:04.35Z</time></trkpt><trkpt lat="43.906624" lon="7.9515139"><ele>87.71428571428572</ele><time>2026-04-26T13:07:05.35Z</time></trkpt><trkpt lat="43.9065563" lon="7.9514946"><ele>88.28571428571429</ele><time>2026-04-26T13:07:06.351Z</time></trkpt><trkpt lat="43.9064871" lon="7.951496"><ele>88.85714285714286</ele><time>2026-04-26T13:07:07.35Z</time></trkpt><trkpt lat="43.906409" lon="7.9515126"><ele>89.42857142857143</ele><time>2026-04-26T13:07:08.35Z</time></trkpt><trkpt lat="43.90633" lon="7.9515185"><ele>90.0</ele><time>2026-04-26T13:07:09.352Z</time></trkpt><trkpt lat="43.9062429" lon="7.9515262"><ele>90.0</ele><time>2026-04-26T13:07:10.349Z</time></trkpt><trkpt lat="43.9061596" lon="7.9515253"><ele>90.0</ele><time>2026-04-26T13:07:11.35Z</time></trkpt><trkpt lat="43.9060861" lon="7.9515264"><ele>90.0</ele><time>2026-04-26T13:07:12.35Z</time></trkpt><trkpt lat="43.905997" lon="7.9515291"><ele>90.0</ele><time>2026-04-26T13:07:13.35Z</time></trkpt><trkpt lat="43.9059083" lon="7.9515483"><ele>90.0</ele><time>2026-04-26T13:07:14.351Z</time></trkpt><trkpt lat="43.9058292" lon="7.9515742"><ele>90.0</ele><time>2026-04-26T13:07:15.351Z</time></trkpt><trkpt lat="43.9057601" lon="7.951593"><ele>90.16666666666667</ele><time>2026-04-26T13:07:16.35Z</time></trkpt><trkpt lat="43.9056919" lon="7.9516143"><ele>90.33333333333333</ele><time>2026-04-26T13:07:17.35Z</time></trkpt><trkpt lat="43.9056212" lon="7.9516377"><ele>90.5</ele><time>2026-04-26T13:07:18.35Z</time></trkpt><trkpt lat="43.9055371" lon="7.9516692"><ele>90.66666666666666</ele><time>2026-04-26T13:07:19.35Z</time></trkpt><trkpt lat="43.9054428" lon="7.9516981"><ele>90.83333333333333</ele><time>2026-04-26T13:07:20.351Z</time></trkpt><trkpt lat="43.9053414" lon="7.9517412"><ele>91.0</ele><time>2026-04-26T13:07:21.35Z</time></trkpt><trkpt lat="43.9052389" lon="7.9517835"><ele>90.19999999999999</ele><time>2026-04-26T13:07:22.349Z</time></trkpt><trkpt lat="43.9051369" lon="7.9518249"><ele>89.39999999999999</ele><time>2026-04-26T13:07:23.35Z</time></trkpt><trkpt lat="43.9050424" lon="7.951874"><ele>88.6</ele><time>2026-04-26T13:07:24.35Z</time></trkpt><trkpt lat="43.9049482" lon="7.9519219"><ele>87.8</ele><time>2026-04-26T13:07:25.35Z</time></trkpt><trkpt lat="43.904871" lon="7.9520096"><ele>87.0</ele><time>2026-04-26T13:07:26.351Z</time></trkpt><trkpt lat="43.9047928" lon="7.9521056"><ele>87.0</ele><time>2026-04-26T13:07:27.35Z</time></trkpt><trkpt lat="43.9047264" lon="7.9522333"><ele>87.0</ele><time>2026-04-26T13:07:28.352Z</time></trkpt><trkpt lat="43.9046628" lon="7.952349"><ele>87.0</ele><time>2026-04-26T13:07:29.351Z</time></trkpt><trkpt lat="43.904613" lon="7.9524532"><ele>87.0</ele><time>2026-04-26T13:07:30.352Z</time></trkpt><trkpt lat="43.9045609" lon="7.9525531"><ele>87.0</ele><time>2026-04-26T13:07:31.351Z</time></trkpt><trkpt lat="43.9044895" lon="7.9526525"><ele>86.39999999999999</ele><time>2026-04-26T13:07:32.351Z</time></trkpt><trkpt lat="43.9044173" lon="7.9527371"><ele>85.8</ele><time>2026-04-26T13:07:33.35Z</time></trkpt><trkpt lat="43.9043455" lon="7.9527983"><ele>85.2</ele><time>2026-04-26T13:07:34.35Z</time></trkpt><trkpt lat="43.9042879" lon="7.9528493"><ele>84.6</ele><time>2026-04-26T13:07:35.351Z</time></trkpt><trkpt lat="43.9041821" lon="7.9528527"><ele>84.0</ele><time>2026-04-26T13:07:37.351Z</time></trkpt><trkpt lat="43.9041736" lon="7.9527153"><ele>84.0</ele><time>2026-04-26T13:07:39.351Z</time></trkpt><trkpt lat="43.9042258" lon="7.9526618"><ele>84.0</ele><time>2026-04-26T13:07:40.35Z</time></trkpt><trkpt lat="43.9042915" lon="7.9526172"><ele>84.0</ele><time>2026-04-26T13:07:41.35Z</time></trkpt><trkpt lat="43.9043628" lon="7.9525562"><ele>84.0</ele><time>2026-04-26T13:07:42.35Z</time></trkpt><trkpt lat="43.9044301" lon="7.9524811"><ele>84.0</ele><time>2026-04-26T13:07:43.35Z</time></trkpt><trkpt lat="43.9044864" lon="7.9523866"><ele>84.0</ele><time>2026-04-26T13:07:44.35Z</time></trkpt><trkpt lat="43.9045275" lon="7.9522787"><ele>84.6</ele><time>2026-04-26T13:07:45.349Z</time></trkpt><trkpt lat="43.9045573" lon="7.9521553"><ele>85.2</ele><time>2026-04-26T13:07:46.35Z</time></trkpt><trkpt lat="43.9045596" lon="7.9520064"><ele>85.8</ele><time>2026-04-26T13:07:47.351Z</time></trkpt><trkpt lat="43.9045736" lon="7.951871"><ele>86.39999999999999</ele><time>2026-04-26T13:07:48.351Z</time></trkpt><trkpt lat="43.9045792" lon="7.9517325"><ele>87.0</ele><time>2026-04-26T13:07:49.349Z</time></trkpt><trkpt lat="43.904605" lon="7.9516158"><ele>89.19999999999999</ele><time>2026-04-26T13:07:50.35Z</time></trkpt><trkpt lat="43.9046395" lon="7.9515126"><ele>91.4</ele><time>2026-04-26T13:07:51.351Z</time></trkpt><trkpt lat="43.9046972" lon="7.9514314"><ele>93.6</ele><time>2026-04-26T13:07:52.35Z</time></trkpt><trkpt lat="43.9047659" lon="7.9513654"><ele>95.80000000000001</ele><time>2026-04-26T13:07:53.351Z</time></trkpt><trkpt lat="43.9048669" lon="7.9513308"><ele>98.0</ele><time>2026-04-26T13:07:54.351Z</time></trkpt><trkpt lat="43.9049668" lon="7.9512921"><ele>98.0</ele><time>2026-04-26T13:07:55.35Z</time></trkpt><trkpt lat="43.905068" lon="7.9512529"><ele>98.0</ele><time>2026-04-26T13:07:56.351Z</time></trkpt><trkpt lat="43.9051674" lon="7.951202"><ele>98.0</ele><time>2026-04-26T13:07:57.351Z</time></trkpt><trkpt lat="43.9052669" lon="7.9511462"><ele>98.0</ele><time>2026-04-26T13:07:58.35Z</time></trkpt><trkpt lat="43.9053652" lon="7.9510877"><ele>98.0</ele><time>2026-04-26T13:07:59.351Z</time></trkpt><trkpt lat="43.9054675" lon="7.9510399"><ele>98.80000000000001</ele><time>2026-04-26T13:08:00.351Z</time></trkpt><trkpt lat="43.9055747" lon="7.9510018"><ele>99.6</ele><time>2026-04-26T13:08:01.35Z</time></trkpt><trkpt lat="43.9056853" lon="7.9509633"><ele>100.4</ele><time>2026-04-26T13:08:02.351Z</time></trkpt><trkpt lat="43.9057859" lon="7.9509343"><ele>101.19999999999999</ele><time>2026-04-26T13:08:03.35Z</time></trkpt><trkpt lat="43.905868" lon="7.9508959"><ele>102.0</ele><time>2026-04-26T13:08:04.352Z</time></trkpt><trkpt lat="43.9059577" lon="7.9508666"><ele>102.0</ele><time>2026-04-26T13:08:05.35Z</time></trkpt><trkpt lat="43.9060432" lon="7.9508442"><ele>102.0</ele><time>2026-04-26T13:08:06.35Z</time></trkpt><trkpt lat="43.906126" lon="7.9508368"><ele>102.0</ele><time>2026-04-26T13:08:07.35Z</time></trkpt><trkpt lat="43.9062053" lon="7.9508403"><ele>102.0</ele><time>2026-04-26T13:08:08.351Z</time></trkpt><trkpt lat="43.9062815" lon="7.950843"><ele>102.0</ele><time>2026-04-26T13:08:09.349Z</time></trkpt><trkpt lat="43.9063505" lon="7.9508327"><ele>102.0</ele><time>2026-04-26T13:08:10.35Z</time></trkpt><trkpt lat="43.9063914" lon="7.9507129"><ele>102.0</ele><time>2026-04-26T13:08:12.35Z</time></trkpt><trkpt lat="43.9063323" lon="7.9506382"><ele>102.0</ele><time>2026-04-26T13:08:14.351Z</time></trkpt><trkpt lat="43.906253" lon="7.9506359"><ele>102.0</ele><time>2026-04-26T13:08:15.351Z</time></trkpt><trkpt lat="43.9061652" lon="7.9506332"><ele>102.0</ele><time>2026-04-26T13:08:16.351Z</time></trkpt><trkpt lat="43.9060721" lon="7.9506405"><ele>102.0</ele><time>2026-04-26T13:08:17.352Z</time></trkpt><trkpt lat="43.9059657" lon="7.9506488"><ele>102.0</ele><time>2026-04-26T13:08:18.351Z</time></trkpt><trkpt lat="43.9058643" lon="7.9506529"><ele>104.0</ele><time>2026-04-26T13:08:19.351Z</time></trkpt><trkpt lat="43.9057603" lon="7.9506271"><ele>106.0</ele><time>2026-04-26T13:08:20.351Z</time></trkpt><trkpt lat="43.9056609" lon="7.9505989"><ele>107.99999999999999</ele><time>2026-04-26T13:08:21.351Z</time></trkpt><trkpt lat="43.905564" lon="7.9505619"><ele>110.0</ele><time>2026-04-26T13:08:22.35Z</time></trkpt><trkpt lat="43.9054655" lon="7.9505467"><ele>112.0</ele><time>2026-04-26T13:08:23.35Z</time></trkpt><trkpt lat="43.9053634" lon="7.9505496"><ele>112.0</ele><time>2026-04-26T13:08:24.35Z</time></trkpt><trkpt lat="43.9052606" lon="7.9505763"><ele>111.99999999999999</ele><time>2026-04-26T13:08:25.351Z</time></trkpt><trkpt lat="43.905156" lon="7.9506327"><ele>111.99999999999999</ele><time>2026-04-26T13:08:26.351Z</time></trkpt><trkpt lat="43.9050575" lon="7.9506762"><ele>112.0</ele><time>2026-04-26T13:08:27.351Z</time></trkpt><trkpt lat="43.9049615" lon="7.9507079"><ele>112.0</ele><time>2026-04-26T13:08:28.351Z</time></trkpt><trkpt lat="43.9048693" lon="7.9507169"><ele>112.8</ele><time>2026-04-26T13:08:29.351Z</time></trkpt><trkpt lat="43.9047752" lon="7.9507047"><ele>113.6</ele><time>2026-04-26T13:08:30.351Z</time></trkpt><trkpt lat="43.9046839" lon="7.9506617"><ele>114.39999999999999</ele><time>2026-04-26T13:08:31.351Z</time></trkpt><trkpt lat="43.9045953" lon="7.9505989"><ele>115.19999999999999</ele><time>2026-04-26T13:08:32.35Z</time></trkpt><trkpt lat="43.9045035" lon="7.9505234"><ele>116.0</ele><time>2026-04-26T13:08:33.351Z</time></trkpt><trkpt lat="43.904407" lon="7.9504503"><ele>116.0</ele><time>2026-04-26T13:08:34.35Z</time></trkpt><trkpt lat="43.9043183" lon="7.9503841"><ele>116.0</ele><time>2026-04-26T13:08:35.351Z</time></trkpt><trkpt lat="43.9042319" lon="7.9503442"><ele>116.0</ele><time>2026-04-26T13:08:36.351Z</time></trkpt><trkpt lat="43.9041428" lon="7.9503254"><ele>116.0</ele><time>2026-04-26T13:08:37.35Z</time></trkpt><trkpt lat="43.9040321" lon="7.9503451"><ele>116.0</ele><time>2026-04-26T13:08:38.351Z</time></trkpt><trkpt lat="43.9039256" lon="7.9503664"><ele>116.8</ele><time>2026-04-26T13:08:39.351Z</time></trkpt><trkpt lat="43.9038248" lon="7.9503764"><ele>117.6</ele><time>2026-04-26T13:08:40.351Z</time></trkpt><trkpt lat="43.9037386" lon="7.9503584"><ele>118.4</ele><time>2026-04-26T13:08:41.349Z</time></trkpt><trkpt lat="43.9036379" lon="7.9503237"><ele>119.2</ele><time>2026-04-26T13:08:42.351Z</time></trkpt><trkpt lat="43.9035384" lon="7.950285"><ele>120.0</ele><time>2026-04-26T13:08:43.35Z</time></trkpt><trkpt lat="43.9034373" lon="7.950256"><ele>121.0</ele><time>2026-04-26T13:08:44.35Z</time></trkpt><trkpt lat="43.903326" lon="7.9502294"><ele>122.0</ele><time>2026-04-26T13:08:45.35Z</time></trkpt><trkpt lat="43.9032145" lon="7.9502053"><ele>123.0</ele><time>2026-04-26T13:08:46.351Z</time></trkpt><trkpt lat="43.9030971" lon="7.9501839"><ele>124.0</ele><time>2026-04-26T13:08:47.35Z</time></trkpt><trkpt lat="43.9029875" lon="7.9501615"><ele>124.0</ele><time>2026-04-26T13:08:48.351Z</time></trkpt><trkpt lat="43.9028754" lon="7.9501399"><ele>124.0</ele><time>2026-04-26T13:08:49.35Z</time></trkpt><trkpt lat="43.9027626" lon="7.9501209"><ele>124.0</ele><time>2026-04-26T13:08:50.35Z</time></trkpt><trkpt lat="43.9026517" lon="7.9500905"><ele>124.0</ele><time>2026-04-26T13:08:51.35Z</time></trkpt><trkpt lat="43.9025438" lon="7.9500509"><ele>124.2</ele><time>2026-04-26T13:08:52.351Z</time></trkpt><trkpt lat="43.9024409" lon="7.9500091"><ele>124.4</ele><time>2026-04-26T13:08:53.35Z</time></trkpt><trkpt lat="43.9023454" lon="7.9499874"><ele>124.6</ele><time>2026-04-26T13:08:54.351Z</time></trkpt><trkpt lat="43.9022472" lon="7.9499923"><ele>124.8</ele><time>2026-04-26T13:08:55.35Z</time></trkpt><trkpt lat="43.902157" lon="7.9500262"><ele>125.0</ele><time>2026-04-26T13:08:56.351Z</time></trkpt><trkpt lat="43.9020716" lon="7.9500998"><ele>125.0</ele><time>2026-04-26T13:08:57.352Z</time></trkpt><trkpt lat="43.9019957" lon="7.9501957"><ele>125.0</ele><time>2026-04-26T13:08:58.351Z</time></trkpt><trkpt lat="43.9019165" lon="7.9502858"><ele>125.0</ele><time>2026-04-26T13:08:59.35Z</time></trkpt><trkpt lat="43.9018283" lon="7.9503539"><ele>125.0</ele><time>2026-04-26T13:09:00.35Z</time></trkpt><trkpt lat="43.9017354" lon="7.950389"><ele>125.0</ele><time>2026-04-26T13:09:01.351Z</time></trkpt><trkpt lat="43.9016425" lon="7.9504221"><ele>125.8</ele><time>2026-04-26T13:09:02.351Z</time></trkpt><trkpt lat="43.9015543" lon="7.950467"><ele>126.6</ele><time>2026-04-26T13:09:03.352Z</time></trkpt><trkpt lat="43.9015093" lon="7.9505702"><ele>127.4</ele><time>2026-04-26T13:09:04.352Z</time></trkpt><trkpt lat="43.9014634" lon="7.950692"><ele>128.2</ele><time>2026-04-26T13:09:05.352Z</time></trkpt><trkpt lat="43.9014168" lon="7.9508181"><ele>129.0</ele><time>2026-04-26T13:09:06.351Z</time></trkpt><trkpt lat="43.9013678" lon="7.9509479"><ele>129.0</ele><time>2026-04-26T13:09:07.351Z</time></trkpt><trkpt lat="43.9013194" lon="7.951076"><ele>129.0</ele><time>2026-04-26T13:09:08.352Z</time></trkpt><trkpt lat="43.9012611" lon="7.9512005"><ele>129.0</ele><time>2026-04-26T13:09:09.35Z</time></trkpt><trkpt lat="43.9011948" lon="7.9513177"><ele>129.0</ele><time>2026-04-26T13:09:10.352Z</time></trkpt><trkpt lat="43.9011198" lon="7.9514341"><ele>129.0</ele><time>2026-04-26T13:09:11.35Z</time></trkpt><trkpt lat="43.9010508" lon="7.9515468"><ele>129.0</ele><time>2026-04-26T13:09:12.351Z</time></trkpt><trkpt lat="43.9009798" lon="7.9516583"><ele>129.0</ele><time>2026-04-26T13:09:13.351Z</time></trkpt><trkpt lat="43.9009163" lon="7.9517655"><ele>129.0</ele><time>2026-04-26T13:09:14.352Z</time></trkpt><trkpt lat="43.9008575" lon="7.9518585"><ele>129.0</ele><time>2026-04-26T13:09:15.35Z</time></trkpt><trkpt lat="43.9008033" lon="7.9519288"><ele>129.0</ele><time>2026-04-26T13:09:16.35Z</time></trkpt><trkpt lat="43.9007296" lon="7.9519611"><ele>129.0</ele><time>2026-04-26T13:09:17.35Z</time></trkpt><trkpt lat="43.9006447" lon="7.9519556"><ele>130.8</ele><time>2026-04-26T13:09:18.351Z</time></trkpt><trkpt lat="43.9005537" lon="7.9519178"><ele>132.60000000000002</ele><time>2026-04-26T13:09:19.35Z</time></trkpt><trkpt lat="43.9004562" lon="7.9518702"><ele>134.4</ele><time>2026-04-26T13:09:20.35Z</time></trkpt><trkpt lat="43.9003526" lon="7.9518398"><ele>136.20000000000002</ele><time>2026-04-26T13:09:21.351Z</time></trkpt><trkpt lat="43.9002369" lon="7.9518373"><ele>138.0</ele><time>2026-04-26T13:09:22.35Z</time></trkpt><trkpt lat="43.9001217" lon="7.9518386"><ele>139.20000000000002</ele><time>2026-04-26T13:09:23.35Z</time></trkpt><trkpt lat="43.9000098" lon="7.9518335"><ele>140.4</ele><time>2026-04-26T13:09:24.351Z</time></trkpt><trkpt lat="43.8998973" lon="7.95183"><ele>141.60000000000002</ele><time>2026-04-26T13:09:25.351Z</time></trkpt><trkpt lat="43.8997863" lon="7.9518345"><ele>142.8</ele><time>2026-04-26T13:09:26.351Z</time></trkpt><trkpt lat="43.8996877" lon="7.9518346"><ele>144.0</ele><time>2026-04-26T13:09:27.351Z</time></trkpt><trkpt lat="43.8995942" lon="7.9518244"><ele>144.0</ele><time>2026-04-26T13:09:28.352Z</time></trkpt><trkpt lat="43.8995042" lon="7.9517864"><ele>144.0</ele><time>2026-04-26T13:09:29.35Z</time></trkpt><trkpt lat="43.8994166" lon="7.9517487"><ele>144.0</ele><time>2026-04-26T13:09:30.35Z</time></trkpt><trkpt lat="43.8993364" lon="7.9516666"><ele>144.0</ele><time>2026-04-26T13:09:31.352Z</time></trkpt><trkpt lat="43.89925" lon="7.9515818"><ele>144.0</ele><time>2026-04-26T13:09:32.351Z</time></trkpt><trkpt lat="43.8991625" lon="7.9514947"><ele>146.0</ele><time>2026-04-26T13:09:33.35Z</time></trkpt><trkpt lat="43.8990879" lon="7.951402"><ele>148.0</ele><time>2026-04-26T13:09:34.351Z</time></trkpt><trkpt lat="43.8990242" lon="7.9512953"><ele>150.0</ele><time>2026-04-26T13:09:35.35Z</time></trkpt><trkpt lat="43.8989694" lon="7.9511906"><ele>152.0</ele><time>2026-04-26T13:09:36.351Z</time></trkpt><trkpt lat="43.8989213" lon="7.9510629"><ele>154.0</ele><time>2026-04-26T13:09:37.35Z</time></trkpt><trkpt lat="43.8988756" lon="7.950927"><ele>156.4</ele><time>2026-04-26T13:09:38.35Z</time></trkpt><trkpt lat="43.8988271" lon="7.9507904"><ele>158.8</ele><time>2026-04-26T13:09:39.35Z</time></trkpt><trkpt lat="43.8987766" lon="7.950656"><ele>161.20000000000002</ele><time>2026-04-26T13:09:40.352Z</time></trkpt><trkpt lat="43.8987177" lon="7.950524"><ele>163.60000000000002</ele><time>2026-04-26T13:09:41.35Z</time></trkpt><trkpt lat="43.8986635" lon="7.9504023"><ele>166.0</ele><time>2026-04-26T13:09:42.352Z</time></trkpt><trkpt lat="43.8986239" lon="7.9503016"><ele>166.0</ele><time>2026-04-26T13:09:43.352Z</time></trkpt><trkpt lat="43.8985941" lon="7.9501549"><ele>166.0</ele><time>2026-04-26T13:09:45.35Z</time></trkpt><trkpt lat="43.8986401" lon="7.9500618"><ele>166.0</ele><time>2026-04-26T13:09:47.352Z</time></trkpt><trkpt lat="43.8987124" lon="7.9501148"><ele>166.0</ele><time>2026-04-26T13:09:49.351Z</time></trkpt><trkpt lat="43.8987554" lon="7.950275"><ele>166.0</ele><time>2026-04-26T13:09:51.353Z</time></trkpt><trkpt lat="43.8987836" lon="7.9503654"><ele>166.0</ele><time>2026-04-26T13:09:52.35Z</time></trkpt><trkpt lat="43.8988254" lon="7.9504508"><ele>166.0</ele><time>2026-04-26T13:09:53.35Z</time></trkpt><trkpt lat="43.8988705" lon="7.9505279"><ele>166.0</ele><time>2026-04-26T13:09:54.35Z</time></trkpt><trkpt lat="43.8989209" lon="7.9505956"><ele>166.0</ele><time>2026-04-26T13:09:55.351Z</time></trkpt><trkpt lat="43.898976" lon="7.9506533"><ele>166.0</ele><time>2026-04-26T13:09:56.35Z</time></trkpt><trkpt lat="43.8990403" lon="7.9507092"><ele>166.0</ele><time>2026-04-26T13:09:57.351Z</time></trkpt><trkpt lat="43.8991071" lon="7.9507698"><ele>166.0</ele><time>2026-04-26T13:09:58.351Z</time></trkpt><trkpt lat="43.899174" lon="7.9508346"><ele>164.83333333333334</ele><time>2026-04-26T13:09:59.351Z</time></trkpt><trkpt lat="43.8992454" lon="7.9509051"><ele>163.66666666666669</ele><time>2026-04-26T13:10:00.35Z</time></trkpt><trkpt lat="43.8993156" lon="7.9509745"><ele>162.5</ele><time>2026-04-26T13:10:01.351Z</time></trkpt><trkpt lat="43.899385" lon="7.9510346"><ele>161.33333333333334</ele><time>2026-04-26T13:10:02.351Z</time></trkpt><trkpt lat="43.8994533" lon="7.9510879"><ele>160.16666666666666</ele><time>2026-04-26T13:10:03.35Z</time></trkpt><trkpt lat="43.8995319" lon="7.9511361"><ele>159.0</ele><time>2026-04-26T13:10:04.352Z</time></trkpt><trkpt lat="43.8996251" lon="7.9511624"><ele>159.0</ele><time>2026-04-26T13:10:05.351Z</time></trkpt><trkpt lat="43.899716" lon="7.9511995"><ele>159.0</ele><time>2026-04-26T13:10:06.35Z</time></trkpt><trkpt lat="43.8997993" lon="7.9512249"><ele>159.0</ele><time>2026-04-26T13:10:07.351Z</time></trkpt><trkpt lat="43.8998736" lon="7.9512446"><ele>159.0</ele><time>2026-04-26T13:10:08.351Z</time></trkpt><trkpt lat="43.8999543" lon="7.9512471"><ele>159.0</ele><time>2026-04-26T13:10:09.351Z</time></trkpt><trkpt lat="43.9000209" lon="7.9512142"><ele>159.0</ele><time>2026-04-26T13:10:10.351Z</time></trkpt><trkpt lat="43.9000675" lon="7.9511463"><ele>159.6</ele><time>2026-04-26T13:10:11.35Z</time></trkpt><trkpt lat="43.9000916" lon="7.9510333"><ele>160.2</ele><time>2026-04-26T13:10:12.35Z</time></trkpt><trkpt lat="43.9001131" lon="7.9509015"><ele>160.79999999999998</ele><time>2026-04-26T13:10:13.351Z</time></trkpt><trkpt lat="43.9001344" lon="7.950754"><ele>161.4</ele><time>2026-04-26T13:10:14.351Z</time></trkpt><trkpt lat="43.9001686" lon="7.9506187"><ele>162.0</ele><time>2026-04-26T13:10:15.351Z</time></trkpt><trkpt lat="43.9002036" lon="7.9504839"><ele>162.0</ele><time>2026-04-26T13:10:16.35Z</time></trkpt><trkpt lat="43.9002614" lon="7.9503544"><ele>162.0</ele><time>2026-04-26T13:10:17.351Z</time></trkpt><trkpt lat="43.9003154" lon="7.9502345"><ele>162.0</ele><time>2026-04-26T13:10:18.35Z</time></trkpt><trkpt lat="43.9003686" lon="7.950112"><ele>162.0</ele><time>2026-04-26T13:10:19.351Z</time></trkpt><trkpt lat="43.9004238" lon="7.9499984"><ele>162.0</ele><time>2026-04-26T13:10:20.353Z</time></trkpt><trkpt lat="43.9004674" lon="7.9498987"><ele>162.83333333333334</ele><time>2026-04-26T13:10:21.351Z</time></trkpt><trkpt lat="43.9005088" lon="7.9498017"><ele>163.66666666666666</ele><time>2026-04-26T13:10:22.35Z</time></trkpt><trkpt lat="43.9005235" lon="7.9497064"><ele>164.5</ele><time>2026-04-26T13:10:23.35Z</time></trkpt><trkpt lat="43.9005269" lon="7.9495965"><ele>165.33333333333331</ele><time>2026-04-26T13:10:24.351Z</time></trkpt><trkpt lat="43.9005182" lon="7.9494872"><ele>166.16666666666666</ele><time>2026-04-26T13:10:25.35Z</time></trkpt><trkpt lat="43.9004968" lon="7.9493582"><ele>167.0</ele><time>2026-04-26T13:10:26.351Z</time></trkpt><trkpt lat="43.9004752" lon="7.9492306"><ele>167.2</ele><time>2026-04-26T13:10:27.35Z</time></trkpt><trkpt lat="43.9004697" lon="7.9490914"><ele>167.39999999999998</ele><time>2026-04-26T13:10:28.351Z</time></trkpt><trkpt lat="43.9004648" lon="7.9489465"><ele>167.60000000000002</ele><time>2026-04-26T13:10:29.351Z</time></trkpt><trkpt lat="43.9004651" lon="7.9487997"><ele>167.8</ele><time>2026-04-26T13:10:30.352Z</time></trkpt><trkpt lat="43.900457" lon="7.9486611"><ele>168.0</ele><time>2026-04-26T13:10:31.351Z</time></trkpt><trkpt lat="43.9004419" lon="7.9485313"><ele>168.0</ele><time>2026-04-26T13:10:32.351Z</time></trkpt><trkpt lat="43.9004321" lon="7.9483996"><ele>168.0</ele><time>2026-04-26T13:10:33.35Z</time></trkpt><trkpt lat="43.9004247" lon="7.9482675"><ele>168.0</ele><time>2026-04-26T13:10:34.352Z</time></trkpt><trkpt lat="43.9004263" lon="7.9481281"><ele>168.0</ele><time>2026-04-26T13:10:35.35Z</time></trkpt><trkpt lat="43.9004522" lon="7.9480001"><ele>168.0</ele><time>2026-04-26T13:10:36.351Z</time></trkpt><trkpt lat="43.9004867" lon="7.9478764"><ele>169.5</ele><time>2026-04-26T13:10:37.35Z</time></trkpt><trkpt lat="43.9005268" lon="7.947769"><ele>171.0</ele><time>2026-04-26T13:10:38.351Z</time></trkpt><trkpt lat="43.9005782" lon="7.9476903"><ele>172.5</ele><time>2026-04-26T13:10:39.352Z</time></trkpt><trkpt lat="43.9006505" lon="7.9476263"><ele>174.0</ele><time>2026-04-26T13:10:40.352Z</time></trkpt><trkpt lat="43.9007299" lon="7.9475672"><ele>175.5</ele><time>2026-04-26T13:10:41.351Z</time></trkpt><trkpt lat="43.9008171" lon="7.9474997"><ele>177.0</ele><time>2026-04-26T13:10:42.352Z</time></trkpt><trkpt lat="43.9009023" lon="7.9474322"><ele>178.0</ele><time>2026-04-26T13:10:43.351Z</time></trkpt><trkpt lat="43.9009926" lon="7.9473557"><ele>179.0</ele><time>2026-04-26T13:10:44.35Z</time></trkpt><trkpt lat="43.9010851" lon="7.9472694"><ele>180.0</ele><time>2026-04-26T13:10:45.352Z</time></trkpt><trkpt lat="43.901174" lon="7.9471804"><ele>181.0</ele><time>2026-04-26T13:10:46.35Z</time></trkpt><trkpt lat="43.9012713" lon="7.947079"><ele>182.0</ele><time>2026-04-26T13:10:47.35Z</time></trkpt><trkpt lat="43.9013717" lon="7.9469784"><ele>182.0</ele><time>2026-04-26T13:10:48.351Z</time></trkpt><trkpt lat="43.9014735" lon="7.9468817"><ele>182.0</ele><time>2026-04-26T13:10:49.351Z</time></trkpt><trkpt lat="43.9015748" lon="7.9467889"><ele>182.0</ele><time>2026-04-26T13:10:50.35Z</time></trkpt><trkpt lat="43.9016781" lon="7.9467015"><ele>182.0</ele><time>2026-04-26T13:10:51.351Z</time></trkpt><trkpt lat="43.9017745" lon="7.9466175"><ele>185.5</ele><time>2026-04-26T13:10:52.352Z</time></trkpt><trkpt lat="43.9018705" lon="7.9465247"><ele>189.0</ele><time>2026-04-26T13:10:53.351Z</time></trkpt><trkpt lat="43.9019688" lon="7.9464503"><ele>192.5</ele><time>2026-04-26T13:10:54.352Z</time></trkpt><trkpt lat="43.9020848" lon="7.9463929"><ele>196.0</ele><time>2026-04-26T13:10:55.35Z</time></trkpt><trkpt lat="43.9021921" lon="7.9463536"><ele>196.0</ele><time>2026-04-26T13:10:56.35Z</time></trkpt><trkpt lat="43.9023179" lon="7.9463445"><ele>196.0</ele><time>2026-04-26T13:10:57.35Z</time></trkpt><trkpt lat="43.9024426" lon="7.9463474"><ele>196.0</ele><time>2026-04-26T13:10:58.351Z</time></trkpt><trkpt lat="43.9025684" lon="7.9463623"><ele>196.0</ele><time>2026-04-26T13:10:59.35Z</time></trkpt><trkpt lat="43.902691" lon="7.9463774"><ele>196.4</ele><time>2026-04-26T13:11:00.35Z</time></trkpt><trkpt lat="43.9028126" lon="7.946395"><ele>196.8</ele><time>2026-04-26T13:11:01.351Z</time></trkpt><trkpt lat="43.9029296" lon="7.9464136"><ele>197.20000000000002</ele><time>2026-04-26T13:11:02.35Z</time></trkpt><trkpt lat="43.9030299" lon="7.9464342"><ele>197.60000000000002</ele><time>2026-04-26T13:11:03.351Z</time></trkpt><trkpt lat="43.9031281" lon="7.9464418"><ele>198.0</ele><time>2026-04-26T13:11:04.352Z</time></trkpt><trkpt lat="43.9032178" lon="7.9464297"><ele>198.0</ele><time>2026-04-26T13:11:05.35Z</time></trkpt><trkpt lat="43.903275" lon="7.9463648"><ele>198.0</ele><time>2026-04-26T13:11:06.351Z</time></trkpt><trkpt lat="43.9033228" lon="7.946299"><ele>198.0</ele><time>2026-04-26T13:11:07.352Z</time></trkpt><trkpt lat="43.9033355" lon="7.9462053"><ele>198.0</ele><time>2026-04-26T13:11:08.352Z</time></trkpt><trkpt lat="43.903315" lon="7.9461049"><ele>198.0</ele><time>2026-04-26T13:11:09.351Z</time></trkpt><trkpt lat="43.9032493" lon="7.9459916"><ele>198.0</ele><time>2026-04-26T13:11:10.35Z</time></trkpt><trkpt lat="43.9031987" lon="7.9458734"><ele>197.4</ele><time>2026-04-26T13:11:11.352Z</time></trkpt><trkpt lat="43.9031457" lon="7.9457448"><ele>196.8</ele><time>2026-04-26T13:11:12.351Z</time></trkpt><trkpt lat="43.9030846" lon="7.945622"><ele>196.2</ele><time>2026-04-26T13:11:13.35Z</time></trkpt><trkpt lat="43.9030273" lon="7.9454942"><ele>195.6</ele><time>2026-04-26T13:11:14.351Z</time></trkpt><trkpt lat="43.9029687" lon="7.9453619"><ele>195.0</ele><time>2026-04-26T13:11:15.35Z</time></trkpt><trkpt lat="43.9029018" lon="7.9452323"><ele>195.0</ele><time>2026-04-26T13:11:16.351Z</time></trkpt><trkpt lat="43.9028409" lon="7.9450935"><ele>195.0</ele><time>2026-04-26T13:11:17.351Z</time></trkpt><trkpt lat="43.9027813" lon="7.9449537"><ele>195.0</ele><time>2026-04-26T13:11:18.352Z</time></trkpt><trkpt lat="43.9027292" lon="7.9448195"><ele>195.0</ele><time>2026-04-26T13:11:19.351Z</time></trkpt><trkpt lat="43.9026903" lon="7.9446866"><ele>195.0</ele><time>2026-04-26T13:11:20.351Z</time></trkpt><trkpt lat="43.9026665" lon="7.9445438"><ele>194.4</ele><time>2026-04-26T13:11:21.352Z</time></trkpt><trkpt lat="43.9026558" lon="7.9443941"><ele>193.8</ele><time>2026-04-26T13:11:22.351Z</time></trkpt><trkpt lat="43.9026504" lon="7.9442386"><ele>193.2</ele><time>2026-04-26T13:11:23.351Z</time></trkpt><trkpt lat="43.9026379" lon="7.9440839"><ele>192.6</ele><time>2026-04-26T13:11:24.351Z</time></trkpt><trkpt lat="43.9026176" lon="7.9439371"><ele>192.0</ele><time>2026-04-26T13:11:25.352Z</time></trkpt><trkpt lat="43.9025988" lon="7.9437964"><ele>192.0</ele><time>2026-04-26T13:11:26.351Z</time></trkpt><trkpt lat="43.9025843" lon="7.9436521"><ele>192.0</ele><time>2026-04-26T13:11:27.353Z</time></trkpt><trkpt lat="43.9025965" lon="7.9435092"><ele>192.0</ele><time>2026-04-26T13:11:28.351Z</time></trkpt><trkpt lat="43.9025927" lon="7.9433749"><ele>192.0</ele><time>2026-04-26T13:11:29.351Z</time></trkpt><trkpt lat="43.9025755" lon="7.9432557"><ele>192.0</ele><time>2026-04-26T13:11:30.352Z</time></trkpt><trkpt lat="43.9025347" lon="7.943144"><ele>195.16666666666666</ele><time>2026-04-26T13:11:31.351Z</time></trkpt><trkpt lat="43.9024783" lon="7.9430527"><ele>198.33333333333331</ele><time>2026-04-26T13:11:32.351Z</time></trkpt><trkpt lat="43.9024348" lon="7.942947"><ele>201.5</ele><time>2026-04-26T13:11:33.351Z</time></trkpt><trkpt lat="43.9024358" lon="7.9428461"><ele>204.66666666666666</ele><time>2026-04-26T13:11:34.352Z</time></trkpt><trkpt lat="43.9024738" lon="7.9427519"><ele>207.83333333333331</ele><time>2026-04-26T13:11:35.351Z</time></trkpt><trkpt lat="43.9025158" lon="7.9426552"><ele>211.0</ele><time>2026-04-26T13:11:36.351Z</time></trkpt><trkpt lat="43.9025895" lon="7.9425529"><ele>214.4</ele><time>2026-04-26T13:11:37.351Z</time></trkpt><trkpt lat="43.9026682" lon="7.9424522"><ele>217.8</ele><time>2026-04-26T13:11:38.351Z</time></trkpt><trkpt lat="43.9027479" lon="7.9423494"><ele>221.20000000000002</ele><time>2026-04-26T13:11:39.35Z</time></trkpt><trkpt lat="43.9028226" lon="7.9422553"><ele>224.60000000000002</ele><time>2026-04-26T13:11:40.351Z</time></trkpt><trkpt lat="43.9029057" lon="7.9422144"><ele>228.0</ele><time>2026-04-26T13:11:41.351Z</time></trkpt><trkpt lat="43.9029956" lon="7.9421661"><ele>228.0</ele><time>2026-04-26T13:11:42.351Z</time></trkpt><trkpt lat="43.9030969" lon="7.9421551"><ele>228.0</ele><time>2026-04-26T13:11:43.35Z</time></trkpt><trkpt lat="43.9031837" lon="7.9421558"><ele>228.0</ele><time>2026-04-26T13:11:44.351Z</time></trkpt><trkpt lat="43.9032732" lon="7.9421309"><ele>228.0</ele><time>2026-04-26T13:11:45.351Z</time></trkpt><trkpt lat="43.90335" lon="7.9420904"><ele>228.0</ele><time>2026-04-26T13:11:46.35Z</time></trkpt><trkpt lat="43.9034182" lon="7.942039"><ele>228.0</ele><time>2026-04-26T13:11:47.352Z</time></trkpt><trkpt lat="43.9034768" lon="7.941958"><ele>228.2</ele><time>2026-04-26T13:11:48.352Z</time></trkpt><trkpt lat="43.9035247" lon="7.9418652"><ele>228.4</ele><time>2026-04-26T13:11:49.35Z</time></trkpt><trkpt lat="43.9035717" lon="7.94176"><ele>228.59999999999997</ele><time>2026-04-26T13:11:50.352Z</time></trkpt><trkpt lat="43.9036035" lon="7.9416328"><ele>228.79999999999998</ele><time>2026-04-26T13:11:51.351Z</time></trkpt><trkpt lat="43.9036442" lon="7.9415108"><ele>229.0</ele><time>2026-04-26T13:11:52.35Z</time></trkpt><trkpt lat="43.9036865" lon="7.9413916"><ele>229.2</ele><time>2026-04-26T13:11:53.352Z</time></trkpt><trkpt lat="43.9037218" lon="7.9412733"><ele>229.39999999999998</ele><time>2026-04-26T13:11:54.352Z</time></trkpt><trkpt lat="43.9037573" lon="7.9411526"><ele>229.6</ele><time>2026-04-26T13:11:55.352Z</time></trkpt><trkpt lat="43.9037945" lon="7.9410321"><ele>229.8</ele><time>2026-04-26T13:11:56.351Z</time></trkpt><trkpt lat="43.9038313" lon="7.94091"><ele>230.0</ele><time>2026-04-26T13:11:57.352Z</time></trkpt><trkpt lat="43.9038665" lon="7.9407925"><ele>229.16666666666669</ele><time>2026-04-26T13:11:58.351Z</time></trkpt><trkpt lat="43.9039017" lon="7.9406786"><ele>228.33333333333334</ele><time>2026-04-26T13:11:59.351Z</time></trkpt><trkpt lat="43.9039278" lon="7.9405693"><ele>227.5</ele><time>2026-04-26T13:12:00.351Z</time></trkpt><trkpt lat="43.9039363" lon="7.9404517"><ele>226.66666666666669</ele><time>2026-04-26T13:12:01.352Z</time></trkpt><trkpt lat="43.9039292" lon="7.9403401"><ele>225.83333333333334</ele><time>2026-04-26T13:12:02.351Z</time></trkpt><trkpt lat="43.9038764" lon="7.940228"><ele>225.0</ele><time>2026-04-26T13:12:03.35Z</time></trkpt><trkpt lat="43.9038135" lon="7.9401173"><ele>225.25</ele><time>2026-04-26T13:12:04.352Z</time></trkpt><trkpt lat="43.903748" lon="7.9400002"><ele>225.5</ele><time>2026-04-26T13:12:05.35Z</time></trkpt><trkpt lat="43.9036809" lon="7.9398719"><ele>225.75</ele><time>2026-04-26T13:12:06.35Z</time></trkpt><trkpt lat="43.9036151" lon="7.9397304"><ele>226.0</ele><time>2026-04-26T13:12:07.35Z</time></trkpt><trkpt lat="43.9035505" lon="7.939596"><ele>226.0</ele><time>2026-04-26T13:12:08.351Z</time></trkpt><trkpt lat="43.9034889" lon="7.9394703"><ele>226.00000000000003</ele><time>2026-04-26T13:12:09.351Z</time></trkpt><trkpt lat="43.9034359" lon="7.9393504"><ele>226.00000000000003</ele><time>2026-04-26T13:12:10.352Z</time></trkpt><trkpt lat="43.9033988" lon="7.9392311"><ele>226.0</ele><time>2026-04-26T13:12:11.351Z</time></trkpt><trkpt lat="43.9033936" lon="7.9390975"><ele>226.0</ele><time>2026-04-26T13:12:12.35Z</time></trkpt><trkpt lat="43.9033882" lon="7.9389687"><ele>227.33333333333331</ele><time>2026-04-26T13:12:13.351Z</time></trkpt><trkpt lat="43.9034017" lon="7.9388492"><ele>228.66666666666666</ele><time>2026-04-26T13:12:14.35Z</time></trkpt><trkpt lat="43.9034192" lon="7.9387403"><ele>230.0</ele><time>2026-04-26T13:12:15.35Z</time></trkpt><trkpt lat="43.9034464" lon="7.9386492"><ele>231.33333333333331</ele><time>2026-04-26T13:12:16.351Z</time></trkpt><trkpt lat="43.9035184" lon="7.9386122"><ele>232.66666666666666</ele><time>2026-04-26T13:12:17.351Z</time></trkpt><trkpt lat="43.9035883" lon="7.9386031"><ele>234.0</ele><time>2026-04-26T13:12:18.352Z</time></trkpt><trkpt lat="43.9036631" lon="7.9386198"><ele>234.0</ele><time>2026-04-26T13:12:19.351Z</time></trkpt><trkpt lat="43.9037397" lon="7.9386324"><ele>234.0</ele><time>2026-04-26T13:12:20.352Z</time></trkpt><trkpt lat="43.9038181" lon="7.9386265"><ele>234.0</ele><time>2026-04-26T13:12:21.352Z</time></trkpt><trkpt lat="43.9038826" lon="7.9385915"><ele>234.0</ele><time>2026-04-26T13:12:22.351Z</time></trkpt><trkpt lat="43.9039473" lon="7.9385352"><ele>234.0</ele><time>2026-04-26T13:12:23.351Z</time></trkpt><trkpt lat="43.9040054" lon="7.9384517"><ele>234.0</ele><time>2026-04-26T13:12:24.35Z</time></trkpt><trkpt lat="43.9040537" lon="7.9383496"><ele>235.83333333333334</ele><time>2026-04-26T13:12:25.351Z</time></trkpt><trkpt lat="43.9041109" lon="7.9382477"><ele>237.66666666666669</ele><time>2026-04-26T13:12:26.35Z</time></trkpt><trkpt lat="43.9041634" lon="7.9381545"><ele>239.5</ele><time>2026-04-26T13:12:27.352Z</time></trkpt><trkpt lat="43.9042184" lon="7.9380759"><ele>241.33333333333334</ele><time>2026-04-26T13:12:28.35Z</time></trkpt><trkpt lat="43.9042849" lon="7.938022"><ele>243.16666666666669</ele><time>2026-04-26T13:12:29.352Z</time></trkpt><trkpt lat="43.9043652" lon="7.9380055"><ele>245.0</ele><time>2026-04-26T13:12:30.35Z</time></trkpt><trkpt lat="43.904449" lon="7.938009"><ele>245.0</ele><time>2026-04-26T13:12:31.352Z</time></trkpt><trkpt lat="43.9045373" lon="7.9380315"><ele>245.0</ele><time>2026-04-26T13:12:32.351Z</time></trkpt><trkpt lat="43.9046255" lon="7.9380684"><ele>245.0</ele><time>2026-04-26T13:12:33.352Z</time></trkpt><trkpt lat="43.9047138" lon="7.9381006"><ele>245.0</ele><time>2026-04-26T13:12:34.351Z</time></trkpt><trkpt lat="43.9048013" lon="7.9381285"><ele>245.0</ele><time>2026-04-26T13:12:35.35Z</time></trkpt><trkpt lat="43.9048861" lon="7.9381529"><ele>245.00000000000003</ele><time>2026-04-26T13:12:36.352Z</time></trkpt><trkpt lat="43.9049641" lon="7.9381682"><ele>245.0</ele><time>2026-04-26T13:12:37.35Z</time></trkpt><trkpt lat="43.9050304" lon="7.9381452"><ele>245.0</ele><time>2026-04-26T13:12:38.35Z</time></trkpt><trkpt lat="43.9050962" lon="7.9380908"><ele>245.0</ele><time>2026-04-26T13:12:39.35Z</time></trkpt><trkpt lat="43.905144" lon="7.9380069"><ele>245.00000000000003</ele><time>2026-04-26T13:12:40.35Z</time></trkpt><trkpt lat="43.9051792" lon="7.9378919"><ele>245.0</ele><time>2026-04-26T13:12:41.352Z</time></trkpt><trkpt lat="43.9051955" lon="7.9377636"><ele>244.8</ele><time>2026-04-26T13:12:42.351Z</time></trkpt><trkpt lat="43.9052076" lon="7.9376263"><ele>244.6</ele><time>2026-04-26T13:12:43.35Z</time></trkpt><trkpt lat="43.905222" lon="7.937499"><ele>244.39999999999998</ele><time>2026-04-26T13:12:44.351Z</time></trkpt><trkpt lat="43.9052489" lon="7.9373831"><ele>244.2</ele><time>2026-04-26T13:12:45.35Z</time></trkpt><trkpt lat="43.9052757" lon="7.9372768"><ele>244.0</ele><time>2026-04-26T13:12:46.351Z</time></trkpt><trkpt lat="43.9053366" lon="7.9371809"><ele>244.0</ele><time>2026-04-26T13:12:47.352Z</time></trkpt><trkpt lat="43.9053998" lon="7.937079"><ele>243.99999999999997</ele><time>2026-04-26T13:12:48.352Z</time></trkpt><trkpt lat="43.9054871" lon="7.9369831"><ele>243.99999999999997</ele><time>2026-04-26T13:12:49.35Z</time></trkpt><trkpt lat="43.9055684" lon="7.9368767"><ele>244.0</ele><time>2026-04-26T13:12:50.352Z</time></trkpt><trkpt lat="43.9056559" lon="7.9367623"><ele>244.0</ele><time>2026-04-26T13:12:51.351Z</time></trkpt><trkpt lat="43.9057433" lon="7.9366428"><ele>244.25</ele><time>2026-04-26T13:12:52.352Z</time></trkpt><trkpt lat="43.9058349" lon="7.9365288"><ele>244.5</ele><time>2026-04-26T13:12:53.352Z</time></trkpt><trkpt lat="43.90592" lon="7.9364177"><ele>244.75</ele><time>2026-04-26T13:12:54.35Z</time></trkpt><trkpt lat="43.9060023" lon="7.936311"><ele>245.0</ele><time>2026-04-26T13:12:55.351Z</time></trkpt><trkpt lat="43.906086" lon="7.936209"><ele>245.0</ele><time>2026-04-26T13:12:56.35Z</time></trkpt><trkpt lat="43.9061659" lon="7.9361218"><ele>245.0</ele><time>2026-04-26T13:12:57.352Z</time></trkpt><trkpt lat="43.9062439" lon="7.9360324"><ele>245.0</ele><time>2026-04-26T13:12:58.35Z</time></trkpt><trkpt lat="43.9063179" lon="7.9359383"><ele>245.0</ele><time>2026-04-26T13:12:59.35Z</time></trkpt><trkpt lat="43.9063868" lon="7.9358546"><ele>245.0</ele><time>2026-04-26T13:13:00.351Z</time></trkpt><trkpt lat="43.9064563" lon="7.9357838"><ele>247.33333333333334</ele><time>2026-04-26T13:13:01.351Z</time></trkpt><trkpt lat="43.9065328" lon="7.9357155"><ele>249.66666666666669</ele><time>2026-04-26T13:13:02.351Z</time></trkpt><trkpt lat="43.9066176" lon="7.9356556"><ele>252.0</ele><time>2026-04-26T13:13:03.35Z</time></trkpt><trkpt lat="43.9066988" lon="7.9356061"><ele>254.33333333333331</ele><time>2026-04-26T13:13:04.351Z</time></trkpt><trkpt lat="43.9067708" lon="7.9355712"><ele>256.66666666666663</ele><time>2026-04-26T13:13:05.352Z</time></trkpt><trkpt lat="43.9068325" lon="7.9355417"><ele>259.0</ele><time>2026-04-26T13:13:06.352Z</time></trkpt><trkpt lat="43.9069039" lon="7.9354865"><ele>259.0</ele><time>2026-04-26T13:13:08.351Z</time></trkpt><trkpt lat="43.9068413" lon="7.9354403"><ele>259.0</ele><time>2026-04-26T13:13:11.352Z</time></trkpt><trkpt lat="43.9067431" lon="7.9354536"><ele>259.0</ele><time>2026-04-26T13:13:13.351Z</time></trkpt><trkpt lat="43.9066742" lon="7.9354612"><ele>259.0</ele><time>2026-04-26T13:13:14.351Z</time></trkpt><trkpt lat="43.9065843" lon="7.9354599"><ele>259.0</ele><time>2026-04-26T13:13:15.351Z</time></trkpt><trkpt lat="43.9064949" lon="7.9354718"><ele>259.0</ele><time>2026-04-26T13:13:16.351Z</time></trkpt><trkpt lat="43.9063987" lon="7.9354793"><ele>259.0</ele><time>2026-04-26T13:13:17.351Z</time></trkpt><trkpt lat="43.9062867" lon="7.9355023"><ele>259.0</ele><time>2026-04-26T13:13:18.351Z</time></trkpt><trkpt lat="43.9061901" lon="7.9355308"><ele>259.0</ele><time>2026-04-26T13:13:19.351Z</time></trkpt><trkpt lat="43.9061091" lon="7.9355608"><ele>259.0</ele><time>2026-04-26T13:13:20.351Z</time></trkpt><trkpt lat="43.9060282" lon="7.9355959"><ele>259.0</ele><time>2026-04-26T13:13:21.351Z</time></trkpt><trkpt lat="43.9059516" lon="7.9356141"><ele>261.0</ele><time>2026-04-26T13:13:22.35Z</time></trkpt><trkpt lat="43.9058659" lon="7.9355973"><ele>263.0</ele><time>2026-04-26T13:13:23.352Z</time></trkpt><trkpt lat="43.9057694" lon="7.9355704"><ele>265.0</ele><time>2026-04-26T13:13:24.351Z</time></trkpt><trkpt lat="43.9056706" lon="7.9355356"><ele>267.0</ele><time>2026-04-26T13:13:25.35Z</time></trkpt><trkpt lat="43.9055824" lon="7.9354972"><ele>269.0</ele><time>2026-04-26T13:13:26.352Z</time></trkpt><trkpt lat="43.9054905" lon="7.9354601"><ele>269.0</ele><time>2026-04-26T13:13:27.351Z</time></trkpt><trkpt lat="43.9054004" lon="7.9354224"><ele>269.0</ele><time>2026-04-26T13:13:28.352Z</time></trkpt><trkpt lat="43.9053133" lon="7.935377"><ele>269.0</ele><time>2026-04-26T13:13:29.35Z</time></trkpt><trkpt lat="43.9052286" lon="7.9353422"><ele>269.0</ele><time>2026-04-26T13:13:30.351Z</time></trkpt><trkpt lat="43.9051435" lon="7.9353085"><ele>269.0</ele><time>2026-04-26T13:13:31.351Z</time></trkpt><trkpt lat="43.9050613" lon="7.9352924"><ele>269.0</ele><time>2026-04-26T13:13:32.35Z</time></trkpt><trkpt lat="43.9049796" lon="7.9352891"><ele>269.6666666666667</ele><time>2026-04-26T13:13:33.351Z</time></trkpt><trkpt lat="43.9048985" lon="7.9353039"><ele>270.33333333333337</ele><time>2026-04-26T13:13:34.351Z</time></trkpt><trkpt lat="43.9048185" lon="7.9353572"><ele>271.0</ele><time>2026-04-26T13:13:35.351Z</time></trkpt><trkpt lat="43.9047418" lon="7.9354209"><ele>271.6666666666667</ele><time>2026-04-26T13:13:36.352Z</time></trkpt><trkpt lat="43.9046688" lon="7.9354854"><ele>272.3333333333333</ele><time>2026-04-26T13:13:37.35Z</time></trkpt><trkpt lat="43.9045894" lon="7.9355407"><ele>273.0</ele><time>2026-04-26T13:13:38.352Z</time></trkpt><trkpt lat="43.9045083" lon="7.9355871"><ele>273.0</ele><time>2026-04-26T13:13:39.351Z</time></trkpt><trkpt lat="43.9044229" lon="7.9356286"><ele>273.0</ele><time>2026-04-26T13:13:40.352Z</time></trkpt><trkpt lat="43.9043472" lon="7.935677"><ele>273.0</ele><time>2026-04-26T13:13:41.35Z</time></trkpt><trkpt lat="43.904273" lon="7.9357141"><ele>273.0</ele><time>2026-04-26T13:13:42.352Z</time></trkpt><trkpt lat="43.9041941" lon="7.9357374"><ele>273.0</ele><time>2026-04-26T13:13:43.352Z</time></trkpt><trkpt lat="43.9041081" lon="7.9357437"><ele>273.0</ele><time>2026-04-26T13:13:44.35Z</time></trkpt><trkpt lat="43.9040191" lon="7.9357368"><ele>273.0</ele><time>2026-04-26T13:13:45.352Z</time></trkpt><trkpt lat="43.9039347" lon="7.9357388"><ele>273.0</ele><time>2026-04-26T13:13:46.351Z</time></trkpt><trkpt lat="43.9038473" lon="7.9357542"><ele>273.0</ele><time>2026-04-26T13:13:47.35Z</time></trkpt><trkpt lat="43.903764" lon="7.9357801"><ele>273.0</ele><time>2026-04-26T13:13:48.35Z</time></trkpt><trkpt lat="43.9036924" lon="7.9358113"><ele>273.0</ele><time>2026-04-26T13:13:49.351Z</time></trkpt><trkpt lat="43.9036183" lon="7.9358651"><ele>273.0</ele><time>2026-04-26T13:13:50.35Z</time></trkpt><trkpt lat="43.9035517" lon="7.9359313"><ele>273.0</ele><time>2026-04-26T13:13:51.352Z</time></trkpt><trkpt lat="43.9034818" lon="7.9360013"><ele>273.0</ele><time>2026-04-26T13:13:52.35Z</time></trkpt><trkpt lat="43.9034117" lon="7.9360622"><ele>273.0</ele><time>2026-04-26T13:13:53.352Z</time></trkpt><trkpt lat="43.9033436" lon="7.9361209"><ele>273.0</ele><time>2026-04-26T13:13:54.351Z</time></trkpt><trkpt lat="43.9032794" lon="7.936171"><ele>273.0</ele><time>2026-04-26T13:13:55.352Z</time></trkpt><trkpt lat="43.9032086" lon="7.9362117"><ele>273.0</ele><time>2026-04-26T13:13:56.35Z</time></trkpt><trkpt lat="43.903135" lon="7.9362443"><ele>274.6666666666667</ele><time>2026-04-26T13:13:57.351Z</time></trkpt><trkpt lat="43.9030595" lon="7.9362951"><ele>276.3333333333333</ele><time>2026-04-26T13:13:58.351Z</time></trkpt><trkpt lat="43.9029825" lon="7.936349"><ele>278.0</ele><time>2026-04-26T13:13:59.351Z</time></trkpt><trkpt lat="43.9029082" lon="7.9363934"><ele>279.66666666666663</ele><time>2026-04-26T13:14:00.352Z</time></trkpt><trkpt lat="43.9028404" lon="7.9364091"><ele>281.3333333333333</ele><time>2026-04-26T13:14:01.351Z</time></trkpt><trkpt lat="43.9027745" lon="7.9363339"><ele>283.0</ele><time>2026-04-26T13:14:03.351Z</time></trkpt><trkpt lat="43.9028031" lon="7.9362266"><ele>283.0</ele><time>2026-04-26T13:14:05.351Z</time></trkpt><trkpt lat="43.9029115" lon="7.9361515"><ele>283.0</ele><time>2026-04-26T13:14:07.351Z</time></trkpt><trkpt lat="43.9029667" lon="7.9360942"><ele>283.0</ele><time>2026-04-26T13:14:08.351Z</time></trkpt><trkpt lat="43.9030176" lon="7.9360417"><ele>283.0</ele><time>2026-04-26T13:14:09.352Z</time></trkpt><trkpt lat="43.9030742" lon="7.9359898"><ele>283.0</ele><time>2026-04-26T13:14:10.351Z</time></trkpt><trkpt lat="43.9031506" lon="7.9358869"><ele>283.0</ele><time>2026-04-26T13:14:12.351Z</time></trkpt><trkpt lat="43.9032" lon="7.9357209"><ele>285.8</ele><time>2026-04-26T13:14:14.351Z</time></trkpt><trkpt lat="43.9032341" lon="7.9356143"><ele>288.6</ele><time>2026-04-26T13:14:15.351Z</time></trkpt><trkpt lat="43.9032778" lon="7.9354948"><ele>291.4</ele><time>2026-04-26T13:14:16.351Z</time></trkpt><trkpt lat="43.9033198" lon="7.9353694"><ele>294.2</ele><time>2026-04-26T13:14:17.352Z</time></trkpt><trkpt lat="43.9033655" lon="7.9352461"><ele>297.0</ele><time>2026-04-26T13:14:18.351Z</time></trkpt><trkpt lat="43.9034033" lon="7.9351222"><ele>295.6</ele><time>2026-04-26T13:14:19.352Z</time></trkpt><trkpt lat="43.9034489" lon="7.9349988"><ele>294.2</ele><time>2026-04-26T13:14:20.35Z</time></trkpt><trkpt lat="43.9034979" lon="7.9348807"><ele>292.8</ele><time>2026-04-26T13:14:21.351Z</time></trkpt><trkpt lat="43.9035437" lon="7.9347627"><ele>291.4</ele><time>2026-04-26T13:14:22.352Z</time></trkpt><trkpt lat="43.9035916" lon="7.9346472"><ele>290.0</ele><time>2026-04-26T13:14:23.351Z</time></trkpt><trkpt lat="43.9036423" lon="7.9345313"><ele>290.0</ele><time>2026-04-26T13:14:24.35Z</time></trkpt><trkpt lat="43.9036784" lon="7.9344278"><ele>290.0</ele><time>2026-04-26T13:14:25.352Z</time></trkpt><trkpt lat="43.9036794" lon="7.9343259"><ele>290.0</ele><time>2026-04-26T13:14:26.351Z</time></trkpt><trkpt lat="43.9036134" lon="7.9342276"><ele>290.0</ele><time>2026-04-26T13:14:28.352Z</time></trkpt><trkpt lat="43.9035528" lon="7.9342654"><ele>290.0</ele><time>2026-04-26T13:14:29.352Z</time></trkpt><trkpt lat="43.9034946" lon="7.9343368"><ele>290.0</ele><time>2026-04-26T13:14:30.351Z</time></trkpt><trkpt lat="43.9034308" lon="7.9344262"><ele>294.2</ele><time>2026-04-26T13:14:31.352Z</time></trkpt><trkpt lat="43.9033759" lon="7.9345307"><ele>298.4</ele><time>2026-04-26T13:14:32.351Z</time></trkpt><trkpt lat="43.9033228" lon="7.9346383"><ele>302.6</ele><time>2026-04-26T13:14:33.352Z</time></trkpt><trkpt lat="43.9032612" lon="7.9347388"><ele>306.8</ele><time>2026-04-26T13:14:34.351Z</time></trkpt><trkpt lat="43.903189" lon="7.9348466"><ele>311.0</ele><time>2026-04-26T13:14:35.352Z</time></trkpt><trkpt lat="43.9031133" lon="7.9349462"><ele>311.0</ele><time>2026-04-26T13:14:36.351Z</time></trkpt><trkpt lat="43.9030521" lon="7.9350567"><ele>311.0</ele><time>2026-04-26T13:14:37.351Z</time></trkpt><trkpt lat="43.9030065" lon="7.9351433"><ele>311.0</ele><time>2026-04-26T13:14:38.352Z</time></trkpt><trkpt lat="43.9029325" lon="7.9352144"><ele>311.0</ele><time>2026-04-26T13:14:40.352Z</time></trkpt><trkpt lat="43.9028978" lon="7.9351321"><ele>311.0</ele><time>2026-04-26T13:14:42.349Z</time></trkpt><trkpt lat="43.9029075" lon="7.9350435"><ele>311.0</ele><time>2026-04-26T13:14:43.351Z</time></trkpt><trkpt lat="43.9029377" lon="7.934926"><ele>311.0</ele><time>2026-04-26T13:14:44.35Z</time></trkpt><trkpt lat="43.9029584" lon="7.9348162"><ele>311.0</ele><time>2026-04-26T13:14:45.352Z</time></trkpt><trkpt lat="43.9029834" lon="7.9346998"><ele>311.0</ele><time>2026-04-26T13:14:46.353Z</time></trkpt><trkpt lat="43.9029984" lon="7.9345785"><ele>311.0</ele><time>2026-04-26T13:14:47.352Z</time></trkpt><trkpt lat="43.9030205" lon="7.9344708"><ele>311.0</ele><time>2026-04-26T13:14:48.352Z</time></trkpt><trkpt lat="43.9030445" lon="7.9343779"><ele>311.0</ele><time>2026-04-26T13:14:49.352Z</time></trkpt><trkpt lat="43.9030654" lon="7.9342872"><ele>313.0</ele><time>2026-04-26T13:14:50.352Z</time></trkpt><trkpt lat="43.903106" lon="7.9341395"><ele>315.0</ele><time>2026-04-26T13:14:52.352Z</time></trkpt><trkpt lat="43.9031566" lon="7.9340168"><ele>317.0</ele><time>2026-04-26T13:14:54.35Z</time></trkpt><trkpt lat="43.9032072" lon="7.9338827"><ele>319.0</ele><time>2026-04-26T13:14:56.351Z</time></trkpt><trkpt lat="43.9032936" lon="7.9337766"><ele>321.0</ele><time>2026-04-26T13:14:58.351Z</time></trkpt><trkpt lat="43.9033401" lon="7.9337152"><ele>321.0</ele><time>2026-04-26T13:14:59.351Z</time></trkpt><trkpt lat="43.9033883" lon="7.9336517"><ele>321.0</ele><time>2026-04-26T13:15:00.351Z</time></trkpt><trkpt lat="43.9034382" lon="7.9335873"><ele>321.0</ele><time>2026-04-26T13:15:01.351Z</time></trkpt><trkpt lat="43.9034885" lon="7.9335264"><ele>321.0</ele><time>2026-04-26T13:15:02.351Z</time></trkpt><trkpt lat="43.9035738" lon="7.9334043"><ele>321.0</ele><time>2026-04-26T13:15:04.351Z</time></trkpt><trkpt lat="43.9036302" lon="7.9333448"><ele>321.0</ele><time>2026-04-26T13:15:05.351Z</time></trkpt><trkpt lat="43.9037072" lon="7.9332831"><ele>322.0</ele><time>2026-04-26T13:15:06.351Z</time></trkpt><trkpt lat="43.9037954" lon="7.9332061"><ele>323.0</ele><time>2026-04-26T13:15:07.352Z</time></trkpt><trkpt lat="43.9038933" lon="7.9331187"><ele>324.0</ele><time>2026-04-26T13:15:08.351Z</time></trkpt><trkpt lat="43.9039951" lon="7.9330014"><ele>325.0</ele><time>2026-04-26T13:15:09.35Z</time></trkpt><trkpt lat="43.9041113" lon="7.9328659"><ele>322.0</ele><time>2026-04-26T13:15:10.352Z</time></trkpt><trkpt lat="43.9042648" lon="7.9327152"><ele>319.0</ele><time>2026-04-26T13:15:11.351Z</time></trkpt><trkpt lat="43.9044215" lon="7.9325588"><ele>316.0</ele><time>2026-04-26T13:15:12.35Z</time></trkpt><trkpt lat="43.9046235" lon="7.9324108"><ele>320.3333333333333</ele><time>2026-04-26T13:15:13.352Z</time></trkpt><trkpt lat="43.9048071" lon="7.9322757"><ele>324.6666666666667</ele><time>2026-04-26T13:15:14.352Z</time></trkpt><trkpt lat="43.90498" lon="7.9321598"><ele>329.0</ele><time>2026-04-26T13:15:15.351Z</time></trkpt><trkpt lat="43.9051347" lon="7.9320523"><ele>329.0</ele><time>2026-04-26T13:15:16.352Z</time></trkpt><trkpt lat="43.905274" lon="7.9319428"><ele>329.0</ele><time>2026-04-26T13:15:17.351Z</time></trkpt><trkpt lat="43.9054013" lon="7.9318535"><ele>329.0</ele><time>2026-04-26T13:15:18.351Z</time></trkpt><trkpt lat="43.90552" lon="7.9317803"><ele>329.0</ele><time>2026-04-26T13:15:19.352Z</time></trkpt><trkpt lat="43.9056227" lon="7.9317211"><ele>329.5</ele><time>2026-04-26T13:15:20.351Z</time></trkpt><trkpt lat="43.9057227" lon="7.9316533"><ele>330.0</ele><time>2026-04-26T13:15:21.352Z</time></trkpt><trkpt lat="43.9057993" lon="7.9315745"><ele>330.5</ele><time>2026-04-26T13:15:22.352Z</time></trkpt><trkpt lat="43.9058621" lon="7.9314886"><ele>331.0</ele><time>2026-04-26T13:15:23.352Z</time></trkpt><trkpt lat="43.9059107" lon="7.9314026"><ele>331.5</ele><time>2026-04-26T13:15:24.352Z</time></trkpt><trkpt lat="43.9059314" lon="7.9313117"><ele>332.0</ele><time>2026-04-26T13:15:25.35Z</time></trkpt><trkpt lat="43.9058816" lon="7.9311903"><ele>336.0</ele><time>2026-04-26T13:15:26.351Z</time></trkpt><trkpt lat="43.9058207" lon="7.9310378"><ele>340.0</ele><time>2026-04-26T13:15:27.352Z</time></trkpt><trkpt lat="43.9057798" lon="7.9308909"><ele>344.0</ele><time>2026-04-26T13:15:28.352Z</time></trkpt><trkpt lat="43.9057392" lon="7.9307386"><ele>348.0</ele><time>2026-04-26T13:15:29.351Z</time></trkpt><trkpt lat="43.9057544" lon="7.9306072"><ele>347.59999999999997</ele><time>2026-04-26T13:15:30.352Z</time></trkpt><trkpt lat="43.9057694" lon="7.9304794"><ele>347.2</ele><time>2026-04-26T13:15:31.35Z</time></trkpt><trkpt lat="43.9058111" lon="7.9303504"><ele>346.8</ele><time>2026-04-26T13:15:32.351Z</time></trkpt><trkpt lat="43.9058716" lon="7.9302"><ele>346.4</ele><time>2026-04-26T13:15:33.35Z</time></trkpt><trkpt lat="43.9059232" lon="7.9300712"><ele>346.0</ele><time>2026-04-26T13:15:34.352Z</time></trkpt><trkpt lat="43.905974" lon="7.9299537"><ele>346.0</ele><time>2026-04-26T13:15:35.351Z</time></trkpt><trkpt lat="43.9060226" lon="7.9298452"><ele>346.0</ele><time>2026-04-26T13:15:36.351Z</time></trkpt><trkpt lat="43.9060314" lon="7.9297124"><ele>346.0</ele><time>2026-04-26T13:15:37.352Z</time></trkpt><trkpt lat="43.9060507" lon="7.9295769"><ele>346.0</ele><time>2026-04-26T13:15:38.35Z</time></trkpt><trkpt lat="43.906052" lon="7.9294437"><ele>346.0</ele><time>2026-04-26T13:15:39.351Z</time></trkpt><trkpt lat="43.9060423" lon="7.9293165"><ele>348.0</ele><time>2026-04-26T13:15:40.352Z</time></trkpt><trkpt lat="43.9060304" lon="7.9292046"><ele>350.0</ele><time>2026-04-26T13:15:41.351Z</time></trkpt><trkpt lat="43.9060085" lon="7.9291032"><ele>352.0</ele><time>2026-04-26T13:15:42.351Z</time></trkpt><trkpt lat="43.9060276" lon="7.9290018"><ele>354.0</ele><time>2026-04-26T13:15:43.351Z</time></trkpt><trkpt lat="43.9060392" lon="7.9289078"><ele>356.0</ele><time>2026-04-26T13:15:44.351Z</time></trkpt><trkpt lat="43.90608" lon="7.9288316"><ele>358.0</ele><time>2026-04-26T13:15:45.351Z</time></trkpt><trkpt lat="43.9061276" lon="7.9287654"><ele>360.0</ele><time>2026-04-26T13:15:46.351Z</time></trkpt><trkpt lat="43.9062095" lon="7.9286622"><ele>360.0</ele><time>2026-04-26T13:15:48.351Z</time></trkpt><trkpt lat="43.9062326" lon="7.9285486"><ele>360.0</ele><time>2026-04-26T13:15:50.352Z</time></trkpt><trkpt lat="43.9061424" lon="7.9285284"><ele>360.0</ele><time>2026-04-26T13:15:52.353Z</time></trkpt><trkpt lat="43.9060365" lon="7.9286135"><ele>360.0</ele><time>2026-04-26T13:15:54.352Z</time></trkpt><trkpt lat="43.9059339" lon="7.9286797"><ele>360.0</ele><time>2026-04-26T13:15:55.351Z</time></trkpt><trkpt lat="43.905849" lon="7.928727"><ele>361.8333333333333</ele><time>2026-04-26T13:15:56.351Z</time></trkpt><trkpt lat="43.9057869" lon="7.9287955"><ele>363.6666666666667</ele><time>2026-04-26T13:15:57.352Z</time></trkpt><trkpt lat="43.9057485" lon="7.9288858"><ele>365.5</ele><time>2026-04-26T13:15:58.351Z</time></trkpt><trkpt lat="43.9057365" lon="7.9289994"><ele>367.33333333333337</ele><time>2026-04-26T13:15:59.351Z</time></trkpt><trkpt lat="43.9057226" lon="7.9291147"><ele>369.1666666666667</ele><time>2026-04-26T13:16:00.351Z</time></trkpt><trkpt lat="43.9056975" lon="7.9292275"><ele>371.0</ele><time>2026-04-26T13:16:01.352Z</time></trkpt><trkpt lat="43.905656" lon="7.9293446"><ele>371.0</ele><time>2026-04-26T13:16:02.352Z</time></trkpt><trkpt lat="43.9055805" lon="7.9294439"><ele>371.0</ele><time>2026-04-26T13:16:03.352Z</time></trkpt><trkpt lat="43.9054881" lon="7.9295397"><ele>371.0</ele><time>2026-04-26T13:16:04.351Z</time></trkpt><trkpt lat="43.9053677" lon="7.9296284"><ele>371.0</ele><time>2026-04-26T13:16:05.351Z</time></trkpt><trkpt lat="43.9052537" lon="7.9296857"><ele>371.0</ele><time>2026-04-26T13:16:06.353Z</time></trkpt><trkpt lat="43.9051403" lon="7.9297303"><ele>371.0</ele><time>2026-04-26T13:16:07.351Z</time></trkpt><trkpt lat="43.9050603" lon="7.9297606"><ele>371.0</ele><time>2026-04-26T13:16:08.353Z</time></trkpt><trkpt lat="43.9049876" lon="7.9298144"><ele>371.0</ele><time>2026-04-26T13:16:09.351Z</time></trkpt><trkpt lat="43.9049338" lon="7.9298937"><ele>371.0</ele><time>2026-04-26T13:16:10.352Z</time></trkpt><trkpt lat="43.9049371" lon="7.9300302"><ele>373.8</ele><time>2026-04-26T13:16:11.35Z</time></trkpt><trkpt lat="43.904934" lon="7.9301798"><ele>376.6</ele><time>2026-04-26T13:16:12.351Z</time></trkpt><trkpt lat="43.9049261" lon="7.930337"><ele>379.4</ele><time>2026-04-26T13:16:13.353Z</time></trkpt><trkpt lat="43.9049114" lon="7.9304728"><ele>382.2</ele><time>2026-04-26T13:16:14.351Z</time></trkpt><trkpt lat="43.9048742" lon="7.9305808"><ele>385.0</ele><time>2026-04-26T13:16:15.351Z</time></trkpt><trkpt lat="43.9048209" lon="7.9306529"><ele>385.0</ele><time>2026-04-26T13:16:16.352Z</time></trkpt><trkpt lat="43.904742" lon="7.9307069"><ele>385.0</ele><time>2026-04-26T13:16:17.352Z</time></trkpt><trkpt lat="43.9046225" lon="7.9307453"><ele>385.0</ele><time>2026-04-26T13:16:18.351Z</time></trkpt><trkpt lat="43.9045057" lon="7.9307884"><ele>385.0</ele><time>2026-04-26T13:16:19.352Z</time></trkpt><trkpt lat="43.9043742" lon="7.9308555"><ele>384.0</ele><time>2026-04-26T13:16:20.351Z</time></trkpt><trkpt lat="43.9042511" lon="7.9309153"><ele>383.0</ele><time>2026-04-26T13:16:21.351Z</time></trkpt><trkpt lat="43.9041648" lon="7.9309549"><ele>382.0</ele><time>2026-04-26T13:16:22.351Z</time></trkpt><trkpt lat="43.9040774" lon="7.9309663"><ele>381.0</ele><time>2026-04-26T13:16:23.351Z</time></trkpt><trkpt lat="43.9039665" lon="7.9309292"><ele>380.0</ele><time>2026-04-26T13:16:24.352Z</time></trkpt><trkpt lat="43.9038598" lon="7.9308673"><ele>385.75</ele><time>2026-04-26T13:16:25.352Z</time></trkpt><trkpt lat="43.9037441" lon="7.930795"><ele>391.5</ele><time>2026-04-26T13:16:26.351Z</time></trkpt><trkpt lat="43.9036208" lon="7.9307154"><ele>397.25</ele><time>2026-04-26T13:16:27.352Z</time></trkpt><trkpt lat="43.9034916" lon="7.9306575"><ele>403.0</ele><time>2026-04-26T13:16:28.351Z</time></trkpt><trkpt lat="43.9033638" lon="7.930576"><ele>403.6666666666667</ele><time>2026-04-26T13:16:29.352Z</time></trkpt><trkpt lat="43.903201" lon="7.9304614"><ele>404.33333333333337</ele><time>2026-04-26T13:16:30.352Z</time></trkpt><trkpt lat="43.9030508" lon="7.9303679"><ele>405.0</ele><time>2026-04-26T13:16:31.351Z</time></trkpt><trkpt lat="43.9028932" lon="7.9302893"><ele>405.0</ele><time>2026-04-26T13:16:32.353Z</time></trkpt><trkpt lat="43.902746" lon="7.9302222"><ele>405.0</ele><time>2026-04-26T13:16:33.35Z</time></trkpt><trkpt lat="43.9026192" lon="7.930168"><ele>405.0</ele><time>2026-04-26T13:16:34.351Z</time></trkpt><trkpt lat="43.9025125" lon="7.9301141"><ele>405.0</ele><time>2026-04-26T13:16:35.353Z</time></trkpt><trkpt lat="43.9024192" lon="7.9300569"><ele>407.2</ele><time>2026-04-26T13:16:36.352Z</time></trkpt><trkpt lat="43.9023375" lon="7.9299912"><ele>409.4</ele><time>2026-04-26T13:16:37.351Z</time></trkpt><trkpt lat="43.9022529" lon="7.9299147"><ele>411.6</ele><time>2026-04-26T13:16:38.352Z</time></trkpt><trkpt lat="43.9021608" lon="7.9298426"><ele>413.8</ele><time>2026-04-26T13:16:39.351Z</time></trkpt><trkpt lat="43.9020904" lon="7.929779"><ele>416.0</ele><time>2026-04-26T13:16:40.351Z</time></trkpt><trkpt lat="43.9020543" lon="7.929696"><ele>416.0</ele><time>2026-04-26T13:16:41.352Z</time></trkpt><trkpt lat="43.9020492" lon="7.9295993"><ele>416.0</ele><time>2026-04-26T13:16:42.352Z</time></trkpt><trkpt lat="43.902076" lon="7.9294796"><ele>416.0</ele><time>2026-04-26T13:16:43.352Z</time></trkpt><trkpt lat="43.9021113" lon="7.9293248"><ele>416.0</ele><time>2026-04-26T13:16:44.353Z</time></trkpt><trkpt lat="43.9021387" lon="7.9291504"><ele>416.0</ele><time>2026-04-26T13:16:45.353Z</time></trkpt><trkpt lat="43.9021513" lon="7.9289865"><ele>418.8333333333333</ele><time>2026-04-26T13:16:46.351Z</time></trkpt><trkpt lat="43.9021454" lon="7.9288519"><ele>421.66666666666663</ele><time>2026-04-26T13:16:47.352Z</time></trkpt><trkpt lat="43.9021273" lon="7.9287193"><ele>424.5</ele><time>2026-04-26T13:16:48.352Z</time></trkpt><trkpt lat="43.9020725" lon="7.9286551"><ele>427.33333333333337</ele><time>2026-04-26T13:16:49.352Z</time></trkpt><trkpt lat="43.9020141" lon="7.9286119"><ele>430.1666666666667</ele><time>2026-04-26T13:16:50.351Z</time></trkpt><trkpt lat="43.9019346" lon="7.9285988"><ele>433.0</ele><time>2026-04-26T13:16:51.352Z</time></trkpt><trkpt lat="43.9018497" lon="7.9285918"><ele>431.0</ele><time>2026-04-26T13:16:52.352Z</time></trkpt><trkpt lat="43.9017425" lon="7.9286135"><ele>428.99999999999994</ele><time>2026-04-26T13:16:53.352Z</time></trkpt><trkpt lat="43.901631" lon="7.9286192"><ele>427.0</ele><time>2026-04-26T13:16:54.352Z</time></trkpt><trkpt lat="43.9015224" lon="7.928637"><ele>425.0</ele><time>2026-04-26T13:16:55.351Z</time></trkpt><trkpt lat="43.9014125" lon="7.9286538"><ele>423.0</ele><time>2026-04-26T13:16:56.352Z</time></trkpt><trkpt lat="43.9013046" lon="7.9286672"><ele>423.0</ele><time>2026-04-26T13:16:57.351Z</time></trkpt><trkpt lat="43.9011969" lon="7.9286786"><ele>423.0</ele><time>2026-04-26T13:16:58.352Z</time></trkpt><trkpt lat="43.9010938" lon="7.9286884"><ele>423.0</ele><time>2026-04-26T13:16:59.352Z</time></trkpt><trkpt lat="43.9009961" lon="7.9287019"><ele>423.0</ele><time>2026-04-26T13:17:00.352Z</time></trkpt><trkpt lat="43.9009117" lon="7.9286862"><ele>423.0</ele><time>2026-04-26T13:17:01.352Z</time></trkpt><trkpt lat="43.9008438" lon="7.928627"><ele>424.2</ele><time>2026-04-26T13:17:02.352Z</time></trkpt><trkpt lat="43.9007751" lon="7.9285408"><ele>425.4</ele><time>2026-04-26T13:17:03.351Z</time></trkpt><trkpt lat="43.9006986" lon="7.928426"><ele>426.59999999999997</ele><time>2026-04-26T13:17:04.352Z</time></trkpt><trkpt lat="43.9006198" lon="7.9283256"><ele>427.79999999999995</ele><time>2026-04-26T13:17:05.351Z</time></trkpt><trkpt lat="43.9005109" lon="7.9282519"><ele>429.0</ele><time>2026-04-26T13:17:06.352Z</time></trkpt><trkpt lat="43.900403" lon="7.9282069"><ele>432.25</ele><time>2026-04-26T13:17:07.351Z</time></trkpt><trkpt lat="43.9002855" lon="7.9281968"><ele>435.5</ele><time>2026-04-26T13:17:08.353Z</time></trkpt><trkpt lat="43.9001428" lon="7.9282017"><ele>438.75</ele><time>2026-04-26T13:17:09.352Z</time></trkpt><trkpt lat="43.8999966" lon="7.9282167"><ele>442.0</ele><time>2026-04-26T13:17:10.352Z</time></trkpt><trkpt lat="43.8998567" lon="7.9282365"><ele>442.75</ele><time>2026-04-26T13:17:11.352Z</time></trkpt><trkpt lat="43.8997354" lon="7.928266"><ele>443.5</ele><time>2026-04-26T13:17:12.352Z</time></trkpt><trkpt lat="43.8996262" lon="7.9283126"><ele>444.25</ele><time>2026-04-26T13:17:13.352Z</time></trkpt><trkpt lat="43.8995197" lon="7.928381"><ele>445.0</ele><time>2026-04-26T13:17:14.353Z</time></trkpt><trkpt lat="43.8994211" lon="7.92846"><ele>445.50000000000006</ele><time>2026-04-26T13:17:15.351Z</time></trkpt><trkpt lat="43.8993272" lon="7.9285458"><ele>446.0</ele><time>2026-04-26T13:17:16.351Z</time></trkpt><trkpt lat="43.8992446" lon="7.9286212"><ele>446.5</ele><time>2026-04-26T13:17:17.351Z</time></trkpt><trkpt lat="43.8991681" lon="7.9286873"><ele>447.0</ele><time>2026-04-26T13:17:18.351Z</time></trkpt><trkpt lat="43.8991063" lon="7.9287418"><ele>447.50000000000006</ele><time>2026-04-26T13:17:19.351Z</time></trkpt><trkpt lat="43.8990473" lon="7.9287777"><ele>448.0</ele><time>2026-04-26T13:17:20.352Z</time></trkpt><trkpt lat="43.8989562" lon="7.9287558"><ele>448.00000000000006</ele><time>2026-04-26T13:17:22.351Z</time></trkpt><trkpt lat="43.8988936" lon="7.9286973"><ele>448.0</ele><time>2026-04-26T13:17:24.352Z</time></trkpt><trkpt lat="43.8988366" lon="7.9287751"><ele>448.0</ele><time>2026-04-26T13:17:28.351Z</time></trkpt><trkpt lat="43.8989048" lon="7.9287792"><ele>448.0</ele><time>2026-04-26T13:18:30.353Z</time></trkpt><trkpt lat="43.8989179" lon="7.9286314"><ele>448.00000000000006</ele><time>2026-04-26T13:18:32.352Z</time></trkpt><trkpt lat="43.898946" lon="7.9285506"><ele>448.0</ele><time>2026-04-26T13:18:33.351Z</time></trkpt><trkpt lat="43.898985" lon="7.9284671"><ele>448.0</ele><time>2026-04-26T13:18:34.351Z</time></trkpt><trkpt lat="43.8990268" lon="7.9283897"><ele>452.0</ele><time>2026-04-26T13:18:35.352Z</time></trkpt><trkpt lat="43.8990669" lon="7.9283111"><ele>452.0</ele><time>2026-04-26T13:18:36.351Z</time></trkpt><trkpt lat="43.8991308" lon="7.928187"><ele>452.0</ele><time>2026-04-26T13:18:38.352Z</time></trkpt><trkpt lat="43.8991942" lon="7.9281348"><ele>452.0</ele><time>2026-04-26T13:18:40.353Z</time></trkpt><trkpt lat="43.89926" lon="7.9281255"><ele>445.0</ele><time>2026-04-26T13:18:42.352Z</time></trkpt></trkseg></trk></gpx>